<?xml version='1.0' encoding='UTF-8'?><gpx version="1.1" creator="JPX - https://github.com/jenetics/jpx" xmlns="http://www.topografix.com/GPX/1/1"><trk><trkseg><trkpt lat="44.525115" lon="10.8669133"><ele>133.0</ele><time>2026-05-03T08:00:06.761Z</time></trkpt><trkpt lat="44.525" lon="10.8668367"><ele>133.0</ele><time>2026-05-03T08:00:08.762Z</time></trkpt><trkpt lat="44.5249333" lon="10.8668"><ele>133.0</ele><time>2026-05-03T08:00:09.762Z</time></trkpt><trkpt lat="44.5248667" lon="10.8667683"><ele>133.0</ele><time>2026-05-03T08:00:10.762Z</time></trkpt><trkpt lat="44.5247733" lon="10.8667217"><ele>133.0</ele><time>2026-05-03T08:00:12.762Z</time></trkpt><trkpt lat="44.52469" lon="10.8667767"><ele>133.0</ele><time>2026-05-03T08:00:20.762Z</time></trkpt><trkpt lat="44.5246667" lon="10.866865"><ele>133.0</ele><time>2026-05-03T08:00:21.761Z</time></trkpt><trkpt lat="44.524645" lon="10.866975"><ele>133.0</ele><time>2026-05-03T08:00:22.761Z</time></trkpt><trkpt lat="44.5246183" lon="10.8671033"><ele>133.0</ele><time>2026-05-03T08:00:23.762Z</time></trkpt><trkpt lat="44.52459" lon="10.8672417"><ele>133.0</ele><time>2026-05-03T08:00:24.762Z</time></trkpt><trkpt lat="44.5245517" lon="10.86737"><ele>133.0</ele><time>2026-05-03T08:00:25.762Z</time></trkpt><trkpt lat="44.524525" lon="10.8675067"><ele>133.8</ele><time>2026-05-03T08:00:26.761Z</time></trkpt><trkpt lat="44.5244967" lon="10.86765"><ele>134.60000000000002</ele><time>2026-05-03T08:00:27.761Z</time></trkpt><trkpt lat="44.5244683" lon="10.8677917"><ele>135.39999999999998</ele><time>2026-05-03T08:00:28.762Z</time></trkpt><trkpt lat="44.52443" lon="10.8679283"><ele>136.2</ele><time>2026-05-03T08:00:29.761Z</time></trkpt><trkpt lat="44.5244033" lon="10.868075"><ele>137.0</ele><time>2026-05-03T08:00:30.761Z</time></trkpt><trkpt lat="44.524375" lon="10.8682367"><ele>137.0</ele><time>2026-05-03T08:00:31.762Z</time></trkpt><trkpt lat="44.5243433" lon="10.8684083"><ele>137.0</ele><time>2026-05-03T08:00:32.762Z</time></trkpt><trkpt lat="44.52431" lon="10.86858"><ele>137.0</ele><time>2026-05-03T08:00:33.762Z</time></trkpt><trkpt lat="44.52427" lon="10.8687533"><ele>137.0</ele><time>2026-05-03T08:00:34.762Z</time></trkpt><trkpt lat="44.524225" lon="10.868935"><ele>137.0</ele><time>2026-05-03T08:00:35.762Z</time></trkpt><trkpt lat="44.5241917" lon="10.869105"><ele>137.0</ele><time>2026-05-03T08:00:36.761Z</time></trkpt><trkpt lat="44.5241733" lon="10.8692933"><ele>137.0</ele><time>2026-05-03T08:00:37.762Z</time></trkpt><trkpt lat="44.52416" lon="10.8694767"><ele>137.0</ele><time>2026-05-03T08:00:38.761Z</time></trkpt><trkpt lat="44.5241567" lon="10.8696633"><ele>136.75</ele><time>2026-05-03T08:00:39.762Z</time></trkpt><trkpt lat="44.5241617" lon="10.8698533"><ele>136.5</ele><time>2026-05-03T08:00:40.762Z</time></trkpt><trkpt lat="44.5241517" lon="10.8700367"><ele>136.25</ele><time>2026-05-03T08:00:41.762Z</time></trkpt><trkpt lat="44.5241483" lon="10.8702233"><ele>136.0</ele><time>2026-05-03T08:00:42.761Z</time></trkpt><trkpt lat="44.5241433" lon="10.8704133"><ele>135.5</ele><time>2026-05-03T08:00:43.762Z</time></trkpt><trkpt lat="44.5241367" lon="10.870595"><ele>135.0</ele><time>2026-05-03T08:00:44.761Z</time></trkpt><trkpt lat="44.5241333" lon="10.8707733"><ele>134.5</ele><time>2026-05-03T08:00:45.762Z</time></trkpt><trkpt lat="44.5241267" lon="10.87095"><ele>134.0</ele><time>2026-05-03T08:00:46.761Z</time></trkpt><trkpt lat="44.524135" lon="10.8711183"><ele>134.0</ele><time>2026-05-03T08:00:47.761Z</time></trkpt><trkpt lat="44.5241267" lon="10.871255"><ele>134.0</ele><time>2026-05-03T08:00:48.762Z</time></trkpt><trkpt lat="44.524115" lon="10.8713733"><ele>134.0</ele><time>2026-05-03T08:00:49.762Z</time></trkpt><trkpt lat="44.5241133" lon="10.8714733"><ele>134.0</ele><time>2026-05-03T08:00:50.762Z</time></trkpt><trkpt lat="44.52411" lon="10.8715967"><ele>134.0</ele><time>2026-05-03T08:00:52.761Z</time></trkpt><trkpt lat="44.5240683" lon="10.8716917"><ele>134.0</ele><time>2026-05-03T08:00:54.762Z</time></trkpt><trkpt lat="44.5239417" lon="10.8717633"><ele>134.0</ele><time>2026-05-03T08:00:56.762Z</time></trkpt><trkpt lat="44.5238483" lon="10.8717583"><ele>134.0</ele><time>2026-05-03T08:00:57.762Z</time></trkpt><trkpt lat="44.52375" lon="10.8717233"><ele>134.0</ele><time>2026-05-03T08:00:58.762Z</time></trkpt><trkpt lat="44.5236233" lon="10.8716633"><ele>134.0</ele><time>2026-05-03T08:00:59.761Z</time></trkpt><trkpt lat="44.5234917" lon="10.8715983"><ele>135.75</ele><time>2026-05-03T08:01:00.762Z</time></trkpt><trkpt lat="44.5233567" lon="10.871545"><ele>137.5</ele><time>2026-05-03T08:01:01.762Z</time></trkpt><trkpt lat="44.52321" lon="10.8714867"><ele>139.25</ele><time>2026-05-03T08:01:02.762Z</time></trkpt><trkpt lat="44.523065" lon="10.8714267"><ele>141.0</ele><time>2026-05-03T08:01:03.762Z</time></trkpt><trkpt lat="44.52292" lon="10.871365"><ele>142.33333333333334</ele><time>2026-05-03T08:01:04.761Z</time></trkpt><trkpt lat="44.5227767" lon="10.8713033"><ele>143.66666666666669</ele><time>2026-05-03T08:01:05.761Z</time></trkpt><trkpt lat="44.5226333" lon="10.8712383"><ele>145.0</ele><time>2026-05-03T08:01:06.762Z</time></trkpt><trkpt lat="44.5224833" lon="10.8711767"><ele>145.0</ele><time>2026-05-03T08:01:07.762Z</time></trkpt><trkpt lat="44.5223583" lon="10.8711017"><ele>145.0</ele><time>2026-05-03T08:01:08.762Z</time></trkpt><trkpt lat="44.5222217" lon="10.8710367"><ele>145.0</ele><time>2026-05-03T08:01:09.762Z</time></trkpt><trkpt lat="44.5220883" lon="10.8709717"><ele>145.0</ele><time>2026-05-03T08:01:10.762Z</time></trkpt><trkpt lat="44.5219567" lon="10.87091"><ele>146.0</ele><time>2026-05-03T08:01:11.762Z</time></trkpt><trkpt lat="44.5218283" lon="10.8708567"><ele>147.0</ele><time>2026-05-03T08:01:12.762Z</time></trkpt><trkpt lat="44.52171" lon="10.8708183"><ele>148.0</ele><time>2026-05-03T08:01:13.761Z</time></trkpt><trkpt lat="44.5215983" lon="10.87077"><ele>149.0</ele><time>2026-05-03T08:01:14.761Z</time></trkpt><trkpt lat="44.5215033" lon="10.8707267"><ele>149.0</ele><time>2026-05-03T08:01:15.762Z</time></trkpt><trkpt lat="44.5214267" lon="10.8706917"><ele>149.0</ele><time>2026-05-03T08:01:16.762Z</time></trkpt><trkpt lat="44.5213533" lon="10.870645"><ele>149.0</ele><time>2026-05-03T08:01:17.762Z</time></trkpt><trkpt lat="44.5212917" lon="10.87059"><ele>149.0</ele><time>2026-05-03T08:01:18.762Z</time></trkpt><trkpt lat="44.5212533" lon="10.8705017"><ele>149.0</ele><time>2026-05-03T08:01:19.762Z</time></trkpt><trkpt lat="44.52122" lon="10.8703967"><ele>149.0</ele><time>2026-05-03T08:01:20.762Z</time></trkpt><trkpt lat="44.5211867" lon="10.87027"><ele>149.25</ele><time>2026-05-03T08:01:21.762Z</time></trkpt><trkpt lat="44.5211417" lon="10.8701417"><ele>149.5</ele><time>2026-05-03T08:01:22.762Z</time></trkpt><trkpt lat="44.5210817" lon="10.8699983"><ele>149.75</ele><time>2026-05-03T08:01:23.762Z</time></trkpt><trkpt lat="44.5210183" lon="10.869855"><ele>150.0</ele><time>2026-05-03T08:01:24.762Z</time></trkpt><trkpt lat="44.5209467" lon="10.8697017"><ele>148.75</ele><time>2026-05-03T08:01:25.761Z</time></trkpt><trkpt lat="44.520875" lon="10.869545"><ele>147.5</ele><time>2026-05-03T08:01:26.761Z</time></trkpt><trkpt lat="44.5207983" lon="10.8693917"><ele>146.25</ele><time>2026-05-03T08:01:27.762Z</time></trkpt><trkpt lat="44.52071" lon="10.8692483"><ele>145.0</ele><time>2026-05-03T08:01:28.761Z</time></trkpt><trkpt lat="44.5206183" lon="10.86915"><ele>144.0</ele><time>2026-05-03T08:01:29.762Z</time></trkpt><trkpt lat="44.520525" lon="10.8690683"><ele>143.0</ele><time>2026-05-03T08:01:30.762Z</time></trkpt><trkpt lat="44.520415" lon="10.8689967"><ele>142.0</ele><time>2026-05-03T08:01:31.762Z</time></trkpt><trkpt lat="44.5202867" lon="10.8689567"><ele>141.0</ele><time>2026-05-03T08:01:32.762Z</time></trkpt><trkpt lat="44.5201433" lon="10.8689233"><ele>141.0</ele><time>2026-05-03T08:01:33.762Z</time></trkpt><trkpt lat="44.52001" lon="10.8689"><ele>141.0</ele><time>2026-05-03T08:01:34.761Z</time></trkpt><trkpt lat="44.5198483" lon="10.868875"><ele>141.0</ele><time>2026-05-03T08:01:35.761Z</time></trkpt><trkpt lat="44.5196717" lon="10.8688683"><ele>142.66666666666666</ele><time>2026-05-03T08:01:36.762Z</time></trkpt><trkpt lat="44.5195083" lon="10.8688517"><ele>144.33333333333331</ele><time>2026-05-03T08:01:37.762Z</time></trkpt><trkpt lat="44.5193467" lon="10.8688217"><ele>146.0</ele><time>2026-05-03T08:01:38.762Z</time></trkpt><trkpt lat="44.5191917" lon="10.8688117"><ele>146.0</ele><time>2026-05-03T08:01:39.762Z</time></trkpt><trkpt lat="44.51907" lon="10.868795"><ele>146.0</ele><time>2026-05-03T08:01:40.761Z</time></trkpt><trkpt lat="44.51898" lon="10.8687533"><ele>146.0</ele><time>2026-05-03T08:01:41.762Z</time></trkpt><trkpt lat="44.51891" lon="10.8686883"><ele>146.0</ele><time>2026-05-03T08:01:42.762Z</time></trkpt><trkpt lat="44.51885" lon="10.8686017"><ele>146.0</ele><time>2026-05-03T08:01:43.761Z</time></trkpt><trkpt lat="44.518815" lon="10.8683933"><ele>146.6</ele><time>2026-05-03T08:01:45.762Z</time></trkpt><trkpt lat="44.5188033" lon="10.8682983"><ele>147.2</ele><time>2026-05-03T08:01:46.762Z</time></trkpt><trkpt lat="44.5187667" lon="10.8681383"><ele>147.8</ele><time>2026-05-03T08:01:48.762Z</time></trkpt><trkpt lat="44.518725" lon="10.8679733"><ele>148.4</ele><time>2026-05-03T08:01:50.762Z</time></trkpt><trkpt lat="44.5186683" lon="10.86781"><ele>149.0</ele><time>2026-05-03T08:01:52.762Z</time></trkpt><trkpt lat="44.51864" lon="10.867725"><ele>150.16666666666666</ele><time>2026-05-03T08:01:53.762Z</time></trkpt><trkpt lat="44.5186133" lon="10.86763"><ele>151.33333333333331</ele><time>2026-05-03T08:01:54.762Z</time></trkpt><trkpt lat="44.5185867" lon="10.8675333"><ele>152.5</ele><time>2026-05-03T08:01:55.761Z</time></trkpt><trkpt lat="44.51856" lon="10.86743"><ele>153.66666666666666</ele><time>2026-05-03T08:01:56.762Z</time></trkpt><trkpt lat="44.5185267" lon="10.867325"><ele>154.83333333333334</ele><time>2026-05-03T08:01:57.762Z</time></trkpt><trkpt lat="44.5184817" lon="10.8672283"><ele>156.0</ele><time>2026-05-03T08:01:58.761Z</time></trkpt><trkpt lat="44.5184033" lon="10.8671617"><ele>156.66666666666666</ele><time>2026-05-03T08:02:00.762Z</time></trkpt><trkpt lat="44.5183433" lon="10.8671983"><ele>157.33333333333334</ele><time>2026-05-03T08:02:02.762Z</time></trkpt><trkpt lat="44.5182317" lon="10.86727"><ele>158.0</ele><time>2026-05-03T08:03:17.762Z</time></trkpt><trkpt lat="44.5181633" lon="10.8673183"><ele>158.66666666666669</ele><time>2026-05-03T08:03:18.761Z</time></trkpt><trkpt lat="44.5180867" lon="10.8673683"><ele>159.33333333333334</ele><time>2026-05-03T08:03:19.762Z</time></trkpt><trkpt lat="44.5180067" lon="10.8674183"><ele>160.0</ele><time>2026-05-03T08:03:20.762Z</time></trkpt><trkpt lat="44.517925" lon="10.8674683"><ele>160.2</ele><time>2026-05-03T08:03:21.761Z</time></trkpt><trkpt lat="44.51784" lon="10.867515"><ele>160.4</ele><time>2026-05-03T08:03:22.762Z</time></trkpt><trkpt lat="44.51775" lon="10.8675733"><ele>160.60000000000002</ele><time>2026-05-03T08:03:23.762Z</time></trkpt><trkpt lat="44.5176583" lon="10.8676267"><ele>160.8</ele><time>2026-05-03T08:03:24.761Z</time></trkpt><trkpt lat="44.5175733" lon="10.8676817"><ele>161.0</ele><time>2026-05-03T08:03:25.76Z</time></trkpt><trkpt lat="44.517495" lon="10.86772"><ele>161.0</ele><time>2026-05-03T08:03:26.761Z</time></trkpt><trkpt lat="44.5174267" lon="10.8677683"><ele>161.0</ele><time>2026-05-03T08:03:27.76Z</time></trkpt><trkpt lat="44.51736" lon="10.8678067"><ele>161.0</ele><time>2026-05-03T08:03:28.761Z</time></trkpt><trkpt lat="44.5172383" lon="10.8678117"><ele>161.0</ele><time>2026-05-03T08:03:30.76Z</time></trkpt><trkpt lat="44.51713" lon="10.8677517"><ele>161.0</ele><time>2026-05-03T08:03:32.761Z</time></trkpt><trkpt lat="44.5170067" lon="10.8677267"><ele>161.5</ele><time>2026-05-03T08:03:34.761Z</time></trkpt><trkpt lat="44.5169383" lon="10.86772"><ele>162.0</ele><time>2026-05-03T08:03:35.76Z</time></trkpt><trkpt lat="44.5168517" lon="10.8677333"><ele>162.5</ele><time>2026-05-03T08:03:36.761Z</time></trkpt><trkpt lat="44.5167583" lon="10.8677583"><ele>163.0</ele><time>2026-05-03T08:03:37.76Z</time></trkpt><trkpt lat="44.5166633" lon="10.8677817"><ele>163.5</ele><time>2026-05-03T08:03:38.76Z</time></trkpt><trkpt lat="44.5165683" lon="10.8678033"><ele>164.0</ele><time>2026-05-03T08:03:39.761Z</time></trkpt><trkpt lat="44.5164883" lon="10.86778"><ele>164.0</ele><time>2026-05-03T08:03:40.761Z</time></trkpt><trkpt lat="44.5164283" lon="10.8677233"><ele>164.0</ele><time>2026-05-03T08:03:41.761Z</time></trkpt><trkpt lat="44.51639" lon="10.8676467"><ele>164.0</ele><time>2026-05-03T08:03:42.761Z</time></trkpt><trkpt lat="44.51638" lon="10.8675417"><ele>164.0</ele><time>2026-05-03T08:03:43.761Z</time></trkpt><trkpt lat="44.5163683" lon="10.867425"><ele>164.0</ele><time>2026-05-03T08:03:44.76Z</time></trkpt><trkpt lat="44.5163217" lon="10.867315"><ele>164.0</ele><time>2026-05-03T08:03:45.761Z</time></trkpt><trkpt lat="44.5162617" lon="10.8672533"><ele>165.33333333333331</ele><time>2026-05-03T08:03:46.76Z</time></trkpt><trkpt lat="44.5161883" lon="10.8672283"><ele>166.66666666666666</ele><time>2026-05-03T08:03:47.761Z</time></trkpt><trkpt lat="44.5160983" lon="10.86723"><ele>168.0</ele><time>2026-05-03T08:03:48.761Z</time></trkpt><trkpt lat="44.515995" lon="10.8672517"><ele>169.33333333333334</ele><time>2026-05-03T08:03:49.761Z</time></trkpt><trkpt lat="44.5159067" lon="10.8672767"><ele>170.66666666666669</ele><time>2026-05-03T08:03:50.761Z</time></trkpt><trkpt lat="44.515835" lon="10.867295"><ele>172.0</ele><time>2026-05-03T08:03:51.76Z</time></trkpt><trkpt lat="44.5157267" lon="10.8673267"><ele>172.0</ele><time>2026-05-03T08:03:53.761Z</time></trkpt><trkpt lat="44.5156383" lon="10.867345"><ele>172.0</ele><time>2026-05-03T08:03:55.761Z</time></trkpt><trkpt lat="44.5155617" lon="10.8673633"><ele>172.0</ele><time>2026-05-03T08:03:57.761Z</time></trkpt><trkpt lat="44.5154817" lon="10.8673867"><ele>172.0</ele><time>2026-05-03T08:03:59.761Z</time></trkpt><trkpt lat="44.515395" lon="10.86741"><ele>172.0</ele><time>2026-05-03T08:04:01.761Z</time></trkpt><trkpt lat="44.5153183" lon="10.8674317"><ele>172.0</ele><time>2026-05-03T08:04:03.761Z</time></trkpt><trkpt lat="44.5152483" lon="10.8674433"><ele>172.0</ele><time>2026-05-03T08:04:05.761Z</time></trkpt><trkpt lat="44.5151683" lon="10.867465"><ele>172.0</ele><time>2026-05-03T08:04:08.76Z</time></trkpt><trkpt lat="44.515095" lon="10.8674933"><ele>172.0</ele><time>2026-05-03T08:04:11.761Z</time></trkpt><trkpt lat="44.5150117" lon="10.8675133"><ele>172.0</ele><time>2026-05-03T08:04:14.761Z</time></trkpt><trkpt lat="44.5149467" lon="10.8675283"><ele>172.0</ele><time>2026-05-03T08:04:16.761Z</time></trkpt><trkpt lat="44.5148733" lon="10.8675533"><ele>172.0</ele><time>2026-05-03T08:04:18.761Z</time></trkpt><trkpt lat="44.51479" lon="10.8675733"><ele>172.0</ele><time>2026-05-03T08:04:20.761Z</time></trkpt><trkpt lat="44.514695" lon="10.867605"><ele>172.0</ele><time>2026-05-03T08:04:22.76Z</time></trkpt><trkpt lat="44.5145833" lon="10.867635"><ele>172.0</ele><time>2026-05-03T08:04:24.761Z</time></trkpt><trkpt lat="44.51451" lon="10.867645"><ele>172.0</ele><time>2026-05-03T08:04:25.76Z</time></trkpt><trkpt lat="44.5144317" lon="10.8676617"><ele>172.0</ele><time>2026-05-03T08:04:26.76Z</time></trkpt><trkpt lat="44.514335" lon="10.8676717"><ele>172.39999999999998</ele><time>2026-05-03T08:04:27.761Z</time></trkpt><trkpt lat="44.5142367" lon="10.8676867"><ele>172.79999999999998</ele><time>2026-05-03T08:04:28.761Z</time></trkpt><trkpt lat="44.514135" lon="10.8676967"><ele>173.2</ele><time>2026-05-03T08:04:29.761Z</time></trkpt><trkpt lat="44.5140317" lon="10.86771"><ele>173.6</ele><time>2026-05-03T08:04:30.761Z</time></trkpt><trkpt lat="44.5139283" lon="10.86772"><ele>174.0</ele><time>2026-05-03T08:04:31.761Z</time></trkpt><trkpt lat="44.5138333" lon="10.86773"><ele>174.6</ele><time>2026-05-03T08:04:32.761Z</time></trkpt><trkpt lat="44.5137367" lon="10.8677167"><ele>175.2</ele><time>2026-05-03T08:04:33.761Z</time></trkpt><trkpt lat="44.5136383" lon="10.86768"><ele>175.79999999999998</ele><time>2026-05-03T08:04:34.761Z</time></trkpt><trkpt lat="44.5135467" lon="10.8676217"><ele>176.39999999999998</ele><time>2026-05-03T08:04:35.761Z</time></trkpt><trkpt lat="44.5134533" lon="10.8675433"><ele>177.0</ele><time>2026-05-03T08:04:36.761Z</time></trkpt><trkpt lat="44.5133483" lon="10.867465"><ele>178.0</ele><time>2026-05-03T08:04:37.761Z</time></trkpt><trkpt lat="44.5132483" lon="10.867395"><ele>179.0</ele><time>2026-05-03T08:04:38.76Z</time></trkpt><trkpt lat="44.51314" lon="10.867325"><ele>180.0</ele><time>2026-05-03T08:04:39.76Z</time></trkpt><trkpt lat="44.5130233" lon="10.8672467"><ele>181.0</ele><time>2026-05-03T08:04:40.761Z</time></trkpt><trkpt lat="44.512925" lon="10.8671717"><ele>182.20000000000002</ele><time>2026-05-03T08:04:41.761Z</time></trkpt><trkpt lat="44.5128333" lon="10.86711"><ele>183.4</ele><time>2026-05-03T08:04:42.761Z</time></trkpt><trkpt lat="44.512755" lon="10.86706"><ele>184.6</ele><time>2026-05-03T08:04:43.761Z</time></trkpt><trkpt lat="44.5126767" lon="10.867005"><ele>185.8</ele><time>2026-05-03T08:04:44.76Z</time></trkpt><trkpt lat="44.5125917" lon="10.8669467"><ele>187.0</ele><time>2026-05-03T08:04:45.761Z</time></trkpt><trkpt lat="44.512515" lon="10.8668917"><ele>187.0</ele><time>2026-05-03T08:04:46.761Z</time></trkpt><trkpt lat="44.512435" lon="10.866835"><ele>187.0</ele><time>2026-05-03T08:04:47.761Z</time></trkpt><trkpt lat="44.512365" lon="10.8667767"><ele>187.0</ele><time>2026-05-03T08:04:48.761Z</time></trkpt><trkpt lat="44.51229" lon="10.866765"><ele>187.0</ele><time>2026-05-03T08:04:49.761Z</time></trkpt><trkpt lat="44.5122167" lon="10.8667783"><ele>187.0</ele><time>2026-05-03T08:04:50.76Z</time></trkpt><trkpt lat="44.51215" lon="10.8668167"><ele>187.0</ele><time>2026-05-03T08:04:51.761Z</time></trkpt><trkpt lat="44.51209" lon="10.8669017"><ele>188.83333333333334</ele><time>2026-05-03T08:04:52.761Z</time></trkpt><trkpt lat="44.51204" lon="10.8670133"><ele>190.66666666666669</ele><time>2026-05-03T08:04:53.761Z</time></trkpt><trkpt lat="44.51199" lon="10.8671333"><ele>192.5</ele><time>2026-05-03T08:04:54.761Z</time></trkpt><trkpt lat="44.5119367" lon="10.8672267"><ele>194.33333333333334</ele><time>2026-05-03T08:04:55.76Z</time></trkpt><trkpt lat="44.5118817" lon="10.86727"><ele>196.16666666666666</ele><time>2026-05-03T08:04:56.761Z</time></trkpt><trkpt lat="44.511815" lon="10.86728"><ele>198.0</ele><time>2026-05-03T08:04:57.761Z</time></trkpt><trkpt lat="44.5117533" lon="10.8672417"><ele>198.0</ele><time>2026-05-03T08:04:58.76Z</time></trkpt><trkpt lat="44.511685" lon="10.867145"><ele>198.0</ele><time>2026-05-03T08:04:59.761Z</time></trkpt><trkpt lat="44.5116183" lon="10.8670417"><ele>198.0</ele><time>2026-05-03T08:05:00.761Z</time></trkpt><trkpt lat="44.5115467" lon="10.866945"><ele>198.0</ele><time>2026-05-03T08:05:01.76Z</time></trkpt><trkpt lat="44.5114783" lon="10.8668533"><ele>198.0</ele><time>2026-05-03T08:05:02.761Z</time></trkpt><trkpt lat="44.51142" lon="10.8667567"><ele>199.16666666666666</ele><time>2026-05-03T08:05:03.761Z</time></trkpt><trkpt lat="44.5113683" lon="10.86668"><ele>200.33333333333331</ele><time>2026-05-03T08:05:04.761Z</time></trkpt><trkpt lat="44.51128" lon="10.86659"><ele>201.5</ele><time>2026-05-03T08:05:06.761Z</time></trkpt><trkpt lat="44.5112183" lon="10.8666083"><ele>202.66666666666666</ele><time>2026-05-03T08:05:07.761Z</time></trkpt><trkpt lat="44.511165" lon="10.8666667"><ele>203.83333333333331</ele><time>2026-05-03T08:05:08.761Z</time></trkpt><trkpt lat="44.51111" lon="10.8667633"><ele>205.0</ele><time>2026-05-03T08:05:09.761Z</time></trkpt><trkpt lat="44.511045" lon="10.8668817"><ele>205.5</ele><time>2026-05-03T08:05:10.761Z</time></trkpt><trkpt lat="44.5109783" lon="10.8670033"><ele>206.0</ele><time>2026-05-03T08:05:11.761Z</time></trkpt><trkpt lat="44.5109" lon="10.8671267"><ele>206.5</ele><time>2026-05-03T08:05:12.761Z</time></trkpt><trkpt lat="44.5108117" lon="10.8672633"><ele>207.0</ele><time>2026-05-03T08:05:13.761Z</time></trkpt><trkpt lat="44.5107167" lon="10.8673967"><ele>207.0</ele><time>2026-05-03T08:05:14.761Z</time></trkpt><trkpt lat="44.51061" lon="10.8675417"><ele>207.0</ele><time>2026-05-03T08:05:15.761Z</time></trkpt><trkpt lat="44.5105067" lon="10.8676917"><ele>207.0</ele><time>2026-05-03T08:05:16.761Z</time></trkpt><trkpt lat="44.5104033" lon="10.86784"><ele>207.0</ele><time>2026-05-03T08:05:17.76Z</time></trkpt><trkpt lat="44.5103067" lon="10.867985"><ele>207.5</ele><time>2026-05-03T08:05:18.761Z</time></trkpt><trkpt lat="44.51021" lon="10.8681267"><ele>208.0</ele><time>2026-05-03T08:05:19.761Z</time></trkpt><trkpt lat="44.5101217" lon="10.868255"><ele>208.5</ele><time>2026-05-03T08:05:20.76Z</time></trkpt><trkpt lat="44.51004" lon="10.86836"><ele>209.0</ele><time>2026-05-03T08:05:21.761Z</time></trkpt><trkpt lat="44.5099767" lon="10.8684517"><ele>209.00000000000003</ele><time>2026-05-03T08:05:22.76Z</time></trkpt><trkpt lat="44.5099333" lon="10.86853"><ele>209.0</ele><time>2026-05-03T08:05:23.761Z</time></trkpt><trkpt lat="44.50987" lon="10.8686017"><ele>209.0</ele><time>2026-05-03T08:05:25.761Z</time></trkpt><trkpt lat="44.5097983" lon="10.86852"><ele>209.0</ele><time>2026-05-03T08:05:29.761Z</time></trkpt><trkpt lat="44.5097517" lon="10.868415"><ele>209.00000000000003</ele><time>2026-05-03T08:05:31.761Z</time></trkpt><trkpt lat="44.50973" lon="10.8682683"><ele>209.0</ele><time>2026-05-03T08:05:33.76Z</time></trkpt><trkpt lat="44.5097533" lon="10.8680933"><ele>209.0</ele><time>2026-05-03T08:05:35.761Z</time></trkpt><trkpt lat="44.50977" lon="10.8679933"><ele>209.0</ele><time>2026-05-03T08:05:36.76Z</time></trkpt><trkpt lat="44.509785" lon="10.8678917"><ele>209.0</ele><time>2026-05-03T08:05:37.761Z</time></trkpt><trkpt lat="44.5098083" lon="10.867805"><ele>209.0</ele><time>2026-05-03T08:05:38.761Z</time></trkpt><trkpt lat="44.5098267" lon="10.8677167"><ele>209.0</ele><time>2026-05-03T08:05:39.761Z</time></trkpt><trkpt lat="44.5098433" lon="10.8676267"><ele>209.0</ele><time>2026-05-03T08:05:40.761Z</time></trkpt><trkpt lat="44.5098717" lon="10.8675233"><ele>209.0</ele><time>2026-05-03T08:05:41.761Z</time></trkpt><trkpt lat="44.5098967" lon="10.867425"><ele>211.00000000000003</ele><time>2026-05-03T08:05:42.761Z</time></trkpt><trkpt lat="44.5099183" lon="10.8673283"><ele>213.0</ele><time>2026-05-03T08:05:43.76Z</time></trkpt><trkpt lat="44.509935" lon="10.867225"><ele>215.0</ele><time>2026-05-03T08:05:44.761Z</time></trkpt><trkpt lat="44.5099433" lon="10.867125"><ele>217.0</ele><time>2026-05-03T08:05:45.761Z</time></trkpt><trkpt lat="44.509945" lon="10.8670083"><ele>219.00000000000003</ele><time>2026-05-03T08:05:46.761Z</time></trkpt><trkpt lat="44.5099417" lon="10.8669"><ele>221.0</ele><time>2026-05-03T08:05:47.761Z</time></trkpt><trkpt lat="44.5099383" lon="10.86679"><ele>222.66666666666669</ele><time>2026-05-03T08:05:48.761Z</time></trkpt><trkpt lat="44.5099317" lon="10.8666817"><ele>224.33333333333334</ele><time>2026-05-03T08:05:49.761Z</time></trkpt><trkpt lat="44.5099317" lon="10.8665567"><ele>226.0</ele><time>2026-05-03T08:05:50.761Z</time></trkpt><trkpt lat="44.50993" lon="10.8664383"><ele>227.66666666666669</ele><time>2026-05-03T08:05:51.761Z</time></trkpt><trkpt lat="44.50993" lon="10.8663083"><ele>229.33333333333334</ele><time>2026-05-03T08:05:52.761Z</time></trkpt><trkpt lat="44.509925" lon="10.8661833"><ele>231.0</ele><time>2026-05-03T08:05:53.761Z</time></trkpt><trkpt lat="44.5099083" lon="10.8660483"><ele>232.5</ele><time>2026-05-03T08:05:54.76Z</time></trkpt><trkpt lat="44.5098967" lon="10.865915"><ele>234.0</ele><time>2026-05-03T08:05:55.761Z</time></trkpt><trkpt lat="44.5098983" lon="10.865785"><ele>235.5</ele><time>2026-05-03T08:05:56.761Z</time></trkpt><trkpt lat="44.509905" lon="10.865665"><ele>237.0</ele><time>2026-05-03T08:05:57.761Z</time></trkpt><trkpt lat="44.5099083" lon="10.865545"><ele>238.5</ele><time>2026-05-03T08:05:58.761Z</time></trkpt><trkpt lat="44.5099133" lon="10.8654267"><ele>240.0</ele><time>2026-05-03T08:05:59.761Z</time></trkpt><trkpt lat="44.5099183" lon="10.8653167"><ele>240.0</ele><time>2026-05-03T08:06:00.761Z</time></trkpt><trkpt lat="44.5099183" lon="10.8652133"><ele>240.0</ele><time>2026-05-03T08:06:01.761Z</time></trkpt><trkpt lat="44.509905" lon="10.8651067"><ele>240.0</ele><time>2026-05-03T08:06:02.761Z</time></trkpt><trkpt lat="44.509885" lon="10.86501"><ele>240.0</ele><time>2026-05-03T08:06:03.761Z</time></trkpt><trkpt lat="44.5098583" lon="10.8649133"><ele>240.0</ele><time>2026-05-03T08:06:04.761Z</time></trkpt><trkpt lat="44.5098133" lon="10.86482"><ele>240.0</ele><time>2026-05-03T08:06:05.761Z</time></trkpt><trkpt lat="44.50976" lon="10.864725"><ele>241.0</ele><time>2026-05-03T08:06:06.761Z</time></trkpt><trkpt lat="44.5097067" lon="10.8646383"><ele>242.0</ele><time>2026-05-03T08:06:07.76Z</time></trkpt><trkpt lat="44.509655" lon="10.8645417"><ele>243.0</ele><time>2026-05-03T08:06:08.761Z</time></trkpt><trkpt lat="44.5096" lon="10.8644467"><ele>244.0</ele><time>2026-05-03T08:06:09.76Z</time></trkpt><trkpt lat="44.5095467" lon="10.864365"><ele>245.0</ele><time>2026-05-03T08:06:10.761Z</time></trkpt><trkpt lat="44.5094733" lon="10.864275"><ele>246.0</ele><time>2026-05-03T08:06:12.761Z</time></trkpt><trkpt lat="44.5093733" lon="10.8642683"><ele>248.20000000000002</ele><time>2026-05-03T08:06:55.761Z</time></trkpt><trkpt lat="44.509265" lon="10.8641833"><ele>250.40000000000003</ele><time>2026-05-03T08:06:57.761Z</time></trkpt><trkpt lat="44.5092183" lon="10.8640983"><ele>252.6</ele><time>2026-05-03T08:06:58.761Z</time></trkpt><trkpt lat="44.509175" lon="10.86399"><ele>254.8</ele><time>2026-05-03T08:06:59.76Z</time></trkpt><trkpt lat="44.5091267" lon="10.86388"><ele>257.0</ele><time>2026-05-03T08:07:00.761Z</time></trkpt><trkpt lat="44.5090767" lon="10.8637633"><ele>257.0</ele><time>2026-05-03T08:07:01.761Z</time></trkpt><trkpt lat="44.509025" lon="10.8636433"><ele>257.0</ele><time>2026-05-03T08:07:02.761Z</time></trkpt><trkpt lat="44.5089767" lon="10.86351"><ele>257.0</ele><time>2026-05-03T08:07:03.761Z</time></trkpt><trkpt lat="44.5089267" lon="10.8633683"><ele>257.0</ele><time>2026-05-03T08:07:04.76Z</time></trkpt><trkpt lat="44.5088617" lon="10.8632217"><ele>257.0</ele><time>2026-05-03T08:07:05.761Z</time></trkpt><trkpt lat="44.5088" lon="10.863085"><ele>256.5</ele><time>2026-05-03T08:07:06.76Z</time></trkpt><trkpt lat="44.5087383" lon="10.862945"><ele>256.0</ele><time>2026-05-03T08:07:07.761Z</time></trkpt><trkpt lat="44.5086833" lon="10.862805"><ele>255.5</ele><time>2026-05-03T08:07:08.761Z</time></trkpt><trkpt lat="44.5086283" lon="10.8626717"><ele>255.0</ele><time>2026-05-03T08:07:09.761Z</time></trkpt><trkpt lat="44.50857" lon="10.8625333"><ele>256.5</ele><time>2026-05-03T08:07:10.761Z</time></trkpt><trkpt lat="44.5085033" lon="10.8623983"><ele>258.0</ele><time>2026-05-03T08:07:11.761Z</time></trkpt><trkpt lat="44.5084367" lon="10.8622433"><ele>259.5</ele><time>2026-05-03T08:07:12.761Z</time></trkpt><trkpt lat="44.508375" lon="10.8620817"><ele>261.0</ele><time>2026-05-03T08:07:13.761Z</time></trkpt><trkpt lat="44.5083317" lon="10.861905"><ele>262.75</ele><time>2026-05-03T08:07:14.761Z</time></trkpt><trkpt lat="44.50829" lon="10.86172"><ele>264.5</ele><time>2026-05-03T08:07:15.761Z</time></trkpt><trkpt lat="44.5082283" lon="10.8615467"><ele>266.25</ele><time>2026-05-03T08:07:16.761Z</time></trkpt><trkpt lat="44.508155" lon="10.8613817"><ele>268.0</ele><time>2026-05-03T08:07:17.761Z</time></trkpt><trkpt lat="44.5080617" lon="10.8612317"><ele>268.0</ele><time>2026-05-03T08:07:18.761Z</time></trkpt><trkpt lat="44.5079467" lon="10.8611017"><ele>268.0</ele><time>2026-05-03T08:07:19.761Z</time></trkpt><trkpt lat="44.5078133" lon="10.8610017"><ele>268.0</ele><time>2026-05-03T08:07:20.761Z</time></trkpt><trkpt lat="44.5076833" lon="10.8609183"><ele>268.0</ele><time>2026-05-03T08:07:21.761Z</time></trkpt><trkpt lat="44.5075383" lon="10.8608767"><ele>267.3333333333333</ele><time>2026-05-03T08:07:22.761Z</time></trkpt><trkpt lat="44.5073867" lon="10.8608483"><ele>266.6666666666667</ele><time>2026-05-03T08:07:23.76Z</time></trkpt><trkpt lat="44.5072433" lon="10.860815"><ele>266.0</ele><time>2026-05-03T08:07:24.761Z</time></trkpt><trkpt lat="44.507085" lon="10.860775"><ele>263.75</ele><time>2026-05-03T08:07:25.76Z</time></trkpt><trkpt lat="44.50695" lon="10.8607167"><ele>261.5</ele><time>2026-05-03T08:07:26.761Z</time></trkpt><trkpt lat="44.50683" lon="10.8606417"><ele>259.25</ele><time>2026-05-03T08:07:27.761Z</time></trkpt><trkpt lat="44.50673" lon="10.86053"><ele>257.0</ele><time>2026-05-03T08:07:28.761Z</time></trkpt><trkpt lat="44.5066467" lon="10.860395"><ele>257.0</ele><time>2026-05-03T08:07:29.761Z</time></trkpt><trkpt lat="44.506575" lon="10.8602433"><ele>257.0</ele><time>2026-05-03T08:07:30.761Z</time></trkpt><trkpt lat="44.506515" lon="10.8600733"><ele>257.0</ele><time>2026-05-03T08:07:31.76Z</time></trkpt><trkpt lat="44.5064633" lon="10.8598933"><ele>257.0</ele><time>2026-05-03T08:07:32.76Z</time></trkpt><trkpt lat="44.5064067" lon="10.8597167"><ele>257.5</ele><time>2026-05-03T08:07:33.761Z</time></trkpt><trkpt lat="44.506335" lon="10.859535"><ele>258.0</ele><time>2026-05-03T08:07:34.761Z</time></trkpt><trkpt lat="44.506255" lon="10.859375"><ele>258.5</ele><time>2026-05-03T08:07:35.761Z</time></trkpt><trkpt lat="44.50616" lon="10.8592617"><ele>259.0</ele><time>2026-05-03T08:07:36.761Z</time></trkpt><trkpt lat="44.50605" lon="10.8591567"><ele>259.0</ele><time>2026-05-03T08:07:37.76Z</time></trkpt><trkpt lat="44.5059217" lon="10.8590917"><ele>259.0</ele><time>2026-05-03T08:07:38.761Z</time></trkpt><trkpt lat="44.505785" lon="10.8590367"><ele>259.0</ele><time>2026-05-03T08:07:39.761Z</time></trkpt><trkpt lat="44.505645" lon="10.858985"><ele>259.0</ele><time>2026-05-03T08:07:40.761Z</time></trkpt><trkpt lat="44.5055033" lon="10.85894"><ele>259.25</ele><time>2026-05-03T08:07:41.76Z</time></trkpt><trkpt lat="44.5053617" lon="10.8588783"><ele>259.5</ele><time>2026-05-03T08:07:42.761Z</time></trkpt><trkpt lat="44.5052167" lon="10.8588317"><ele>259.75</ele><time>2026-05-03T08:07:43.76Z</time></trkpt><trkpt lat="44.505075" lon="10.8587933"><ele>260.0</ele><time>2026-05-03T08:07:44.761Z</time></trkpt><trkpt lat="44.5049333" lon="10.85875"><ele>260.0</ele><time>2026-05-03T08:07:45.761Z</time></trkpt><trkpt lat="44.50479" lon="10.8587"><ele>260.0</ele><time>2026-05-03T08:07:46.761Z</time></trkpt><trkpt lat="44.5046467" lon="10.8586517"><ele>260.0</ele><time>2026-05-03T08:07:47.761Z</time></trkpt><trkpt lat="44.50452" lon="10.8585983"><ele>260.0</ele><time>2026-05-03T08:07:48.761Z</time></trkpt><trkpt lat="44.504395" lon="10.8585383"><ele>260.0</ele><time>2026-05-03T08:07:49.76Z</time></trkpt><trkpt lat="44.504275" lon="10.8584783"><ele>260.0</ele><time>2026-05-03T08:07:50.76Z</time></trkpt><trkpt lat="44.5041467" lon="10.858415"><ele>260.0</ele><time>2026-05-03T08:07:51.761Z</time></trkpt><trkpt lat="44.50402" lon="10.858355"><ele>260.0</ele><time>2026-05-03T08:07:52.761Z</time></trkpt><trkpt lat="44.5039017" lon="10.8582833"><ele>260.0</ele><time>2026-05-03T08:07:53.761Z</time></trkpt><trkpt lat="44.5037917" lon="10.8582083"><ele>260.0</ele><time>2026-05-03T08:07:54.76Z</time></trkpt><trkpt lat="44.50368" lon="10.8581417"><ele>260.0</ele><time>2026-05-03T08:07:55.76Z</time></trkpt><trkpt lat="44.50356" lon="10.8580867"><ele>260.0</ele><time>2026-05-03T08:07:56.76Z</time></trkpt><trkpt lat="44.5034417" lon="10.8580133"><ele>260.0</ele><time>2026-05-03T08:07:57.759Z</time></trkpt><trkpt lat="44.503325" lon="10.85794"><ele>260.0</ele><time>2026-05-03T08:07:58.759Z</time></trkpt><trkpt lat="44.5032067" lon="10.8578683"><ele>260.0</ele><time>2026-05-03T08:07:59.76Z</time></trkpt><trkpt lat="44.503085" lon="10.857795"><ele>260.0</ele><time>2026-05-03T08:08:00.76Z</time></trkpt><trkpt lat="44.502965" lon="10.8577283"><ele>260.0</ele><time>2026-05-03T08:08:01.76Z</time></trkpt><trkpt lat="44.50284" lon="10.857655"><ele>260.0</ele><time>2026-05-03T08:08:02.759Z</time></trkpt><trkpt lat="44.5027183" lon="10.8575783"><ele>260.0</ele><time>2026-05-03T08:08:03.76Z</time></trkpt><trkpt lat="44.5026033" lon="10.8574833"><ele>260.0</ele><time>2026-05-03T08:08:04.76Z</time></trkpt><trkpt lat="44.5024867" lon="10.8573983"><ele>260.0</ele><time>2026-05-03T08:08:05.76Z</time></trkpt><trkpt lat="44.5023567" lon="10.8573067"><ele>260.0</ele><time>2026-05-03T08:08:06.76Z</time></trkpt><trkpt lat="44.502235" lon="10.857205"><ele>260.0</ele><time>2026-05-03T08:08:07.759Z</time></trkpt><trkpt lat="44.5021133" lon="10.8571083"><ele>260.0</ele><time>2026-05-03T08:08:08.76Z</time></trkpt><trkpt lat="44.5019833" lon="10.8570217"><ele>258.5</ele><time>2026-05-03T08:08:09.76Z</time></trkpt><trkpt lat="44.50185" lon="10.85695"><ele>257.0</ele><time>2026-05-03T08:08:10.76Z</time></trkpt><trkpt lat="44.5017117" lon="10.85689"><ele>255.5</ele><time>2026-05-03T08:08:11.76Z</time></trkpt><trkpt lat="44.5015683" lon="10.8568383"><ele>254.0</ele><time>2026-05-03T08:08:12.759Z</time></trkpt><trkpt lat="44.501415" lon="10.8568117"><ele>254.25</ele><time>2026-05-03T08:08:13.76Z</time></trkpt><trkpt lat="44.5012717" lon="10.85678"><ele>254.5</ele><time>2026-05-03T08:08:14.76Z</time></trkpt><trkpt lat="44.50113" lon="10.8567367"><ele>254.75</ele><time>2026-05-03T08:08:15.759Z</time></trkpt><trkpt lat="44.500985" lon="10.8566967"><ele>255.0</ele><time>2026-05-03T08:08:16.76Z</time></trkpt><trkpt lat="44.5008383" lon="10.856645"><ele>256.6666666666667</ele><time>2026-05-03T08:08:17.76Z</time></trkpt><trkpt lat="44.5006867" lon="10.8566083"><ele>258.33333333333337</ele><time>2026-05-03T08:08:18.759Z</time></trkpt><trkpt lat="44.50054" lon="10.8565617"><ele>260.0</ele><time>2026-05-03T08:08:19.76Z</time></trkpt><trkpt lat="44.5003933" lon="10.8565117"><ele>262.5</ele><time>2026-05-03T08:08:20.76Z</time></trkpt><trkpt lat="44.500255" lon="10.85645"><ele>265.0</ele><time>2026-05-03T08:08:21.76Z</time></trkpt><trkpt lat="44.500115" lon="10.8563883"><ele>267.5</ele><time>2026-05-03T08:08:22.76Z</time></trkpt><trkpt lat="44.499965" lon="10.8563467"><ele>270.0</ele><time>2026-05-03T08:08:23.76Z</time></trkpt><trkpt lat="44.499815" lon="10.856325"><ele>270.0</ele><time>2026-05-03T08:08:24.76Z</time></trkpt><trkpt lat="44.49966" lon="10.8563333"><ele>270.0</ele><time>2026-05-03T08:08:25.759Z</time></trkpt><trkpt lat="44.49951" lon="10.8563633"><ele>270.0</ele><time>2026-05-03T08:08:26.76Z</time></trkpt><trkpt lat="44.4993583" lon="10.85641"><ele>272.6666666666667</ele><time>2026-05-03T08:08:27.76Z</time></trkpt><trkpt lat="44.4992117" lon="10.8564583"><ele>275.33333333333337</ele><time>2026-05-03T08:08:28.76Z</time></trkpt><trkpt lat="44.499055" lon="10.85649"><ele>278.0</ele><time>2026-05-03T08:08:29.76Z</time></trkpt><trkpt lat="44.4988983" lon="10.8565083"><ele>279.33333333333337</ele><time>2026-05-03T08:08:30.76Z</time></trkpt><trkpt lat="44.4987367" lon="10.856525"><ele>280.6666666666667</ele><time>2026-05-03T08:08:31.76Z</time></trkpt><trkpt lat="44.4985733" lon="10.856535"><ele>282.0</ele><time>2026-05-03T08:08:32.76Z</time></trkpt><trkpt lat="44.4984117" lon="10.8565333"><ele>282.0</ele><time>2026-05-03T08:08:33.76Z</time></trkpt><trkpt lat="44.4982467" lon="10.8565267"><ele>282.0</ele><time>2026-05-03T08:08:34.76Z</time></trkpt><trkpt lat="44.498095" lon="10.856525"><ele>282.0</ele><time>2026-05-03T08:08:35.76Z</time></trkpt><trkpt lat="44.49796" lon="10.8565067"><ele>282.0</ele><time>2026-05-03T08:08:36.759Z</time></trkpt><trkpt lat="44.4978267" lon="10.8564883"><ele>282.0</ele><time>2026-05-03T08:08:37.76Z</time></trkpt><trkpt lat="44.4977133" lon="10.8564667"><ele>282.0</ele><time>2026-05-03T08:08:38.76Z</time></trkpt><trkpt lat="44.4976167" lon="10.856455"><ele>282.0</ele><time>2026-05-03T08:08:39.759Z</time></trkpt><trkpt lat="44.4975367" lon="10.8564317"><ele>282.0</ele><time>2026-05-03T08:08:40.76Z</time></trkpt><trkpt lat="44.4974617" lon="10.8564083"><ele>282.0</ele><time>2026-05-03T08:08:41.76Z</time></trkpt><trkpt lat="44.4973833" lon="10.8563833"><ele>282.0</ele><time>2026-05-03T08:08:42.76Z</time></trkpt><trkpt lat="44.4973017" lon="10.8563583"><ele>282.0</ele><time>2026-05-03T08:08:43.76Z</time></trkpt><trkpt lat="44.4972167" lon="10.85632"><ele>282.0</ele><time>2026-05-03T08:08:44.76Z</time></trkpt><trkpt lat="44.497135" lon="10.8562567"><ele>282.0</ele><time>2026-05-03T08:08:45.76Z</time></trkpt><trkpt lat="44.4970617" lon="10.85617"><ele>282.0</ele><time>2026-05-03T08:08:46.76Z</time></trkpt><trkpt lat="44.496995" lon="10.856075"><ele>281.2</ele><time>2026-05-03T08:08:47.76Z</time></trkpt><trkpt lat="44.4969317" lon="10.8559583"><ele>280.4</ele><time>2026-05-03T08:08:48.76Z</time></trkpt><trkpt lat="44.4968833" lon="10.8558367"><ele>279.6</ele><time>2026-05-03T08:08:49.76Z</time></trkpt><trkpt lat="44.4968267" lon="10.8557183"><ele>278.8</ele><time>2026-05-03T08:08:50.76Z</time></trkpt><trkpt lat="44.4967767" lon="10.8556"><ele>278.0</ele><time>2026-05-03T08:08:51.76Z</time></trkpt><trkpt lat="44.4967233" lon="10.8554833"><ele>278.0</ele><time>2026-05-03T08:08:52.759Z</time></trkpt><trkpt lat="44.4966717" lon="10.85537"><ele>278.0</ele><time>2026-05-03T08:08:53.759Z</time></trkpt><trkpt lat="44.4966167" lon="10.85526"><ele>278.0</ele><time>2026-05-03T08:08:54.76Z</time></trkpt><trkpt lat="44.4965583" lon="10.8551517"><ele>278.0</ele><time>2026-05-03T08:08:55.76Z</time></trkpt><trkpt lat="44.4964983" lon="10.85504"><ele>278.0</ele><time>2026-05-03T08:08:56.759Z</time></trkpt><trkpt lat="44.4964367" lon="10.854935"><ele>277.6666666666667</ele><time>2026-05-03T08:08:57.759Z</time></trkpt><trkpt lat="44.49638" lon="10.854835"><ele>277.33333333333337</ele><time>2026-05-03T08:08:58.76Z</time></trkpt><trkpt lat="44.496325" lon="10.8547467"><ele>277.0</ele><time>2026-05-03T08:08:59.76Z</time></trkpt><trkpt lat="44.4962767" lon="10.8546667"><ele>276.6666666666667</ele><time>2026-05-03T08:09:00.76Z</time></trkpt><trkpt lat="44.496235" lon="10.854595"><ele>276.3333333333333</ele><time>2026-05-03T08:09:01.76Z</time></trkpt><trkpt lat="44.4961583" lon="10.8544683"><ele>276.0</ele><time>2026-05-03T08:09:03.76Z</time></trkpt><trkpt lat="44.4960733" lon="10.8543283"><ele>277.1666666666667</ele><time>2026-05-03T08:09:05.76Z</time></trkpt><trkpt lat="44.4960267" lon="10.8542467"><ele>278.3333333333333</ele><time>2026-05-03T08:09:06.759Z</time></trkpt><trkpt lat="44.4959783" lon="10.8541733"><ele>279.5</ele><time>2026-05-03T08:09:07.76Z</time></trkpt><trkpt lat="44.4959267" lon="10.8541033"><ele>280.66666666666663</ele><time>2026-05-03T08:09:08.76Z</time></trkpt><trkpt lat="44.49589" lon="10.85402"><ele>281.8333333333333</ele><time>2026-05-03T08:09:09.76Z</time></trkpt><trkpt lat="44.49585" lon="10.8539417"><ele>283.0</ele><time>2026-05-03T08:09:10.76Z</time></trkpt><trkpt lat="44.4958017" lon="10.8538083"><ele>283.0</ele><time>2026-05-03T08:09:12.76Z</time></trkpt><trkpt lat="44.49576" lon="10.8537367"><ele>283.0</ele><time>2026-05-03T08:10:50.759Z</time></trkpt><trkpt lat="44.4957933" lon="10.853845"><ele>283.0</ele><time>2026-05-03T08:10:53.76Z</time></trkpt><trkpt lat="44.4958517" lon="10.8539483"><ele>283.0</ele><time>2026-05-03T08:10:55.759Z</time></trkpt><trkpt lat="44.495905" lon="10.8540717"><ele>283.0</ele><time>2026-05-03T08:10:57.76Z</time></trkpt><trkpt lat="44.4959567" lon="10.8541717"><ele>283.0</ele><time>2026-05-03T08:10:59.76Z</time></trkpt><trkpt lat="44.4960233" lon="10.8542533"><ele>281.8333333333333</ele><time>2026-05-03T08:11:01.76Z</time></trkpt><trkpt lat="44.49607" lon="10.8543333"><ele>280.66666666666663</ele><time>2026-05-03T08:11:03.76Z</time></trkpt><trkpt lat="44.4961067" lon="10.8544067"><ele>279.5</ele><time>2026-05-03T08:11:05.76Z</time></trkpt><trkpt lat="44.4961617" lon="10.8544967"><ele>278.3333333333333</ele><time>2026-05-03T08:11:08.76Z</time></trkpt><trkpt lat="44.4962067" lon="10.854585"><ele>277.1666666666667</ele><time>2026-05-03T08:11:10.76Z</time></trkpt><trkpt lat="44.4962617" lon="10.8546667"><ele>276.0</ele><time>2026-05-03T08:11:13.76Z</time></trkpt><trkpt lat="44.4962133" lon="10.8547683"><ele>276.0</ele><time>2026-05-03T08:15:38.759Z</time></trkpt><trkpt lat="44.4961383" lon="10.854825"><ele>276.0</ele><time>2026-05-03T08:15:41.759Z</time></trkpt><trkpt lat="44.4960617" lon="10.854855"><ele>276.0</ele><time>2026-05-03T08:16:14.758Z</time></trkpt><trkpt lat="44.4959933" lon="10.854895"><ele>276.0</ele><time>2026-05-03T08:16:16.759Z</time></trkpt><trkpt lat="44.4958933" lon="10.8549283"><ele>276.0</ele><time>2026-05-03T08:16:18.759Z</time></trkpt><trkpt lat="44.4958267" lon="10.854925"><ele>276.0</ele><time>2026-05-03T08:16:19.759Z</time></trkpt><trkpt lat="44.495745" lon="10.85491"><ele>276.0</ele><time>2026-05-03T08:16:20.758Z</time></trkpt><trkpt lat="44.49566" lon="10.8548767"><ele>276.0</ele><time>2026-05-03T08:16:21.759Z</time></trkpt><trkpt lat="44.495565" lon="10.8548483"><ele>276.0</ele><time>2026-05-03T08:16:22.758Z</time></trkpt><trkpt lat="44.4954667" lon="10.85482"><ele>276.0</ele><time>2026-05-03T08:16:23.758Z</time></trkpt><trkpt lat="44.4953667" lon="10.8547933"><ele>276.0</ele><time>2026-05-03T08:16:24.758Z</time></trkpt><trkpt lat="44.4952667" lon="10.8547633"><ele>273.8</ele><time>2026-05-03T08:16:25.759Z</time></trkpt><trkpt lat="44.4951617" lon="10.8547367"><ele>271.6</ele><time>2026-05-03T08:16:26.759Z</time></trkpt><trkpt lat="44.4950667" lon="10.854725"><ele>269.4</ele><time>2026-05-03T08:16:27.759Z</time></trkpt><trkpt lat="44.4949617" lon="10.8547717"><ele>267.2</ele><time>2026-05-03T08:16:28.759Z</time></trkpt><trkpt lat="44.494855" lon="10.854835"><ele>265.0</ele><time>2026-05-03T08:16:29.759Z</time></trkpt><trkpt lat="44.4947417" lon="10.8549"><ele>265.0</ele><time>2026-05-03T08:16:30.758Z</time></trkpt><trkpt lat="44.4946267" lon="10.8549567"><ele>265.0</ele><time>2026-05-03T08:16:31.759Z</time></trkpt><trkpt lat="44.4945033" lon="10.8550017"><ele>265.0</ele><time>2026-05-03T08:16:32.759Z</time></trkpt><trkpt lat="44.4943883" lon="10.8550667"><ele>265.0</ele><time>2026-05-03T08:16:33.759Z</time></trkpt><trkpt lat="44.494275" lon="10.8551583"><ele>264.25</ele><time>2026-05-03T08:16:34.759Z</time></trkpt><trkpt lat="44.49417" lon="10.8552567"><ele>263.5</ele><time>2026-05-03T08:16:35.759Z</time></trkpt><trkpt lat="44.4940683" lon="10.855365"><ele>262.75</ele><time>2026-05-03T08:16:36.759Z</time></trkpt><trkpt lat="44.4939733" lon="10.8554833"><ele>262.0</ele><time>2026-05-03T08:16:37.759Z</time></trkpt><trkpt lat="44.4938633" lon="10.8555933"><ele>262.75</ele><time>2026-05-03T08:16:38.759Z</time></trkpt><trkpt lat="44.493745" lon="10.8557083"><ele>263.5</ele><time>2026-05-03T08:16:39.759Z</time></trkpt><trkpt lat="44.4936533" lon="10.85581"><ele>264.25</ele><time>2026-05-03T08:16:40.758Z</time></trkpt><trkpt lat="44.4935617" lon="10.8559217"><ele>265.0</ele><time>2026-05-03T08:16:41.759Z</time></trkpt><trkpt lat="44.4934883" lon="10.85601"><ele>265.0</ele><time>2026-05-03T08:16:42.759Z</time></trkpt><trkpt lat="44.4934217" lon="10.8561117"><ele>265.0</ele><time>2026-05-03T08:16:43.759Z</time></trkpt><trkpt lat="44.4933867" lon="10.8562183"><ele>265.0</ele><time>2026-05-03T08:16:44.758Z</time></trkpt><trkpt lat="44.4933767" lon="10.8563483"><ele>265.0</ele><time>2026-05-03T08:16:45.759Z</time></trkpt><trkpt lat="44.4934" lon="10.8564817"><ele>265.0</ele><time>2026-05-03T08:16:46.758Z</time></trkpt><trkpt lat="44.4934517" lon="10.8566183"><ele>265.0</ele><time>2026-05-03T08:16:47.759Z</time></trkpt><trkpt lat="44.4935233" lon="10.8567633"><ele>265.0</ele><time>2026-05-03T08:16:48.758Z</time></trkpt><trkpt lat="44.493585" lon="10.8569217"><ele>265.0</ele><time>2026-05-03T08:16:49.759Z</time></trkpt><trkpt lat="44.493655" lon="10.8570733"><ele>265.0</ele><time>2026-05-03T08:16:50.759Z</time></trkpt><trkpt lat="44.49371" lon="10.8572383"><ele>259.25</ele><time>2026-05-03T08:16:51.759Z</time></trkpt><trkpt lat="44.4937633" lon="10.8573983"><ele>253.5</ele><time>2026-05-03T08:16:52.759Z</time></trkpt><trkpt lat="44.4938233" lon="10.8575683"><ele>247.75</ele><time>2026-05-03T08:16:53.759Z</time></trkpt><trkpt lat="44.4938817" lon="10.8577333"><ele>242.0</ele><time>2026-05-03T08:16:54.759Z</time></trkpt><trkpt lat="44.4939233" lon="10.8579117"><ele>241.2</ele><time>2026-05-03T08:16:55.758Z</time></trkpt><trkpt lat="44.4939533" lon="10.858075"><ele>240.39999999999998</ele><time>2026-05-03T08:16:56.758Z</time></trkpt><trkpt lat="44.4939683" lon="10.8582217"><ele>239.60000000000002</ele><time>2026-05-03T08:16:57.758Z</time></trkpt><trkpt lat="44.4939683" lon="10.8583517"><ele>238.8</ele><time>2026-05-03T08:16:58.757Z</time></trkpt><trkpt lat="44.493955" lon="10.8584817"><ele>238.0</ele><time>2026-05-03T08:16:59.758Z</time></trkpt><trkpt lat="44.4939167" lon="10.858605"><ele>237.2</ele><time>2026-05-03T08:17:00.757Z</time></trkpt><trkpt lat="44.4938683" lon="10.8587333"><ele>236.4</ele><time>2026-05-03T08:17:01.758Z</time></trkpt><trkpt lat="44.4938133" lon="10.8588583"><ele>235.59999999999997</ele><time>2026-05-03T08:17:02.757Z</time></trkpt><trkpt lat="44.4937567" lon="10.8589917"><ele>234.79999999999998</ele><time>2026-05-03T08:17:03.758Z</time></trkpt><trkpt lat="44.49371" lon="10.8591183"><ele>234.0</ele><time>2026-05-03T08:17:04.758Z</time></trkpt><trkpt lat="44.493665" lon="10.8592483"><ele>233.79999999999998</ele><time>2026-05-03T08:17:05.758Z</time></trkpt><trkpt lat="44.4936183" lon="10.8593767"><ele>233.59999999999997</ele><time>2026-05-03T08:17:06.758Z</time></trkpt><trkpt lat="44.4935733" lon="10.8595017"><ele>233.4</ele><time>2026-05-03T08:17:07.758Z</time></trkpt><trkpt lat="44.4935283" lon="10.8596233"><ele>233.2</ele><time>2026-05-03T08:17:08.758Z</time></trkpt><trkpt lat="44.4934817" lon="10.8597417"><ele>233.0</ele><time>2026-05-03T08:17:09.758Z</time></trkpt><trkpt lat="44.4934517" lon="10.8598433"><ele>233.00000000000003</ele><time>2026-05-03T08:17:10.758Z</time></trkpt><trkpt lat="44.49342" lon="10.8599367"><ele>233.0</ele><time>2026-05-03T08:17:11.758Z</time></trkpt><trkpt lat="44.49339" lon="10.8600267"><ele>233.0</ele><time>2026-05-03T08:17:12.757Z</time></trkpt><trkpt lat="44.4933567" lon="10.8601233"><ele>233.0</ele><time>2026-05-03T08:17:13.758Z</time></trkpt><trkpt lat="44.4933333" lon="10.860225"><ele>233.00000000000003</ele><time>2026-05-03T08:17:14.757Z</time></trkpt><trkpt lat="44.4933167" lon="10.86034"><ele>233.0</ele><time>2026-05-03T08:17:15.758Z</time></trkpt><trkpt lat="44.4932983" lon="10.86046"><ele>232.0</ele><time>2026-05-03T08:17:16.758Z</time></trkpt><trkpt lat="44.4932883" lon="10.860585"><ele>231.0</ele><time>2026-05-03T08:17:17.758Z</time></trkpt><trkpt lat="44.4932783" lon="10.8607083"><ele>230.0</ele><time>2026-05-03T08:17:18.758Z</time></trkpt><trkpt lat="44.49326" lon="10.8608417"><ele>229.0</ele><time>2026-05-03T08:17:19.757Z</time></trkpt><trkpt lat="44.4932433" lon="10.8609817"><ele>228.0</ele><time>2026-05-03T08:17:20.757Z</time></trkpt><trkpt lat="44.4932367" lon="10.8611217"><ele>226.2</ele><time>2026-05-03T08:17:21.757Z</time></trkpt><trkpt lat="44.49323" lon="10.861265"><ele>224.4</ele><time>2026-05-03T08:17:22.758Z</time></trkpt><trkpt lat="44.493215" lon="10.8614083"><ele>222.59999999999997</ele><time>2026-05-03T08:17:23.758Z</time></trkpt><trkpt lat="44.4931967" lon="10.8615567"><ele>220.79999999999998</ele><time>2026-05-03T08:17:24.758Z</time></trkpt><trkpt lat="44.4931833" lon="10.8617033"><ele>219.0</ele><time>2026-05-03T08:17:25.757Z</time></trkpt><trkpt lat="44.4931683" lon="10.8618467"><ele>216.39999999999998</ele><time>2026-05-03T08:17:26.758Z</time></trkpt><trkpt lat="44.4931483" lon="10.8619717"><ele>213.79999999999998</ele><time>2026-05-03T08:17:27.758Z</time></trkpt><trkpt lat="44.4931083" lon="10.8620717"><ele>211.2</ele><time>2026-05-03T08:17:28.758Z</time></trkpt><trkpt lat="44.4930533" lon="10.8621317"><ele>208.60000000000002</ele><time>2026-05-03T08:17:29.757Z</time></trkpt><trkpt lat="44.4929217" lon="10.8621067"><ele>206.0</ele><time>2026-05-03T08:17:31.758Z</time></trkpt><trkpt lat="44.49284" lon="10.8620383"><ele>205.4</ele><time>2026-05-03T08:17:32.758Z</time></trkpt><trkpt lat="44.4927433" lon="10.8619417"><ele>204.8</ele><time>2026-05-03T08:17:33.757Z</time></trkpt><trkpt lat="44.4926383" lon="10.86185"><ele>204.20000000000002</ele><time>2026-05-03T08:17:34.758Z</time></trkpt><trkpt lat="44.4925483" lon="10.8617683"><ele>203.60000000000002</ele><time>2026-05-03T08:17:35.757Z</time></trkpt><trkpt lat="44.492465" lon="10.861715"><ele>203.0</ele><time>2026-05-03T08:17:36.758Z</time></trkpt><trkpt lat="44.4923817" lon="10.86168"><ele>202.8</ele><time>2026-05-03T08:17:37.758Z</time></trkpt><trkpt lat="44.4922883" lon="10.8616933"><ele>202.60000000000002</ele><time>2026-05-03T08:17:38.758Z</time></trkpt><trkpt lat="44.4921933" lon="10.8617333"><ele>202.39999999999998</ele><time>2026-05-03T08:17:39.758Z</time></trkpt><trkpt lat="44.4920883" lon="10.8618033"><ele>202.2</ele><time>2026-05-03T08:17:40.758Z</time></trkpt><trkpt lat="44.49197" lon="10.861895"><ele>202.0</ele><time>2026-05-03T08:17:41.758Z</time></trkpt><trkpt lat="44.4918533" lon="10.861975"><ele>202.0</ele><time>2026-05-03T08:17:42.758Z</time></trkpt><trkpt lat="44.4917617" lon="10.8620533"><ele>202.0</ele><time>2026-05-03T08:17:43.758Z</time></trkpt><trkpt lat="44.4916867" lon="10.8621417"><ele>202.0</ele><time>2026-05-03T08:17:44.758Z</time></trkpt><trkpt lat="44.4916283" lon="10.8622517"><ele>202.0</ele><time>2026-05-03T08:17:45.757Z</time></trkpt><trkpt lat="44.4915883" lon="10.8623867"><ele>202.0</ele><time>2026-05-03T08:17:46.758Z</time></trkpt><trkpt lat="44.4915583" lon="10.8625517"><ele>199.39999999999998</ele><time>2026-05-03T08:17:47.758Z</time></trkpt><trkpt lat="44.4915233" lon="10.862715"><ele>196.79999999999998</ele><time>2026-05-03T08:17:48.758Z</time></trkpt><trkpt lat="44.4914883" lon="10.8628767"><ele>194.2</ele><time>2026-05-03T08:17:49.758Z</time></trkpt><trkpt lat="44.49147" lon="10.86302"><ele>191.6</ele><time>2026-05-03T08:17:50.758Z</time></trkpt><trkpt lat="44.4914483" lon="10.863145"><ele>189.0</ele><time>2026-05-03T08:17:51.757Z</time></trkpt><trkpt lat="44.4914317" lon="10.8632433"><ele>189.0</ele><time>2026-05-03T08:17:52.758Z</time></trkpt><trkpt lat="44.491405" lon="10.8633783"><ele>189.0</ele><time>2026-05-03T08:17:54.758Z</time></trkpt><trkpt lat="44.4913567" lon="10.86345"><ele>189.0</ele><time>2026-05-03T08:18:02.758Z</time></trkpt><trkpt lat="44.4912867" lon="10.8634317"><ele>189.0</ele><time>2026-05-03T08:18:03.758Z</time></trkpt><trkpt lat="44.491195" lon="10.863375"><ele>189.0</ele><time>2026-05-03T08:18:04.757Z</time></trkpt><trkpt lat="44.4910883" lon="10.8632867"><ele>189.25</ele><time>2026-05-03T08:18:05.758Z</time></trkpt><trkpt lat="44.4909667" lon="10.8631983"><ele>189.5</ele><time>2026-05-03T08:18:06.758Z</time></trkpt><trkpt lat="44.4908433" lon="10.8631083"><ele>189.75</ele><time>2026-05-03T08:18:07.758Z</time></trkpt><trkpt lat="44.49071" lon="10.863005"><ele>190.0</ele><time>2026-05-03T08:18:08.757Z</time></trkpt><trkpt lat="44.4905717" lon="10.8628983"><ele>190.0</ele><time>2026-05-03T08:18:09.757Z</time></trkpt><trkpt lat="44.4904317" lon="10.8627817"><ele>190.0</ele><time>2026-05-03T08:18:10.758Z</time></trkpt><trkpt lat="44.4902833" lon="10.8626717"><ele>190.0</ele><time>2026-05-03T08:18:11.758Z</time></trkpt><trkpt lat="44.4901367" lon="10.8625583"><ele>189.66666666666669</ele><time>2026-05-03T08:18:12.758Z</time></trkpt><trkpt lat="44.489995" lon="10.862445"><ele>189.33333333333334</ele><time>2026-05-03T08:18:13.758Z</time></trkpt><trkpt lat="44.489855" lon="10.86232"><ele>189.0</ele><time>2026-05-03T08:18:14.758Z</time></trkpt><trkpt lat="44.4897133" lon="10.8622"><ele>188.66666666666666</ele><time>2026-05-03T08:18:15.758Z</time></trkpt><trkpt lat="44.4895683" lon="10.86208"><ele>188.33333333333331</ele><time>2026-05-03T08:18:16.758Z</time></trkpt><trkpt lat="44.489415" lon="10.861955"><ele>188.0</ele><time>2026-05-03T08:18:17.757Z</time></trkpt><trkpt lat="44.4892583" lon="10.861835"><ele>188.33333333333331</ele><time>2026-05-03T08:18:18.758Z</time></trkpt><trkpt lat="44.489105" lon="10.8617083"><ele>188.66666666666666</ele><time>2026-05-03T08:18:19.758Z</time></trkpt><trkpt lat="44.4889517" lon="10.8615767"><ele>189.0</ele><time>2026-05-03T08:18:20.758Z</time></trkpt><trkpt lat="44.4887917" lon="10.8614517"><ele>189.66666666666666</ele><time>2026-05-03T08:18:21.758Z</time></trkpt><trkpt lat="44.4886367" lon="10.861315"><ele>190.33333333333331</ele><time>2026-05-03T08:18:22.758Z</time></trkpt><trkpt lat="44.488475" lon="10.86118"><ele>191.0</ele><time>2026-05-03T08:18:23.758Z</time></trkpt><trkpt lat="44.488305" lon="10.8610483"><ele>191.66666666666666</ele><time>2026-05-03T08:18:24.758Z</time></trkpt><trkpt lat="44.4881433" lon="10.8609067"><ele>192.33333333333331</ele><time>2026-05-03T08:18:25.758Z</time></trkpt><trkpt lat="44.487985" lon="10.8607667"><ele>193.0</ele><time>2026-05-03T08:18:26.758Z</time></trkpt><trkpt lat="44.487815" lon="10.8606317"><ele>193.0</ele><time>2026-05-03T08:18:27.758Z</time></trkpt><trkpt lat="44.4876517" lon="10.8604933"><ele>193.0</ele><time>2026-05-03T08:18:28.758Z</time></trkpt><trkpt lat="44.4874767" lon="10.86036"><ele>193.0</ele><time>2026-05-03T08:18:29.757Z</time></trkpt><trkpt lat="44.487305" lon="10.8602267"><ele>193.66666666666666</ele><time>2026-05-03T08:18:30.758Z</time></trkpt><trkpt lat="44.487135" lon="10.8600783"><ele>194.33333333333331</ele><time>2026-05-03T08:18:31.758Z</time></trkpt><trkpt lat="44.4869717" lon="10.859935"><ele>195.0</ele><time>2026-05-03T08:18:32.758Z</time></trkpt><trkpt lat="44.4868033" lon="10.8597917"><ele>196.0</ele><time>2026-05-03T08:18:33.758Z</time></trkpt><trkpt lat="44.486645" lon="10.859625"><ele>197.0</ele><time>2026-05-03T08:18:34.757Z</time></trkpt><trkpt lat="44.4865017" lon="10.8594367"><ele>198.0</ele><time>2026-05-03T08:18:35.758Z</time></trkpt><trkpt lat="44.486365" lon="10.8592333"><ele>198.66666666666669</ele><time>2026-05-03T08:18:36.758Z</time></trkpt><trkpt lat="44.4862483" lon="10.8590083"><ele>199.33333333333334</ele><time>2026-05-03T08:18:37.758Z</time></trkpt><trkpt lat="44.4861217" lon="10.8587883"><ele>200.0</ele><time>2026-05-03T08:18:38.758Z</time></trkpt><trkpt lat="44.4860033" lon="10.8585717"><ele>201.33333333333334</ele><time>2026-05-03T08:18:39.757Z</time></trkpt><trkpt lat="44.4858867" lon="10.8583517"><ele>202.66666666666669</ele><time>2026-05-03T08:18:40.758Z</time></trkpt><trkpt lat="44.4857733" lon="10.8581267"><ele>204.0</ele><time>2026-05-03T08:18:41.758Z</time></trkpt><trkpt lat="44.48565" lon="10.8579"><ele>204.0</ele><time>2026-05-03T08:18:42.758Z</time></trkpt><trkpt lat="44.4855367" lon="10.8576783"><ele>204.0</ele><time>2026-05-03T08:18:43.758Z</time></trkpt><trkpt lat="44.48541" lon="10.857465"><ele>204.0</ele><time>2026-05-03T08:18:44.758Z</time></trkpt><trkpt lat="44.48529" lon="10.857255"><ele>203.66666666666669</ele><time>2026-05-03T08:18:45.757Z</time></trkpt><trkpt lat="44.4851533" lon="10.8570583"><ele>203.33333333333334</ele><time>2026-05-03T08:18:46.758Z</time></trkpt><trkpt lat="44.485015" lon="10.8568767"><ele>203.0</ele><time>2026-05-03T08:18:47.758Z</time></trkpt><trkpt lat="44.484865" lon="10.85671"><ele>203.66666666666669</ele><time>2026-05-03T08:18:48.758Z</time></trkpt><trkpt lat="44.4847" lon="10.856565"><ele>204.33333333333331</ele><time>2026-05-03T08:18:49.758Z</time></trkpt><trkpt lat="44.4845333" lon="10.8564367"><ele>205.0</ele><time>2026-05-03T08:18:50.758Z</time></trkpt><trkpt lat="44.4843583" lon="10.8563283"><ele>205.0</ele><time>2026-05-03T08:18:51.758Z</time></trkpt><trkpt lat="44.4841733" lon="10.8562467"><ele>205.0</ele><time>2026-05-03T08:18:52.758Z</time></trkpt><trkpt lat="44.483985" lon="10.8561783"><ele>205.0</ele><time>2026-05-03T08:18:53.758Z</time></trkpt><trkpt lat="44.4838" lon="10.8561233"><ele>205.33333333333331</ele><time>2026-05-03T08:18:54.758Z</time></trkpt><trkpt lat="44.48363" lon="10.8560683"><ele>205.66666666666669</ele><time>2026-05-03T08:18:55.758Z</time></trkpt><trkpt lat="44.4834567" lon="10.8560117"><ele>206.0</ele><time>2026-05-03T08:18:56.757Z</time></trkpt><trkpt lat="44.483285" lon="10.855965"><ele>206.66666666666669</ele><time>2026-05-03T08:18:57.758Z</time></trkpt><trkpt lat="44.483125" lon="10.85591"><ele>207.33333333333331</ele><time>2026-05-03T08:18:58.758Z</time></trkpt><trkpt lat="44.4829667" lon="10.8558617"><ele>208.0</ele><time>2026-05-03T08:18:59.757Z</time></trkpt><trkpt lat="44.4828183" lon="10.85581"><ele>208.0</ele><time>2026-05-03T08:19:00.757Z</time></trkpt><trkpt lat="44.48267" lon="10.855765"><ele>208.0</ele><time>2026-05-03T08:19:01.757Z</time></trkpt><trkpt lat="44.4825333" lon="10.8557167"><ele>208.0</ele><time>2026-05-03T08:19:02.758Z</time></trkpt><trkpt lat="44.482385" lon="10.855675"><ele>208.0</ele><time>2026-05-03T08:19:03.758Z</time></trkpt><trkpt lat="44.4822367" lon="10.8556333"><ele>208.0</ele><time>2026-05-03T08:19:04.758Z</time></trkpt><trkpt lat="44.4820883" lon="10.8555817"><ele>208.0</ele><time>2026-05-03T08:19:05.758Z</time></trkpt><trkpt lat="44.4819417" lon="10.8555217"><ele>208.0</ele><time>2026-05-03T08:19:06.758Z</time></trkpt><trkpt lat="44.4817883" lon="10.8554533"><ele>208.0</ele><time>2026-05-03T08:19:07.758Z</time></trkpt><trkpt lat="44.4816383" lon="10.85537"><ele>208.0</ele><time>2026-05-03T08:19:08.758Z</time></trkpt><trkpt lat="44.4814933" lon="10.8552767"><ele>208.0</ele><time>2026-05-03T08:19:09.757Z</time></trkpt><trkpt lat="44.4813483" lon="10.8551733"><ele>209.0</ele><time>2026-05-03T08:19:10.758Z</time></trkpt><trkpt lat="44.4811983" lon="10.8550533"><ele>210.0</ele><time>2026-05-03T08:19:11.757Z</time></trkpt><trkpt lat="44.4810467" lon="10.8549167"><ele>211.0</ele><time>2026-05-03T08:19:12.758Z</time></trkpt><trkpt lat="44.4809017" lon="10.854765"><ele>211.0</ele><time>2026-05-03T08:19:13.757Z</time></trkpt><trkpt lat="44.480765" lon="10.8546017"><ele>211.0</ele><time>2026-05-03T08:19:14.758Z</time></trkpt><trkpt lat="44.480635" lon="10.8544283"><ele>211.0</ele><time>2026-05-03T08:19:15.758Z</time></trkpt><trkpt lat="44.4805117" lon="10.8542517"><ele>212.33333333333331</ele><time>2026-05-03T08:19:16.757Z</time></trkpt><trkpt lat="44.4803833" lon="10.854075"><ele>213.66666666666669</ele><time>2026-05-03T08:19:17.757Z</time></trkpt><trkpt lat="44.48026" lon="10.8539"><ele>215.0</ele><time>2026-05-03T08:19:18.758Z</time></trkpt><trkpt lat="44.48014" lon="10.8537183"><ele>215.0</ele><time>2026-05-03T08:19:19.757Z</time></trkpt><trkpt lat="44.48002" lon="10.8535483"><ele>215.0</ele><time>2026-05-03T08:19:20.758Z</time></trkpt><trkpt lat="44.4798983" lon="10.8533817"><ele>215.0</ele><time>2026-05-03T08:19:21.758Z</time></trkpt><trkpt lat="44.4797783" lon="10.8532183"><ele>215.66666666666669</ele><time>2026-05-03T08:19:22.757Z</time></trkpt><trkpt lat="44.4796667" lon="10.8530517"><ele>216.33333333333331</ele><time>2026-05-03T08:19:23.758Z</time></trkpt><trkpt lat="44.4795483" lon="10.85289"><ele>217.0</ele><time>2026-05-03T08:19:24.757Z</time></trkpt><trkpt lat="44.479425" lon="10.8527083"><ele>218.0</ele><time>2026-05-03T08:19:25.758Z</time></trkpt><trkpt lat="44.479305" lon="10.8525433"><ele>219.0</ele><time>2026-05-03T08:19:26.757Z</time></trkpt><trkpt lat="44.4791833" lon="10.8523733"><ele>220.0</ele><time>2026-05-03T08:19:27.758Z</time></trkpt><trkpt lat="44.47906" lon="10.8521983"><ele>220.0</ele><time>2026-05-03T08:19:28.758Z</time></trkpt><trkpt lat="44.47893" lon="10.8520133"><ele>220.0</ele><time>2026-05-03T08:19:29.758Z</time></trkpt><trkpt lat="44.4787983" lon="10.8518267"><ele>220.0</ele><time>2026-05-03T08:19:30.758Z</time></trkpt><trkpt lat="44.4786567" lon="10.8516417"><ele>221.0</ele><time>2026-05-03T08:19:31.758Z</time></trkpt><trkpt lat="44.4785217" lon="10.8514583"><ele>222.0</ele><time>2026-05-03T08:19:32.757Z</time></trkpt><trkpt lat="44.47838" lon="10.8512867"><ele>223.0</ele><time>2026-05-03T08:19:33.758Z</time></trkpt><trkpt lat="44.4782333" lon="10.851135"><ele>223.0</ele><time>2026-05-03T08:19:34.758Z</time></trkpt><trkpt lat="44.4780833" lon="10.8510017"><ele>223.0</ele><time>2026-05-03T08:19:35.758Z</time></trkpt><trkpt lat="44.4779367" lon="10.8508783"><ele>223.0</ele><time>2026-05-03T08:19:36.758Z</time></trkpt><trkpt lat="44.4777817" lon="10.8507567"><ele>225.0</ele><time>2026-05-03T08:19:37.758Z</time></trkpt><trkpt lat="44.4776233" lon="10.850635"><ele>227.0</ele><time>2026-05-03T08:19:38.757Z</time></trkpt><trkpt lat="44.477465" lon="10.85052"><ele>229.0</ele><time>2026-05-03T08:19:39.758Z</time></trkpt><trkpt lat="44.4773017" lon="10.8504067"><ele>229.0</ele><time>2026-05-03T08:19:40.758Z</time></trkpt><trkpt lat="44.47715" lon="10.8502933"><ele>229.0</ele><time>2026-05-03T08:19:41.758Z</time></trkpt><trkpt lat="44.4770017" lon="10.8501783"><ele>229.0</ele><time>2026-05-03T08:19:42.757Z</time></trkpt><trkpt lat="44.47686" lon="10.8500617"><ele>229.33333333333331</ele><time>2026-05-03T08:19:43.758Z</time></trkpt><trkpt lat="44.4767117" lon="10.84995"><ele>229.66666666666669</ele><time>2026-05-03T08:19:44.758Z</time></trkpt><trkpt lat="44.4765617" lon="10.8498333"><ele>230.0</ele><time>2026-05-03T08:19:45.758Z</time></trkpt><trkpt lat="44.4764067" lon="10.8497133"><ele>230.0</ele><time>2026-05-03T08:19:46.758Z</time></trkpt><trkpt lat="44.4762533" lon="10.8495883"><ele>230.0</ele><time>2026-05-03T08:19:47.758Z</time></trkpt><trkpt lat="44.4761" lon="10.84947"><ele>230.0</ele><time>2026-05-03T08:19:48.757Z</time></trkpt><trkpt lat="44.4759467" lon="10.8493533"><ele>232.0</ele><time>2026-05-03T08:19:49.758Z</time></trkpt><trkpt lat="44.47579" lon="10.8492333"><ele>234.0</ele><time>2026-05-03T08:19:50.758Z</time></trkpt><trkpt lat="44.47563" lon="10.8491133"><ele>236.0</ele><time>2026-05-03T08:19:51.758Z</time></trkpt><trkpt lat="44.47547" lon="10.8489917"><ele>234.33333333333334</ele><time>2026-05-03T08:19:52.757Z</time></trkpt><trkpt lat="44.47531" lon="10.84887"><ele>232.66666666666669</ele><time>2026-05-03T08:19:53.757Z</time></trkpt><trkpt lat="44.475145" lon="10.848745"><ele>231.0</ele><time>2026-05-03T08:19:54.757Z</time></trkpt><trkpt lat="44.4749733" lon="10.8486217"><ele>231.0</ele><time>2026-05-03T08:19:55.758Z</time></trkpt><trkpt lat="44.474805" lon="10.8484917"><ele>231.0</ele><time>2026-05-03T08:19:56.758Z</time></trkpt><trkpt lat="44.4746433" lon="10.8483683"><ele>231.0</ele><time>2026-05-03T08:19:57.757Z</time></trkpt><trkpt lat="44.47448" lon="10.8482433"><ele>230.66666666666669</ele><time>2026-05-03T08:19:58.758Z</time></trkpt><trkpt lat="44.4743233" lon="10.8481167"><ele>230.33333333333334</ele><time>2026-05-03T08:19:59.757Z</time></trkpt><trkpt lat="44.4741617" lon="10.8480017"><ele>230.0</ele><time>2026-05-03T08:20:00.758Z</time></trkpt><trkpt lat="44.4740133" lon="10.847885"><ele>230.0</ele><time>2026-05-03T08:20:01.758Z</time></trkpt><trkpt lat="44.473865" lon="10.8477633"><ele>230.0</ele><time>2026-05-03T08:20:02.758Z</time></trkpt><trkpt lat="44.473715" lon="10.847655"><ele>230.0</ele><time>2026-05-03T08:20:03.758Z</time></trkpt><trkpt lat="44.4735667" lon="10.8475417"><ele>232.66666666666669</ele><time>2026-05-03T08:20:04.757Z</time></trkpt><trkpt lat="44.4734183" lon="10.8474267"><ele>235.33333333333331</ele><time>2026-05-03T08:20:05.758Z</time></trkpt><trkpt lat="44.4732733" lon="10.847305"><ele>238.0</ele><time>2026-05-03T08:20:06.758Z</time></trkpt><trkpt lat="44.473125" lon="10.8471867"><ele>238.0</ele><time>2026-05-03T08:20:07.758Z</time></trkpt><trkpt lat="44.472975" lon="10.8470667"><ele>238.0</ele><time>2026-05-03T08:20:08.757Z</time></trkpt><trkpt lat="44.4728233" lon="10.84693"><ele>238.0</ele><time>2026-05-03T08:20:09.758Z</time></trkpt><trkpt lat="44.4726833" lon="10.8467767"><ele>238.66666666666666</ele><time>2026-05-03T08:20:10.758Z</time></trkpt><trkpt lat="44.4725483" lon="10.8466"><ele>239.33333333333331</ele><time>2026-05-03T08:20:11.758Z</time></trkpt><trkpt lat="44.472415" lon="10.84643"><ele>240.0</ele><time>2026-05-03T08:20:12.758Z</time></trkpt><trkpt lat="44.4722867" lon="10.846255"><ele>240.0</ele><time>2026-05-03T08:20:13.758Z</time></trkpt><trkpt lat="44.47216" lon="10.8460817"><ele>240.0</ele><time>2026-05-03T08:20:14.757Z</time></trkpt><trkpt lat="44.4720233" lon="10.8459067"><ele>240.0</ele><time>2026-05-03T08:20:15.758Z</time></trkpt><trkpt lat="44.4719" lon="10.8457333"><ele>238.33333333333331</ele><time>2026-05-03T08:20:16.758Z</time></trkpt><trkpt lat="44.4717667" lon="10.8455667"><ele>236.66666666666666</ele><time>2026-05-03T08:20:17.757Z</time></trkpt><trkpt lat="44.4716383" lon="10.845395"><ele>235.0</ele><time>2026-05-03T08:20:18.758Z</time></trkpt><trkpt lat="44.4715133" lon="10.8452283"><ele>236.33333333333331</ele><time>2026-05-03T08:20:19.758Z</time></trkpt><trkpt lat="44.4713833" lon="10.8450617"><ele>237.66666666666669</ele><time>2026-05-03T08:20:20.758Z</time></trkpt><trkpt lat="44.471255" lon="10.8448833"><ele>239.0</ele><time>2026-05-03T08:20:21.757Z</time></trkpt><trkpt lat="44.471125" lon="10.84471"><ele>239.0</ele><time>2026-05-03T08:20:22.758Z</time></trkpt><trkpt lat="44.4709933" lon="10.84454"><ele>239.0</ele><time>2026-05-03T08:20:23.758Z</time></trkpt><trkpt lat="44.4708617" lon="10.84437"><ele>239.0</ele><time>2026-05-03T08:20:24.758Z</time></trkpt><trkpt lat="44.4707267" lon="10.8441967"><ele>240.0</ele><time>2026-05-03T08:20:25.758Z</time></trkpt><trkpt lat="44.4705933" lon="10.8440183"><ele>241.0</ele><time>2026-05-03T08:20:26.758Z</time></trkpt><trkpt lat="44.4704583" lon="10.8438417"><ele>242.0</ele><time>2026-05-03T08:20:27.758Z</time></trkpt><trkpt lat="44.4703283" lon="10.843665"><ele>242.0</ele><time>2026-05-03T08:20:28.757Z</time></trkpt><trkpt lat="44.4701833" lon="10.8434933"><ele>242.0</ele><time>2026-05-03T08:20:29.758Z</time></trkpt><trkpt lat="44.4700483" lon="10.843315"><ele>242.0</ele><time>2026-05-03T08:20:30.758Z</time></trkpt><trkpt lat="44.4699083" lon="10.8431367"><ele>242.66666666666669</ele><time>2026-05-03T08:20:31.758Z</time></trkpt><trkpt lat="44.46977" lon="10.8429583"><ele>243.33333333333331</ele><time>2026-05-03T08:20:32.757Z</time></trkpt><trkpt lat="44.4696433" lon="10.8427683"><ele>244.0</ele><time>2026-05-03T08:20:33.758Z</time></trkpt><trkpt lat="44.4695117" lon="10.8425867"><ele>244.0</ele><time>2026-05-03T08:20:34.758Z</time></trkpt><trkpt lat="44.4693783" lon="10.8424133"><ele>244.0</ele><time>2026-05-03T08:20:35.758Z</time></trkpt><trkpt lat="44.46924" lon="10.8422383"><ele>244.0</ele><time>2026-05-03T08:20:36.758Z</time></trkpt><trkpt lat="44.46911" lon="10.8420667"><ele>244.0</ele><time>2026-05-03T08:20:37.757Z</time></trkpt><trkpt lat="44.4689833" lon="10.8418983"><ele>244.0</ele><time>2026-05-03T08:20:38.758Z</time></trkpt><trkpt lat="44.468855" lon="10.8417217"><ele>244.0</ele><time>2026-05-03T08:20:39.758Z</time></trkpt><trkpt lat="44.4687317" lon="10.8415367"><ele>244.33333333333331</ele><time>2026-05-03T08:20:40.758Z</time></trkpt><trkpt lat="44.46861" lon="10.841355"><ele>244.66666666666669</ele><time>2026-05-03T08:20:41.757Z</time></trkpt><trkpt lat="44.4684783" lon="10.8411733"><ele>245.0</ele><time>2026-05-03T08:20:42.758Z</time></trkpt><trkpt lat="44.4683483" lon="10.84099"><ele>245.66666666666669</ele><time>2026-05-03T08:20:43.757Z</time></trkpt><trkpt lat="44.4682283" lon="10.8408133"><ele>246.33333333333331</ele><time>2026-05-03T08:20:44.758Z</time></trkpt><trkpt lat="44.4681" lon="10.840635"><ele>247.0</ele><time>2026-05-03T08:20:45.758Z</time></trkpt><trkpt lat="44.4679767" lon="10.84045"><ele>247.0</ele><time>2026-05-03T08:20:46.758Z</time></trkpt><trkpt lat="44.4678583" lon="10.840265"><ele>247.0</ele><time>2026-05-03T08:20:47.758Z</time></trkpt><trkpt lat="44.467735" lon="10.8400817"><ele>247.0</ele><time>2026-05-03T08:20:48.757Z</time></trkpt><trkpt lat="44.4676083" lon="10.8398917"><ele>247.33333333333331</ele><time>2026-05-03T08:20:49.758Z</time></trkpt><trkpt lat="44.46748" lon="10.8397083"><ele>247.66666666666669</ele><time>2026-05-03T08:20:50.758Z</time></trkpt><trkpt lat="44.4673583" lon="10.8395283"><ele>248.0</ele><time>2026-05-03T08:20:51.758Z</time></trkpt><trkpt lat="44.467235" lon="10.8393533"><ele>248.0</ele><time>2026-05-03T08:20:52.758Z</time></trkpt><trkpt lat="44.4670967" lon="10.8391967"><ele>248.0</ele><time>2026-05-03T08:20:53.757Z</time></trkpt><trkpt lat="44.46696" lon="10.839045"><ele>248.0</ele><time>2026-05-03T08:20:54.758Z</time></trkpt><trkpt lat="44.46682" lon="10.8389117"><ele>248.0</ele><time>2026-05-03T08:20:55.757Z</time></trkpt><trkpt lat="44.46667" lon="10.838785"><ele>248.0</ele><time>2026-05-03T08:20:56.757Z</time></trkpt><trkpt lat="44.466515" lon="10.8386733"><ele>248.0</ele><time>2026-05-03T08:20:57.758Z</time></trkpt><trkpt lat="44.46636" lon="10.8385683"><ele>248.66666666666669</ele><time>2026-05-03T08:20:58.757Z</time></trkpt><trkpt lat="44.4661983" lon="10.8384767"><ele>249.33333333333331</ele><time>2026-05-03T08:20:59.758Z</time></trkpt><trkpt lat="44.4660317" lon="10.83839"><ele>250.0</ele><time>2026-05-03T08:21:00.757Z</time></trkpt><trkpt lat="44.465865" lon="10.8383083"><ele>250.33333333333331</ele><time>2026-05-03T08:21:01.758Z</time></trkpt><trkpt lat="44.4656983" lon="10.838225"><ele>250.66666666666669</ele><time>2026-05-03T08:21:02.758Z</time></trkpt><trkpt lat="44.465545" lon="10.83814"><ele>251.0</ele><time>2026-05-03T08:21:03.758Z</time></trkpt><trkpt lat="44.4653833" lon="10.83806"><ele>251.0</ele><time>2026-05-03T08:21:04.758Z</time></trkpt><trkpt lat="44.4652267" lon="10.8379767"><ele>251.0</ele><time>2026-05-03T08:21:05.758Z</time></trkpt><trkpt lat="44.4650717" lon="10.8378933"><ele>251.0</ele><time>2026-05-03T08:21:06.758Z</time></trkpt><trkpt lat="44.4649067" lon="10.8378167"><ele>251.0</ele><time>2026-05-03T08:21:07.758Z</time></trkpt><trkpt lat="44.46474" lon="10.8377383"><ele>251.0</ele><time>2026-05-03T08:21:08.758Z</time></trkpt><trkpt lat="44.46458" lon="10.8376567"><ele>251.0</ele><time>2026-05-03T08:21:09.758Z</time></trkpt><trkpt lat="44.464415" lon="10.8375783"><ele>253.0</ele><time>2026-05-03T08:21:10.758Z</time></trkpt><trkpt lat="44.4642483" lon="10.8374983"><ele>255.0</ele><time>2026-05-03T08:21:11.758Z</time></trkpt><trkpt lat="44.4640817" lon="10.8374167"><ele>257.0</ele><time>2026-05-03T08:21:12.758Z</time></trkpt><trkpt lat="44.4639217" lon="10.837335"><ele>257.33333333333337</ele><time>2026-05-03T08:21:13.758Z</time></trkpt><trkpt lat="44.4637583" lon="10.837255"><ele>257.6666666666667</ele><time>2026-05-03T08:21:14.758Z</time></trkpt><trkpt lat="44.4636" lon="10.8371783"><ele>258.0</ele><time>2026-05-03T08:21:15.757Z</time></trkpt><trkpt lat="44.4634383" lon="10.8370867"><ele>258.0</ele><time>2026-05-03T08:21:16.757Z</time></trkpt><trkpt lat="44.46329" lon="10.8369883"><ele>258.0</ele><time>2026-05-03T08:21:17.757Z</time></trkpt><trkpt lat="44.463155" lon="10.8368667"><ele>258.0</ele><time>2026-05-03T08:21:18.757Z</time></trkpt><trkpt lat="44.4630283" lon="10.8367217"><ele>258.6666666666667</ele><time>2026-05-03T08:21:19.757Z</time></trkpt><trkpt lat="44.4629133" lon="10.8365633"><ele>259.33333333333337</ele><time>2026-05-03T08:21:20.757Z</time></trkpt><trkpt lat="44.4628083" lon="10.8363783"><ele>260.0</ele><time>2026-05-03T08:21:21.757Z</time></trkpt><trkpt lat="44.4627133" lon="10.8361917"><ele>260.0</ele><time>2026-05-03T08:21:22.757Z</time></trkpt><trkpt lat="44.4626183" lon="10.8360017"><ele>260.0</ele><time>2026-05-03T08:21:23.757Z</time></trkpt><trkpt lat="44.4625167" lon="10.8358117"><ele>260.0</ele><time>2026-05-03T08:21:24.757Z</time></trkpt><trkpt lat="44.46241" lon="10.8356267"><ele>260.6666666666667</ele><time>2026-05-03T08:21:25.756Z</time></trkpt><trkpt lat="44.4623083" lon="10.83543"><ele>261.3333333333333</ele><time>2026-05-03T08:21:26.757Z</time></trkpt><trkpt lat="44.4621933" lon="10.8352367"><ele>262.0</ele><time>2026-05-03T08:21:27.756Z</time></trkpt><trkpt lat="44.46209" lon="10.8350433"><ele>262.0</ele><time>2026-05-03T08:21:28.756Z</time></trkpt><trkpt lat="44.4619817" lon="10.8348467"><ele>262.0</ele><time>2026-05-03T08:21:29.757Z</time></trkpt><trkpt lat="44.4618733" lon="10.834655"><ele>262.0</ele><time>2026-05-03T08:21:30.757Z</time></trkpt><trkpt lat="44.461775" lon="10.834465"><ele>262.3333333333333</ele><time>2026-05-03T08:21:31.757Z</time></trkpt><trkpt lat="44.461685" lon="10.8342867"><ele>262.6666666666667</ele><time>2026-05-03T08:21:32.757Z</time></trkpt><trkpt lat="44.4615867" lon="10.83411"><ele>263.0</ele><time>2026-05-03T08:21:33.756Z</time></trkpt><trkpt lat="44.4615" lon="10.833925"><ele>263.0</ele><time>2026-05-03T08:21:34.757Z</time></trkpt><trkpt lat="44.4613967" lon="10.8337317"><ele>263.0</ele><time>2026-05-03T08:21:35.757Z</time></trkpt><trkpt lat="44.4613" lon="10.83354"><ele>263.0</ele><time>2026-05-03T08:21:36.757Z</time></trkpt><trkpt lat="44.4612" lon="10.8333517"><ele>264.33333333333337</ele><time>2026-05-03T08:21:37.756Z</time></trkpt><trkpt lat="44.4610983" lon="10.833175"><ele>265.6666666666667</ele><time>2026-05-03T08:21:38.757Z</time></trkpt><trkpt lat="44.460995" lon="10.832995"><ele>267.0</ele><time>2026-05-03T08:21:39.757Z</time></trkpt><trkpt lat="44.4608867" lon="10.8328233"><ele>267.0</ele><time>2026-05-03T08:21:40.757Z</time></trkpt><trkpt lat="44.460775" lon="10.832655"><ele>267.0</ele><time>2026-05-03T08:21:41.757Z</time></trkpt><trkpt lat="44.4606517" lon="10.8324983"><ele>267.0</ele><time>2026-05-03T08:21:42.757Z</time></trkpt><trkpt lat="44.4605217" lon="10.8323617"><ele>267.0</ele><time>2026-05-03T08:21:43.757Z</time></trkpt><trkpt lat="44.4603833" lon="10.8322483"><ele>267.0</ele><time>2026-05-03T08:21:44.756Z</time></trkpt><trkpt lat="44.4602417" lon="10.8321583"><ele>267.0</ele><time>2026-05-03T08:21:45.757Z</time></trkpt><trkpt lat="44.4600933" lon="10.8320717"><ele>267.0</ele><time>2026-05-03T08:21:46.757Z</time></trkpt><trkpt lat="44.45994" lon="10.83201"><ele>267.0</ele><time>2026-05-03T08:21:47.757Z</time></trkpt><trkpt lat="44.4597783" lon="10.8319767"><ele>267.0</ele><time>2026-05-03T08:21:48.757Z</time></trkpt><trkpt lat="44.4596183" lon="10.831955"><ele>268.3333333333333</ele><time>2026-05-03T08:21:49.757Z</time></trkpt><trkpt lat="44.4594567" lon="10.83195"><ele>269.66666666666663</ele><time>2026-05-03T08:21:50.757Z</time></trkpt><trkpt lat="44.4592933" lon="10.8319517"><ele>271.0</ele><time>2026-05-03T08:21:51.757Z</time></trkpt><trkpt lat="44.4591433" lon="10.8319467"><ele>271.0</ele><time>2026-05-03T08:21:52.757Z</time></trkpt><trkpt lat="44.45899" lon="10.8319417"><ele>271.0</ele><time>2026-05-03T08:21:53.757Z</time></trkpt><trkpt lat="44.4588383" lon="10.8319533"><ele>271.0</ele><time>2026-05-03T08:21:54.757Z</time></trkpt><trkpt lat="44.4586917" lon="10.8319733"><ele>272.5</ele><time>2026-05-03T08:21:55.757Z</time></trkpt><trkpt lat="44.45856" lon="10.831995"><ele>274.0</ele><time>2026-05-03T08:21:56.757Z</time></trkpt><trkpt lat="44.458445" lon="10.8320267"><ele>275.5</ele><time>2026-05-03T08:21:57.757Z</time></trkpt><trkpt lat="44.45834" lon="10.8320717"><ele>277.0</ele><time>2026-05-03T08:21:58.756Z</time></trkpt><trkpt lat="44.4582433" lon="10.8321167"><ele>277.0</ele><time>2026-05-03T08:21:59.757Z</time></trkpt><trkpt lat="44.458155" lon="10.832155"><ele>277.0</ele><time>2026-05-03T08:22:00.757Z</time></trkpt><trkpt lat="44.4580683" lon="10.8322067"><ele>277.0</ele><time>2026-05-03T08:22:01.757Z</time></trkpt><trkpt lat="44.4579733" lon="10.8322533"><ele>277.0</ele><time>2026-05-03T08:22:02.757Z</time></trkpt><trkpt lat="44.4578833" lon="10.8323067"><ele>277.0</ele><time>2026-05-03T08:22:03.757Z</time></trkpt><trkpt lat="44.45779" lon="10.8323667"><ele>277.5</ele><time>2026-05-03T08:22:04.757Z</time></trkpt><trkpt lat="44.4577017" lon="10.8324233"><ele>278.0</ele><time>2026-05-03T08:22:05.757Z</time></trkpt><trkpt lat="44.457615" lon="10.83247"><ele>278.5</ele><time>2026-05-03T08:22:06.757Z</time></trkpt><trkpt lat="44.4575433" lon="10.8325183"><ele>279.0</ele><time>2026-05-03T08:22:07.757Z</time></trkpt><trkpt lat="44.4574833" lon="10.8325633"><ele>279.5</ele><time>2026-05-03T08:22:08.756Z</time></trkpt><trkpt lat="44.4573933" lon="10.832605"><ele>280.0</ele><time>2026-05-03T08:22:10.757Z</time></trkpt><trkpt lat="44.4573233" lon="10.83257"><ele>280.0</ele><time>2026-05-03T08:22:13.757Z</time></trkpt><trkpt lat="44.4572333" lon="10.832485"><ele>280.0</ele><time>2026-05-03T08:22:15.757Z</time></trkpt><trkpt lat="44.457175" lon="10.8324333"><ele>280.0</ele><time>2026-05-03T08:22:16.757Z</time></trkpt><trkpt lat="44.457115" lon="10.8323917"><ele>280.0</ele><time>2026-05-03T08:22:17.757Z</time></trkpt><trkpt lat="44.4570533" lon="10.8323683"><ele>280.0</ele><time>2026-05-03T08:22:18.756Z</time></trkpt><trkpt lat="44.4569817" lon="10.832365"><ele>280.0</ele><time>2026-05-03T08:22:19.757Z</time></trkpt><trkpt lat="44.4569083" lon="10.8323783"><ele>281.5</ele><time>2026-05-03T08:22:20.757Z</time></trkpt><trkpt lat="44.456825" lon="10.83241"><ele>283.0</ele><time>2026-05-03T08:22:21.757Z</time></trkpt><trkpt lat="44.4567433" lon="10.83245"><ele>284.5</ele><time>2026-05-03T08:22:22.756Z</time></trkpt><trkpt lat="44.4566667" lon="10.83248"><ele>286.0</ele><time>2026-05-03T08:22:23.757Z</time></trkpt><trkpt lat="44.4566017" lon="10.832515"><ele>287.5</ele><time>2026-05-03T08:22:24.757Z</time></trkpt><trkpt lat="44.4565433" lon="10.8325533"><ele>289.0</ele><time>2026-05-03T08:22:25.757Z</time></trkpt><trkpt lat="44.4564883" lon="10.8326"><ele>288.59999999999997</ele><time>2026-05-03T08:22:26.756Z</time></trkpt><trkpt lat="44.45644" lon="10.8326567"><ele>288.2</ele><time>2026-05-03T08:22:27.757Z</time></trkpt><trkpt lat="44.4563567" lon="10.8327517"><ele>287.79999999999995</ele><time>2026-05-03T08:22:29.757Z</time></trkpt><trkpt lat="44.4562517" lon="10.8328133"><ele>287.4</ele><time>2026-05-03T08:22:31.757Z</time></trkpt><trkpt lat="44.45612" lon="10.832815"><ele>287.0</ele><time>2026-05-03T08:22:33.757Z</time></trkpt><trkpt lat="44.45604" lon="10.83281"><ele>287.0</ele><time>2026-05-03T08:22:34.757Z</time></trkpt><trkpt lat="44.4559683" lon="10.8327983"><ele>287.0</ele><time>2026-05-03T08:22:35.757Z</time></trkpt><trkpt lat="44.4558683" lon="10.8328467"><ele>287.0</ele><time>2026-05-03T08:22:37.756Z</time></trkpt><trkpt lat="44.45581" lon="10.8329033"><ele>287.0</ele><time>2026-05-03T08:22:38.757Z</time></trkpt><trkpt lat="44.4557283" lon="10.832995"><ele>287.0</ele><time>2026-05-03T08:22:39.756Z</time></trkpt><trkpt lat="44.4556383" lon="10.8330767"><ele>287.0</ele><time>2026-05-03T08:22:40.757Z</time></trkpt><trkpt lat="44.4555283" lon="10.8331433"><ele>287.0</ele><time>2026-05-03T08:22:41.757Z</time></trkpt><trkpt lat="44.45543" lon="10.83321"><ele>287.0</ele><time>2026-05-03T08:22:42.757Z</time></trkpt><trkpt lat="44.45534" lon="10.8332617"><ele>287.0</ele><time>2026-05-03T08:22:43.757Z</time></trkpt><trkpt lat="44.4552483" lon="10.8332883"><ele>287.0</ele><time>2026-05-03T08:22:44.757Z</time></trkpt><trkpt lat="44.45516" lon="10.8333033"><ele>287.0</ele><time>2026-05-03T08:22:45.757Z</time></trkpt><trkpt lat="44.45509" lon="10.833335"><ele>287.0</ele><time>2026-05-03T08:22:46.756Z</time></trkpt><trkpt lat="44.455035" lon="10.8333817"><ele>287.0</ele><time>2026-05-03T08:22:47.757Z</time></trkpt><trkpt lat="44.4549817" lon="10.8334383"><ele>287.0</ele><time>2026-05-03T08:22:48.757Z</time></trkpt><trkpt lat="44.4549283" lon="10.8334883"><ele>287.0</ele><time>2026-05-03T08:22:49.757Z</time></trkpt><trkpt lat="44.4548433" lon="10.83358"><ele>287.0</ele><time>2026-05-03T08:22:51.757Z</time></trkpt><trkpt lat="44.4547817" lon="10.8336067"><ele>287.0</ele><time>2026-05-03T08:22:52.757Z</time></trkpt><trkpt lat="44.4547017" lon="10.8336117"><ele>288.0</ele><time>2026-05-03T08:22:53.757Z</time></trkpt><trkpt lat="44.4546033" lon="10.8336"><ele>289.0</ele><time>2026-05-03T08:22:54.756Z</time></trkpt><trkpt lat="44.4545167" lon="10.833575"><ele>290.0</ele><time>2026-05-03T08:22:55.757Z</time></trkpt><trkpt lat="44.454445" lon="10.8335533"><ele>291.0</ele><time>2026-05-03T08:22:56.757Z</time></trkpt><trkpt lat="44.4543433" lon="10.8335617"><ele>292.0</ele><time>2026-05-03T08:22:58.757Z</time></trkpt><trkpt lat="44.45422" lon="10.8335717"><ele>292.0</ele><time>2026-05-03T08:23:00.757Z</time></trkpt><trkpt lat="44.4541567" lon="10.8335867"><ele>292.0</ele><time>2026-05-03T08:23:01.757Z</time></trkpt><trkpt lat="44.4540433" lon="10.8336383"><ele>292.0</ele><time>2026-05-03T08:23:03.756Z</time></trkpt><trkpt lat="44.4539817" lon="10.833685"><ele>292.0</ele><time>2026-05-03T08:23:04.757Z</time></trkpt><trkpt lat="44.4539083" lon="10.8337233"><ele>292.0</ele><time>2026-05-03T08:23:05.757Z</time></trkpt><trkpt lat="44.4538183" lon="10.8337417"><ele>292.0</ele><time>2026-05-03T08:23:06.756Z</time></trkpt><trkpt lat="44.4537233" lon="10.8337283"><ele>293.5</ele><time>2026-05-03T08:23:07.757Z</time></trkpt><trkpt lat="44.453615" lon="10.8336867"><ele>295.0</ele><time>2026-05-03T08:23:08.757Z</time></trkpt><trkpt lat="44.4535" lon="10.8336467"><ele>296.5</ele><time>2026-05-03T08:23:09.756Z</time></trkpt><trkpt lat="44.4533867" lon="10.8336083"><ele>298.0</ele><time>2026-05-03T08:23:10.757Z</time></trkpt><trkpt lat="44.4532817" lon="10.833585"><ele>298.0</ele><time>2026-05-03T08:23:11.756Z</time></trkpt><trkpt lat="44.4531717" lon="10.8335717"><ele>298.0</ele><time>2026-05-03T08:23:12.757Z</time></trkpt><trkpt lat="44.45305" lon="10.8335883"><ele>298.0</ele><time>2026-05-03T08:23:13.757Z</time></trkpt><trkpt lat="44.4529283" lon="10.8336083"><ele>298.0</ele><time>2026-05-03T08:23:14.757Z</time></trkpt><trkpt lat="44.4528433" lon="10.8336217"><ele>298.0</ele><time>2026-05-03T08:23:15.757Z</time></trkpt><trkpt lat="44.4527717" lon="10.8336067"><ele>298.8333333333333</ele><time>2026-05-03T08:23:16.756Z</time></trkpt><trkpt lat="44.45271" lon="10.83357"><ele>299.66666666666663</ele><time>2026-05-03T08:23:17.757Z</time></trkpt><trkpt lat="44.4526183" lon="10.8335017"><ele>300.5</ele><time>2026-05-03T08:23:19.756Z</time></trkpt><trkpt lat="44.4525533" lon="10.833525"><ele>301.3333333333333</ele><time>2026-05-03T08:23:22.757Z</time></trkpt><trkpt lat="44.452475" lon="10.8335683"><ele>302.1666666666667</ele><time>2026-05-03T08:23:26.757Z</time></trkpt><trkpt lat="44.4524283" lon="10.83367"><ele>303.0</ele><time>2026-05-03T08:23:29.757Z</time></trkpt><trkpt lat="44.45238" lon="10.8337683"><ele>303.0</ele><time>2026-05-03T08:23:41.756Z</time></trkpt><trkpt lat="44.4523083" lon="10.83384"><ele>303.0</ele><time>2026-05-03T08:23:43.757Z</time></trkpt><trkpt lat="44.4522367" lon="10.8339083"><ele>303.0</ele><time>2026-05-03T08:23:45.757Z</time></trkpt><trkpt lat="44.4521367" lon="10.8339667"><ele>303.0</ele><time>2026-05-03T08:23:47.757Z</time></trkpt><trkpt lat="44.4520733" lon="10.833985"><ele>303.0</ele><time>2026-05-03T08:23:48.757Z</time></trkpt><trkpt lat="44.451955" lon="10.8340067"><ele>305.0</ele><time>2026-05-03T08:23:50.757Z</time></trkpt><trkpt lat="44.4518583" lon="10.8339533"><ele>307.0</ele><time>2026-05-03T08:23:52.757Z</time></trkpt><trkpt lat="44.4517333" lon="10.8338883"><ele>309.0</ele><time>2026-05-03T08:23:54.757Z</time></trkpt><trkpt lat="44.45165" lon="10.8338733"><ele>311.0</ele><time>2026-05-03T08:23:55.757Z</time></trkpt><trkpt lat="44.4515717" lon="10.8338567"><ele>313.0</ele><time>2026-05-03T08:23:56.757Z</time></trkpt><trkpt lat="44.45149" lon="10.833835"><ele>313.0</ele><time>2026-05-03T08:23:57.757Z</time></trkpt><trkpt lat="44.4514167" lon="10.8338017"><ele>313.0</ele><time>2026-05-03T08:23:58.757Z</time></trkpt><trkpt lat="44.4513483" lon="10.8337717"><ele>313.0</ele><time>2026-05-03T08:23:59.757Z</time></trkpt><trkpt lat="44.4512783" lon="10.8337583"><ele>313.0</ele><time>2026-05-03T08:24:00.756Z</time></trkpt><trkpt lat="44.4511633" lon="10.833795"><ele>313.0</ele><time>2026-05-03T08:24:02.757Z</time></trkpt><trkpt lat="44.4510967" lon="10.8338233"><ele>313.0</ele><time>2026-05-03T08:24:03.757Z</time></trkpt><trkpt lat="44.45103" lon="10.8338517"><ele>313.6</ele><time>2026-05-03T08:24:04.757Z</time></trkpt><trkpt lat="44.4509117" lon="10.8339017"><ele>314.20000000000005</ele><time>2026-05-03T08:24:06.757Z</time></trkpt><trkpt lat="44.450845" lon="10.8339167"><ele>314.8</ele><time>2026-05-03T08:24:07.757Z</time></trkpt><trkpt lat="44.4507333" lon="10.8339333"><ele>315.40000000000003</ele><time>2026-05-03T08:24:09.757Z</time></trkpt><trkpt lat="44.4506483" lon="10.8339483"><ele>316.0</ele><time>2026-05-03T08:24:11.757Z</time></trkpt><trkpt lat="44.450555" lon="10.83395"><ele>318.0</ele><time>2026-05-03T08:24:13.756Z</time></trkpt><trkpt lat="44.4504283" lon="10.83397"><ele>320.0</ele><time>2026-05-03T08:24:15.757Z</time></trkpt><trkpt lat="44.4503267" lon="10.8340183"><ele>322.0</ele><time>2026-05-03T08:24:17.757Z</time></trkpt><trkpt lat="44.4502283" lon="10.834045"><ele>324.0</ele><time>2026-05-03T08:24:20.756Z</time></trkpt><trkpt lat="44.4501067" lon="10.83407"><ele>324.0</ele><time>2026-05-03T08:24:22.757Z</time></trkpt><trkpt lat="44.4500417" lon="10.83409"><ele>324.0</ele><time>2026-05-03T08:24:23.757Z</time></trkpt><trkpt lat="44.4499117" lon="10.8341"><ele>324.0</ele><time>2026-05-03T08:24:25.757Z</time></trkpt><trkpt lat="44.4498383" lon="10.8341"><ele>324.0</ele><time>2026-05-03T08:24:26.757Z</time></trkpt><trkpt lat="44.4497667" lon="10.8340867"><ele>324.0</ele><time>2026-05-03T08:24:27.756Z</time></trkpt><trkpt lat="44.4496933" lon="10.834055"><ele>324.0</ele><time>2026-05-03T08:24:28.757Z</time></trkpt><trkpt lat="44.4496183" lon="10.83401"><ele>325.0</ele><time>2026-05-03T08:24:29.757Z</time></trkpt><trkpt lat="44.449545" lon="10.83399"><ele>326.0</ele><time>2026-05-03T08:24:30.756Z</time></trkpt><trkpt lat="44.449435" lon="10.8339833"><ele>327.0</ele><time>2026-05-03T08:24:32.757Z</time></trkpt><trkpt lat="44.4493483" lon="10.834045"><ele>328.0</ele><time>2026-05-03T08:25:57.756Z</time></trkpt><trkpt lat="44.4492533" lon="10.8340933"><ele>329.0</ele><time>2026-05-03T08:25:59.756Z</time></trkpt><trkpt lat="44.4491233" lon="10.8340917"><ele>329.0</ele><time>2026-05-03T08:26:01.755Z</time></trkpt><trkpt lat="44.4490083" lon="10.83405"><ele>329.0</ele><time>2026-05-03T08:26:03.755Z</time></trkpt><trkpt lat="44.4489117" lon="10.8340133"><ele>329.0</ele><time>2026-05-03T08:26:05.756Z</time></trkpt><trkpt lat="44.4488183" lon="10.83405"><ele>329.0</ele><time>2026-05-03T08:26:07.756Z</time></trkpt><trkpt lat="44.4487167" lon="10.8340733"><ele>329.0</ele><time>2026-05-03T08:26:09.755Z</time></trkpt><trkpt lat="44.4486283" lon="10.8340133"><ele>329.1666666666667</ele><time>2026-05-03T08:26:11.756Z</time></trkpt><trkpt lat="44.4485717" lon="10.8339367"><ele>329.33333333333337</ele><time>2026-05-03T08:26:12.755Z</time></trkpt><trkpt lat="44.448515" lon="10.8338533"><ele>329.5</ele><time>2026-05-03T08:26:13.756Z</time></trkpt><trkpt lat="44.448455" lon="10.8337833"><ele>329.6666666666667</ele><time>2026-05-03T08:26:14.756Z</time></trkpt><trkpt lat="44.4483817" lon="10.8337383"><ele>329.8333333333333</ele><time>2026-05-03T08:26:15.756Z</time></trkpt><trkpt lat="44.4483017" lon="10.8337067"><ele>330.0</ele><time>2026-05-03T08:26:16.756Z</time></trkpt><trkpt lat="44.4482133" lon="10.83367"><ele>330.0</ele><time>2026-05-03T08:26:17.756Z</time></trkpt><trkpt lat="44.4481333" lon="10.8336333"><ele>330.0</ele><time>2026-05-03T08:26:18.756Z</time></trkpt><trkpt lat="44.4480733" lon="10.8335717"><ele>330.0</ele><time>2026-05-03T08:26:19.756Z</time></trkpt><trkpt lat="44.4480117" lon="10.8334917"><ele>330.0</ele><time>2026-05-03T08:26:20.755Z</time></trkpt><trkpt lat="44.4479583" lon="10.8334133"><ele>330.0</ele><time>2026-05-03T08:26:21.756Z</time></trkpt><trkpt lat="44.447905" lon="10.8333533"><ele>330.0</ele><time>2026-05-03T08:26:22.756Z</time></trkpt><trkpt lat="44.447845" lon="10.8333017"><ele>332.0</ele><time>2026-05-03T08:26:23.756Z</time></trkpt><trkpt lat="44.447765" lon="10.8332633"><ele>334.0</ele><time>2026-05-03T08:26:24.755Z</time></trkpt><trkpt lat="44.447675" lon="10.8332383"><ele>336.0</ele><time>2026-05-03T08:26:25.756Z</time></trkpt><trkpt lat="44.4475667" lon="10.8332183"><ele>338.0</ele><time>2026-05-03T08:26:26.756Z</time></trkpt><trkpt lat="44.4474483" lon="10.8331867"><ele>340.0</ele><time>2026-05-03T08:26:27.755Z</time></trkpt><trkpt lat="44.4473267" lon="10.8331467"><ele>340.0</ele><time>2026-05-03T08:26:28.756Z</time></trkpt><trkpt lat="44.4472017" lon="10.8331133"><ele>340.0</ele><time>2026-05-03T08:26:29.755Z</time></trkpt><trkpt lat="44.4470867" lon="10.83309"><ele>340.0</ele><time>2026-05-03T08:26:30.756Z</time></trkpt><trkpt lat="44.4469817" lon="10.833065"><ele>340.0</ele><time>2026-05-03T08:26:31.756Z</time></trkpt><trkpt lat="44.4468667" lon="10.833015"><ele>340.4</ele><time>2026-05-03T08:26:32.756Z</time></trkpt><trkpt lat="44.4467483" lon="10.8329767"><ele>340.8</ele><time>2026-05-03T08:26:33.756Z</time></trkpt><trkpt lat="44.4466483" lon="10.8329567"><ele>341.20000000000005</ele><time>2026-05-03T08:26:34.756Z</time></trkpt><trkpt lat="44.446555" lon="10.8329583"><ele>341.6</ele><time>2026-05-03T08:26:35.756Z</time></trkpt><trkpt lat="44.4464583" lon="10.8329883"><ele>342.0</ele><time>2026-05-03T08:26:36.756Z</time></trkpt><trkpt lat="44.4463767" lon="10.8330233"><ele>342.0</ele><time>2026-05-03T08:26:37.756Z</time></trkpt><trkpt lat="44.4462967" lon="10.8330633"><ele>342.0</ele><time>2026-05-03T08:26:38.755Z</time></trkpt><trkpt lat="44.44622" lon="10.8331"><ele>342.0</ele><time>2026-05-03T08:26:39.756Z</time></trkpt><trkpt lat="44.44616" lon="10.8331283"><ele>342.0</ele><time>2026-05-03T08:26:40.756Z</time></trkpt><trkpt lat="44.446065" lon="10.8331717"><ele>342.0</ele><time>2026-05-03T08:26:42.755Z</time></trkpt><trkpt lat="44.44599" lon="10.8332117"><ele>342.0</ele><time>2026-05-03T08:26:44.756Z</time></trkpt><trkpt lat="44.44591" lon="10.8333267"><ele>341.3333333333333</ele><time>2026-05-03T08:35:49.754Z</time></trkpt><trkpt lat="44.44586" lon="10.833405"><ele>340.6666666666667</ele><time>2026-05-03T08:35:50.753Z</time></trkpt><trkpt lat="44.4458" lon="10.8334983"><ele>340.0</ele><time>2026-05-03T08:35:51.753Z</time></trkpt><trkpt lat="44.44574" lon="10.8335983"><ele>339.33333333333337</ele><time>2026-05-03T08:35:52.754Z</time></trkpt><trkpt lat="44.4456783" lon="10.8337017"><ele>338.6666666666667</ele><time>2026-05-03T08:35:53.754Z</time></trkpt><trkpt lat="44.4456267" lon="10.833805"><ele>338.0</ele><time>2026-05-03T08:35:54.754Z</time></trkpt><trkpt lat="44.4455783" lon="10.8338983"><ele>338.0</ele><time>2026-05-03T08:35:55.754Z</time></trkpt><trkpt lat="44.44553" lon="10.8339817"><ele>338.0</ele><time>2026-05-03T08:35:56.754Z</time></trkpt><trkpt lat="44.4454933" lon="10.8340567"><ele>338.0</ele><time>2026-05-03T08:35:57.754Z</time></trkpt><trkpt lat="44.4454233" lon="10.834195"><ele>338.0</ele><time>2026-05-03T08:35:59.754Z</time></trkpt><trkpt lat="44.4453717" lon="10.8343067"><ele>338.0</ele><time>2026-05-03T08:36:01.754Z</time></trkpt><trkpt lat="44.445335" lon="10.8344"><ele>338.0</ele><time>2026-05-03T08:36:03.754Z</time></trkpt><trkpt lat="44.4452717" lon="10.8345117"><ele>337.79999999999995</ele><time>2026-05-03T08:36:05.753Z</time></trkpt><trkpt lat="44.4452083" lon="10.83457"><ele>337.6</ele><time>2026-05-03T08:36:06.754Z</time></trkpt><trkpt lat="44.44512" lon="10.8346217"><ele>337.4</ele><time>2026-05-03T08:36:07.754Z</time></trkpt><trkpt lat="44.4450217" lon="10.8346817"><ele>337.20000000000005</ele><time>2026-05-03T08:36:08.754Z</time></trkpt><trkpt lat="44.4449267" lon="10.8347483"><ele>337.0</ele><time>2026-05-03T08:36:09.753Z</time></trkpt><trkpt lat="44.4448217" lon="10.8348283"><ele>337.0</ele><time>2026-05-03T08:36:10.754Z</time></trkpt><trkpt lat="44.444715" lon="10.8348933"><ele>337.0</ele><time>2026-05-03T08:36:11.753Z</time></trkpt><trkpt lat="44.4446117" lon="10.8349667"><ele>337.0</ele><time>2026-05-03T08:36:12.753Z</time></trkpt><trkpt lat="44.4443783" lon="10.8350967"><ele>339.25</ele><time>2026-05-03T08:36:14.754Z</time></trkpt><trkpt lat="44.44426" lon="10.835155"><ele>341.5</ele><time>2026-05-03T08:36:15.754Z</time></trkpt><trkpt lat="44.444135" lon="10.8352033"><ele>343.75</ele><time>2026-05-03T08:36:16.754Z</time></trkpt><trkpt lat="44.4440017" lon="10.83525"><ele>346.0</ele><time>2026-05-03T08:36:17.754Z</time></trkpt><trkpt lat="44.44386" lon="10.8352867"><ele>347.3333333333333</ele><time>2026-05-03T08:36:18.754Z</time></trkpt><trkpt lat="44.4437133" lon="10.835295"><ele>348.6666666666667</ele><time>2026-05-03T08:36:19.754Z</time></trkpt><trkpt lat="44.4435667" lon="10.8352933"><ele>350.0</ele><time>2026-05-03T08:36:20.754Z</time></trkpt><trkpt lat="44.4434083" lon="10.8352683"><ele>350.0</ele><time>2026-05-03T08:36:21.754Z</time></trkpt><trkpt lat="44.4432483" lon="10.83523"><ele>350.0</ele><time>2026-05-03T08:36:22.754Z</time></trkpt><trkpt lat="44.4430833" lon="10.83519"><ele>350.0</ele><time>2026-05-03T08:36:23.754Z</time></trkpt><trkpt lat="44.4429267" lon="10.8351283"><ele>349.6666666666667</ele><time>2026-05-03T08:36:24.754Z</time></trkpt><trkpt lat="44.44276" lon="10.83506"><ele>349.3333333333333</ele><time>2026-05-03T08:36:25.753Z</time></trkpt><trkpt lat="44.4425883" lon="10.8349867"><ele>349.0</ele><time>2026-05-03T08:36:26.754Z</time></trkpt><trkpt lat="44.4424133" lon="10.83492"><ele>349.0</ele><time>2026-05-03T08:36:27.754Z</time></trkpt><trkpt lat="44.44224" lon="10.8348517"><ele>349.0</ele><time>2026-05-03T08:36:28.754Z</time></trkpt><trkpt lat="44.4420667" lon="10.8347867"><ele>349.0</ele><time>2026-05-03T08:36:29.754Z</time></trkpt><trkpt lat="44.4418967" lon="10.8347183"><ele>350.3333333333333</ele><time>2026-05-03T08:36:30.753Z</time></trkpt><trkpt lat="44.4417217" lon="10.83465"><ele>351.6666666666667</ele><time>2026-05-03T08:36:31.754Z</time></trkpt><trkpt lat="44.441555" lon="10.83458"><ele>353.0</ele><time>2026-05-03T08:36:32.754Z</time></trkpt><trkpt lat="44.4413817" lon="10.8345167"><ele>354.6666666666667</ele><time>2026-05-03T08:36:33.753Z</time></trkpt><trkpt lat="44.44121" lon="10.834455"><ele>356.3333333333333</ele><time>2026-05-03T08:36:34.754Z</time></trkpt><trkpt lat="44.4410383" lon="10.8343883"><ele>358.0</ele><time>2026-05-03T08:36:35.754Z</time></trkpt><trkpt lat="44.4408667" lon="10.8343283"><ele>358.66666666666663</ele><time>2026-05-03T08:36:36.754Z</time></trkpt><trkpt lat="44.4407017" lon="10.83426"><ele>359.3333333333333</ele><time>2026-05-03T08:36:37.754Z</time></trkpt><trkpt lat="44.4405367" lon="10.8341917"><ele>360.0</ele><time>2026-05-03T08:36:38.754Z</time></trkpt><trkpt lat="44.44036" lon="10.8341383"><ele>360.0</ele><time>2026-05-03T08:36:39.754Z</time></trkpt><trkpt lat="44.4401867" lon="10.834075"><ele>360.0</ele><time>2026-05-03T08:36:40.754Z</time></trkpt><trkpt lat="44.4400183" lon="10.83402"><ele>360.0</ele><time>2026-05-03T08:36:41.753Z</time></trkpt><trkpt lat="44.4398533" lon="10.8339617"><ele>360.0</ele><time>2026-05-03T08:36:42.753Z</time></trkpt><trkpt lat="44.4396883" lon="10.8338967"><ele>360.0</ele><time>2026-05-03T08:36:43.754Z</time></trkpt><trkpt lat="44.4395217" lon="10.833835"><ele>360.0</ele><time>2026-05-03T08:36:44.754Z</time></trkpt><trkpt lat="44.4391833" lon="10.83372"><ele>361.3333333333333</ele><time>2026-05-03T08:36:46.754Z</time></trkpt><trkpt lat="44.4390167" lon="10.833665"><ele>362.66666666666663</ele><time>2026-05-03T08:36:47.754Z</time></trkpt><trkpt lat="44.43885" lon="10.8336117"><ele>364.0</ele><time>2026-05-03T08:36:48.754Z</time></trkpt><trkpt lat="44.4386817" lon="10.8335483"><ele>365.66666666666663</ele><time>2026-05-03T08:36:49.754Z</time></trkpt><trkpt lat="44.4385183" lon="10.8334933"><ele>367.3333333333333</ele><time>2026-05-03T08:36:50.754Z</time></trkpt><trkpt lat="44.4383467" lon="10.833435"><ele>369.0</ele><time>2026-05-03T08:36:51.753Z</time></trkpt><trkpt lat="44.4381833" lon="10.83337"><ele>369.0</ele><time>2026-05-03T08:36:52.754Z</time></trkpt><trkpt lat="44.4380167" lon="10.8333083"><ele>369.0</ele><time>2026-05-03T08:36:53.754Z</time></trkpt><trkpt lat="44.437845" lon="10.8332567"><ele>369.0</ele><time>2026-05-03T08:36:54.753Z</time></trkpt><trkpt lat="44.4376733" lon="10.83319"><ele>371.0</ele><time>2026-05-03T08:36:55.754Z</time></trkpt><trkpt lat="44.4374967" lon="10.8331333"><ele>373.0</ele><time>2026-05-03T08:36:56.754Z</time></trkpt><trkpt lat="44.4373217" lon="10.833095"><ele>375.0</ele><time>2026-05-03T08:36:57.754Z</time></trkpt><trkpt lat="44.43715" lon="10.8330683"><ele>377.6666666666667</ele><time>2026-05-03T08:36:58.753Z</time></trkpt><trkpt lat="44.436975" lon="10.83305"><ele>380.33333333333337</ele><time>2026-05-03T08:36:59.754Z</time></trkpt><trkpt lat="44.4367983" lon="10.833045"><ele>383.0</ele><time>2026-05-03T08:37:00.754Z</time></trkpt><trkpt lat="44.4366267" lon="10.8330517"><ele>383.0</ele><time>2026-05-03T08:37:01.754Z</time></trkpt><trkpt lat="44.4364567" lon="10.8330633"><ele>383.0</ele><time>2026-05-03T08:37:02.754Z</time></trkpt><trkpt lat="44.4362917" lon="10.833075"><ele>383.0</ele><time>2026-05-03T08:37:03.754Z</time></trkpt><trkpt lat="44.4361283" lon="10.833085"><ele>384.6666666666667</ele><time>2026-05-03T08:37:04.753Z</time></trkpt><trkpt lat="44.4359567" lon="10.833095"><ele>386.33333333333337</ele><time>2026-05-03T08:37:05.753Z</time></trkpt><trkpt lat="44.4357933" lon="10.83311"><ele>388.0</ele><time>2026-05-03T08:37:06.754Z</time></trkpt><trkpt lat="44.4356333" lon="10.8331333"><ele>389.33333333333337</ele><time>2026-05-03T08:37:07.754Z</time></trkpt><trkpt lat="44.4354667" lon="10.8331567"><ele>390.66666666666663</ele><time>2026-05-03T08:37:08.754Z</time></trkpt><trkpt lat="44.4353" lon="10.8331883"><ele>392.0</ele><time>2026-05-03T08:37:09.754Z</time></trkpt><trkpt lat="44.435135" lon="10.8332383"><ele>392.0</ele><time>2026-05-03T08:37:10.754Z</time></trkpt><trkpt lat="44.43497" lon="10.833295"><ele>392.0</ele><time>2026-05-03T08:37:11.754Z</time></trkpt><trkpt lat="44.4348083" lon="10.8333683"><ele>392.0</ele><time>2026-05-03T08:37:12.753Z</time></trkpt><trkpt lat="44.4346483" lon="10.8334683"><ele>393.3333333333333</ele><time>2026-05-03T08:37:13.754Z</time></trkpt><trkpt lat="44.434495" lon="10.8335767"><ele>394.66666666666663</ele><time>2026-05-03T08:37:14.754Z</time></trkpt><trkpt lat="44.434345" lon="10.8337033"><ele>396.0</ele><time>2026-05-03T08:37:15.754Z</time></trkpt><trkpt lat="44.4342" lon="10.8338483"><ele>396.0</ele><time>2026-05-03T08:37:16.754Z</time></trkpt><trkpt lat="44.4340467" lon="10.8339783"><ele>396.0</ele><time>2026-05-03T08:37:17.754Z</time></trkpt><trkpt lat="44.4337967" lon="10.83432"><ele>399.66666666666663</ele><time>2026-05-03T08:37:19.754Z</time></trkpt><trkpt lat="44.4336733" lon="10.834505"><ele>403.3333333333333</ele><time>2026-05-03T08:37:20.754Z</time></trkpt><trkpt lat="44.4335483" lon="10.8346883"><ele>407.0</ele><time>2026-05-03T08:37:21.754Z</time></trkpt><trkpt lat="44.43342" lon="10.834865"><ele>407.0</ele><time>2026-05-03T08:37:22.754Z</time></trkpt><trkpt lat="44.4332933" lon="10.8350483"><ele>407.0</ele><time>2026-05-03T08:37:23.754Z</time></trkpt><trkpt lat="44.433165" lon="10.835215"><ele>407.0</ele><time>2026-05-03T08:37:24.754Z</time></trkpt><trkpt lat="44.43304" lon="10.8353867"><ele>410.3333333333333</ele><time>2026-05-03T08:37:25.754Z</time></trkpt><trkpt lat="44.43291" lon="10.8355533"><ele>413.66666666666663</ele><time>2026-05-03T08:37:26.754Z</time></trkpt><trkpt lat="44.4327767" lon="10.8357217"><ele>417.0</ele><time>2026-05-03T08:37:27.753Z</time></trkpt><trkpt lat="44.4326483" lon="10.83589"><ele>414.0</ele><time>2026-05-03T08:37:28.754Z</time></trkpt><trkpt lat="44.4323817" lon="10.8362083"><ele>411.0</ele><time>2026-05-03T08:37:30.754Z</time></trkpt><trkpt lat="44.4322433" lon="10.836355"><ele>413.33333333333337</ele><time>2026-05-03T08:37:31.754Z</time></trkpt><trkpt lat="44.4321117" lon="10.8365083"><ele>415.6666666666667</ele><time>2026-05-03T08:37:32.754Z</time></trkpt><trkpt lat="44.4319767" lon="10.8366617"><ele>418.0</ele><time>2026-05-03T08:37:33.754Z</time></trkpt><trkpt lat="44.4317133" lon="10.8369817"><ele>418.0</ele><time>2026-05-03T08:37:35.754Z</time></trkpt><trkpt lat="44.4315783" lon="10.8371367"><ele>418.0</ele><time>2026-05-03T08:37:36.753Z</time></trkpt><trkpt lat="44.4314433" lon="10.8372833"><ele>418.0</ele><time>2026-05-03T08:37:37.753Z</time></trkpt><trkpt lat="44.4313117" lon="10.83743"><ele>421.0</ele><time>2026-05-03T08:37:38.754Z</time></trkpt><trkpt lat="44.43119" lon="10.8375733"><ele>424.0</ele><time>2026-05-03T08:37:39.753Z</time></trkpt><trkpt lat="44.43097" lon="10.8378067"><ele>427.0</ele><time>2026-05-03T08:37:41.754Z</time></trkpt><trkpt lat="44.4308917" lon="10.8378867"><ele>427.0</ele><time>2026-05-03T08:37:42.754Z</time></trkpt><trkpt lat="44.4308267" lon="10.8379467"><ele>427.00000000000006</ele><time>2026-05-03T08:37:43.754Z</time></trkpt><trkpt lat="44.430745" lon="10.83794"><ele>427.00000000000006</ele><time>2026-05-03T08:37:45.754Z</time></trkpt><trkpt lat="44.43069" lon="10.83777"><ele>427.0</ele><time>2026-05-03T08:37:47.753Z</time></trkpt><trkpt lat="44.4306783" lon="10.837635"><ele>427.0</ele><time>2026-05-03T08:37:48.754Z</time></trkpt><trkpt lat="44.4306917" lon="10.837495"><ele>427.40000000000003</ele><time>2026-05-03T08:37:49.754Z</time></trkpt><trkpt lat="44.4307367" lon="10.8373833"><ele>427.80000000000007</ele><time>2026-05-03T08:37:50.754Z</time></trkpt><trkpt lat="44.4308083" lon="10.8372967"><ele>428.2</ele><time>2026-05-03T08:37:51.754Z</time></trkpt><trkpt lat="44.4308983" lon="10.8372367"><ele>428.6</ele><time>2026-05-03T08:37:52.753Z</time></trkpt><trkpt lat="44.43101" lon="10.8372267"><ele>429.0</ele><time>2026-05-03T08:37:53.754Z</time></trkpt><trkpt lat="44.431125" lon="10.8372317"><ele>429.0</ele><time>2026-05-03T08:37:54.754Z</time></trkpt><trkpt lat="44.4312317" lon="10.8372083"><ele>429.0</ele><time>2026-05-03T08:37:55.754Z</time></trkpt><trkpt lat="44.431325" lon="10.8371433"><ele>429.0</ele><time>2026-05-03T08:37:56.753Z</time></trkpt><trkpt lat="44.4313917" lon="10.8370367"><ele>429.0</ele><time>2026-05-03T08:37:57.754Z</time></trkpt><trkpt lat="44.431445" lon="10.836915"><ele>429.0</ele><time>2026-05-03T08:37:58.754Z</time></trkpt><trkpt lat="44.431495" lon="10.8367817"><ele>428.0</ele><time>2026-05-03T08:37:59.754Z</time></trkpt><trkpt lat="44.43153" lon="10.8366433"><ele>427.0</ele><time>2026-05-03T08:38:00.754Z</time></trkpt><trkpt lat="44.4315533" lon="10.8364917"><ele>426.0</ele><time>2026-05-03T08:38:01.754Z</time></trkpt><trkpt lat="44.4315667" lon="10.8363483"><ele>425.0</ele><time>2026-05-03T08:38:02.753Z</time></trkpt><trkpt lat="44.4315617" lon="10.8362"><ele>424.0</ele><time>2026-05-03T08:38:03.754Z</time></trkpt><trkpt lat="44.4315283" lon="10.8360617"><ele>426.79999999999995</ele><time>2026-05-03T08:38:04.754Z</time></trkpt><trkpt lat="44.431485" lon="10.83593"><ele>429.59999999999997</ele><time>2026-05-03T08:38:05.753Z</time></trkpt><trkpt lat="44.4314683" lon="10.835785"><ele>432.4</ele><time>2026-05-03T08:38:06.754Z</time></trkpt><trkpt lat="44.4314883" lon="10.835645"><ele>435.2</ele><time>2026-05-03T08:38:07.754Z</time></trkpt><trkpt lat="44.4315483" lon="10.83552"><ele>438.0</ele><time>2026-05-03T08:38:08.754Z</time></trkpt><trkpt lat="44.4316367" lon="10.83543"><ele>438.0</ele><time>2026-05-03T08:38:09.754Z</time></trkpt><trkpt lat="44.43174" lon="10.835375"><ele>437.99999999999994</ele><time>2026-05-03T08:38:10.754Z</time></trkpt><trkpt lat="44.4318383" lon="10.8353467"><ele>437.99999999999994</ele><time>2026-05-03T08:38:11.754Z</time></trkpt><trkpt lat="44.431925" lon="10.8353183"><ele>438.0</ele><time>2026-05-03T08:38:12.754Z</time></trkpt><trkpt lat="44.431995" lon="10.8352633"><ele>438.0</ele><time>2026-05-03T08:38:13.754Z</time></trkpt><trkpt lat="44.4320433" lon="10.8351683"><ele>441.0</ele><time>2026-05-03T08:38:14.754Z</time></trkpt><trkpt lat="44.43206" lon="10.8350333"><ele>443.99999999999994</ele><time>2026-05-03T08:38:15.754Z</time></trkpt><trkpt lat="44.4320567" lon="10.8348867"><ele>446.99999999999994</ele><time>2026-05-03T08:38:16.754Z</time></trkpt><trkpt lat="44.43206" lon="10.8347217"><ele>450.0</ele><time>2026-05-03T08:38:17.753Z</time></trkpt><trkpt lat="44.4320667" lon="10.8345517"><ele>453.0</ele><time>2026-05-03T08:38:18.753Z</time></trkpt><trkpt lat="44.43208" lon="10.834385"><ele>454.25</ele><time>2026-05-03T08:38:19.753Z</time></trkpt><trkpt lat="44.4320967" lon="10.8342133"><ele>455.5</ele><time>2026-05-03T08:38:20.753Z</time></trkpt><trkpt lat="44.4321067" lon="10.8340483"><ele>456.75</ele><time>2026-05-03T08:38:21.753Z</time></trkpt><trkpt lat="44.4321167" lon="10.833885"><ele>458.0</ele><time>2026-05-03T08:38:22.754Z</time></trkpt><trkpt lat="44.4321333" lon="10.8337167"><ele>458.0</ele><time>2026-05-03T08:38:23.754Z</time></trkpt><trkpt lat="44.432145" lon="10.8335333"><ele>458.0</ele><time>2026-05-03T08:38:24.754Z</time></trkpt><trkpt lat="44.4321533" lon="10.8333567"><ele>458.0</ele><time>2026-05-03T08:38:25.754Z</time></trkpt><trkpt lat="44.4321383" lon="10.8331767"><ele>458.0</ele><time>2026-05-03T08:38:26.753Z</time></trkpt><trkpt lat="44.4320983" lon="10.8330033"><ele>458.0</ele><time>2026-05-03T08:38:27.754Z</time></trkpt><trkpt lat="44.43205" lon="10.8328267"><ele>458.0</ele><time>2026-05-03T08:38:28.754Z</time></trkpt><trkpt lat="44.4320033" lon="10.8326533"><ele>458.0</ele><time>2026-05-03T08:38:29.754Z</time></trkpt><trkpt lat="44.4319517" lon="10.8324683"><ele>458.0</ele><time>2026-05-03T08:38:30.754Z</time></trkpt><trkpt lat="44.4319017" lon="10.832295"><ele>457.75</ele><time>2026-05-03T08:38:31.754Z</time></trkpt><trkpt lat="44.43185" lon="10.8321233"><ele>457.5</ele><time>2026-05-03T08:38:32.754Z</time></trkpt><trkpt lat="44.4318017" lon="10.8319567"><ele>457.25</ele><time>2026-05-03T08:38:33.754Z</time></trkpt><trkpt lat="44.43176" lon="10.8317883"><ele>457.0</ele><time>2026-05-03T08:38:34.754Z</time></trkpt><trkpt lat="44.4316983" lon="10.831645"><ele>454.75</ele><time>2026-05-03T08:38:35.754Z</time></trkpt><trkpt lat="44.4316417" lon="10.83151"><ele>452.5</ele><time>2026-05-03T08:38:36.754Z</time></trkpt><trkpt lat="44.4315717" lon="10.83138"><ele>450.25</ele><time>2026-05-03T08:38:37.754Z</time></trkpt><trkpt lat="44.4314883" lon="10.831255"><ele>448.0</ele><time>2026-05-03T08:38:38.754Z</time></trkpt><trkpt lat="44.4314" lon="10.831135"><ele>448.0</ele><time>2026-05-03T08:38:39.754Z</time></trkpt><trkpt lat="44.43131" lon="10.8310233"><ele>447.99999999999994</ele><time>2026-05-03T08:38:40.754Z</time></trkpt><trkpt lat="44.4312583" lon="10.8308867"><ele>447.99999999999994</ele><time>2026-05-03T08:38:41.753Z</time></trkpt><trkpt lat="44.43123" lon="10.8307483"><ele>448.0</ele><time>2026-05-03T08:38:42.754Z</time></trkpt><trkpt lat="44.4312267" lon="10.830605"><ele>448.0</ele><time>2026-05-03T08:38:43.754Z</time></trkpt><trkpt lat="44.4312733" lon="10.8304717"><ele>448.25</ele><time>2026-05-03T08:38:44.754Z</time></trkpt><trkpt lat="44.4313283" lon="10.830335"><ele>448.5</ele><time>2026-05-03T08:38:45.753Z</time></trkpt><trkpt lat="44.4313917" lon="10.83019"><ele>448.75</ele><time>2026-05-03T08:38:46.754Z</time></trkpt><trkpt lat="44.4314633" lon="10.8300467"><ele>449.0</ele><time>2026-05-03T08:38:47.754Z</time></trkpt><trkpt lat="44.4315467" lon="10.829905"><ele>449.0</ele><time>2026-05-03T08:38:48.754Z</time></trkpt><trkpt lat="44.4316367" lon="10.8297683"><ele>449.0</ele><time>2026-05-03T08:38:49.754Z</time></trkpt><trkpt lat="44.431735" lon="10.8296317"><ele>449.0</ele><time>2026-05-03T08:38:50.754Z</time></trkpt><trkpt lat="44.43183" lon="10.8294917"><ele>449.0</ele><time>2026-05-03T08:38:51.753Z</time></trkpt><trkpt lat="44.4319233" lon="10.8293633"><ele>449.75</ele><time>2026-05-03T08:38:52.754Z</time></trkpt><trkpt lat="44.4320167" lon="10.8292383"><ele>450.5</ele><time>2026-05-03T08:38:53.754Z</time></trkpt><trkpt lat="44.4320983" lon="10.82912"><ele>451.25</ele><time>2026-05-03T08:38:54.753Z</time></trkpt><trkpt lat="44.43218" lon="10.8290167"><ele>452.0</ele><time>2026-05-03T08:38:55.753Z</time></trkpt><trkpt lat="44.4322633" lon="10.8289133"><ele>452.0</ele><time>2026-05-03T08:38:56.754Z</time></trkpt><trkpt lat="44.4323233" lon="10.828795"><ele>452.00000000000006</ele><time>2026-05-03T08:38:57.754Z</time></trkpt><trkpt lat="44.43237" lon="10.8286667"><ele>452.00000000000006</ele><time>2026-05-03T08:38:58.754Z</time></trkpt><trkpt lat="44.4324" lon="10.8285167"><ele>452.0</ele><time>2026-05-03T08:38:59.753Z</time></trkpt><trkpt lat="44.432425" lon="10.8283683"><ele>452.0</ele><time>2026-05-03T08:39:00.753Z</time></trkpt><trkpt lat="44.4324517" lon="10.8282083"><ele>453.75</ele><time>2026-05-03T08:39:01.754Z</time></trkpt><trkpt lat="44.4324717" lon="10.8280417"><ele>455.5</ele><time>2026-05-03T08:39:02.754Z</time></trkpt><trkpt lat="44.4325017" lon="10.827885"><ele>457.25</ele><time>2026-05-03T08:39:03.754Z</time></trkpt><trkpt lat="44.4325283" lon="10.8277183"><ele>459.0</ele><time>2026-05-03T08:39:04.754Z</time></trkpt><trkpt lat="44.4325583" lon="10.8275467"><ele>463.0</ele><time>2026-05-03T08:39:05.754Z</time></trkpt><trkpt lat="44.4325867" lon="10.8273817"><ele>467.0</ele><time>2026-05-03T08:39:06.754Z</time></trkpt><trkpt lat="44.43263" lon="10.8272217"><ele>471.0</ele><time>2026-05-03T08:39:07.754Z</time></trkpt><trkpt lat="44.4326817" lon="10.8270583"><ele>475.0</ele><time>2026-05-03T08:39:08.753Z</time></trkpt><trkpt lat="44.43273" lon="10.8268967"><ele>479.5</ele><time>2026-05-03T08:39:09.754Z</time></trkpt><trkpt lat="44.4327783" lon="10.8267383"><ele>484.0</ele><time>2026-05-03T08:39:10.753Z</time></trkpt><trkpt lat="44.4328217" lon="10.826575"><ele>488.5</ele><time>2026-05-03T08:39:11.754Z</time></trkpt><trkpt lat="44.432865" lon="10.8264117"><ele>493.0</ele><time>2026-05-03T08:39:12.754Z</time></trkpt><trkpt lat="44.4329067" lon="10.8262467"><ele>490.25</ele><time>2026-05-03T08:39:13.754Z</time></trkpt><trkpt lat="44.433015" lon="10.8259567"><ele>487.5</ele><time>2026-05-03T08:39:15.753Z</time></trkpt><trkpt lat="44.4330967" lon="10.8258717"><ele>484.75</ele><time>2026-05-03T08:39:16.753Z</time></trkpt><trkpt lat="44.43319" lon="10.825825"><ele>482.0</ele><time>2026-05-03T08:39:17.753Z</time></trkpt><trkpt lat="44.4333017" lon="10.8258067"><ele>482.0</ele><time>2026-05-03T08:39:18.752Z</time></trkpt><trkpt lat="44.4334233" lon="10.8257917"><ele>482.0</ele><time>2026-05-03T08:39:19.753Z</time></trkpt><trkpt lat="44.4335517" lon="10.8257683"><ele>482.0</ele><time>2026-05-03T08:39:20.753Z</time></trkpt><trkpt lat="44.433675" lon="10.8257167"><ele>482.0</ele><time>2026-05-03T08:39:21.753Z</time></trkpt><trkpt lat="44.4337917" lon="10.8256317"><ele>481.0</ele><time>2026-05-03T08:39:22.753Z</time></trkpt><trkpt lat="44.433895" lon="10.82552"><ele>480.0</ele><time>2026-05-03T08:39:23.753Z</time></trkpt><trkpt lat="44.4339933" lon="10.8253933"><ele>479.0</ele><time>2026-05-03T08:39:24.753Z</time></trkpt><trkpt lat="44.4340967" lon="10.8252583"><ele>478.0</ele><time>2026-05-03T08:39:25.753Z</time></trkpt><trkpt lat="44.4342" lon="10.82514"><ele>482.4</ele><time>2026-05-03T08:39:26.753Z</time></trkpt><trkpt lat="44.4343017" lon="10.8250517"><ele>486.79999999999995</ele><time>2026-05-03T08:39:27.753Z</time></trkpt><trkpt lat="44.4343983" lon="10.825005"><ele>491.2</ele><time>2026-05-03T08:39:28.752Z</time></trkpt><trkpt lat="44.4345033" lon="10.8249933"><ele>495.6</ele><time>2026-05-03T08:39:29.753Z</time></trkpt><trkpt lat="44.4346067" lon="10.8250417"><ele>500.0</ele><time>2026-05-03T08:39:30.753Z</time></trkpt><trkpt lat="44.4347033" lon="10.8251117"><ele>495.5</ele><time>2026-05-03T08:39:31.753Z</time></trkpt><trkpt lat="44.434795" lon="10.8252183"><ele>491.0</ele><time>2026-05-03T08:39:32.753Z</time></trkpt><trkpt lat="44.4348967" lon="10.8253133"><ele>486.5</ele><time>2026-05-03T08:39:33.753Z</time></trkpt><trkpt lat="44.435015" lon="10.8253767"><ele>482.0</ele><time>2026-05-03T08:39:34.752Z</time></trkpt><trkpt lat="44.435135" lon="10.8254167"><ele>482.0</ele><time>2026-05-03T08:39:35.753Z</time></trkpt><trkpt lat="44.4352533" lon="10.8254317"><ele>482.0</ele><time>2026-05-03T08:39:36.753Z</time></trkpt><trkpt lat="44.43536" lon="10.8254217"><ele>482.0</ele><time>2026-05-03T08:39:37.752Z</time></trkpt><trkpt lat="44.4354567" lon="10.8253567"><ele>482.0</ele><time>2026-05-03T08:39:38.753Z</time></trkpt><trkpt lat="44.435555" lon="10.8252667"><ele>482.5</ele><time>2026-05-03T08:39:39.753Z</time></trkpt><trkpt lat="44.4356583" lon="10.8251817"><ele>483.0</ele><time>2026-05-03T08:39:40.753Z</time></trkpt><trkpt lat="44.43577" lon="10.8251183"><ele>483.5</ele><time>2026-05-03T08:39:41.753Z</time></trkpt><trkpt lat="44.43589" lon="10.8250683"><ele>484.0</ele><time>2026-05-03T08:39:42.753Z</time></trkpt><trkpt lat="44.4360183" lon="10.8250083"><ele>486.5</ele><time>2026-05-03T08:39:43.752Z</time></trkpt><trkpt lat="44.4361483" lon="10.824945"><ele>489.0</ele><time>2026-05-03T08:39:44.753Z</time></trkpt><trkpt lat="44.43627" lon="10.8248783"><ele>491.5</ele><time>2026-05-03T08:39:45.753Z</time></trkpt><trkpt lat="44.4363817" lon="10.8247883"><ele>494.0</ele><time>2026-05-03T08:39:46.753Z</time></trkpt><trkpt lat="44.4365" lon="10.8246917"><ele>494.0</ele><time>2026-05-03T08:39:47.753Z</time></trkpt><trkpt lat="44.43662" lon="10.8246033"><ele>494.0</ele><time>2026-05-03T08:39:48.753Z</time></trkpt><trkpt lat="44.4367433" lon="10.824525"><ele>494.0</ele><time>2026-05-03T08:39:49.753Z</time></trkpt><trkpt lat="44.4368617" lon="10.824445"><ele>494.0</ele><time>2026-05-03T08:39:50.753Z</time></trkpt><trkpt lat="44.436975" lon="10.8243467"><ele>498.0</ele><time>2026-05-03T08:39:51.753Z</time></trkpt><trkpt lat="44.4370833" lon="10.82423"><ele>502.0</ele><time>2026-05-03T08:39:52.752Z</time></trkpt><trkpt lat="44.43719" lon="10.8241167"><ele>506.0</ele><time>2026-05-03T08:39:53.753Z</time></trkpt><trkpt lat="44.43729" lon="10.824045"><ele>510.0</ele><time>2026-05-03T08:39:54.753Z</time></trkpt><trkpt lat="44.437405" lon="10.8240133"><ele>510.0</ele><time>2026-05-03T08:39:55.752Z</time></trkpt><trkpt lat="44.437515" lon="10.8240033"><ele>510.0</ele><time>2026-05-03T08:39:56.753Z</time></trkpt><trkpt lat="44.4376317" lon="10.82402"><ele>510.0</ele><time>2026-05-03T08:39:57.753Z</time></trkpt><trkpt lat="44.4377567" lon="10.8240333"><ele>510.0</ele><time>2026-05-03T08:39:58.753Z</time></trkpt><trkpt lat="44.4378933" lon="10.8240467"><ele>510.0</ele><time>2026-05-03T08:39:59.753Z</time></trkpt><trkpt lat="44.4380333" lon="10.8240467"><ele>510.0</ele><time>2026-05-03T08:40:00.752Z</time></trkpt><trkpt lat="44.4381633" lon="10.8240417"><ele>510.0</ele><time>2026-05-03T08:40:01.753Z</time></trkpt><trkpt lat="44.4382667" lon="10.8240233"><ele>510.0</ele><time>2026-05-03T08:40:02.753Z</time></trkpt><trkpt lat="44.43835" lon="10.8239833"><ele>510.0</ele><time>2026-05-03T08:40:03.753Z</time></trkpt><trkpt lat="44.4384233" lon="10.8238967"><ele>510.0</ele><time>2026-05-03T08:40:04.752Z</time></trkpt><trkpt lat="44.4385033" lon="10.8237883"><ele>510.0</ele><time>2026-05-03T08:40:05.753Z</time></trkpt><trkpt lat="44.4385867" lon="10.8236633"><ele>510.0</ele><time>2026-05-03T08:40:06.753Z</time></trkpt><trkpt lat="44.43867" lon="10.8235283"><ele>512.5</ele><time>2026-05-03T08:40:07.753Z</time></trkpt><trkpt lat="44.43874" lon="10.8233933"><ele>515.0</ele><time>2026-05-03T08:40:08.753Z</time></trkpt><trkpt lat="44.438775" lon="10.823245"><ele>517.5</ele><time>2026-05-03T08:40:09.753Z</time></trkpt><trkpt lat="44.4387833" lon="10.8230867"><ele>520.0</ele><time>2026-05-03T08:40:10.753Z</time></trkpt><trkpt lat="44.438785" lon="10.822925"><ele>519.4</ele><time>2026-05-03T08:40:11.752Z</time></trkpt><trkpt lat="44.4388033" lon="10.82276"><ele>518.8</ele><time>2026-05-03T08:40:12.753Z</time></trkpt><trkpt lat="44.4388433" lon="10.8226117"><ele>518.2</ele><time>2026-05-03T08:40:13.753Z</time></trkpt><trkpt lat="44.438915" lon="10.822515"><ele>517.6</ele><time>2026-05-03T08:40:14.753Z</time></trkpt><trkpt lat="44.4389933" lon="10.822445"><ele>517.0</ele><time>2026-05-03T08:40:15.753Z</time></trkpt><trkpt lat="44.4390717" lon="10.8223817"><ele>517.0</ele><time>2026-05-03T08:40:16.753Z</time></trkpt><trkpt lat="44.4391333" lon="10.82232"><ele>517.0</ele><time>2026-05-03T08:40:17.753Z</time></trkpt><trkpt lat="44.4391933" lon="10.82226"><ele>517.0</ele><time>2026-05-03T08:40:18.753Z</time></trkpt><trkpt lat="44.4393117" lon="10.822175"><ele>517.0</ele><time>2026-05-03T08:40:20.753Z</time></trkpt><trkpt lat="44.4393817" lon="10.8221467"><ele>517.0</ele><time>2026-05-03T08:40:21.753Z</time></trkpt><trkpt lat="44.43946" lon="10.82211"><ele>517.0</ele><time>2026-05-03T08:40:22.753Z</time></trkpt><trkpt lat="44.439545" lon="10.8220767"><ele>517.0</ele><time>2026-05-03T08:40:23.753Z</time></trkpt><trkpt lat="44.4396167" lon="10.8220483"><ele>517.0</ele><time>2026-05-03T08:40:24.753Z</time></trkpt><trkpt lat="44.4397167" lon="10.82199"><ele>517.0</ele><time>2026-05-03T08:40:26.753Z</time></trkpt><trkpt lat="44.4397717" lon="10.82186"><ele>517.0</ele><time>2026-05-03T08:40:28.753Z</time></trkpt><trkpt lat="44.4397683" lon="10.8217417"><ele>517.0</ele><time>2026-05-03T08:40:29.753Z</time></trkpt><trkpt lat="44.4397383" lon="10.8216"><ele>517.8000000000001</ele><time>2026-05-03T08:40:30.753Z</time></trkpt><trkpt lat="44.4396917" lon="10.8214517"><ele>518.6</ele><time>2026-05-03T08:40:31.752Z</time></trkpt><trkpt lat="44.43964" lon="10.8213217"><ele>519.4000000000001</ele><time>2026-05-03T08:40:32.753Z</time></trkpt><trkpt lat="44.4395933" lon="10.8212083"><ele>520.2</ele><time>2026-05-03T08:40:33.753Z</time></trkpt><trkpt lat="44.439575" lon="10.8210983"><ele>521.0</ele><time>2026-05-03T08:40:34.753Z</time></trkpt><trkpt lat="44.4395733" lon="10.8209917"><ele>519.0</ele><time>2026-05-03T08:40:35.753Z</time></trkpt><trkpt lat="44.43962" lon="10.8208917"><ele>517.0</ele><time>2026-05-03T08:40:36.753Z</time></trkpt><trkpt lat="44.4396983" lon="10.8207967"><ele>515.0</ele><time>2026-05-03T08:40:37.753Z</time></trkpt><trkpt lat="44.4398017" lon="10.820695"><ele>513.0</ele><time>2026-05-03T08:40:38.753Z</time></trkpt><trkpt lat="44.4399017" lon="10.8205883"><ele>511.0</ele><time>2026-05-03T08:40:39.752Z</time></trkpt><trkpt lat="44.44" lon="10.820485"><ele>509.0</ele><time>2026-05-03T08:40:40.753Z</time></trkpt><trkpt lat="44.44009" lon="10.8203783"><ele>507.0</ele><time>2026-05-03T08:40:41.752Z</time></trkpt><trkpt lat="44.440175" lon="10.8202767"><ele>505.0</ele><time>2026-05-03T08:40:42.753Z</time></trkpt><trkpt lat="44.4402517" lon="10.8201883"><ele>503.0</ele><time>2026-05-03T08:40:43.753Z</time></trkpt><trkpt lat="44.4403167" lon="10.82011"><ele>501.0</ele><time>2026-05-03T08:40:44.753Z</time></trkpt><trkpt lat="44.4403683" lon="10.82004"><ele>499.0</ele><time>2026-05-03T08:40:45.753Z</time></trkpt><trkpt lat="44.4404117" lon="10.8199717"><ele>497.0</ele><time>2026-05-03T08:40:46.753Z</time></trkpt><trkpt lat="44.440415" lon="10.81982"><ele>495.0</ele><time>2026-05-03T08:40:48.752Z</time></trkpt><trkpt lat="44.4402833" lon="10.8197817"><ele>493.0</ele><time>2026-05-03T08:40:50.752Z</time></trkpt><trkpt lat="44.44019" lon="10.8197917"><ele>491.0</ele><time>2026-05-03T08:40:51.752Z</time></trkpt><trkpt lat="44.4400983" lon="10.819795"><ele>491.0</ele><time>2026-05-03T08:40:52.753Z</time></trkpt><trkpt lat="44.4400183" lon="10.8197517"><ele>491.0</ele><time>2026-05-03T08:40:53.753Z</time></trkpt><trkpt lat="44.43996" lon="10.8196567"><ele>491.0</ele><time>2026-05-03T08:40:54.752Z</time></trkpt><trkpt lat="44.4399117" lon="10.819525"><ele>491.0</ele><time>2026-05-03T08:40:55.753Z</time></trkpt><trkpt lat="44.4398683" lon="10.8193833"><ele>491.0</ele><time>2026-05-03T08:40:56.753Z</time></trkpt><trkpt lat="44.4398283" lon="10.8192417"><ele>489.8</ele><time>2026-05-03T08:40:57.752Z</time></trkpt><trkpt lat="44.4397933" lon="10.8191167"><ele>488.6</ele><time>2026-05-03T08:40:58.753Z</time></trkpt><trkpt lat="44.439745" lon="10.8190133"><ele>487.4</ele><time>2026-05-03T08:40:59.753Z</time></trkpt><trkpt lat="44.439675" lon="10.8189517"><ele>486.2</ele><time>2026-05-03T08:41:00.753Z</time></trkpt><trkpt lat="44.4395867" lon="10.81893"><ele>485.0</ele><time>2026-05-03T08:41:01.753Z</time></trkpt><trkpt lat="44.4394883" lon="10.8189233"><ele>485.0</ele><time>2026-05-03T08:41:02.753Z</time></trkpt><trkpt lat="44.4393917" lon="10.8189117"><ele>485.0</ele><time>2026-05-03T08:41:03.753Z</time></trkpt><trkpt lat="44.4393033" lon="10.8188617"><ele>485.0</ele><time>2026-05-03T08:41:04.753Z</time></trkpt><trkpt lat="44.43925" lon="10.8187683"><ele>485.0</ele><time>2026-05-03T08:41:05.752Z</time></trkpt><trkpt lat="44.439225" lon="10.818645"><ele>485.0</ele><time>2026-05-03T08:41:06.752Z</time></trkpt><trkpt lat="44.43921" lon="10.818495"><ele>481.5</ele><time>2026-05-03T08:41:07.752Z</time></trkpt><trkpt lat="44.439195" lon="10.8183433"><ele>478.0</ele><time>2026-05-03T08:41:08.753Z</time></trkpt><trkpt lat="44.4391933" lon="10.8181867"><ele>474.5</ele><time>2026-05-03T08:41:09.753Z</time></trkpt><trkpt lat="44.4392333" lon="10.8178917"><ele>471.0</ele><time>2026-05-03T08:41:11.753Z</time></trkpt><trkpt lat="44.439265" lon="10.8177517"><ele>469.8</ele><time>2026-05-03T08:41:12.753Z</time></trkpt><trkpt lat="44.4392767" lon="10.81762"><ele>468.6</ele><time>2026-05-03T08:41:13.753Z</time></trkpt><trkpt lat="44.4392667" lon="10.8174917"><ele>467.4</ele><time>2026-05-03T08:41:14.753Z</time></trkpt><trkpt lat="44.4392433" lon="10.817365"><ele>466.2</ele><time>2026-05-03T08:41:15.753Z</time></trkpt><trkpt lat="44.43922" lon="10.817235"><ele>465.0</ele><time>2026-05-03T08:41:16.753Z</time></trkpt><trkpt lat="44.4392" lon="10.8171033"><ele>465.0</ele><time>2026-05-03T08:41:17.752Z</time></trkpt><trkpt lat="44.439185" lon="10.816975"><ele>465.0</ele><time>2026-05-03T08:41:18.753Z</time></trkpt><trkpt lat="44.4391717" lon="10.8168383"><ele>465.0</ele><time>2026-05-03T08:41:19.753Z</time></trkpt><trkpt lat="44.43917" lon="10.8167117"><ele>465.0</ele><time>2026-05-03T08:41:20.753Z</time></trkpt><trkpt lat="44.4391533" lon="10.81661"><ele>465.0</ele><time>2026-05-03T08:41:21.753Z</time></trkpt><trkpt lat="44.4391117" lon="10.8165283"><ele>465.0</ele><time>2026-05-03T08:41:22.752Z</time></trkpt><trkpt lat="44.43905" lon="10.81647"><ele>462.6</ele><time>2026-05-03T08:41:23.753Z</time></trkpt><trkpt lat="44.438975" lon="10.8164133"><ele>460.2</ele><time>2026-05-03T08:41:24.752Z</time></trkpt><trkpt lat="44.4388867" lon="10.81636"><ele>457.79999999999995</ele><time>2026-05-03T08:41:25.753Z</time></trkpt><trkpt lat="44.4388" lon="10.8162783"><ele>455.4</ele><time>2026-05-03T08:41:26.753Z</time></trkpt><trkpt lat="44.438715" lon="10.8161767"><ele>453.0</ele><time>2026-05-03T08:41:27.752Z</time></trkpt><trkpt lat="44.4386417" lon="10.8160717"><ele>454.4</ele><time>2026-05-03T08:41:28.753Z</time></trkpt><trkpt lat="44.4385667" lon="10.8159667"><ele>455.79999999999995</ele><time>2026-05-03T08:41:29.753Z</time></trkpt><trkpt lat="44.4384933" lon="10.815875"><ele>457.2</ele><time>2026-05-03T08:41:30.753Z</time></trkpt><trkpt lat="44.4384183" lon="10.815775"><ele>458.6</ele><time>2026-05-03T08:41:31.753Z</time></trkpt><trkpt lat="44.438355" lon="10.81566"><ele>460.0</ele><time>2026-05-03T08:41:32.752Z</time></trkpt><trkpt lat="44.4383167" lon="10.8155183"><ele>460.0</ele><time>2026-05-03T08:41:33.753Z</time></trkpt><trkpt lat="44.4382933" lon="10.81537"><ele>460.0</ele><time>2026-05-03T08:41:34.753Z</time></trkpt><trkpt lat="44.4382783" lon="10.8152233"><ele>460.0</ele><time>2026-05-03T08:41:35.753Z</time></trkpt><trkpt lat="44.4382717" lon="10.81509"><ele>460.0</ele><time>2026-05-03T08:41:36.753Z</time></trkpt><trkpt lat="44.4382717" lon="10.8149667"><ele>460.0</ele><time>2026-05-03T08:41:37.753Z</time></trkpt><trkpt lat="44.4382733" lon="10.8148333"><ele>456.8</ele><time>2026-05-03T08:41:38.753Z</time></trkpt><trkpt lat="44.4382517" lon="10.8146883"><ele>453.6</ele><time>2026-05-03T08:41:39.753Z</time></trkpt><trkpt lat="44.4382183" lon="10.8145583"><ele>450.4</ele><time>2026-05-03T08:41:40.753Z</time></trkpt><trkpt lat="44.4381733" lon="10.8144383"><ele>447.2</ele><time>2026-05-03T08:41:41.753Z</time></trkpt><trkpt lat="44.438105" lon="10.8143467"><ele>444.0</ele><time>2026-05-03T08:41:42.753Z</time></trkpt><trkpt lat="44.438015" lon="10.814285"><ele>441.75</ele><time>2026-05-03T08:41:43.753Z</time></trkpt><trkpt lat="44.437905" lon="10.8142383"><ele>439.5</ele><time>2026-05-03T08:41:44.753Z</time></trkpt><trkpt lat="44.4377917" lon="10.814185"><ele>437.25</ele><time>2026-05-03T08:41:45.752Z</time></trkpt><trkpt lat="44.4376717" lon="10.8141317"><ele>435.0</ele><time>2026-05-03T08:41:46.753Z</time></trkpt><trkpt lat="44.4375583" lon="10.8140733"><ele>435.0</ele><time>2026-05-03T08:41:47.753Z</time></trkpt><trkpt lat="44.4374533" lon="10.81401"><ele>435.0</ele><time>2026-05-03T08:41:48.753Z</time></trkpt><trkpt lat="44.43734" lon="10.8139467"><ele>435.0</ele><time>2026-05-03T08:41:49.753Z</time></trkpt><trkpt lat="44.4372367" lon="10.8138817"><ele>435.0</ele><time>2026-05-03T08:41:50.753Z</time></trkpt><trkpt lat="44.4371417" lon="10.8138217"><ele>435.2</ele><time>2026-05-03T08:41:51.753Z</time></trkpt><trkpt lat="44.4370633" lon="10.81375"><ele>435.4</ele><time>2026-05-03T08:41:52.753Z</time></trkpt><trkpt lat="44.437005" lon="10.8136517"><ele>435.6</ele><time>2026-05-03T08:41:53.753Z</time></trkpt><trkpt lat="44.4369767" lon="10.813525"><ele>435.8</ele><time>2026-05-03T08:41:54.753Z</time></trkpt><trkpt lat="44.4369833" lon="10.81338"><ele>436.0</ele><time>2026-05-03T08:41:55.753Z</time></trkpt><trkpt lat="44.436995" lon="10.8132233"><ele>436.0</ele><time>2026-05-03T08:41:56.753Z</time></trkpt><trkpt lat="44.4369967" lon="10.81306"><ele>436.0</ele><time>2026-05-03T08:41:57.753Z</time></trkpt><trkpt lat="44.4369717" lon="10.8129083"><ele>436.0</ele><time>2026-05-03T08:41:58.753Z</time></trkpt><trkpt lat="44.4369233" lon="10.812775"><ele>436.0</ele><time>2026-05-03T08:41:59.753Z</time></trkpt><trkpt lat="44.4368567" lon="10.8126583"><ele>436.0</ele><time>2026-05-03T08:42:00.753Z</time></trkpt><trkpt lat="44.4367817" lon="10.81255"><ele>434.0</ele><time>2026-05-03T08:42:01.752Z</time></trkpt><trkpt lat="44.4367017" lon="10.8124517"><ele>432.0</ele><time>2026-05-03T08:42:02.753Z</time></trkpt><trkpt lat="44.4366183" lon="10.8123617"><ele>430.0</ele><time>2026-05-03T08:42:03.753Z</time></trkpt><trkpt lat="44.4365367" lon="10.8122783"><ele>428.0</ele><time>2026-05-03T08:42:04.752Z</time></trkpt><trkpt lat="44.43646" lon="10.8121983"><ele>426.0</ele><time>2026-05-03T08:42:05.753Z</time></trkpt><trkpt lat="44.4363883" lon="10.81212"><ele>426.0</ele><time>2026-05-03T08:42:06.753Z</time></trkpt><trkpt lat="44.4363317" lon="10.812035"><ele>426.0</ele><time>2026-05-03T08:42:07.752Z</time></trkpt><trkpt lat="44.4362883" lon="10.8118933"><ele>426.0</ele><time>2026-05-03T08:42:09.753Z</time></trkpt><trkpt lat="44.436315" lon="10.8117917"><ele>426.0</ele><time>2026-05-03T08:42:11.753Z</time></trkpt><trkpt lat="44.4362717" lon="10.81169"><ele>426.0</ele><time>2026-05-03T09:03:56.748Z</time></trkpt><trkpt lat="44.43618" lon="10.8115933"><ele>428.8333333333333</ele><time>2026-05-03T09:03:58.748Z</time></trkpt><trkpt lat="44.43613" lon="10.8115333"><ele>431.66666666666663</ele><time>2026-05-03T09:03:59.747Z</time></trkpt><trkpt lat="44.43604" lon="10.811405"><ele>434.5</ele><time>2026-05-03T09:04:01.748Z</time></trkpt><trkpt lat="44.4359967" lon="10.811325"><ele>437.3333333333333</ele><time>2026-05-03T09:04:02.748Z</time></trkpt><trkpt lat="44.4359633" lon="10.8112417"><ele>440.16666666666663</ele><time>2026-05-03T09:04:03.748Z</time></trkpt><trkpt lat="44.4359267" lon="10.8111533"><ele>443.0</ele><time>2026-05-03T09:04:04.748Z</time></trkpt><trkpt lat="44.4359033" lon="10.8110583"><ele>441.49999999999994</ele><time>2026-05-03T09:04:05.748Z</time></trkpt><trkpt lat="44.4358883" lon="10.8109533"><ele>440.0</ele><time>2026-05-03T09:04:06.748Z</time></trkpt><trkpt lat="44.4358883" lon="10.8108483"><ele>438.5</ele><time>2026-05-03T09:04:07.748Z</time></trkpt><trkpt lat="44.4359033" lon="10.810755"><ele>437.0</ele><time>2026-05-03T09:04:08.747Z</time></trkpt><trkpt lat="44.4359433" lon="10.8106767"><ele>435.49999999999994</ele><time>2026-05-03T09:04:09.747Z</time></trkpt><trkpt lat="44.43604" lon="10.8105633"><ele>434.0</ele><time>2026-05-03T09:04:11.747Z</time></trkpt><trkpt lat="44.4361083" lon="10.8105417"><ele>434.0</ele><time>2026-05-03T09:04:12.748Z</time></trkpt><trkpt lat="44.4361983" lon="10.8105583"><ele>434.0</ele><time>2026-05-03T09:04:13.748Z</time></trkpt><trkpt lat="44.436285" lon="10.8105983"><ele>434.0</ele><time>2026-05-03T09:04:14.748Z</time></trkpt><trkpt lat="44.436375" lon="10.8106333"><ele>434.0</ele><time>2026-05-03T09:04:15.747Z</time></trkpt><trkpt lat="44.436455" lon="10.8106783"><ele>434.0</ele><time>2026-05-03T09:04:16.748Z</time></trkpt><trkpt lat="44.4365417" lon="10.8107133"><ele>433.49999999999994</ele><time>2026-05-03T09:04:17.748Z</time></trkpt><trkpt lat="44.4366217" lon="10.810745"><ele>433.0</ele><time>2026-05-03T09:04:18.748Z</time></trkpt><trkpt lat="44.4366967" lon="10.8107683"><ele>432.5</ele><time>2026-05-03T09:04:19.747Z</time></trkpt><trkpt lat="44.436775" lon="10.8107767"><ele>432.0</ele><time>2026-05-03T09:04:20.747Z</time></trkpt><trkpt lat="44.436855" lon="10.8107767"><ele>431.49999999999994</ele><time>2026-05-03T09:04:21.747Z</time></trkpt><trkpt lat="44.4369233" lon="10.81076"><ele>431.0</ele><time>2026-05-03T09:04:22.748Z</time></trkpt><trkpt lat="44.4369783" lon="10.8107117"><ele>430.99999999999994</ele><time>2026-05-03T09:04:23.748Z</time></trkpt><trkpt lat="44.4370267" lon="10.8106433"><ele>431.0</ele><time>2026-05-03T09:04:24.748Z</time></trkpt><trkpt lat="44.4370567" lon="10.81055"><ele>431.0</ele><time>2026-05-03T09:04:25.747Z</time></trkpt><trkpt lat="44.43708" lon="10.8104417"><ele>431.0</ele><time>2026-05-03T09:04:26.748Z</time></trkpt><trkpt lat="44.4370883" lon="10.8103067"><ele>430.99999999999994</ele><time>2026-05-03T09:04:27.747Z</time></trkpt><trkpt lat="44.43711" lon="10.81018"><ele>431.0</ele><time>2026-05-03T09:04:28.748Z</time></trkpt><trkpt lat="44.4371317" lon="10.81005"><ele>431.66666666666663</ele><time>2026-05-03T09:04:29.747Z</time></trkpt><trkpt lat="44.4371517" lon="10.809925"><ele>432.3333333333333</ele><time>2026-05-03T09:04:30.748Z</time></trkpt><trkpt lat="44.4371867" lon="10.8098167"><ele>433.0</ele><time>2026-05-03T09:04:31.748Z</time></trkpt><trkpt lat="44.437235" lon="10.8097183"><ele>433.66666666666663</ele><time>2026-05-03T09:04:32.748Z</time></trkpt><trkpt lat="44.4372817" lon="10.8096183"><ele>434.3333333333333</ele><time>2026-05-03T09:04:33.748Z</time></trkpt><trkpt lat="44.4373117" lon="10.80952"><ele>435.0</ele><time>2026-05-03T09:04:34.748Z</time></trkpt><trkpt lat="44.4373333" lon="10.8094017"><ele>435.6666666666667</ele><time>2026-05-03T09:04:36.748Z</time></trkpt><trkpt lat="44.43733" lon="10.8092983"><ele>436.33333333333337</ele><time>2026-05-03T09:04:38.747Z</time></trkpt><trkpt lat="44.4373217" lon="10.8091267"><ele>437.0</ele><time>2026-05-03T09:04:40.748Z</time></trkpt><trkpt lat="44.4373133" lon="10.8090267"><ele>437.6666666666667</ele><time>2026-05-03T09:04:41.748Z</time></trkpt><trkpt lat="44.4373033" lon="10.8089183"><ele>438.33333333333337</ele><time>2026-05-03T09:04:42.748Z</time></trkpt><trkpt lat="44.4372967" lon="10.8088083"><ele>439.0</ele><time>2026-05-03T09:04:43.748Z</time></trkpt><trkpt lat="44.4372867" lon="10.8086917"><ele>439.0</ele><time>2026-05-03T09:04:44.748Z</time></trkpt><trkpt lat="44.437275" lon="10.8085717"><ele>439.0</ele><time>2026-05-03T09:04:45.748Z</time></trkpt><trkpt lat="44.43727" lon="10.8084467"><ele>439.0</ele><time>2026-05-03T09:04:46.748Z</time></trkpt><trkpt lat="44.4372617" lon="10.8083417"><ele>439.0</ele><time>2026-05-03T09:04:47.748Z</time></trkpt><trkpt lat="44.4373067" lon="10.80821"><ele>439.0</ele><time>2026-05-03T09:04:49.748Z</time></trkpt><trkpt lat="44.437425" lon="10.80825"><ele>439.0</ele><time>2026-05-03T09:04:51.748Z</time></trkpt><trkpt lat="44.4375033" lon="10.80833"><ele>439.0</ele><time>2026-05-03T09:04:52.747Z</time></trkpt><trkpt lat="44.43758" lon="10.8084033"><ele>439.0</ele><time>2026-05-03T09:04:53.748Z</time></trkpt><trkpt lat="44.437665" lon="10.8084733"><ele>439.0</ele><time>2026-05-03T09:04:54.747Z</time></trkpt><trkpt lat="44.437765" lon="10.8085333"><ele>439.0</ele><time>2026-05-03T09:04:55.748Z</time></trkpt><trkpt lat="44.437865" lon="10.8085967"><ele>439.0</ele><time>2026-05-03T09:04:56.748Z</time></trkpt><trkpt lat="44.4379667" lon="10.8086533"><ele>439.0</ele><time>2026-05-03T09:04:57.748Z</time></trkpt><trkpt lat="44.4380567" lon="10.8086683"><ele>439.0</ele><time>2026-05-03T09:04:58.747Z</time></trkpt><trkpt lat="44.4381567" lon="10.80867"><ele>439.0</ele><time>2026-05-03T09:04:59.748Z</time></trkpt><trkpt lat="44.43825" lon="10.8086333"><ele>439.0</ele><time>2026-05-03T09:05:00.748Z</time></trkpt><trkpt lat="44.43834" lon="10.808565"><ele>439.4</ele><time>2026-05-03T09:05:01.748Z</time></trkpt><trkpt lat="44.43844" lon="10.8085083"><ele>439.79999999999995</ele><time>2026-05-03T09:05:02.748Z</time></trkpt><trkpt lat="44.4385433" lon="10.8084933"><ele>440.20000000000005</ele><time>2026-05-03T09:05:03.748Z</time></trkpt><trkpt lat="44.438645" lon="10.80851"><ele>440.6</ele><time>2026-05-03T09:05:04.748Z</time></trkpt><trkpt lat="44.4387517" lon="10.8085233"><ele>441.0</ele><time>2026-05-03T09:05:05.748Z</time></trkpt><trkpt lat="44.43886" lon="10.808515"><ele>444.20000000000005</ele><time>2026-05-03T09:05:06.748Z</time></trkpt><trkpt lat="44.4389583" lon="10.8084867"><ele>447.40000000000003</ele><time>2026-05-03T09:05:07.748Z</time></trkpt><trkpt lat="44.4390617" lon="10.8084467"><ele>450.6</ele><time>2026-05-03T09:05:08.747Z</time></trkpt><trkpt lat="44.4391667" lon="10.8084067"><ele>453.8</ele><time>2026-05-03T09:05:09.748Z</time></trkpt><trkpt lat="44.4392767" lon="10.8083667"><ele>457.0</ele><time>2026-05-03T09:05:10.748Z</time></trkpt><trkpt lat="44.4393817" lon="10.80833"><ele>457.00000000000006</ele><time>2026-05-03T09:05:11.747Z</time></trkpt><trkpt lat="44.4394733" lon="10.8082783"><ele>457.0</ele><time>2026-05-03T09:05:12.748Z</time></trkpt><trkpt lat="44.4395517" lon="10.8082017"><ele>457.0</ele><time>2026-05-03T09:05:13.748Z</time></trkpt><trkpt lat="44.439605" lon="10.8081183"><ele>457.0</ele><time>2026-05-03T09:05:14.748Z</time></trkpt><trkpt lat="44.43964" lon="10.8080183"><ele>457.00000000000006</ele><time>2026-05-03T09:05:15.748Z</time></trkpt><trkpt lat="44.439635" lon="10.8079183"><ele>457.0</ele><time>2026-05-03T09:05:16.747Z</time></trkpt><trkpt lat="44.43959" lon="10.80785"><ele>457.00000000000006</ele><time>2026-05-03T09:05:17.748Z</time></trkpt><trkpt lat="44.4395233" lon="10.8078117"><ele>457.0</ele><time>2026-05-03T09:05:18.748Z</time></trkpt><trkpt lat="44.4394483" lon="10.8077933"><ele>457.0</ele><time>2026-05-03T09:05:19.748Z</time></trkpt><trkpt lat="44.4393533" lon="10.8077983"><ele>457.0</ele><time>2026-05-03T09:05:20.748Z</time></trkpt><trkpt lat="44.4392617" lon="10.8077917"><ele>457.00000000000006</ele><time>2026-05-03T09:05:21.748Z</time></trkpt><trkpt lat="44.4391717" lon="10.807775"><ele>457.0</ele><time>2026-05-03T09:05:22.748Z</time></trkpt><trkpt lat="44.4390883" lon="10.80774"><ele>457.00000000000006</ele><time>2026-05-03T09:05:23.748Z</time></trkpt><trkpt lat="44.4390017" lon="10.8076983"><ele>457.0</ele><time>2026-05-03T09:05:24.748Z</time></trkpt><trkpt lat="44.4389317" lon="10.8076383"><ele>457.0</ele><time>2026-05-03T09:05:25.748Z</time></trkpt><trkpt lat="44.43887" lon="10.8075533"><ele>457.0</ele><time>2026-05-03T09:05:26.748Z</time></trkpt><trkpt lat="44.4388133" lon="10.807455"><ele>457.00000000000006</ele><time>2026-05-03T09:05:27.747Z</time></trkpt><trkpt lat="44.4387683" lon="10.807345"><ele>457.0</ele><time>2026-05-03T09:05:28.748Z</time></trkpt><trkpt lat="44.4387283" lon="10.8072317"><ele>459.0</ele><time>2026-05-03T09:05:29.748Z</time></trkpt><trkpt lat="44.438695" lon="10.8071333"><ele>461.00000000000006</ele><time>2026-05-03T09:05:30.747Z</time></trkpt><trkpt lat="44.4386733" lon="10.8070467"><ele>463.00000000000006</ele><time>2026-05-03T09:05:31.748Z</time></trkpt><trkpt lat="44.438685" lon="10.8069117"><ele>465.0</ele><time>2026-05-03T09:05:33.748Z</time></trkpt><trkpt lat="44.438805" lon="10.806905"><ele>467.0</ele><time>2026-05-03T09:05:35.748Z</time></trkpt><trkpt lat="44.438895" lon="10.806955"><ele>468.16666666666663</ele><time>2026-05-03T09:05:36.748Z</time></trkpt><trkpt lat="44.438985" lon="10.80697"><ele>469.3333333333333</ele><time>2026-05-03T09:05:37.748Z</time></trkpt><trkpt lat="44.439055" lon="10.806935"><ele>470.5</ele><time>2026-05-03T09:05:38.748Z</time></trkpt><trkpt lat="44.4391033" lon="10.8068583"><ele>471.66666666666663</ele><time>2026-05-03T09:05:39.748Z</time></trkpt><trkpt lat="44.43914" lon="10.8067433"><ele>472.8333333333333</ele><time>2026-05-03T09:05:40.748Z</time></trkpt><trkpt lat="44.4391667" lon="10.806615"><ele>474.0</ele><time>2026-05-03T09:05:41.748Z</time></trkpt><trkpt lat="44.439195" lon="10.8064933"><ele>477.2</ele><time>2026-05-03T09:05:42.748Z</time></trkpt><trkpt lat="44.4392267" lon="10.80637"><ele>480.4</ele><time>2026-05-03T09:05:43.747Z</time></trkpt><trkpt lat="44.4392483" lon="10.8062517"><ele>483.6</ele><time>2026-05-03T09:05:44.748Z</time></trkpt><trkpt lat="44.4392567" lon="10.8061167"><ele>486.8</ele><time>2026-05-03T09:05:45.747Z</time></trkpt><trkpt lat="44.4392633" lon="10.8059833"><ele>490.0</ele><time>2026-05-03T09:05:46.748Z</time></trkpt><trkpt lat="44.43927" lon="10.8058517"><ele>493.2</ele><time>2026-05-03T09:05:47.748Z</time></trkpt><trkpt lat="44.43928" lon="10.8057183"><ele>496.4</ele><time>2026-05-03T09:05:48.748Z</time></trkpt><trkpt lat="44.4392867" lon="10.8055833"><ele>499.6</ele><time>2026-05-03T09:05:49.747Z</time></trkpt><trkpt lat="44.4392883" lon="10.8054483"><ele>502.8</ele><time>2026-05-03T09:05:50.748Z</time></trkpt><trkpt lat="44.4392933" lon="10.8053133"><ele>506.0</ele><time>2026-05-03T09:05:51.748Z</time></trkpt><trkpt lat="44.4393117" lon="10.8051817"><ele>509.0</ele><time>2026-05-03T09:05:52.748Z</time></trkpt><trkpt lat="44.4393417" lon="10.80506"><ele>512.0</ele><time>2026-05-03T09:05:53.748Z</time></trkpt><trkpt lat="44.4393867" lon="10.8049467"><ele>515.0</ele><time>2026-05-03T09:05:54.748Z</time></trkpt><trkpt lat="44.4394467" lon="10.8048483"><ele>518.0</ele><time>2026-05-03T09:05:55.748Z</time></trkpt><trkpt lat="44.4395" lon="10.8047483"><ele>521.0</ele><time>2026-05-03T09:05:56.748Z</time></trkpt><trkpt lat="44.4395683" lon="10.80465"><ele>517.8</ele><time>2026-05-03T09:05:57.748Z</time></trkpt><trkpt lat="44.4396417" lon="10.8045733"><ele>514.6</ele><time>2026-05-03T09:05:58.748Z</time></trkpt><trkpt lat="44.43973" lon="10.8045183"><ele>511.4</ele><time>2026-05-03T09:05:59.747Z</time></trkpt><trkpt lat="44.43982" lon="10.8044983"><ele>508.2</ele><time>2026-05-03T09:06:00.747Z</time></trkpt><trkpt lat="44.43992" lon="10.80453"><ele>505.0</ele><time>2026-05-03T09:06:01.748Z</time></trkpt><trkpt lat="44.44001" lon="10.804585"><ele>505.0</ele><time>2026-05-03T09:06:02.748Z</time></trkpt><trkpt lat="44.4401017" lon="10.80464"><ele>505.0</ele><time>2026-05-03T09:06:03.748Z</time></trkpt><trkpt lat="44.4401933" lon="10.8046917"><ele>505.0</ele><time>2026-05-03T09:06:04.748Z</time></trkpt><trkpt lat="44.44028" lon="10.8047283"><ele>505.0</ele><time>2026-05-03T09:06:05.748Z</time></trkpt><trkpt lat="44.4403633" lon="10.8047333"><ele>505.0</ele><time>2026-05-03T09:06:06.748Z</time></trkpt><trkpt lat="44.4404467" lon="10.804695"><ele>505.6</ele><time>2026-05-03T09:06:07.748Z</time></trkpt><trkpt lat="44.4405283" lon="10.8046483"><ele>506.2</ele><time>2026-05-03T09:06:08.748Z</time></trkpt><trkpt lat="44.4406133" lon="10.8046033"><ele>506.79999999999995</ele><time>2026-05-03T09:06:09.748Z</time></trkpt><trkpt lat="44.4407033" lon="10.804555"><ele>507.4</ele><time>2026-05-03T09:06:10.748Z</time></trkpt><trkpt lat="44.4407967" lon="10.8045033"><ele>508.0</ele><time>2026-05-03T09:06:11.748Z</time></trkpt><trkpt lat="44.4408983" lon="10.8044517"><ele>508.0</ele><time>2026-05-03T09:06:12.748Z</time></trkpt><trkpt lat="44.4410017" lon="10.8044067"><ele>507.99999999999994</ele><time>2026-05-03T09:06:13.748Z</time></trkpt><trkpt lat="44.4410917" lon="10.8043517"><ele>507.99999999999994</ele><time>2026-05-03T09:06:14.748Z</time></trkpt><trkpt lat="44.44117" lon="10.8042717"><ele>508.0</ele><time>2026-05-03T09:06:15.748Z</time></trkpt><trkpt lat="44.441225" lon="10.8041567"><ele>508.0</ele><time>2026-05-03T09:06:16.748Z</time></trkpt><trkpt lat="44.441265" lon="10.8040283"><ele>510.79999999999995</ele><time>2026-05-03T09:06:17.747Z</time></trkpt><trkpt lat="44.4413" lon="10.8038983"><ele>513.5999999999999</ele><time>2026-05-03T09:06:18.748Z</time></trkpt><trkpt lat="44.441335" lon="10.8037833"><ele>516.4000000000001</ele><time>2026-05-03T09:06:19.748Z</time></trkpt><trkpt lat="44.441395" lon="10.8036917"><ele>519.2</ele><time>2026-05-03T09:06:20.748Z</time></trkpt><trkpt lat="44.44147" lon="10.8036333"><ele>522.0</ele><time>2026-05-03T09:06:21.748Z</time></trkpt><trkpt lat="44.44156" lon="10.8035983"><ele>522.0</ele><time>2026-05-03T09:06:22.748Z</time></trkpt><trkpt lat="44.441655" lon="10.8035517"><ele>522.0</ele><time>2026-05-03T09:06:23.748Z</time></trkpt><trkpt lat="44.4417433" lon="10.8034883"><ele>522.0</ele><time>2026-05-03T09:06:24.747Z</time></trkpt><trkpt lat="44.4418217" lon="10.8034283"><ele>522.0</ele><time>2026-05-03T09:06:25.748Z</time></trkpt><trkpt lat="44.4418917" lon="10.8034"><ele>522.0</ele><time>2026-05-03T09:06:26.748Z</time></trkpt><trkpt lat="44.44197" lon="10.8034133"><ele>522.0</ele><time>2026-05-03T09:06:27.748Z</time></trkpt><trkpt lat="44.44205" lon="10.803475"><ele>522.0</ele><time>2026-05-03T09:06:28.748Z</time></trkpt><trkpt lat="44.44212" lon="10.8035967"><ele>522.0</ele><time>2026-05-03T09:06:29.748Z</time></trkpt><trkpt lat="44.4421717" lon="10.80374"><ele>522.0</ele><time>2026-05-03T09:06:30.748Z</time></trkpt><trkpt lat="44.4422167" lon="10.8038833"><ele>522.0</ele><time>2026-05-03T09:06:31.748Z</time></trkpt><trkpt lat="44.4422667" lon="10.804015"><ele>522.0</ele><time>2026-05-03T09:06:32.747Z</time></trkpt><trkpt lat="44.4423233" lon="10.804105"><ele>524.0</ele><time>2026-05-03T09:06:33.747Z</time></trkpt><trkpt lat="44.4423967" lon="10.8041633"><ele>526.0</ele><time>2026-05-03T09:06:34.747Z</time></trkpt><trkpt lat="44.4424767" lon="10.8041983"><ele>528.0</ele><time>2026-05-03T09:06:35.747Z</time></trkpt><trkpt lat="44.4425667" lon="10.8041983"><ele>530.0</ele><time>2026-05-03T09:06:36.747Z</time></trkpt><trkpt lat="44.44266" lon="10.804165"><ele>532.0</ele><time>2026-05-03T09:06:37.747Z</time></trkpt><trkpt lat="44.4427533" lon="10.8041083"><ele>532.0</ele><time>2026-05-03T09:06:38.746Z</time></trkpt><trkpt lat="44.4428467" lon="10.8040267"><ele>532.0</ele><time>2026-05-03T09:06:39.747Z</time></trkpt><trkpt lat="44.4429233" lon="10.8039317"><ele>532.0</ele><time>2026-05-03T09:06:40.747Z</time></trkpt><trkpt lat="44.4429933" lon="10.80383"><ele>532.0</ele><time>2026-05-03T09:06:41.747Z</time></trkpt><trkpt lat="44.4430683" lon="10.803735"><ele>532.0</ele><time>2026-05-03T09:06:42.747Z</time></trkpt><trkpt lat="44.4431483" lon="10.8036517"><ele>532.0</ele><time>2026-05-03T09:06:43.747Z</time></trkpt><trkpt lat="44.4432333" lon="10.8035883"><ele>532.0</ele><time>2026-05-03T09:06:44.747Z</time></trkpt><trkpt lat="44.4433183" lon="10.8035367"><ele>532.0</ele><time>2026-05-03T09:06:45.746Z</time></trkpt><trkpt lat="44.4434" lon="10.8034833"><ele>532.0</ele><time>2026-05-03T09:06:46.747Z</time></trkpt><trkpt lat="44.4434683" lon="10.803425"><ele>532.0</ele><time>2026-05-03T09:06:47.747Z</time></trkpt><trkpt lat="44.4435183" lon="10.8033583"><ele>532.0</ele><time>2026-05-03T09:06:48.746Z</time></trkpt><trkpt lat="44.4435467" lon="10.8032767"><ele>534.8000000000001</ele><time>2026-05-03T09:06:49.746Z</time></trkpt><trkpt lat="44.44355" lon="10.8031533"><ele>537.6</ele><time>2026-05-03T09:06:51.747Z</time></trkpt><trkpt lat="44.44352" lon="10.8029867"><ele>540.4000000000001</ele><time>2026-05-03T09:10:50.747Z</time></trkpt><trkpt lat="44.4435067" lon="10.80287"><ele>543.2</ele><time>2026-05-03T09:10:51.747Z</time></trkpt><trkpt lat="44.4434883" lon="10.8027433"><ele>546.0</ele><time>2026-05-03T09:10:52.747Z</time></trkpt><trkpt lat="44.4434717" lon="10.8026067"><ele>546.6</ele><time>2026-05-03T09:10:53.747Z</time></trkpt><trkpt lat="44.443455" lon="10.8024567"><ele>547.2</ele><time>2026-05-03T09:10:54.747Z</time></trkpt><trkpt lat="44.443435" lon="10.802305"><ele>547.8</ele><time>2026-05-03T09:10:55.746Z</time></trkpt><trkpt lat="44.4434067" lon="10.8021533"><ele>548.4</ele><time>2026-05-03T09:10:56.747Z</time></trkpt><trkpt lat="44.4433717" lon="10.802015"><ele>549.0</ele><time>2026-05-03T09:10:57.747Z</time></trkpt><trkpt lat="44.4433333" lon="10.80188"><ele>549.0</ele><time>2026-05-03T09:10:58.746Z</time></trkpt><trkpt lat="44.443285" lon="10.8017567"><ele>549.0</ele><time>2026-05-03T09:10:59.747Z</time></trkpt><trkpt lat="44.4432383" lon="10.8016717"><ele>549.0</ele><time>2026-05-03T09:11:00.747Z</time></trkpt><trkpt lat="44.4431767" lon="10.8016083"><ele>549.0</ele><time>2026-05-03T09:11:01.747Z</time></trkpt><trkpt lat="44.4431067" lon="10.8015767"><ele>549.0</ele><time>2026-05-03T09:11:02.747Z</time></trkpt><trkpt lat="44.4430433" lon="10.8016017"><ele>549.0</ele><time>2026-05-03T09:11:03.747Z</time></trkpt><trkpt lat="44.4429983" lon="10.8016717"><ele>549.0</ele><time>2026-05-03T09:11:04.747Z</time></trkpt><trkpt lat="44.442965" lon="10.8018017"><ele>549.0</ele><time>2026-05-03T09:11:05.747Z</time></trkpt><trkpt lat="44.4429483" lon="10.8019667"><ele>549.0</ele><time>2026-05-03T09:11:06.747Z</time></trkpt><trkpt lat="44.442945" lon="10.8021383"><ele>549.0</ele><time>2026-05-03T09:11:07.747Z</time></trkpt><trkpt lat="44.4429267" lon="10.8022817"><ele>549.0</ele><time>2026-05-03T09:11:08.746Z</time></trkpt><trkpt lat="44.4428933" lon="10.802375"><ele>549.8</ele><time>2026-05-03T09:11:09.746Z</time></trkpt><trkpt lat="44.4427833" lon="10.8024183"><ele>550.5999999999999</ele><time>2026-05-03T09:11:11.747Z</time></trkpt><trkpt lat="44.4427217" lon="10.8023617"><ele>551.4</ele><time>2026-05-03T09:11:12.747Z</time></trkpt><trkpt lat="44.4426833" lon="10.8022517"><ele>552.1999999999999</ele><time>2026-05-03T09:11:13.747Z</time></trkpt><trkpt lat="44.442655" lon="10.80211"><ele>553.0</ele><time>2026-05-03T09:11:14.747Z</time></trkpt><trkpt lat="44.4426333" lon="10.8019533"><ele>555.25</ele><time>2026-05-03T09:11:15.746Z</time></trkpt><trkpt lat="44.4426033" lon="10.8017967"><ele>557.5</ele><time>2026-05-03T09:11:16.747Z</time></trkpt><trkpt lat="44.4425633" lon="10.80165"><ele>559.75</ele><time>2026-05-03T09:11:17.747Z</time></trkpt><trkpt lat="44.44251" lon="10.8015083"><ele>562.0</ele><time>2026-05-03T09:11:18.746Z</time></trkpt><trkpt lat="44.4424483" lon="10.8013683"><ele>562.0</ele><time>2026-05-03T09:11:19.746Z</time></trkpt><trkpt lat="44.4423883" lon="10.8012417"><ele>562.0</ele><time>2026-05-03T09:11:20.746Z</time></trkpt><trkpt lat="44.4423333" lon="10.8011367"><ele>562.0</ele><time>2026-05-03T09:11:21.746Z</time></trkpt><trkpt lat="44.44227" lon="10.8010583"><ele>562.0</ele><time>2026-05-03T09:11:22.746Z</time></trkpt><trkpt lat="44.4422067" lon="10.8010067"><ele>562.0</ele><time>2026-05-03T09:11:23.746Z</time></trkpt><trkpt lat="44.4421333" lon="10.80101"><ele>562.0</ele><time>2026-05-03T09:11:24.746Z</time></trkpt><trkpt lat="44.4420533" lon="10.8010633"><ele>563.8000000000001</ele><time>2026-05-03T09:11:25.745Z</time></trkpt><trkpt lat="44.441975" lon="10.8011483"><ele>565.6</ele><time>2026-05-03T09:11:26.745Z</time></trkpt><trkpt lat="44.4418983" lon="10.8012533"><ele>567.4000000000001</ele><time>2026-05-03T09:11:27.746Z</time></trkpt><trkpt lat="44.44183" lon="10.8013183"><ele>569.2</ele><time>2026-05-03T09:11:28.746Z</time></trkpt><trkpt lat="44.441765" lon="10.801335"><ele>571.0</ele><time>2026-05-03T09:11:29.746Z</time></trkpt><trkpt lat="44.4416517" lon="10.8012567"><ele>571.0</ele><time>2026-05-03T09:11:31.746Z</time></trkpt><trkpt lat="44.4416067" lon="10.801145"><ele>571.0</ele><time>2026-05-03T09:11:32.746Z</time></trkpt><trkpt lat="44.4415583" lon="10.80102"><ele>571.0</ele><time>2026-05-03T09:11:33.746Z</time></trkpt><trkpt lat="44.4414933" lon="10.8008983"><ele>571.0</ele><time>2026-05-03T09:11:34.746Z</time></trkpt><trkpt lat="44.4414267" lon="10.8007683"><ele>571.0</ele><time>2026-05-03T09:11:35.746Z</time></trkpt><trkpt lat="44.44136" lon="10.800625"><ele>575.0</ele><time>2026-05-03T09:11:36.746Z</time></trkpt><trkpt lat="44.4412983" lon="10.8004717"><ele>579.0</ele><time>2026-05-03T09:11:37.746Z</time></trkpt><trkpt lat="44.4412417" lon="10.8003017"><ele>583.0</ele><time>2026-05-03T09:11:38.746Z</time></trkpt><trkpt lat="44.4411933" lon="10.800135"><ele>587.0</ele><time>2026-05-03T09:11:39.746Z</time></trkpt><trkpt lat="44.441155" lon="10.7999733"><ele>588.4</ele><time>2026-05-03T09:11:40.746Z</time></trkpt><trkpt lat="44.4411167" lon="10.7998333"><ele>589.8000000000001</ele><time>2026-05-03T09:11:41.745Z</time></trkpt><trkpt lat="44.4411083" lon="10.7997083"><ele>591.2</ele><time>2026-05-03T09:11:42.746Z</time></trkpt><trkpt lat="44.4411333" lon="10.7995783"><ele>592.6</ele><time>2026-05-03T09:11:43.746Z</time></trkpt><trkpt lat="44.441175" lon="10.7994583"><ele>594.0</ele><time>2026-05-03T09:11:44.746Z</time></trkpt><trkpt lat="44.4412233" lon="10.799345"><ele>594.0</ele><time>2026-05-03T09:11:45.745Z</time></trkpt><trkpt lat="44.4412683" lon="10.79926"><ele>594.0</ele><time>2026-05-03T09:11:46.745Z</time></trkpt><trkpt lat="44.4413017" lon="10.7991817"><ele>594.0</ele><time>2026-05-03T09:11:47.746Z</time></trkpt><trkpt lat="44.4412883" lon="10.7990933"><ele>594.0</ele><time>2026-05-03T09:11:49.745Z</time></trkpt><trkpt lat="44.4412283" lon="10.7991333"><ele>594.0</ele><time>2026-05-03T09:11:51.746Z</time></trkpt><trkpt lat="44.4411933" lon="10.79921"><ele>594.0</ele><time>2026-05-03T09:11:52.746Z</time></trkpt><trkpt lat="44.441145" lon="10.799315"><ele>594.0</ele><time>2026-05-03T09:11:53.746Z</time></trkpt><trkpt lat="44.4410933" lon="10.799415"><ele>594.0</ele><time>2026-05-03T09:11:54.746Z</time></trkpt><trkpt lat="44.4410367" lon="10.799515"><ele>594.0</ele><time>2026-05-03T09:11:55.746Z</time></trkpt><trkpt lat="44.4409783" lon="10.7996267"><ele>594.0</ele><time>2026-05-03T09:11:56.746Z</time></trkpt><trkpt lat="44.4409183" lon="10.79975"><ele>594.0</ele><time>2026-05-03T09:11:57.745Z</time></trkpt><trkpt lat="44.4408533" lon="10.799875"><ele>594.0</ele><time>2026-05-03T09:11:58.746Z</time></trkpt><trkpt lat="44.4407967" lon="10.8000183"><ele>594.0</ele><time>2026-05-03T09:11:59.746Z</time></trkpt><trkpt lat="44.4407367" lon="10.8001467"><ele>594.0</ele><time>2026-05-03T09:12:00.746Z</time></trkpt><trkpt lat="44.440665" lon="10.80026"><ele>594.0</ele><time>2026-05-03T09:12:01.746Z</time></trkpt><trkpt lat="44.4405933" lon="10.800375"><ele>594.0</ele><time>2026-05-03T09:12:02.745Z</time></trkpt><trkpt lat="44.440525" lon="10.8004933"><ele>594.0</ele><time>2026-05-03T09:12:03.746Z</time></trkpt><trkpt lat="44.44045" lon="10.8006117"><ele>593.25</ele><time>2026-05-03T09:12:04.746Z</time></trkpt><trkpt lat="44.4403833" lon="10.8007317"><ele>592.5</ele><time>2026-05-03T09:12:05.746Z</time></trkpt><trkpt lat="44.4403017" lon="10.8008517"><ele>591.75</ele><time>2026-05-03T09:12:06.746Z</time></trkpt><trkpt lat="44.4402183" lon="10.8009633"><ele>591.0</ele><time>2026-05-03T09:12:07.746Z</time></trkpt><trkpt lat="44.4401317" lon="10.8010533"><ele>591.0</ele><time>2026-05-03T09:12:08.746Z</time></trkpt><trkpt lat="44.44005" lon="10.8011383"><ele>591.0</ele><time>2026-05-03T09:12:09.745Z</time></trkpt><trkpt lat="44.43997" lon="10.8012233"><ele>591.0</ele><time>2026-05-03T09:12:10.746Z</time></trkpt><trkpt lat="44.43988" lon="10.8013"><ele>591.0</ele><time>2026-05-03T09:12:11.745Z</time></trkpt><trkpt lat="44.4397817" lon="10.8013717"><ele>591.0</ele><time>2026-05-03T09:12:12.746Z</time></trkpt><trkpt lat="44.43968" lon="10.8014383"><ele>593.25</ele><time>2026-05-03T09:12:13.745Z</time></trkpt><trkpt lat="44.4395767" lon="10.801485"><ele>595.5</ele><time>2026-05-03T09:12:14.746Z</time></trkpt><trkpt lat="44.43947" lon="10.8015317"><ele>597.75</ele><time>2026-05-03T09:12:15.746Z</time></trkpt><trkpt lat="44.4393583" lon="10.8015783"><ele>600.0</ele><time>2026-05-03T09:12:16.746Z</time></trkpt><trkpt lat="44.439245" lon="10.8016133"><ele>600.0</ele><time>2026-05-03T09:12:17.746Z</time></trkpt><trkpt lat="44.4391267" lon="10.8016517"><ele>600.0</ele><time>2026-05-03T09:12:18.746Z</time></trkpt><trkpt lat="44.4390083" lon="10.8016767"><ele>600.0</ele><time>2026-05-03T09:12:19.746Z</time></trkpt><trkpt lat="44.4389" lon="10.8016833"><ele>600.0</ele><time>2026-05-03T09:12:20.746Z</time></trkpt><trkpt lat="44.4388083" lon="10.8016783"><ele>600.0</ele><time>2026-05-03T09:12:21.746Z</time></trkpt><trkpt lat="44.4387217" lon="10.801635"><ele>603.8</ele><time>2026-05-03T09:12:22.746Z</time></trkpt><trkpt lat="44.4386417" lon="10.8015633"><ele>607.6</ele><time>2026-05-03T09:12:23.746Z</time></trkpt><trkpt lat="44.43856" lon="10.8015033"><ele>611.4</ele><time>2026-05-03T09:12:24.746Z</time></trkpt><trkpt lat="44.43847" lon="10.8014783"><ele>615.2</ele><time>2026-05-03T09:12:25.746Z</time></trkpt><trkpt lat="44.4383783" lon="10.801485"><ele>619.0</ele><time>2026-05-03T09:12:26.746Z</time></trkpt><trkpt lat="44.4382933" lon="10.8014967"><ele>619.0</ele><time>2026-05-03T09:12:27.746Z</time></trkpt><trkpt lat="44.4382117" lon="10.8015533"><ele>619.0</ele><time>2026-05-03T09:12:28.746Z</time></trkpt><trkpt lat="44.4381233" lon="10.8016183"><ele>619.0</ele><time>2026-05-03T09:12:29.746Z</time></trkpt><trkpt lat="44.438035" lon="10.8016883"><ele>619.0</ele><time>2026-05-03T09:12:30.746Z</time></trkpt><trkpt lat="44.43794" lon="10.8017517"><ele>619.0</ele><time>2026-05-03T09:12:31.745Z</time></trkpt><trkpt lat="44.4378467" lon="10.8018183"><ele>618.8</ele><time>2026-05-03T09:12:32.745Z</time></trkpt><trkpt lat="44.4377467" lon="10.801895"><ele>618.5999999999999</ele><time>2026-05-03T09:12:33.745Z</time></trkpt><trkpt lat="44.43765" lon="10.80195"><ele>618.4</ele><time>2026-05-03T09:12:34.746Z</time></trkpt><trkpt lat="44.4375567" lon="10.8020017"><ele>618.1999999999999</ele><time>2026-05-03T09:12:35.746Z</time></trkpt><trkpt lat="44.43746" lon="10.80205"><ele>618.0</ele><time>2026-05-03T09:12:36.746Z</time></trkpt><trkpt lat="44.4373783" lon="10.8020817"><ele>618.0</ele><time>2026-05-03T09:12:37.745Z</time></trkpt><trkpt lat="44.4372983" lon="10.8021183"><ele>618.0</ele><time>2026-05-03T09:12:38.745Z</time></trkpt><trkpt lat="44.4372233" lon="10.8021567"><ele>618.0</ele><time>2026-05-03T09:12:39.746Z</time></trkpt><trkpt lat="44.4371517" lon="10.802185"><ele>618.0</ele><time>2026-05-03T09:12:40.745Z</time></trkpt><trkpt lat="44.4370283" lon="10.8021683"><ele>618.0</ele><time>2026-05-03T09:12:42.746Z</time></trkpt><trkpt lat="44.43696" lon="10.8021317"><ele>618.0</ele><time>2026-05-03T09:12:43.746Z</time></trkpt><trkpt lat="44.4368867" lon="10.8020683"><ele>617.1999999999999</ele><time>2026-05-03T09:12:44.745Z</time></trkpt><trkpt lat="44.4368" lon="10.8019817"><ele>616.4</ele><time>2026-05-03T09:12:45.746Z</time></trkpt><trkpt lat="44.4367267" lon="10.8019"><ele>615.5999999999999</ele><time>2026-05-03T09:12:46.746Z</time></trkpt><trkpt lat="44.4366567" lon="10.801815"><ele>614.8</ele><time>2026-05-03T09:12:47.745Z</time></trkpt><trkpt lat="44.4365967" lon="10.8017367"><ele>614.0</ele><time>2026-05-03T09:12:48.746Z</time></trkpt><trkpt lat="44.4365317" lon="10.8016583"><ele>612.2</ele><time>2026-05-03T09:12:49.746Z</time></trkpt><trkpt lat="44.43646" lon="10.8015767"><ele>610.4</ele><time>2026-05-03T09:12:50.746Z</time></trkpt><trkpt lat="44.43638" lon="10.8014967"><ele>608.6</ele><time>2026-05-03T09:12:51.746Z</time></trkpt><trkpt lat="44.4362967" lon="10.8014167"><ele>606.8</ele><time>2026-05-03T09:12:52.746Z</time></trkpt><trkpt lat="44.4362167" lon="10.801345"><ele>605.0</ele><time>2026-05-03T09:12:53.746Z</time></trkpt><trkpt lat="44.4361333" lon="10.8012783"><ele>605.0</ele><time>2026-05-03T09:12:54.746Z</time></trkpt><trkpt lat="44.4360533" lon="10.8012283"><ele>605.0</ele><time>2026-05-03T09:12:55.746Z</time></trkpt><trkpt lat="44.4359583" lon="10.8011883"><ele>605.0</ele><time>2026-05-03T09:12:56.746Z</time></trkpt><trkpt lat="44.4358683" lon="10.8011483"><ele>605.0</ele><time>2026-05-03T09:12:57.745Z</time></trkpt><trkpt lat="44.4357883" lon="10.8010717"><ele>605.0</ele><time>2026-05-03T09:12:58.746Z</time></trkpt><trkpt lat="44.4357267" lon="10.80096"><ele>607.6</ele><time>2026-05-03T09:12:59.746Z</time></trkpt><trkpt lat="44.43567" lon="10.8008383"><ele>610.2</ele><time>2026-05-03T09:13:00.745Z</time></trkpt><trkpt lat="44.4356183" lon="10.8007"><ele>612.8</ele><time>2026-05-03T09:13:01.746Z</time></trkpt><trkpt lat="44.4355667" lon="10.8005667"><ele>615.4</ele><time>2026-05-03T09:13:02.745Z</time></trkpt><trkpt lat="44.4355233" lon="10.80043"><ele>618.0</ele><time>2026-05-03T09:13:03.746Z</time></trkpt><trkpt lat="44.435475" lon="10.8002917"><ele>618.3333333333334</ele><time>2026-05-03T09:13:04.746Z</time></trkpt><trkpt lat="44.43544" lon="10.8001617"><ele>618.6666666666666</ele><time>2026-05-03T09:13:05.745Z</time></trkpt><trkpt lat="44.4354017" lon="10.8000517"><ele>619.0</ele><time>2026-05-03T09:13:06.746Z</time></trkpt><trkpt lat="44.4353467" lon="10.799965"><ele>619.3333333333333</ele><time>2026-05-03T09:13:07.746Z</time></trkpt><trkpt lat="44.43528" lon="10.7999133"><ele>619.6666666666666</ele><time>2026-05-03T09:13:08.746Z</time></trkpt><trkpt lat="44.43519" lon="10.79987"><ele>620.0</ele><time>2026-05-03T09:13:09.745Z</time></trkpt><trkpt lat="44.43509" lon="10.799825"><ele>620.0</ele><time>2026-05-03T09:13:10.746Z</time></trkpt><trkpt lat="44.434995" lon="10.7997733"><ele>620.0</ele><time>2026-05-03T09:13:11.746Z</time></trkpt><trkpt lat="44.4349033" lon="10.7997183"><ele>620.0</ele><time>2026-05-03T09:13:12.746Z</time></trkpt><trkpt lat="44.434815" lon="10.7996533"><ele>620.0</ele><time>2026-05-03T09:13:13.746Z</time></trkpt><trkpt lat="44.4347283" lon="10.7995917"><ele>620.0</ele><time>2026-05-03T09:13:14.746Z</time></trkpt><trkpt lat="44.4346267" lon="10.7995333"><ele>619.8</ele><time>2026-05-03T09:13:15.746Z</time></trkpt><trkpt lat="44.4345533" lon="10.79945"><ele>619.6</ele><time>2026-05-03T09:13:16.746Z</time></trkpt><trkpt lat="44.43448" lon="10.7993583"><ele>619.4</ele><time>2026-05-03T09:13:17.746Z</time></trkpt><trkpt lat="44.4344067" lon="10.7992617"><ele>619.2</ele><time>2026-05-03T09:13:18.746Z</time></trkpt><trkpt lat="44.4343433" lon="10.7991467"><ele>619.0</ele><time>2026-05-03T09:13:19.746Z</time></trkpt><trkpt lat="44.4342767" lon="10.7990267"><ele>619.4</ele><time>2026-05-03T09:13:20.746Z</time></trkpt><trkpt lat="44.4342117" lon="10.7989117"><ele>619.8</ele><time>2026-05-03T09:13:21.745Z</time></trkpt><trkpt lat="44.4341383" lon="10.7987967"><ele>620.2</ele><time>2026-05-03T09:13:22.745Z</time></trkpt><trkpt lat="44.43407" lon="10.7986917"><ele>620.6</ele><time>2026-05-03T09:13:23.745Z</time></trkpt><trkpt lat="44.4340083" lon="10.7985817"><ele>621.0</ele><time>2026-05-03T09:13:24.746Z</time></trkpt><trkpt lat="44.4339467" lon="10.7984733"><ele>621.2</ele><time>2026-05-03T09:13:25.746Z</time></trkpt><trkpt lat="44.4338733" lon="10.798365"><ele>621.4000000000001</ele><time>2026-05-03T09:13:26.746Z</time></trkpt><trkpt lat="44.4337967" lon="10.7982567"><ele>621.6</ele><time>2026-05-03T09:13:27.746Z</time></trkpt><trkpt lat="44.4337183" lon="10.7981467"><ele>621.8000000000001</ele><time>2026-05-03T09:13:28.746Z</time></trkpt><trkpt lat="44.4336417" lon="10.7980317"><ele>622.0</ele><time>2026-05-03T09:13:29.746Z</time></trkpt><trkpt lat="44.43357" lon="10.7979167"><ele>622.0</ele><time>2026-05-03T09:13:30.746Z</time></trkpt><trkpt lat="44.4334867" lon="10.7978017"><ele>622.0</ele><time>2026-05-03T09:13:31.746Z</time></trkpt><trkpt lat="44.4334283" lon="10.797675"><ele>622.0</ele><time>2026-05-03T09:13:32.745Z</time></trkpt><trkpt lat="44.4333783" lon="10.7975467"><ele>622.0</ele><time>2026-05-03T09:13:33.746Z</time></trkpt><trkpt lat="44.433345" lon="10.7974083"><ele>622.0</ele><time>2026-05-03T09:13:34.746Z</time></trkpt><trkpt lat="44.4332983" lon="10.7972683"><ele>623.25</ele><time>2026-05-03T09:13:35.746Z</time></trkpt><trkpt lat="44.4332517" lon="10.7971283"><ele>624.5</ele><time>2026-05-03T09:13:36.746Z</time></trkpt><trkpt lat="44.433195" lon="10.7970067"><ele>625.75</ele><time>2026-05-03T09:13:37.746Z</time></trkpt><trkpt lat="44.4331117" lon="10.7968917"><ele>627.0</ele><time>2026-05-03T09:13:38.746Z</time></trkpt><trkpt lat="44.4330267" lon="10.796775"><ele>628.75</ele><time>2026-05-03T09:13:39.746Z</time></trkpt><trkpt lat="44.4329283" lon="10.7966733"><ele>630.5</ele><time>2026-05-03T09:13:40.746Z</time></trkpt><trkpt lat="44.4328333" lon="10.79658"><ele>632.25</ele><time>2026-05-03T09:13:41.746Z</time></trkpt><trkpt lat="44.4327383" lon="10.7964817"><ele>634.0</ele><time>2026-05-03T09:13:42.745Z</time></trkpt><trkpt lat="44.43264" lon="10.7963933"><ele>634.0</ele><time>2026-05-03T09:13:43.746Z</time></trkpt><trkpt lat="44.432545" lon="10.7963217"><ele>634.0</ele><time>2026-05-03T09:13:44.746Z</time></trkpt><trkpt lat="44.4324483" lon="10.7962583"><ele>634.0</ele><time>2026-05-03T09:13:45.746Z</time></trkpt><trkpt lat="44.432355" lon="10.7961783"><ele>634.0</ele><time>2026-05-03T09:13:46.745Z</time></trkpt><trkpt lat="44.432265" lon="10.79609"><ele>634.0</ele><time>2026-05-03T09:13:47.745Z</time></trkpt><trkpt lat="44.4321883" lon="10.7960033"><ele>636.3333333333334</ele><time>2026-05-03T09:13:48.745Z</time></trkpt><trkpt lat="44.43212" lon="10.7959467"><ele>638.6666666666667</ele><time>2026-05-03T09:13:49.746Z</time></trkpt><trkpt lat="44.4320367" lon="10.79588"><ele>641.0</ele><time>2026-05-03T09:13:51.746Z</time></trkpt><trkpt lat="44.431985" lon="10.7958233"><ele>643.3333333333334</ele><time>2026-05-03T09:13:54.745Z</time></trkpt><trkpt lat="44.4318917" lon="10.795795"><ele>645.6666666666666</ele><time>2026-05-03T09:13:56.745Z</time></trkpt><trkpt lat="44.4318183" lon="10.7957767"><ele>648.0</ele><time>2026-05-03T09:13:57.745Z</time></trkpt><trkpt lat="44.4317383" lon="10.7957367"><ele>648.0</ele><time>2026-05-03T09:13:58.746Z</time></trkpt><trkpt lat="44.431655" lon="10.7956733"><ele>648.0</ele><time>2026-05-03T09:13:59.746Z</time></trkpt><trkpt lat="44.431575" lon="10.79559"><ele>648.0</ele><time>2026-05-03T09:14:00.746Z</time></trkpt><trkpt lat="44.4314967" lon="10.7955067"><ele>648.0</ele><time>2026-05-03T09:14:01.746Z</time></trkpt><trkpt lat="44.4314217" lon="10.7954183"><ele>648.0</ele><time>2026-05-03T09:14:02.745Z</time></trkpt><trkpt lat="44.4313467" lon="10.7953233"><ele>646.5999999999999</ele><time>2026-05-03T09:14:03.746Z</time></trkpt><trkpt lat="44.4312667" lon="10.795235"><ele>645.1999999999999</ele><time>2026-05-03T09:14:04.746Z</time></trkpt><trkpt lat="44.43119" lon="10.7951517"><ele>643.8</ele><time>2026-05-03T09:14:05.745Z</time></trkpt><trkpt lat="44.43111" lon="10.7950733"><ele>642.4</ele><time>2026-05-03T09:14:06.745Z</time></trkpt><trkpt lat="44.4310267" lon="10.7949933"><ele>641.0</ele><time>2026-05-03T09:14:07.746Z</time></trkpt><trkpt lat="44.4309467" lon="10.794925"><ele>644.0</ele><time>2026-05-03T09:14:08.746Z</time></trkpt><trkpt lat="44.4308683" lon="10.79485"><ele>647.0</ele><time>2026-05-03T09:14:09.746Z</time></trkpt><trkpt lat="44.430795" lon="10.79477"><ele>650.0</ele><time>2026-05-03T09:14:10.745Z</time></trkpt><trkpt lat="44.43073" lon="10.7946883"><ele>653.0</ele><time>2026-05-03T09:14:11.746Z</time></trkpt><trkpt lat="44.4306717" lon="10.7946267"><ele>656.0</ele><time>2026-05-03T09:14:12.746Z</time></trkpt><trkpt lat="44.4305767" lon="10.7945"><ele>656.0</ele><time>2026-05-03T09:14:14.746Z</time></trkpt><trkpt lat="44.430535" lon="10.7944317"><ele>656.0</ele><time>2026-05-03T09:14:15.746Z</time></trkpt><trkpt lat="44.43049" lon="10.794355"><ele>656.0</ele><time>2026-05-03T09:14:16.746Z</time></trkpt><trkpt lat="44.4304333" lon="10.7942733"><ele>656.0</ele><time>2026-05-03T09:14:17.746Z</time></trkpt><trkpt lat="44.4303767" lon="10.7941833"><ele>656.0</ele><time>2026-05-03T09:14:18.746Z</time></trkpt><trkpt lat="44.4303217" lon="10.7940867"><ele>656.0</ele><time>2026-05-03T09:14:19.745Z</time></trkpt><trkpt lat="44.4302833" lon="10.79399"><ele>657.3333333333333</ele><time>2026-05-03T09:14:20.746Z</time></trkpt><trkpt lat="44.430225" lon="10.7938917"><ele>658.6666666666666</ele><time>2026-05-03T09:14:21.746Z</time></trkpt><trkpt lat="44.4301817" lon="10.7937867"><ele>660.0</ele><time>2026-05-03T09:14:22.746Z</time></trkpt><trkpt lat="44.430155" lon="10.793685"><ele>661.3333333333334</ele><time>2026-05-03T09:14:23.746Z</time></trkpt><trkpt lat="44.4301333" lon="10.7935717"><ele>662.6666666666667</ele><time>2026-05-03T09:14:24.745Z</time></trkpt><trkpt lat="44.4301267" lon="10.7934617"><ele>664.0</ele><time>2026-05-03T09:14:25.746Z</time></trkpt><trkpt lat="44.430135" lon="10.7933567"><ele>668.4000000000001</ele><time>2026-05-03T09:14:26.745Z</time></trkpt><trkpt lat="44.4301233" lon="10.793265"><ele>672.8</ele><time>2026-05-03T09:14:27.746Z</time></trkpt><trkpt lat="44.4300567" lon="10.7931617"><ele>677.2</ele><time>2026-05-03T09:14:29.746Z</time></trkpt><trkpt lat="44.4299817" lon="10.793135"><ele>681.5999999999999</ele><time>2026-05-03T09:14:30.745Z</time></trkpt><trkpt lat="44.4298817" lon="10.7931233"><ele>686.0</ele><time>2026-05-03T09:14:31.746Z</time></trkpt><trkpt lat="44.429775" lon="10.7931067"><ele>686.0</ele><time>2026-05-03T09:14:32.746Z</time></trkpt><trkpt lat="44.4296533" lon="10.7930833"><ele>686.0</ele><time>2026-05-03T09:14:33.746Z</time></trkpt><trkpt lat="44.42954" lon="10.79306"><ele>686.0</ele><time>2026-05-03T09:14:34.745Z</time></trkpt><trkpt lat="44.429415" lon="10.793035"><ele>686.0</ele><time>2026-05-03T09:14:35.746Z</time></trkpt><trkpt lat="44.4293033" lon="10.7930167"><ele>685.0</ele><time>2026-05-03T09:14:36.746Z</time></trkpt><trkpt lat="44.429195" lon="10.79299"><ele>684.0</ele><time>2026-05-03T09:14:37.746Z</time></trkpt><trkpt lat="44.429095" lon="10.79296"><ele>683.0</ele><time>2026-05-03T09:14:38.746Z</time></trkpt><trkpt lat="44.428995" lon="10.79293"><ele>682.0</ele><time>2026-05-03T09:14:39.746Z</time></trkpt><trkpt lat="44.428905" lon="10.7928867"><ele>681.0</ele><time>2026-05-03T09:14:40.746Z</time></trkpt><trkpt lat="44.4288083" lon="10.7928433"><ele>680.1999999999999</ele><time>2026-05-03T09:14:41.745Z</time></trkpt><trkpt lat="44.428715" lon="10.792795"><ele>679.4</ele><time>2026-05-03T09:14:42.746Z</time></trkpt><trkpt lat="44.4286217" lon="10.7927533"><ele>678.6</ele><time>2026-05-03T09:14:43.746Z</time></trkpt><trkpt lat="44.428525" lon="10.79274"><ele>677.8</ele><time>2026-05-03T09:14:44.746Z</time></trkpt><trkpt lat="44.4284217" lon="10.7927717"><ele>677.0</ele><time>2026-05-03T09:14:45.746Z</time></trkpt><trkpt lat="44.4283133" lon="10.7928267"><ele>677.0</ele><time>2026-05-03T09:14:46.746Z</time></trkpt><trkpt lat="44.4282067" lon="10.792875"><ele>677.0</ele><time>2026-05-03T09:14:47.746Z</time></trkpt><trkpt lat="44.4280983" lon="10.7929083"><ele>677.0</ele><time>2026-05-03T09:14:48.746Z</time></trkpt><trkpt lat="44.4279833" lon="10.7929233"><ele>677.0</ele><time>2026-05-03T09:14:49.746Z</time></trkpt><trkpt lat="44.4278583" lon="10.79292"><ele>678.6</ele><time>2026-05-03T09:14:50.746Z</time></trkpt><trkpt lat="44.427725" lon="10.7929033"><ele>680.2</ele><time>2026-05-03T09:14:51.746Z</time></trkpt><trkpt lat="44.4276067" lon="10.7928967"><ele>681.8</ele><time>2026-05-03T09:14:52.745Z</time></trkpt><trkpt lat="44.427505" lon="10.7929"><ele>683.4</ele><time>2026-05-03T09:14:53.746Z</time></trkpt><trkpt lat="44.4274267" lon="10.7929367"><ele>685.0</ele><time>2026-05-03T09:14:54.746Z</time></trkpt><trkpt lat="44.4273633" lon="10.7929917"><ele>685.0</ele><time>2026-05-03T09:14:55.745Z</time></trkpt><trkpt lat="44.427315" lon="10.79308"><ele>685.0</ele><time>2026-05-03T09:14:56.745Z</time></trkpt><trkpt lat="44.4272667" lon="10.7931717"><ele>685.0</ele><time>2026-05-03T09:14:57.746Z</time></trkpt><trkpt lat="44.4272233" lon="10.79327"><ele>685.0</ele><time>2026-05-03T09:14:58.746Z</time></trkpt><trkpt lat="44.427155" lon="10.7933533"><ele>685.0</ele><time>2026-05-03T09:14:59.746Z</time></trkpt><trkpt lat="44.4270817" lon="10.7933983"><ele>685.0</ele><time>2026-05-03T09:15:00.746Z</time></trkpt><trkpt lat="44.4269883" lon="10.79341"><ele>687.2</ele><time>2026-05-03T09:15:01.746Z</time></trkpt><trkpt lat="44.4268967" lon="10.79341"><ele>689.4</ele><time>2026-05-03T09:15:02.746Z</time></trkpt><trkpt lat="44.4267983" lon="10.7934083"><ele>691.5999999999999</ele><time>2026-05-03T09:15:03.746Z</time></trkpt><trkpt lat="44.4267" lon="10.7934017"><ele>693.8</ele><time>2026-05-03T09:15:04.746Z</time></trkpt><trkpt lat="44.4266067" lon="10.7934033"><ele>696.0</ele><time>2026-05-03T09:15:05.746Z</time></trkpt><trkpt lat="44.4264883" lon="10.79338"><ele>696.0</ele><time>2026-05-03T09:15:06.746Z</time></trkpt><trkpt lat="44.4263717" lon="10.7933617"><ele>696.0</ele><time>2026-05-03T09:15:07.746Z</time></trkpt><trkpt lat="44.42625" lon="10.793325"><ele>696.0</ele><time>2026-05-03T09:15:08.746Z</time></trkpt><trkpt lat="44.4261233" lon="10.793265"><ele>696.0</ele><time>2026-05-03T09:15:09.746Z</time></trkpt><trkpt lat="44.4259883" lon="10.793195"><ele>696.25</ele><time>2026-05-03T09:15:10.745Z</time></trkpt><trkpt lat="44.4258583" lon="10.7931133"><ele>696.5</ele><time>2026-05-03T09:15:11.746Z</time></trkpt><trkpt lat="44.4257317" lon="10.7930267"><ele>696.75</ele><time>2026-05-03T09:15:12.746Z</time></trkpt><trkpt lat="44.4256133" lon="10.7929367"><ele>697.0</ele><time>2026-05-03T09:15:13.745Z</time></trkpt><trkpt lat="44.425515" lon="10.7928417"><ele>701.5</ele><time>2026-05-03T09:15:14.746Z</time></trkpt><trkpt lat="44.4254217" lon="10.7927317"><ele>706.0</ele><time>2026-05-03T09:15:15.746Z</time></trkpt><trkpt lat="44.4253183" lon="10.7926083"><ele>710.5</ele><time>2026-05-03T09:15:16.746Z</time></trkpt><trkpt lat="44.4252217" lon="10.7925033"><ele>715.0</ele><time>2026-05-03T09:15:17.745Z</time></trkpt><trkpt lat="44.425115" lon="10.792415"><ele>718.25</ele><time>2026-05-03T09:15:18.746Z</time></trkpt><trkpt lat="44.425005" lon="10.7923367"><ele>721.5</ele><time>2026-05-03T09:15:19.746Z</time></trkpt><trkpt lat="44.4248983" lon="10.7922417"><ele>724.75</ele><time>2026-05-03T09:15:20.746Z</time></trkpt><trkpt lat="44.4247917" lon="10.7921533"><ele>728.0</ele><time>2026-05-03T09:15:21.746Z</time></trkpt><trkpt lat="44.424715" lon="10.7920867"><ele>730.4</ele><time>2026-05-03T09:15:22.746Z</time></trkpt><trkpt lat="44.424645" lon="10.79205"><ele>732.8</ele><time>2026-05-03T09:15:23.746Z</time></trkpt><trkpt lat="44.4245617" lon="10.7920383"><ele>735.2</ele><time>2026-05-03T09:15:24.746Z</time></trkpt><trkpt lat="44.4244617" lon="10.792055"><ele>737.6</ele><time>2026-05-03T09:15:25.745Z</time></trkpt><trkpt lat="44.4243417" lon="10.7920783"><ele>740.0</ele><time>2026-05-03T09:15:26.745Z</time></trkpt><trkpt lat="44.4242183" lon="10.7921467"><ele>740.0</ele><time>2026-05-03T09:15:27.746Z</time></trkpt><trkpt lat="44.4241" lon="10.7922233"><ele>740.0</ele><time>2026-05-03T09:15:28.746Z</time></trkpt><trkpt lat="44.424005" lon="10.7923117"><ele>740.0</ele><time>2026-05-03T09:15:29.746Z</time></trkpt><trkpt lat="44.42391" lon="10.7923933"><ele>740.0</ele><time>2026-05-03T09:15:30.745Z</time></trkpt><trkpt lat="44.4238133" lon="10.7924517"><ele>742.4</ele><time>2026-05-03T09:15:31.746Z</time></trkpt><trkpt lat="44.42371" lon="10.7924717"><ele>744.8</ele><time>2026-05-03T09:15:32.746Z</time></trkpt><trkpt lat="44.4236067" lon="10.7924667"><ele>747.2</ele><time>2026-05-03T09:15:33.746Z</time></trkpt><trkpt lat="44.4234983" lon="10.79245"><ele>749.6</ele><time>2026-05-03T09:15:34.746Z</time></trkpt><trkpt lat="44.4233883" lon="10.7924367"><ele>752.0</ele><time>2026-05-03T09:15:35.745Z</time></trkpt><trkpt lat="44.4232667" lon="10.7924167"><ele>752.0</ele><time>2026-05-03T09:15:36.745Z</time></trkpt><trkpt lat="44.42315" lon="10.792385"><ele>752.0</ele><time>2026-05-03T09:15:37.746Z</time></trkpt><trkpt lat="44.42303" lon="10.7923683"><ele>752.0</ele><time>2026-05-03T09:15:38.746Z</time></trkpt><trkpt lat="44.4229233" lon="10.79235"><ele>752.0</ele><time>2026-05-03T09:15:39.746Z</time></trkpt><trkpt lat="44.4228167" lon="10.7923533"><ele>754.5</ele><time>2026-05-03T09:15:40.746Z</time></trkpt><trkpt lat="44.4227217" lon="10.79236"><ele>757.0</ele><time>2026-05-03T09:15:41.746Z</time></trkpt><trkpt lat="44.4226367" lon="10.7923733"><ele>759.5</ele><time>2026-05-03T09:15:42.746Z</time></trkpt><trkpt lat="44.4225617" lon="10.7923783"><ele>762.0</ele><time>2026-05-03T09:15:43.746Z</time></trkpt><trkpt lat="44.4224933" lon="10.7923767"><ele>764.5</ele><time>2026-05-03T09:15:44.746Z</time></trkpt><trkpt lat="44.4223983" lon="10.7923633"><ele>767.0</ele><time>2026-05-03T09:15:46.745Z</time></trkpt><trkpt lat="44.4223133" lon="10.7923933"><ele>767.0</ele><time>2026-05-03T09:15:49.744Z</time></trkpt><trkpt lat="44.4222633" lon="10.79248"><ele>767.0</ele><time>2026-05-03T09:15:52.745Z</time></trkpt><trkpt lat="44.4222183" lon="10.7925633"><ele>767.0</ele><time>2026-05-03T09:15:55.745Z</time></trkpt><trkpt lat="44.4221883" lon="10.792675"><ele>767.0</ele><time>2026-05-03T09:15:58.744Z</time></trkpt><trkpt lat="44.4221667" lon="10.7927667"><ele>767.0</ele><time>2026-05-03T09:16:00.745Z</time></trkpt><trkpt lat="44.42216" lon="10.7929033"><ele>767.0</ele><time>2026-05-03T09:16:02.744Z</time></trkpt><trkpt lat="44.4221517" lon="10.792995"><ele>769.8</ele><time>2026-05-03T09:16:03.745Z</time></trkpt><trkpt lat="44.4221433" lon="10.7930983"><ele>772.6</ele><time>2026-05-03T09:16:04.745Z</time></trkpt><trkpt lat="44.42212" lon="10.7932467"><ele>775.4</ele><time>2026-05-03T09:16:06.745Z</time></trkpt><trkpt lat="44.4220533" lon="10.79329"><ele>778.1999999999999</ele><time>2026-05-03T09:16:08.745Z</time></trkpt><trkpt lat="44.4219967" lon="10.793185"><ele>781.0</ele><time>2026-05-03T09:16:11.744Z</time></trkpt><trkpt lat="44.4219967" lon="10.79302"><ele>780.9999999999999</ele><time>2026-05-03T09:16:13.745Z</time></trkpt><trkpt lat="44.42201" lon="10.7929167"><ele>781.0</ele><time>2026-05-03T09:16:14.745Z</time></trkpt><trkpt lat="44.4220283" lon="10.7928083"><ele>781.0</ele><time>2026-05-03T09:16:15.744Z</time></trkpt><trkpt lat="44.4220433" lon="10.7926933"><ele>781.0</ele><time>2026-05-03T09:16:16.745Z</time></trkpt><trkpt lat="44.4220633" lon="10.7925683"><ele>780.9999999999999</ele><time>2026-05-03T09:16:17.745Z</time></trkpt><trkpt lat="44.42208" lon="10.7924417"><ele>781.0</ele><time>2026-05-03T09:16:18.745Z</time></trkpt><trkpt lat="44.422095" lon="10.7923233"><ele>779.5999999999999</ele><time>2026-05-03T09:16:19.745Z</time></trkpt><trkpt lat="44.4221117" lon="10.7922"><ele>778.2</ele><time>2026-05-03T09:16:20.745Z</time></trkpt><trkpt lat="44.42213" lon="10.792075"><ele>776.8</ele><time>2026-05-03T09:16:21.744Z</time></trkpt><trkpt lat="44.4221467" lon="10.791945"><ele>775.4000000000001</ele><time>2026-05-03T09:16:22.745Z</time></trkpt><trkpt lat="44.4221567" lon="10.7918083"><ele>774.0</ele><time>2026-05-03T09:16:23.744Z</time></trkpt><trkpt lat="44.4221667" lon="10.7916633"><ele>774.0</ele><time>2026-05-03T09:16:24.744Z</time></trkpt><trkpt lat="44.4221833" lon="10.7915167"><ele>774.0</ele><time>2026-05-03T09:16:25.745Z</time></trkpt><trkpt lat="44.4222067" lon="10.7913733"><ele>774.0</ele><time>2026-05-03T09:16:26.745Z</time></trkpt><trkpt lat="44.4222417" lon="10.7912217"><ele>774.0</ele><time>2026-05-03T09:16:27.744Z</time></trkpt><trkpt lat="44.4222717" lon="10.7910683"><ele>774.0</ele><time>2026-05-03T09:16:28.745Z</time></trkpt><trkpt lat="44.4223033" lon="10.7909283"><ele>776.0</ele><time>2026-05-03T09:16:29.745Z</time></trkpt><trkpt lat="44.422345" lon="10.7907933"><ele>778.0</ele><time>2026-05-03T09:16:30.745Z</time></trkpt><trkpt lat="44.4223867" lon="10.79066"><ele>780.0</ele><time>2026-05-03T09:16:31.745Z</time></trkpt><trkpt lat="44.422435" lon="10.790535"><ele>782.0</ele><time>2026-05-03T09:16:32.745Z</time></trkpt><trkpt lat="44.4224833" lon="10.79042"><ele>784.0</ele><time>2026-05-03T09:16:33.745Z</time></trkpt><trkpt lat="44.4225233" lon="10.790305"><ele>783.9999999999999</ele><time>2026-05-03T09:16:34.745Z</time></trkpt><trkpt lat="44.4225667" lon="10.790185"><ele>784.0</ele><time>2026-05-03T09:16:35.745Z</time></trkpt><trkpt lat="44.4226067" lon="10.7900667"><ele>784.0</ele><time>2026-05-03T09:16:36.745Z</time></trkpt><trkpt lat="44.422645" lon="10.7899667"><ele>784.0</ele><time>2026-05-03T09:16:37.744Z</time></trkpt><trkpt lat="44.4226733" lon="10.78988"><ele>783.9999999999999</ele><time>2026-05-03T09:16:38.745Z</time></trkpt><trkpt lat="44.4227033" lon="10.7897833"><ele>784.0</ele><time>2026-05-03T09:16:40.745Z</time></trkpt><trkpt lat="44.422675" lon="10.78969"><ele>785.4999999999999</ele><time>2026-05-03T09:16:50.745Z</time></trkpt><trkpt lat="44.42261" lon="10.789635"><ele>787.0</ele><time>2026-05-03T09:16:51.745Z</time></trkpt><trkpt lat="44.4225217" lon="10.7895767"><ele>788.5</ele><time>2026-05-03T09:16:52.745Z</time></trkpt><trkpt lat="44.4224367" lon="10.789505"><ele>790.0</ele><time>2026-05-03T09:16:53.745Z</time></trkpt><trkpt lat="44.4223633" lon="10.7894383"><ele>791.4999999999999</ele><time>2026-05-03T09:16:54.745Z</time></trkpt><trkpt lat="44.4222967" lon="10.789385"><ele>793.0</ele><time>2026-05-03T09:16:55.745Z</time></trkpt><trkpt lat="44.42223" lon="10.7893267"><ele>792.9999999999999</ele><time>2026-05-03T09:16:56.745Z</time></trkpt><trkpt lat="44.4221617" lon="10.78928"><ele>793.0</ele><time>2026-05-03T09:16:57.745Z</time></trkpt><trkpt lat="44.4220967" lon="10.7892333"><ele>793.0</ele><time>2026-05-03T09:16:58.744Z</time></trkpt><trkpt lat="44.4220433" lon="10.789185"><ele>793.0</ele><time>2026-05-03T09:16:59.745Z</time></trkpt><trkpt lat="44.4219467" lon="10.7891167"><ele>792.9999999999999</ele><time>2026-05-03T09:17:01.744Z</time></trkpt><trkpt lat="44.421935" lon="10.789015"><ele>793.0</ele><time>2026-05-03T09:17:04.744Z</time></trkpt><trkpt lat="44.4219833" lon="10.7889583"><ele>792.9999999999999</ele><time>2026-05-03T09:17:06.745Z</time></trkpt><trkpt lat="44.4220433" lon="10.78892"><ele>793.0</ele><time>2026-05-03T09:17:08.744Z</time></trkpt><trkpt lat="44.4221333" lon="10.7888767"><ele>793.0</ele><time>2026-05-03T09:17:11.744Z</time></trkpt><trkpt lat="44.4222083" lon="10.7888367"><ele>793.0</ele><time>2026-05-03T09:17:13.745Z</time></trkpt><trkpt lat="44.4222983" lon="10.7887933"><ele>792.9999999999999</ele><time>2026-05-03T09:17:15.745Z</time></trkpt><trkpt lat="44.42236" lon="10.7887517"><ele>793.0</ele><time>2026-05-03T09:17:16.745Z</time></trkpt><trkpt lat="44.42244" lon="10.78871"><ele>792.9999999999999</ele><time>2026-05-03T09:17:17.745Z</time></trkpt><trkpt lat="44.42252" lon="10.7886433"><ele>793.0</ele><time>2026-05-03T09:17:18.744Z</time></trkpt><trkpt lat="44.4225983" lon="10.7886017"><ele>793.0</ele><time>2026-05-03T09:17:19.745Z</time></trkpt><trkpt lat="44.42266" lon="10.78856"><ele>793.0</ele><time>2026-05-03T09:17:20.745Z</time></trkpt><trkpt lat="44.422715" lon="10.7884967"><ele>792.9999999999999</ele><time>2026-05-03T09:17:21.745Z</time></trkpt><trkpt lat="44.4227733" lon="10.78842"><ele>793.0</ele><time>2026-05-03T09:17:22.744Z</time></trkpt><trkpt lat="44.4228333" lon="10.788325"><ele>791.2</ele><time>2026-05-03T09:17:23.745Z</time></trkpt><trkpt lat="44.4228917" lon="10.7882283"><ele>789.4</ele><time>2026-05-03T09:17:24.745Z</time></trkpt><trkpt lat="44.4229317" lon="10.7881183"><ele>787.6</ele><time>2026-05-03T09:17:25.745Z</time></trkpt><trkpt lat="44.4229467" lon="10.7879983"><ele>785.8000000000001</ele><time>2026-05-03T09:17:26.745Z</time></trkpt><trkpt lat="44.42294" lon="10.7878717"><ele>784.0</ele><time>2026-05-03T09:17:27.744Z</time></trkpt><trkpt lat="44.4229167" lon="10.78774"><ele>781.6</ele><time>2026-05-03T09:17:28.745Z</time></trkpt><trkpt lat="44.422875" lon="10.787615"><ele>779.2</ele><time>2026-05-03T09:17:29.745Z</time></trkpt><trkpt lat="44.4228417" lon="10.7875"><ele>776.8000000000001</ele><time>2026-05-03T09:17:30.744Z</time></trkpt><trkpt lat="44.4228067" lon="10.7873667"><ele>774.4000000000001</ele><time>2026-05-03T09:17:31.745Z</time></trkpt><trkpt lat="44.4227733" lon="10.7872417"><ele>772.0</ele><time>2026-05-03T09:17:32.745Z</time></trkpt><trkpt lat="44.422735" lon="10.7871217"><ele>772.0</ele><time>2026-05-03T09:17:33.745Z</time></trkpt><trkpt lat="44.4227067" lon="10.7870017"><ele>772.0</ele><time>2026-05-03T09:17:34.745Z</time></trkpt><trkpt lat="44.4226883" lon="10.78689"><ele>772.0</ele><time>2026-05-03T09:17:35.744Z</time></trkpt><trkpt lat="44.422685" lon="10.78677"><ele>772.0</ele><time>2026-05-03T09:17:36.745Z</time></trkpt><trkpt lat="44.4226867" lon="10.7866367"><ele>772.0</ele><time>2026-05-03T09:17:37.744Z</time></trkpt><trkpt lat="44.4227117" lon="10.7864917"><ele>770.0</ele><time>2026-05-03T09:17:38.745Z</time></trkpt><trkpt lat="44.4227533" lon="10.7863567"><ele>768.0</ele><time>2026-05-03T09:17:39.745Z</time></trkpt><trkpt lat="44.4228017" lon="10.7862283"><ele>766.0</ele><time>2026-05-03T09:17:40.745Z</time></trkpt><trkpt lat="44.422835" lon="10.7861167"><ele>764.0</ele><time>2026-05-03T09:17:41.745Z</time></trkpt><trkpt lat="44.42289" lon="10.7859883"><ele>762.0</ele><time>2026-05-03T09:17:42.745Z</time></trkpt><trkpt lat="44.42293" lon="10.7858633"><ele>759.4000000000001</ele><time>2026-05-03T09:17:43.745Z</time></trkpt><trkpt lat="44.4229433" lon="10.7857433"><ele>756.8000000000001</ele><time>2026-05-03T09:17:44.744Z</time></trkpt><trkpt lat="44.42294" lon="10.7856233"><ele>754.2</ele><time>2026-05-03T09:17:45.745Z</time></trkpt><trkpt lat="44.4229017" lon="10.7855267"><ele>751.6</ele><time>2026-05-03T09:17:46.745Z</time></trkpt><trkpt lat="44.42284" lon="10.7854183"><ele>749.0</ele><time>2026-05-03T09:17:47.745Z</time></trkpt><trkpt lat="44.42277" lon="10.7853083"><ele>749.0</ele><time>2026-05-03T09:17:48.745Z</time></trkpt><trkpt lat="44.4227017" lon="10.7851917"><ele>749.0</ele><time>2026-05-03T09:17:49.745Z</time></trkpt><trkpt lat="44.4226317" lon="10.7850667"><ele>749.0</ele><time>2026-05-03T09:17:50.744Z</time></trkpt><trkpt lat="44.422555" lon="10.7849267"><ele>749.0</ele><time>2026-05-03T09:17:51.745Z</time></trkpt><trkpt lat="44.4224833" lon="10.7847883"><ele>748.5</ele><time>2026-05-03T09:17:52.745Z</time></trkpt><trkpt lat="44.4224083" lon="10.78467"><ele>748.0</ele><time>2026-05-03T09:17:53.745Z</time></trkpt><trkpt lat="44.422325" lon="10.7845617"><ele>747.5</ele><time>2026-05-03T09:17:54.744Z</time></trkpt><trkpt lat="44.4222217" lon="10.7844617"><ele>747.0</ele><time>2026-05-03T09:17:55.745Z</time></trkpt><trkpt lat="44.4221117" lon="10.7843733"><ele>741.5</ele><time>2026-05-03T09:17:56.745Z</time></trkpt><trkpt lat="44.4219933" lon="10.7843"><ele>736.0</ele><time>2026-05-03T09:17:57.745Z</time></trkpt><trkpt lat="44.4218783" lon="10.7842367"><ele>730.5</ele><time>2026-05-03T09:17:58.745Z</time></trkpt><trkpt lat="44.42177" lon="10.7841683"><ele>725.0</ele><time>2026-05-03T09:17:59.745Z</time></trkpt><trkpt lat="44.421655" lon="10.78407"><ele>725.0</ele><time>2026-05-03T09:18:00.745Z</time></trkpt><trkpt lat="44.42155" lon="10.7839867"><ele>725.0</ele><time>2026-05-03T09:18:01.744Z</time></trkpt><trkpt lat="44.4214683" lon="10.78393"><ele>725.0</ele><time>2026-05-03T09:18:02.745Z</time></trkpt><trkpt lat="44.42141" lon="10.7838933"><ele>725.0</ele><time>2026-05-03T09:18:03.745Z</time></trkpt><trkpt lat="44.4213533" lon="10.7838517"><ele>725.0</ele><time>2026-05-03T09:18:05.744Z</time></trkpt><trkpt lat="44.4212817" lon="10.7837983"><ele>725.0</ele><time>2026-05-03T09:22:15.744Z</time></trkpt><trkpt lat="44.4212" lon="10.7837717"><ele>723.0</ele><time>2026-05-03T09:22:19.744Z</time></trkpt><trkpt lat="44.4210767" lon="10.78372"><ele>721.0</ele><time>2026-05-03T09:25:16.743Z</time></trkpt><trkpt lat="44.4209833" lon="10.783705"><ele>719.0</ele><time>2026-05-03T09:25:18.743Z</time></trkpt><trkpt lat="44.4208633" lon="10.7837167"><ele>717.0</ele><time>2026-05-03T09:25:20.743Z</time></trkpt><trkpt lat="44.4207983" lon="10.7837083"><ele>715.0</ele><time>2026-05-03T09:25:21.742Z</time></trkpt><trkpt lat="44.4207283" lon="10.7836933"><ele>715.0</ele><time>2026-05-03T09:25:22.743Z</time></trkpt><trkpt lat="44.4206567" lon="10.7836617"><ele>715.0</ele><time>2026-05-03T09:25:23.743Z</time></trkpt><trkpt lat="44.4205933" lon="10.7836267"><ele>715.0</ele><time>2026-05-03T09:25:24.743Z</time></trkpt><trkpt lat="44.42053" lon="10.783585"><ele>715.0</ele><time>2026-05-03T09:25:25.743Z</time></trkpt><trkpt lat="44.42046" lon="10.7835383"><ele>715.0</ele><time>2026-05-03T09:25:26.743Z</time></trkpt><trkpt lat="44.4203783" lon="10.783495"><ele>715.0</ele><time>2026-05-03T09:25:27.743Z</time></trkpt><trkpt lat="44.420295" lon="10.7834667"><ele>712.5</ele><time>2026-05-03T09:25:28.742Z</time></trkpt><trkpt lat="44.4202167" lon="10.78344"><ele>710.0</ele><time>2026-05-03T09:25:29.743Z</time></trkpt><trkpt lat="44.4201483" lon="10.78341"><ele>707.5</ele><time>2026-05-03T09:25:30.743Z</time></trkpt><trkpt lat="44.420025" lon="10.7833717"><ele>705.0</ele><time>2026-05-03T09:25:32.743Z</time></trkpt><trkpt lat="44.4199417" lon="10.7833483"><ele>702.5</ele><time>2026-05-03T09:25:34.743Z</time></trkpt><trkpt lat="44.41994" lon="10.7832517"><ele>700.0</ele><time>2026-05-03T09:25:37.743Z</time></trkpt><trkpt lat="44.4200483" lon="10.7832233"><ele>700.0</ele><time>2026-05-03T09:25:40.743Z</time></trkpt><trkpt lat="44.4201467" lon="10.7832283"><ele>700.0</ele><time>2026-05-03T09:25:42.743Z</time></trkpt><trkpt lat="44.4202717" lon="10.7832367"><ele>700.0</ele><time>2026-05-03T09:25:44.743Z</time></trkpt><trkpt lat="44.4203467" lon="10.7832317"><ele>700.0</ele><time>2026-05-03T09:25:45.743Z</time></trkpt><trkpt lat="44.4204333" lon="10.7832267"><ele>700.0</ele><time>2026-05-03T09:25:46.742Z</time></trkpt><trkpt lat="44.42052" lon="10.78322"><ele>701.5</ele><time>2026-05-03T09:25:47.742Z</time></trkpt><trkpt lat="44.4205983" lon="10.7832033"><ele>703.0</ele><time>2026-05-03T09:25:48.743Z</time></trkpt><trkpt lat="44.42068" lon="10.78318"><ele>704.5</ele><time>2026-05-03T09:25:49.743Z</time></trkpt><trkpt lat="44.4207483" lon="10.7831617"><ele>706.0</ele><time>2026-05-03T09:25:50.743Z</time></trkpt><trkpt lat="44.4208283" lon="10.7831317"><ele>707.5</ele><time>2026-05-03T09:25:51.742Z</time></trkpt><trkpt lat="44.4209" lon="10.7831217"><ele>709.0</ele><time>2026-05-03T09:25:52.743Z</time></trkpt><trkpt lat="44.4209667" lon="10.7831033"><ele>709.0000000000001</ele><time>2026-05-03T09:25:53.743Z</time></trkpt><trkpt lat="44.421045" lon="10.7830567"><ele>709.0</ele><time>2026-05-03T09:25:54.743Z</time></trkpt><trkpt lat="44.4211117" lon="10.78303"><ele>709.0</ele><time>2026-05-03T09:25:55.743Z</time></trkpt><trkpt lat="44.4211833" lon="10.78302"><ele>709.0</ele><time>2026-05-03T09:25:56.742Z</time></trkpt><trkpt lat="44.4212467" lon="10.7830117"><ele>709.0</ele><time>2026-05-03T09:25:57.742Z</time></trkpt><trkpt lat="44.42133" lon="10.7829767"><ele>709.0000000000001</ele><time>2026-05-03T09:25:59.743Z</time></trkpt><trkpt lat="44.4213967" lon="10.782945"><ele>709.0</ele><time>2026-05-03T09:26:01.742Z</time></trkpt><trkpt lat="44.42148" lon="10.782885"><ele>707.4000000000001</ele><time>2026-05-03T09:26:03.743Z</time></trkpt><trkpt lat="44.4215767" lon="10.7827933"><ele>705.8</ele><time>2026-05-03T09:26:05.743Z</time></trkpt><trkpt lat="44.4216017" lon="10.7827083"><ele>704.2</ele><time>2026-05-03T09:26:07.743Z</time></trkpt><trkpt lat="44.4216683" lon="10.7826533"><ele>702.5999999999999</ele><time>2026-05-03T09:26:08.742Z</time></trkpt><trkpt lat="44.4217367" lon="10.7826017"><ele>701.0</ele><time>2026-05-03T09:26:09.743Z</time></trkpt><trkpt lat="44.4218567" lon="10.7825217"><ele>701.0</ele><time>2026-05-03T09:26:11.743Z</time></trkpt><trkpt lat="44.4219217" lon="10.7824667"><ele>701.0</ele><time>2026-05-03T09:26:12.743Z</time></trkpt><trkpt lat="44.4219717" lon="10.78241"><ele>701.0</ele><time>2026-05-03T09:26:13.742Z</time></trkpt><trkpt lat="44.4219733" lon="10.7823017"><ele>701.0</ele><time>2026-05-03T09:26:16.743Z</time></trkpt><trkpt lat="44.42198" lon="10.7821867"><ele>701.0</ele><time>2026-05-03T09:26:19.743Z</time></trkpt><trkpt lat="44.4219783" lon="10.7820883"><ele>701.0</ele><time>2026-05-03T09:26:21.743Z</time></trkpt><trkpt lat="44.4219083" lon="10.7820217"><ele>701.0</ele><time>2026-05-03T09:26:23.742Z</time></trkpt><trkpt lat="44.4217917" lon="10.7819667"><ele>701.0</ele><time>2026-05-03T09:26:25.742Z</time></trkpt><trkpt lat="44.42167" lon="10.7819417"><ele>701.0</ele><time>2026-05-03T09:26:27.742Z</time></trkpt><trkpt lat="44.421545" lon="10.7818983"><ele>701.0</ele><time>2026-05-03T09:26:29.743Z</time></trkpt><trkpt lat="44.4214767" lon="10.7818833"><ele>701.0</ele><time>2026-05-03T09:26:30.742Z</time></trkpt><trkpt lat="44.4213717" lon="10.7818267"><ele>701.1666666666666</ele><time>2026-05-03T09:26:32.743Z</time></trkpt><trkpt lat="44.42131" lon="10.781705"><ele>701.3333333333333</ele><time>2026-05-03T09:26:34.743Z</time></trkpt><trkpt lat="44.421305" lon="10.78161"><ele>701.5</ele><time>2026-05-03T09:26:35.742Z</time></trkpt><trkpt lat="44.4213083" lon="10.7815033"><ele>701.6666666666666</ele><time>2026-05-03T09:26:36.742Z</time></trkpt><trkpt lat="44.421295" lon="10.7813983"><ele>701.8333333333334</ele><time>2026-05-03T09:26:37.743Z</time></trkpt><trkpt lat="44.421275" lon="10.7813033"><ele>702.0</ele><time>2026-05-03T09:26:38.743Z</time></trkpt><trkpt lat="44.4212483" lon="10.7812217"><ele>702.0</ele><time>2026-05-03T09:26:39.743Z</time></trkpt><trkpt lat="44.4212133" lon="10.781135"><ele>702.0</ele><time>2026-05-03T09:26:40.743Z</time></trkpt><trkpt lat="44.42118" lon="10.7810417"><ele>702.0</ele><time>2026-05-03T09:26:41.743Z</time></trkpt><trkpt lat="44.4211417" lon="10.78094"><ele>702.0</ele><time>2026-05-03T09:26:42.742Z</time></trkpt><trkpt lat="44.4211117" lon="10.7808567"><ele>702.0</ele><time>2026-05-03T09:26:43.743Z</time></trkpt><trkpt lat="44.4210917" lon="10.780745"><ele>702.0</ele><time>2026-05-03T09:26:45.743Z</time></trkpt><trkpt lat="44.4211417" lon="10.7806517"><ele>702.8333333333334</ele><time>2026-05-03T09:26:47.742Z</time></trkpt><trkpt lat="44.4211917" lon="10.7805767"><ele>703.6666666666666</ele><time>2026-05-03T09:26:49.743Z</time></trkpt><trkpt lat="44.421265" lon="10.7804933"><ele>704.5</ele><time>2026-05-03T09:28:09.743Z</time></trkpt><trkpt lat="44.42132" lon="10.7804433"><ele>705.3333333333333</ele><time>2026-05-03T09:28:10.743Z</time></trkpt><trkpt lat="44.4213867" lon="10.780395"><ele>706.1666666666666</ele><time>2026-05-03T09:28:11.743Z</time></trkpt><trkpt lat="44.4214583" lon="10.7803317"><ele>707.0</ele><time>2026-05-03T09:28:12.743Z</time></trkpt><trkpt lat="44.4215433" lon="10.7802233"><ele>710.75</ele><time>2026-05-03T09:28:13.743Z</time></trkpt><trkpt lat="44.4216317" lon="10.7801083"><ele>714.5</ele><time>2026-05-03T09:28:14.743Z</time></trkpt><trkpt lat="44.4217333" lon="10.7799867"><ele>718.25</ele><time>2026-05-03T09:28:15.743Z</time></trkpt><trkpt lat="44.4218333" lon="10.7798817"><ele>722.0</ele><time>2026-05-03T09:28:16.743Z</time></trkpt><trkpt lat="44.4219333" lon="10.7797983"><ele>722.0</ele><time>2026-05-03T09:28:17.742Z</time></trkpt><trkpt lat="44.42204" lon="10.7797333"><ele>722.0</ele><time>2026-05-03T09:28:18.742Z</time></trkpt><trkpt lat="44.4221433" lon="10.7797117"><ele>722.0</ele><time>2026-05-03T09:28:19.743Z</time></trkpt><trkpt lat="44.42225" lon="10.7797467"><ele>722.0</ele><time>2026-05-03T09:28:20.743Z</time></trkpt><trkpt lat="44.4223617" lon="10.779795"><ele>722.0</ele><time>2026-05-03T09:28:21.743Z</time></trkpt><trkpt lat="44.4224783" lon="10.7798167"><ele>723.0</ele><time>2026-05-03T09:28:22.743Z</time></trkpt><trkpt lat="44.422585" lon="10.7798467"><ele>724.0</ele><time>2026-05-03T09:28:23.743Z</time></trkpt><trkpt lat="44.4226867" lon="10.7799117"><ele>725.0</ele><time>2026-05-03T09:28:24.742Z</time></trkpt><trkpt lat="44.422795" lon="10.7799783"><ele>726.0</ele><time>2026-05-03T09:28:25.743Z</time></trkpt><trkpt lat="44.4229067" lon="10.7800533"><ele>727.25</ele><time>2026-05-03T09:28:26.743Z</time></trkpt><trkpt lat="44.42302" lon="10.7801233"><ele>728.5</ele><time>2026-05-03T09:28:27.743Z</time></trkpt><trkpt lat="44.4231333" lon="10.7801933"><ele>729.75</ele><time>2026-05-03T09:28:28.742Z</time></trkpt><trkpt lat="44.4232417" lon="10.7802617"><ele>731.0</ele><time>2026-05-03T09:28:29.743Z</time></trkpt><trkpt lat="44.4233467" lon="10.7803233"><ele>731.3333333333333</ele><time>2026-05-03T09:28:30.743Z</time></trkpt><trkpt lat="44.4234333" lon="10.7803683"><ele>731.6666666666666</ele><time>2026-05-03T09:28:31.743Z</time></trkpt><trkpt lat="44.4235167" lon="10.78039"><ele>732.0</ele><time>2026-05-03T09:28:32.743Z</time></trkpt><trkpt lat="44.4235917" lon="10.78039"><ele>732.3333333333334</ele><time>2026-05-03T09:28:33.743Z</time></trkpt><trkpt lat="44.4236683" lon="10.78037"><ele>732.6666666666667</ele><time>2026-05-03T09:28:34.743Z</time></trkpt><trkpt lat="44.4237567" lon="10.780325"><ele>733.0</ele><time>2026-05-03T09:28:35.743Z</time></trkpt><trkpt lat="44.4238517" lon="10.78028"><ele>733.0</ele><time>2026-05-03T09:28:36.743Z</time></trkpt><trkpt lat="44.4239367" lon="10.78023"><ele>733.0</ele><time>2026-05-03T09:28:37.743Z</time></trkpt><trkpt lat="44.424035" lon="10.7801667"><ele>733.0</ele><time>2026-05-03T09:28:38.743Z</time></trkpt><trkpt lat="44.4241633" lon="10.78008"><ele>733.0</ele><time>2026-05-03T09:28:39.743Z</time></trkpt><trkpt lat="44.424275" lon="10.77998"><ele>733.75</ele><time>2026-05-03T09:28:40.742Z</time></trkpt><trkpt lat="44.424375" lon="10.7798717"><ele>734.5</ele><time>2026-05-03T09:28:41.743Z</time></trkpt><trkpt lat="44.4244717" lon="10.7797767"><ele>735.25</ele><time>2026-05-03T09:28:42.742Z</time></trkpt><trkpt lat="44.4245733" lon="10.7797017"><ele>736.0</ele><time>2026-05-03T09:28:43.743Z</time></trkpt><trkpt lat="44.4246833" lon="10.7796283"><ele>736.0</ele><time>2026-05-03T09:28:44.743Z</time></trkpt><trkpt lat="44.4247983" lon="10.7795417"><ele>736.0</ele><time>2026-05-03T09:28:45.742Z</time></trkpt><trkpt lat="44.4249017" lon="10.7794583"><ele>736.0</ele><time>2026-05-03T09:28:46.743Z</time></trkpt><trkpt lat="44.425" lon="10.779345"><ele>736.0</ele><time>2026-05-03T09:28:47.743Z</time></trkpt><trkpt lat="44.42509" lon="10.7792467"><ele>736.8333333333334</ele><time>2026-05-03T09:28:48.742Z</time></trkpt><trkpt lat="44.4251667" lon="10.779175"><ele>737.6666666666667</ele><time>2026-05-03T09:28:49.743Z</time></trkpt><trkpt lat="44.4252533" lon="10.779135"><ele>738.5</ele><time>2026-05-03T09:28:50.743Z</time></trkpt><trkpt lat="44.425345" lon="10.7791167"><ele>739.3333333333334</ele><time>2026-05-03T09:28:51.743Z</time></trkpt><trkpt lat="44.4254217" lon="10.7790733"><ele>740.1666666666666</ele><time>2026-05-03T09:28:52.743Z</time></trkpt><trkpt lat="44.425485" lon="10.7790083"><ele>741.0</ele><time>2026-05-03T09:28:53.742Z</time></trkpt><trkpt lat="44.42555" lon="10.77894"><ele>741.6666666666666</ele><time>2026-05-03T09:28:54.742Z</time></trkpt><trkpt lat="44.4256267" lon="10.7788883"><ele>742.3333333333334</ele><time>2026-05-03T09:28:55.743Z</time></trkpt><trkpt lat="44.4257083" lon="10.7788733"><ele>743.0</ele><time>2026-05-03T09:28:56.742Z</time></trkpt><trkpt lat="44.425795" lon="10.7788767"><ele>743.6666666666667</ele><time>2026-05-03T09:28:57.743Z</time></trkpt><trkpt lat="44.4258867" lon="10.77889"><ele>744.3333333333334</ele><time>2026-05-03T09:28:58.743Z</time></trkpt><trkpt lat="44.42597" lon="10.7788967"><ele>745.0</ele><time>2026-05-03T09:28:59.743Z</time></trkpt><trkpt lat="44.4260417" lon="10.7788917"><ele>745.0</ele><time>2026-05-03T09:29:00.743Z</time></trkpt><trkpt lat="44.4261117" lon="10.778865"><ele>745.0</ele><time>2026-05-03T09:29:01.742Z</time></trkpt><trkpt lat="44.42617" lon="10.7788"><ele>745.0</ele><time>2026-05-03T09:29:02.743Z</time></trkpt><trkpt lat="44.4262267" lon="10.77871"><ele>745.0</ele><time>2026-05-03T09:29:03.743Z</time></trkpt><trkpt lat="44.42629" lon="10.7786017"><ele>745.0</ele><time>2026-05-03T09:29:04.742Z</time></trkpt><trkpt lat="44.4263483" lon="10.7784817"><ele>745.0</ele><time>2026-05-03T09:29:05.742Z</time></trkpt><trkpt lat="44.4264117" lon="10.7783633"><ele>745.8333333333334</ele><time>2026-05-03T09:29:06.743Z</time></trkpt><trkpt lat="44.4264783" lon="10.7782767"><ele>746.6666666666667</ele><time>2026-05-03T09:29:07.743Z</time></trkpt><trkpt lat="44.4265567" lon="10.7782317"><ele>747.5</ele><time>2026-05-03T09:29:08.743Z</time></trkpt><trkpt lat="44.42665" lon="10.778245"><ele>748.3333333333334</ele><time>2026-05-03T09:29:10.743Z</time></trkpt><trkpt lat="44.4266467" lon="10.7781517"><ele>749.1666666666666</ele><time>2026-05-03T09:29:17.743Z</time></trkpt><trkpt lat="44.4266433" lon="10.7780233"><ele>750.0</ele><time>2026-05-03T09:29:20.742Z</time></trkpt><trkpt lat="44.426645" lon="10.777935"><ele>750.0</ele><time>2026-05-03T09:29:22.743Z</time></trkpt><trkpt lat="44.4266433" lon="10.7778267"><ele>750.0</ele><time>2026-05-03T09:29:24.742Z</time></trkpt><trkpt lat="44.4266583" lon="10.7776917"><ele>750.0</ele><time>2026-05-03T09:29:26.743Z</time></trkpt><trkpt lat="44.4267033" lon="10.777585"><ele>750.0</ele><time>2026-05-03T09:29:28.743Z</time></trkpt><trkpt lat="44.4267817" lon="10.7774817"><ele>750.0</ele><time>2026-05-03T09:29:30.743Z</time></trkpt><trkpt lat="44.4268883" lon="10.777415"><ele>751.5</ele><time>2026-05-03T09:29:32.743Z</time></trkpt><trkpt lat="44.4269517" lon="10.7773867"><ele>753.0</ele><time>2026-05-03T09:29:33.743Z</time></trkpt><trkpt lat="44.4270133" lon="10.7773267"><ele>754.5</ele><time>2026-05-03T09:29:34.742Z</time></trkpt><trkpt lat="44.4270683" lon="10.7772417"><ele>756.0</ele><time>2026-05-03T09:29:35.743Z</time></trkpt><trkpt lat="44.4271" lon="10.7771283"><ele>757.5</ele><time>2026-05-03T09:29:36.743Z</time></trkpt><trkpt lat="44.4271033" lon="10.7769933"><ele>759.0</ele><time>2026-05-03T09:29:37.742Z</time></trkpt><trkpt lat="44.427105" lon="10.7768433"><ele>759.0</ele><time>2026-05-03T09:29:38.743Z</time></trkpt><trkpt lat="44.4271033" lon="10.77669"><ele>759.0</ele><time>2026-05-03T09:29:39.743Z</time></trkpt><trkpt lat="44.4271083" lon="10.77654"><ele>759.0</ele><time>2026-05-03T09:29:40.742Z</time></trkpt><trkpt lat="44.4271333" lon="10.7764167"><ele>759.0</ele><time>2026-05-03T09:29:41.743Z</time></trkpt><trkpt lat="44.4271883" lon="10.77631"><ele>759.0</ele><time>2026-05-03T09:29:42.742Z</time></trkpt><trkpt lat="44.427265" lon="10.7762367"><ele>759.0</ele><time>2026-05-03T09:29:43.742Z</time></trkpt><trkpt lat="44.42737" lon="10.7761933"><ele>759.0</ele><time>2026-05-03T09:29:44.742Z</time></trkpt><trkpt lat="44.4274867" lon="10.7761433"><ele>759.0</ele><time>2026-05-03T09:29:45.742Z</time></trkpt><trkpt lat="44.4275933" lon="10.7760817"><ele>759.0</ele><time>2026-05-03T09:29:46.742Z</time></trkpt><trkpt lat="44.4276933" lon="10.7760167"><ele>760.8333333333334</ele><time>2026-05-03T09:29:47.742Z</time></trkpt><trkpt lat="44.42778" lon="10.77595"><ele>762.6666666666667</ele><time>2026-05-03T09:29:48.742Z</time></trkpt><trkpt lat="44.4278433" lon="10.7758767"><ele>764.5</ele><time>2026-05-03T09:29:49.742Z</time></trkpt><trkpt lat="44.42788" lon="10.7757983"><ele>766.3333333333334</ele><time>2026-05-03T09:29:50.742Z</time></trkpt><trkpt lat="44.4278817" lon="10.7757083"><ele>768.1666666666667</ele><time>2026-05-03T09:29:51.742Z</time></trkpt><trkpt lat="44.4278083" lon="10.7756067"><ele>770.0</ele><time>2026-05-03T09:29:53.742Z</time></trkpt><trkpt lat="44.42772" lon="10.775625"><ele>770.0</ele><time>2026-05-03T09:29:54.742Z</time></trkpt><trkpt lat="44.42762" lon="10.77567"><ele>770.0</ele><time>2026-05-03T09:29:55.741Z</time></trkpt><trkpt lat="44.4275217" lon="10.7757133"><ele>770.0</ele><time>2026-05-03T09:29:56.741Z</time></trkpt><trkpt lat="44.4274267" lon="10.77575"><ele>770.0</ele><time>2026-05-03T09:29:57.741Z</time></trkpt><trkpt lat="44.4273317" lon="10.7757767"><ele>770.0</ele><time>2026-05-03T09:29:58.742Z</time></trkpt><trkpt lat="44.4272383" lon="10.77577"><ele>770.0</ele><time>2026-05-03T09:29:59.742Z</time></trkpt><trkpt lat="44.427145" lon="10.7757583"><ele>770.0</ele><time>2026-05-03T09:30:00.742Z</time></trkpt><trkpt lat="44.4270483" lon="10.775765"><ele>770.0</ele><time>2026-05-03T09:30:01.742Z</time></trkpt><trkpt lat="44.4269517" lon="10.7757983"><ele>770.0</ele><time>2026-05-03T09:30:02.742Z</time></trkpt><trkpt lat="44.42687" lon="10.7758483"><ele>770.0</ele><time>2026-05-03T09:30:03.742Z</time></trkpt><trkpt lat="44.4267867" lon="10.77591"><ele>770.3333333333334</ele><time>2026-05-03T09:30:04.742Z</time></trkpt><trkpt lat="44.4267017" lon="10.7759683"><ele>770.6666666666667</ele><time>2026-05-03T09:30:05.741Z</time></trkpt><trkpt lat="44.426615" lon="10.7759983"><ele>771.0</ele><time>2026-05-03T09:30:06.742Z</time></trkpt><trkpt lat="44.426535" lon="10.776015"><ele>771.3333333333333</ele><time>2026-05-03T09:30:07.742Z</time></trkpt><trkpt lat="44.42647" lon="10.7760183"><ele>771.6666666666666</ele><time>2026-05-03T09:30:08.742Z</time></trkpt><trkpt lat="44.426355" lon="10.7760317"><ele>772.0</ele><time>2026-05-03T09:30:10.741Z</time></trkpt><trkpt lat="44.4262883" lon="10.7760567"><ele>771.9999999999999</ele><time>2026-05-03T09:30:11.742Z</time></trkpt><trkpt lat="44.4262117" lon="10.77608"><ele>772.0</ele><time>2026-05-03T09:30:12.742Z</time></trkpt><trkpt lat="44.42614" lon="10.7761133"><ele>772.0</ele><time>2026-05-03T09:30:13.742Z</time></trkpt><trkpt lat="44.4260633" lon="10.7761567"><ele>772.0</ele><time>2026-05-03T09:30:14.742Z</time></trkpt><trkpt lat="44.4259867" lon="10.7761983"><ele>771.9999999999999</ele><time>2026-05-03T09:30:15.742Z</time></trkpt><trkpt lat="44.4259067" lon="10.7762383"><ele>772.0</ele><time>2026-05-03T09:30:16.742Z</time></trkpt><trkpt lat="44.4258217" lon="10.776285"><ele>772.0</ele><time>2026-05-03T09:30:17.742Z</time></trkpt><trkpt lat="44.4257367" lon="10.7763267"><ele>772.0</ele><time>2026-05-03T09:30:18.742Z</time></trkpt><trkpt lat="44.4256383" lon="10.77637"><ele>772.0</ele><time>2026-05-03T09:30:19.742Z</time></trkpt><trkpt lat="44.4255383" lon="10.7764"><ele>772.0</ele><time>2026-05-03T09:30:20.742Z</time></trkpt><trkpt lat="44.4254417" lon="10.7764083"><ele>772.0</ele><time>2026-05-03T09:30:21.742Z</time></trkpt><trkpt lat="44.4253333" lon="10.7764233"><ele>773.25</ele><time>2026-05-03T09:30:22.742Z</time></trkpt><trkpt lat="44.4252167" lon="10.7764333"><ele>774.5</ele><time>2026-05-03T09:30:23.742Z</time></trkpt><trkpt lat="44.425095" lon="10.776445"><ele>775.75</ele><time>2026-05-03T09:30:24.742Z</time></trkpt><trkpt lat="44.4249783" lon="10.7764567"><ele>777.0</ele><time>2026-05-03T09:30:25.742Z</time></trkpt><trkpt lat="44.4248617" lon="10.7764733"><ele>777.0</ele><time>2026-05-03T09:30:26.742Z</time></trkpt><trkpt lat="44.4247517" lon="10.77648"><ele>777.0</ele><time>2026-05-03T09:30:27.742Z</time></trkpt><trkpt lat="44.4246317" lon="10.77648"><ele>777.0</ele><time>2026-05-03T09:30:28.742Z</time></trkpt><trkpt lat="44.4245083" lon="10.7764867"><ele>777.0</ele><time>2026-05-03T09:30:29.741Z</time></trkpt><trkpt lat="44.42439" lon="10.7764833"><ele>779.0</ele><time>2026-05-03T09:30:30.741Z</time></trkpt><trkpt lat="44.4242683" lon="10.7764667"><ele>781.0</ele><time>2026-05-03T09:30:31.742Z</time></trkpt><trkpt lat="44.4241433" lon="10.7764533"><ele>783.0</ele><time>2026-05-03T09:30:32.742Z</time></trkpt><trkpt lat="44.42402" lon="10.7764517"><ele>785.0</ele><time>2026-05-03T09:30:33.742Z</time></trkpt><trkpt lat="44.423895" lon="10.7764633"><ele>787.2</ele><time>2026-05-03T09:30:34.741Z</time></trkpt><trkpt lat="44.4237717" lon="10.7764817"><ele>789.4</ele><time>2026-05-03T09:30:35.742Z</time></trkpt><trkpt lat="44.42366" lon="10.7765183"><ele>791.5999999999999</ele><time>2026-05-03T09:30:36.742Z</time></trkpt><trkpt lat="44.42356" lon="10.7765517"><ele>793.8</ele><time>2026-05-03T09:30:37.742Z</time></trkpt><trkpt lat="44.4234633" lon="10.776565"><ele>796.0</ele><time>2026-05-03T09:30:38.742Z</time></trkpt><trkpt lat="44.42337" lon="10.776555"><ele>796.0</ele><time>2026-05-03T09:30:39.742Z</time></trkpt><trkpt lat="44.423275" lon="10.776525"><ele>796.0</ele><time>2026-05-03T09:30:40.742Z</time></trkpt><trkpt lat="44.42319" lon="10.776475"><ele>796.0</ele><time>2026-05-03T09:30:41.742Z</time></trkpt><trkpt lat="44.4231117" lon="10.77643"><ele>796.0</ele><time>2026-05-03T09:30:42.742Z</time></trkpt><trkpt lat="44.4230333" lon="10.77637"><ele>796.0</ele><time>2026-05-03T09:30:43.742Z</time></trkpt><trkpt lat="44.4229433" lon="10.7763167"><ele>796.4</ele><time>2026-05-03T09:30:44.742Z</time></trkpt><trkpt lat="44.4228517" lon="10.7762717"><ele>796.8</ele><time>2026-05-03T09:30:45.742Z</time></trkpt><trkpt lat="44.422755" lon="10.7762383"><ele>797.1999999999999</ele><time>2026-05-03T09:30:46.742Z</time></trkpt><trkpt lat="44.4226567" lon="10.7762067"><ele>797.5999999999999</ele><time>2026-05-03T09:30:47.742Z</time></trkpt><trkpt lat="44.42256" lon="10.776175"><ele>798.0</ele><time>2026-05-03T09:30:48.742Z</time></trkpt><trkpt lat="44.4224633" lon="10.7761417"><ele>798.0</ele><time>2026-05-03T09:30:49.742Z</time></trkpt><trkpt lat="44.422365" lon="10.7761117"><ele>798.0</ele><time>2026-05-03T09:30:50.742Z</time></trkpt><trkpt lat="44.4222783" lon="10.7760967"><ele>798.0</ele><time>2026-05-03T09:30:51.742Z</time></trkpt><trkpt lat="44.422205" lon="10.77607"><ele>798.0</ele><time>2026-05-03T09:30:52.742Z</time></trkpt><trkpt lat="44.42214" lon="10.7760467"><ele>798.0</ele><time>2026-05-03T09:30:53.742Z</time></trkpt><trkpt lat="44.42204" lon="10.7759667"><ele>798.0</ele><time>2026-05-03T09:30:55.742Z</time></trkpt><trkpt lat="44.4220183" lon="10.7758333"><ele>800.1666666666666</ele><time>2026-05-03T09:30:57.742Z</time></trkpt><trkpt lat="44.4220667" lon="10.7756933"><ele>802.3333333333333</ele><time>2026-05-03T09:30:59.742Z</time></trkpt><trkpt lat="44.422125" lon="10.77564"><ele>804.5</ele><time>2026-05-03T09:31:00.742Z</time></trkpt><trkpt lat="44.4222033" lon="10.7755917"><ele>806.6666666666666</ele><time>2026-05-03T09:31:01.742Z</time></trkpt><trkpt lat="44.42228" lon="10.7755483"><ele>808.8333333333333</ele><time>2026-05-03T09:31:02.742Z</time></trkpt><trkpt lat="44.4223633" lon="10.775495"><ele>811.0</ele><time>2026-05-03T09:31:03.742Z</time></trkpt><trkpt lat="44.4224483" lon="10.77543"><ele>810.9999999999999</ele><time>2026-05-03T09:31:04.741Z</time></trkpt><trkpt lat="44.4225217" lon="10.775365"><ele>811.0</ele><time>2026-05-03T09:31:05.741Z</time></trkpt><trkpt lat="44.4225933" lon="10.77529"><ele>811.0</ele><time>2026-05-03T09:31:06.741Z</time></trkpt><trkpt lat="44.4226617" lon="10.77521"><ele>811.0</ele><time>2026-05-03T09:31:07.742Z</time></trkpt><trkpt lat="44.4227367" lon="10.7751367"><ele>810.9999999999999</ele><time>2026-05-03T09:31:08.741Z</time></trkpt><trkpt lat="44.4228133" lon="10.7750667"><ele>811.0</ele><time>2026-05-03T09:31:09.741Z</time></trkpt><trkpt lat="44.422885" lon="10.7749917"><ele>810.8333333333333</ele><time>2026-05-03T09:31:10.742Z</time></trkpt><trkpt lat="44.4229617" lon="10.774915"><ele>810.6666666666666</ele><time>2026-05-03T09:31:11.742Z</time></trkpt><trkpt lat="44.4230417" lon="10.7748433"><ele>810.5</ele><time>2026-05-03T09:31:12.742Z</time></trkpt><trkpt lat="44.42312" lon="10.7747817"><ele>810.3333333333333</ele><time>2026-05-03T09:31:13.742Z</time></trkpt><trkpt lat="44.4231867" lon="10.7747083"><ele>810.1666666666666</ele><time>2026-05-03T09:31:14.742Z</time></trkpt><trkpt lat="44.4232417" lon="10.7746283"><ele>810.0</ele><time>2026-05-03T09:31:15.742Z</time></trkpt><trkpt lat="44.4232867" lon="10.7745467"><ele>810.0</ele><time>2026-05-03T09:31:16.742Z</time></trkpt><trkpt lat="44.423315" lon="10.7744483"><ele>810.0</ele><time>2026-05-03T09:31:17.741Z</time></trkpt><trkpt lat="44.423345" lon="10.7743017"><ele>810.0</ele><time>2026-05-03T09:31:19.742Z</time></trkpt><trkpt lat="44.423375" lon="10.7741567"><ele>810.0</ele><time>2026-05-03T09:31:21.741Z</time></trkpt><trkpt lat="44.423425" lon="10.7739733"><ele>810.0</ele><time>2026-05-03T09:31:23.742Z</time></trkpt><trkpt lat="44.4234583" lon="10.773855"><ele>812.0</ele><time>2026-05-03T09:31:24.742Z</time></trkpt><trkpt lat="44.4234933" lon="10.773735"><ele>814.0</ele><time>2026-05-03T09:31:25.742Z</time></trkpt><trkpt lat="44.42353" lon="10.7736267"><ele>816.0</ele><time>2026-05-03T09:31:26.741Z</time></trkpt><trkpt lat="44.4235733" lon="10.77353"><ele>818.0</ele><time>2026-05-03T09:31:27.742Z</time></trkpt><trkpt lat="44.423615" lon="10.7734283"><ele>820.0</ele><time>2026-05-03T09:31:28.742Z</time></trkpt><trkpt lat="44.423655" lon="10.773335"><ele>822.0</ele><time>2026-05-03T09:31:29.742Z</time></trkpt><trkpt lat="44.423695" lon="10.773245"><ele>824.2</ele><time>2026-05-03T09:31:30.741Z</time></trkpt><trkpt lat="44.4237517" lon="10.7731133"><ele>826.4000000000001</ele><time>2026-05-03T09:31:32.741Z</time></trkpt><trkpt lat="44.4237717" lon="10.772975"><ele>828.5999999999999</ele><time>2026-05-03T09:31:34.742Z</time></trkpt><trkpt lat="44.4238033" lon="10.7728133"><ele>830.8</ele><time>2026-05-03T09:31:36.742Z</time></trkpt><trkpt lat="44.4238283" lon="10.7727317"><ele>833.0</ele><time>2026-05-03T09:31:37.742Z</time></trkpt><trkpt lat="44.42386" lon="10.7726433"><ele>835.8571428571429</ele><time>2026-05-03T09:31:38.742Z</time></trkpt><trkpt lat="44.4238967" lon="10.7725667"><ele>838.7142857142858</ele><time>2026-05-03T09:31:39.742Z</time></trkpt><trkpt lat="44.4239333" lon="10.7724833"><ele>841.5714285714286</ele><time>2026-05-03T09:31:40.742Z</time></trkpt><trkpt lat="44.4239683" lon="10.7723933"><ele>844.4285714285714</ele><time>2026-05-03T09:31:41.742Z</time></trkpt><trkpt lat="44.4239933" lon="10.772295"><ele>847.2857142857143</ele><time>2026-05-03T09:31:42.742Z</time></trkpt><trkpt lat="44.4240333" lon="10.772195"><ele>850.1428571428571</ele><time>2026-05-03T09:31:43.742Z</time></trkpt><trkpt lat="44.4240717" lon="10.7721"><ele>853.0</ele><time>2026-05-03T09:31:44.742Z</time></trkpt><trkpt lat="44.42411" lon="10.7720283"><ele>853.0</ele><time>2026-05-03T09:31:45.741Z</time></trkpt><trkpt lat="44.4241583" lon="10.7719583"><ele>853.0</ele><time>2026-05-03T09:31:46.742Z</time></trkpt><trkpt lat="44.424235" lon="10.771885"><ele>853.0</ele><time>2026-05-03T09:31:47.742Z</time></trkpt><trkpt lat="44.4243133" lon="10.771805"><ele>853.0</ele><time>2026-05-03T09:31:48.741Z</time></trkpt><trkpt lat="44.4243967" lon="10.7717067"><ele>853.0</ele><time>2026-05-03T09:31:49.741Z</time></trkpt><trkpt lat="44.4244683" lon="10.7715867"><ele>852.8</ele><time>2026-05-03T09:31:50.742Z</time></trkpt><trkpt lat="44.42453" lon="10.7714783"><ele>852.5999999999999</ele><time>2026-05-03T09:31:51.742Z</time></trkpt><trkpt lat="44.4246017" lon="10.77138"><ele>852.4000000000001</ele><time>2026-05-03T09:31:52.742Z</time></trkpt><trkpt lat="44.4246783" lon="10.7712767"><ele>852.2</ele><time>2026-05-03T09:31:53.742Z</time></trkpt><trkpt lat="44.4247467" lon="10.77118"><ele>852.0</ele><time>2026-05-03T09:31:54.742Z</time></trkpt><trkpt lat="44.4248033" lon="10.7710717"><ele>851.5</ele><time>2026-05-03T09:31:55.742Z</time></trkpt><trkpt lat="44.4248567" lon="10.7709683"><ele>851.0</ele><time>2026-05-03T09:31:56.742Z</time></trkpt><trkpt lat="44.4249133" lon="10.77089"><ele>850.5</ele><time>2026-05-03T09:31:57.742Z</time></trkpt><trkpt lat="44.42497" lon="10.770835"><ele>850.0</ele><time>2026-05-03T09:31:58.742Z</time></trkpt><trkpt lat="44.42503" lon="10.7707867"><ele>849.5</ele><time>2026-05-03T09:31:59.742Z</time></trkpt><trkpt lat="44.4250867" lon="10.77072"><ele>849.0</ele><time>2026-05-03T09:32:01.742Z</time></trkpt><trkpt lat="44.425165" lon="10.77063"><ele>849.0</ele><time>2026-05-03T09:32:07.741Z</time></trkpt><trkpt lat="44.4252383" lon="10.7705667"><ele>849.0</ele><time>2026-05-03T09:32:08.742Z</time></trkpt><trkpt lat="44.4253233" lon="10.77048"><ele>849.0</ele><time>2026-05-03T09:32:09.742Z</time></trkpt><trkpt lat="44.4254" lon="10.770365"><ele>849.0</ele><time>2026-05-03T09:32:10.741Z</time></trkpt><trkpt lat="44.4254667" lon="10.77024"><ele>849.0</ele><time>2026-05-03T09:32:11.742Z</time></trkpt><trkpt lat="44.425505" lon="10.770085"><ele>848.5</ele><time>2026-05-03T09:32:12.742Z</time></trkpt><trkpt lat="44.4255117" lon="10.7699133"><ele>848.0</ele><time>2026-05-03T09:32:13.742Z</time></trkpt><trkpt lat="44.4255" lon="10.76974"><ele>847.5</ele><time>2026-05-03T09:32:14.741Z</time></trkpt><trkpt lat="44.4254783" lon="10.76956"><ele>847.0</ele><time>2026-05-03T09:32:15.742Z</time></trkpt><trkpt lat="44.4254583" lon="10.76938"><ele>848.25</ele><time>2026-05-03T09:32:16.742Z</time></trkpt><trkpt lat="44.4254333" lon="10.7692033"><ele>849.5</ele><time>2026-05-03T09:32:17.741Z</time></trkpt><trkpt lat="44.4254083" lon="10.7690267"><ele>850.75</ele><time>2026-05-03T09:32:18.742Z</time></trkpt><trkpt lat="44.4253767" lon="10.76885"><ele>852.0</ele><time>2026-05-03T09:32:19.742Z</time></trkpt><trkpt lat="44.4253467" lon="10.768675"><ele>853.25</ele><time>2026-05-03T09:32:20.742Z</time></trkpt><trkpt lat="44.4253183" lon="10.7685"><ele>854.5</ele><time>2026-05-03T09:32:21.742Z</time></trkpt><trkpt lat="44.4252867" lon="10.7683367"><ele>855.75</ele><time>2026-05-03T09:32:22.742Z</time></trkpt><trkpt lat="44.425255" lon="10.7681733"><ele>857.0</ele><time>2026-05-03T09:32:23.741Z</time></trkpt><trkpt lat="44.4252283" lon="10.7680133"><ele>857.0</ele><time>2026-05-03T09:32:24.742Z</time></trkpt><trkpt lat="44.425205" lon="10.76785"><ele>857.0</ele><time>2026-05-03T09:32:25.742Z</time></trkpt><trkpt lat="44.4251867" lon="10.7676883"><ele>857.0</ele><time>2026-05-03T09:32:26.741Z</time></trkpt><trkpt lat="44.4251633" lon="10.767535"><ele>857.0</ele><time>2026-05-03T09:32:27.742Z</time></trkpt><trkpt lat="44.4251367" lon="10.7673833"><ele>857.8</ele><time>2026-05-03T09:32:28.742Z</time></trkpt><trkpt lat="44.4251133" lon="10.7672467"><ele>858.6</ele><time>2026-05-03T09:32:29.742Z</time></trkpt><trkpt lat="44.4250967" lon="10.7671167"><ele>859.3999999999999</ele><time>2026-05-03T09:32:30.742Z</time></trkpt><trkpt lat="44.4251117" lon="10.767"><ele>860.1999999999999</ele><time>2026-05-03T09:32:31.741Z</time></trkpt><trkpt lat="44.4251417" lon="10.7668883"><ele>861.0</ele><time>2026-05-03T09:32:32.741Z</time></trkpt><trkpt lat="44.425185" lon="10.7667833"><ele>861.5999999999999</ele><time>2026-05-03T09:32:33.742Z</time></trkpt><trkpt lat="44.42523" lon="10.7667017"><ele>862.1999999999999</ele><time>2026-05-03T09:32:34.742Z</time></trkpt><trkpt lat="44.425315" lon="10.76662"><ele>862.8000000000001</ele><time>2026-05-03T09:32:36.741Z</time></trkpt><trkpt lat="44.4254167" lon="10.7666117"><ele>863.4000000000001</ele><time>2026-05-03T09:32:38.742Z</time></trkpt><trkpt lat="44.4254783" lon="10.7666567"><ele>864.0</ele><time>2026-05-03T09:32:39.741Z</time></trkpt><trkpt lat="44.4255767" lon="10.766755"><ele>865.25</ele><time>2026-05-03T09:32:40.742Z</time></trkpt><trkpt lat="44.4256833" lon="10.7668617"><ele>866.5</ele><time>2026-05-03T09:32:41.742Z</time></trkpt><trkpt lat="44.425805" lon="10.7669283"><ele>867.75</ele><time>2026-05-03T09:32:42.742Z</time></trkpt><trkpt lat="44.42593" lon="10.7669617"><ele>869.0</ele><time>2026-05-03T09:32:43.742Z</time></trkpt><trkpt lat="44.42605" lon="10.76695"><ele>869.0</ele><time>2026-05-03T09:32:44.741Z</time></trkpt><trkpt lat="44.4261583" lon="10.7669317"><ele>869.0000000000001</ele><time>2026-05-03T09:32:45.742Z</time></trkpt><trkpt lat="44.4262633" lon="10.7669033"><ele>869.0000000000001</ele><time>2026-05-03T09:32:46.742Z</time></trkpt><trkpt lat="44.4263517" lon="10.7668583"><ele>869.0</ele><time>2026-05-03T09:32:47.741Z</time></trkpt><trkpt lat="44.4264317" lon="10.76677"><ele>869.0</ele><time>2026-05-03T09:32:48.742Z</time></trkpt><trkpt lat="44.4264933" lon="10.7666617"><ele>869.0</ele><time>2026-05-03T09:32:49.741Z</time></trkpt><trkpt lat="44.42654" lon="10.7665517"><ele>869.0000000000001</ele><time>2026-05-03T09:32:50.742Z</time></trkpt><trkpt lat="44.4265667" lon="10.766425"><ele>869.0000000000001</ele><time>2026-05-03T09:32:51.741Z</time></trkpt><trkpt lat="44.42658" lon="10.7662867"><ele>869.0</ele><time>2026-05-03T09:32:52.742Z</time></trkpt><trkpt lat="44.42658" lon="10.7661433"><ele>869.0</ele><time>2026-05-03T09:32:53.741Z</time></trkpt><trkpt lat="44.4265867" lon="10.76598"><ele>869.5</ele><time>2026-05-03T09:32:54.742Z</time></trkpt><trkpt lat="44.4265833" lon="10.7658133"><ele>870.0</ele><time>2026-05-03T09:32:55.742Z</time></trkpt><trkpt lat="44.4265867" lon="10.7656483"><ele>870.5</ele><time>2026-05-03T09:32:56.742Z</time></trkpt><trkpt lat="44.4265733" lon="10.7654933"><ele>871.0</ele><time>2026-05-03T09:32:57.742Z</time></trkpt><trkpt lat="44.4265533" lon="10.7653467"><ele>871.0</ele><time>2026-05-03T09:32:58.742Z</time></trkpt><trkpt lat="44.4265233" lon="10.76521"><ele>870.9999999999999</ele><time>2026-05-03T09:32:59.742Z</time></trkpt><trkpt lat="44.4264833" lon="10.7650733"><ele>870.9999999999999</ele><time>2026-05-03T09:33:00.742Z</time></trkpt><trkpt lat="44.426445" lon="10.7649417"><ele>871.0</ele><time>2026-05-03T09:33:01.742Z</time></trkpt><trkpt lat="44.4264033" lon="10.7647967"><ele>871.0</ele><time>2026-05-03T09:33:02.742Z</time></trkpt><trkpt lat="44.4263667" lon="10.7646467"><ele>871.75</ele><time>2026-05-03T09:33:03.742Z</time></trkpt><trkpt lat="44.4263333" lon="10.76449"><ele>872.5</ele><time>2026-05-03T09:33:04.742Z</time></trkpt><trkpt lat="44.4263" lon="10.76434"><ele>873.25</ele><time>2026-05-03T09:33:05.742Z</time></trkpt><trkpt lat="44.4262667" lon="10.76419"><ele>874.0</ele><time>2026-05-03T09:33:06.742Z</time></trkpt><trkpt lat="44.42623" lon="10.7640433"><ele>875.0</ele><time>2026-05-03T09:33:07.741Z</time></trkpt><trkpt lat="44.4261717" lon="10.7639017"><ele>876.0</ele><time>2026-05-03T09:33:08.742Z</time></trkpt><trkpt lat="44.426105" lon="10.763765"><ele>877.0</ele><time>2026-05-03T09:33:09.742Z</time></trkpt><trkpt lat="44.42603" lon="10.76364"><ele>878.0</ele><time>2026-05-03T09:33:10.742Z</time></trkpt><trkpt lat="44.42595" lon="10.7635167"><ele>878.0</ele><time>2026-05-03T09:33:11.742Z</time></trkpt><trkpt lat="44.4258833" lon="10.76339"><ele>878.0</ele><time>2026-05-03T09:33:12.742Z</time></trkpt><trkpt lat="44.4258133" lon="10.763265"><ele>878.0</ele><time>2026-05-03T09:33:13.741Z</time></trkpt><trkpt lat="44.4257583" lon="10.7631617"><ele>878.0</ele><time>2026-05-03T09:33:14.742Z</time></trkpt><trkpt lat="44.4257117" lon="10.763075"><ele>878.0</ele><time>2026-05-03T09:33:15.742Z</time></trkpt><trkpt lat="44.4256717" lon="10.763"><ele>878.0</ele><time>2026-05-03T09:33:16.742Z</time></trkpt><trkpt lat="44.425625" lon="10.7628883"><ele>878.0</ele><time>2026-05-03T09:33:18.741Z</time></trkpt><trkpt lat="44.4255717" lon="10.762765"><ele>878.0</ele><time>2026-05-03T09:33:20.742Z</time></trkpt><trkpt lat="44.4255217" lon="10.7626483"><ele>878.0</ele><time>2026-05-03T09:33:22.741Z</time></trkpt><trkpt lat="44.4254717" lon="10.7625283"><ele>878.0</ele><time>2026-05-03T09:33:24.741Z</time></trkpt><trkpt lat="44.425435" lon="10.7623867"><ele>875.8</ele><time>2026-05-03T09:33:26.742Z</time></trkpt><trkpt lat="44.425385" lon="10.7622083"><ele>873.5999999999999</ele><time>2026-05-03T09:33:28.742Z</time></trkpt><trkpt lat="44.425365" lon="10.7621017"><ele>871.4000000000001</ele><time>2026-05-03T09:33:29.742Z</time></trkpt><trkpt lat="44.4253533" lon="10.7619833"><ele>869.2</ele><time>2026-05-03T09:33:30.742Z</time></trkpt><trkpt lat="44.42535" lon="10.7618683"><ele>867.0</ele><time>2026-05-03T09:33:31.741Z</time></trkpt><trkpt lat="44.425355" lon="10.7617533"><ele>865.8333333333334</ele><time>2026-05-03T09:33:32.742Z</time></trkpt><trkpt lat="44.4253683" lon="10.7616333"><ele>864.6666666666667</ele><time>2026-05-03T09:33:33.742Z</time></trkpt><trkpt lat="44.425395" lon="10.7615333"><ele>863.5</ele><time>2026-05-03T09:33:34.741Z</time></trkpt><trkpt lat="44.4254333" lon="10.761445"><ele>862.3333333333334</ele><time>2026-05-03T09:33:35.742Z</time></trkpt><trkpt lat="44.4254867" lon="10.7613617"><ele>861.1666666666667</ele><time>2026-05-03T09:33:36.742Z</time></trkpt><trkpt lat="44.4255583" lon="10.7612733"><ele>860.0</ele><time>2026-05-03T09:33:37.742Z</time></trkpt><trkpt lat="44.4256383" lon="10.7611917"><ele>862.4</ele><time>2026-05-03T09:33:38.742Z</time></trkpt><trkpt lat="44.425695" lon="10.7611083"><ele>864.8</ele><time>2026-05-03T09:33:39.742Z</time></trkpt><trkpt lat="44.42574" lon="10.761005"><ele>867.2</ele><time>2026-05-03T09:33:40.742Z</time></trkpt><trkpt lat="44.4257717" lon="10.7608867"><ele>869.6</ele><time>2026-05-03T09:33:41.741Z</time></trkpt><trkpt lat="44.425765" lon="10.7607433"><ele>872.0</ele><time>2026-05-03T09:33:42.741Z</time></trkpt><trkpt lat="44.42576" lon="10.7605933"><ele>872.0</ele><time>2026-05-03T09:33:43.742Z</time></trkpt><trkpt lat="44.425735" lon="10.7604517"><ele>872.0</ele><time>2026-05-03T09:33:44.741Z</time></trkpt><trkpt lat="44.4257117" lon="10.760315"><ele>872.0</ele><time>2026-05-03T09:33:45.742Z</time></trkpt><trkpt lat="44.4257017" lon="10.760175"><ele>872.0</ele><time>2026-05-03T09:33:46.742Z</time></trkpt><trkpt lat="44.4256933" lon="10.760035"><ele>872.0</ele><time>2026-05-03T09:33:47.741Z</time></trkpt><trkpt lat="44.4256917" lon="10.7598933"><ele>871.8333333333334</ele><time>2026-05-03T09:33:48.742Z</time></trkpt><trkpt lat="44.4256983" lon="10.759755"><ele>871.6666666666667</ele><time>2026-05-03T09:33:49.742Z</time></trkpt><trkpt lat="44.4256933" lon="10.7596267"><ele>871.5</ele><time>2026-05-03T09:33:50.742Z</time></trkpt><trkpt lat="44.4256733" lon="10.7595167"><ele>871.3333333333333</ele><time>2026-05-03T09:33:51.742Z</time></trkpt><trkpt lat="44.425665" lon="10.7594117"><ele>871.1666666666666</ele><time>2026-05-03T09:33:52.742Z</time></trkpt><trkpt lat="44.42567" lon="10.7592983"><ele>871.0</ele><time>2026-05-03T09:33:53.742Z</time></trkpt><trkpt lat="44.4256933" lon="10.7591883"><ele>870.6666666666666</ele><time>2026-05-03T09:33:54.741Z</time></trkpt><trkpt lat="44.4257333" lon="10.7590917"><ele>870.3333333333333</ele><time>2026-05-03T09:33:55.742Z</time></trkpt><trkpt lat="44.425775" lon="10.7589867"><ele>870.0</ele><time>2026-05-03T09:33:56.742Z</time></trkpt><trkpt lat="44.4257917" lon="10.7588667"><ele>869.6666666666667</ele><time>2026-05-03T09:33:57.742Z</time></trkpt><trkpt lat="44.4257917" lon="10.758745"><ele>869.3333333333334</ele><time>2026-05-03T09:33:58.742Z</time></trkpt><trkpt lat="44.4257667" lon="10.7586283"><ele>869.0</ele><time>2026-05-03T09:33:59.742Z</time></trkpt><trkpt lat="44.425725" lon="10.7585"><ele>868.8000000000001</ele><time>2026-05-03T09:34:00.741Z</time></trkpt><trkpt lat="44.42568" lon="10.758385"><ele>868.6000000000001</ele><time>2026-05-03T09:34:01.742Z</time></trkpt><trkpt lat="44.4256317" lon="10.7582617"><ele>868.4</ele><time>2026-05-03T09:34:02.742Z</time></trkpt><trkpt lat="44.4256" lon="10.758115"><ele>868.2</ele><time>2026-05-03T09:34:03.742Z</time></trkpt><trkpt lat="44.425585" lon="10.7579733"><ele>868.0</ele><time>2026-05-03T09:34:04.741Z</time></trkpt><trkpt lat="44.4255917" lon="10.7578233"><ele>868.8</ele><time>2026-05-03T09:34:05.742Z</time></trkpt><trkpt lat="44.42561" lon="10.7576833"><ele>869.5999999999999</ele><time>2026-05-03T09:34:06.742Z</time></trkpt><trkpt lat="44.4256417" lon="10.7575517"><ele>870.4000000000001</ele><time>2026-05-03T09:34:07.741Z</time></trkpt><trkpt lat="44.425675" lon="10.7574283"><ele>871.2</ele><time>2026-05-03T09:34:08.741Z</time></trkpt><trkpt lat="44.4257167" lon="10.7573067"><ele>872.0</ele><time>2026-05-03T09:34:09.741Z</time></trkpt><trkpt lat="44.425765" lon="10.7571817"><ele>872.0</ele><time>2026-05-03T09:34:10.74Z</time></trkpt><trkpt lat="44.4258133" lon="10.7570467"><ele>872.0</ele><time>2026-05-03T09:34:11.741Z</time></trkpt><trkpt lat="44.4258633" lon="10.7569117"><ele>872.0</ele><time>2026-05-03T09:34:12.741Z</time></trkpt><trkpt lat="44.4259167" lon="10.756775"><ele>872.0</ele><time>2026-05-03T09:34:13.741Z</time></trkpt><trkpt lat="44.4259717" lon="10.75664"><ele>872.0</ele><time>2026-05-03T09:34:14.74Z</time></trkpt><trkpt lat="44.42602" lon="10.75652"><ele>872.0</ele><time>2026-05-03T09:34:15.741Z</time></trkpt><trkpt lat="44.4260717" lon="10.7563933"><ele>872.0</ele><time>2026-05-03T09:34:16.741Z</time></trkpt><trkpt lat="44.426115" lon="10.7562633"><ele>872.0</ele><time>2026-05-03T09:34:17.741Z</time></trkpt><trkpt lat="44.4261517" lon="10.7561267"><ele>872.0</ele><time>2026-05-03T09:34:18.74Z</time></trkpt><trkpt lat="44.4261867" lon="10.7559967"><ele>872.0</ele><time>2026-05-03T09:34:19.741Z</time></trkpt><trkpt lat="44.4262233" lon="10.7558467"><ele>872.2</ele><time>2026-05-03T09:34:20.741Z</time></trkpt><trkpt lat="44.4262633" lon="10.7557017"><ele>872.4000000000001</ele><time>2026-05-03T09:34:21.741Z</time></trkpt><trkpt lat="44.4263067" lon="10.7555633"><ele>872.5999999999999</ele><time>2026-05-03T09:34:22.741Z</time></trkpt><trkpt lat="44.426325" lon="10.7554733"><ele>872.8</ele><time>2026-05-03T09:34:23.74Z</time></trkpt><trkpt lat="44.4263667" lon="10.7553367"><ele>873.0</ele><time>2026-05-03T09:34:25.741Z</time></trkpt><trkpt lat="44.4264017" lon="10.7552283"><ele>871.8333333333334</ele><time>2026-05-03T09:34:27.741Z</time></trkpt><trkpt lat="44.4264383" lon="10.75512"><ele>870.6666666666667</ele><time>2026-05-03T09:34:29.74Z</time></trkpt><trkpt lat="44.4264833" lon="10.7549817"><ele>869.5</ele><time>2026-05-03T09:34:31.741Z</time></trkpt><trkpt lat="44.42651" lon="10.754895"><ele>868.3333333333334</ele><time>2026-05-03T09:34:32.74Z</time></trkpt><trkpt lat="44.4265367" lon="10.754805"><ele>867.1666666666667</ele><time>2026-05-03T09:34:33.741Z</time></trkpt><trkpt lat="44.4265567" lon="10.7547133"><ele>866.0</ele><time>2026-05-03T09:34:34.741Z</time></trkpt><trkpt lat="44.4265767" lon="10.754615"><ele>866.0000000000001</ele><time>2026-05-03T09:34:35.741Z</time></trkpt><trkpt lat="44.4266083" lon="10.7545133"><ele>866.0</ele><time>2026-05-03T09:34:36.741Z</time></trkpt><trkpt lat="44.4266367" lon="10.7544167"><ele>866.0</ele><time>2026-05-03T09:34:37.741Z</time></trkpt><trkpt lat="44.4266667" lon="10.7543117"><ele>866.0</ele><time>2026-05-03T09:34:38.74Z</time></trkpt><trkpt lat="44.4266933" lon="10.7542083"><ele>866.0000000000001</ele><time>2026-05-03T09:34:39.741Z</time></trkpt><trkpt lat="44.4267183" lon="10.7541067"><ele>866.0</ele><time>2026-05-03T09:34:40.741Z</time></trkpt><trkpt lat="44.4267433" lon="10.7539983"><ele>864.6666666666667</ele><time>2026-05-03T09:34:41.741Z</time></trkpt><trkpt lat="44.4267567" lon="10.7539083"><ele>863.3333333333334</ele><time>2026-05-03T09:34:42.741Z</time></trkpt><trkpt lat="44.4267833" lon="10.7538183"><ele>862.0</ele><time>2026-05-03T09:34:43.74Z</time></trkpt><trkpt lat="44.4268133" lon="10.75369"><ele>860.6666666666667</ele><time>2026-05-03T09:34:45.741Z</time></trkpt><trkpt lat="44.4268417" lon="10.7535667"><ele>859.3333333333334</ele><time>2026-05-03T09:34:47.74Z</time></trkpt><trkpt lat="44.4268733" lon="10.7534583"><ele>858.0</ele><time>2026-05-03T09:34:49.741Z</time></trkpt><trkpt lat="44.42688" lon="10.75335"><ele>856.5</ele><time>2026-05-03T09:35:45.741Z</time></trkpt><trkpt lat="44.42692" lon="10.753235"><ele>855.0</ele><time>2026-05-03T09:35:48.741Z</time></trkpt><trkpt lat="44.426955" lon="10.753125"><ele>853.5</ele><time>2026-05-03T09:35:50.741Z</time></trkpt><trkpt lat="44.4269833" lon="10.7530117"><ele>852.0</ele><time>2026-05-03T09:35:52.74Z</time></trkpt><trkpt lat="44.4270083" lon="10.7528983"><ele>850.5</ele><time>2026-05-03T09:35:54.741Z</time></trkpt><trkpt lat="44.427025" lon="10.7527883"><ele>849.0</ele><time>2026-05-03T09:35:56.74Z</time></trkpt><trkpt lat="44.427035" lon="10.7526817"><ele>848.2857142857143</ele><time>2026-05-03T09:35:58.74Z</time></trkpt><trkpt lat="44.427045" lon="10.7525867"><ele>847.5714285714286</ele><time>2026-05-03T09:36:00.741Z</time></trkpt><trkpt lat="44.42707" lon="10.7524983"><ele>846.8571428571429</ele><time>2026-05-03T09:36:03.741Z</time></trkpt><trkpt lat="44.42711" lon="10.75242"><ele>846.1428571428571</ele><time>2026-05-03T09:36:06.741Z</time></trkpt><trkpt lat="44.4271433" lon="10.7523367"><ele>845.4285714285714</ele><time>2026-05-03T09:36:09.74Z</time></trkpt><trkpt lat="44.427185" lon="10.75225"><ele>844.7142857142858</ele><time>2026-05-03T09:36:12.74Z</time></trkpt><trkpt lat="44.42721" lon="10.7521383"><ele>844.0</ele><time>2026-05-03T09:36:15.74Z</time></trkpt><trkpt lat="44.4272517" lon="10.752025"><ele>843.8571428571429</ele><time>2026-05-03T09:36:17.741Z</time></trkpt><trkpt lat="44.4272867" lon="10.7519467"><ele>843.7142857142858</ele><time>2026-05-03T09:36:18.741Z</time></trkpt><trkpt lat="44.4273333" lon="10.751855"><ele>843.5714285714286</ele><time>2026-05-03T09:36:19.741Z</time></trkpt><trkpt lat="44.4273767" lon="10.75177"><ele>843.4285714285714</ele><time>2026-05-03T09:36:20.741Z</time></trkpt><trkpt lat="44.42742" lon="10.7516883"><ele>843.2857142857142</ele><time>2026-05-03T09:36:21.741Z</time></trkpt><trkpt lat="44.4274617" lon="10.75159"><ele>843.1428571428571</ele><time>2026-05-03T09:36:22.741Z</time></trkpt><trkpt lat="44.427495" lon="10.75151"><ele>843.0</ele><time>2026-05-03T09:36:23.741Z</time></trkpt><trkpt lat="44.4275283" lon="10.751435"><ele>843.0</ele><time>2026-05-03T09:36:24.741Z</time></trkpt><trkpt lat="44.42757" lon="10.7512983"><ele>843.0</ele><time>2026-05-03T09:36:26.741Z</time></trkpt><trkpt lat="44.4276067" lon="10.751155"><ele>843.0</ele><time>2026-05-03T09:36:28.74Z</time></trkpt><trkpt lat="44.4276733" lon="10.7510217"><ele>843.0</ele><time>2026-05-03T09:36:30.741Z</time></trkpt><trkpt lat="44.4277133" lon="10.75095"><ele>843.0</ele><time>2026-05-03T09:36:31.741Z</time></trkpt><trkpt lat="44.4277667" lon="10.7508883"><ele>841.1666666666666</ele><time>2026-05-03T09:36:32.741Z</time></trkpt><trkpt lat="44.4278183" lon="10.7508017"><ele>839.3333333333333</ele><time>2026-05-03T09:36:33.741Z</time></trkpt><trkpt lat="44.4278667" lon="10.7507183"><ele>837.5</ele><time>2026-05-03T09:36:34.741Z</time></trkpt><trkpt lat="44.4279133" lon="10.750635"><ele>835.6666666666666</ele><time>2026-05-03T09:36:35.74Z</time></trkpt><trkpt lat="44.427965" lon="10.7505517"><ele>833.8333333333333</ele><time>2026-05-03T09:36:36.74Z</time></trkpt><trkpt lat="44.4280183" lon="10.750485"><ele>832.0</ele><time>2026-05-03T09:36:37.74Z</time></trkpt><trkpt lat="44.4280783" lon="10.7504183"><ele>832.0</ele><time>2026-05-03T09:36:38.741Z</time></trkpt><trkpt lat="44.4281317" lon="10.7503617"><ele>832.0</ele><time>2026-05-03T09:36:39.741Z</time></trkpt><trkpt lat="44.42819" lon="10.7502967"><ele>832.0</ele><time>2026-05-03T09:36:40.741Z</time></trkpt><trkpt lat="44.4282517" lon="10.7502383"><ele>832.0</ele><time>2026-05-03T09:36:41.74Z</time></trkpt><trkpt lat="44.42832" lon="10.7501783"><ele>832.0</ele><time>2026-05-03T09:36:42.741Z</time></trkpt><trkpt lat="44.4283867" lon="10.7501317"><ele>832.0</ele><time>2026-05-03T09:36:43.741Z</time></trkpt><trkpt lat="44.4284517" lon="10.7500867"><ele>832.0</ele><time>2026-05-03T09:36:44.741Z</time></trkpt><trkpt lat="44.428515" lon="10.75005"><ele>829.4285714285714</ele><time>2026-05-03T09:36:45.741Z</time></trkpt><trkpt lat="44.428575" lon="10.750005"><ele>826.8571428571429</ele><time>2026-05-03T09:36:46.74Z</time></trkpt><trkpt lat="44.428635" lon="10.7499567"><ele>824.2857142857143</ele><time>2026-05-03T09:36:47.741Z</time></trkpt><trkpt lat="44.428695" lon="10.74991"><ele>821.7142857142858</ele><time>2026-05-03T09:36:48.741Z</time></trkpt><trkpt lat="44.4287617" lon="10.74986"><ele>819.1428571428571</ele><time>2026-05-03T09:36:49.741Z</time></trkpt><trkpt lat="44.4288267" lon="10.7498067"><ele>816.5714285714287</ele><time>2026-05-03T09:36:50.741Z</time></trkpt><trkpt lat="44.4289017" lon="10.7497583"><ele>814.0</ele><time>2026-05-03T09:36:51.741Z</time></trkpt><trkpt lat="44.42897" lon="10.74972"><ele>814.0</ele><time>2026-05-03T09:36:52.741Z</time></trkpt><trkpt lat="44.4290333" lon="10.74969"><ele>814.0</ele><time>2026-05-03T09:36:53.741Z</time></trkpt><trkpt lat="44.4291617" lon="10.7496333"><ele>814.0</ele><time>2026-05-03T09:36:55.741Z</time></trkpt><trkpt lat="44.429225" lon="10.7496133"><ele>814.0</ele><time>2026-05-03T09:36:56.741Z</time></trkpt><trkpt lat="44.429325" lon="10.749625"><ele>814.0</ele><time>2026-05-03T09:36:58.741Z</time></trkpt><trkpt lat="44.4293733" lon="10.74974"><ele>813.9999999999999</ele><time>2026-05-03T09:37:00.741Z</time></trkpt><trkpt lat="44.429395" lon="10.7498717"><ele>814.0</ele><time>2026-05-03T09:37:02.741Z</time></trkpt><trkpt lat="44.4294" lon="10.750015"><ele>814.0</ele><time>2026-05-03T09:37:04.74Z</time></trkpt><trkpt lat="44.4294583" lon="10.7500633"><ele>814.0</ele><time>2026-05-03T09:37:07.741Z</time></trkpt><trkpt lat="44.4295" lon="10.74998"><ele>813.9999999999999</ele><time>2026-05-03T09:37:09.741Z</time></trkpt><trkpt lat="44.42953" lon="10.7498683"><ele>814.0</ele><time>2026-05-03T09:37:12.74Z</time></trkpt><trkpt lat="44.4295383" lon="10.7497483"><ele>814.0</ele><time>2026-05-03T09:37:18.741Z</time></trkpt><trkpt lat="44.429545" lon="10.7496117"><ele>814.0</ele><time>2026-05-03T09:37:20.741Z</time></trkpt><trkpt lat="44.4295783" lon="10.7494517"><ele>814.0</ele><time>2026-05-03T09:37:22.74Z</time></trkpt><trkpt lat="44.4295933" lon="10.7492983"><ele>814.0</ele><time>2026-05-03T09:37:24.741Z</time></trkpt><trkpt lat="44.42955" lon="10.7491817"><ele>814.0</ele><time>2026-05-03T09:37:26.74Z</time></trkpt><trkpt lat="44.4294483" lon="10.7490917"><ele>809.4000000000001</ele><time>2026-05-03T09:37:28.741Z</time></trkpt><trkpt lat="44.429355" lon="10.7490183"><ele>804.8</ele><time>2026-05-03T09:37:30.741Z</time></trkpt><trkpt lat="44.4292567" lon="10.7489517"><ele>800.2</ele><time>2026-05-03T09:37:32.74Z</time></trkpt><trkpt lat="44.4291483" lon="10.748895"><ele>795.5999999999999</ele><time>2026-05-03T09:37:34.741Z</time></trkpt><trkpt lat="44.429035" lon="10.748855"><ele>791.0</ele><time>2026-05-03T09:37:36.741Z</time></trkpt><trkpt lat="44.4289267" lon="10.7487983"><ele>791.0</ele><time>2026-05-03T09:37:38.741Z</time></trkpt><trkpt lat="44.4288233" lon="10.748755"><ele>791.0</ele><time>2026-05-03T09:37:40.741Z</time></trkpt><trkpt lat="44.42871" lon="10.74871"><ele>791.0</ele><time>2026-05-03T09:37:42.74Z</time></trkpt><trkpt lat="44.4286083" lon="10.74865"><ele>791.0</ele><time>2026-05-03T09:37:44.741Z</time></trkpt><trkpt lat="44.4285567" lon="10.7485667"><ele>791.0</ele><time>2026-05-03T09:37:46.741Z</time></trkpt><trkpt lat="44.428575" lon="10.7484567"><ele>786.6666666666667</ele><time>2026-05-03T09:37:48.741Z</time></trkpt><trkpt lat="44.4286267" lon="10.74835"><ele>782.3333333333334</ele><time>2026-05-03T09:37:50.741Z</time></trkpt><trkpt lat="44.4287217" lon="10.7482483"><ele>778.0</ele><time>2026-05-03T09:37:52.741Z</time></trkpt><trkpt lat="44.4287717" lon="10.7481883"><ele>773.6666666666667</ele><time>2026-05-03T09:37:53.741Z</time></trkpt><trkpt lat="44.4288183" lon="10.7481183"><ele>769.3333333333334</ele><time>2026-05-03T09:37:54.74Z</time></trkpt><trkpt lat="44.4288633" lon="10.7480467"><ele>765.0</ele><time>2026-05-03T09:37:55.74Z</time></trkpt><trkpt lat="44.428925" lon="10.7479283"><ele>765.0</ele><time>2026-05-03T09:37:57.741Z</time></trkpt><trkpt lat="44.42896" lon="10.7477867"><ele>765.0</ele><time>2026-05-03T09:37:59.741Z</time></trkpt><trkpt lat="44.428975" lon="10.747695"><ele>765.0</ele><time>2026-05-03T09:38:00.741Z</time></trkpt><trkpt lat="44.4289783" lon="10.747535"><ele>765.0</ele><time>2026-05-03T09:38:02.741Z</time></trkpt><trkpt lat="44.4289433" lon="10.7474067"><ele>765.0</ele><time>2026-05-03T09:38:04.741Z</time></trkpt><trkpt lat="44.4289117" lon="10.7472567"><ele>760.8333333333334</ele><time>2026-05-03T09:38:06.741Z</time></trkpt><trkpt lat="44.42889" lon="10.7471633"><ele>756.6666666666666</ele><time>2026-05-03T09:38:07.74Z</time></trkpt><trkpt lat="44.42888" lon="10.7470567"><ele>752.5</ele><time>2026-05-03T09:38:08.741Z</time></trkpt><trkpt lat="44.4288683" lon="10.74695"><ele>748.3333333333333</ele><time>2026-05-03T09:38:09.74Z</time></trkpt><trkpt lat="44.428865" lon="10.7468333"><ele>744.1666666666666</ele><time>2026-05-03T09:38:10.741Z</time></trkpt><trkpt lat="44.4288633" lon="10.7467367"><ele>740.0</ele><time>2026-05-03T09:38:11.741Z</time></trkpt><trkpt lat="44.4288167" lon="10.7466067"><ele>738.5714285714286</ele><time>2026-05-03T09:38:13.741Z</time></trkpt><trkpt lat="44.428755" lon="10.7465683"><ele>737.1428571428571</ele><time>2026-05-03T09:38:14.741Z</time></trkpt><trkpt lat="44.4286833" lon="10.74655"><ele>735.7142857142858</ele><time>2026-05-03T09:38:15.741Z</time></trkpt><trkpt lat="44.428605" lon="10.7465567"><ele>734.2857142857142</ele><time>2026-05-03T09:38:16.741Z</time></trkpt><trkpt lat="44.4285333" lon="10.7465933"><ele>732.8571428571429</ele><time>2026-05-03T09:38:17.741Z</time></trkpt><trkpt lat="44.4284667" lon="10.7466217"><ele>731.4285714285714</ele><time>2026-05-03T09:38:18.741Z</time></trkpt><trkpt lat="44.4283883" lon="10.746665"><ele>730.0</ele><time>2026-05-03T09:38:20.741Z</time></trkpt><trkpt lat="44.4283333" lon="10.74661"><ele>730.0</ele><time>2026-05-03T09:38:23.741Z</time></trkpt><trkpt lat="44.428365" lon="10.746495"><ele>730.0</ele><time>2026-05-03T09:38:26.741Z</time></trkpt><trkpt lat="44.4284367" lon="10.746375"><ele>730.0</ele><time>2026-05-03T09:38:39.74Z</time></trkpt><trkpt lat="44.42849" lon="10.7463117"><ele>730.0</ele><time>2026-05-03T09:38:40.741Z</time></trkpt><trkpt lat="44.4285517" lon="10.746245"><ele>730.0</ele><time>2026-05-03T09:38:41.741Z</time></trkpt><trkpt lat="44.4286283" lon="10.7461683"><ele>730.0</ele><time>2026-05-03T09:38:42.74Z</time></trkpt><trkpt lat="44.4287067" lon="10.746065"><ele>726.4</ele><time>2026-05-03T09:38:43.739Z</time></trkpt><trkpt lat="44.4287917" lon="10.745955"><ele>722.8</ele><time>2026-05-03T09:38:44.74Z</time></trkpt><trkpt lat="44.42887" lon="10.745845"><ele>719.2</ele><time>2026-05-03T09:38:45.74Z</time></trkpt><trkpt lat="44.4289417" lon="10.7457333"><ele>715.6</ele><time>2026-05-03T09:38:46.74Z</time></trkpt><trkpt lat="44.4290217" lon="10.74564"><ele>712.0</ele><time>2026-05-03T09:38:47.739Z</time></trkpt><trkpt lat="44.4290933" lon="10.7455467"><ele>712.0</ele><time>2026-05-03T09:38:48.74Z</time></trkpt><trkpt lat="44.4291533" lon="10.7454767"><ele>712.0</ele><time>2026-05-03T09:38:49.739Z</time></trkpt><trkpt lat="44.4292317" lon="10.74541"><ele>712.0</ele><time>2026-05-03T09:38:51.74Z</time></trkpt><trkpt lat="44.42927" lon="10.7453133"><ele>712.0</ele><time>2026-05-03T09:38:54.74Z</time></trkpt><trkpt lat="44.4292817" lon="10.7451967"><ele>712.0</ele><time>2026-05-03T09:38:56.74Z</time></trkpt><trkpt lat="44.4292867" lon="10.745105"><ele>712.0</ele><time>2026-05-03T09:38:57.74Z</time></trkpt><trkpt lat="44.4292917" lon="10.744995"><ele>711.3333333333334</ele><time>2026-05-03T09:38:58.74Z</time></trkpt><trkpt lat="44.4292983" lon="10.7448883"><ele>710.6666666666667</ele><time>2026-05-03T09:38:59.74Z</time></trkpt><trkpt lat="44.4293" lon="10.744795"><ele>710.0</ele><time>2026-05-03T09:39:00.74Z</time></trkpt><trkpt lat="44.42931" lon="10.7446417"><ele>709.3333333333334</ele><time>2026-05-03T09:39:02.74Z</time></trkpt><trkpt lat="44.4292683" lon="10.744575"><ele>708.6666666666666</ele><time>2026-05-03T09:39:05.74Z</time></trkpt><trkpt lat="44.4292333" lon="10.744675"><ele>708.0</ele><time>2026-05-03T09:39:08.739Z</time></trkpt><trkpt lat="44.4292133" lon="10.7447617"><ele>708.0</ele><time>2026-05-03T09:39:10.74Z</time></trkpt><trkpt lat="44.4291917" lon="10.744865"><ele>708.0</ele><time>2026-05-03T09:39:12.74Z</time></trkpt><trkpt lat="44.429105" lon="10.7449167"><ele>708.0</ele><time>2026-05-03T09:39:15.74Z</time></trkpt><trkpt lat="44.429015" lon="10.7449383"><ele>708.0</ele><time>2026-05-03T09:39:17.74Z</time></trkpt><trkpt lat="44.4288967" lon="10.7449567"><ele>708.0</ele><time>2026-05-03T09:39:19.74Z</time></trkpt><trkpt lat="44.4287833" lon="10.744975"><ele>706.5714285714286</ele><time>2026-05-03T09:39:21.74Z</time></trkpt><trkpt lat="44.42872" lon="10.7449733"><ele>705.1428571428571</ele><time>2026-05-03T09:39:22.74Z</time></trkpt><trkpt lat="44.42865" lon="10.7449817"><ele>703.7142857142857</ele><time>2026-05-03T09:39:23.74Z</time></trkpt><trkpt lat="44.4285833" lon="10.7449983"><ele>702.2857142857142</ele><time>2026-05-03T09:39:24.74Z</time></trkpt><trkpt lat="44.4285133" lon="10.7450183"><ele>700.8571428571429</ele><time>2026-05-03T09:39:25.74Z</time></trkpt><trkpt lat="44.4284383" lon="10.7450633"><ele>699.4285714285713</ele><time>2026-05-03T09:39:26.74Z</time></trkpt><trkpt lat="44.4283767" lon="10.74512"><ele>698.0</ele><time>2026-05-03T09:39:27.74Z</time></trkpt><trkpt lat="44.4283167" lon="10.7451933"><ele>698.4</ele><time>2026-05-03T09:39:28.74Z</time></trkpt><trkpt lat="44.4282467" lon="10.745275"><ele>698.8</ele><time>2026-05-03T09:39:29.739Z</time></trkpt><trkpt lat="44.4281683" lon="10.74535"><ele>699.2</ele><time>2026-05-03T09:39:30.74Z</time></trkpt><trkpt lat="44.4280833" lon="10.7454067"><ele>699.6</ele><time>2026-05-03T09:39:31.739Z</time></trkpt><trkpt lat="44.4279983" lon="10.7454333"><ele>700.0</ele><time>2026-05-03T09:39:32.739Z</time></trkpt><trkpt lat="44.4279067" lon="10.745445"><ele>700.0</ele><time>2026-05-03T09:39:33.74Z</time></trkpt><trkpt lat="44.4278233" lon="10.74543"><ele>700.0</ele><time>2026-05-03T09:39:34.74Z</time></trkpt><trkpt lat="44.4277383" lon="10.745395"><ele>700.0</ele><time>2026-05-03T09:39:35.74Z</time></trkpt><trkpt lat="44.4276517" lon="10.74534"><ele>700.0</ele><time>2026-05-03T09:39:36.74Z</time></trkpt><trkpt lat="44.4275717" lon="10.7452667"><ele>700.0</ele><time>2026-05-03T09:39:37.74Z</time></trkpt><trkpt lat="44.4274867" lon="10.7452083"><ele>698.0</ele><time>2026-05-03T09:39:38.739Z</time></trkpt><trkpt lat="44.4273933" lon="10.7451683"><ele>696.0</ele><time>2026-05-03T09:39:39.739Z</time></trkpt><trkpt lat="44.4273067" lon="10.7451433"><ele>694.0</ele><time>2026-05-03T09:39:40.74Z</time></trkpt><trkpt lat="44.4272333" lon="10.7451433"><ele>692.0</ele><time>2026-05-03T09:39:41.74Z</time></trkpt><trkpt lat="44.4271517" lon="10.7451733"><ele>690.0</ele><time>2026-05-03T09:39:42.739Z</time></trkpt><trkpt lat="44.427065" lon="10.7452283"><ele>688.0</ele><time>2026-05-03T09:39:43.74Z</time></trkpt><trkpt lat="44.4269833" lon="10.7452983"><ele>688.0</ele><time>2026-05-03T09:39:44.74Z</time></trkpt><trkpt lat="44.42689" lon="10.7453517"><ele>688.0</ele><time>2026-05-03T09:39:45.74Z</time></trkpt><trkpt lat="44.426795" lon="10.74539"><ele>688.0</ele><time>2026-05-03T09:39:46.74Z</time></trkpt><trkpt lat="44.4267017" lon="10.74542"><ele>688.0</ele><time>2026-05-03T09:39:47.74Z</time></trkpt><trkpt lat="44.4266183" lon="10.7454417"><ele>688.0</ele><time>2026-05-03T09:39:48.739Z</time></trkpt><trkpt lat="44.4265367" lon="10.7454583"><ele>688.0</ele><time>2026-05-03T09:39:49.74Z</time></trkpt><trkpt lat="44.4264583" lon="10.7454667"><ele>688.0</ele><time>2026-05-03T09:39:50.74Z</time></trkpt><trkpt lat="44.426385" lon="10.745465"><ele>688.0</ele><time>2026-05-03T09:39:51.739Z</time></trkpt><trkpt lat="44.4263217" lon="10.7454533"><ele>688.0</ele><time>2026-05-03T09:39:52.74Z</time></trkpt><trkpt lat="44.426225" lon="10.7453983"><ele>688.0</ele><time>2026-05-03T09:39:54.74Z</time></trkpt><trkpt lat="44.4261633" lon="10.745315"><ele>688.0</ele><time>2026-05-03T09:39:56.74Z</time></trkpt><trkpt lat="44.4261167" lon="10.745255"><ele>684.8333333333334</ele><time>2026-05-03T09:39:58.74Z</time></trkpt><trkpt lat="44.426065" lon="10.7451883"><ele>681.6666666666667</ele><time>2026-05-03T09:40:01.74Z</time></trkpt><trkpt lat="44.42599" lon="10.745125"><ele>678.5</ele><time>2026-05-03T09:40:14.74Z</time></trkpt><trkpt lat="44.4259233" lon="10.745105"><ele>675.3333333333334</ele><time>2026-05-03T09:40:15.74Z</time></trkpt><trkpt lat="44.4258533" lon="10.7451017"><ele>672.1666666666666</ele><time>2026-05-03T09:40:16.74Z</time></trkpt><trkpt lat="44.4257733" lon="10.74512"><ele>669.0</ele><time>2026-05-03T09:40:17.74Z</time></trkpt><trkpt lat="44.425685" lon="10.745155"><ele>669.0</ele><time>2026-05-03T09:40:18.74Z</time></trkpt><trkpt lat="44.425595" lon="10.7452033"><ele>669.0</ele><time>2026-05-03T09:40:19.74Z</time></trkpt><trkpt lat="44.4255" lon="10.7452567"><ele>669.0</ele><time>2026-05-03T09:40:20.74Z</time></trkpt><trkpt lat="44.42541" lon="10.7453217"><ele>669.0</ele><time>2026-05-03T09:40:21.74Z</time></trkpt><trkpt lat="44.4253367" lon="10.7454017"><ele>669.0</ele><time>2026-05-03T09:40:22.74Z</time></trkpt><trkpt lat="44.42527" lon="10.7454917"><ele>668.4000000000001</ele><time>2026-05-03T09:40:23.74Z</time></trkpt><trkpt lat="44.4252133" lon="10.7456033"><ele>667.8</ele><time>2026-05-03T09:40:24.74Z</time></trkpt><trkpt lat="44.4251683" lon="10.7457417"><ele>667.2</ele><time>2026-05-03T09:40:25.74Z</time></trkpt><trkpt lat="44.42514" lon="10.74587"><ele>666.5999999999999</ele><time>2026-05-03T09:40:26.74Z</time></trkpt><trkpt lat="44.4251" lon="10.7460033"><ele>666.0</ele><time>2026-05-03T09:40:27.74Z</time></trkpt><trkpt lat="44.4250583" lon="10.74615"><ele>666.0</ele><time>2026-05-03T09:40:28.739Z</time></trkpt><trkpt lat="44.4250083" lon="10.7462933"><ele>666.0</ele><time>2026-05-03T09:40:29.74Z</time></trkpt><trkpt lat="44.4249583" lon="10.7464467"><ele>666.0</ele><time>2026-05-03T09:40:30.74Z</time></trkpt><trkpt lat="44.4249183" lon="10.74659"><ele>666.0</ele><time>2026-05-03T09:40:31.74Z</time></trkpt><trkpt lat="44.424875" lon="10.7467383"><ele>666.0</ele><time>2026-05-03T09:40:32.74Z</time></trkpt><trkpt lat="44.424825" lon="10.7468733"><ele>666.0</ele><time>2026-05-03T09:40:33.74Z</time></trkpt><trkpt lat="44.4247667" lon="10.7470133"><ele>666.0</ele><time>2026-05-03T09:40:34.74Z</time></trkpt><trkpt lat="44.4246883" lon="10.7471117"><ele>666.0</ele><time>2026-05-03T09:40:35.74Z</time></trkpt><trkpt lat="44.4246033" lon="10.7471833"><ele>666.0</ele><time>2026-05-03T09:40:36.74Z</time></trkpt><trkpt lat="44.424505" lon="10.74725"><ele>667.1999999999999</ele><time>2026-05-03T09:40:37.74Z</time></trkpt><trkpt lat="44.4244183" lon="10.74732"><ele>668.4</ele><time>2026-05-03T09:40:38.739Z</time></trkpt><trkpt lat="44.4243517" lon="10.7474"><ele>669.6</ele><time>2026-05-03T09:40:39.74Z</time></trkpt><trkpt lat="44.4243017" lon="10.747505"><ele>670.8</ele><time>2026-05-03T09:40:40.74Z</time></trkpt><trkpt lat="44.424255" lon="10.7476333"><ele>672.0</ele><time>2026-05-03T09:40:41.74Z</time></trkpt><trkpt lat="44.4242167" lon="10.7477733"><ele>672.0</ele><time>2026-05-03T09:40:42.74Z</time></trkpt><trkpt lat="44.4241683" lon="10.747915"><ele>672.0</ele><time>2026-05-03T09:40:43.74Z</time></trkpt><trkpt lat="44.424115" lon="10.7480633"><ele>672.0</ele><time>2026-05-03T09:40:44.739Z</time></trkpt><trkpt lat="44.4240617" lon="10.7482117"><ele>672.0</ele><time>2026-05-03T09:40:45.74Z</time></trkpt><trkpt lat="44.424" lon="10.7483567"><ele>672.0</ele><time>2026-05-03T09:40:46.74Z</time></trkpt><trkpt lat="44.4239417" lon="10.748505"><ele>672.0</ele><time>2026-05-03T09:40:47.74Z</time></trkpt><trkpt lat="44.4238967" lon="10.7486517"><ele>672.0</ele><time>2026-05-03T09:40:48.74Z</time></trkpt><trkpt lat="44.42384" lon="10.7487967"><ele>672.0</ele><time>2026-05-03T09:40:49.74Z</time></trkpt><trkpt lat="44.42378" lon="10.74894"><ele>670.25</ele><time>2026-05-03T09:40:50.74Z</time></trkpt><trkpt lat="44.42371" lon="10.7490717"><ele>668.5</ele><time>2026-05-03T09:40:51.74Z</time></trkpt><trkpt lat="44.4236283" lon="10.7491833"><ele>666.75</ele><time>2026-05-03T09:40:52.74Z</time></trkpt><trkpt lat="44.4235367" lon="10.7492817"><ele>665.0</ele><time>2026-05-03T09:40:53.74Z</time></trkpt><trkpt lat="44.42342" lon="10.7493017"><ele>665.0</ele><time>2026-05-03T09:40:54.74Z</time></trkpt><trkpt lat="44.4232933" lon="10.7493017"><ele>665.0</ele><time>2026-05-03T09:40:55.74Z</time></trkpt><trkpt lat="44.4231633" lon="10.7493017"><ele>665.0</ele><time>2026-05-03T09:40:56.74Z</time></trkpt><trkpt lat="44.4230417" lon="10.7492783"><ele>665.0</ele><time>2026-05-03T09:40:57.74Z</time></trkpt><trkpt lat="44.4229267" lon="10.7492433"><ele>664.5</ele><time>2026-05-03T09:40:58.74Z</time></trkpt><trkpt lat="44.4228133" lon="10.7492033"><ele>664.0</ele><time>2026-05-03T09:40:59.74Z</time></trkpt><trkpt lat="44.422705" lon="10.7491633"><ele>663.5</ele><time>2026-05-03T09:41:00.74Z</time></trkpt><trkpt lat="44.422595" lon="10.7491467"><ele>663.0</ele><time>2026-05-03T09:41:01.74Z</time></trkpt><trkpt lat="44.422485" lon="10.74916"><ele>663.0</ele><time>2026-05-03T09:41:02.739Z</time></trkpt><trkpt lat="44.4223617" lon="10.7491717"><ele>663.0</ele><time>2026-05-03T09:41:03.739Z</time></trkpt><trkpt lat="44.4222283" lon="10.7492"><ele>663.0</ele><time>2026-05-03T09:41:04.74Z</time></trkpt><trkpt lat="44.4221083" lon="10.7492267"><ele>663.0</ele><time>2026-05-03T09:41:05.74Z</time></trkpt><trkpt lat="44.4219933" lon="10.7492533"><ele>662.3333333333334</ele><time>2026-05-03T09:41:06.74Z</time></trkpt><trkpt lat="44.421895" lon="10.7492767"><ele>661.6666666666666</ele><time>2026-05-03T09:41:07.739Z</time></trkpt><trkpt lat="44.4218067" lon="10.7492917"><ele>661.0</ele><time>2026-05-03T09:41:08.74Z</time></trkpt><trkpt lat="44.4217317" lon="10.7492767"><ele>660.3333333333333</ele><time>2026-05-03T09:41:09.74Z</time></trkpt><trkpt lat="44.42166" lon="10.7492383"><ele>659.6666666666666</ele><time>2026-05-03T09:41:10.74Z</time></trkpt><trkpt lat="44.421595" lon="10.7491917"><ele>659.0</ele><time>2026-05-03T09:41:11.74Z</time></trkpt><trkpt lat="44.42152" lon="10.7491483"><ele>659.0</ele><time>2026-05-03T09:41:12.74Z</time></trkpt><trkpt lat="44.42144" lon="10.7491217"><ele>659.0</ele><time>2026-05-03T09:41:13.739Z</time></trkpt><trkpt lat="44.4213517" lon="10.7491033"><ele>659.0</ele><time>2026-05-03T09:41:14.739Z</time></trkpt><trkpt lat="44.4212733" lon="10.7490817"><ele>659.0</ele><time>2026-05-03T09:41:15.74Z</time></trkpt><trkpt lat="44.4212067" lon="10.74907"><ele>659.0</ele><time>2026-05-03T09:41:16.739Z</time></trkpt><trkpt lat="44.42114" lon="10.7490717"><ele>659.0</ele><time>2026-05-03T09:41:17.739Z</time></trkpt><trkpt lat="44.421055" lon="10.7491333"><ele>657.8333333333333</ele><time>2026-05-03T09:41:19.74Z</time></trkpt><trkpt lat="44.4209983" lon="10.749285"><ele>656.6666666666666</ele><time>2026-05-03T09:41:21.74Z</time></trkpt><trkpt lat="44.4209733" lon="10.74938"><ele>655.5</ele><time>2026-05-03T09:41:22.74Z</time></trkpt><trkpt lat="44.4209367" lon="10.74948"><ele>654.3333333333334</ele><time>2026-05-03T09:41:23.74Z</time></trkpt><trkpt lat="44.4209033" lon="10.7495817"><ele>653.1666666666667</ele><time>2026-05-03T09:41:24.74Z</time></trkpt><trkpt lat="44.420875" lon="10.7496883"><ele>652.0</ele><time>2026-05-03T09:41:25.74Z</time></trkpt><trkpt lat="44.4208533" lon="10.749805"><ele>651.4000000000001</ele><time>2026-05-03T09:41:26.74Z</time></trkpt><trkpt lat="44.420835" lon="10.7499267"><ele>650.8000000000001</ele><time>2026-05-03T09:41:27.74Z</time></trkpt><trkpt lat="44.42082" lon="10.7500667"><ele>650.2</ele><time>2026-05-03T09:41:28.74Z</time></trkpt><trkpt lat="44.4208133" lon="10.75022"><ele>649.6</ele><time>2026-05-03T09:41:29.74Z</time></trkpt><trkpt lat="44.42081" lon="10.7503767"><ele>649.0</ele><time>2026-05-03T09:41:30.74Z</time></trkpt><trkpt lat="44.4208133" lon="10.75054"><ele>648.8333333333334</ele><time>2026-05-03T09:41:31.74Z</time></trkpt><trkpt lat="44.4208133" lon="10.7506883"><ele>648.6666666666667</ele><time>2026-05-03T09:41:32.74Z</time></trkpt><trkpt lat="44.420795" lon="10.7508167"><ele>648.5</ele><time>2026-05-03T09:41:33.739Z</time></trkpt><trkpt lat="44.4207733" lon="10.7509383"><ele>648.3333333333334</ele><time>2026-05-03T09:41:34.74Z</time></trkpt><trkpt lat="44.4207433" lon="10.75103"><ele>648.1666666666666</ele><time>2026-05-03T09:41:35.74Z</time></trkpt><trkpt lat="44.4207017" lon="10.7511217"><ele>648.0</ele><time>2026-05-03T09:41:36.739Z</time></trkpt><trkpt lat="44.4206417" lon="10.7511867"><ele>648.0</ele><time>2026-05-03T09:41:37.74Z</time></trkpt><trkpt lat="44.42055" lon="10.7512567"><ele>648.0</ele><time>2026-05-03T09:41:38.74Z</time></trkpt><trkpt lat="44.4204317" lon="10.7513533"><ele>648.0</ele><time>2026-05-03T09:41:39.74Z</time></trkpt><trkpt lat="44.420285" lon="10.7514783"><ele>648.0</ele><time>2026-05-03T09:41:40.74Z</time></trkpt><trkpt lat="44.42014" lon="10.7515983"><ele>642.75</ele><time>2026-05-03T09:41:41.74Z</time></trkpt><trkpt lat="44.420005" lon="10.7517083"><ele>637.5</ele><time>2026-05-03T09:41:42.74Z</time></trkpt><trkpt lat="44.41988" lon="10.7517883"><ele>632.25</ele><time>2026-05-03T09:41:43.74Z</time></trkpt><trkpt lat="44.4197733" lon="10.7518633"><ele>627.0</ele><time>2026-05-03T09:41:44.74Z</time></trkpt><trkpt lat="44.41969" lon="10.7519383"><ele>624.0</ele><time>2026-05-03T09:41:45.74Z</time></trkpt><trkpt lat="44.4196317" lon="10.7520067"><ele>621.0</ele><time>2026-05-03T09:41:46.74Z</time></trkpt><trkpt lat="44.4196" lon="10.7520867"><ele>618.0</ele><time>2026-05-03T09:41:47.739Z</time></trkpt><trkpt lat="44.41955" lon="10.7522483"><ele>615.0</ele><time>2026-05-03T09:41:49.74Z</time></trkpt><trkpt lat="44.4195217" lon="10.7523683"><ele>612.0</ele><time>2026-05-03T09:41:51.739Z</time></trkpt><trkpt lat="44.4195317" lon="10.7524567"><ele>609.0</ele><time>2026-05-03T09:42:09.74Z</time></trkpt><trkpt lat="44.41956" lon="10.7525617"><ele>609.8</ele><time>2026-05-03T09:46:18.738Z</time></trkpt><trkpt lat="44.41961" lon="10.7527217"><ele>610.5999999999999</ele><time>2026-05-03T09:46:20.738Z</time></trkpt><trkpt lat="44.4196417" lon="10.7528433"><ele>611.4</ele><time>2026-05-03T09:46:21.739Z</time></trkpt><trkpt lat="44.419675" lon="10.75298"><ele>612.1999999999999</ele><time>2026-05-03T09:46:22.738Z</time></trkpt><trkpt lat="44.419715" lon="10.7531317"><ele>613.0</ele><time>2026-05-03T09:46:23.739Z</time></trkpt><trkpt lat="44.4197567" lon="10.7532767"><ele>613.0</ele><time>2026-05-03T09:46:24.739Z</time></trkpt><trkpt lat="44.4197917" lon="10.7534183"><ele>613.0</ele><time>2026-05-03T09:46:25.739Z</time></trkpt><trkpt lat="44.4198333" lon="10.7535417"><ele>613.0</ele><time>2026-05-03T09:46:26.738Z</time></trkpt><trkpt lat="44.4198867" lon="10.75365"><ele>613.0</ele><time>2026-05-03T09:46:27.739Z</time></trkpt><trkpt lat="44.41995" lon="10.75375"><ele>613.0</ele><time>2026-05-03T09:46:28.738Z</time></trkpt><trkpt lat="44.4200217" lon="10.7538533"><ele>611.5</ele><time>2026-05-03T09:46:29.738Z</time></trkpt><trkpt lat="44.4200833" lon="10.753965"><ele>610.0</ele><time>2026-05-03T09:46:30.738Z</time></trkpt><trkpt lat="44.420145" lon="10.75408"><ele>608.5</ele><time>2026-05-03T09:46:31.738Z</time></trkpt><trkpt lat="44.420185" lon="10.7541717"><ele>607.0</ele><time>2026-05-03T09:46:32.739Z</time></trkpt><trkpt lat="44.4202017" lon="10.754265"><ele>605.5</ele><time>2026-05-03T09:46:33.738Z</time></trkpt><trkpt lat="44.4201867" lon="10.7543733"><ele>604.0</ele><time>2026-05-03T09:46:34.738Z</time></trkpt><trkpt lat="44.4201483" lon="10.7544967"><ele>604.0</ele><time>2026-05-03T09:46:35.739Z</time></trkpt><trkpt lat="44.4200983" lon="10.7546433"><ele>604.0</ele><time>2026-05-03T09:46:36.739Z</time></trkpt><trkpt lat="44.4200467" lon="10.754795"><ele>604.0</ele><time>2026-05-03T09:46:37.739Z</time></trkpt><trkpt lat="44.419995" lon="10.7549383"><ele>604.0</ele><time>2026-05-03T09:46:38.739Z</time></trkpt><trkpt lat="44.4199383" lon="10.75507"><ele>604.0</ele><time>2026-05-03T09:46:39.739Z</time></trkpt><trkpt lat="44.419865" lon="10.7551833"><ele>604.0</ele><time>2026-05-03T09:46:40.738Z</time></trkpt><trkpt lat="44.41978" lon="10.7553017"><ele>604.0</ele><time>2026-05-03T09:46:41.739Z</time></trkpt><trkpt lat="44.4196967" lon="10.755385"><ele>604.0</ele><time>2026-05-03T09:46:42.739Z</time></trkpt><trkpt lat="44.4196283" lon="10.75544"><ele>604.0</ele><time>2026-05-03T09:46:43.739Z</time></trkpt><trkpt lat="44.41959" lon="10.7555133"><ele>602.3333333333334</ele><time>2026-05-03T09:46:44.739Z</time></trkpt><trkpt lat="44.4195717" lon="10.75561"><ele>600.6666666666667</ele><time>2026-05-03T09:46:45.739Z</time></trkpt><trkpt lat="44.4195617" lon="10.7557317"><ele>599.0</ele><time>2026-05-03T09:46:46.739Z</time></trkpt><trkpt lat="44.419555" lon="10.7558367"><ele>597.3333333333334</ele><time>2026-05-03T09:46:47.738Z</time></trkpt><trkpt lat="44.4195317" lon="10.755945"><ele>595.6666666666666</ele><time>2026-05-03T09:46:48.739Z</time></trkpt><trkpt lat="44.4194983" lon="10.75604"><ele>594.0</ele><time>2026-05-03T09:46:49.738Z</time></trkpt><trkpt lat="44.4194383" lon="10.7561283"><ele>594.0</ele><time>2026-05-03T09:46:50.739Z</time></trkpt><trkpt lat="44.4193583" lon="10.7562033"><ele>594.0</ele><time>2026-05-03T09:46:51.739Z</time></trkpt><trkpt lat="44.419265" lon="10.75626"><ele>594.0</ele><time>2026-05-03T09:46:52.739Z</time></trkpt><trkpt lat="44.4191617" lon="10.7563217"><ele>594.0</ele><time>2026-05-03T09:46:53.739Z</time></trkpt><trkpt lat="44.4190467" lon="10.7564017"><ele>594.0</ele><time>2026-05-03T09:46:54.739Z</time></trkpt><trkpt lat="44.4189233" lon="10.7564817"><ele>589.4</ele><time>2026-05-03T09:46:55.739Z</time></trkpt><trkpt lat="44.4188117" lon="10.7565333"><ele>584.8</ele><time>2026-05-03T09:46:56.739Z</time></trkpt><trkpt lat="44.418705" lon="10.75657"><ele>580.2</ele><time>2026-05-03T09:46:57.739Z</time></trkpt><trkpt lat="44.4186117" lon="10.756585"><ele>575.6</ele><time>2026-05-03T09:46:58.739Z</time></trkpt><trkpt lat="44.4185267" lon="10.7566033"><ele>571.0</ele><time>2026-05-03T09:46:59.739Z</time></trkpt><trkpt lat="44.4184583" lon="10.75664"><ele>571.0</ele><time>2026-05-03T09:47:00.739Z</time></trkpt><trkpt lat="44.418405" lon="10.7567017"><ele>571.0</ele><time>2026-05-03T09:47:01.739Z</time></trkpt><trkpt lat="44.418355" lon="10.756795"><ele>571.0</ele><time>2026-05-03T09:47:02.738Z</time></trkpt><trkpt lat="44.4183" lon="10.7569183"><ele>571.0</ele><time>2026-05-03T09:47:03.739Z</time></trkpt><trkpt lat="44.4182467" lon="10.757045"><ele>571.0</ele><time>2026-05-03T09:47:04.739Z</time></trkpt><trkpt lat="44.4182" lon="10.75717"><ele>572.6</ele><time>2026-05-03T09:47:05.739Z</time></trkpt><trkpt lat="44.4181433" lon="10.757305"><ele>574.2</ele><time>2026-05-03T09:47:06.739Z</time></trkpt><trkpt lat="44.418085" lon="10.75743"><ele>575.8</ele><time>2026-05-03T09:47:07.739Z</time></trkpt><trkpt lat="44.4180317" lon="10.7575517"><ele>577.4</ele><time>2026-05-03T09:47:08.739Z</time></trkpt><trkpt lat="44.4179817" lon="10.7576867"><ele>579.0</ele><time>2026-05-03T09:47:09.739Z</time></trkpt><trkpt lat="44.417935" lon="10.7578217"><ele>574.2</ele><time>2026-05-03T09:47:10.739Z</time></trkpt><trkpt lat="44.4178917" lon="10.7579583"><ele>569.4</ele><time>2026-05-03T09:47:11.738Z</time></trkpt><trkpt lat="44.41785" lon="10.758065"><ele>564.6</ele><time>2026-05-03T09:47:12.739Z</time></trkpt><trkpt lat="44.41781" lon="10.7581667"><ele>559.8</ele><time>2026-05-03T09:47:13.738Z</time></trkpt><trkpt lat="44.4177717" lon="10.7582583"><ele>555.0</ele><time>2026-05-03T09:47:14.739Z</time></trkpt><trkpt lat="44.41772" lon="10.7583917"><ele>555.0</ele><time>2026-05-03T09:47:16.739Z</time></trkpt><trkpt lat="44.4176717" lon="10.7584733"><ele>555.0</ele><time>2026-05-03T09:47:38.739Z</time></trkpt><trkpt lat="44.41759" lon="10.758575"><ele>555.0</ele><time>2026-05-03T09:47:40.738Z</time></trkpt><trkpt lat="44.41754" lon="10.7586317"><ele>555.0</ele><time>2026-05-03T09:47:41.739Z</time></trkpt><trkpt lat="44.4174833" lon="10.7586867"><ele>555.0</ele><time>2026-05-03T09:47:42.739Z</time></trkpt><trkpt lat="44.4174283" lon="10.7587417"><ele>555.0</ele><time>2026-05-03T09:47:43.739Z</time></trkpt><trkpt lat="44.4173717" lon="10.7588"><ele>552.8</ele><time>2026-05-03T09:47:44.739Z</time></trkpt><trkpt lat="44.41732" lon="10.7588667"><ele>550.6</ele><time>2026-05-03T09:47:45.738Z</time></trkpt><trkpt lat="44.417265" lon="10.7589233"><ele>548.4</ele><time>2026-05-03T09:47:46.738Z</time></trkpt><trkpt lat="44.417185" lon="10.7590417"><ele>546.2</ele><time>2026-05-03T09:47:48.739Z</time></trkpt><trkpt lat="44.417135" lon="10.7591517"><ele>544.0</ele><time>2026-05-03T09:47:50.739Z</time></trkpt><trkpt lat="44.4170683" lon="10.7592867"><ele>544.0</ele><time>2026-05-03T09:47:52.739Z</time></trkpt><trkpt lat="44.4170283" lon="10.7593583"><ele>544.0</ele><time>2026-05-03T09:47:53.739Z</time></trkpt><trkpt lat="44.4169817" lon="10.7594283"><ele>544.0</ele><time>2026-05-03T09:47:54.739Z</time></trkpt><trkpt lat="44.4169433" lon="10.7595117"><ele>544.0</ele><time>2026-05-03T09:47:55.739Z</time></trkpt><trkpt lat="44.416905" lon="10.7595967"><ele>544.0</ele><time>2026-05-03T09:47:56.739Z</time></trkpt><trkpt lat="44.4168783" lon="10.7596967"><ele>544.0</ele><time>2026-05-03T09:47:57.739Z</time></trkpt><trkpt lat="44.41686" lon="10.75989"><ele>544.6666666666667</ele><time>2026-05-03T09:47:59.739Z</time></trkpt><trkpt lat="44.4168433" lon="10.7599883"><ele>545.3333333333334</ele><time>2026-05-03T09:48:00.739Z</time></trkpt><trkpt lat="44.41683" lon="10.7601017"><ele>546.0</ele><time>2026-05-03T09:48:01.739Z</time></trkpt><trkpt lat="44.4168133" lon="10.7602167"><ele>546.6666666666666</ele><time>2026-05-03T09:48:02.738Z</time></trkpt><trkpt lat="44.4167833" lon="10.7603267"><ele>547.3333333333333</ele><time>2026-05-03T09:48:03.739Z</time></trkpt><trkpt lat="44.416745" lon="10.7604467"><ele>548.0</ele><time>2026-05-03T09:48:04.739Z</time></trkpt><trkpt lat="44.4166817" lon="10.7605583"><ele>549.8</ele><time>2026-05-03T09:48:05.738Z</time></trkpt><trkpt lat="44.4166117" lon="10.7606783"><ele>551.5999999999999</ele><time>2026-05-03T09:48:06.739Z</time></trkpt><trkpt lat="44.416545" lon="10.760785"><ele>553.4000000000001</ele><time>2026-05-03T09:48:07.739Z</time></trkpt><trkpt lat="44.4164783" lon="10.760875"><ele>555.2</ele><time>2026-05-03T09:48:08.739Z</time></trkpt><trkpt lat="44.4164183" lon="10.7609683"><ele>557.0</ele><time>2026-05-03T09:48:09.739Z</time></trkpt><trkpt lat="44.4163633" lon="10.761075"><ele>551.8000000000001</ele><time>2026-05-03T09:48:10.739Z</time></trkpt><trkpt lat="44.41631" lon="10.7611833"><ele>546.6</ele><time>2026-05-03T09:48:11.739Z</time></trkpt><trkpt lat="44.4162567" lon="10.761285"><ele>541.4000000000001</ele><time>2026-05-03T09:48:12.739Z</time></trkpt><trkpt lat="44.4161983" lon="10.761395"><ele>536.2</ele><time>2026-05-03T09:48:13.738Z</time></trkpt><trkpt lat="44.416155" lon="10.7615033"><ele>531.0</ele><time>2026-05-03T09:48:14.738Z</time></trkpt><trkpt lat="44.4161167" lon="10.7616133"><ele>531.0</ele><time>2026-05-03T09:48:15.739Z</time></trkpt><trkpt lat="44.4160867" lon="10.761715"><ele>531.0</ele><time>2026-05-03T09:48:16.737Z</time></trkpt><trkpt lat="44.4160533" lon="10.761805"><ele>531.0</ele><time>2026-05-03T09:48:17.737Z</time></trkpt><trkpt lat="44.4159983" lon="10.7619317"><ele>531.0</ele><time>2026-05-03T09:48:19.738Z</time></trkpt><trkpt lat="44.4159383" lon="10.76205"><ele>531.0</ele><time>2026-05-03T09:52:37.738Z</time></trkpt><trkpt lat="44.4159217" lon="10.7621883"><ele>531.3333333333334</ele><time>2026-05-03T09:52:39.738Z</time></trkpt><trkpt lat="44.4159083" lon="10.7623033"><ele>531.6666666666666</ele><time>2026-05-03T09:52:40.738Z</time></trkpt><trkpt lat="44.4158833" lon="10.7624267"><ele>532.0</ele><time>2026-05-03T09:52:41.737Z</time></trkpt><trkpt lat="44.4158533" lon="10.7625467"><ele>532.3333333333333</ele><time>2026-05-03T09:52:42.737Z</time></trkpt><trkpt lat="44.4158067" lon="10.762655"><ele>532.6666666666666</ele><time>2026-05-03T09:52:43.738Z</time></trkpt><trkpt lat="44.4157567" lon="10.7627633"><ele>533.0</ele><time>2026-05-03T09:52:44.738Z</time></trkpt><trkpt lat="44.4157033" lon="10.7628833"><ele>533.4</ele><time>2026-05-03T09:52:45.738Z</time></trkpt><trkpt lat="44.4156333" lon="10.763"><ele>533.8</ele><time>2026-05-03T09:52:46.738Z</time></trkpt><trkpt lat="44.4155617" lon="10.7631017"><ele>534.2</ele><time>2026-05-03T09:52:47.738Z</time></trkpt><trkpt lat="44.4154817" lon="10.7632067"><ele>534.6</ele><time>2026-05-03T09:52:48.738Z</time></trkpt><trkpt lat="44.4154117" lon="10.76329"><ele>535.0</ele><time>2026-05-03T09:52:49.738Z</time></trkpt><trkpt lat="44.41533" lon="10.763345"><ele>532.6666666666667</ele><time>2026-05-03T09:52:50.738Z</time></trkpt><trkpt lat="44.41525" lon="10.76336"><ele>530.3333333333334</ele><time>2026-05-03T09:52:51.738Z</time></trkpt><trkpt lat="44.41518" lon="10.7633917"><ele>528.0</ele><time>2026-05-03T09:52:52.737Z</time></trkpt><trkpt lat="44.4151117" lon="10.7634417"><ele>525.6666666666666</ele><time>2026-05-03T09:52:53.738Z</time></trkpt><trkpt lat="44.415035" lon="10.763515"><ele>523.3333333333333</ele><time>2026-05-03T09:52:54.738Z</time></trkpt><trkpt lat="44.4149517" lon="10.76362"><ele>521.0</ele><time>2026-05-03T09:52:55.738Z</time></trkpt><trkpt lat="44.41487" lon="10.76375"><ele>521.0</ele><time>2026-05-03T09:52:56.738Z</time></trkpt><trkpt lat="44.4147833" lon="10.763875"><ele>521.0</ele><time>2026-05-03T09:52:57.738Z</time></trkpt><trkpt lat="44.4147017" lon="10.7639767"><ele>521.0</ele><time>2026-05-03T09:52:58.738Z</time></trkpt><trkpt lat="44.4146033" lon="10.76405"><ele>521.0</ele><time>2026-05-03T09:52:59.738Z</time></trkpt><trkpt lat="44.4145" lon="10.7641133"><ele>523.0</ele><time>2026-05-03T09:53:00.738Z</time></trkpt><trkpt lat="44.4143917" lon="10.7641617"><ele>525.0</ele><time>2026-05-03T09:53:01.738Z</time></trkpt><trkpt lat="44.4142883" lon="10.7642183"><ele>527.0</ele><time>2026-05-03T09:53:02.738Z</time></trkpt><trkpt lat="44.4141867" lon="10.7642883"><ele>529.0</ele><time>2026-05-03T09:53:03.738Z</time></trkpt><trkpt lat="44.41409" lon="10.7643667"><ele>529.6</ele><time>2026-05-03T09:53:04.738Z</time></trkpt><trkpt lat="44.4140083" lon="10.7644483"><ele>530.2</ele><time>2026-05-03T09:53:05.738Z</time></trkpt><trkpt lat="44.413935" lon="10.7645383"><ele>530.8000000000001</ele><time>2026-05-03T09:53:06.738Z</time></trkpt><trkpt lat="44.4138617" lon="10.7646283"><ele>531.4</ele><time>2026-05-03T09:53:07.738Z</time></trkpt><trkpt lat="44.413785" lon="10.7646867"><ele>532.0</ele><time>2026-05-03T09:53:08.738Z</time></trkpt><trkpt lat="44.4136967" lon="10.76471"><ele>534.2</ele><time>2026-05-03T09:53:09.738Z</time></trkpt><trkpt lat="44.4136067" lon="10.7647067"><ele>536.4000000000001</ele><time>2026-05-03T09:53:10.738Z</time></trkpt><trkpt lat="44.4135117" lon="10.7647117"><ele>538.5999999999999</ele><time>2026-05-03T09:53:11.738Z</time></trkpt><trkpt lat="44.4134133" lon="10.76474"><ele>540.8</ele><time>2026-05-03T09:53:12.738Z</time></trkpt><trkpt lat="44.413315" lon="10.7647783"><ele>543.0</ele><time>2026-05-03T09:53:13.738Z</time></trkpt><trkpt lat="44.4132183" lon="10.7648383"><ele>543.0</ele><time>2026-05-03T09:53:14.738Z</time></trkpt><trkpt lat="44.4131367" lon="10.764875"><ele>543.0</ele><time>2026-05-03T09:53:15.738Z</time></trkpt><trkpt lat="44.4130683" lon="10.76488"><ele>543.0</ele><time>2026-05-03T09:53:16.738Z</time></trkpt><trkpt lat="44.4130083" lon="10.7647867"><ele>543.0</ele><time>2026-05-03T09:53:18.738Z</time></trkpt><trkpt lat="44.4130267" lon="10.7646933"><ele>543.0</ele><time>2026-05-03T09:53:19.737Z</time></trkpt><trkpt lat="44.4130633" lon="10.76458"><ele>543.0</ele><time>2026-05-03T09:53:20.737Z</time></trkpt><trkpt lat="44.4131067" lon="10.764455"><ele>544.4</ele><time>2026-05-03T09:53:21.737Z</time></trkpt><trkpt lat="44.4131583" lon="10.76431"><ele>545.8</ele><time>2026-05-03T09:53:22.737Z</time></trkpt><trkpt lat="44.4132083" lon="10.7641817"><ele>547.2</ele><time>2026-05-03T09:53:23.737Z</time></trkpt><trkpt lat="44.41323" lon="10.7640683"><ele>548.6</ele><time>2026-05-03T09:53:24.737Z</time></trkpt><trkpt lat="44.4132333" lon="10.7639483"><ele>550.0</ele><time>2026-05-03T09:53:25.737Z</time></trkpt><trkpt lat="44.413225" lon="10.763825"><ele>550.0</ele><time>2026-05-03T09:53:26.737Z</time></trkpt><trkpt lat="44.4132083" lon="10.763695"><ele>550.0</ele><time>2026-05-03T09:53:27.737Z</time></trkpt><trkpt lat="44.41317" lon="10.763565"><ele>550.0</ele><time>2026-05-03T09:53:28.737Z</time></trkpt><trkpt lat="44.4131117" lon="10.7634367"><ele>550.0</ele><time>2026-05-03T09:53:29.737Z</time></trkpt><trkpt lat="44.413035" lon="10.76333"><ele>550.0</ele><time>2026-05-03T09:53:30.736Z</time></trkpt><trkpt lat="44.4129633" lon="10.7632533"><ele>553.1666666666667</ele><time>2026-05-03T09:53:31.736Z</time></trkpt><trkpt lat="44.412905" lon="10.7632083"><ele>556.3333333333334</ele><time>2026-05-03T09:53:32.737Z</time></trkpt><trkpt lat="44.4128417" lon="10.7632117"><ele>559.5</ele><time>2026-05-03T09:53:33.737Z</time></trkpt><trkpt lat="44.41278" lon="10.7632417"><ele>562.6666666666666</ele><time>2026-05-03T09:53:34.737Z</time></trkpt><trkpt lat="44.4127117" lon="10.7633067"><ele>565.8333333333333</ele><time>2026-05-03T09:53:35.737Z</time></trkpt><trkpt lat="44.41264" lon="10.7633867"><ele>569.0</ele><time>2026-05-03T09:53:36.736Z</time></trkpt><trkpt lat="44.41257" lon="10.76347"><ele>569.0</ele><time>2026-05-03T09:53:37.737Z</time></trkpt><trkpt lat="44.4125133" lon="10.7635317"><ele>569.0</ele><time>2026-05-03T09:53:38.737Z</time></trkpt><trkpt lat="44.412395" lon="10.7635133"><ele>569.0</ele><time>2026-05-03T09:53:40.737Z</time></trkpt><trkpt lat="44.412325" lon="10.7634683"><ele>569.0</ele><time>2026-05-03T09:53:41.737Z</time></trkpt><trkpt lat="44.412245" lon="10.7634033"><ele>569.0</ele><time>2026-05-03T09:53:42.737Z</time></trkpt><trkpt lat="44.4121617" lon="10.7633517"><ele>572.0</ele><time>2026-05-03T09:53:43.737Z</time></trkpt><trkpt lat="44.4120767" lon="10.7633333"><ele>575.0</ele><time>2026-05-03T09:53:44.737Z</time></trkpt><trkpt lat="44.41199" lon="10.763335"><ele>578.0</ele><time>2026-05-03T09:53:45.736Z</time></trkpt><trkpt lat="44.4119083" lon="10.7633383"><ele>581.0</ele><time>2026-05-03T09:53:46.737Z</time></trkpt><trkpt lat="44.4118233" lon="10.763325"><ele>584.0</ele><time>2026-05-03T09:53:47.737Z</time></trkpt><trkpt lat="44.4117333" lon="10.7632867"><ele>587.0</ele><time>2026-05-03T09:53:48.737Z</time></trkpt><trkpt lat="44.4116333" lon="10.7632117"><ele>587.0</ele><time>2026-05-03T09:53:49.737Z</time></trkpt><trkpt lat="44.4115283" lon="10.76313"><ele>587.0</ele><time>2026-05-03T09:53:50.737Z</time></trkpt><trkpt lat="44.41143" lon="10.7630733"><ele>587.0</ele><time>2026-05-03T09:53:51.737Z</time></trkpt><trkpt lat="44.4113533" lon="10.7630533"><ele>587.0</ele><time>2026-05-03T09:53:52.737Z</time></trkpt><trkpt lat="44.411285" lon="10.7630767"><ele>587.0</ele><time>2026-05-03T09:53:53.737Z</time></trkpt><trkpt lat="44.411205" lon="10.7631183"><ele>589.2</ele><time>2026-05-03T09:53:54.737Z</time></trkpt><trkpt lat="44.4111317" lon="10.76317"><ele>591.4000000000001</ele><time>2026-05-03T09:53:55.737Z</time></trkpt><trkpt lat="44.4110683" lon="10.7631967"><ele>593.5999999999999</ele><time>2026-05-03T09:53:56.737Z</time></trkpt><trkpt lat="44.410955" lon="10.763215"><ele>595.8</ele><time>2026-05-03T09:53:58.737Z</time></trkpt><trkpt lat="44.410855" lon="10.7632417"><ele>598.0</ele><time>2026-05-03T09:54:00.737Z</time></trkpt><trkpt lat="44.410745" lon="10.7633533"><ele>598.0</ele><time>2026-05-03T09:54:02.736Z</time></trkpt><trkpt lat="44.4106867" lon="10.7634133"><ele>598.0</ele><time>2026-05-03T09:54:03.737Z</time></trkpt><trkpt lat="44.410605" lon="10.76348"><ele>598.0</ele><time>2026-05-03T09:54:04.737Z</time></trkpt><trkpt lat="44.4105033" lon="10.7635583"><ele>598.0</ele><time>2026-05-03T09:54:05.737Z</time></trkpt><trkpt lat="44.4103983" lon="10.76364"><ele>598.0</ele><time>2026-05-03T09:54:06.737Z</time></trkpt><trkpt lat="44.41029" lon="10.7637017"><ele>599.5</ele><time>2026-05-03T09:54:07.736Z</time></trkpt><trkpt lat="44.410175" lon="10.76372"><ele>601.0</ele><time>2026-05-03T09:54:08.737Z</time></trkpt><trkpt lat="44.4100417" lon="10.7636983"><ele>602.5</ele><time>2026-05-03T09:54:09.737Z</time></trkpt><trkpt lat="44.40991" lon="10.7636733"><ele>604.0</ele><time>2026-05-03T09:54:10.737Z</time></trkpt><trkpt lat="44.40977" lon="10.76364"><ele>606.25</ele><time>2026-05-03T09:54:11.737Z</time></trkpt><trkpt lat="44.40963" lon="10.7635933"><ele>608.5</ele><time>2026-05-03T09:54:12.737Z</time></trkpt><trkpt lat="44.4094917" lon="10.7635567"><ele>610.75</ele><time>2026-05-03T09:54:13.737Z</time></trkpt><trkpt lat="44.4093533" lon="10.7635233"><ele>613.0</ele><time>2026-05-03T09:54:14.737Z</time></trkpt><trkpt lat="44.409215" lon="10.7634967"><ele>613.0</ele><time>2026-05-03T09:54:15.736Z</time></trkpt><trkpt lat="44.4090883" lon="10.7634767"><ele>613.0</ele><time>2026-05-03T09:54:16.737Z</time></trkpt><trkpt lat="44.4089767" lon="10.763435"><ele>613.0</ele><time>2026-05-03T09:54:17.736Z</time></trkpt><trkpt lat="44.4088783" lon="10.7634183"><ele>613.0</ele><time>2026-05-03T09:54:18.737Z</time></trkpt><trkpt lat="44.4088017" lon="10.76341"><ele>613.0</ele><time>2026-05-03T09:54:19.737Z</time></trkpt><trkpt lat="44.4087283" lon="10.76344"><ele>615.1999999999999</ele><time>2026-05-03T09:54:20.736Z</time></trkpt><trkpt lat="44.408645" lon="10.7634933"><ele>617.4</ele><time>2026-05-03T09:54:21.737Z</time></trkpt><trkpt lat="44.4085633" lon="10.7635483"><ele>619.5999999999999</ele><time>2026-05-03T09:54:22.737Z</time></trkpt><trkpt lat="44.4084717" lon="10.7635983"><ele>621.8</ele><time>2026-05-03T09:54:23.736Z</time></trkpt><trkpt lat="44.408375" lon="10.7636467"><ele>624.0</ele><time>2026-05-03T09:54:24.737Z</time></trkpt><trkpt lat="44.408275" lon="10.7636967"><ele>624.3333333333334</ele><time>2026-05-03T09:54:25.737Z</time></trkpt><trkpt lat="44.4081817" lon="10.7637483"><ele>624.6666666666666</ele><time>2026-05-03T09:54:26.737Z</time></trkpt><trkpt lat="44.408105" lon="10.7638"><ele>625.0</ele><time>2026-05-03T09:54:27.736Z</time></trkpt><trkpt lat="44.40805" lon="10.76386"><ele>625.3333333333333</ele><time>2026-05-03T09:54:28.737Z</time></trkpt><trkpt lat="44.4080083" lon="10.763935"><ele>625.6666666666666</ele><time>2026-05-03T09:54:29.737Z</time></trkpt><trkpt lat="44.4079683" lon="10.7640617"><ele>626.0</ele><time>2026-05-03T09:54:31.737Z</time></trkpt><trkpt lat="44.4078817" lon="10.7640817"><ele>627.6666666666666</ele><time>2026-05-03T09:55:00.736Z</time></trkpt><trkpt lat="44.4078067" lon="10.764065"><ele>629.3333333333333</ele><time>2026-05-03T09:55:01.737Z</time></trkpt><trkpt lat="44.4077267" lon="10.7640367"><ele>631.0</ele><time>2026-05-03T09:55:02.737Z</time></trkpt><trkpt lat="44.4076467" lon="10.7639883"><ele>632.6666666666666</ele><time>2026-05-03T09:55:03.737Z</time></trkpt><trkpt lat="44.4075717" lon="10.7639267"><ele>634.3333333333334</ele><time>2026-05-03T09:55:04.737Z</time></trkpt><trkpt lat="44.4074983" lon="10.7638533"><ele>636.0</ele><time>2026-05-03T09:55:05.737Z</time></trkpt><trkpt lat="44.407425" lon="10.7637767"><ele>636.0</ele><time>2026-05-03T09:55:06.737Z</time></trkpt><trkpt lat="44.407355" lon="10.7636933"><ele>636.0</ele><time>2026-05-03T09:55:07.737Z</time></trkpt><trkpt lat="44.4072817" lon="10.763605"><ele>636.0</ele><time>2026-05-03T09:55:08.737Z</time></trkpt><trkpt lat="44.4072083" lon="10.7635117"><ele>636.0</ele><time>2026-05-03T09:55:09.737Z</time></trkpt><trkpt lat="44.4071417" lon="10.7634067"><ele>636.0</ele><time>2026-05-03T09:55:10.737Z</time></trkpt><trkpt lat="44.4070467" lon="10.763155"><ele>636.8</ele><time>2026-05-03T09:55:12.737Z</time></trkpt><trkpt lat="44.40702" lon="10.7630067"><ele>637.6</ele><time>2026-05-03T09:55:13.736Z</time></trkpt><trkpt lat="44.4070017" lon="10.7628433"><ele>638.4</ele><time>2026-05-03T09:55:14.737Z</time></trkpt><trkpt lat="44.4069833" lon="10.7626867"><ele>639.2</ele><time>2026-05-03T09:55:15.736Z</time></trkpt><trkpt lat="44.4069567" lon="10.76254"><ele>640.0</ele><time>2026-05-03T09:55:16.737Z</time></trkpt><trkpt lat="44.406935" lon="10.7624"><ele>640.0</ele><time>2026-05-03T09:55:17.737Z</time></trkpt><trkpt lat="44.4068983" lon="10.762265"><ele>640.0</ele><time>2026-05-03T09:55:18.737Z</time></trkpt><trkpt lat="44.4068533" lon="10.7621333"><ele>640.0</ele><time>2026-05-03T09:55:19.737Z</time></trkpt><trkpt lat="44.4068033" lon="10.7619967"><ele>640.0</ele><time>2026-05-03T09:55:20.737Z</time></trkpt><trkpt lat="44.406755" lon="10.7618617"><ele>640.0</ele><time>2026-05-03T09:55:21.737Z</time></trkpt><trkpt lat="44.40669" lon="10.761735"><ele>639.2</ele><time>2026-05-03T09:55:22.737Z</time></trkpt><trkpt lat="44.4066167" lon="10.7616233"><ele>638.4</ele><time>2026-05-03T09:55:23.737Z</time></trkpt><trkpt lat="44.4065267" lon="10.7615267"><ele>637.6</ele><time>2026-05-03T09:55:24.737Z</time></trkpt><trkpt lat="44.4064483" lon="10.76142"><ele>636.8</ele><time>2026-05-03T09:55:25.736Z</time></trkpt><trkpt lat="44.406375" lon="10.761295"><ele>636.0</ele><time>2026-05-03T09:55:26.737Z</time></trkpt><trkpt lat="44.4063317" lon="10.7611467"><ele>639.0</ele><time>2026-05-03T09:55:27.737Z</time></trkpt><trkpt lat="44.406305" lon="10.7609917"><ele>642.0</ele><time>2026-05-03T09:55:28.737Z</time></trkpt><trkpt lat="44.4062917" lon="10.7608317"><ele>645.0</ele><time>2026-05-03T09:55:29.736Z</time></trkpt><trkpt lat="44.406285" lon="10.7606733"><ele>648.0</ele><time>2026-05-03T09:55:30.737Z</time></trkpt><trkpt lat="44.4062833" lon="10.7605233"><ele>651.0</ele><time>2026-05-03T09:55:31.737Z</time></trkpt><trkpt lat="44.4062783" lon="10.760375"><ele>651.0</ele><time>2026-05-03T09:55:32.737Z</time></trkpt><trkpt lat="44.4062717" lon="10.76023"><ele>651.0</ele><time>2026-05-03T09:55:33.737Z</time></trkpt><trkpt lat="44.4062733" lon="10.76008"><ele>651.0</ele><time>2026-05-03T09:55:34.737Z</time></trkpt><trkpt lat="44.4062783" lon="10.7599333"><ele>651.0</ele><time>2026-05-03T09:55:35.737Z</time></trkpt><trkpt lat="44.4062733" lon="10.7597983"><ele>651.0</ele><time>2026-05-03T09:55:36.737Z</time></trkpt><trkpt lat="44.4062617" lon="10.759685"><ele>651.0</ele><time>2026-05-03T09:55:37.737Z</time></trkpt><trkpt lat="44.406235" lon="10.7596"><ele>651.0</ele><time>2026-05-03T09:55:38.737Z</time></trkpt><trkpt lat="44.4061767" lon="10.7595383"><ele>651.0</ele><time>2026-05-03T09:55:39.736Z</time></trkpt><trkpt lat="44.40611" lon="10.7595067"><ele>651.0</ele><time>2026-05-03T09:55:40.736Z</time></trkpt><trkpt lat="44.4060383" lon="10.7595217"><ele>651.0</ele><time>2026-05-03T09:55:41.737Z</time></trkpt><trkpt lat="44.40597" lon="10.759555"><ele>651.0</ele><time>2026-05-03T09:55:42.737Z</time></trkpt><trkpt lat="44.4059033" lon="10.7595983"><ele>651.0</ele><time>2026-05-03T09:55:43.737Z</time></trkpt><trkpt lat="44.4058433" lon="10.7596483"><ele>651.0</ele><time>2026-05-03T09:55:44.736Z</time></trkpt><trkpt lat="44.405775" lon="10.7597067"><ele>651.0</ele><time>2026-05-03T09:55:45.737Z</time></trkpt><trkpt lat="44.4057033" lon="10.7597683"><ele>651.0</ele><time>2026-05-03T09:55:46.737Z</time></trkpt><trkpt lat="44.405625" lon="10.7598283"><ele>651.0</ele><time>2026-05-03T09:55:47.737Z</time></trkpt><trkpt lat="44.4055417" lon="10.7598733"><ele>651.0</ele><time>2026-05-03T09:55:48.737Z</time></trkpt><trkpt lat="44.4054417" lon="10.7599"><ele>651.0</ele><time>2026-05-03T09:55:49.736Z</time></trkpt><trkpt lat="44.4053333" lon="10.7599067"><ele>651.5999999999999</ele><time>2026-05-03T09:55:50.736Z</time></trkpt><trkpt lat="44.40522" lon="10.7599"><ele>652.2</ele><time>2026-05-03T09:55:51.737Z</time></trkpt><trkpt lat="44.4051117" lon="10.7598933"><ele>652.8</ele><time>2026-05-03T09:55:52.737Z</time></trkpt><trkpt lat="44.4050017" lon="10.7598933"><ele>653.4000000000001</ele><time>2026-05-03T09:55:53.736Z</time></trkpt><trkpt lat="44.4049033" lon="10.7598633"><ele>654.0</ele><time>2026-05-03T09:55:54.737Z</time></trkpt><trkpt lat="44.4048017" lon="10.759815"><ele>654.0</ele><time>2026-05-03T09:55:55.737Z</time></trkpt><trkpt lat="44.4047033" lon="10.7597583"><ele>654.0</ele><time>2026-05-03T09:55:56.737Z</time></trkpt><trkpt lat="44.4046067" lon="10.7597083"><ele>654.0</ele><time>2026-05-03T09:55:57.737Z</time></trkpt><trkpt lat="44.4045033" lon="10.759695"><ele>654.0</ele><time>2026-05-03T09:55:58.737Z</time></trkpt><trkpt lat="44.4044" lon="10.7596917"><ele>654.0</ele><time>2026-05-03T09:55:59.736Z</time></trkpt><trkpt lat="44.404295" lon="10.7597033"><ele>655.0</ele><time>2026-05-03T09:56:00.736Z</time></trkpt><trkpt lat="44.404185" lon="10.75971"><ele>656.0</ele><time>2026-05-03T09:56:01.737Z</time></trkpt><trkpt lat="44.404085" lon="10.759695"><ele>657.0</ele><time>2026-05-03T09:56:02.737Z</time></trkpt><trkpt lat="44.40399" lon="10.7596633"><ele>658.0</ele><time>2026-05-03T09:56:03.737Z</time></trkpt><trkpt lat="44.4039033" lon="10.7596367"><ele>659.0</ele><time>2026-05-03T09:56:04.737Z</time></trkpt><trkpt lat="44.40383" lon="10.7596167"><ele>659.5714285714286</ele><time>2026-05-03T09:56:05.737Z</time></trkpt><trkpt lat="44.40376" lon="10.7595983"><ele>660.1428571428571</ele><time>2026-05-03T09:56:06.736Z</time></trkpt><trkpt lat="44.403685" lon="10.7595917"><ele>660.7142857142857</ele><time>2026-05-03T09:56:07.737Z</time></trkpt><trkpt lat="44.403615" lon="10.7595817"><ele>661.2857142857142</ele><time>2026-05-03T09:56:08.737Z</time></trkpt><trkpt lat="44.4035383" lon="10.7595683"><ele>661.8571428571429</ele><time>2026-05-03T09:56:09.737Z</time></trkpt><trkpt lat="44.4034717" lon="10.759545"><ele>662.4285714285713</ele><time>2026-05-03T09:56:10.736Z</time></trkpt><trkpt lat="44.4033867" lon="10.7595467"><ele>663.0</ele><time>2026-05-03T09:56:12.737Z</time></trkpt><trkpt lat="44.403365" lon="10.7596333"><ele>663.0</ele><time>2026-05-03T09:56:14.737Z</time></trkpt><trkpt lat="44.4033683" lon="10.7597233"><ele>663.0</ele><time>2026-05-03T09:56:15.737Z</time></trkpt><trkpt lat="44.4033833" lon="10.7598433"><ele>663.0</ele><time>2026-05-03T09:56:16.736Z</time></trkpt><trkpt lat="44.4033867" lon="10.7599767"><ele>663.0</ele><time>2026-05-03T09:56:17.737Z</time></trkpt><trkpt lat="44.403395" lon="10.7601067"><ele>663.0</ele><time>2026-05-03T09:56:18.737Z</time></trkpt><trkpt lat="44.4034033" lon="10.760235"><ele>663.0</ele><time>2026-05-03T09:56:19.737Z</time></trkpt><trkpt lat="44.4034017" lon="10.7603383"><ele>664.6666666666666</ele><time>2026-05-03T09:56:20.737Z</time></trkpt><trkpt lat="44.4034167" lon="10.7604483"><ele>666.3333333333334</ele><time>2026-05-03T09:56:21.736Z</time></trkpt><trkpt lat="44.4034517" lon="10.76054"><ele>668.0</ele><time>2026-05-03T09:56:22.737Z</time></trkpt><trkpt lat="44.4035083" lon="10.760615"><ele>669.6666666666667</ele><time>2026-05-03T09:56:23.737Z</time></trkpt><trkpt lat="44.4035867" lon="10.760685"><ele>671.3333333333334</ele><time>2026-05-03T09:56:24.736Z</time></trkpt><trkpt lat="44.40367" lon="10.760745"><ele>673.0</ele><time>2026-05-03T09:56:25.737Z</time></trkpt><trkpt lat="44.4037667" lon="10.7608067"><ele>672.5999999999999</ele><time>2026-05-03T09:56:26.737Z</time></trkpt><trkpt lat="44.4038633" lon="10.760865"><ele>672.1999999999999</ele><time>2026-05-03T09:56:27.737Z</time></trkpt><trkpt lat="44.4039533" lon="10.7609283"><ele>671.8</ele><time>2026-05-03T09:56:28.737Z</time></trkpt><trkpt lat="44.404025" lon="10.7609883"><ele>671.4</ele><time>2026-05-03T09:56:29.736Z</time></trkpt><trkpt lat="44.4040867" lon="10.7610483"><ele>671.0</ele><time>2026-05-03T09:56:30.737Z</time></trkpt><trkpt lat="44.404155" lon="10.7611717"><ele>672.0</ele><time>2026-05-03T09:56:32.737Z</time></trkpt><trkpt lat="44.4041933" lon="10.7613233"><ele>673.0</ele><time>2026-05-03T09:56:34.736Z</time></trkpt><trkpt lat="44.4041833" lon="10.7614117"><ele>674.0</ele><time>2026-05-03T09:56:35.737Z</time></trkpt><trkpt lat="44.4041533" lon="10.7615067"><ele>675.0</ele><time>2026-05-03T09:56:36.737Z</time></trkpt><trkpt lat="44.4040983" lon="10.7615967"><ele>676.0</ele><time>2026-05-03T09:56:37.737Z</time></trkpt><trkpt lat="44.4040467" lon="10.7616733"><ele>677.0</ele><time>2026-05-03T09:56:38.737Z</time></trkpt><trkpt lat="44.403995" lon="10.7618133"><ele>678.1666666666666</ele><time>2026-05-03T09:56:40.737Z</time></trkpt><trkpt lat="44.4040317" lon="10.76195"><ele>679.3333333333333</ele><time>2026-05-03T09:56:42.737Z</time></trkpt><trkpt lat="44.40407" lon="10.7620317"><ele>680.5</ele><time>2026-05-03T09:56:43.737Z</time></trkpt><trkpt lat="44.4041167" lon="10.7621167"><ele>681.6666666666666</ele><time>2026-05-03T09:56:44.737Z</time></trkpt><trkpt lat="44.4041717" lon="10.7622083"><ele>682.8333333333334</ele><time>2026-05-03T09:56:45.737Z</time></trkpt><trkpt lat="44.4042217" lon="10.7623017"><ele>684.0</ele><time>2026-05-03T09:56:46.736Z</time></trkpt><trkpt lat="44.4042483" lon="10.7623817"><ele>684.0</ele><time>2026-05-03T09:56:47.737Z</time></trkpt><trkpt lat="44.404215" lon="10.7625367"><ele>684.0</ele><time>2026-05-03T09:56:49.737Z</time></trkpt><trkpt lat="44.4041567" lon="10.762615"><ele>684.0</ele><time>2026-05-03T09:56:50.737Z</time></trkpt><trkpt lat="44.4040667" lon="10.7626967"><ele>684.0</ele><time>2026-05-03T09:56:51.737Z</time></trkpt><trkpt lat="44.403985" lon="10.76278"><ele>684.0</ele><time>2026-05-03T09:56:52.737Z</time></trkpt><trkpt lat="44.4039133" lon="10.762845"><ele>686.0</ele><time>2026-05-03T09:56:53.737Z</time></trkpt><trkpt lat="44.4038417" lon="10.7629133"><ele>688.0</ele><time>2026-05-03T09:56:54.737Z</time></trkpt><trkpt lat="44.4037717" lon="10.7629883"><ele>690.0</ele><time>2026-05-03T09:56:55.737Z</time></trkpt><trkpt lat="44.4037017" lon="10.7630533"><ele>692.0</ele><time>2026-05-03T09:56:56.736Z</time></trkpt><trkpt lat="44.4036417" lon="10.7630967"><ele>694.0</ele><time>2026-05-03T09:56:57.736Z</time></trkpt><trkpt lat="44.4035433" lon="10.7630567"><ele>696.0</ele><time>2026-05-03T09:56:59.737Z</time></trkpt><trkpt lat="44.4034867" lon="10.7629917"><ele>700.8</ele><time>2026-05-03T09:57:00.737Z</time></trkpt><trkpt lat="44.403415" lon="10.7629217"><ele>705.5999999999999</ele><time>2026-05-03T09:57:01.737Z</time></trkpt><trkpt lat="44.4033367" lon="10.7628617"><ele>710.4</ele><time>2026-05-03T09:57:02.737Z</time></trkpt><trkpt lat="44.403275" lon="10.7628367"><ele>715.2</ele><time>2026-05-03T09:57:03.737Z</time></trkpt><trkpt lat="44.40317" lon="10.7629033"><ele>720.0</ele><time>2026-05-03T09:57:05.737Z</time></trkpt><trkpt lat="44.403115" lon="10.76305"><ele>720.0</ele><time>2026-05-03T09:57:07.736Z</time></trkpt><trkpt lat="44.40309" lon="10.7631433"><ele>720.0</ele><time>2026-05-03T09:57:08.736Z</time></trkpt><trkpt lat="44.4030717" lon="10.7632567"><ele>720.0</ele><time>2026-05-03T09:57:09.737Z</time></trkpt><trkpt lat="44.4030617" lon="10.7633783"><ele>720.0</ele><time>2026-05-03T09:57:10.737Z</time></trkpt><trkpt lat="44.4030683" lon="10.7635017"><ele>720.0</ele><time>2026-05-03T09:57:11.737Z</time></trkpt><trkpt lat="44.403085" lon="10.7636267"><ele>720.0</ele><time>2026-05-03T09:57:12.737Z</time></trkpt><trkpt lat="44.4031033" lon="10.7637517"><ele>719.8571428571428</ele><time>2026-05-03T09:57:13.737Z</time></trkpt><trkpt lat="44.40311" lon="10.76385"><ele>719.7142857142858</ele><time>2026-05-03T09:57:14.737Z</time></trkpt><trkpt lat="44.403105" lon="10.7639467"><ele>719.5714285714286</ele><time>2026-05-03T09:57:15.737Z</time></trkpt><trkpt lat="44.4030867" lon="10.7640467"><ele>719.4285714285713</ele><time>2026-05-03T09:57:16.737Z</time></trkpt><trkpt lat="44.4030517" lon="10.764125"><ele>719.2857142857142</ele><time>2026-05-03T09:57:17.737Z</time></trkpt><trkpt lat="44.4030067" lon="10.7642117"><ele>719.1428571428571</ele><time>2026-05-03T09:57:18.736Z</time></trkpt><trkpt lat="44.4029617" lon="10.76429"><ele>719.0</ele><time>2026-05-03T09:57:19.737Z</time></trkpt><trkpt lat="44.4029117" lon="10.7643833"><ele>719.6</ele><time>2026-05-03T09:57:20.736Z</time></trkpt><trkpt lat="44.4028633" lon="10.7644833"><ele>720.2</ele><time>2026-05-03T09:57:21.737Z</time></trkpt><trkpt lat="44.4028067" lon="10.7645867"><ele>720.8000000000001</ele><time>2026-05-03T09:57:22.737Z</time></trkpt><trkpt lat="44.4027433" lon="10.7646933"><ele>721.4000000000001</ele><time>2026-05-03T09:57:23.737Z</time></trkpt><trkpt lat="44.4026817" lon="10.7647933"><ele>722.0</ele><time>2026-05-03T09:57:24.736Z</time></trkpt><trkpt lat="44.4026333" lon="10.76488"><ele>722.0</ele><time>2026-05-03T09:57:25.737Z</time></trkpt><trkpt lat="44.4025783" lon="10.7649983"><ele>722.0</ele><time>2026-05-03T09:57:27.737Z</time></trkpt><trkpt lat="44.4025333" lon="10.765065"><ele>722.0</ele><time>2026-05-03T09:57:29.737Z</time></trkpt><trkpt lat="44.4024517" lon="10.7651117"><ele>722.0</ele><time>2026-05-03T09:57:31.736Z</time></trkpt><trkpt lat="44.40235" lon="10.765165"><ele>722.0</ele><time>2026-05-03T09:57:33.737Z</time></trkpt><trkpt lat="44.402245" lon="10.7652467"><ele>722.4000000000001</ele><time>2026-05-03T09:57:35.736Z</time></trkpt><trkpt lat="44.4021033" lon="10.765435"><ele>722.8000000000001</ele><time>2026-05-03T09:57:38.737Z</time></trkpt><trkpt lat="44.402045" lon="10.7655033"><ele>723.2</ele><time>2026-05-03T09:57:39.737Z</time></trkpt><trkpt lat="44.4019917" lon="10.76557"><ele>723.6</ele><time>2026-05-03T09:57:40.737Z</time></trkpt><trkpt lat="44.4019417" lon="10.7656267"><ele>724.0</ele><time>2026-05-03T09:57:41.736Z</time></trkpt><trkpt lat="44.40187" lon="10.765705"><ele>724.0</ele><time>2026-05-03T09:57:43.737Z</time></trkpt><trkpt lat="44.4018133" lon="10.7657667"><ele>724.0</ele><time>2026-05-03T09:57:46.737Z</time></trkpt><trkpt lat="44.4017467" lon="10.7657367"><ele>724.0</ele><time>2026-05-03T10:36:30.729Z</time></trkpt><trkpt lat="44.4017233" lon="10.765605"><ele>724.0</ele><time>2026-05-03T10:36:34.728Z</time></trkpt><trkpt lat="44.4017117" lon="10.765485"><ele>724.0</ele><time>2026-05-03T10:36:36.729Z</time></trkpt><trkpt lat="44.4016883" lon="10.76535"><ele>724.0</ele><time>2026-05-03T10:36:38.729Z</time></trkpt><trkpt lat="44.401665" lon="10.7651683"><ele>722.0</ele><time>2026-05-03T10:36:40.729Z</time></trkpt><trkpt lat="44.40164" lon="10.7650517"><ele>720.0</ele><time>2026-05-03T10:36:41.729Z</time></trkpt><trkpt lat="44.4016017" lon="10.7649067"><ele>718.0</ele><time>2026-05-03T10:36:42.729Z</time></trkpt><trkpt lat="44.4015567" lon="10.7647517"><ele>716.0</ele><time>2026-05-03T10:36:43.728Z</time></trkpt><trkpt lat="44.401515" lon="10.7646067"><ele>714.0</ele><time>2026-05-03T10:36:44.728Z</time></trkpt><trkpt lat="44.40148" lon="10.7644567"><ele>711.8000000000001</ele><time>2026-05-03T10:36:45.729Z</time></trkpt><trkpt lat="44.4014617" lon="10.7642983"><ele>709.6</ele><time>2026-05-03T10:36:46.729Z</time></trkpt><trkpt lat="44.40146" lon="10.76415"><ele>707.4</ele><time>2026-05-03T10:36:47.729Z</time></trkpt><trkpt lat="44.4014583" lon="10.7640033"><ele>705.2</ele><time>2026-05-03T10:36:48.728Z</time></trkpt><trkpt lat="44.4014333" lon="10.76384"><ele>703.0</ele><time>2026-05-03T10:36:49.729Z</time></trkpt><trkpt lat="44.4014117" lon="10.7636717"><ele>701.5999999999999</ele><time>2026-05-03T10:36:50.729Z</time></trkpt><trkpt lat="44.4013933" lon="10.7635217"><ele>700.1999999999999</ele><time>2026-05-03T10:36:51.728Z</time></trkpt><trkpt lat="44.4013683" lon="10.7633933"><ele>698.8</ele><time>2026-05-03T10:36:52.729Z</time></trkpt><trkpt lat="44.40132" lon="10.7632767"><ele>697.4</ele><time>2026-05-03T10:36:53.729Z</time></trkpt><trkpt lat="44.4012517" lon="10.7631533"><ele>696.0</ele><time>2026-05-03T10:36:54.729Z</time></trkpt><trkpt lat="44.4011917" lon="10.7630517"><ele>693.75</ele><time>2026-05-03T10:36:55.729Z</time></trkpt><trkpt lat="44.4011467" lon="10.7629417"><ele>691.5</ele><time>2026-05-03T10:36:56.728Z</time></trkpt><trkpt lat="44.4011217" lon="10.7628"><ele>689.25</ele><time>2026-05-03T10:36:57.729Z</time></trkpt><trkpt lat="44.401105" lon="10.7626217"><ele>687.0</ele><time>2026-05-03T10:36:58.729Z</time></trkpt><trkpt lat="44.4010833" lon="10.7624317"><ele>685.25</ele><time>2026-05-03T10:36:59.728Z</time></trkpt><trkpt lat="44.4010583" lon="10.7622433"><ele>683.5</ele><time>2026-05-03T10:37:00.728Z</time></trkpt><trkpt lat="44.4010317" lon="10.7620583"><ele>681.75</ele><time>2026-05-03T10:37:01.728Z</time></trkpt><trkpt lat="44.4010117" lon="10.76188"><ele>680.0</ele><time>2026-05-03T10:37:02.728Z</time></trkpt><trkpt lat="44.400985" lon="10.7616917"><ele>678.0</ele><time>2026-05-03T10:37:03.729Z</time></trkpt><trkpt lat="44.4009567" lon="10.761505"><ele>676.0</ele><time>2026-05-03T10:37:04.729Z</time></trkpt><trkpt lat="44.4009267" lon="10.7613283"><ele>674.0</ele><time>2026-05-03T10:37:05.729Z</time></trkpt><trkpt lat="44.40091" lon="10.7611633"><ele>672.0</ele><time>2026-05-03T10:37:06.729Z</time></trkpt><trkpt lat="44.4009" lon="10.7610317"><ele>670.6666666666666</ele><time>2026-05-03T10:37:07.728Z</time></trkpt><trkpt lat="44.4009033" lon="10.760915"><ele>669.3333333333334</ele><time>2026-05-03T10:37:08.729Z</time></trkpt><trkpt lat="44.4009067" lon="10.76082"><ele>668.0</ele><time>2026-05-03T10:37:09.729Z</time></trkpt><trkpt lat="44.4008917" lon="10.7606867"><ele>666.6666666666667</ele><time>2026-05-03T10:37:11.729Z</time></trkpt><trkpt lat="44.4008467" lon="10.7606133"><ele>665.3333333333334</ele><time>2026-05-03T10:37:13.728Z</time></trkpt><trkpt lat="44.40076" lon="10.76054"><ele>664.0</ele><time>2026-05-03T10:37:15.729Z</time></trkpt><trkpt lat="44.400655" lon="10.7604767"><ele>664.0</ele><time>2026-05-03T10:37:17.729Z</time></trkpt><trkpt lat="44.4005767" lon="10.760375"><ele>664.0</ele><time>2026-05-03T10:37:19.728Z</time></trkpt><trkpt lat="44.400525" lon="10.760275"><ele>664.0</ele><time>2026-05-03T10:37:21.728Z</time></trkpt><trkpt lat="44.4004767" lon="10.760205"><ele>664.0</ele><time>2026-05-03T10:37:23.729Z</time></trkpt><trkpt lat="44.4004133" lon="10.760175"><ele>664.0</ele><time>2026-05-03T10:37:25.729Z</time></trkpt><trkpt lat="44.400325" lon="10.7601517"><ele>664.0</ele><time>2026-05-03T10:37:27.729Z</time></trkpt><trkpt lat="44.4001933" lon="10.7601233"><ele>662.5</ele><time>2026-05-03T10:37:29.729Z</time></trkpt><trkpt lat="44.4001067" lon="10.7601017"><ele>661.0</ele><time>2026-05-03T10:37:30.729Z</time></trkpt><trkpt lat="44.40002" lon="10.76008"><ele>659.5</ele><time>2026-05-03T10:37:31.729Z</time></trkpt><trkpt lat="44.3999383" lon="10.7600533"><ele>658.0</ele><time>2026-05-03T10:37:32.729Z</time></trkpt><trkpt lat="44.3998683" lon="10.760025"><ele>656.5</ele><time>2026-05-03T10:37:33.729Z</time></trkpt><trkpt lat="44.3997817" lon="10.7599667"><ele>655.0</ele><time>2026-05-03T10:37:35.729Z</time></trkpt><trkpt lat="44.399765" lon="10.7598483"><ele>655.0</ele><time>2026-05-03T10:37:37.729Z</time></trkpt><trkpt lat="44.399765" lon="10.7597533"><ele>655.0</ele><time>2026-05-03T10:37:38.729Z</time></trkpt><trkpt lat="44.39976" lon="10.7596633"><ele>655.0</ele><time>2026-05-03T10:37:39.728Z</time></trkpt><trkpt lat="44.39972" lon="10.759545"><ele>655.0</ele><time>2026-05-03T10:37:41.729Z</time></trkpt><trkpt lat="44.399635" lon="10.75951"><ele>653.0</ele><time>2026-05-03T10:37:43.729Z</time></trkpt><trkpt lat="44.3995817" lon="10.7595667"><ele>653.0</ele><time>2026-05-03T10:39:18.729Z</time></trkpt></trkseg><trkseg><trkpt lat="44.3996343" lon="10.7596994"><ele>653.0</ele><time>2026-05-03T11:30:45.761Z</time></trkpt><trkpt lat="44.3996613" lon="10.759805"><ele>653.0</ele><time>2026-05-03T11:30:47.761Z</time></trkpt><trkpt lat="44.3997166" lon="10.7598695"><ele>653.0</ele><time>2026-05-03T11:30:49.759Z</time></trkpt><trkpt lat="44.3997447" lon="10.7599545"><ele>653.0</ele><time>2026-05-03T11:30:51.76Z</time></trkpt><trkpt lat="44.3997014" lon="10.760076"><ele>653.0</ele><time>2026-05-03T11:30:53.759Z</time></trkpt><trkpt lat="44.3996571" lon="10.7601492"><ele>653.0</ele><time>2026-05-03T11:30:54.76Z</time></trkpt><trkpt lat="44.3995872" lon="10.7602318"><ele>655.0</ele><time>2026-05-03T11:30:55.76Z</time></trkpt><trkpt lat="44.3994947" lon="10.7603107"><ele>657.0</ele><time>2026-05-03T11:30:56.759Z</time></trkpt><trkpt lat="44.3993707" lon="10.7603841"><ele>659.0</ele><time>2026-05-03T11:30:57.76Z</time></trkpt><trkpt lat="44.3992443" lon="10.7604555"><ele>661.0</ele><time>2026-05-03T11:30:58.76Z</time></trkpt><trkpt lat="44.3991097" lon="10.760531"><ele>661.0</ele><time>2026-05-03T11:30:59.76Z</time></trkpt><trkpt lat="44.3989791" lon="10.7606079"><ele>661.0</ele><time>2026-05-03T11:31:00.76Z</time></trkpt><trkpt lat="44.3988543" lon="10.7606601"><ele>661.0</ele><time>2026-05-03T11:31:01.76Z</time></trkpt><trkpt lat="44.3987207" lon="10.7606673"><ele>661.0</ele><time>2026-05-03T11:31:02.76Z</time></trkpt><trkpt lat="44.3985804" lon="10.7606424"><ele>660.75</ele><time>2026-05-03T11:31:03.76Z</time></trkpt><trkpt lat="44.3984304" lon="10.760602"><ele>660.5</ele><time>2026-05-03T11:31:04.76Z</time></trkpt><trkpt lat="44.3982798" lon="10.7605741"><ele>660.25</ele><time>2026-05-03T11:31:05.759Z</time></trkpt><trkpt lat="44.3981361" lon="10.7605639"><ele>660.0</ele><time>2026-05-03T11:31:06.76Z</time></trkpt><trkpt lat="44.3980075" lon="10.7605912"><ele>660.75</ele><time>2026-05-03T11:31:07.76Z</time></trkpt><trkpt lat="44.3978896" lon="10.7606443"><ele>661.5</ele><time>2026-05-03T11:31:08.759Z</time></trkpt><trkpt lat="44.3977717" lon="10.7607127"><ele>662.25</ele><time>2026-05-03T11:31:09.76Z</time></trkpt><trkpt lat="44.3976488" lon="10.7607606"><ele>663.0</ele><time>2026-05-03T11:31:10.76Z</time></trkpt><trkpt lat="44.3975183" lon="10.7607677"><ele>663.0</ele><time>2026-05-03T11:31:11.759Z</time></trkpt><trkpt lat="44.3973752" lon="10.7607333"><ele>663.0</ele><time>2026-05-03T11:31:12.759Z</time></trkpt><trkpt lat="44.3972263" lon="10.7606723"><ele>663.0</ele><time>2026-05-03T11:31:13.76Z</time></trkpt><trkpt lat="44.3970945" lon="10.7605682"><ele>664.0</ele><time>2026-05-03T11:31:14.76Z</time></trkpt><trkpt lat="44.3969675" lon="10.760427"><ele>665.0</ele><time>2026-05-03T11:31:15.76Z</time></trkpt><trkpt lat="44.3968339" lon="10.760275"><ele>666.0</ele><time>2026-05-03T11:31:16.76Z</time></trkpt><trkpt lat="44.3966929" lon="10.7601382"><ele>666.0</ele><time>2026-05-03T11:31:17.76Z</time></trkpt><trkpt lat="44.3965558" lon="10.7600343"><ele>666.0</ele><time>2026-05-03T11:31:18.76Z</time></trkpt><trkpt lat="44.3964189" lon="10.759964"><ele>666.0</ele><time>2026-05-03T11:31:19.76Z</time></trkpt><trkpt lat="44.3962752" lon="10.7599314"><ele>666.0</ele><time>2026-05-03T11:31:20.759Z</time></trkpt><trkpt lat="44.3961121" lon="10.7599166"><ele>669.0</ele><time>2026-05-03T11:31:21.76Z</time></trkpt><trkpt lat="44.3959437" lon="10.7599068"><ele>672.0</ele><time>2026-05-03T11:31:22.76Z</time></trkpt><trkpt lat="44.3957762" lon="10.7598931"><ele>675.0</ele><time>2026-05-03T11:31:23.759Z</time></trkpt><trkpt lat="44.3956319" lon="10.7598766"><ele>675.0</ele><time>2026-05-03T11:31:24.76Z</time></trkpt><trkpt lat="44.3955186" lon="10.7598516"><ele>675.0</ele><time>2026-05-03T11:31:25.76Z</time></trkpt><trkpt lat="44.3954335" lon="10.759841"><ele>675.0</ele><time>2026-05-03T11:31:26.76Z</time></trkpt><trkpt lat="44.3953376" lon="10.7598572"><ele>675.0</ele><time>2026-05-03T11:31:28.76Z</time></trkpt><trkpt lat="44.3953435" lon="10.7599494"><ele>675.0</ele><time>2026-05-03T11:32:19.76Z</time></trkpt><trkpt lat="44.3953615" lon="10.7601119"><ele>676.25</ele><time>2026-05-03T11:32:21.759Z</time></trkpt><trkpt lat="44.3954154" lon="10.7601889"><ele>677.5</ele><time>2026-05-03T11:32:22.76Z</time></trkpt><trkpt lat="44.3955145" lon="10.7602485"><ele>678.75</ele><time>2026-05-03T11:32:23.76Z</time></trkpt><trkpt lat="44.3956467" lon="10.7603132"><ele>680.0</ele><time>2026-05-03T11:32:24.759Z</time></trkpt><trkpt lat="44.3957975" lon="10.7604083"><ele>682.3333333333333</ele><time>2026-05-03T11:32:25.76Z</time></trkpt><trkpt lat="44.3959492" lon="10.7605331"><ele>684.6666666666666</ele><time>2026-05-03T11:32:26.76Z</time></trkpt><trkpt lat="44.3960912" lon="10.7606686"><ele>687.0</ele><time>2026-05-03T11:32:27.759Z</time></trkpt><trkpt lat="44.3962252" lon="10.760784"><ele>687.0</ele><time>2026-05-03T11:32:28.76Z</time></trkpt><trkpt lat="44.3963402" lon="10.7608654"><ele>687.0</ele><time>2026-05-03T11:32:29.759Z</time></trkpt><trkpt lat="44.3964377" lon="10.7609225"><ele>687.0</ele><time>2026-05-03T11:32:30.76Z</time></trkpt><trkpt lat="44.3965043" lon="10.7609967"><ele>687.0</ele><time>2026-05-03T11:32:31.759Z</time></trkpt><trkpt lat="44.3965422" lon="10.7610979"><ele>687.0</ele><time>2026-05-03T11:32:32.76Z</time></trkpt><trkpt lat="44.3965566" lon="10.7612142"><ele>687.0</ele><time>2026-05-03T11:32:33.76Z</time></trkpt><trkpt lat="44.396533" lon="10.7613305"><ele>687.0</ele><time>2026-05-03T11:32:34.76Z</time></trkpt><trkpt lat="44.3964661" lon="10.7614386"><ele>687.0</ele><time>2026-05-03T11:32:35.76Z</time></trkpt><trkpt lat="44.3963782" lon="10.7615253"><ele>687.0</ele><time>2026-05-03T11:32:36.76Z</time></trkpt><trkpt lat="44.3962712" lon="10.7615574"><ele>687.0</ele><time>2026-05-03T11:32:37.76Z</time></trkpt><trkpt lat="44.3961463" lon="10.7615229"><ele>690.0</ele><time>2026-05-03T11:32:38.76Z</time></trkpt><trkpt lat="44.3960041" lon="10.7614396"><ele>693.0</ele><time>2026-05-03T11:32:39.759Z</time></trkpt><trkpt lat="44.3958607" lon="10.7613738"><ele>696.0</ele><time>2026-05-03T11:32:40.76Z</time></trkpt><trkpt lat="44.3957222" lon="10.7613571"><ele>699.0</ele><time>2026-05-03T11:32:41.76Z</time></trkpt><trkpt lat="44.3955892" lon="10.7613866"><ele>700.5</ele><time>2026-05-03T11:32:42.76Z</time></trkpt><trkpt lat="44.3954596" lon="10.7614577"><ele>702.0</ele><time>2026-05-03T11:32:43.76Z</time></trkpt><trkpt lat="44.3953311" lon="10.7615438"><ele>703.5</ele><time>2026-05-03T11:32:44.76Z</time></trkpt><trkpt lat="44.395203" lon="10.7616139"><ele>705.0</ele><time>2026-05-03T11:32:45.76Z</time></trkpt><trkpt lat="44.3950713" lon="10.7616395"><ele>705.0</ele><time>2026-05-03T11:32:46.76Z</time></trkpt><trkpt lat="44.3949363" lon="10.7616353"><ele>705.0</ele><time>2026-05-03T11:32:47.76Z</time></trkpt><trkpt lat="44.394826" lon="10.7616467"><ele>705.0</ele><time>2026-05-03T11:32:48.76Z</time></trkpt><trkpt lat="44.3947318" lon="10.7616906"><ele>705.0</ele><time>2026-05-03T11:32:49.76Z</time></trkpt><trkpt lat="44.3946463" lon="10.7617819"><ele>708.75</ele><time>2026-05-03T11:32:50.759Z</time></trkpt><trkpt lat="44.3945751" lon="10.761893"><ele>712.5</ele><time>2026-05-03T11:32:51.76Z</time></trkpt><trkpt lat="44.3945245" lon="10.762008"><ele>716.25</ele><time>2026-05-03T11:32:52.759Z</time></trkpt><trkpt lat="44.3944734" lon="10.762113"><ele>720.0</ele><time>2026-05-03T11:32:53.76Z</time></trkpt><trkpt lat="44.3943267" lon="10.7622575"><ele>720.0</ele><time>2026-05-03T11:32:55.76Z</time></trkpt><trkpt lat="44.394236" lon="10.7622643"><ele>720.0</ele><time>2026-05-03T11:32:56.76Z</time></trkpt><trkpt lat="44.3941416" lon="10.7622351"><ele>720.0</ele><time>2026-05-03T11:32:57.76Z</time></trkpt><trkpt lat="44.3940182" lon="10.7621579"><ele>720.0</ele><time>2026-05-03T11:32:58.76Z</time></trkpt><trkpt lat="44.3938617" lon="10.7620526"><ele>719.0</ele><time>2026-05-03T11:32:59.76Z</time></trkpt><trkpt lat="44.3936946" lon="10.761948"><ele>718.0</ele><time>2026-05-03T11:33:00.76Z</time></trkpt><trkpt lat="44.393538" lon="10.7618409"><ele>717.0</ele><time>2026-05-03T11:33:01.76Z</time></trkpt><trkpt lat="44.3933913" lon="10.7617343"><ele>717.0</ele><time>2026-05-03T11:33:02.759Z</time></trkpt><trkpt lat="44.3932689" lon="10.7616097"><ele>717.0</ele><time>2026-05-03T11:33:03.759Z</time></trkpt><trkpt lat="44.3931646" lon="10.7614618"><ele>717.0</ele><time>2026-05-03T11:33:04.76Z</time></trkpt><trkpt lat="44.3930777" lon="10.7613136"><ele>717.0</ele><time>2026-05-03T11:33:05.76Z</time></trkpt><trkpt lat="44.3930081" lon="10.7611771"><ele>717.8</ele><time>2026-05-03T11:33:06.76Z</time></trkpt><trkpt lat="44.3929411" lon="10.7610672"><ele>718.6</ele><time>2026-05-03T11:33:07.76Z</time></trkpt><trkpt lat="44.3928509" lon="10.7609859"><ele>719.4</ele><time>2026-05-03T11:33:08.759Z</time></trkpt><trkpt lat="44.39274" lon="10.7609173"><ele>720.1999999999999</ele><time>2026-05-03T11:33:09.76Z</time></trkpt><trkpt lat="44.3926353" lon="10.7608615"><ele>721.0</ele><time>2026-05-03T11:33:10.76Z</time></trkpt><trkpt lat="44.3925485" lon="10.7608294"><ele>721.0</ele><time>2026-05-03T11:33:11.759Z</time></trkpt><trkpt lat="44.3924523" lon="10.7608409"><ele>721.0</ele><time>2026-05-03T11:33:12.76Z</time></trkpt><trkpt lat="44.3923499" lon="10.7609026"><ele>721.0</ele><time>2026-05-03T11:33:13.76Z</time></trkpt><trkpt lat="44.3922448" lon="10.7610015"><ele>721.0</ele><time>2026-05-03T11:33:14.76Z</time></trkpt><trkpt lat="44.3921304" lon="10.7611131"><ele>723.6666666666667</ele><time>2026-05-03T11:33:15.76Z</time></trkpt><trkpt lat="44.3920016" lon="10.76123"><ele>726.3333333333334</ele><time>2026-05-03T11:33:16.76Z</time></trkpt><trkpt lat="44.3918701" lon="10.7613453"><ele>729.0</ele><time>2026-05-03T11:33:17.76Z</time></trkpt><trkpt lat="44.3917228" lon="10.7614369"><ele>729.0</ele><time>2026-05-03T11:33:18.76Z</time></trkpt><trkpt lat="44.3915604" lon="10.7615081"><ele>729.0</ele><time>2026-05-03T11:33:19.759Z</time></trkpt><trkpt lat="44.3913944" lon="10.7615795"><ele>729.0</ele><time>2026-05-03T11:33:20.759Z</time></trkpt><trkpt lat="44.3912398" lon="10.7616515"><ele>729.8000000000001</ele><time>2026-05-03T11:33:21.76Z</time></trkpt><trkpt lat="44.3911124" lon="10.7617323"><ele>730.6</ele><time>2026-05-03T11:33:22.76Z</time></trkpt><trkpt lat="44.3910095" lon="10.7617961"><ele>731.4</ele><time>2026-05-03T11:33:23.76Z</time></trkpt><trkpt lat="44.390917" lon="10.7618128"><ele>732.2</ele><time>2026-05-03T11:33:24.76Z</time></trkpt><trkpt lat="44.3908323" lon="10.7617676"><ele>733.0</ele><time>2026-05-03T11:33:25.76Z</time></trkpt><trkpt lat="44.3907676" lon="10.7616729"><ele>733.0</ele><time>2026-05-03T11:33:26.76Z</time></trkpt><trkpt lat="44.3907108" lon="10.761523"><ele>733.0</ele><time>2026-05-03T11:33:27.76Z</time></trkpt><trkpt lat="44.3906528" lon="10.7613532"><ele>733.0</ele><time>2026-05-03T11:33:28.76Z</time></trkpt><trkpt lat="44.390597" lon="10.761179"><ele>733.0</ele><time>2026-05-03T11:33:29.759Z</time></trkpt><trkpt lat="44.3905424" lon="10.7610365"><ele>735.0</ele><time>2026-05-03T11:33:30.76Z</time></trkpt><trkpt lat="44.3904823" lon="10.7609272"><ele>737.0</ele><time>2026-05-03T11:33:31.76Z</time></trkpt><trkpt lat="44.3904066" lon="10.7608662"><ele>739.0</ele><time>2026-05-03T11:33:32.76Z</time></trkpt><trkpt lat="44.3903306" lon="10.7608399"><ele>741.0</ele><time>2026-05-03T11:33:33.76Z</time></trkpt><trkpt lat="44.3902652" lon="10.7608487"><ele>743.0</ele><time>2026-05-03T11:33:34.76Z</time></trkpt><trkpt lat="44.3901623" lon="10.7609301"><ele>745.0</ele><time>2026-05-03T11:33:36.759Z</time></trkpt><trkpt lat="44.3900661" lon="10.7610203"><ele>745.0</ele><time>2026-05-03T11:33:38.759Z</time></trkpt><trkpt lat="44.3900132" lon="10.7610712"><ele>745.0</ele><time>2026-05-03T11:33:39.759Z</time></trkpt><trkpt lat="44.3899496" lon="10.7611363"><ele>745.0</ele><time>2026-05-03T11:33:40.76Z</time></trkpt><trkpt lat="44.3898821" lon="10.7612163"><ele>745.0</ele><time>2026-05-03T11:33:41.759Z</time></trkpt><trkpt lat="44.3898067" lon="10.7613055"><ele>745.0</ele><time>2026-05-03T11:33:42.76Z</time></trkpt><trkpt lat="44.3897184" lon="10.7613873"><ele>745.0</ele><time>2026-05-03T11:33:43.76Z</time></trkpt><trkpt lat="44.3896247" lon="10.761481"><ele>747.25</ele><time>2026-05-03T11:33:44.759Z</time></trkpt><trkpt lat="44.3895292" lon="10.7615839"><ele>749.5</ele><time>2026-05-03T11:33:45.76Z</time></trkpt><trkpt lat="44.3894381" lon="10.7616881"><ele>751.75</ele><time>2026-05-03T11:33:46.759Z</time></trkpt><trkpt lat="44.3893414" lon="10.7617825"><ele>754.0</ele><time>2026-05-03T11:33:47.76Z</time></trkpt><trkpt lat="44.3892326" lon="10.7618625"><ele>755.4000000000001</ele><time>2026-05-03T11:33:48.759Z</time></trkpt><trkpt lat="44.3891295" lon="10.7619468"><ele>756.8</ele><time>2026-05-03T11:33:49.76Z</time></trkpt><trkpt lat="44.389042" lon="10.7620362"><ele>758.2</ele><time>2026-05-03T11:33:50.759Z</time></trkpt><trkpt lat="44.3889786" lon="10.7621421"><ele>759.5999999999999</ele><time>2026-05-03T11:33:51.76Z</time></trkpt><trkpt lat="44.3889256" lon="10.7622635"><ele>761.0</ele><time>2026-05-03T11:33:52.76Z</time></trkpt><trkpt lat="44.3888649" lon="10.7623702"><ele>763.1999999999999</ele><time>2026-05-03T11:33:53.76Z</time></trkpt><trkpt lat="44.3887826" lon="10.7624672"><ele>765.4</ele><time>2026-05-03T11:33:54.76Z</time></trkpt><trkpt lat="44.3886951" lon="10.7625527"><ele>767.6</ele><time>2026-05-03T11:33:55.76Z</time></trkpt><trkpt lat="44.388628" lon="10.762658"><ele>769.8</ele><time>2026-05-03T11:33:56.76Z</time></trkpt><trkpt lat="44.3885611" lon="10.7627778"><ele>772.0</ele><time>2026-05-03T11:33:57.76Z</time></trkpt><trkpt lat="44.3884846" lon="10.762894"><ele>772.75</ele><time>2026-05-03T11:33:58.76Z</time></trkpt><trkpt lat="44.3883914" lon="10.7629874"><ele>773.5</ele><time>2026-05-03T11:33:59.76Z</time></trkpt><trkpt lat="44.3882746" lon="10.7630592"><ele>774.25</ele><time>2026-05-03T11:34:00.76Z</time></trkpt><trkpt lat="44.3881406" lon="10.7631214"><ele>775.0</ele><time>2026-05-03T11:34:01.76Z</time></trkpt><trkpt lat="44.3880008" lon="10.7631786"><ele>776.75</ele><time>2026-05-03T11:34:02.76Z</time></trkpt><trkpt lat="44.3878674" lon="10.7632385"><ele>778.5</ele><time>2026-05-03T11:34:03.76Z</time></trkpt><trkpt lat="44.3877444" lon="10.7632986"><ele>780.25</ele><time>2026-05-03T11:34:04.759Z</time></trkpt><trkpt lat="44.3876222" lon="10.7633405"><ele>782.0</ele><time>2026-05-03T11:34:05.76Z</time></trkpt><trkpt lat="44.387491" lon="10.7633659"><ele>782.0</ele><time>2026-05-03T11:34:06.759Z</time></trkpt><trkpt lat="44.3873531" lon="10.7633692"><ele>782.0</ele><time>2026-05-03T11:34:07.76Z</time></trkpt><trkpt lat="44.3872058" lon="10.7633738"><ele>782.0</ele><time>2026-05-03T11:34:08.759Z</time></trkpt><trkpt lat="44.3870546" lon="10.7633739"><ele>782.0</ele><time>2026-05-03T11:34:09.759Z</time></trkpt><trkpt lat="44.3869133" lon="10.7633743"><ele>783.0</ele><time>2026-05-03T11:34:10.76Z</time></trkpt><trkpt lat="44.3867837" lon="10.7633713"><ele>784.0</ele><time>2026-05-03T11:34:11.759Z</time></trkpt><trkpt lat="44.3866742" lon="10.7633776"><ele>785.0</ele><time>2026-05-03T11:34:12.76Z</time></trkpt><trkpt lat="44.3865779" lon="10.763396"><ele>786.0</ele><time>2026-05-03T11:34:13.76Z</time></trkpt><trkpt lat="44.3864963" lon="10.7634268"><ele>787.0</ele><time>2026-05-03T11:34:14.759Z</time></trkpt><trkpt lat="44.3864339" lon="10.7634611"><ele>787.0</ele><time>2026-05-03T11:34:15.759Z</time></trkpt><trkpt lat="44.3863547" lon="10.7635099"><ele>787.0</ele><time>2026-05-03T11:34:17.76Z</time></trkpt><trkpt lat="44.3863029" lon="10.76356"><ele>787.0</ele><time>2026-05-03T11:34:44.76Z</time></trkpt><trkpt lat="44.3862056" lon="10.7636406"><ele>787.0</ele><time>2026-05-03T11:34:46.76Z</time></trkpt><trkpt lat="44.3861403" lon="10.7637157"><ele>787.0</ele><time>2026-05-03T11:34:48.76Z</time></trkpt><trkpt lat="44.3862377" lon="10.7638319"><ele>786.2</ele><time>2026-05-03T11:34:51.76Z</time></trkpt><trkpt lat="44.3863029" lon="10.7638655"><ele>785.4000000000001</ele><time>2026-05-03T11:34:52.76Z</time></trkpt><trkpt lat="44.3863668" lon="10.7638957"><ele>784.5999999999999</ele><time>2026-05-03T11:34:53.759Z</time></trkpt><trkpt lat="44.3864786" lon="10.763949"><ele>783.8</ele><time>2026-05-03T11:34:55.76Z</time></trkpt><trkpt lat="44.3865793" lon="10.7640255"><ele>783.0</ele><time>2026-05-03T11:34:57.76Z</time></trkpt><trkpt lat="44.3866666" lon="10.7641257"><ele>783.0</ele><time>2026-05-03T11:34:59.76Z</time></trkpt><trkpt lat="44.3867567" lon="10.7642517"><ele>783.0</ele><time>2026-05-03T11:35:01.76Z</time></trkpt><trkpt lat="44.386805" lon="10.7643217"><ele>783.0</ele><time>2026-05-03T11:35:02.76Z</time></trkpt><trkpt lat="44.386855" lon="10.76439"><ele>783.0</ele><time>2026-05-03T11:35:03.76Z</time></trkpt><trkpt lat="44.3869083" lon="10.7644633"><ele>783.0</ele><time>2026-05-03T11:35:04.759Z</time></trkpt><trkpt lat="44.3869683" lon="10.7645367"><ele>783.0</ele><time>2026-05-03T11:35:05.76Z</time></trkpt><trkpt lat="44.3870183" lon="10.7646067"><ele>782.2857142857142</ele><time>2026-05-03T11:35:06.76Z</time></trkpt><trkpt lat="44.387065" lon="10.7646683"><ele>781.5714285714287</ele><time>2026-05-03T11:35:07.76Z</time></trkpt><trkpt lat="44.3871233" lon="10.7647383"><ele>780.8571428571429</ele><time>2026-05-03T11:35:08.76Z</time></trkpt><trkpt lat="44.3871717" lon="10.7648233"><ele>780.1428571428571</ele><time>2026-05-03T11:35:09.76Z</time></trkpt><trkpt lat="44.38719" lon="10.7649183"><ele>779.4285714285713</ele><time>2026-05-03T11:35:10.759Z</time></trkpt><trkpt lat="44.3871933" lon="10.7650167"><ele>778.7142857142858</ele><time>2026-05-03T11:35:11.76Z</time></trkpt><trkpt lat="44.3871817" lon="10.76513"><ele>778.0</ele><time>2026-05-03T11:35:12.76Z</time></trkpt><trkpt lat="44.3871583" lon="10.7652617"><ele>775.8</ele><time>2026-05-03T11:35:13.76Z</time></trkpt><trkpt lat="44.3871167" lon="10.7653967"><ele>773.5999999999999</ele><time>2026-05-03T11:35:14.76Z</time></trkpt><trkpt lat="44.3870783" lon="10.7655267"><ele>771.4000000000001</ele><time>2026-05-03T11:35:15.76Z</time></trkpt><trkpt lat="44.3870517" lon="10.7656583"><ele>769.2</ele><time>2026-05-03T11:35:16.758Z</time></trkpt><trkpt lat="44.3870433" lon="10.7658083"><ele>767.0</ele><time>2026-05-03T11:35:17.758Z</time></trkpt><trkpt lat="44.3870433" lon="10.765975"><ele>766.0</ele><time>2026-05-03T11:35:18.758Z</time></trkpt><trkpt lat="44.3870333" lon="10.7661417"><ele>765.0</ele><time>2026-05-03T11:35:19.759Z</time></trkpt><trkpt lat="44.3870317" lon="10.7663117"><ele>764.0</ele><time>2026-05-03T11:35:20.759Z</time></trkpt><trkpt lat="44.3870317" lon="10.7664533"><ele>763.0</ele><time>2026-05-03T11:35:21.759Z</time></trkpt><trkpt lat="44.38703" lon="10.7665817"><ele>762.0</ele><time>2026-05-03T11:35:22.759Z</time></trkpt><trkpt lat="44.3870217" lon="10.766695"><ele>762.0</ele><time>2026-05-03T11:35:23.759Z</time></trkpt><trkpt lat="44.387005" lon="10.7667917"><ele>762.0</ele><time>2026-05-03T11:35:24.759Z</time></trkpt><trkpt lat="44.386985" lon="10.7669067"><ele>762.0</ele><time>2026-05-03T11:35:25.759Z</time></trkpt><trkpt lat="44.38697" lon="10.7670317"><ele>762.0</ele><time>2026-05-03T11:35:26.758Z</time></trkpt><trkpt lat="44.38696" lon="10.7671583"><ele>762.0</ele><time>2026-05-03T11:35:27.759Z</time></trkpt><trkpt lat="44.3869517" lon="10.76727"><ele>762.0</ele><time>2026-05-03T11:35:28.759Z</time></trkpt><trkpt lat="44.386955" lon="10.7673867"><ele>762.6666666666666</ele><time>2026-05-03T11:35:29.759Z</time></trkpt><trkpt lat="44.3869733" lon="10.7674917"><ele>763.3333333333334</ele><time>2026-05-03T11:35:30.759Z</time></trkpt><trkpt lat="44.387" lon="10.767585"><ele>764.0</ele><time>2026-05-03T11:35:31.758Z</time></trkpt><trkpt lat="44.3869867" lon="10.76772"><ele>764.6666666666667</ele><time>2026-05-03T11:35:33.759Z</time></trkpt><trkpt lat="44.386945" lon="10.7677883"><ele>765.3333333333334</ele><time>2026-05-03T11:35:34.759Z</time></trkpt><trkpt lat="44.3868817" lon="10.7678667"><ele>766.0</ele><time>2026-05-03T11:35:35.759Z</time></trkpt><trkpt lat="44.3868067" lon="10.7679667"><ele>766.0</ele><time>2026-05-03T11:35:36.759Z</time></trkpt><trkpt lat="44.3867317" lon="10.7680833"><ele>766.0</ele><time>2026-05-03T11:35:37.759Z</time></trkpt><trkpt lat="44.3866583" lon="10.76821"><ele>766.0</ele><time>2026-05-03T11:35:38.759Z</time></trkpt><trkpt lat="44.3866017" lon="10.76834"><ele>766.0</ele><time>2026-05-03T11:35:39.759Z</time></trkpt><trkpt lat="44.386555" lon="10.768465"><ele>766.0</ele><time>2026-05-03T11:35:40.759Z</time></trkpt><trkpt lat="44.3865167" lon="10.7685867"><ele>767.5999999999999</ele><time>2026-05-03T11:35:41.758Z</time></trkpt><trkpt lat="44.3864867" lon="10.7686967"><ele>769.2</ele><time>2026-05-03T11:35:42.758Z</time></trkpt><trkpt lat="44.3864433" lon="10.768785"><ele>770.8</ele><time>2026-05-03T11:35:43.759Z</time></trkpt><trkpt lat="44.38633" lon="10.7688533"><ele>772.4000000000001</ele><time>2026-05-03T11:35:45.758Z</time></trkpt><trkpt lat="44.38625" lon="10.76887"><ele>774.0</ele><time>2026-05-03T11:35:46.759Z</time></trkpt><trkpt lat="44.3861617" lon="10.7688833"><ele>774.0</ele><time>2026-05-03T11:35:47.759Z</time></trkpt><trkpt lat="44.38608" lon="10.768905"><ele>774.0</ele><time>2026-05-03T11:35:48.759Z</time></trkpt><trkpt lat="44.3860167" lon="10.7689533"><ele>774.0</ele><time>2026-05-03T11:35:49.758Z</time></trkpt><trkpt lat="44.3859617" lon="10.76902"><ele>774.0</ele><time>2026-05-03T11:35:50.758Z</time></trkpt><trkpt lat="44.385925" lon="10.7690967"><ele>774.0</ele><time>2026-05-03T11:35:51.759Z</time></trkpt><trkpt lat="44.3859133" lon="10.7692067"><ele>774.0</ele><time>2026-05-03T11:35:53.759Z</time></trkpt><trkpt lat="44.3859517" lon="10.7692883"><ele>774.0</ele><time>2026-05-03T11:35:56.759Z</time></trkpt><trkpt lat="44.3860533" lon="10.7693567"><ele>773.4285714285714</ele><time>2026-05-03T11:35:58.759Z</time></trkpt><trkpt lat="44.38611" lon="10.7694033"><ele>772.8571428571429</ele><time>2026-05-03T11:35:59.759Z</time></trkpt><trkpt lat="44.3861717" lon="10.769445"><ele>772.2857142857142</ele><time>2026-05-03T11:36:00.759Z</time></trkpt><trkpt lat="44.38623" lon="10.769495"><ele>771.7142857142858</ele><time>2026-05-03T11:36:01.759Z</time></trkpt><trkpt lat="44.3862917" lon="10.769545"><ele>771.1428571428571</ele><time>2026-05-03T11:36:02.759Z</time></trkpt><trkpt lat="44.3863517" lon="10.769595"><ele>770.5714285714286</ele><time>2026-05-03T11:36:03.759Z</time></trkpt><trkpt lat="44.3864133" lon="10.7696283"><ele>770.0</ele><time>2026-05-03T11:36:04.759Z</time></trkpt><trkpt lat="44.386485" lon="10.7696583"><ele>772.2</ele><time>2026-05-03T11:36:05.759Z</time></trkpt><trkpt lat="44.3865667" lon="10.7697083"><ele>774.4</ele><time>2026-05-03T11:36:06.759Z</time></trkpt><trkpt lat="44.38667" lon="10.7697617"><ele>776.5999999999999</ele><time>2026-05-03T11:36:07.759Z</time></trkpt><trkpt lat="44.38678" lon="10.7698117"><ele>778.8</ele><time>2026-05-03T11:36:08.759Z</time></trkpt><trkpt lat="44.3869083" lon="10.7698617"><ele>781.0</ele><time>2026-05-03T11:36:09.759Z</time></trkpt><trkpt lat="44.387045" lon="10.7699283"><ele>780.6666666666666</ele><time>2026-05-03T11:36:10.759Z</time></trkpt><trkpt lat="44.387195" lon="10.770005"><ele>780.3333333333333</ele><time>2026-05-03T11:36:11.759Z</time></trkpt><trkpt lat="44.3873367" lon="10.7700917"><ele>780.0</ele><time>2026-05-03T11:36:12.758Z</time></trkpt><trkpt lat="44.38747" lon="10.7701617"><ele>780.25</ele><time>2026-05-03T11:36:13.759Z</time></trkpt><trkpt lat="44.3875983" lon="10.77022"><ele>780.5</ele><time>2026-05-03T11:36:14.759Z</time></trkpt><trkpt lat="44.3877433" lon="10.77026"><ele>780.75</ele><time>2026-05-03T11:36:15.758Z</time></trkpt><trkpt lat="44.3879" lon="10.7702817"><ele>781.0</ele><time>2026-05-03T11:36:16.759Z</time></trkpt><trkpt lat="44.3880833" lon="10.7703017"><ele>779.0</ele><time>2026-05-03T11:36:17.759Z</time></trkpt><trkpt lat="44.3882767" lon="10.7703317"><ele>777.0</ele><time>2026-05-03T11:36:18.759Z</time></trkpt><trkpt lat="44.38847" lon="10.770395"><ele>775.0</ele><time>2026-05-03T11:36:19.759Z</time></trkpt><trkpt lat="44.38866" lon="10.7704783"><ele>774.0</ele><time>2026-05-03T11:36:20.759Z</time></trkpt><trkpt lat="44.38885" lon="10.7705817"><ele>773.0</ele><time>2026-05-03T11:36:21.759Z</time></trkpt><trkpt lat="44.389035" lon="10.7707033"><ele>772.0</ele><time>2026-05-03T11:36:22.759Z</time></trkpt><trkpt lat="44.38922" lon="10.7708467"><ele>772.0</ele><time>2026-05-03T11:36:23.759Z</time></trkpt><trkpt lat="44.389405" lon="10.7709917"><ele>772.0</ele><time>2026-05-03T11:36:24.759Z</time></trkpt><trkpt lat="44.3895883" lon="10.7711383"><ele>772.0</ele><time>2026-05-03T11:36:25.759Z</time></trkpt><trkpt lat="44.3897567" lon="10.7712917"><ele>769.3333333333333</ele><time>2026-05-03T11:36:26.758Z</time></trkpt><trkpt lat="44.3899167" lon="10.7714367"><ele>766.6666666666666</ele><time>2026-05-03T11:36:27.758Z</time></trkpt><trkpt lat="44.3900683" lon="10.7715783"><ele>764.0</ele><time>2026-05-03T11:36:28.759Z</time></trkpt><trkpt lat="44.39021" lon="10.77172"><ele>764.0</ele><time>2026-05-03T11:36:29.759Z</time></trkpt><trkpt lat="44.3903483" lon="10.7718667"><ele>764.0</ele><time>2026-05-03T11:36:30.759Z</time></trkpt><trkpt lat="44.3904717" lon="10.77202"><ele>764.0</ele><time>2026-05-03T11:36:31.759Z</time></trkpt><trkpt lat="44.39059" lon="10.7721733"><ele>764.6666666666666</ele><time>2026-05-03T11:36:32.759Z</time></trkpt><trkpt lat="44.3907" lon="10.772335"><ele>765.3333333333334</ele><time>2026-05-03T11:36:33.759Z</time></trkpt><trkpt lat="44.3908067" lon="10.7724967"><ele>766.0</ele><time>2026-05-03T11:36:34.759Z</time></trkpt><trkpt lat="44.3909017" lon="10.772645"><ele>766.5</ele><time>2026-05-03T11:36:35.759Z</time></trkpt><trkpt lat="44.391" lon="10.77279"><ele>767.0</ele><time>2026-05-03T11:36:36.759Z</time></trkpt><trkpt lat="44.3910883" lon="10.7729317"><ele>767.5</ele><time>2026-05-03T11:36:37.759Z</time></trkpt><trkpt lat="44.391185" lon="10.7730717"><ele>768.0</ele><time>2026-05-03T11:36:38.759Z</time></trkpt><trkpt lat="44.39128" lon="10.7732167"><ele>767.5</ele><time>2026-05-03T11:36:39.759Z</time></trkpt><trkpt lat="44.3913733" lon="10.7733583"><ele>767.0</ele><time>2026-05-03T11:36:40.758Z</time></trkpt><trkpt lat="44.3914683" lon="10.7735"><ele>766.5</ele><time>2026-05-03T11:36:41.759Z</time></trkpt><trkpt lat="44.3915583" lon="10.7736233"><ele>766.0</ele><time>2026-05-03T11:36:42.758Z</time></trkpt><trkpt lat="44.3916283" lon="10.77372"><ele>766.8</ele><time>2026-05-03T11:36:43.759Z</time></trkpt><trkpt lat="44.3916733" lon="10.7738183"><ele>767.5999999999999</ele><time>2026-05-03T11:36:44.759Z</time></trkpt><trkpt lat="44.3916867" lon="10.7739267"><ele>768.4</ele><time>2026-05-03T11:36:45.759Z</time></trkpt><trkpt lat="44.3916717" lon="10.7740317"><ele>769.2</ele><time>2026-05-03T11:36:46.759Z</time></trkpt><trkpt lat="44.3916217" lon="10.774155"><ele>770.0</ele><time>2026-05-03T11:36:47.759Z</time></trkpt><trkpt lat="44.3915533" lon="10.7743"><ele>770.0</ele><time>2026-05-03T11:36:48.759Z</time></trkpt><trkpt lat="44.39148" lon="10.7744317"><ele>770.0</ele><time>2026-05-03T11:36:49.759Z</time></trkpt><trkpt lat="44.3914067" lon="10.77456"><ele>770.0</ele><time>2026-05-03T11:36:50.759Z</time></trkpt><trkpt lat="44.3913317" lon="10.774685"><ele>770.0</ele><time>2026-05-03T11:36:51.759Z</time></trkpt><trkpt lat="44.3912667" lon="10.7748167"><ele>770.0</ele><time>2026-05-03T11:36:52.759Z</time></trkpt><trkpt lat="44.3912067" lon="10.7749517"><ele>770.0</ele><time>2026-05-03T11:36:53.758Z</time></trkpt><trkpt lat="44.391155" lon="10.7750817"><ele>770.0</ele><time>2026-05-03T11:36:54.758Z</time></trkpt><trkpt lat="44.3911033" lon="10.775225"><ele>770.0</ele><time>2026-05-03T11:36:55.759Z</time></trkpt><trkpt lat="44.3910633" lon="10.7753833"><ele>769.25</ele><time>2026-05-03T11:36:56.759Z</time></trkpt><trkpt lat="44.3910333" lon="10.7755383"><ele>768.5</ele><time>2026-05-03T11:36:57.759Z</time></trkpt><trkpt lat="44.3910017" lon="10.775695"><ele>767.75</ele><time>2026-05-03T11:36:58.759Z</time></trkpt><trkpt lat="44.390975" lon="10.7758567"><ele>767.0</ele><time>2026-05-03T11:36:59.759Z</time></trkpt><trkpt lat="44.3909333" lon="10.776015"><ele>765.5</ele><time>2026-05-03T11:37:00.759Z</time></trkpt><trkpt lat="44.39088" lon="10.7761733"><ele>764.0</ele><time>2026-05-03T11:37:01.759Z</time></trkpt><trkpt lat="44.3908133" lon="10.77634"><ele>762.5</ele><time>2026-05-03T11:37:02.759Z</time></trkpt><trkpt lat="44.3907433" lon="10.7765183"><ele>761.0</ele><time>2026-05-03T11:37:03.759Z</time></trkpt><trkpt lat="44.39066" lon="10.7766867"><ele>759.0</ele><time>2026-05-03T11:37:04.759Z</time></trkpt><trkpt lat="44.3905783" lon="10.77686"><ele>757.0</ele><time>2026-05-03T11:37:05.758Z</time></trkpt><trkpt lat="44.3905067" lon="10.7770317"><ele>755.0</ele><time>2026-05-03T11:37:06.759Z</time></trkpt><trkpt lat="44.3904333" lon="10.7771933"><ele>753.0</ele><time>2026-05-03T11:37:07.758Z</time></trkpt><trkpt lat="44.3903583" lon="10.7773633"><ele>751.75</ele><time>2026-05-03T11:37:08.759Z</time></trkpt><trkpt lat="44.3902933" lon="10.7775333"><ele>750.5</ele><time>2026-05-03T11:37:09.758Z</time></trkpt><trkpt lat="44.390255" lon="10.7777167"><ele>749.25</ele><time>2026-05-03T11:37:10.758Z</time></trkpt><trkpt lat="44.390235" lon="10.7778983"><ele>748.0</ele><time>2026-05-03T11:37:11.759Z</time></trkpt><trkpt lat="44.3902333" lon="10.7780817"><ele>746.5</ele><time>2026-05-03T11:37:12.759Z</time></trkpt><trkpt lat="44.3902517" lon="10.7782717"><ele>745.0</ele><time>2026-05-03T11:37:13.759Z</time></trkpt><trkpt lat="44.3902817" lon="10.778455"><ele>743.5</ele><time>2026-05-03T11:37:14.759Z</time></trkpt><trkpt lat="44.3903133" lon="10.7786067"><ele>742.0</ele><time>2026-05-03T11:37:15.759Z</time></trkpt><trkpt lat="44.390365" lon="10.7787483"><ele>741.0</ele><time>2026-05-03T11:37:16.759Z</time></trkpt><trkpt lat="44.3904367" lon="10.7788717"><ele>740.0</ele><time>2026-05-03T11:37:17.759Z</time></trkpt><trkpt lat="44.3905617" lon="10.7789833"><ele>739.0</ele><time>2026-05-03T11:37:18.759Z</time></trkpt><trkpt lat="44.3906883" lon="10.7790983"><ele>738.0</ele><time>2026-05-03T11:37:19.759Z</time></trkpt><trkpt lat="44.3908083" lon="10.7792217"><ele>738.0</ele><time>2026-05-03T11:37:20.759Z</time></trkpt><trkpt lat="44.39091" lon="10.77935"><ele>738.0</ele><time>2026-05-03T11:37:21.759Z</time></trkpt><trkpt lat="44.3909967" lon="10.77948"><ele>738.0</ele><time>2026-05-03T11:37:22.759Z</time></trkpt><trkpt lat="44.3910717" lon="10.7795983"><ele>738.0</ele><time>2026-05-03T11:37:23.759Z</time></trkpt><trkpt lat="44.39114" lon="10.779705"><ele>735.5999999999999</ele><time>2026-05-03T11:37:24.758Z</time></trkpt><trkpt lat="44.3912" lon="10.7798"><ele>733.1999999999999</ele><time>2026-05-03T11:37:25.759Z</time></trkpt><trkpt lat="44.3912467" lon="10.7798783"><ele>730.8</ele><time>2026-05-03T11:37:26.759Z</time></trkpt><trkpt lat="44.391235" lon="10.78003"><ele>728.4</ele><time>2026-05-03T11:37:28.758Z</time></trkpt><trkpt lat="44.3911317" lon="10.7801467"><ele>726.0</ele><time>2026-05-03T11:37:30.758Z</time></trkpt><trkpt lat="44.391055" lon="10.7802133"><ele>724.8</ele><time>2026-05-03T11:37:31.759Z</time></trkpt><trkpt lat="44.390975" lon="10.78029"><ele>723.5999999999999</ele><time>2026-05-03T11:37:32.759Z</time></trkpt><trkpt lat="44.39088" lon="10.7803617"><ele>722.4</ele><time>2026-05-03T11:37:33.759Z</time></trkpt><trkpt lat="44.3907883" lon="10.780395"><ele>721.2</ele><time>2026-05-03T11:37:34.759Z</time></trkpt><trkpt lat="44.39068" lon="10.7804067"><ele>720.0</ele><time>2026-05-03T11:37:35.759Z</time></trkpt><trkpt lat="44.3905633" lon="10.7804"><ele>719.0</ele><time>2026-05-03T11:37:36.759Z</time></trkpt><trkpt lat="44.3904383" lon="10.7803717"><ele>718.0</ele><time>2026-05-03T11:37:37.759Z</time></trkpt><trkpt lat="44.3903133" lon="10.78033"><ele>717.0</ele><time>2026-05-03T11:37:38.759Z</time></trkpt><trkpt lat="44.3901917" lon="10.7802817"><ele>716.0</ele><time>2026-05-03T11:37:39.759Z</time></trkpt><trkpt lat="44.3900783" lon="10.7802333"><ele>716.0</ele><time>2026-05-03T11:37:40.759Z</time></trkpt><trkpt lat="44.3899767" lon="10.7801933"><ele>716.0</ele><time>2026-05-03T11:37:41.759Z</time></trkpt><trkpt lat="44.3898833" lon="10.78015"><ele>716.0</ele><time>2026-05-03T11:37:42.759Z</time></trkpt><trkpt lat="44.3897983" lon="10.7801"><ele>716.0</ele><time>2026-05-03T11:37:43.759Z</time></trkpt><trkpt lat="44.3897167" lon="10.7800367"><ele>716.0</ele><time>2026-05-03T11:37:44.759Z</time></trkpt><trkpt lat="44.389645" lon="10.7799833"><ele>716.0</ele><time>2026-05-03T11:37:45.759Z</time></trkpt><trkpt lat="44.3895817" lon="10.77994"><ele>716.0</ele><time>2026-05-03T11:37:46.759Z</time></trkpt><trkpt lat="44.3894817" lon="10.7799583"><ele>716.0</ele><time>2026-05-03T11:37:48.759Z</time></trkpt><trkpt lat="44.3894433" lon="10.7800467"><ele>716.0</ele><time>2026-05-03T11:37:49.759Z</time></trkpt><trkpt lat="44.389385" lon="10.7801767"><ele>716.0</ele><time>2026-05-03T11:37:50.759Z</time></trkpt><trkpt lat="44.38931" lon="10.7803083"><ele>716.0</ele><time>2026-05-03T11:37:51.759Z</time></trkpt><trkpt lat="44.3892083" lon="10.7804017"><ele>716.0</ele><time>2026-05-03T11:37:52.759Z</time></trkpt><trkpt lat="44.3891133" lon="10.78047"><ele>716.0</ele><time>2026-05-03T11:37:53.759Z</time></trkpt><trkpt lat="44.3890233" lon="10.780515"><ele>716.0</ele><time>2026-05-03T11:37:54.759Z</time></trkpt><trkpt lat="44.3889417" lon="10.7805267"><ele>716.0</ele><time>2026-05-03T11:37:55.759Z</time></trkpt><trkpt lat="44.3888433" lon="10.780515"><ele>716.0</ele><time>2026-05-03T11:37:56.759Z</time></trkpt><trkpt lat="44.38874" lon="10.7804767"><ele>716.0</ele><time>2026-05-03T11:37:57.759Z</time></trkpt><trkpt lat="44.3886233" lon="10.78043"><ele>716.0</ele><time>2026-05-03T11:37:58.759Z</time></trkpt><trkpt lat="44.3884917" lon="10.7804083"><ele>716.0</ele><time>2026-05-03T11:37:59.759Z</time></trkpt><trkpt lat="44.3883667" lon="10.7803783"><ele>716.0</ele><time>2026-05-03T11:38:00.759Z</time></trkpt><trkpt lat="44.3882433" lon="10.7803333"><ele>716.0</ele><time>2026-05-03T11:38:01.758Z</time></trkpt><trkpt lat="44.3881167" lon="10.7802883"><ele>716.0</ele><time>2026-05-03T11:38:02.759Z</time></trkpt><trkpt lat="44.3879883" lon="10.7802533"><ele>716.0</ele><time>2026-05-03T11:38:03.759Z</time></trkpt><trkpt lat="44.3878583" lon="10.7802067"><ele>719.0</ele><time>2026-05-03T11:38:04.759Z</time></trkpt><trkpt lat="44.387725" lon="10.7801567"><ele>722.0</ele><time>2026-05-03T11:38:05.759Z</time></trkpt><trkpt lat="44.387605" lon="10.7801117"><ele>725.0</ele><time>2026-05-03T11:38:06.759Z</time></trkpt><trkpt lat="44.387485" lon="10.7800733"><ele>728.0</ele><time>2026-05-03T11:38:07.759Z</time></trkpt><trkpt lat="44.38738" lon="10.78003"><ele>728.0</ele><time>2026-05-03T11:38:08.759Z</time></trkpt><trkpt lat="44.38728" lon="10.7799817"><ele>728.0</ele><time>2026-05-03T11:38:09.759Z</time></trkpt><trkpt lat="44.3871967" lon="10.7799233"><ele>728.0</ele><time>2026-05-03T11:38:10.759Z</time></trkpt><trkpt lat="44.387125" lon="10.7798383"><ele>728.0</ele><time>2026-05-03T11:38:11.758Z</time></trkpt><trkpt lat="44.3870683" lon="10.779725"><ele>728.0</ele><time>2026-05-03T11:38:12.759Z</time></trkpt><trkpt lat="44.3870233" lon="10.779615"><ele>726.6666666666666</ele><time>2026-05-03T11:38:13.759Z</time></trkpt><trkpt lat="44.3869767" lon="10.7795267"><ele>725.3333333333333</ele><time>2026-05-03T11:38:14.759Z</time></trkpt><trkpt lat="44.3869217" lon="10.77947"><ele>724.0</ele><time>2026-05-03T11:38:15.759Z</time></trkpt><trkpt lat="44.386855" lon="10.779465"><ele>722.6666666666666</ele><time>2026-05-03T11:38:16.759Z</time></trkpt><trkpt lat="44.3867767" lon="10.7795"><ele>721.3333333333334</ele><time>2026-05-03T11:38:17.758Z</time></trkpt><trkpt lat="44.3866883" lon="10.7795367"><ele>720.0</ele><time>2026-05-03T11:38:18.759Z</time></trkpt><trkpt lat="44.3865983" lon="10.779555"><ele>720.0</ele><time>2026-05-03T11:38:19.759Z</time></trkpt><trkpt lat="44.3865017" lon="10.7795683"><ele>720.0</ele><time>2026-05-03T11:38:20.759Z</time></trkpt><trkpt lat="44.3864" lon="10.7795733"><ele>720.0</ele><time>2026-05-03T11:38:21.759Z</time></trkpt><trkpt lat="44.386295" lon="10.779575"><ele>720.0</ele><time>2026-05-03T11:38:22.759Z</time></trkpt><trkpt lat="44.3861833" lon="10.7795767"><ele>720.0</ele><time>2026-05-03T11:38:23.759Z</time></trkpt><trkpt lat="44.3860717" lon="10.7795667"><ele>720.4</ele><time>2026-05-03T11:38:24.759Z</time></trkpt><trkpt lat="44.3859583" lon="10.7795533"><ele>720.8</ele><time>2026-05-03T11:38:25.758Z</time></trkpt><trkpt lat="44.3858417" lon="10.779545"><ele>721.2</ele><time>2026-05-03T11:38:26.759Z</time></trkpt><trkpt lat="44.3857383" lon="10.77953"><ele>721.6</ele><time>2026-05-03T11:38:27.759Z</time></trkpt><trkpt lat="44.38564" lon="10.779525"><ele>722.0</ele><time>2026-05-03T11:38:28.759Z</time></trkpt><trkpt lat="44.3855467" lon="10.77952"><ele>721.8</ele><time>2026-05-03T11:38:29.759Z</time></trkpt><trkpt lat="44.385445" lon="10.7795117"><ele>721.6</ele><time>2026-05-03T11:38:30.759Z</time></trkpt><trkpt lat="44.38535" lon="10.7794933"><ele>721.4</ele><time>2026-05-03T11:38:31.759Z</time></trkpt><trkpt lat="44.3852467" lon="10.7794667"><ele>721.1999999999999</ele><time>2026-05-03T11:38:32.759Z</time></trkpt><trkpt lat="44.3851433" lon="10.7794233"><ele>721.0</ele><time>2026-05-03T11:38:33.758Z</time></trkpt><trkpt lat="44.3850467" lon="10.7793733"><ele>721.4</ele><time>2026-05-03T11:38:34.759Z</time></trkpt><trkpt lat="44.3849583" lon="10.77933"><ele>721.8</ele><time>2026-05-03T11:38:35.759Z</time></trkpt><trkpt lat="44.3848733" lon="10.779285"><ele>722.1999999999999</ele><time>2026-05-03T11:38:36.759Z</time></trkpt><trkpt lat="44.3847983" lon="10.7792217"><ele>722.5999999999999</ele><time>2026-05-03T11:38:37.759Z</time></trkpt><trkpt lat="44.3847183" lon="10.7791417"><ele>723.0</ele><time>2026-05-03T11:38:38.759Z</time></trkpt><trkpt lat="44.3846333" lon="10.7790467"><ele>723.0</ele><time>2026-05-03T11:38:39.758Z</time></trkpt><trkpt lat="44.384555" lon="10.7789617"><ele>723.0</ele><time>2026-05-03T11:38:40.758Z</time></trkpt><trkpt lat="44.384485" lon="10.7788767"><ele>723.0</ele><time>2026-05-03T11:38:41.759Z</time></trkpt><trkpt lat="44.38442" lon="10.778795"><ele>723.0</ele><time>2026-05-03T11:38:42.759Z</time></trkpt><trkpt lat="44.38436" lon="10.7787083"><ele>723.0</ele><time>2026-05-03T11:38:43.759Z</time></trkpt><trkpt lat="44.38428" lon="10.7786217"><ele>723.0</ele><time>2026-05-03T11:38:44.759Z</time></trkpt><trkpt lat="44.3841833" lon="10.77855"><ele>723.0</ele><time>2026-05-03T11:38:45.759Z</time></trkpt><trkpt lat="44.3840833" lon="10.7784783"><ele>723.0</ele><time>2026-05-03T11:38:46.758Z</time></trkpt><trkpt lat="44.3839817" lon="10.7784"><ele>723.0</ele><time>2026-05-03T11:38:47.758Z</time></trkpt><trkpt lat="44.383885" lon="10.7783117"><ele>722.0</ele><time>2026-05-03T11:38:48.759Z</time></trkpt><trkpt lat="44.38381" lon="10.7782467"><ele>721.0</ele><time>2026-05-03T11:38:49.758Z</time></trkpt><trkpt lat="44.3837433" lon="10.7781833"><ele>720.0</ele><time>2026-05-03T11:38:50.758Z</time></trkpt><trkpt lat="44.3836717" lon="10.7781617"><ele>719.0</ele><time>2026-05-03T11:38:51.759Z</time></trkpt><trkpt lat="44.383595" lon="10.77817"><ele>718.0</ele><time>2026-05-03T11:38:52.759Z</time></trkpt><trkpt lat="44.3835017" lon="10.7782"><ele>717.0</ele><time>2026-05-03T11:38:53.758Z</time></trkpt><trkpt lat="44.3833967" lon="10.7782317"><ele>717.0</ele><time>2026-05-03T11:38:54.759Z</time></trkpt><trkpt lat="44.3832983" lon="10.7782567"><ele>717.0</ele><time>2026-05-03T11:38:55.759Z</time></trkpt><trkpt lat="44.3832017" lon="10.7782767"><ele>717.0</ele><time>2026-05-03T11:38:56.758Z</time></trkpt><trkpt lat="44.383105" lon="10.7782917"><ele>717.0</ele><time>2026-05-03T11:38:57.759Z</time></trkpt><trkpt lat="44.3830067" lon="10.7783133"><ele>717.0</ele><time>2026-05-03T11:38:58.759Z</time></trkpt><trkpt lat="44.3829217" lon="10.7783567"><ele>715.2</ele><time>2026-05-03T11:38:59.759Z</time></trkpt><trkpt lat="44.3828517" lon="10.77843"><ele>713.4000000000001</ele><time>2026-05-03T11:39:00.759Z</time></trkpt><trkpt lat="44.382775" lon="10.7785267"><ele>711.5999999999999</ele><time>2026-05-03T11:39:01.758Z</time></trkpt><trkpt lat="44.3826933" lon="10.7786217"><ele>709.8</ele><time>2026-05-03T11:39:02.759Z</time></trkpt><trkpt lat="44.38261" lon="10.7786983"><ele>708.0</ele><time>2026-05-03T11:39:03.759Z</time></trkpt><trkpt lat="44.38252" lon="10.778765"><ele>707.5</ele><time>2026-05-03T11:39:04.759Z</time></trkpt><trkpt lat="44.382445" lon="10.7788267"><ele>707.0</ele><time>2026-05-03T11:39:05.759Z</time></trkpt><trkpt lat="44.3823867" lon="10.7788883"><ele>706.5</ele><time>2026-05-03T11:39:06.758Z</time></trkpt><trkpt lat="44.3823417" lon="10.7789717"><ele>706.0</ele><time>2026-05-03T11:39:07.759Z</time></trkpt><trkpt lat="44.3823083" lon="10.7790633"><ele>705.5</ele><time>2026-05-03T11:39:08.759Z</time></trkpt><trkpt lat="44.3822783" lon="10.77918"><ele>705.0</ele><time>2026-05-03T11:39:09.759Z</time></trkpt><trkpt lat="44.3822383" lon="10.7793283"><ele>703.75</ele><time>2026-05-03T11:39:10.759Z</time></trkpt><trkpt lat="44.3821917" lon="10.77947"><ele>702.5</ele><time>2026-05-03T11:39:11.758Z</time></trkpt><trkpt lat="44.382145" lon="10.77961"><ele>701.25</ele><time>2026-05-03T11:39:12.758Z</time></trkpt><trkpt lat="44.382095" lon="10.7797633"><ele>700.0</ele><time>2026-05-03T11:39:13.759Z</time></trkpt><trkpt lat="44.3820433" lon="10.77991"><ele>698.5</ele><time>2026-05-03T11:39:14.759Z</time></trkpt><trkpt lat="44.3819933" lon="10.7800517"><ele>697.0</ele><time>2026-05-03T11:39:15.758Z</time></trkpt><trkpt lat="44.3819483" lon="10.7802083"><ele>695.5</ele><time>2026-05-03T11:39:16.759Z</time></trkpt><trkpt lat="44.3818983" lon="10.780355"><ele>694.0</ele><time>2026-05-03T11:39:17.759Z</time></trkpt><trkpt lat="44.381845" lon="10.780495"><ele>693.0</ele><time>2026-05-03T11:39:18.759Z</time></trkpt><trkpt lat="44.381785" lon="10.78063"><ele>692.0</ele><time>2026-05-03T11:39:19.759Z</time></trkpt><trkpt lat="44.3817167" lon="10.7807567"><ele>691.0</ele><time>2026-05-03T11:39:20.759Z</time></trkpt><trkpt lat="44.3816517" lon="10.780865"><ele>690.0</ele><time>2026-05-03T11:39:21.759Z</time></trkpt><trkpt lat="44.3815817" lon="10.7809667"><ele>689.0</ele><time>2026-05-03T11:39:22.759Z</time></trkpt><trkpt lat="44.381505" lon="10.7810533"><ele>687.1666666666666</ele><time>2026-05-03T11:39:23.759Z</time></trkpt><trkpt lat="44.381425" lon="10.7811133"><ele>685.3333333333333</ele><time>2026-05-03T11:39:24.759Z</time></trkpt><trkpt lat="44.38134" lon="10.7811517"><ele>683.5</ele><time>2026-05-03T11:39:25.758Z</time></trkpt><trkpt lat="44.38126" lon="10.781185"><ele>681.6666666666666</ele><time>2026-05-03T11:39:26.759Z</time></trkpt><trkpt lat="44.3811833" lon="10.7812167"><ele>679.8333333333334</ele><time>2026-05-03T11:39:27.759Z</time></trkpt><trkpt lat="44.3811167" lon="10.781235"><ele>678.0</ele><time>2026-05-03T11:39:28.759Z</time></trkpt><trkpt lat="44.3810367" lon="10.7812617"><ele>677.5999999999999</ele><time>2026-05-03T11:39:30.759Z</time></trkpt><trkpt lat="44.380945" lon="10.781285"><ele>677.1999999999999</ele><time>2026-05-03T11:40:07.757Z</time></trkpt><trkpt lat="44.3808433" lon="10.7813017"><ele>676.8</ele><time>2026-05-03T11:40:09.758Z</time></trkpt><trkpt lat="44.3807483" lon="10.7813"><ele>676.4</ele><time>2026-05-03T11:40:11.758Z</time></trkpt><trkpt lat="44.3806633" lon="10.7812867"><ele>676.0</ele><time>2026-05-03T11:40:13.758Z</time></trkpt><trkpt lat="44.3805667" lon="10.78131"><ele>673.75</ele><time>2026-05-03T11:40:15.758Z</time></trkpt><trkpt lat="44.38042" lon="10.7813733"><ele>671.5</ele><time>2026-05-03T11:40:18.757Z</time></trkpt><trkpt lat="44.380315" lon="10.7813833"><ele>669.25</ele><time>2026-05-03T11:40:20.757Z</time></trkpt><trkpt lat="44.3802417" lon="10.7813133"><ele>667.0</ele><time>2026-05-03T11:40:22.758Z</time></trkpt><trkpt lat="44.3802383" lon="10.7811333"><ele>667.0</ele><time>2026-05-03T11:40:24.757Z</time></trkpt><trkpt lat="44.380255" lon="10.7810233"><ele>667.0</ele><time>2026-05-03T11:40:25.758Z</time></trkpt><trkpt lat="44.3802633" lon="10.780785"><ele>667.0</ele><time>2026-05-03T11:40:27.758Z</time></trkpt><trkpt lat="44.3802417" lon="10.78069"><ele>667.0</ele><time>2026-05-03T11:40:28.758Z</time></trkpt><trkpt lat="44.3801517" lon="10.7805883"><ele>667.0</ele><time>2026-05-03T11:40:30.758Z</time></trkpt><trkpt lat="44.3800667" lon="10.78058"><ele>667.0</ele><time>2026-05-03T11:40:31.758Z</time></trkpt><trkpt lat="44.3798317" lon="10.7806383"><ele>667.0</ele><time>2026-05-03T11:40:33.758Z</time></trkpt><trkpt lat="44.3797217" lon="10.78065"><ele>667.0</ele><time>2026-05-03T11:40:34.757Z</time></trkpt><trkpt lat="44.3796217" lon="10.780675"><ele>665.3333333333334</ele><time>2026-05-03T11:40:35.758Z</time></trkpt><trkpt lat="44.3795317" lon="10.7807183"><ele>663.6666666666667</ele><time>2026-05-03T11:40:36.757Z</time></trkpt><trkpt lat="44.3794483" lon="10.7807733"><ele>662.0</ele><time>2026-05-03T11:40:37.758Z</time></trkpt><trkpt lat="44.37938" lon="10.7808"><ele>660.3333333333334</ele><time>2026-05-03T11:40:38.757Z</time></trkpt><trkpt lat="44.37928" lon="10.780725"><ele>658.6666666666666</ele><time>2026-05-03T11:40:40.757Z</time></trkpt><trkpt lat="44.3792433" lon="10.78064"><ele>657.0</ele><time>2026-05-03T11:40:41.758Z</time></trkpt><trkpt lat="44.379215" lon="10.7805383"><ele>657.0</ele><time>2026-05-03T11:40:42.758Z</time></trkpt><trkpt lat="44.379185" lon="10.78046"><ele>657.0</ele><time>2026-05-03T11:40:43.758Z</time></trkpt><trkpt lat="44.379125" lon="10.7804317"><ele>657.0</ele><time>2026-05-03T11:40:44.757Z</time></trkpt><trkpt lat="44.3790583" lon="10.78045"><ele>657.0</ele><time>2026-05-03T11:40:45.757Z</time></trkpt><trkpt lat="44.3789917" lon="10.78048"><ele>657.0</ele><time>2026-05-03T11:40:46.758Z</time></trkpt><trkpt lat="44.3789233" lon="10.7805367"><ele>657.0</ele><time>2026-05-03T11:40:47.758Z</time></trkpt><trkpt lat="44.378855" lon="10.780605"><ele>657.0</ele><time>2026-05-03T11:40:48.757Z</time></trkpt><trkpt lat="44.3787917" lon="10.7806833"><ele>654.4000000000001</ele><time>2026-05-03T11:40:49.758Z</time></trkpt><trkpt lat="44.3787267" lon="10.7807517"><ele>651.8000000000001</ele><time>2026-05-03T11:40:50.758Z</time></trkpt><trkpt lat="44.3786683" lon="10.7808217"><ele>649.2</ele><time>2026-05-03T11:40:51.758Z</time></trkpt><trkpt lat="44.3785817" lon="10.7809317"><ele>646.6</ele><time>2026-05-03T11:40:53.758Z</time></trkpt><trkpt lat="44.378485" lon="10.78102"><ele>644.0</ele><time>2026-05-03T11:40:55.758Z</time></trkpt><trkpt lat="44.378385" lon="10.7810667"><ele>642.0</ele><time>2026-05-03T11:40:57.757Z</time></trkpt><trkpt lat="44.378315" lon="10.7810883"><ele>640.0</ele><time>2026-05-03T11:40:58.758Z</time></trkpt><trkpt lat="44.37817" lon="10.78113"><ele>638.0</ele><time>2026-05-03T11:41:00.758Z</time></trkpt><trkpt lat="44.3781" lon="10.7811483"><ele>636.0</ele><time>2026-05-03T11:41:01.758Z</time></trkpt><trkpt lat="44.3780183" lon="10.7811633"><ele>634.0</ele><time>2026-05-03T11:41:02.758Z</time></trkpt><trkpt lat="44.3779417" lon="10.78118"><ele>632.0</ele><time>2026-05-03T11:41:03.758Z</time></trkpt><trkpt lat="44.377855" lon="10.7812017"><ele>630.0</ele><time>2026-05-03T11:41:04.758Z</time></trkpt><trkpt lat="44.3777733" lon="10.7812217"><ele>628.0</ele><time>2026-05-03T11:41:05.758Z</time></trkpt><trkpt lat="44.3777" lon="10.7812367"><ele>626.0</ele><time>2026-05-03T11:41:06.757Z</time></trkpt><trkpt lat="44.3776167" lon="10.7812583"><ele>624.0</ele><time>2026-05-03T11:41:07.758Z</time></trkpt><trkpt lat="44.3775383" lon="10.7812767"><ele>622.0</ele><time>2026-05-03T11:41:08.757Z</time></trkpt><trkpt lat="44.3773833" lon="10.7813233"><ele>622.0</ele><time>2026-05-03T11:41:10.758Z</time></trkpt><trkpt lat="44.377305" lon="10.7813717"><ele>622.0</ele><time>2026-05-03T11:41:11.758Z</time></trkpt><trkpt lat="44.3772267" lon="10.7814317"><ele>622.0</ele><time>2026-05-03T11:41:12.757Z</time></trkpt><trkpt lat="44.3771533" lon="10.7815133"><ele>622.0</ele><time>2026-05-03T11:41:13.758Z</time></trkpt><trkpt lat="44.37707" lon="10.781585"><ele>622.0</ele><time>2026-05-03T11:41:14.757Z</time></trkpt><trkpt lat="44.37698" lon="10.7816267"><ele>618.8333333333334</ele><time>2026-05-03T11:41:15.758Z</time></trkpt><trkpt lat="44.37688" lon="10.781625"><ele>615.6666666666667</ele><time>2026-05-03T11:41:16.757Z</time></trkpt><trkpt lat="44.3767883" lon="10.7816067"><ele>612.5</ele><time>2026-05-03T11:41:17.758Z</time></trkpt><trkpt lat="44.3767117" lon="10.7816017"><ele>609.3333333333334</ele><time>2026-05-03T11:41:18.758Z</time></trkpt><trkpt lat="44.37664" lon="10.7816033"><ele>606.1666666666666</ele><time>2026-05-03T11:41:19.758Z</time></trkpt><trkpt lat="44.3765667" lon="10.78164"><ele>603.0</ele><time>2026-05-03T11:41:20.758Z</time></trkpt><trkpt lat="44.3764933" lon="10.7817083"><ele>603.0</ele><time>2026-05-03T11:41:21.758Z</time></trkpt><trkpt lat="44.376415" lon="10.7818067"><ele>603.0</ele><time>2026-05-03T11:41:22.757Z</time></trkpt><trkpt lat="44.3763283" lon="10.7819117"><ele>603.0</ele><time>2026-05-03T11:41:23.758Z</time></trkpt><trkpt lat="44.3762467" lon="10.7820233"><ele>603.0</ele><time>2026-05-03T11:41:24.758Z</time></trkpt><trkpt lat="44.3761733" lon="10.782145"><ele>603.0</ele><time>2026-05-03T11:41:25.758Z</time></trkpt><trkpt lat="44.3761" lon="10.78226"><ele>598.8</ele><time>2026-05-03T11:41:26.758Z</time></trkpt><trkpt lat="44.37603" lon="10.782365"><ele>594.5999999999999</ele><time>2026-05-03T11:41:27.758Z</time></trkpt><trkpt lat="44.375975" lon="10.782465"><ele>590.4000000000001</ele><time>2026-05-03T11:41:28.757Z</time></trkpt><trkpt lat="44.3759167" lon="10.7825717"><ele>586.2</ele><time>2026-05-03T11:41:29.758Z</time></trkpt><trkpt lat="44.375865" lon="10.7826733"><ele>582.0</ele><time>2026-05-03T11:41:30.758Z</time></trkpt><trkpt lat="44.3758083" lon="10.7827733"><ele>579.6666666666666</ele><time>2026-05-03T11:41:31.758Z</time></trkpt><trkpt lat="44.37575" lon="10.7828633"><ele>577.3333333333334</ele><time>2026-05-03T11:41:32.758Z</time></trkpt><trkpt lat="44.3756983" lon="10.7829417"><ele>575.0</ele><time>2026-05-03T11:41:33.757Z</time></trkpt><trkpt lat="44.3756433" lon="10.7830233"><ele>572.6666666666667</ele><time>2026-05-03T11:41:34.758Z</time></trkpt><trkpt lat="44.3755883" lon="10.783095"><ele>570.3333333333334</ele><time>2026-05-03T11:41:35.758Z</time></trkpt><trkpt lat="44.3755433" lon="10.78316"><ele>568.0</ele><time>2026-05-03T11:41:36.758Z</time></trkpt><trkpt lat="44.3754933" lon="10.7832817"><ele>568.0</ele><time>2026-05-03T11:41:38.758Z</time></trkpt><trkpt lat="44.3755183" lon="10.78341"><ele>568.0</ele><time>2026-05-03T11:41:40.758Z</time></trkpt><trkpt lat="44.375575" lon="10.7834683"><ele>568.0</ele><time>2026-05-03T11:41:41.758Z</time></trkpt><trkpt lat="44.3756533" lon="10.7835317"><ele>568.0</ele><time>2026-05-03T11:41:42.757Z</time></trkpt><trkpt lat="44.375745" lon="10.7835933"><ele>568.0</ele><time>2026-05-03T11:41:43.757Z</time></trkpt><trkpt lat="44.3758383" lon="10.7836617"><ele>566.6</ele><time>2026-05-03T11:41:44.757Z</time></trkpt><trkpt lat="44.37591" lon="10.7837333"><ele>565.1999999999999</ele><time>2026-05-03T11:41:45.758Z</time></trkpt><trkpt lat="44.3759783" lon="10.7838217"><ele>563.8</ele><time>2026-05-03T11:41:46.758Z</time></trkpt><trkpt lat="44.37605" lon="10.783925"><ele>562.4</ele><time>2026-05-03T11:41:47.758Z</time></trkpt><trkpt lat="44.3761183" lon="10.7840283"><ele>561.0</ele><time>2026-05-03T11:41:48.758Z</time></trkpt><trkpt lat="44.3761667" lon="10.7841417"><ele>561.0</ele><time>2026-05-03T11:41:49.758Z</time></trkpt><trkpt lat="44.3761883" lon="10.7842633"><ele>561.0</ele><time>2026-05-03T11:41:50.758Z</time></trkpt><trkpt lat="44.376205" lon="10.7844117"><ele>561.0</ele><time>2026-05-03T11:41:51.758Z</time></trkpt><trkpt lat="44.3762067" lon="10.7845683"><ele>561.0</ele><time>2026-05-03T11:41:52.758Z</time></trkpt><trkpt lat="44.3762183" lon="10.78473"><ele>561.0</ele><time>2026-05-03T11:41:53.758Z</time></trkpt><trkpt lat="44.3762383" lon="10.7848867"><ele>561.0</ele><time>2026-05-03T11:41:54.758Z</time></trkpt><trkpt lat="44.3762567" lon="10.7850433"><ele>561.0</ele><time>2026-05-03T11:41:55.757Z</time></trkpt><trkpt lat="44.37626" lon="10.7851917"><ele>561.0</ele><time>2026-05-03T11:41:56.758Z</time></trkpt><trkpt lat="44.37625" lon="10.7853367"><ele>561.0</ele><time>2026-05-03T11:41:57.758Z</time></trkpt><trkpt lat="44.3762533" lon="10.78548"><ele>561.0</ele><time>2026-05-03T11:41:58.757Z</time></trkpt><trkpt lat="44.376275" lon="10.7856083"><ele>562.0</ele><time>2026-05-03T11:41:59.758Z</time></trkpt><trkpt lat="44.3763067" lon="10.7857083"><ele>563.0</ele><time>2026-05-03T11:42:00.758Z</time></trkpt><trkpt lat="44.37636" lon="10.7857883"><ele>564.0</ele><time>2026-05-03T11:42:01.758Z</time></trkpt><trkpt lat="44.3764233" lon="10.7858633"><ele>565.0</ele><time>2026-05-03T11:42:02.758Z</time></trkpt><trkpt lat="44.3764817" lon="10.7859233"><ele>566.0</ele><time>2026-05-03T11:42:03.758Z</time></trkpt><trkpt lat="44.3765433" lon="10.7859783"><ele>567.0</ele><time>2026-05-03T11:42:04.758Z</time></trkpt><trkpt lat="44.3765983" lon="10.7860433"><ele>567.1666666666666</ele><time>2026-05-03T11:42:05.758Z</time></trkpt><trkpt lat="44.3766533" lon="10.78613"><ele>567.3333333333334</ele><time>2026-05-03T11:42:06.757Z</time></trkpt><trkpt lat="44.3766967" lon="10.786205"><ele>567.5</ele><time>2026-05-03T11:42:07.758Z</time></trkpt><trkpt lat="44.376745" lon="10.7862633"><ele>567.6666666666667</ele><time>2026-05-03T11:42:08.758Z</time></trkpt><trkpt lat="44.3768217" lon="10.78634"><ele>567.8333333333334</ele><time>2026-05-03T11:42:10.758Z</time></trkpt><trkpt lat="44.3768667" lon="10.78644"><ele>568.0</ele><time>2026-05-03T11:42:13.758Z</time></trkpt><trkpt lat="44.3768983" lon="10.78652"><ele>568.0</ele><time>2026-05-03T11:42:15.758Z</time></trkpt><trkpt lat="44.376965" lon="10.78662"><ele>568.0</ele><time>2026-05-03T11:42:26.758Z</time></trkpt><trkpt lat="44.3770567" lon="10.786745"><ele>568.0</ele><time>2026-05-03T11:42:27.758Z</time></trkpt><trkpt lat="44.3771583" lon="10.78686"><ele>568.0</ele><time>2026-05-03T11:42:28.757Z</time></trkpt><trkpt lat="44.3772417" lon="10.7869667"><ele>569.8</ele><time>2026-05-03T11:42:29.758Z</time></trkpt><trkpt lat="44.377315" lon="10.7870767"><ele>571.5999999999999</ele><time>2026-05-03T11:42:30.758Z</time></trkpt><trkpt lat="44.3773717" lon="10.7872"><ele>573.4000000000001</ele><time>2026-05-03T11:42:31.758Z</time></trkpt><trkpt lat="44.3774067" lon="10.7873317"><ele>575.2</ele><time>2026-05-03T11:42:32.758Z</time></trkpt><trkpt lat="44.37742" lon="10.787445"><ele>577.0</ele><time>2026-05-03T11:42:33.758Z</time></trkpt><trkpt lat="44.3774117" lon="10.7875667"><ele>581.0</ele><time>2026-05-03T11:42:34.758Z</time></trkpt><trkpt lat="44.3773883" lon="10.7877083"><ele>585.0</ele><time>2026-05-03T11:42:35.758Z</time></trkpt><trkpt lat="44.377345" lon="10.7878533"><ele>589.0</ele><time>2026-05-03T11:42:36.758Z</time></trkpt><trkpt lat="44.3773017" lon="10.7880083"><ele>593.0</ele><time>2026-05-03T11:42:37.758Z</time></trkpt><trkpt lat="44.3772633" lon="10.7881517"><ele>597.0</ele><time>2026-05-03T11:42:38.758Z</time></trkpt><trkpt lat="44.377245" lon="10.7882733"><ele>597.0</ele><time>2026-05-03T11:42:39.758Z</time></trkpt><trkpt lat="44.377235" lon="10.7883733"><ele>597.0</ele><time>2026-05-03T11:42:40.757Z</time></trkpt><trkpt lat="44.3772117" lon="10.7885067"><ele>597.0</ele><time>2026-05-03T11:42:42.758Z</time></trkpt><trkpt lat="44.3771317" lon="10.78851"><ele>597.0</ele><time>2026-05-03T11:42:45.758Z</time></trkpt><trkpt lat="44.3770417" lon="10.7884717"><ele>597.0</ele><time>2026-05-03T11:43:33.758Z</time></trkpt><trkpt lat="44.3769667" lon="10.788465"><ele>597.0</ele><time>2026-05-03T11:43:34.758Z</time></trkpt><trkpt lat="44.3768783" lon="10.7884667"><ele>598.0</ele><time>2026-05-03T11:43:35.758Z</time></trkpt><trkpt lat="44.3767883" lon="10.7884667"><ele>599.0</ele><time>2026-05-03T11:43:36.757Z</time></trkpt><trkpt lat="44.376715" lon="10.7884733"><ele>600.0</ele><time>2026-05-03T11:43:37.758Z</time></trkpt><trkpt lat="44.3766417" lon="10.7885583"><ele>601.0</ele><time>2026-05-03T11:43:39.758Z</time></trkpt><trkpt lat="44.3766283" lon="10.7886967"><ele>602.0</ele><time>2026-05-03T11:43:41.758Z</time></trkpt><trkpt lat="44.3766433" lon="10.7887883"><ele>603.0</ele><time>2026-05-03T11:43:42.758Z</time></trkpt><trkpt lat="44.37667" lon="10.7888867"><ele>605.3333333333334</ele><time>2026-05-03T11:43:43.758Z</time></trkpt><trkpt lat="44.3766933" lon="10.7889967"><ele>607.6666666666666</ele><time>2026-05-03T11:43:44.758Z</time></trkpt><trkpt lat="44.3767183" lon="10.789105"><ele>610.0</ele><time>2026-05-03T11:43:45.758Z</time></trkpt><trkpt lat="44.3767433" lon="10.7892167"><ele>612.3333333333333</ele><time>2026-05-03T11:43:46.758Z</time></trkpt><trkpt lat="44.37677" lon="10.7893267"><ele>614.6666666666666</ele><time>2026-05-03T11:43:47.758Z</time></trkpt><trkpt lat="44.37679" lon="10.7894383"><ele>617.0</ele><time>2026-05-03T11:43:48.758Z</time></trkpt><trkpt lat="44.376805" lon="10.7895467"><ele>619.3333333333333</ele><time>2026-05-03T11:43:49.758Z</time></trkpt><trkpt lat="44.37682" lon="10.7896533"><ele>621.6666666666666</ele><time>2026-05-03T11:43:50.758Z</time></trkpt><trkpt lat="44.376825" lon="10.789755"><ele>624.0</ele><time>2026-05-03T11:43:51.757Z</time></trkpt><trkpt lat="44.37683" lon="10.7898583"><ele>626.3333333333334</ele><time>2026-05-03T11:43:52.758Z</time></trkpt><trkpt lat="44.3768433" lon="10.7899467"><ele>628.6666666666667</ele><time>2026-05-03T11:43:53.758Z</time></trkpt><trkpt lat="44.3768783" lon="10.79008"><ele>631.0</ele><time>2026-05-03T11:43:55.757Z</time></trkpt><trkpt lat="44.37693" lon="10.790195"><ele>633.1666666666667</ele><time>2026-05-03T11:43:57.758Z</time></trkpt><trkpt lat="44.3769383" lon="10.7902917"><ele>635.3333333333334</ele><time>2026-05-03T11:44:21.757Z</time></trkpt><trkpt lat="44.37693" lon="10.7904233"><ele>637.5</ele><time>2026-05-03T11:44:23.757Z</time></trkpt><trkpt lat="44.376935" lon="10.790545"><ele>639.6666666666666</ele><time>2026-05-03T11:44:25.757Z</time></trkpt><trkpt lat="44.3769783" lon="10.790655"><ele>641.8333333333333</ele><time>2026-05-03T11:44:27.757Z</time></trkpt><trkpt lat="44.37698" lon="10.790775"><ele>644.0</ele><time>2026-05-03T11:44:29.757Z</time></trkpt><trkpt lat="44.3769433" lon="10.790875"><ele>644.0</ele><time>2026-05-03T11:44:31.757Z</time></trkpt><trkpt lat="44.376885" lon="10.7909633"><ele>644.0</ele><time>2026-05-03T11:44:33.756Z</time></trkpt><trkpt lat="44.3768233" lon="10.7910767"><ele>644.0</ele><time>2026-05-03T11:44:35.757Z</time></trkpt><trkpt lat="44.3767783" lon="10.7912217"><ele>644.0</ele><time>2026-05-03T11:44:37.756Z</time></trkpt><trkpt lat="44.3767483" lon="10.7913767"><ele>644.0</ele><time>2026-05-03T11:44:39.757Z</time></trkpt><trkpt lat="44.3767433" lon="10.79155"><ele>645.3333333333333</ele><time>2026-05-03T11:44:41.757Z</time></trkpt><trkpt lat="44.37672" lon="10.791715"><ele>646.6666666666666</ele><time>2026-05-03T11:44:43.757Z</time></trkpt><trkpt lat="44.376715" lon="10.7918067"><ele>648.0</ele><time>2026-05-03T11:44:44.756Z</time></trkpt><trkpt lat="44.3767133" lon="10.7918983"><ele>649.3333333333334</ele><time>2026-05-03T11:44:45.757Z</time></trkpt><trkpt lat="44.376705" lon="10.7919933"><ele>650.6666666666667</ele><time>2026-05-03T11:44:46.757Z</time></trkpt><trkpt lat="44.3766917" lon="10.7920933"><ele>652.0</ele><time>2026-05-03T11:44:47.756Z</time></trkpt><trkpt lat="44.376665" lon="10.792195"><ele>653.4000000000001</ele><time>2026-05-03T11:44:48.757Z</time></trkpt><trkpt lat="44.376615" lon="10.7922817"><ele>654.8000000000001</ele><time>2026-05-03T11:44:49.757Z</time></trkpt><trkpt lat="44.3765633" lon="10.7923583"><ele>656.2</ele><time>2026-05-03T11:44:50.757Z</time></trkpt><trkpt lat="44.3764933" lon="10.7924283"><ele>657.6</ele><time>2026-05-03T11:44:51.757Z</time></trkpt><trkpt lat="44.3764083" lon="10.7924917"><ele>659.0</ele><time>2026-05-03T11:44:52.757Z</time></trkpt><trkpt lat="44.376295" lon="10.7925267"><ele>659.2</ele><time>2026-05-03T11:44:53.757Z</time></trkpt><trkpt lat="44.3761767" lon="10.792525"><ele>659.4000000000001</ele><time>2026-05-03T11:44:54.756Z</time></trkpt><trkpt lat="44.3760633" lon="10.7925"><ele>659.6</ele><time>2026-05-03T11:44:55.757Z</time></trkpt><trkpt lat="44.37597" lon="10.7924617"><ele>659.8</ele><time>2026-05-03T11:44:56.756Z</time></trkpt><trkpt lat="44.3758917" lon="10.7924417"><ele>660.0</ele><time>2026-05-03T11:44:57.756Z</time></trkpt><trkpt lat="44.3758167" lon="10.7924583"><ele>660.0</ele><time>2026-05-03T11:44:58.757Z</time></trkpt><trkpt lat="44.3757417" lon="10.792505"><ele>660.0</ele><time>2026-05-03T11:44:59.757Z</time></trkpt><trkpt lat="44.3756617" lon="10.7925983"><ele>660.0</ele><time>2026-05-03T11:45:00.756Z</time></trkpt><trkpt lat="44.375575" lon="10.7927067"><ele>660.0</ele><time>2026-05-03T11:45:01.757Z</time></trkpt><trkpt lat="44.3754867" lon="10.7928333"><ele>660.0</ele><time>2026-05-03T11:45:02.757Z</time></trkpt><trkpt lat="44.3753967" lon="10.7929683"><ele>663.75</ele><time>2026-05-03T11:45:03.756Z</time></trkpt><trkpt lat="44.3753067" lon="10.7931"><ele>667.5</ele><time>2026-05-03T11:45:04.757Z</time></trkpt><trkpt lat="44.37522" lon="10.7931967"><ele>671.25</ele><time>2026-05-03T11:45:05.757Z</time></trkpt><trkpt lat="44.37511" lon="10.79326"><ele>675.0</ele><time>2026-05-03T11:45:06.756Z</time></trkpt><trkpt lat="44.374985" lon="10.793285"><ele>675.0</ele><time>2026-05-03T11:45:07.757Z</time></trkpt><trkpt lat="44.3748583" lon="10.7933133"><ele>675.0</ele><time>2026-05-03T11:45:08.757Z</time></trkpt><trkpt lat="44.3747383" lon="10.7933233"><ele>675.0</ele><time>2026-05-03T11:45:09.757Z</time></trkpt><trkpt lat="44.3746317" lon="10.7933267"><ele>675.0</ele><time>2026-05-03T11:45:10.757Z</time></trkpt><trkpt lat="44.374535" lon="10.7933283"><ele>675.0</ele><time>2026-05-03T11:45:11.757Z</time></trkpt><trkpt lat="44.37446" lon="10.7933433"><ele>675.0</ele><time>2026-05-03T11:45:12.757Z</time></trkpt><trkpt lat="44.3743617" lon="10.7934633"><ele>675.0</ele><time>2026-05-03T11:45:14.757Z</time></trkpt><trkpt lat="44.3743383" lon="10.79358"><ele>675.0</ele><time>2026-05-03T11:45:15.757Z</time></trkpt><trkpt lat="44.3743267" lon="10.7937333"><ele>675.0</ele><time>2026-05-03T11:45:16.757Z</time></trkpt><trkpt lat="44.3743317" lon="10.793915"><ele>675.0</ele><time>2026-05-03T11:45:17.756Z</time></trkpt><trkpt lat="44.37433" lon="10.7940967"><ele>675.0</ele><time>2026-05-03T11:45:18.757Z</time></trkpt><trkpt lat="44.3743217" lon="10.7942817"><ele>675.0</ele><time>2026-05-03T11:45:19.757Z</time></trkpt><trkpt lat="44.374305" lon="10.79447"><ele>675.0</ele><time>2026-05-03T11:45:20.757Z</time></trkpt><trkpt lat="44.3742667" lon="10.7946583"><ele>676.5</ele><time>2026-05-03T11:45:21.757Z</time></trkpt><trkpt lat="44.3742167" lon="10.7948333"><ele>678.0</ele><time>2026-05-03T11:45:22.756Z</time></trkpt><trkpt lat="44.374155" lon="10.7949817"><ele>679.5</ele><time>2026-05-03T11:45:23.756Z</time></trkpt><trkpt lat="44.3740683" lon="10.7951"><ele>681.0</ele><time>2026-05-03T11:45:24.756Z</time></trkpt><trkpt lat="44.37396" lon="10.7951767"><ele>680.0</ele><time>2026-05-03T11:45:25.757Z</time></trkpt><trkpt lat="44.3738267" lon="10.7952367"><ele>679.0</ele><time>2026-05-03T11:45:26.757Z</time></trkpt><trkpt lat="44.3737117" lon="10.7953"><ele>678.0</ele><time>2026-05-03T11:45:27.757Z</time></trkpt><trkpt lat="44.3736083" lon="10.795385"><ele>677.0</ele><time>2026-05-03T11:45:28.757Z</time></trkpt><trkpt lat="44.3735133" lon="10.7954983"><ele>677.0</ele><time>2026-05-03T11:45:29.756Z</time></trkpt><trkpt lat="44.3734267" lon="10.7956283"><ele>677.0</ele><time>2026-05-03T11:45:30.757Z</time></trkpt><trkpt lat="44.3733567" lon="10.7957783"><ele>677.0</ele><time>2026-05-03T11:45:31.757Z</time></trkpt><trkpt lat="44.373295" lon="10.795945"><ele>677.0</ele><time>2026-05-03T11:45:32.757Z</time></trkpt><trkpt lat="44.373245" lon="10.7961283"><ele>676.75</ele><time>2026-05-03T11:45:33.757Z</time></trkpt><trkpt lat="44.373185" lon="10.7963"><ele>676.5</ele><time>2026-05-03T11:45:34.757Z</time></trkpt><trkpt lat="44.37309" lon="10.7964533"><ele>676.25</ele><time>2026-05-03T11:45:35.757Z</time></trkpt><trkpt lat="44.3729867" lon="10.796605"><ele>676.0</ele><time>2026-05-03T11:45:36.757Z</time></trkpt><trkpt lat="44.3728767" lon="10.7967683"><ele>679.0</ele><time>2026-05-03T11:45:37.757Z</time></trkpt><trkpt lat="44.372775" lon="10.7969383"><ele>682.0</ele><time>2026-05-03T11:45:38.757Z</time></trkpt><trkpt lat="44.3726633" lon="10.7971033"><ele>685.0</ele><time>2026-05-03T11:45:39.756Z</time></trkpt><trkpt lat="44.372555" lon="10.797265"><ele>685.0</ele><time>2026-05-03T11:45:40.757Z</time></trkpt><trkpt lat="44.3724333" lon="10.7974233"><ele>685.0</ele><time>2026-05-03T11:45:41.756Z</time></trkpt><trkpt lat="44.3722983" lon="10.7975733"><ele>685.0</ele><time>2026-05-03T11:45:42.757Z</time></trkpt><trkpt lat="44.37216" lon="10.7977217"><ele>687.6666666666667</ele><time>2026-05-03T11:45:43.757Z</time></trkpt><trkpt lat="44.3720217" lon="10.7978583"><ele>690.3333333333334</ele><time>2026-05-03T11:45:44.757Z</time></trkpt><trkpt lat="44.3718967" lon="10.7979867"><ele>693.0</ele><time>2026-05-03T11:45:45.757Z</time></trkpt><trkpt lat="44.3717833" lon="10.7981067"><ele>693.0</ele><time>2026-05-03T11:45:46.757Z</time></trkpt><trkpt lat="44.371695" lon="10.79823"><ele>693.0</ele><time>2026-05-03T11:45:47.757Z</time></trkpt><trkpt lat="44.37162" lon="10.7983667"><ele>693.0</ele><time>2026-05-03T11:45:48.757Z</time></trkpt><trkpt lat="44.371575" lon="10.7985217"><ele>693.0</ele><time>2026-05-03T11:45:49.757Z</time></trkpt><trkpt lat="44.3715433" lon="10.79869"><ele>695.0</ele><time>2026-05-03T11:45:50.757Z</time></trkpt><trkpt lat="44.3715183" lon="10.7988833"><ele>697.0</ele><time>2026-05-03T11:45:51.757Z</time></trkpt><trkpt lat="44.371485" lon="10.799075"><ele>699.0</ele><time>2026-05-03T11:45:52.757Z</time></trkpt><trkpt lat="44.371445" lon="10.7992767"><ele>701.0</ele><time>2026-05-03T11:45:53.757Z</time></trkpt><trkpt lat="44.3713817" lon="10.799465"><ele>702.0</ele><time>2026-05-03T11:45:54.757Z</time></trkpt><trkpt lat="44.3713217" lon="10.7996467"><ele>703.0</ele><time>2026-05-03T11:45:55.757Z</time></trkpt><trkpt lat="44.371255" lon="10.7998033"><ele>704.0</ele><time>2026-05-03T11:45:56.757Z</time></trkpt><trkpt lat="44.3712067" lon="10.7999267"><ele>705.0</ele><time>2026-05-03T11:45:57.757Z</time></trkpt><trkpt lat="44.371195" lon="10.80007"><ele>705.5</ele><time>2026-05-03T11:45:58.756Z</time></trkpt><trkpt lat="44.371215" lon="10.8002317"><ele>706.0</ele><time>2026-05-03T11:45:59.757Z</time></trkpt><trkpt lat="44.371255" lon="10.8003967"><ele>706.5</ele><time>2026-05-03T11:46:00.757Z</time></trkpt><trkpt lat="44.37131" lon="10.80057"><ele>707.0</ele><time>2026-05-03T11:46:01.757Z</time></trkpt><trkpt lat="44.3713617" lon="10.8007433"><ele>708.5</ele><time>2026-05-03T11:46:02.757Z</time></trkpt><trkpt lat="44.3714083" lon="10.800895"><ele>710.0</ele><time>2026-05-03T11:46:03.757Z</time></trkpt><trkpt lat="44.37148" lon="10.8009983"><ele>711.5</ele><time>2026-05-03T11:46:04.757Z</time></trkpt><trkpt lat="44.3715817" lon="10.801075"><ele>713.0</ele><time>2026-05-03T11:46:05.757Z</time></trkpt><trkpt lat="44.3717017" lon="10.80114"><ele>713.75</ele><time>2026-05-03T11:46:06.757Z</time></trkpt><trkpt lat="44.3718317" lon="10.8012167"><ele>714.5</ele><time>2026-05-03T11:46:07.756Z</time></trkpt><trkpt lat="44.3719617" lon="10.8013017"><ele>715.25</ele><time>2026-05-03T11:46:08.756Z</time></trkpt><trkpt lat="44.372095" lon="10.8013917"><ele>716.0</ele><time>2026-05-03T11:46:09.756Z</time></trkpt><trkpt lat="44.3722283" lon="10.8014833"><ele>716.5</ele><time>2026-05-03T11:46:10.757Z</time></trkpt><trkpt lat="44.37236" lon="10.8015783"><ele>717.0</ele><time>2026-05-03T11:46:11.757Z</time></trkpt><trkpt lat="44.3724883" lon="10.8016817"><ele>717.5</ele><time>2026-05-03T11:46:12.757Z</time></trkpt><trkpt lat="44.372615" lon="10.8017683"><ele>718.0</ele><time>2026-05-03T11:46:13.757Z</time></trkpt><trkpt lat="44.3727517" lon="10.801825"><ele>718.75</ele><time>2026-05-03T11:46:14.757Z</time></trkpt><trkpt lat="44.3728917" lon="10.8018583"><ele>719.5</ele><time>2026-05-03T11:46:15.757Z</time></trkpt><trkpt lat="44.3730317" lon="10.8018567"><ele>720.25</ele><time>2026-05-03T11:46:16.757Z</time></trkpt><trkpt lat="44.3731783" lon="10.801835"><ele>721.0</ele><time>2026-05-03T11:46:17.757Z</time></trkpt><trkpt lat="44.37331" lon="10.8017867"><ele>721.0</ele><time>2026-05-03T11:46:18.757Z</time></trkpt><trkpt lat="44.3734483" lon="10.8017467"><ele>721.0</ele><time>2026-05-03T11:46:19.756Z</time></trkpt><trkpt lat="44.37358" lon="10.8017067"><ele>721.0</ele><time>2026-05-03T11:46:20.757Z</time></trkpt><trkpt lat="44.373705" lon="10.8016767"><ele>721.0</ele><time>2026-05-03T11:46:21.757Z</time></trkpt><trkpt lat="44.373815" lon="10.80165"><ele>721.5</ele><time>2026-05-03T11:46:22.756Z</time></trkpt><trkpt lat="44.373905" lon="10.801625"><ele>722.0</ele><time>2026-05-03T11:46:23.757Z</time></trkpt><trkpt lat="44.3739783" lon="10.8016117"><ele>722.5</ele><time>2026-05-03T11:46:24.757Z</time></trkpt><trkpt lat="44.374065" lon="10.801665"><ele>723.0</ele><time>2026-05-03T11:46:26.757Z</time></trkpt><trkpt lat="44.3740867" lon="10.8017483"><ele>723.5</ele><time>2026-05-03T11:46:27.757Z</time></trkpt><trkpt lat="44.3741017" lon="10.801865"><ele>724.0</ele><time>2026-05-03T11:46:28.757Z</time></trkpt><trkpt lat="44.3741067" lon="10.80201"><ele>723.75</ele><time>2026-05-03T11:46:29.757Z</time></trkpt><trkpt lat="44.374085" lon="10.8021767"><ele>723.5</ele><time>2026-05-03T11:46:30.757Z</time></trkpt><trkpt lat="44.3740367" lon="10.8023417"><ele>723.25</ele><time>2026-05-03T11:46:31.757Z</time></trkpt><trkpt lat="44.3739517" lon="10.8024783"><ele>723.0</ele><time>2026-05-03T11:46:32.757Z</time></trkpt><trkpt lat="44.37384" lon="10.802595"><ele>725.25</ele><time>2026-05-03T11:46:33.757Z</time></trkpt><trkpt lat="44.37371" lon="10.8026883"><ele>727.5</ele><time>2026-05-03T11:46:34.757Z</time></trkpt><trkpt lat="44.3735717" lon="10.8027683"><ele>729.75</ele><time>2026-05-03T11:46:35.757Z</time></trkpt><trkpt lat="44.3734533" lon="10.8028533"><ele>732.0</ele><time>2026-05-03T11:46:36.757Z</time></trkpt><trkpt lat="44.3733633" lon="10.8029467"><ele>732.0</ele><time>2026-05-03T11:46:37.757Z</time></trkpt><trkpt lat="44.3733" lon="10.8030483"><ele>732.0</ele><time>2026-05-03T11:46:38.757Z</time></trkpt><trkpt lat="44.37327" lon="10.8031783"><ele>732.0</ele><time>2026-05-03T11:46:39.757Z</time></trkpt><trkpt lat="44.3732767" lon="10.803315"><ele>732.0</ele><time>2026-05-03T11:46:40.757Z</time></trkpt><trkpt lat="44.3733267" lon="10.8034467"><ele>732.0</ele><time>2026-05-03T11:46:41.757Z</time></trkpt><trkpt lat="44.3733817" lon="10.8035633"><ele>732.1666666666666</ele><time>2026-05-03T11:46:42.757Z</time></trkpt><trkpt lat="44.3734267" lon="10.803665"><ele>732.3333333333334</ele><time>2026-05-03T11:46:43.757Z</time></trkpt><trkpt lat="44.3734667" lon="10.8037533"><ele>732.5</ele><time>2026-05-03T11:46:44.757Z</time></trkpt><trkpt lat="44.3735033" lon="10.8038317"><ele>732.6666666666667</ele><time>2026-05-03T11:46:45.757Z</time></trkpt><trkpt lat="44.3735" lon="10.8039667"><ele>732.8333333333334</ele><time>2026-05-03T11:46:47.757Z</time></trkpt><trkpt lat="44.3734083" lon="10.8040267"><ele>733.0</ele><time>2026-05-03T11:46:49.756Z</time></trkpt><trkpt lat="44.37333" lon="10.8040183"><ele>733.0</ele><time>2026-05-03T11:46:50.757Z</time></trkpt><trkpt lat="44.3732317" lon="10.804"><ele>733.0</ele><time>2026-05-03T11:46:51.757Z</time></trkpt><trkpt lat="44.3731233" lon="10.8039817"><ele>733.0</ele><time>2026-05-03T11:46:52.756Z</time></trkpt><trkpt lat="44.3730117" lon="10.803955"><ele>733.0</ele><time>2026-05-03T11:46:53.757Z</time></trkpt><trkpt lat="44.372905" lon="10.803925"><ele>733.0</ele><time>2026-05-03T11:46:54.757Z</time></trkpt><trkpt lat="44.37279" lon="10.8039033"><ele>732.25</ele><time>2026-05-03T11:46:55.757Z</time></trkpt><trkpt lat="44.3726767" lon="10.8038683"><ele>731.5</ele><time>2026-05-03T11:46:56.757Z</time></trkpt><trkpt lat="44.37256" lon="10.8038283"><ele>730.75</ele><time>2026-05-03T11:46:57.757Z</time></trkpt><trkpt lat="44.372435" lon="10.8037917"><ele>730.0</ele><time>2026-05-03T11:46:58.757Z</time></trkpt><trkpt lat="44.3722967" lon="10.803745"><ele>729.0</ele><time>2026-05-03T11:46:59.757Z</time></trkpt><trkpt lat="44.3721467" lon="10.8036967"><ele>728.0</ele><time>2026-05-03T11:47:00.756Z</time></trkpt><trkpt lat="44.37199" lon="10.8036317"><ele>727.0</ele><time>2026-05-03T11:47:01.757Z</time></trkpt><trkpt lat="44.3718317" lon="10.803545"><ele>727.6666666666667</ele><time>2026-05-03T11:47:02.757Z</time></trkpt><trkpt lat="44.3716667" lon="10.803455"><ele>728.3333333333334</ele><time>2026-05-03T11:47:03.757Z</time></trkpt><trkpt lat="44.371495" lon="10.80337"><ele>729.0</ele><time>2026-05-03T11:47:04.757Z</time></trkpt><trkpt lat="44.371315" lon="10.80328"><ele>729.0</ele><time>2026-05-03T11:47:05.757Z</time></trkpt><trkpt lat="44.37113" lon="10.8031883"><ele>729.0</ele><time>2026-05-03T11:47:06.757Z</time></trkpt><trkpt lat="44.37095" lon="10.8030867"><ele>729.0</ele><time>2026-05-03T11:47:07.757Z</time></trkpt><trkpt lat="44.3707717" lon="10.802985"><ele>729.0</ele><time>2026-05-03T11:47:08.756Z</time></trkpt><trkpt lat="44.3705883" lon="10.8028817"><ele>729.0</ele><time>2026-05-03T11:47:09.756Z</time></trkpt><trkpt lat="44.3704033" lon="10.802775"><ele>729.0</ele><time>2026-05-03T11:47:10.757Z</time></trkpt><trkpt lat="44.3702267" lon="10.802665"><ele>729.0</ele><time>2026-05-03T11:47:11.757Z</time></trkpt><trkpt lat="44.3700533" lon="10.8025483"><ele>729.0</ele><time>2026-05-03T11:47:12.757Z</time></trkpt><trkpt lat="44.3698733" lon="10.802445"><ele>729.0</ele><time>2026-05-03T11:47:13.757Z</time></trkpt><trkpt lat="44.3696917" lon="10.802345"><ele>729.0</ele><time>2026-05-03T11:47:14.757Z</time></trkpt><trkpt lat="44.3694983" lon="10.8022667"><ele>729.0</ele><time>2026-05-03T11:47:15.757Z</time></trkpt><trkpt lat="44.3693033" lon="10.8021933"><ele>729.0</ele><time>2026-05-03T11:47:16.757Z</time></trkpt><trkpt lat="44.3691083" lon="10.8021283"><ele>729.0</ele><time>2026-05-03T11:47:17.756Z</time></trkpt><trkpt lat="44.3689017" lon="10.8020867"><ele>729.0</ele><time>2026-05-03T11:47:18.757Z</time></trkpt><trkpt lat="44.3686883" lon="10.8020767"><ele>729.0</ele><time>2026-05-03T11:47:19.757Z</time></trkpt><trkpt lat="44.368475" lon="10.8020817"><ele>728.0</ele><time>2026-05-03T11:47:20.757Z</time></trkpt><trkpt lat="44.3682667" lon="10.802075"><ele>727.0</ele><time>2026-05-03T11:47:21.757Z</time></trkpt><trkpt lat="44.3680517" lon="10.80207"><ele>726.0</ele><time>2026-05-03T11:47:22.757Z</time></trkpt><trkpt lat="44.3678483" lon="10.8020667"><ele>726.0</ele><time>2026-05-03T11:47:23.757Z</time></trkpt><trkpt lat="44.3676583" lon="10.8020417"><ele>726.0</ele><time>2026-05-03T11:47:24.757Z</time></trkpt><trkpt lat="44.3674733" lon="10.801985"><ele>726.0</ele><time>2026-05-03T11:47:25.757Z</time></trkpt><trkpt lat="44.3672867" lon="10.8018933"><ele>728.3333333333334</ele><time>2026-05-03T11:47:26.757Z</time></trkpt><trkpt lat="44.3670967" lon="10.8017867"><ele>730.6666666666667</ele><time>2026-05-03T11:47:27.756Z</time></trkpt><trkpt lat="44.366915" lon="10.8016583"><ele>733.0</ele><time>2026-05-03T11:47:28.757Z</time></trkpt><trkpt lat="44.36673" lon="10.8015283"><ele>733.0</ele><time>2026-05-03T11:47:29.757Z</time></trkpt><trkpt lat="44.3665467" lon="10.8014217"><ele>733.0</ele><time>2026-05-03T11:47:30.757Z</time></trkpt><trkpt lat="44.3663617" lon="10.8013483"><ele>733.0</ele><time>2026-05-03T11:47:31.757Z</time></trkpt><trkpt lat="44.3661767" lon="10.8012817"><ele>733.3333333333334</ele><time>2026-05-03T11:47:32.757Z</time></trkpt><trkpt lat="44.3659967" lon="10.8012033"><ele>733.6666666666666</ele><time>2026-05-03T11:47:33.757Z</time></trkpt><trkpt lat="44.3658183" lon="10.8011033"><ele>734.0</ele><time>2026-05-03T11:47:34.756Z</time></trkpt><trkpt lat="44.3656517" lon="10.8009817"><ele>735.6666666666666</ele><time>2026-05-03T11:47:35.757Z</time></trkpt><trkpt lat="44.3654917" lon="10.800835"><ele>737.3333333333334</ele><time>2026-05-03T11:47:36.757Z</time></trkpt><trkpt lat="44.3653383" lon="10.8006783"><ele>739.0</ele><time>2026-05-03T11:47:37.757Z</time></trkpt><trkpt lat="44.36518" lon="10.800525"><ele>739.0</ele><time>2026-05-03T11:47:38.756Z</time></trkpt><trkpt lat="44.3650133" lon="10.800375"><ele>739.0</ele><time>2026-05-03T11:47:39.757Z</time></trkpt><trkpt lat="44.3648567" lon="10.8002167"><ele>739.0</ele><time>2026-05-03T11:47:40.757Z</time></trkpt><trkpt lat="44.3647133" lon="10.8000567"><ele>740.6666666666667</ele><time>2026-05-03T11:47:41.756Z</time></trkpt><trkpt lat="44.3645767" lon="10.7999033"><ele>742.3333333333334</ele><time>2026-05-03T11:47:42.757Z</time></trkpt><trkpt lat="44.3644533" lon="10.7997617"><ele>744.0</ele><time>2026-05-03T11:47:43.757Z</time></trkpt><trkpt lat="44.3643467" lon="10.79963"><ele>744.0</ele><time>2026-05-03T11:47:44.757Z</time></trkpt><trkpt lat="44.36425" lon="10.7995283"><ele>744.0</ele><time>2026-05-03T11:47:45.757Z</time></trkpt><trkpt lat="44.3641517" lon="10.7994233"><ele>744.0</ele><time>2026-05-03T11:47:46.757Z</time></trkpt><trkpt lat="44.3640533" lon="10.799335"><ele>744.0</ele><time>2026-05-03T11:47:47.756Z</time></trkpt><trkpt lat="44.36396" lon="10.799265"><ele>744.4000000000001</ele><time>2026-05-03T11:47:48.757Z</time></trkpt><trkpt lat="44.3638717" lon="10.7991983"><ele>744.8</ele><time>2026-05-03T11:47:49.757Z</time></trkpt><trkpt lat="44.36379" lon="10.7991283"><ele>745.2</ele><time>2026-05-03T11:47:50.757Z</time></trkpt><trkpt lat="44.3637183" lon="10.7990517"><ele>745.5999999999999</ele><time>2026-05-03T11:47:51.757Z</time></trkpt><trkpt lat="44.36365" lon="10.7989867"><ele>746.0</ele><time>2026-05-03T11:47:52.757Z</time></trkpt><trkpt lat="44.36358" lon="10.7989133"><ele>746.8333333333333</ele><time>2026-05-03T11:47:53.757Z</time></trkpt><trkpt lat="44.3635183" lon="10.798835"><ele>747.6666666666666</ele><time>2026-05-03T11:47:54.757Z</time></trkpt><trkpt lat="44.3634583" lon="10.7987417"><ele>748.5</ele><time>2026-05-03T11:47:55.757Z</time></trkpt><trkpt lat="44.36339" lon="10.798665"><ele>749.3333333333334</ele><time>2026-05-03T11:47:56.757Z</time></trkpt><trkpt lat="44.3633133" lon="10.7986083"><ele>750.1666666666667</ele><time>2026-05-03T11:47:57.757Z</time></trkpt><trkpt lat="44.363225" lon="10.7985667"><ele>751.0</ele><time>2026-05-03T11:47:58.757Z</time></trkpt><trkpt lat="44.3631267" lon="10.7985133"><ele>751.0</ele><time>2026-05-03T11:47:59.757Z</time></trkpt><trkpt lat="44.3630367" lon="10.7984483"><ele>751.0</ele><time>2026-05-03T11:48:00.757Z</time></trkpt><trkpt lat="44.36296" lon="10.7983733"><ele>751.0</ele><time>2026-05-03T11:48:01.757Z</time></trkpt><trkpt lat="44.3628867" lon="10.79828"><ele>751.0</ele><time>2026-05-03T11:48:02.757Z</time></trkpt><trkpt lat="44.3628183" lon="10.7981817"><ele>751.0</ele><time>2026-05-03T11:48:03.757Z</time></trkpt><trkpt lat="44.36275" lon="10.7980833"><ele>751.0</ele><time>2026-05-03T11:48:04.757Z</time></trkpt><trkpt lat="44.3627" lon="10.7979767"><ele>751.0</ele><time>2026-05-03T11:48:05.757Z</time></trkpt><trkpt lat="44.3626583" lon="10.7978583"><ele>751.0</ele><time>2026-05-03T11:48:06.757Z</time></trkpt><trkpt lat="44.362635" lon="10.79773"><ele>751.0</ele><time>2026-05-03T11:48:07.757Z</time></trkpt><trkpt lat="44.362615" lon="10.7975933"><ele>751.0</ele><time>2026-05-03T11:48:08.757Z</time></trkpt><trkpt lat="44.36259" lon="10.797455"><ele>751.4</ele><time>2026-05-03T11:48:09.757Z</time></trkpt><trkpt lat="44.362555" lon="10.7973167"><ele>751.8</ele><time>2026-05-03T11:48:10.756Z</time></trkpt><trkpt lat="44.3625183" lon="10.797175"><ele>752.1999999999999</ele><time>2026-05-03T11:48:11.757Z</time></trkpt><trkpt lat="44.3624783" lon="10.7970283"><ele>752.5999999999999</ele><time>2026-05-03T11:48:12.757Z</time></trkpt><trkpt lat="44.36244" lon="10.7968767"><ele>753.0</ele><time>2026-05-03T11:48:13.757Z</time></trkpt><trkpt lat="44.3624" lon="10.7967133"><ele>753.25</ele><time>2026-05-03T11:48:14.757Z</time></trkpt><trkpt lat="44.362355" lon="10.79656"><ele>753.5</ele><time>2026-05-03T11:48:15.757Z</time></trkpt><trkpt lat="44.3623083" lon="10.7963867"><ele>753.75</ele><time>2026-05-03T11:48:16.757Z</time></trkpt><trkpt lat="44.3622533" lon="10.7962133"><ele>754.0</ele><time>2026-05-03T11:48:17.757Z</time></trkpt><trkpt lat="44.3622" lon="10.79604"><ele>752.5</ele><time>2026-05-03T11:48:18.756Z</time></trkpt><trkpt lat="44.3621517" lon="10.7958633"><ele>751.0</ele><time>2026-05-03T11:48:19.757Z</time></trkpt><trkpt lat="44.3621017" lon="10.7956883"><ele>749.5</ele><time>2026-05-03T11:48:20.757Z</time></trkpt><trkpt lat="44.3620517" lon="10.7955067"><ele>748.0</ele><time>2026-05-03T11:48:21.757Z</time></trkpt><trkpt lat="44.3619917" lon="10.7953233"><ele>748.0</ele><time>2026-05-03T11:48:22.757Z</time></trkpt><trkpt lat="44.361935" lon="10.7951433"><ele>748.0</ele><time>2026-05-03T11:48:23.757Z</time></trkpt><trkpt lat="44.36186" lon="10.794975"><ele>748.0</ele><time>2026-05-03T11:48:24.757Z</time></trkpt><trkpt lat="44.3617817" lon="10.7948067"><ele>748.0</ele><time>2026-05-03T11:48:25.757Z</time></trkpt><trkpt lat="44.3617" lon="10.7946583"><ele>748.0</ele><time>2026-05-03T11:48:26.757Z</time></trkpt><trkpt lat="44.3616283" lon="10.7945017"><ele>748.0</ele><time>2026-05-03T11:48:27.756Z</time></trkpt><trkpt lat="44.3615533" lon="10.7943633"><ele>748.0</ele><time>2026-05-03T11:48:28.757Z</time></trkpt><trkpt lat="44.3614867" lon="10.7942367"><ele>748.0</ele><time>2026-05-03T11:48:29.757Z</time></trkpt><trkpt lat="44.361435" lon="10.794115"><ele>748.4285714285714</ele><time>2026-05-03T11:48:30.757Z</time></trkpt><trkpt lat="44.3613917" lon="10.7940033"><ele>748.8571428571429</ele><time>2026-05-03T11:48:31.757Z</time></trkpt><trkpt lat="44.3613517" lon="10.7939083"><ele>749.2857142857143</ele><time>2026-05-03T11:48:32.757Z</time></trkpt><trkpt lat="44.36132" lon="10.7938217"><ele>749.7142857142858</ele><time>2026-05-03T11:48:33.757Z</time></trkpt><trkpt lat="44.36127" lon="10.79376"><ele>750.1428571428571</ele><time>2026-05-03T11:48:34.757Z</time></trkpt><trkpt lat="44.3612117" lon="10.7936967"><ele>750.5714285714287</ele><time>2026-05-03T11:48:35.757Z</time></trkpt><trkpt lat="44.361155" lon="10.79364"><ele>751.0</ele><time>2026-05-03T11:48:36.756Z</time></trkpt><trkpt lat="44.3610983" lon="10.7935817"><ele>751.0</ele><time>2026-05-03T11:48:37.757Z</time></trkpt><trkpt lat="44.3610283" lon="10.7935067"><ele>751.0</ele><time>2026-05-03T11:48:38.756Z</time></trkpt><trkpt lat="44.3609467" lon="10.7934433"><ele>751.0</ele><time>2026-05-03T11:48:39.757Z</time></trkpt><trkpt lat="44.360855" lon="10.79338"><ele>751.0</ele><time>2026-05-03T11:48:40.757Z</time></trkpt><trkpt lat="44.3607467" lon="10.7933283"><ele>751.0</ele><time>2026-05-03T11:48:41.757Z</time></trkpt><trkpt lat="44.3606283" lon="10.793285"><ele>749.0</ele><time>2026-05-03T11:48:42.757Z</time></trkpt><trkpt lat="44.3605017" lon="10.793245"><ele>747.0</ele><time>2026-05-03T11:48:43.756Z</time></trkpt><trkpt lat="44.3603817" lon="10.793185"><ele>745.0</ele><time>2026-05-03T11:48:44.756Z</time></trkpt><trkpt lat="44.3602617" lon="10.79312"><ele>743.0</ele><time>2026-05-03T11:48:45.756Z</time></trkpt><trkpt lat="44.360145" lon="10.7930567"><ele>743.0</ele><time>2026-05-03T11:48:46.755Z</time></trkpt><trkpt lat="44.3600433" lon="10.79298"><ele>743.0</ele><time>2026-05-03T11:48:47.756Z</time></trkpt><trkpt lat="44.3599617" lon="10.7928933"><ele>743.0</ele><time>2026-05-03T11:48:48.756Z</time></trkpt><trkpt lat="44.3599017" lon="10.7928017"><ele>743.0</ele><time>2026-05-03T11:48:49.756Z</time></trkpt><trkpt lat="44.35987" lon="10.792695"><ele>743.0</ele><time>2026-05-03T11:48:50.755Z</time></trkpt><trkpt lat="44.3598583" lon="10.7925683"><ele>742.2</ele><time>2026-05-03T11:48:51.756Z</time></trkpt><trkpt lat="44.35985" lon="10.7924517"><ele>741.4</ele><time>2026-05-03T11:48:52.756Z</time></trkpt><trkpt lat="44.359805" lon="10.792335"><ele>740.6</ele><time>2026-05-03T11:48:53.755Z</time></trkpt><trkpt lat="44.359735" lon="10.792225"><ele>739.8000000000001</ele><time>2026-05-03T11:48:54.756Z</time></trkpt><trkpt lat="44.3596533" lon="10.7921117"><ele>739.0</ele><time>2026-05-03T11:48:55.756Z</time></trkpt><trkpt lat="44.3595683" lon="10.7919867"><ele>736.5</ele><time>2026-05-03T11:48:56.756Z</time></trkpt><trkpt lat="44.359475" lon="10.79187"><ele>734.0</ele><time>2026-05-03T11:48:57.755Z</time></trkpt><trkpt lat="44.3593867" lon="10.7917567"><ele>731.5</ele><time>2026-05-03T11:48:58.756Z</time></trkpt><trkpt lat="44.3593033" lon="10.79165"><ele>729.0</ele><time>2026-05-03T11:48:59.756Z</time></trkpt><trkpt lat="44.3592133" lon="10.791565"><ele>728.0</ele><time>2026-05-03T11:49:00.756Z</time></trkpt><trkpt lat="44.3591133" lon="10.791495"><ele>727.0</ele><time>2026-05-03T11:49:01.755Z</time></trkpt><trkpt lat="44.3590133" lon="10.791425"><ele>726.0</ele><time>2026-05-03T11:49:02.756Z</time></trkpt><trkpt lat="44.3589133" lon="10.7913717"><ele>725.0</ele><time>2026-05-03T11:49:03.756Z</time></trkpt><trkpt lat="44.3588133" lon="10.7913533"><ele>724.0</ele><time>2026-05-03T11:49:04.755Z</time></trkpt><trkpt lat="44.3587067" lon="10.791365"><ele>722.2</ele><time>2026-05-03T11:49:05.755Z</time></trkpt><trkpt lat="44.3586" lon="10.791355"><ele>720.4000000000001</ele><time>2026-05-03T11:49:06.756Z</time></trkpt><trkpt lat="44.3585067" lon="10.79131"><ele>718.6</ele><time>2026-05-03T11:49:07.756Z</time></trkpt><trkpt lat="44.3584233" lon="10.7912133"><ele>716.8</ele><time>2026-05-03T11:49:08.756Z</time></trkpt><trkpt lat="44.358335" lon="10.79111"><ele>715.0</ele><time>2026-05-03T11:49:09.756Z</time></trkpt><trkpt lat="44.3582367" lon="10.7910217"><ele>713.2</ele><time>2026-05-03T11:49:10.756Z</time></trkpt><trkpt lat="44.358135" lon="10.79094"><ele>711.4</ele><time>2026-05-03T11:49:11.755Z</time></trkpt><trkpt lat="44.3580367" lon="10.790865"><ele>709.5999999999999</ele><time>2026-05-03T11:49:12.756Z</time></trkpt><trkpt lat="44.3579467" lon="10.7908133"><ele>707.8</ele><time>2026-05-03T11:49:13.756Z</time></trkpt><trkpt lat="44.357865" lon="10.7907683"><ele>706.0</ele><time>2026-05-03T11:49:14.756Z</time></trkpt><trkpt lat="44.3577917" lon="10.79072"><ele>703.5999999999999</ele><time>2026-05-03T11:49:15.756Z</time></trkpt><trkpt lat="44.3577267" lon="10.7906433"><ele>701.2</ele><time>2026-05-03T11:49:16.756Z</time></trkpt><trkpt lat="44.3576483" lon="10.7905683"><ele>698.8</ele><time>2026-05-03T11:49:17.756Z</time></trkpt><trkpt lat="44.3575733" lon="10.7905033"><ele>696.4000000000001</ele><time>2026-05-03T11:49:18.756Z</time></trkpt><trkpt lat="44.35749" lon="10.7904417"><ele>694.0</ele><time>2026-05-03T11:49:19.755Z</time></trkpt><trkpt lat="44.3574117" lon="10.7903717"><ele>694.0</ele><time>2026-05-03T11:49:20.756Z</time></trkpt><trkpt lat="44.3573333" lon="10.7903017"><ele>694.0</ele><time>2026-05-03T11:49:21.756Z</time></trkpt><trkpt lat="44.3572583" lon="10.7902217"><ele>694.0</ele><time>2026-05-03T11:49:22.756Z</time></trkpt><trkpt lat="44.3571983" lon="10.79013"><ele>694.0</ele><time>2026-05-03T11:49:23.756Z</time></trkpt><trkpt lat="44.357145" lon="10.790025"><ele>694.0</ele><time>2026-05-03T11:49:24.756Z</time></trkpt><trkpt lat="44.3570967" lon="10.789925"><ele>689.2</ele><time>2026-05-03T11:49:25.756Z</time></trkpt><trkpt lat="44.35705" lon="10.7898183"><ele>684.4000000000001</ele><time>2026-05-03T11:49:26.755Z</time></trkpt><trkpt lat="44.3569983" lon="10.78971"><ele>679.6</ele><time>2026-05-03T11:49:27.756Z</time></trkpt><trkpt lat="44.35695" lon="10.7896"><ele>674.8</ele><time>2026-05-03T11:49:28.756Z</time></trkpt><trkpt lat="44.3568983" lon="10.78949"><ele>670.0</ele><time>2026-05-03T11:49:29.756Z</time></trkpt><trkpt lat="44.3568467" lon="10.789375"><ele>668.6666666666667</ele><time>2026-05-03T11:49:30.756Z</time></trkpt><trkpt lat="44.3568" lon="10.789265"><ele>667.3333333333334</ele><time>2026-05-03T11:49:31.756Z</time></trkpt><trkpt lat="44.3567533" lon="10.7891733"><ele>666.0</ele><time>2026-05-03T11:49:32.755Z</time></trkpt><trkpt lat="44.35669" lon="10.7890433"><ele>664.6666666666666</ele><time>2026-05-03T11:49:34.756Z</time></trkpt><trkpt lat="44.3566483" lon="10.7889733"><ele>663.3333333333333</ele><time>2026-05-03T11:49:36.756Z</time></trkpt><trkpt lat="44.3565883" lon="10.788915"><ele>662.0</ele><time>2026-05-03T11:51:17.755Z</time></trkpt><trkpt lat="44.35651" lon="10.788845"><ele>662.0</ele><time>2026-05-03T11:51:20.756Z</time></trkpt><trkpt lat="44.3564517" lon="10.7888017"><ele>662.0</ele><time>2026-05-03T11:51:22.756Z</time></trkpt><trkpt lat="44.3563833" lon="10.7887517"><ele>662.0</ele><time>2026-05-03T11:51:25.756Z</time></trkpt><trkpt lat="44.3563133" lon="10.78872"><ele>662.0</ele><time>2026-05-03T11:52:17.756Z</time></trkpt><trkpt lat="44.3562533" lon="10.7886833"><ele>662.0</ele><time>2026-05-03T11:52:20.756Z</time></trkpt><trkpt lat="44.3561867" lon="10.7886617"><ele>662.0</ele><time>2026-05-03T11:52:25.756Z</time></trkpt><trkpt lat="44.35612" lon="10.7886"><ele>662.0</ele><time>2026-05-03T11:52:30.755Z</time></trkpt><trkpt lat="44.35607" lon="10.7885117"><ele>658.8</ele><time>2026-05-03T11:52:34.755Z</time></trkpt><trkpt lat="44.3560267" lon="10.7884233"><ele>655.6</ele><time>2026-05-03T11:52:38.756Z</time></trkpt><trkpt lat="44.355985" lon="10.78834"><ele>652.4</ele><time>2026-05-03T11:52:59.756Z</time></trkpt><trkpt lat="44.3559683" lon="10.7882183"><ele>649.1999999999999</ele><time>2026-05-03T11:53:01.756Z</time></trkpt><trkpt lat="44.35596" lon="10.7880683"><ele>646.0</ele><time>2026-05-03T11:53:03.756Z</time></trkpt><trkpt lat="44.3559217" lon="10.787915"><ele>646.0000000000001</ele><time>2026-05-03T11:53:05.756Z</time></trkpt><trkpt lat="44.3558817" lon="10.78784"><ele>646.0</ele><time>2026-05-03T11:53:06.755Z</time></trkpt><trkpt lat="44.3558317" lon="10.7877683"><ele>646.0</ele><time>2026-05-03T11:53:07.756Z</time></trkpt><trkpt lat="44.3557867" lon="10.7876883"><ele>646.0</ele><time>2026-05-03T11:53:08.756Z</time></trkpt><trkpt lat="44.3557433" lon="10.7876067"><ele>646.0</ele><time>2026-05-03T11:53:09.755Z</time></trkpt><trkpt lat="44.3556983" lon="10.7875267"><ele>646.0000000000001</ele><time>2026-05-03T11:53:10.756Z</time></trkpt><trkpt lat="44.3556583" lon="10.7874567"><ele>646.0</ele><time>2026-05-03T11:53:11.756Z</time></trkpt><trkpt lat="44.3556083" lon="10.7873717"><ele>644.0</ele><time>2026-05-03T11:53:12.756Z</time></trkpt><trkpt lat="44.35555" lon="10.7872867"><ele>642.0</ele><time>2026-05-03T11:53:13.756Z</time></trkpt><trkpt lat="44.35549" lon="10.7872017"><ele>640.0</ele><time>2026-05-03T11:53:14.755Z</time></trkpt><trkpt lat="44.355425" lon="10.7871233"><ele>638.0</ele><time>2026-05-03T11:53:15.755Z</time></trkpt><trkpt lat="44.355365" lon="10.78704"><ele>636.0</ele><time>2026-05-03T11:53:16.756Z</time></trkpt><trkpt lat="44.3553083" lon="10.7869533"><ele>634.0</ele><time>2026-05-03T11:53:17.756Z</time></trkpt><trkpt lat="44.3552583" lon="10.7868533"><ele>631.0</ele><time>2026-05-03T11:53:18.756Z</time></trkpt><trkpt lat="44.3552117" lon="10.7867417"><ele>628.0</ele><time>2026-05-03T11:53:19.756Z</time></trkpt><trkpt lat="44.355165" lon="10.7866233"><ele>625.0</ele><time>2026-05-03T11:53:20.756Z</time></trkpt><trkpt lat="44.3551233" lon="10.786515"><ele>622.0</ele><time>2026-05-03T11:53:21.756Z</time></trkpt><trkpt lat="44.3550817" lon="10.78641"><ele>619.0</ele><time>2026-05-03T11:53:22.755Z</time></trkpt><trkpt lat="44.355035" lon="10.78631"><ele>616.0</ele><time>2026-05-03T11:53:23.755Z</time></trkpt><trkpt lat="44.3549933" lon="10.7862167"><ele>616.0</ele><time>2026-05-03T11:53:24.755Z</time></trkpt><trkpt lat="44.3549517" lon="10.786135"><ele>616.0</ele><time>2026-05-03T11:53:25.755Z</time></trkpt><trkpt lat="44.3549117" lon="10.78599"><ele>616.0</ele><time>2026-05-03T11:53:27.755Z</time></trkpt><trkpt lat="44.354935" lon="10.785885"><ele>616.0</ele><time>2026-05-03T11:53:29.754Z</time></trkpt><trkpt lat="44.3550433" lon="10.7859133"><ele>616.0</ele><time>2026-05-03T11:53:31.755Z</time></trkpt><trkpt lat="44.3551167" lon="10.7859317"><ele>616.0</ele><time>2026-05-03T11:53:32.755Z</time></trkpt><trkpt lat="44.35519" lon="10.7859383"><ele>615.0</ele><time>2026-05-03T11:53:33.755Z</time></trkpt><trkpt lat="44.3552667" lon="10.7859467"><ele>614.0</ele><time>2026-05-03T11:53:34.754Z</time></trkpt><trkpt lat="44.3553483" lon="10.7859583"><ele>613.0</ele><time>2026-05-03T11:53:35.755Z</time></trkpt><trkpt lat="44.3554317" lon="10.7859617"><ele>612.0</ele><time>2026-05-03T11:53:36.755Z</time></trkpt><trkpt lat="44.355505" lon="10.7859567"><ele>611.0</ele><time>2026-05-03T11:53:37.754Z</time></trkpt><trkpt lat="44.3556167" lon="10.7859567"><ele>610.0</ele><time>2026-05-03T11:53:39.755Z</time></trkpt><trkpt lat="44.3556817" lon="10.7859233"><ele>610.0</ele><time>2026-05-03T11:53:41.754Z</time></trkpt><trkpt lat="44.3557133" lon="10.7858367"><ele>610.0</ele><time>2026-05-03T11:53:43.755Z</time></trkpt><trkpt lat="44.35571" lon="10.7856867"><ele>610.0</ele><time>2026-05-03T11:53:45.755Z</time></trkpt><trkpt lat="44.3556867" lon="10.7855267"><ele>610.0</ele><time>2026-05-03T11:53:47.754Z</time></trkpt><trkpt lat="44.3556517" lon="10.7854483"><ele>610.0</ele><time>2026-05-03T11:53:48.755Z</time></trkpt><trkpt lat="44.35561" lon="10.78538"><ele>610.0</ele><time>2026-05-03T11:53:49.755Z</time></trkpt><trkpt lat="44.35553" lon="10.78525"><ele>610.0</ele><time>2026-05-03T11:53:51.754Z</time></trkpt><trkpt lat="44.3554783" lon="10.7851817"><ele>610.0</ele><time>2026-05-03T11:53:52.755Z</time></trkpt><trkpt lat="44.3554333" lon="10.7851"><ele>610.0</ele><time>2026-05-03T11:53:53.755Z</time></trkpt><trkpt lat="44.3553883" lon="10.785015"><ele>610.0</ele><time>2026-05-03T11:53:54.755Z</time></trkpt><trkpt lat="44.3553533" lon="10.7849417"><ele>610.0</ele><time>2026-05-03T11:53:55.755Z</time></trkpt><trkpt lat="44.3552933" lon="10.7848583"><ele>610.0</ele><time>2026-05-03T11:53:57.755Z</time></trkpt><trkpt lat="44.3552083" lon="10.7847633"><ele>608.6666666666667</ele><time>2026-05-03T11:53:59.755Z</time></trkpt><trkpt lat="44.3551533" lon="10.7847"><ele>607.3333333333334</ele><time>2026-05-03T11:54:00.755Z</time></trkpt><trkpt lat="44.35508" lon="10.78464"><ele>606.0</ele><time>2026-05-03T11:54:01.755Z</time></trkpt><trkpt lat="44.3550217" lon="10.7845683"><ele>604.6666666666666</ele><time>2026-05-03T11:54:02.754Z</time></trkpt><trkpt lat="44.35497" lon="10.7844967"><ele>603.3333333333333</ele><time>2026-05-03T11:54:03.755Z</time></trkpt><trkpt lat="44.3549267" lon="10.7844117"><ele>602.0</ele><time>2026-05-03T11:54:04.754Z</time></trkpt><trkpt lat="44.35489" lon="10.7843183"><ele>599.2857142857143</ele><time>2026-05-03T11:54:05.755Z</time></trkpt><trkpt lat="44.3548383" lon="10.78425"><ele>596.5714285714286</ele><time>2026-05-03T11:54:06.755Z</time></trkpt><trkpt lat="44.354785" lon="10.7841983"><ele>593.8571428571429</ele><time>2026-05-03T11:54:07.754Z</time></trkpt><trkpt lat="44.35472" lon="10.7841433"><ele>591.1428571428571</ele><time>2026-05-03T11:54:08.755Z</time></trkpt><trkpt lat="44.3546433" lon="10.784075"><ele>588.4285714285714</ele><time>2026-05-03T11:54:09.755Z</time></trkpt><trkpt lat="44.3545817" lon="10.7840133"><ele>585.7142857142858</ele><time>2026-05-03T11:54:10.755Z</time></trkpt><trkpt lat="44.3545267" lon="10.78397"><ele>583.0</ele><time>2026-05-03T11:54:11.755Z</time></trkpt><trkpt lat="44.354425" lon="10.7839917"><ele>583.4</ele><time>2026-05-03T11:54:13.755Z</time></trkpt><trkpt lat="44.3543383" lon="10.7841433"><ele>583.8</ele><time>2026-05-03T11:54:15.755Z</time></trkpt><trkpt lat="44.3542783" lon="10.784235"><ele>584.2</ele><time>2026-05-03T11:54:16.755Z</time></trkpt><trkpt lat="44.3542167" lon="10.7843267"><ele>584.6</ele><time>2026-05-03T11:54:17.755Z</time></trkpt><trkpt lat="44.35414" lon="10.7844283"><ele>585.0</ele><time>2026-05-03T11:54:18.754Z</time></trkpt><trkpt lat="44.35405" lon="10.7845317"><ele>585.0</ele><time>2026-05-03T11:54:19.755Z</time></trkpt><trkpt lat="44.3539667" lon="10.7846367"><ele>585.0</ele><time>2026-05-03T11:54:20.755Z</time></trkpt><trkpt lat="44.3538883" lon="10.7847267"><ele>585.0</ele><time>2026-05-03T11:54:21.754Z</time></trkpt><trkpt lat="44.3537983" lon="10.7848067"><ele>585.0</ele><time>2026-05-03T11:54:22.755Z</time></trkpt><trkpt lat="44.35372" lon="10.7848717"><ele>585.0</ele><time>2026-05-03T11:54:23.755Z</time></trkpt><trkpt lat="44.3536467" lon="10.7849417"><ele>582.1666666666666</ele><time>2026-05-03T11:54:24.755Z</time></trkpt><trkpt lat="44.3535683" lon="10.7850067"><ele>579.3333333333334</ele><time>2026-05-03T11:54:25.755Z</time></trkpt><trkpt lat="44.3534983" lon="10.7850683"><ele>576.5</ele><time>2026-05-03T11:54:26.755Z</time></trkpt><trkpt lat="44.3534317" lon="10.7851417"><ele>573.6666666666667</ele><time>2026-05-03T11:54:27.754Z</time></trkpt><trkpt lat="44.35337" lon="10.7852183"><ele>570.8333333333334</ele><time>2026-05-03T11:54:28.754Z</time></trkpt><trkpt lat="44.3533133" lon="10.7853117"><ele>568.0</ele><time>2026-05-03T11:54:29.754Z</time></trkpt><trkpt lat="44.35325" lon="10.78541"><ele>568.0</ele><time>2026-05-03T11:54:30.754Z</time></trkpt><trkpt lat="44.3532" lon="10.7855317"><ele>568.0</ele><time>2026-05-03T11:54:31.755Z</time></trkpt><trkpt lat="44.353155" lon="10.7856367"><ele>568.0</ele><time>2026-05-03T11:54:32.755Z</time></trkpt><trkpt lat="44.3531217" lon="10.7857433"><ele>568.0</ele><time>2026-05-03T11:54:33.755Z</time></trkpt><trkpt lat="44.3531" lon="10.7858533"><ele>568.0</ele><time>2026-05-03T11:54:34.755Z</time></trkpt><trkpt lat="44.3530883" lon="10.785965"><ele>568.0</ele><time>2026-05-03T11:54:35.754Z</time></trkpt><trkpt lat="44.353085" lon="10.78608"><ele>569.0</ele><time>2026-05-03T11:54:36.755Z</time></trkpt><trkpt lat="44.3530817" lon="10.786215"><ele>570.0</ele><time>2026-05-03T11:54:37.754Z</time></trkpt><trkpt lat="44.3530783" lon="10.7863383"><ele>571.0</ele><time>2026-05-03T11:54:38.755Z</time></trkpt><trkpt lat="44.353075" lon="10.7864417"><ele>572.0</ele><time>2026-05-03T11:54:39.755Z</time></trkpt><trkpt lat="44.3530467" lon="10.7865417"><ele>573.0</ele><time>2026-05-03T11:54:40.755Z</time></trkpt><trkpt lat="44.3529983" lon="10.7866317"><ele>574.0</ele><time>2026-05-03T11:54:41.755Z</time></trkpt><trkpt lat="44.3529333" lon="10.7867283"><ele>571.0</ele><time>2026-05-03T11:54:42.755Z</time></trkpt><trkpt lat="44.352855" lon="10.7868183"><ele>568.0</ele><time>2026-05-03T11:54:43.755Z</time></trkpt><trkpt lat="44.352775" lon="10.7869183"><ele>565.0</ele><time>2026-05-03T11:54:44.755Z</time></trkpt><trkpt lat="44.3526983" lon="10.7870183"><ele>562.0</ele><time>2026-05-03T11:54:45.755Z</time></trkpt><trkpt lat="44.352615" lon="10.7871283"><ele>559.0</ele><time>2026-05-03T11:54:46.755Z</time></trkpt><trkpt lat="44.352535" lon="10.7872367"><ele>559.0</ele><time>2026-05-03T11:54:47.755Z</time></trkpt><trkpt lat="44.352455" lon="10.7873367"><ele>559.0</ele><time>2026-05-03T11:54:48.755Z</time></trkpt><trkpt lat="44.352375" lon="10.7874317"><ele>559.0</ele><time>2026-05-03T11:54:49.754Z</time></trkpt><trkpt lat="44.3523017" lon="10.7875283"><ele>559.0</ele><time>2026-05-03T11:54:50.754Z</time></trkpt><trkpt lat="44.352235" lon="10.7876167"><ele>559.0</ele><time>2026-05-03T11:54:51.755Z</time></trkpt><trkpt lat="44.3521733" lon="10.7877133"><ele>556.6</ele><time>2026-05-03T11:54:52.755Z</time></trkpt><trkpt lat="44.3521233" lon="10.7878117"><ele>554.2</ele><time>2026-05-03T11:54:53.755Z</time></trkpt><trkpt lat="44.352085" lon="10.7879167"><ele>551.8000000000001</ele><time>2026-05-03T11:54:54.755Z</time></trkpt><trkpt lat="44.3520583" lon="10.7880467"><ele>549.4</ele><time>2026-05-03T11:54:55.755Z</time></trkpt><trkpt lat="44.352035" lon="10.7882067"><ele>547.0</ele><time>2026-05-03T11:54:56.755Z</time></trkpt><trkpt lat="44.3520017" lon="10.7883783"><ele>548.75</ele><time>2026-05-03T11:54:57.754Z</time></trkpt><trkpt lat="44.3519717" lon="10.7885583"><ele>550.5</ele><time>2026-05-03T11:54:58.755Z</time></trkpt><trkpt lat="44.3519433" lon="10.78872"><ele>552.25</ele><time>2026-05-03T11:54:59.755Z</time></trkpt><trkpt lat="44.3519067" lon="10.78887"><ele>554.0</ele><time>2026-05-03T11:55:00.755Z</time></trkpt><trkpt lat="44.3518767" lon="10.78901"><ele>554.0</ele><time>2026-05-03T11:55:01.755Z</time></trkpt><trkpt lat="44.3518617" lon="10.7891383"><ele>554.0</ele><time>2026-05-03T11:55:02.755Z</time></trkpt><trkpt lat="44.35185" lon="10.7892667"><ele>554.0</ele><time>2026-05-03T11:55:03.755Z</time></trkpt><trkpt lat="44.3518317" lon="10.7893767"><ele>554.0</ele><time>2026-05-03T11:55:04.754Z</time></trkpt><trkpt lat="44.3518" lon="10.7894667"><ele>554.0</ele><time>2026-05-03T11:55:05.754Z</time></trkpt><trkpt lat="44.3517" lon="10.789535"><ele>554.0</ele><time>2026-05-03T11:55:07.755Z</time></trkpt><trkpt lat="44.351635" lon="10.7895033"><ele>554.4</ele><time>2026-05-03T11:55:08.755Z</time></trkpt><trkpt lat="44.35155" lon="10.7894483"><ele>554.8</ele><time>2026-05-03T11:55:09.755Z</time></trkpt><trkpt lat="44.3514517" lon="10.7893883"><ele>555.2</ele><time>2026-05-03T11:55:10.755Z</time></trkpt><trkpt lat="44.351355" lon="10.7893383"><ele>555.6</ele><time>2026-05-03T11:55:11.755Z</time></trkpt><trkpt lat="44.3512717" lon="10.7893033"><ele>556.0</ele><time>2026-05-03T11:55:12.755Z</time></trkpt><trkpt lat="44.351205" lon="10.7892683"><ele>556.0</ele><time>2026-05-03T11:55:13.755Z</time></trkpt><trkpt lat="44.3511433" lon="10.7892417"><ele>556.0</ele><time>2026-05-03T11:55:14.755Z</time></trkpt><trkpt lat="44.351075" lon="10.7892017"><ele>556.0</ele><time>2026-05-03T11:55:16.755Z</time></trkpt><trkpt lat="44.35106" lon="10.7891067"><ele>556.0</ele><time>2026-05-03T11:55:32.755Z</time></trkpt><trkpt lat="44.3510917" lon="10.7889617"><ele>556.0</ele><time>2026-05-03T11:55:34.755Z</time></trkpt><trkpt lat="44.3510933" lon="10.7888617"><ele>556.0</ele><time>2026-05-03T11:55:35.755Z</time></trkpt><trkpt lat="44.3510817" lon="10.7887717"><ele>556.0</ele><time>2026-05-03T11:55:36.755Z</time></trkpt><trkpt lat="44.35104" lon="10.7886067"><ele>556.0</ele><time>2026-05-03T11:55:38.755Z</time></trkpt><trkpt lat="44.3509933" lon="10.7884533"><ele>556.0</ele><time>2026-05-03T11:55:40.755Z</time></trkpt><trkpt lat="44.350965" lon="10.7882917"><ele>556.0</ele><time>2026-05-03T11:55:42.755Z</time></trkpt><trkpt lat="44.350965" lon="10.7881983"><ele>556.0</ele><time>2026-05-03T11:55:43.755Z</time></trkpt><trkpt lat="44.3509767" lon="10.7881017"><ele>553.8</ele><time>2026-05-03T11:55:44.755Z</time></trkpt><trkpt lat="44.3509533" lon="10.787955"><ele>551.6</ele><time>2026-05-03T11:55:46.754Z</time></trkpt><trkpt lat="44.3508483" lon="10.7878767"><ele>549.4</ele><time>2026-05-03T11:55:48.755Z</time></trkpt><trkpt lat="44.35077" lon="10.7878317"><ele>547.2</ele><time>2026-05-03T11:55:49.755Z</time></trkpt><trkpt lat="44.3506833" lon="10.7877867"><ele>545.0</ele><time>2026-05-03T11:55:50.754Z</time></trkpt><trkpt lat="44.3505967" lon="10.7877483"><ele>544.5</ele><time>2026-05-03T11:55:51.755Z</time></trkpt><trkpt lat="44.3505117" lon="10.787705"><ele>544.0</ele><time>2026-05-03T11:55:52.755Z</time></trkpt><trkpt lat="44.35043" lon="10.7876633"><ele>543.5</ele><time>2026-05-03T11:55:53.754Z</time></trkpt><trkpt lat="44.3503433" lon="10.7876283"><ele>543.0</ele><time>2026-05-03T11:55:54.755Z</time></trkpt><trkpt lat="44.3502633" lon="10.7876017"><ele>542.5</ele><time>2026-05-03T11:55:55.755Z</time></trkpt><trkpt lat="44.35019" lon="10.7875683"><ele>542.0</ele><time>2026-05-03T11:55:56.755Z</time></trkpt><trkpt lat="44.350115" lon="10.7875317"><ele>540.5</ele><time>2026-05-03T11:55:57.755Z</time></trkpt><trkpt lat="44.3500383" lon="10.7874817"><ele>539.0</ele><time>2026-05-03T11:55:58.755Z</time></trkpt><trkpt lat="44.34996" lon="10.7874217"><ele>537.5</ele><time>2026-05-03T11:55:59.754Z</time></trkpt><trkpt lat="44.3498783" lon="10.7873767"><ele>536.0</ele><time>2026-05-03T11:56:00.754Z</time></trkpt><trkpt lat="44.3497933" lon="10.7873333"><ele>534.5</ele><time>2026-05-03T11:56:01.755Z</time></trkpt><trkpt lat="44.3497133" lon="10.7872917"><ele>533.0</ele><time>2026-05-03T11:56:02.755Z</time></trkpt><trkpt lat="44.3496417" lon="10.7872483"><ele>531.1999999999999</ele><time>2026-05-03T11:56:03.754Z</time></trkpt><trkpt lat="44.3495783" lon="10.7872083"><ele>529.4</ele><time>2026-05-03T11:56:04.754Z</time></trkpt><trkpt lat="44.349515" lon="10.7871617"><ele>527.5999999999999</ele><time>2026-05-03T11:56:05.755Z</time></trkpt><trkpt lat="44.3494517" lon="10.7871083"><ele>525.8</ele><time>2026-05-03T11:56:06.755Z</time></trkpt><trkpt lat="44.3493667" lon="10.7869967"><ele>524.0</ele><time>2026-05-03T11:56:08.755Z</time></trkpt><trkpt lat="44.3493317" lon="10.78683"><ele>523.6666666666666</ele><time>2026-05-03T11:56:10.755Z</time></trkpt><trkpt lat="44.3493417" lon="10.78672"><ele>523.3333333333333</ele><time>2026-05-03T11:56:11.754Z</time></trkpt><trkpt lat="44.3493733" lon="10.786605"><ele>523.0</ele><time>2026-05-03T11:56:12.755Z</time></trkpt><trkpt lat="44.349415" lon="10.78649"><ele>522.6666666666666</ele><time>2026-05-03T11:56:13.754Z</time></trkpt><trkpt lat="44.3494667" lon="10.7863983"><ele>522.3333333333334</ele><time>2026-05-03T11:56:14.754Z</time></trkpt><trkpt lat="44.3495217" lon="10.78632"><ele>522.0</ele><time>2026-05-03T11:56:15.755Z</time></trkpt><trkpt lat="44.3495767" lon="10.78626"><ele>522.0</ele><time>2026-05-03T11:56:16.755Z</time></trkpt><trkpt lat="44.3496417" lon="10.7862167"><ele>522.0</ele><time>2026-05-03T11:56:17.755Z</time></trkpt><trkpt lat="44.3497067" lon="10.7861717"><ele>522.0</ele><time>2026-05-03T11:56:18.755Z</time></trkpt><trkpt lat="44.349775" lon="10.7861233"><ele>522.0</ele><time>2026-05-03T11:56:19.755Z</time></trkpt><trkpt lat="44.3498483" lon="10.78608"><ele>522.0</ele><time>2026-05-03T11:56:20.755Z</time></trkpt><trkpt lat="44.34992" lon="10.78604"><ele>522.0</ele><time>2026-05-03T11:56:21.755Z</time></trkpt><trkpt lat="44.3499967" lon="10.7859983"><ele>521.3333333333334</ele><time>2026-05-03T11:56:22.755Z</time></trkpt><trkpt lat="44.3500733" lon="10.7859517"><ele>520.6666666666666</ele><time>2026-05-03T11:56:23.755Z</time></trkpt><trkpt lat="44.3501417" lon="10.785905"><ele>520.0</ele><time>2026-05-03T11:56:24.755Z</time></trkpt><trkpt lat="44.3501967" lon="10.7858583"><ele>519.3333333333333</ele><time>2026-05-03T11:56:25.755Z</time></trkpt><trkpt lat="44.35025" lon="10.7857967"><ele>518.6666666666666</ele><time>2026-05-03T11:56:26.755Z</time></trkpt><trkpt lat="44.3503083" lon="10.78572"><ele>518.0</ele><time>2026-05-03T11:56:27.755Z</time></trkpt><trkpt lat="44.3503683" lon="10.785645"><ele>518.0</ele><time>2026-05-03T11:56:28.755Z</time></trkpt><trkpt lat="44.3504417" lon="10.7855817"><ele>518.0</ele><time>2026-05-03T11:56:29.755Z</time></trkpt><trkpt lat="44.35051" lon="10.7855233"><ele>518.0</ele><time>2026-05-03T11:56:30.754Z</time></trkpt><trkpt lat="44.3505733" lon="10.78546"><ele>518.0</ele><time>2026-05-03T11:56:31.755Z</time></trkpt><trkpt lat="44.3506267" lon="10.7854017"><ele>518.0</ele><time>2026-05-03T11:56:32.755Z</time></trkpt><trkpt lat="44.3506783" lon="10.7853467"><ele>518.0</ele><time>2026-05-03T11:56:33.754Z</time></trkpt><trkpt lat="44.3507417" lon="10.7852983"><ele>518.0</ele><time>2026-05-03T11:56:34.755Z</time></trkpt><trkpt lat="44.3508283" lon="10.7852167"><ele>518.1666666666666</ele><time>2026-05-03T11:56:36.755Z</time></trkpt><trkpt lat="44.3509233" lon="10.7852283"><ele>518.3333333333333</ele><time>2026-05-03T11:56:38.755Z</time></trkpt><trkpt lat="44.3510167" lon="10.7853483"><ele>518.5</ele><time>2026-05-03T11:56:40.755Z</time></trkpt><trkpt lat="44.3510483" lon="10.7854267"><ele>518.6666666666666</ele><time>2026-05-03T11:56:41.755Z</time></trkpt><trkpt lat="44.35111" lon="10.7854967"><ele>518.8333333333334</ele><time>2026-05-03T11:56:43.754Z</time></trkpt><trkpt lat="44.351175" lon="10.7854467"><ele>519.0</ele><time>2026-05-03T11:56:45.754Z</time></trkpt><trkpt lat="44.3512033" lon="10.7853417"><ele>519.0</ele><time>2026-05-03T11:56:47.755Z</time></trkpt><trkpt lat="44.351225" lon="10.7851767"><ele>519.0</ele><time>2026-05-03T11:56:49.754Z</time></trkpt><trkpt lat="44.3512467" lon="10.785075"><ele>519.0</ele><time>2026-05-03T11:56:50.755Z</time></trkpt><trkpt lat="44.3512717" lon="10.784975"><ele>519.0</ele><time>2026-05-03T11:56:51.755Z</time></trkpt><trkpt lat="44.35131" lon="10.7848967"><ele>519.0</ele><time>2026-05-03T11:56:52.755Z</time></trkpt><trkpt lat="44.3513883" lon="10.7848167"><ele>519.0</ele><time>2026-05-03T11:56:54.755Z</time></trkpt><trkpt lat="44.3514467" lon="10.784705"><ele>519.0</ele><time>2026-05-03T11:57:31.755Z</time></trkpt><trkpt lat="44.3514917" lon="10.784615"><ele>519.0</ele><time>2026-05-03T11:57:33.755Z</time></trkpt><trkpt lat="44.3515567" lon="10.784545"><ele>519.0</ele><time>2026-05-03T11:57:35.755Z</time></trkpt><trkpt lat="44.3516733" lon="10.784465"><ele>519.0</ele><time>2026-05-03T11:59:34.754Z</time></trkpt><trkpt lat="44.3517917" lon="10.7843917"><ele>519.0</ele><time>2026-05-03T11:59:36.753Z</time></trkpt><trkpt lat="44.351885" lon="10.7843483"><ele>518.1666666666666</ele><time>2026-05-03T11:59:37.753Z</time></trkpt><trkpt lat="44.3519733" lon="10.7842933"><ele>517.3333333333334</ele><time>2026-05-03T11:59:38.754Z</time></trkpt><trkpt lat="44.3520383" lon="10.7842217"><ele>516.5</ele><time>2026-05-03T11:59:39.753Z</time></trkpt><trkpt lat="44.35209" lon="10.784125"><ele>515.6666666666667</ele><time>2026-05-03T11:59:40.754Z</time></trkpt><trkpt lat="44.3521383" lon="10.7840267"><ele>514.8333333333334</ele><time>2026-05-03T11:59:41.754Z</time></trkpt><trkpt lat="44.35217" lon="10.7839383"><ele>514.0</ele><time>2026-05-03T11:59:42.754Z</time></trkpt><trkpt lat="44.352195" lon="10.7838533"><ele>514.2857142857142</ele><time>2026-05-03T11:59:43.754Z</time></trkpt><trkpt lat="44.3522233" lon="10.783765"><ele>514.5714285714286</ele><time>2026-05-03T11:59:44.754Z</time></trkpt><trkpt lat="44.3522483" lon="10.7836833"><ele>514.8571428571429</ele><time>2026-05-03T11:59:45.754Z</time></trkpt><trkpt lat="44.352265" lon="10.7835983"><ele>515.1428571428571</ele><time>2026-05-03T11:59:46.754Z</time></trkpt><trkpt lat="44.3522767" lon="10.7834983"><ele>515.4285714285714</ele><time>2026-05-03T11:59:47.754Z</time></trkpt><trkpt lat="44.35229" lon="10.7833933"><ele>515.7142857142857</ele><time>2026-05-03T11:59:48.754Z</time></trkpt><trkpt lat="44.3522917" lon="10.7832867"><ele>516.0</ele><time>2026-05-03T11:59:49.754Z</time></trkpt><trkpt lat="44.352295" lon="10.7831967"><ele>516.0</ele><time>2026-05-03T11:59:50.754Z</time></trkpt><trkpt lat="44.352305" lon="10.7830267"><ele>516.0</ele><time>2026-05-03T11:59:52.753Z</time></trkpt><trkpt lat="44.3523267" lon="10.7829317"><ele>516.0</ele><time>2026-05-03T11:59:53.754Z</time></trkpt><trkpt lat="44.3523567" lon="10.782825"><ele>516.0</ele><time>2026-05-03T11:59:54.754Z</time></trkpt><trkpt lat="44.3524" lon="10.782705"><ele>516.0</ele><time>2026-05-03T11:59:55.754Z</time></trkpt><trkpt lat="44.35244" lon="10.782585"><ele>515.3333333333334</ele><time>2026-05-03T11:59:56.754Z</time></trkpt><trkpt lat="44.3524717" lon="10.7824883"><ele>514.6666666666666</ele><time>2026-05-03T11:59:57.754Z</time></trkpt><trkpt lat="44.3524983" lon="10.7824067"><ele>514.0</ele><time>2026-05-03T11:59:58.754Z</time></trkpt><trkpt lat="44.35251" lon="10.7822517"><ele>513.3333333333333</ele><time>2026-05-03T12:00:00.754Z</time></trkpt><trkpt lat="44.3524767" lon="10.7820883"><ele>512.6666666666666</ele><time>2026-05-03T12:00:02.754Z</time></trkpt><trkpt lat="44.352445" lon="10.7820067"><ele>512.0</ele><time>2026-05-03T12:00:03.754Z</time></trkpt><trkpt lat="44.3524033" lon="10.78194"><ele>512.0</ele><time>2026-05-03T12:00:04.754Z</time></trkpt><trkpt lat="44.3523433" lon="10.7818717"><ele>512.0</ele><time>2026-05-03T12:00:06.754Z</time></trkpt><trkpt lat="44.352275" lon="10.78188"><ele>512.0</ele><time>2026-05-03T12:00:19.753Z</time></trkpt><trkpt lat="44.3521833" lon="10.7819867"><ele>512.0</ele><time>2026-05-03T12:00:21.754Z</time></trkpt><trkpt lat="44.3521017" lon="10.78206"><ele>512.0</ele><time>2026-05-03T12:00:22.754Z</time></trkpt><trkpt lat="44.3520033" lon="10.7821483"><ele>513.25</ele><time>2026-05-03T12:00:23.754Z</time></trkpt><trkpt lat="44.3518983" lon="10.7822317"><ele>514.5</ele><time>2026-05-03T12:00:24.754Z</time></trkpt><trkpt lat="44.35179" lon="10.782325"><ele>515.75</ele><time>2026-05-03T12:00:25.753Z</time></trkpt><trkpt lat="44.3516683" lon="10.7824017"><ele>517.0</ele><time>2026-05-03T12:00:26.754Z</time></trkpt><trkpt lat="44.351545" lon="10.78247"><ele>517.0</ele><time>2026-05-03T12:00:27.754Z</time></trkpt><trkpt lat="44.351415" lon="10.7825367"><ele>517.0</ele><time>2026-05-03T12:00:28.754Z</time></trkpt><trkpt lat="44.351295" lon="10.7826183"><ele>517.0</ele><time>2026-05-03T12:00:29.753Z</time></trkpt><trkpt lat="44.3511783" lon="10.7827067"><ele>517.0</ele><time>2026-05-03T12:00:30.753Z</time></trkpt><trkpt lat="44.35106" lon="10.782785"><ele>520.25</ele><time>2026-05-03T12:00:31.754Z</time></trkpt><trkpt lat="44.3509517" lon="10.782845"><ele>523.5</ele><time>2026-05-03T12:00:32.753Z</time></trkpt><trkpt lat="44.3508433" lon="10.782865"><ele>526.75</ele><time>2026-05-03T12:00:33.754Z</time></trkpt><trkpt lat="44.35073" lon="10.7828617"><ele>530.0</ele><time>2026-05-03T12:00:34.753Z</time></trkpt><trkpt lat="44.35062" lon="10.7828367"><ele>531.4</ele><time>2026-05-03T12:00:35.753Z</time></trkpt><trkpt lat="44.350515" lon="10.7827867"><ele>532.8</ele><time>2026-05-03T12:00:36.754Z</time></trkpt><trkpt lat="44.3504367" lon="10.7827133"><ele>534.2</ele><time>2026-05-03T12:00:37.754Z</time></trkpt><trkpt lat="44.3503667" lon="10.7826083"><ele>535.6</ele><time>2026-05-03T12:00:38.754Z</time></trkpt><trkpt lat="44.3503117" lon="10.78248"><ele>537.0</ele><time>2026-05-03T12:00:39.754Z</time></trkpt><trkpt lat="44.3502833" lon="10.7823633"><ele>537.5</ele><time>2026-05-03T12:00:40.753Z</time></trkpt><trkpt lat="44.3502917" lon="10.7822583"><ele>538.0</ele><time>2026-05-03T12:00:41.754Z</time></trkpt><trkpt lat="44.3503317" lon="10.7821683"><ele>538.5</ele><time>2026-05-03T12:00:42.754Z</time></trkpt><trkpt lat="44.3503967" lon="10.7820733"><ele>539.0</ele><time>2026-05-03T12:00:43.754Z</time></trkpt><trkpt lat="44.3504567" lon="10.7819667"><ele>539.5</ele><time>2026-05-03T12:00:44.754Z</time></trkpt><trkpt lat="44.35049" lon="10.7818417"><ele>540.0</ele><time>2026-05-03T12:00:45.754Z</time></trkpt><trkpt lat="44.35049" lon="10.781725"><ele>541.2</ele><time>2026-05-03T12:00:46.754Z</time></trkpt><trkpt lat="44.3504667" lon="10.781595"><ele>542.4</ele><time>2026-05-03T12:00:47.754Z</time></trkpt><trkpt lat="44.3504117" lon="10.781455"><ele>543.6</ele><time>2026-05-03T12:00:48.753Z</time></trkpt><trkpt lat="44.3503567" lon="10.7813167"><ele>544.8</ele><time>2026-05-03T12:00:49.754Z</time></trkpt><trkpt lat="44.350305" lon="10.7811783"><ele>546.0</ele><time>2026-05-03T12:00:50.754Z</time></trkpt><trkpt lat="44.3502567" lon="10.781015"><ele>547.75</ele><time>2026-05-03T12:00:51.754Z</time></trkpt><trkpt lat="44.3502167" lon="10.7808433"><ele>549.5</ele><time>2026-05-03T12:00:52.754Z</time></trkpt><trkpt lat="44.3501883" lon="10.7806667"><ele>551.25</ele><time>2026-05-03T12:00:53.754Z</time></trkpt><trkpt lat="44.35015" lon="10.7804867"><ele>553.0</ele><time>2026-05-03T12:00:54.753Z</time></trkpt><trkpt lat="44.35014" lon="10.7803067"><ele>554.75</ele><time>2026-05-03T12:00:55.754Z</time></trkpt><trkpt lat="44.350155" lon="10.7801283"><ele>556.5</ele><time>2026-05-03T12:00:56.753Z</time></trkpt><trkpt lat="44.3501683" lon="10.779945"><ele>558.25</ele><time>2026-05-03T12:00:57.754Z</time></trkpt><trkpt lat="44.3501533" lon="10.77976"><ele>560.0</ele><time>2026-05-03T12:00:58.754Z</time></trkpt><trkpt lat="44.3501217" lon="10.7795733"><ele>560.0</ele><time>2026-05-03T12:00:59.754Z</time></trkpt><trkpt lat="44.35009" lon="10.7793883"><ele>560.0</ele><time>2026-05-03T12:01:00.753Z</time></trkpt><trkpt lat="44.35007" lon="10.7792067"><ele>560.0</ele><time>2026-05-03T12:01:01.754Z</time></trkpt><trkpt lat="44.3500817" lon="10.779035"><ele>560.0</ele><time>2026-05-03T12:01:02.754Z</time></trkpt><trkpt lat="44.3501117" lon="10.77887"><ele>563.25</ele><time>2026-05-03T12:01:03.754Z</time></trkpt><trkpt lat="44.350155" lon="10.7787117"><ele>566.5</ele><time>2026-05-03T12:01:04.754Z</time></trkpt><trkpt lat="44.3501967" lon="10.77855"><ele>569.75</ele><time>2026-05-03T12:01:05.754Z</time></trkpt><trkpt lat="44.35021" lon="10.7783867"><ele>573.0</ele><time>2026-05-03T12:01:06.754Z</time></trkpt><trkpt lat="44.35021" lon="10.7782133"><ele>575.1999999999999</ele><time>2026-05-03T12:01:07.754Z</time></trkpt><trkpt lat="44.3501967" lon="10.77804"><ele>577.4</ele><time>2026-05-03T12:01:08.753Z</time></trkpt><trkpt lat="44.3502017" lon="10.7778733"><ele>579.5999999999999</ele><time>2026-05-03T12:01:09.754Z</time></trkpt><trkpt lat="44.350205" lon="10.7777217"><ele>581.8</ele><time>2026-05-03T12:01:10.754Z</time></trkpt><trkpt lat="44.350195" lon="10.7776067"><ele>584.0</ele><time>2026-05-03T12:01:11.754Z</time></trkpt><trkpt lat="44.350165" lon="10.777515"><ele>585.4</ele><time>2026-05-03T12:01:12.754Z</time></trkpt><trkpt lat="44.350105" lon="10.7774517"><ele>586.8</ele><time>2026-05-03T12:01:13.753Z</time></trkpt><trkpt lat="44.3500233" lon="10.7774383"><ele>588.2</ele><time>2026-05-03T12:01:14.754Z</time></trkpt><trkpt lat="44.3499233" lon="10.7774667"><ele>589.6</ele><time>2026-05-03T12:01:15.754Z</time></trkpt><trkpt lat="44.3498117" lon="10.7775217"><ele>591.0</ele><time>2026-05-03T12:01:16.754Z</time></trkpt><trkpt lat="44.3496917" lon="10.777575"><ele>593.75</ele><time>2026-05-03T12:01:17.754Z</time></trkpt><trkpt lat="44.3495667" lon="10.7776267"><ele>596.5</ele><time>2026-05-03T12:01:18.754Z</time></trkpt><trkpt lat="44.34944" lon="10.777655"><ele>599.25</ele><time>2026-05-03T12:01:19.753Z</time></trkpt><trkpt lat="44.3493133" lon="10.7776917"><ele>602.0</ele><time>2026-05-03T12:01:20.754Z</time></trkpt><trkpt lat="44.349185" lon="10.7777283"><ele>602.0</ele><time>2026-05-03T12:01:21.754Z</time></trkpt><trkpt lat="44.34906" lon="10.7777633"><ele>602.0</ele><time>2026-05-03T12:01:22.754Z</time></trkpt><trkpt lat="44.3489467" lon="10.7777917"><ele>602.0</ele><time>2026-05-03T12:01:23.754Z</time></trkpt><trkpt lat="44.348845" lon="10.7778217"><ele>602.0</ele><time>2026-05-03T12:01:24.754Z</time></trkpt><trkpt lat="44.34876" lon="10.7778317"><ele>602.0</ele><time>2026-05-03T12:01:25.754Z</time></trkpt><trkpt lat="44.348675" lon="10.7778017"><ele>606.4</ele><time>2026-05-03T12:01:26.754Z</time></trkpt><trkpt lat="44.3485867" lon="10.7777433"><ele>610.8000000000001</ele><time>2026-05-03T12:01:27.753Z</time></trkpt><trkpt lat="44.3484983" lon="10.7776633"><ele>615.2</ele><time>2026-05-03T12:01:28.754Z</time></trkpt><trkpt lat="44.3483983" lon="10.7775883"><ele>619.6</ele><time>2026-05-03T12:01:29.754Z</time></trkpt><trkpt lat="44.348295" lon="10.7775133"><ele>624.0</ele><time>2026-05-03T12:01:30.754Z</time></trkpt><trkpt lat="44.3482" lon="10.777455"><ele>624.0</ele><time>2026-05-03T12:01:31.754Z</time></trkpt><trkpt lat="44.3481067" lon="10.777425"><ele>624.0</ele><time>2026-05-03T12:01:32.753Z</time></trkpt><trkpt lat="44.3480183" lon="10.7773867"><ele>624.0</ele><time>2026-05-03T12:01:33.754Z</time></trkpt><trkpt lat="44.347945" lon="10.7773367"><ele>624.0</ele><time>2026-05-03T12:01:34.754Z</time></trkpt><trkpt lat="44.347885" lon="10.7772867"><ele>624.0</ele><time>2026-05-03T12:01:35.753Z</time></trkpt><trkpt lat="44.34781" lon="10.7772167"><ele>624.0</ele><time>2026-05-03T12:01:37.754Z</time></trkpt><trkpt lat="44.347785" lon="10.7771333"><ele>625.1666666666666</ele><time>2026-05-03T12:01:39.754Z</time></trkpt><trkpt lat="44.3477767" lon="10.777045"><ele>626.3333333333334</ele><time>2026-05-03T12:01:40.754Z</time></trkpt><trkpt lat="44.347765" lon="10.77694"><ele>627.5</ele><time>2026-05-03T12:01:41.753Z</time></trkpt><trkpt lat="44.3477483" lon="10.7768317"><ele>628.6666666666667</ele><time>2026-05-03T12:01:42.754Z</time></trkpt><trkpt lat="44.3477183" lon="10.77672"><ele>629.8333333333334</ele><time>2026-05-03T12:01:43.754Z</time></trkpt><trkpt lat="44.3476633" lon="10.7765833"><ele>631.0</ele><time>2026-05-03T12:01:44.754Z</time></trkpt><trkpt lat="44.3475983" lon="10.7764433"><ele>632.75</ele><time>2026-05-03T12:01:45.754Z</time></trkpt><trkpt lat="44.347535" lon="10.7763"><ele>634.5</ele><time>2026-05-03T12:01:46.754Z</time></trkpt><trkpt lat="44.3474833" lon="10.77614"><ele>636.25</ele><time>2026-05-03T12:01:47.754Z</time></trkpt><trkpt lat="44.347455" lon="10.77598"><ele>638.0</ele><time>2026-05-03T12:01:48.754Z</time></trkpt><trkpt lat="44.3474633" lon="10.77584"><ele>638.75</ele><time>2026-05-03T12:01:49.753Z</time></trkpt><trkpt lat="44.34749" lon="10.775705"><ele>639.5</ele><time>2026-05-03T12:01:50.753Z</time></trkpt><trkpt lat="44.3475433" lon="10.7755633"><ele>640.25</ele><time>2026-05-03T12:01:51.754Z</time></trkpt><trkpt lat="44.3475933" lon="10.7753967"><ele>641.0</ele><time>2026-05-03T12:01:52.754Z</time></trkpt><trkpt lat="44.347645" lon="10.7752233"><ele>642.5</ele><time>2026-05-03T12:01:53.753Z</time></trkpt><trkpt lat="44.3476833" lon="10.7750417"><ele>644.0</ele><time>2026-05-03T12:01:54.754Z</time></trkpt><trkpt lat="44.3477083" lon="10.7748783"><ele>645.5</ele><time>2026-05-03T12:01:55.754Z</time></trkpt><trkpt lat="44.3477017" lon="10.7747167"><ele>647.0</ele><time>2026-05-03T12:01:56.754Z</time></trkpt><trkpt lat="44.347675" lon="10.77454"><ele>647.0</ele><time>2026-05-03T12:01:57.754Z</time></trkpt><trkpt lat="44.3476333" lon="10.774355"><ele>647.0</ele><time>2026-05-03T12:01:58.754Z</time></trkpt><trkpt lat="44.347595" lon="10.77416"><ele>647.0</ele><time>2026-05-03T12:01:59.754Z</time></trkpt><trkpt lat="44.34756" lon="10.7739833"><ele>647.0</ele><time>2026-05-03T12:02:00.753Z</time></trkpt><trkpt lat="44.3475433" lon="10.7738117"><ele>649.25</ele><time>2026-05-03T12:02:01.754Z</time></trkpt><trkpt lat="44.3475633" lon="10.7736517"><ele>651.5</ele><time>2026-05-03T12:02:02.754Z</time></trkpt><trkpt lat="44.3476083" lon="10.7734717"><ele>653.75</ele><time>2026-05-03T12:02:03.754Z</time></trkpt><trkpt lat="44.3476633" lon="10.7733133"><ele>656.0</ele><time>2026-05-03T12:02:04.754Z</time></trkpt><trkpt lat="44.3477367" lon="10.77318"><ele>657.4</ele><time>2026-05-03T12:02:05.754Z</time></trkpt><trkpt lat="44.347805" lon="10.7730767"><ele>658.8</ele><time>2026-05-03T12:02:06.754Z</time></trkpt><trkpt lat="44.3478617" lon="10.7729583"><ele>660.1999999999999</ele><time>2026-05-03T12:02:07.754Z</time></trkpt><trkpt lat="44.3478933" lon="10.7728483"><ele>661.5999999999999</ele><time>2026-05-03T12:02:08.754Z</time></trkpt><trkpt lat="44.3478983" lon="10.772755"><ele>663.0</ele><time>2026-05-03T12:02:09.754Z</time></trkpt><trkpt lat="44.3478117" lon="10.7726133"><ele>664.5</ele><time>2026-05-03T12:02:11.754Z</time></trkpt><trkpt lat="44.347715" lon="10.7725817"><ele>666.0</ele><time>2026-05-03T12:02:12.754Z</time></trkpt><trkpt lat="44.3475967" lon="10.7725533"><ele>667.5</ele><time>2026-05-03T12:02:13.754Z</time></trkpt><trkpt lat="44.3474767" lon="10.77251"><ele>669.0</ele><time>2026-05-03T12:02:14.754Z</time></trkpt><trkpt lat="44.347365" lon="10.7724467"><ele>669.0</ele><time>2026-05-03T12:02:15.754Z</time></trkpt><trkpt lat="44.3472567" lon="10.7723783"><ele>669.0</ele><time>2026-05-03T12:02:16.753Z</time></trkpt><trkpt lat="44.3471717" lon="10.772315"><ele>669.0</ele><time>2026-05-03T12:02:17.754Z</time></trkpt><trkpt lat="44.34711" lon="10.7722367"><ele>669.0</ele><time>2026-05-03T12:02:18.754Z</time></trkpt><trkpt lat="44.34707" lon="10.7721417"><ele>669.0</ele><time>2026-05-03T12:02:19.752Z</time></trkpt><trkpt lat="44.347065" lon="10.77204"><ele>670.0</ele><time>2026-05-03T12:02:20.753Z</time></trkpt><trkpt lat="44.3470917" lon="10.7719117"><ele>671.0</ele><time>2026-05-03T12:02:21.753Z</time></trkpt><trkpt lat="44.3471583" lon="10.7717517"><ele>672.0</ele><time>2026-05-03T12:02:22.752Z</time></trkpt><trkpt lat="44.34723" lon="10.7715883"><ele>673.0</ele><time>2026-05-03T12:02:23.753Z</time></trkpt><trkpt lat="44.3472667" lon="10.771435"><ele>673.0</ele><time>2026-05-03T12:02:24.753Z</time></trkpt><trkpt lat="44.3472817" lon="10.7712833"><ele>673.0</ele><time>2026-05-03T12:02:25.753Z</time></trkpt><trkpt lat="44.3472633" lon="10.771145"><ele>673.0</ele><time>2026-05-03T12:02:26.753Z</time></trkpt><trkpt lat="44.34723" lon="10.7710017"><ele>673.0</ele><time>2026-05-03T12:02:27.753Z</time></trkpt><trkpt lat="44.3471717" lon="10.7708583"><ele>673.0</ele><time>2026-05-03T12:02:28.753Z</time></trkpt><trkpt lat="44.3471" lon="10.7707183"><ele>679.0</ele><time>2026-05-03T12:02:29.753Z</time></trkpt><trkpt lat="44.3470367" lon="10.7705783"><ele>685.0</ele><time>2026-05-03T12:02:30.753Z</time></trkpt><trkpt lat="44.3469633" lon="10.7704233"><ele>691.0</ele><time>2026-05-03T12:02:31.753Z</time></trkpt><trkpt lat="44.3468867" lon="10.7702583"><ele>697.0</ele><time>2026-05-03T12:02:32.753Z</time></trkpt><trkpt lat="44.34682" lon="10.7700917"><ele>698.75</ele><time>2026-05-03T12:02:33.753Z</time></trkpt><trkpt lat="44.3467633" lon="10.7699217"><ele>700.5</ele><time>2026-05-03T12:02:34.752Z</time></trkpt><trkpt lat="44.3467117" lon="10.769745"><ele>702.25</ele><time>2026-05-03T12:02:35.753Z</time></trkpt><trkpt lat="44.346655" lon="10.7695867"><ele>704.0</ele><time>2026-05-03T12:02:36.753Z</time></trkpt><trkpt lat="44.3466067" lon="10.7694583"><ele>705.1666666666666</ele><time>2026-05-03T12:02:37.753Z</time></trkpt><trkpt lat="44.3465567" lon="10.7693533"><ele>706.3333333333333</ele><time>2026-05-03T12:02:38.753Z</time></trkpt><trkpt lat="44.3465183" lon="10.7692667"><ele>707.5</ele><time>2026-05-03T12:02:39.753Z</time></trkpt><trkpt lat="44.346455" lon="10.7692067"><ele>708.6666666666666</ele><time>2026-05-03T12:02:40.753Z</time></trkpt><trkpt lat="44.3463833" lon="10.7691917"><ele>709.8333333333334</ele><time>2026-05-03T12:02:41.752Z</time></trkpt><trkpt lat="44.3463" lon="10.7692033"><ele>711.0</ele><time>2026-05-03T12:02:42.752Z</time></trkpt><trkpt lat="44.34621" lon="10.7692"><ele>712.4285714285714</ele><time>2026-05-03T12:02:43.752Z</time></trkpt><trkpt lat="44.3461383" lon="10.7691733"><ele>713.8571428571429</ele><time>2026-05-03T12:02:44.753Z</time></trkpt><trkpt lat="44.346085" lon="10.769115"><ele>715.2857142857142</ele><time>2026-05-03T12:02:45.753Z</time></trkpt><trkpt lat="44.34605" lon="10.7690317"><ele>716.7142857142858</ele><time>2026-05-03T12:02:46.753Z</time></trkpt><trkpt lat="44.3460467" lon="10.76893"><ele>718.1428571428571</ele><time>2026-05-03T12:02:47.753Z</time></trkpt><trkpt lat="44.3460567" lon="10.7688267"><ele>719.5714285714286</ele><time>2026-05-03T12:02:48.753Z</time></trkpt><trkpt lat="44.3460667" lon="10.7687117"><ele>721.0</ele><time>2026-05-03T12:02:49.752Z</time></trkpt><trkpt lat="44.3460733" lon="10.7685967"><ele>722.6666666666667</ele><time>2026-05-03T12:02:50.753Z</time></trkpt><trkpt lat="44.3460683" lon="10.7684833"><ele>724.3333333333334</ele><time>2026-05-03T12:02:51.753Z</time></trkpt><trkpt lat="44.346055" lon="10.76837"><ele>726.0</ele><time>2026-05-03T12:02:52.752Z</time></trkpt><trkpt lat="44.3460317" lon="10.7682533"><ele>727.6666666666666</ele><time>2026-05-03T12:02:53.753Z</time></trkpt><trkpt lat="44.3460183" lon="10.7681633"><ele>729.3333333333333</ele><time>2026-05-03T12:02:54.753Z</time></trkpt><trkpt lat="44.34602" lon="10.76806"><ele>731.0</ele><time>2026-05-03T12:02:56.753Z</time></trkpt><trkpt lat="44.346025" lon="10.767965"><ele>731.0</ele><time>2026-05-03T12:03:47.752Z</time></trkpt><trkpt lat="44.346035" lon="10.767835"><ele>731.0</ele><time>2026-05-03T12:03:49.753Z</time></trkpt><trkpt lat="44.3460267" lon="10.7677333"><ele>731.0</ele><time>2026-05-03T12:03:51.753Z</time></trkpt><trkpt lat="44.346045" lon="10.767545"><ele>731.0</ele><time>2026-05-03T12:04:00.753Z</time></trkpt><trkpt lat="44.34608" lon="10.76739"><ele>731.0</ele><time>2026-05-03T12:04:02.753Z</time></trkpt><trkpt lat="44.34609" lon="10.7672583"><ele>731.1666666666666</ele><time>2026-05-03T12:04:04.753Z</time></trkpt><trkpt lat="44.3460517" lon="10.7671717"><ele>731.3333333333333</ele><time>2026-05-03T12:04:06.753Z</time></trkpt><trkpt lat="44.34593" lon="10.767105"><ele>731.5</ele><time>2026-05-03T12:04:08.753Z</time></trkpt><trkpt lat="44.3458617" lon="10.7670783"><ele>731.6666666666666</ele><time>2026-05-03T12:04:09.752Z</time></trkpt><trkpt lat="44.345795" lon="10.7670583"><ele>731.8333333333334</ele><time>2026-05-03T12:04:10.753Z</time></trkpt><trkpt lat="44.3457217" lon="10.767035"><ele>732.0</ele><time>2026-05-03T12:04:11.753Z</time></trkpt><trkpt lat="44.3456433" lon="10.7670067"><ele>732.0</ele><time>2026-05-03T12:04:12.753Z</time></trkpt><trkpt lat="44.34556" lon="10.7669667"><ele>732.0</ele><time>2026-05-03T12:04:13.753Z</time></trkpt><trkpt lat="44.3454733" lon="10.7669183"><ele>732.0</ele><time>2026-05-03T12:04:14.753Z</time></trkpt><trkpt lat="44.3453867" lon="10.7668567"><ele>732.0</ele><time>2026-05-03T12:04:15.753Z</time></trkpt><trkpt lat="44.34529" lon="10.7667683"><ele>732.0</ele><time>2026-05-03T12:04:16.752Z</time></trkpt><trkpt lat="44.345195" lon="10.7666833"><ele>729.8</ele><time>2026-05-03T12:04:17.752Z</time></trkpt><trkpt lat="44.3451033" lon="10.7666"><ele>727.6</ele><time>2026-05-03T12:04:18.753Z</time></trkpt><trkpt lat="44.345005" lon="10.7665133"><ele>725.4</ele><time>2026-05-03T12:04:19.753Z</time></trkpt><trkpt lat="44.3449183" lon="10.7664333"><ele>723.1999999999999</ele><time>2026-05-03T12:04:20.753Z</time></trkpt><trkpt lat="44.3448317" lon="10.7663567"><ele>721.0</ele><time>2026-05-03T12:04:21.753Z</time></trkpt><trkpt lat="44.3447467" lon="10.7663"><ele>719.75</ele><time>2026-05-03T12:04:22.753Z</time></trkpt><trkpt lat="44.34465" lon="10.766245"><ele>718.5</ele><time>2026-05-03T12:04:23.753Z</time></trkpt><trkpt lat="44.3445367" lon="10.7662183"><ele>717.25</ele><time>2026-05-03T12:04:24.752Z</time></trkpt><trkpt lat="44.34441" lon="10.7661983"><ele>716.0</ele><time>2026-05-03T12:04:25.753Z</time></trkpt><trkpt lat="44.34428" lon="10.7661733"><ele>716.0</ele><time>2026-05-03T12:04:26.753Z</time></trkpt><trkpt lat="44.3441467" lon="10.7661517"><ele>716.0</ele><time>2026-05-03T12:04:27.753Z</time></trkpt><trkpt lat="44.3440217" lon="10.766125"><ele>716.0</ele><time>2026-05-03T12:04:28.753Z</time></trkpt><trkpt lat="44.3438967" lon="10.76609"><ele>716.0</ele><time>2026-05-03T12:04:29.753Z</time></trkpt><trkpt lat="44.3438017" lon="10.7660383"><ele>714.5</ele><time>2026-05-03T12:04:30.752Z</time></trkpt><trkpt lat="44.3437283" lon="10.7659717"><ele>713.0</ele><time>2026-05-03T12:04:31.753Z</time></trkpt><trkpt lat="44.343665" lon="10.7658883"><ele>711.5</ele><time>2026-05-03T12:04:32.753Z</time></trkpt><trkpt lat="44.3436167" lon="10.7657917"><ele>710.0</ele><time>2026-05-03T12:04:33.753Z</time></trkpt><trkpt lat="44.3435833" lon="10.7656817"><ele>708.5</ele><time>2026-05-03T12:04:34.753Z</time></trkpt><trkpt lat="44.34354" lon="10.7655667"><ele>707.0</ele><time>2026-05-03T12:04:35.753Z</time></trkpt><trkpt lat="44.3434783" lon="10.7654767"><ele>707.0</ele><time>2026-05-03T12:04:36.753Z</time></trkpt><trkpt lat="44.3434167" lon="10.7653933"><ele>707.0</ele><time>2026-05-03T12:04:37.753Z</time></trkpt><trkpt lat="44.3433617" lon="10.7652867"><ele>707.0</ele><time>2026-05-03T12:04:38.752Z</time></trkpt><trkpt lat="44.3433217" lon="10.7651717"><ele>707.0</ele><time>2026-05-03T12:04:39.752Z</time></trkpt><trkpt lat="44.34329" lon="10.7650333"><ele>707.0</ele><time>2026-05-03T12:04:40.753Z</time></trkpt><trkpt lat="44.343255" lon="10.7649083"><ele>706.4000000000001</ele><time>2026-05-03T12:04:41.753Z</time></trkpt><trkpt lat="44.343205" lon="10.764795"><ele>705.8000000000001</ele><time>2026-05-03T12:04:42.753Z</time></trkpt><trkpt lat="44.3431383" lon="10.764695"><ele>705.2</ele><time>2026-05-03T12:04:43.753Z</time></trkpt><trkpt lat="44.3430617" lon="10.764605"><ele>704.6</ele><time>2026-05-03T12:04:44.753Z</time></trkpt><trkpt lat="44.3429667" lon="10.7645283"><ele>704.0</ele><time>2026-05-03T12:04:45.753Z</time></trkpt><trkpt lat="44.3428583" lon="10.7644533"><ele>704.0</ele><time>2026-05-03T12:04:46.753Z</time></trkpt><trkpt lat="44.3427417" lon="10.7644"><ele>704.0</ele><time>2026-05-03T12:04:47.753Z</time></trkpt><trkpt lat="44.3426167" lon="10.7643617"><ele>704.0</ele><time>2026-05-03T12:04:48.753Z</time></trkpt><trkpt lat="44.3424783" lon="10.76431"><ele>704.0</ele><time>2026-05-03T12:04:49.753Z</time></trkpt><trkpt lat="44.3423467" lon="10.764235"><ele>701.6</ele><time>2026-05-03T12:04:50.753Z</time></trkpt><trkpt lat="44.3422417" lon="10.76413"><ele>699.2</ele><time>2026-05-03T12:04:51.753Z</time></trkpt><trkpt lat="44.34217" lon="10.7640167"><ele>696.8000000000001</ele><time>2026-05-03T12:04:52.753Z</time></trkpt><trkpt lat="44.342125" lon="10.763915"><ele>694.4000000000001</ele><time>2026-05-03T12:04:53.752Z</time></trkpt><trkpt lat="44.34209" lon="10.7638217"><ele>692.0</ele><time>2026-05-03T12:04:54.753Z</time></trkpt><trkpt lat="44.34204" lon="10.7637417"><ele>692.0</ele><time>2026-05-03T12:04:55.753Z</time></trkpt><trkpt lat="44.341965" lon="10.7636883"><ele>692.0</ele><time>2026-05-03T12:04:56.753Z</time></trkpt><trkpt lat="44.3418683" lon="10.7636317"><ele>692.0</ele><time>2026-05-03T12:04:57.753Z</time></trkpt><trkpt lat="44.3417467" lon="10.7635783"><ele>692.0</ele><time>2026-05-03T12:04:58.753Z</time></trkpt><trkpt lat="44.3416183" lon="10.7635283"><ele>691.25</ele><time>2026-05-03T12:04:59.753Z</time></trkpt><trkpt lat="44.3414883" lon="10.763475"><ele>690.5</ele><time>2026-05-03T12:05:00.752Z</time></trkpt><trkpt lat="44.3413683" lon="10.7633933"><ele>689.75</ele><time>2026-05-03T12:05:01.753Z</time></trkpt><trkpt lat="44.3412733" lon="10.7632767"><ele>689.0</ele><time>2026-05-03T12:05:02.753Z</time></trkpt><trkpt lat="44.341195" lon="10.76313"><ele>689.0</ele><time>2026-05-03T12:05:03.753Z</time></trkpt><trkpt lat="44.34112" lon="10.7629583"><ele>689.0</ele><time>2026-05-03T12:05:04.752Z</time></trkpt><trkpt lat="44.3410633" lon="10.7627783"><ele>689.0</ele><time>2026-05-03T12:05:05.752Z</time></trkpt><trkpt lat="44.3410283" lon="10.7626117"><ele>689.0</ele><time>2026-05-03T12:05:06.753Z</time></trkpt><trkpt lat="44.3410233" lon="10.7624483"><ele>691.25</ele><time>2026-05-03T12:05:07.753Z</time></trkpt><trkpt lat="44.3410383" lon="10.7622933"><ele>693.5</ele><time>2026-05-03T12:05:08.753Z</time></trkpt><trkpt lat="44.3410533" lon="10.7621333"><ele>695.75</ele><time>2026-05-03T12:05:09.752Z</time></trkpt><trkpt lat="44.3410767" lon="10.7619683"><ele>698.0</ele><time>2026-05-03T12:05:10.753Z</time></trkpt><trkpt lat="44.3411367" lon="10.761825"><ele>698.25</ele><time>2026-05-03T12:05:11.752Z</time></trkpt><trkpt lat="44.34119" lon="10.76166"><ele>698.5</ele><time>2026-05-03T12:05:12.752Z</time></trkpt><trkpt lat="44.34126" lon="10.76147"><ele>698.75</ele><time>2026-05-03T12:05:13.752Z</time></trkpt><trkpt lat="44.341345" lon="10.7612833"><ele>699.0</ele><time>2026-05-03T12:05:14.753Z</time></trkpt><trkpt lat="44.3414217" lon="10.7611217"><ele>694.25</ele><time>2026-05-03T12:05:15.753Z</time></trkpt><trkpt lat="44.3414817" lon="10.7609667"><ele>689.5</ele><time>2026-05-03T12:05:16.753Z</time></trkpt><trkpt lat="44.3415167" lon="10.76081"><ele>684.75</ele><time>2026-05-03T12:05:17.753Z</time></trkpt><trkpt lat="44.3415417" lon="10.760645"><ele>680.0</ele><time>2026-05-03T12:05:18.753Z</time></trkpt><trkpt lat="44.34155" lon="10.7604567"><ele>680.0</ele><time>2026-05-03T12:05:19.752Z</time></trkpt><trkpt lat="44.3415583" lon="10.76027"><ele>680.0</ele><time>2026-05-03T12:05:20.753Z</time></trkpt><trkpt lat="44.3415717" lon="10.7600883"><ele>680.0</ele><time>2026-05-03T12:05:21.753Z</time></trkpt><trkpt lat="44.3416083" lon="10.7599183"><ele>680.0</ele><time>2026-05-03T12:05:22.753Z</time></trkpt><trkpt lat="44.3416583" lon="10.7597383"><ele>681.75</ele><time>2026-05-03T12:05:23.753Z</time></trkpt><trkpt lat="44.341715" lon="10.7595633"><ele>683.5</ele><time>2026-05-03T12:05:24.753Z</time></trkpt><trkpt lat="44.3417767" lon="10.7594"><ele>685.25</ele><time>2026-05-03T12:05:25.752Z</time></trkpt><trkpt lat="44.3418567" lon="10.7592417"><ele>687.0</ele><time>2026-05-03T12:05:26.753Z</time></trkpt><trkpt lat="44.3419367" lon="10.7591083"><ele>687.6</ele><time>2026-05-03T12:05:27.753Z</time></trkpt><trkpt lat="44.342005" lon="10.7589983"><ele>688.2</ele><time>2026-05-03T12:05:28.753Z</time></trkpt><trkpt lat="44.3420783" lon="10.7588633"><ele>688.8</ele><time>2026-05-03T12:05:29.753Z</time></trkpt><trkpt lat="44.3421367" lon="10.7587333"><ele>689.4</ele><time>2026-05-03T12:05:30.753Z</time></trkpt><trkpt lat="44.3421817" lon="10.75862"><ele>690.0</ele><time>2026-05-03T12:05:31.752Z</time></trkpt><trkpt lat="44.3422167" lon="10.7585133"><ele>690.0</ele><time>2026-05-03T12:05:32.753Z</time></trkpt><trkpt lat="44.342235" lon="10.75841"><ele>690.0</ele><time>2026-05-03T12:05:33.753Z</time></trkpt><trkpt lat="44.3422483" lon="10.7583017"><ele>690.0</ele><time>2026-05-03T12:05:34.753Z</time></trkpt><trkpt lat="44.3422483" lon="10.75818"><ele>690.0</ele><time>2026-05-03T12:05:35.753Z</time></trkpt><trkpt lat="44.34224" lon="10.7580767"><ele>690.0</ele><time>2026-05-03T12:05:36.753Z</time></trkpt><trkpt lat="44.34222" lon="10.75798"><ele>690.0</ele><time>2026-05-03T12:05:37.753Z</time></trkpt><trkpt lat="44.342185" lon="10.75789"><ele>690.4</ele><time>2026-05-03T12:05:38.753Z</time></trkpt><trkpt lat="44.34214" lon="10.7577933"><ele>690.8</ele><time>2026-05-03T12:05:39.752Z</time></trkpt><trkpt lat="44.3420917" lon="10.75768"><ele>691.2</ele><time>2026-05-03T12:05:40.753Z</time></trkpt><trkpt lat="44.3420467" lon="10.7575617"><ele>691.6</ele><time>2026-05-03T12:05:41.753Z</time></trkpt><trkpt lat="44.34201" lon="10.7574317"><ele>692.0</ele><time>2026-05-03T12:05:42.752Z</time></trkpt><trkpt lat="44.3419617" lon="10.7573067"><ele>692.0</ele><time>2026-05-03T12:05:43.753Z</time></trkpt><trkpt lat="44.3419017" lon="10.757195"><ele>692.0</ele><time>2026-05-03T12:05:44.753Z</time></trkpt><trkpt lat="44.3418367" lon="10.7570833"><ele>692.0</ele><time>2026-05-03T12:05:45.753Z</time></trkpt><trkpt lat="44.341775" lon="10.7569767"><ele>692.0</ele><time>2026-05-03T12:05:46.753Z</time></trkpt><trkpt lat="44.3417167" lon="10.7568717"><ele>692.0</ele><time>2026-05-03T12:05:47.753Z</time></trkpt><trkpt lat="44.3416533" lon="10.7567567"><ele>689.0</ele><time>2026-05-03T12:05:48.753Z</time></trkpt><trkpt lat="44.3415967" lon="10.7566417"><ele>686.0</ele><time>2026-05-03T12:05:49.753Z</time></trkpt><trkpt lat="44.3415483" lon="10.756525"><ele>683.0</ele><time>2026-05-03T12:05:50.753Z</time></trkpt><trkpt lat="44.3415233" lon="10.756395"><ele>680.0</ele><time>2026-05-03T12:05:51.753Z</time></trkpt><trkpt lat="44.3415283" lon="10.756265"><ele>677.0</ele><time>2026-05-03T12:05:52.753Z</time></trkpt><trkpt lat="44.3415383" lon="10.75611"><ele>674.8</ele><time>2026-05-03T12:05:53.753Z</time></trkpt><trkpt lat="44.341555" lon="10.755965"><ele>672.6</ele><time>2026-05-03T12:05:54.752Z</time></trkpt><trkpt lat="44.34157" lon="10.755825"><ele>670.4</ele><time>2026-05-03T12:05:55.752Z</time></trkpt><trkpt lat="44.3415567" lon="10.755685"><ele>668.1999999999999</ele><time>2026-05-03T12:05:56.753Z</time></trkpt><trkpt lat="44.3415283" lon="10.75554"><ele>666.0</ele><time>2026-05-03T12:05:57.752Z</time></trkpt><trkpt lat="44.3415067" lon="10.7553867"><ele>666.0</ele><time>2026-05-03T12:05:58.753Z</time></trkpt><trkpt lat="44.3414883" lon="10.7552167"><ele>666.0</ele><time>2026-05-03T12:05:59.753Z</time></trkpt><trkpt lat="44.34147" lon="10.7550467"><ele>666.0</ele><time>2026-05-03T12:06:00.753Z</time></trkpt><trkpt lat="44.34144" lon="10.75487"><ele>666.0</ele><time>2026-05-03T12:06:01.752Z</time></trkpt><trkpt lat="44.3413933" lon="10.754695"><ele>666.75</ele><time>2026-05-03T12:06:02.753Z</time></trkpt><trkpt lat="44.34134" lon="10.754515"><ele>667.5</ele><time>2026-05-03T12:06:03.753Z</time></trkpt><trkpt lat="44.3412917" lon="10.754335"><ele>668.25</ele><time>2026-05-03T12:06:04.753Z</time></trkpt><trkpt lat="44.3412467" lon="10.7541617"><ele>669.0</ele><time>2026-05-03T12:06:05.753Z</time></trkpt><trkpt lat="44.3411883" lon="10.7539883"><ele>667.6</ele><time>2026-05-03T12:06:06.753Z</time></trkpt><trkpt lat="44.3411417" lon="10.753835"><ele>666.2</ele><time>2026-05-03T12:06:07.753Z</time></trkpt><trkpt lat="44.341105" lon="10.75368"><ele>664.8000000000001</ele><time>2026-05-03T12:06:08.753Z</time></trkpt><trkpt lat="44.3410783" lon="10.753535"><ele>663.4000000000001</ele><time>2026-05-03T12:06:09.753Z</time></trkpt><trkpt lat="44.3410517" lon="10.753395"><ele>662.0</ele><time>2026-05-03T12:06:10.753Z</time></trkpt><trkpt lat="44.34102" lon="10.7532583"><ele>660.0</ele><time>2026-05-03T12:06:11.753Z</time></trkpt><trkpt lat="44.3409933" lon="10.7531233"><ele>658.0</ele><time>2026-05-03T12:06:12.753Z</time></trkpt><trkpt lat="44.3409667" lon="10.75299"><ele>656.0</ele><time>2026-05-03T12:06:13.752Z</time></trkpt><trkpt lat="44.3409417" lon="10.7528783"><ele>654.0</ele><time>2026-05-03T12:06:14.753Z</time></trkpt><trkpt lat="44.340925" lon="10.7527833"><ele>652.0</ele><time>2026-05-03T12:06:15.753Z</time></trkpt><trkpt lat="44.3409217" lon="10.75264"><ele>652.0</ele><time>2026-05-03T12:06:17.753Z</time></trkpt><trkpt lat="44.3409367" lon="10.7525517"><ele>652.0</ele><time>2026-05-03T12:07:08.752Z</time></trkpt><trkpt lat="44.3409967" lon="10.7526167"><ele>652.0</ele><time>2026-05-03T12:07:10.752Z</time></trkpt><trkpt lat="44.3410367" lon="10.7526917"><ele>652.0</ele><time>2026-05-03T12:07:11.752Z</time></trkpt><trkpt lat="44.3410833" lon="10.7527733"><ele>652.0</ele><time>2026-05-03T12:07:12.752Z</time></trkpt><trkpt lat="44.341185" lon="10.752835"><ele>652.0</ele><time>2026-05-03T12:07:14.752Z</time></trkpt><trkpt lat="44.3412483" lon="10.7528167"><ele>652.0</ele><time>2026-05-03T12:07:15.752Z</time></trkpt><trkpt lat="44.3413483" lon="10.752735"><ele>652.0</ele><time>2026-05-03T12:07:17.752Z</time></trkpt><trkpt lat="44.3414383" lon="10.7526367"><ele>652.0</ele><time>2026-05-03T12:07:19.752Z</time></trkpt><trkpt lat="44.3414883" lon="10.752475"><ele>652.0</ele><time>2026-05-03T12:07:21.752Z</time></trkpt><trkpt lat="44.341505" lon="10.7523717"><ele>652.0</ele><time>2026-05-03T12:07:22.752Z</time></trkpt><trkpt lat="44.3415183" lon="10.7522433"><ele>647.3333333333334</ele><time>2026-05-03T12:07:23.752Z</time></trkpt><trkpt lat="44.3415217" lon="10.75211"><ele>642.6666666666667</ele><time>2026-05-03T12:07:24.751Z</time></trkpt><trkpt lat="44.3415167" lon="10.7519783"><ele>638.0</ele><time>2026-05-03T12:07:25.752Z</time></trkpt><trkpt lat="44.3415" lon="10.7518633"><ele>633.3333333333334</ele><time>2026-05-03T12:07:26.752Z</time></trkpt><trkpt lat="44.3414983" lon="10.7517533"><ele>628.6666666666666</ele><time>2026-05-03T12:07:27.752Z</time></trkpt><trkpt lat="44.34152" lon="10.7516567"><ele>624.0</ele><time>2026-05-03T12:07:28.752Z</time></trkpt><trkpt lat="44.3415717" lon="10.7515867"><ele>623.0</ele><time>2026-05-03T12:07:29.751Z</time></trkpt><trkpt lat="44.3416533" lon="10.751535"><ele>622.0</ele><time>2026-05-03T12:07:30.752Z</time></trkpt><trkpt lat="44.34182" lon="10.7514467"><ele>621.0</ele><time>2026-05-03T12:07:32.752Z</time></trkpt><trkpt lat="44.3418817" lon="10.7513767"><ele>620.0</ele><time>2026-05-03T12:07:33.752Z</time></trkpt><trkpt lat="44.3419283" lon="10.7512883"><ele>619.0</ele><time>2026-05-03T12:07:34.752Z</time></trkpt><trkpt lat="44.3419717" lon="10.751185"><ele>619.0</ele><time>2026-05-03T12:07:35.752Z</time></trkpt><trkpt lat="44.3420267" lon="10.7510883"><ele>619.0</ele><time>2026-05-03T12:07:36.751Z</time></trkpt><trkpt lat="44.342095" lon="10.7510117"><ele>619.0</ele><time>2026-05-03T12:07:37.752Z</time></trkpt><trkpt lat="44.34216" lon="10.7509767"><ele>619.0</ele><time>2026-05-03T12:07:38.751Z</time></trkpt><trkpt lat="44.3422517" lon="10.7509633"><ele>619.0</ele><time>2026-05-03T12:07:39.752Z</time></trkpt><trkpt lat="44.342345" lon="10.7509383"><ele>619.0</ele><time>2026-05-03T12:07:40.751Z</time></trkpt><trkpt lat="44.3424383" lon="10.750905"><ele>616.0</ele><time>2026-05-03T12:07:41.752Z</time></trkpt><trkpt lat="44.3425317" lon="10.7508667"><ele>613.0</ele><time>2026-05-03T12:07:42.752Z</time></trkpt><trkpt lat="44.3426333" lon="10.75083"><ele>610.0</ele><time>2026-05-03T12:07:43.752Z</time></trkpt><trkpt lat="44.3427317" lon="10.7508133"><ele>607.0</ele><time>2026-05-03T12:07:44.751Z</time></trkpt><trkpt lat="44.342835" lon="10.7508133"><ele>604.0</ele><time>2026-05-03T12:07:45.751Z</time></trkpt><trkpt lat="44.3429483" lon="10.75083"><ele>601.4</ele><time>2026-05-03T12:07:46.752Z</time></trkpt><trkpt lat="44.3430567" lon="10.7508617"><ele>598.8</ele><time>2026-05-03T12:07:47.751Z</time></trkpt><trkpt lat="44.3431683" lon="10.75088"><ele>596.2</ele><time>2026-05-03T12:07:48.752Z</time></trkpt><trkpt lat="44.3432783" lon="10.750885"><ele>593.6</ele><time>2026-05-03T12:07:49.752Z</time></trkpt><trkpt lat="44.3433817" lon="10.7508717"><ele>591.0</ele><time>2026-05-03T12:07:50.752Z</time></trkpt><trkpt lat="44.3434683" lon="10.7508367"><ele>591.0</ele><time>2026-05-03T12:07:51.752Z</time></trkpt><trkpt lat="44.3435983" lon="10.7508217"><ele>591.0</ele><time>2026-05-03T12:07:53.751Z</time></trkpt><trkpt lat="44.3436617" lon="10.7508533"><ele>591.0</ele><time>2026-05-03T12:07:54.752Z</time></trkpt><trkpt lat="44.3437467" lon="10.75095"><ele>591.0</ele><time>2026-05-03T12:07:56.752Z</time></trkpt><trkpt lat="44.34378" lon="10.7510333"><ele>591.0</ele><time>2026-05-03T12:07:58.751Z</time></trkpt><trkpt lat="44.3438" lon="10.7509433"><ele>591.0</ele><time>2026-05-03T12:08:03.752Z</time></trkpt><trkpt lat="44.3437667" lon="10.750865"><ele>591.0</ele><time>2026-05-03T12:08:04.752Z</time></trkpt><trkpt lat="44.3437067" lon="10.7507583"><ele>591.0</ele><time>2026-05-03T12:08:05.751Z</time></trkpt><trkpt lat="44.3436317" lon="10.7506417"><ele>591.0</ele><time>2026-05-03T12:08:06.752Z</time></trkpt><trkpt lat="44.34355" lon="10.75052"><ele>591.0</ele><time>2026-05-03T12:08:07.752Z</time></trkpt><trkpt lat="44.34347" lon="10.7503917"><ele>591.0</ele><time>2026-05-03T12:08:08.752Z</time></trkpt><trkpt lat="44.3433733" lon="10.75027"><ele>591.0</ele><time>2026-05-03T12:08:09.752Z</time></trkpt><trkpt lat="44.3432617" lon="10.750155"><ele>591.0</ele><time>2026-05-03T12:08:10.751Z</time></trkpt><trkpt lat="44.34314" lon="10.7500467"><ele>591.0</ele><time>2026-05-03T12:08:11.752Z</time></trkpt><trkpt lat="44.3430067" lon="10.7499467"><ele>590.3333333333334</ele><time>2026-05-03T12:08:12.752Z</time></trkpt><trkpt lat="44.3428717" lon="10.7498367"><ele>589.6666666666667</ele><time>2026-05-03T12:08:13.751Z</time></trkpt><trkpt lat="44.3427333" lon="10.7497267"><ele>589.0</ele><time>2026-05-03T12:08:14.751Z</time></trkpt><trkpt lat="44.3425983" lon="10.7496233"><ele>589.0</ele><time>2026-05-03T12:08:15.752Z</time></trkpt><trkpt lat="44.3424817" lon="10.74953"><ele>589.0</ele><time>2026-05-03T12:08:16.752Z</time></trkpt><trkpt lat="44.342345" lon="10.7494517"><ele>589.0</ele><time>2026-05-03T12:08:17.752Z</time></trkpt><trkpt lat="44.3421983" lon="10.7494167"><ele>589.0</ele><time>2026-05-03T12:08:18.752Z</time></trkpt><trkpt lat="44.3420483" lon="10.7493883"><ele>584.3333333333334</ele><time>2026-05-03T12:08:19.752Z</time></trkpt><trkpt lat="44.3418967" lon="10.7493733"><ele>579.6666666666666</ele><time>2026-05-03T12:08:20.752Z</time></trkpt><trkpt lat="44.341745" lon="10.74935"><ele>575.0</ele><time>2026-05-03T12:08:21.751Z</time></trkpt><trkpt lat="44.3415883" lon="10.7493283"><ele>575.0</ele><time>2026-05-03T12:08:22.752Z</time></trkpt><trkpt lat="44.34144" lon="10.7492983"><ele>575.0</ele><time>2026-05-03T12:08:23.752Z</time></trkpt><trkpt lat="44.34117" lon="10.74922"><ele>575.0</ele><time>2026-05-03T12:08:25.752Z</time></trkpt><trkpt lat="44.3410417" lon="10.749145"><ele>576.5</ele><time>2026-05-03T12:08:26.752Z</time></trkpt><trkpt lat="44.3409267" lon="10.7490383"><ele>578.0</ele><time>2026-05-03T12:08:27.751Z</time></trkpt><trkpt lat="44.34081" lon="10.7489283"><ele>579.5</ele><time>2026-05-03T12:08:28.752Z</time></trkpt><trkpt lat="44.3406967" lon="10.7488183"><ele>581.0</ele><time>2026-05-03T12:08:29.752Z</time></trkpt><trkpt lat="44.3405917" lon="10.74871"><ele>584.5</ele><time>2026-05-03T12:08:30.752Z</time></trkpt><trkpt lat="44.340505" lon="10.7485817"><ele>588.0</ele><time>2026-05-03T12:08:31.752Z</time></trkpt><trkpt lat="44.34045" lon="10.748435"><ele>591.5</ele><time>2026-05-03T12:08:32.752Z</time></trkpt><trkpt lat="44.3404417" lon="10.7482667"><ele>595.0</ele><time>2026-05-03T12:08:33.751Z</time></trkpt><trkpt lat="44.34047" lon="10.74811"><ele>589.3333333333334</ele><time>2026-05-03T12:08:34.752Z</time></trkpt><trkpt lat="44.340605" lon="10.7478083"><ele>583.6666666666666</ele><time>2026-05-03T12:08:36.751Z</time></trkpt><trkpt lat="44.3406717" lon="10.7476483"><ele>578.0</ele><time>2026-05-03T12:08:37.752Z</time></trkpt><trkpt lat="44.3407183" lon="10.7474733"><ele>578.0</ele><time>2026-05-03T12:08:38.751Z</time></trkpt><trkpt lat="44.3407433" lon="10.747295"><ele>578.0</ele><time>2026-05-03T12:08:39.752Z</time></trkpt><trkpt lat="44.3407417" lon="10.7471017"><ele>578.0</ele><time>2026-05-03T12:08:40.752Z</time></trkpt><trkpt lat="44.3407333" lon="10.7468967"><ele>578.0</ele><time>2026-05-03T12:08:41.751Z</time></trkpt><trkpt lat="44.3407167" lon="10.7466817"><ele>577.25</ele><time>2026-05-03T12:08:42.752Z</time></trkpt><trkpt lat="44.3407" lon="10.7464883"><ele>576.5</ele><time>2026-05-03T12:08:43.752Z</time></trkpt><trkpt lat="44.3406683" lon="10.7463083"><ele>575.75</ele><time>2026-05-03T12:08:44.752Z</time></trkpt><trkpt lat="44.3406183" lon="10.7461583"><ele>575.0</ele><time>2026-05-03T12:08:45.751Z</time></trkpt><trkpt lat="44.34053" lon="10.7460133"><ele>575.0</ele><time>2026-05-03T12:08:46.752Z</time></trkpt><trkpt lat="44.340425" lon="10.7459017"><ele>575.0</ele><time>2026-05-03T12:08:47.752Z</time></trkpt><trkpt lat="44.3402933" lon="10.7458033"><ele>575.0</ele><time>2026-05-03T12:08:48.752Z</time></trkpt><trkpt lat="44.3401433" lon="10.7457267"><ele>575.0</ele><time>2026-05-03T12:08:49.751Z</time></trkpt><trkpt lat="44.3399867" lon="10.745645"><ele>575.0</ele><time>2026-05-03T12:08:50.752Z</time></trkpt><trkpt lat="44.3398383" lon="10.74555"><ele>575.0</ele><time>2026-05-03T12:08:51.751Z</time></trkpt><trkpt lat="44.3396883" lon="10.7454633"><ele>575.0</ele><time>2026-05-03T12:08:52.752Z</time></trkpt><trkpt lat="44.3394067" lon="10.745285"><ele>574.0</ele><time>2026-05-03T12:08:54.752Z</time></trkpt><trkpt lat="44.3392833" lon="10.7451667"><ele>573.0</ele><time>2026-05-03T12:08:55.752Z</time></trkpt><trkpt lat="44.3391767" lon="10.7449967"><ele>572.0</ele><time>2026-05-03T12:08:56.752Z</time></trkpt><trkpt lat="44.3390917" lon="10.7448067"><ele>572.0</ele><time>2026-05-03T12:08:57.752Z</time></trkpt><trkpt lat="44.3390333" lon="10.7445983"><ele>572.0</ele><time>2026-05-03T12:08:58.752Z</time></trkpt><trkpt lat="44.3390033" lon="10.7444017"><ele>572.0</ele><time>2026-05-03T12:08:59.751Z</time></trkpt><trkpt lat="44.3389617" lon="10.7442217"><ele>572.0</ele><time>2026-05-03T12:09:00.751Z</time></trkpt><trkpt lat="44.3388817" lon="10.74406"><ele>573.5</ele><time>2026-05-03T12:09:01.751Z</time></trkpt><trkpt lat="44.3387833" lon="10.7439033"><ele>575.0</ele><time>2026-05-03T12:09:02.752Z</time></trkpt><trkpt lat="44.3386033" lon="10.743535"><ele>575.0</ele><time>2026-05-03T12:09:04.751Z</time></trkpt><trkpt lat="44.33853" lon="10.743335"><ele>575.0</ele><time>2026-05-03T12:09:05.752Z</time></trkpt><trkpt lat="44.338445" lon="10.743135"><ele>575.0</ele><time>2026-05-03T12:09:06.752Z</time></trkpt><trkpt lat="44.33835" lon="10.7429483"><ele>575.0</ele><time>2026-05-03T12:09:07.752Z</time></trkpt><trkpt lat="44.3382483" lon="10.7427633"><ele>575.0</ele><time>2026-05-03T12:09:08.752Z</time></trkpt><trkpt lat="44.338145" lon="10.74257"><ele>575.0</ele><time>2026-05-03T12:09:09.752Z</time></trkpt><trkpt lat="44.3380317" lon="10.74239"><ele>575.3333333333333</ele><time>2026-05-03T12:09:10.751Z</time></trkpt><trkpt lat="44.337915" lon="10.7422467"><ele>575.6666666666666</ele><time>2026-05-03T12:09:11.752Z</time></trkpt><trkpt lat="44.33779" lon="10.7421033"><ele>576.0</ele><time>2026-05-03T12:09:12.752Z</time></trkpt><trkpt lat="44.3376617" lon="10.741965"><ele>571.75</ele><time>2026-05-03T12:09:13.752Z</time></trkpt><trkpt lat="44.33754" lon="10.7418367"><ele>567.5</ele><time>2026-05-03T12:09:14.752Z</time></trkpt><trkpt lat="44.3374367" lon="10.7417117"><ele>563.25</ele><time>2026-05-03T12:09:15.751Z</time></trkpt><trkpt lat="44.33734" lon="10.7415867"><ele>559.0</ele><time>2026-05-03T12:09:16.752Z</time></trkpt><trkpt lat="44.3372533" lon="10.741465"><ele>559.2</ele><time>2026-05-03T12:09:17.752Z</time></trkpt><trkpt lat="44.337175" lon="10.741345"><ele>559.4</ele><time>2026-05-03T12:09:18.752Z</time></trkpt><trkpt lat="44.3371083" lon="10.74124"><ele>559.6</ele><time>2026-05-03T12:09:19.752Z</time></trkpt><trkpt lat="44.337035" lon="10.741165"><ele>559.8</ele><time>2026-05-03T12:09:20.752Z</time></trkpt><trkpt lat="44.3369517" lon="10.7411"><ele>560.0</ele><time>2026-05-03T12:09:21.752Z</time></trkpt><trkpt lat="44.3368467" lon="10.7410433"><ele>560.0</ele><time>2026-05-03T12:09:22.751Z</time></trkpt><trkpt lat="44.336745" lon="10.7409983"><ele>560.0</ele><time>2026-05-03T12:09:23.752Z</time></trkpt><trkpt lat="44.336645" lon="10.7409617"><ele>560.0</ele><time>2026-05-03T12:09:24.752Z</time></trkpt><trkpt lat="44.3365483" lon="10.7409133"><ele>560.0</ele><time>2026-05-03T12:09:25.751Z</time></trkpt><trkpt lat="44.3364733" lon="10.7408617"><ele>560.0</ele><time>2026-05-03T12:09:26.752Z</time></trkpt><trkpt lat="44.336405" lon="10.7407967"><ele>561.3333333333333</ele><time>2026-05-03T12:09:27.751Z</time></trkpt><trkpt lat="44.336345" lon="10.740735"><ele>562.6666666666666</ele><time>2026-05-03T12:09:28.752Z</time></trkpt><trkpt lat="44.3362633" lon="10.7406617"><ele>564.0</ele><time>2026-05-03T12:09:30.751Z</time></trkpt><trkpt lat="44.3361967" lon="10.740575"><ele>565.3333333333334</ele><time>2026-05-03T12:10:56.751Z</time></trkpt><trkpt lat="44.3361417" lon="10.74051"><ele>566.6666666666667</ele><time>2026-05-03T12:10:57.752Z</time></trkpt><trkpt lat="44.3360667" lon="10.7404283"><ele>568.0</ele><time>2026-05-03T12:10:58.752Z</time></trkpt><trkpt lat="44.3359767" lon="10.74036"><ele>568.0</ele><time>2026-05-03T12:10:59.752Z</time></trkpt><trkpt lat="44.3358617" lon="10.7402967"><ele>568.0</ele><time>2026-05-03T12:11:00.752Z</time></trkpt><trkpt lat="44.3357417" lon="10.740245"><ele>568.0</ele><time>2026-05-03T12:11:01.751Z</time></trkpt><trkpt lat="44.3356117" lon="10.740245"><ele>568.0</ele><time>2026-05-03T12:11:02.752Z</time></trkpt><trkpt lat="44.33548" lon="10.740285"><ele>569.0</ele><time>2026-05-03T12:11:03.752Z</time></trkpt><trkpt lat="44.3353467" lon="10.7403567"><ele>570.0</ele><time>2026-05-03T12:11:04.752Z</time></trkpt><trkpt lat="44.3352367" lon="10.7404117"><ele>571.0</ele><time>2026-05-03T12:11:05.752Z</time></trkpt><trkpt lat="44.3351367" lon="10.74045"><ele>572.0</ele><time>2026-05-03T12:11:06.751Z</time></trkpt><trkpt lat="44.3350417" lon="10.74046"><ele>572.0</ele><time>2026-05-03T12:11:07.752Z</time></trkpt><trkpt lat="44.3349717" lon="10.7404233"><ele>572.0</ele><time>2026-05-03T12:11:08.751Z</time></trkpt><trkpt lat="44.3349167" lon="10.74026"><ele>572.0</ele><time>2026-05-03T12:11:10.752Z</time></trkpt><trkpt lat="44.3349283" lon="10.7401617"><ele>572.0</ele><time>2026-05-03T12:11:11.752Z</time></trkpt><trkpt lat="44.334965" lon="10.7400417"><ele>572.0</ele><time>2026-05-03T12:11:12.752Z</time></trkpt><trkpt lat="44.3350383" lon="10.7399067"><ele>571.75</ele><time>2026-05-03T12:11:13.752Z</time></trkpt><trkpt lat="44.3351183" lon="10.7397567"><ele>571.5</ele><time>2026-05-03T12:11:14.752Z</time></trkpt><trkpt lat="44.3351733" lon="10.7396167"><ele>571.25</ele><time>2026-05-03T12:11:15.752Z</time></trkpt><trkpt lat="44.335215" lon="10.7394783"><ele>571.0</ele><time>2026-05-03T12:11:16.752Z</time></trkpt><trkpt lat="44.3352267" lon="10.7393233"><ele>571.0</ele><time>2026-05-03T12:11:17.752Z</time></trkpt><trkpt lat="44.3352083" lon="10.7391433"><ele>571.0</ele><time>2026-05-03T12:11:18.752Z</time></trkpt><trkpt lat="44.3351667" lon="10.7389633"><ele>571.0</ele><time>2026-05-03T12:11:19.751Z</time></trkpt><trkpt lat="44.3350983" lon="10.73878"><ele>571.0</ele><time>2026-05-03T12:11:20.752Z</time></trkpt><trkpt lat="44.33501" lon="10.738605"><ele>571.3333333333334</ele><time>2026-05-03T12:11:21.752Z</time></trkpt><trkpt lat="44.3349067" lon="10.7384317"><ele>571.6666666666666</ele><time>2026-05-03T12:11:22.752Z</time></trkpt><trkpt lat="44.3348" lon="10.738245"><ele>572.0</ele><time>2026-05-03T12:11:23.751Z</time></trkpt><trkpt lat="44.3346983" lon="10.7380533"><ele>573.25</ele><time>2026-05-03T12:11:24.751Z</time></trkpt><trkpt lat="44.334605" lon="10.7378967"><ele>574.5</ele><time>2026-05-03T12:11:25.75Z</time></trkpt><trkpt lat="44.334525" lon="10.7377533"><ele>575.75</ele><time>2026-05-03T12:11:26.751Z</time></trkpt><trkpt lat="44.3344567" lon="10.73762"><ele>577.0</ele><time>2026-05-03T12:11:27.751Z</time></trkpt><trkpt lat="44.3343817" lon="10.7375267"><ele>577.0</ele><time>2026-05-03T12:11:28.751Z</time></trkpt><trkpt lat="44.3343133" lon="10.737465"><ele>577.0</ele><time>2026-05-03T12:11:29.751Z</time></trkpt><trkpt lat="44.3342417" lon="10.737465"><ele>577.0</ele><time>2026-05-03T12:11:30.751Z</time></trkpt><trkpt lat="44.3341767" lon="10.7375033"><ele>577.0</ele><time>2026-05-03T12:11:31.751Z</time></trkpt><trkpt lat="44.3341217" lon="10.7375867"><ele>577.0</ele><time>2026-05-03T12:11:32.75Z</time></trkpt><trkpt lat="44.3340967" lon="10.7377267"><ele>577.0</ele><time>2026-05-03T12:11:33.751Z</time></trkpt><trkpt lat="44.3341017" lon="10.7379033"><ele>579.5</ele><time>2026-05-03T12:11:34.751Z</time></trkpt><trkpt lat="44.3341133" lon="10.7381117"><ele>582.0</ele><time>2026-05-03T12:11:35.75Z</time></trkpt><trkpt lat="44.334115" lon="10.738325"><ele>584.5</ele><time>2026-05-03T12:11:36.75Z</time></trkpt><trkpt lat="44.334115" lon="10.73853"><ele>587.0</ele><time>2026-05-03T12:11:37.751Z</time></trkpt><trkpt lat="44.3341167" lon="10.7387367"><ele>587.25</ele><time>2026-05-03T12:11:38.751Z</time></trkpt><trkpt lat="44.3341133" lon="10.73893"><ele>587.5</ele><time>2026-05-03T12:11:39.751Z</time></trkpt><trkpt lat="44.334115" lon="10.7391233"><ele>587.75</ele><time>2026-05-03T12:11:40.75Z</time></trkpt><trkpt lat="44.33411" lon="10.7392833"><ele>588.0</ele><time>2026-05-03T12:11:41.75Z</time></trkpt><trkpt lat="44.3341" lon="10.7394233"><ele>588.0</ele><time>2026-05-03T12:11:42.751Z</time></trkpt><trkpt lat="44.334065" lon="10.7395467"><ele>588.0</ele><time>2026-05-03T12:11:43.751Z</time></trkpt><trkpt lat="44.3340017" lon="10.7396383"><ele>588.0</ele><time>2026-05-03T12:11:44.751Z</time></trkpt><trkpt lat="44.3339283" lon="10.7396933"><ele>588.0</ele><time>2026-05-03T12:11:45.751Z</time></trkpt><trkpt lat="44.3338283" lon="10.7397"><ele>588.0</ele><time>2026-05-03T12:11:46.751Z</time></trkpt><trkpt lat="44.3337283" lon="10.73965"><ele>591.0</ele><time>2026-05-03T12:11:47.751Z</time></trkpt><trkpt lat="44.33362" lon="10.7395583"><ele>594.0</ele><time>2026-05-03T12:11:48.751Z</time></trkpt><trkpt lat="44.3335217" lon="10.7394267"><ele>597.0</ele><time>2026-05-03T12:11:49.751Z</time></trkpt><trkpt lat="44.333425" lon="10.7392817"><ele>600.0</ele><time>2026-05-03T12:11:50.751Z</time></trkpt><trkpt lat="44.3333217" lon="10.739125"><ele>600.25</ele><time>2026-05-03T12:11:51.751Z</time></trkpt><trkpt lat="44.3332183" lon="10.7389833"><ele>600.5</ele><time>2026-05-03T12:11:52.751Z</time></trkpt><trkpt lat="44.3331133" lon="10.7388483"><ele>600.75</ele><time>2026-05-03T12:11:53.751Z</time></trkpt><trkpt lat="44.3330017" lon="10.7387233"><ele>601.0</ele><time>2026-05-03T12:11:54.751Z</time></trkpt><trkpt lat="44.3328783" lon="10.7386117"><ele>603.75</ele><time>2026-05-03T12:11:55.751Z</time></trkpt><trkpt lat="44.3327567" lon="10.7385"><ele>606.5</ele><time>2026-05-03T12:11:56.751Z</time></trkpt><trkpt lat="44.3326433" lon="10.7383917"><ele>609.25</ele><time>2026-05-03T12:11:57.751Z</time></trkpt><trkpt lat="44.33254" lon="10.7383033"><ele>612.0</ele><time>2026-05-03T12:11:58.751Z</time></trkpt><trkpt lat="44.33245" lon="10.7382483"><ele>612.0</ele><time>2026-05-03T12:11:59.751Z</time></trkpt><trkpt lat="44.3323467" lon="10.738235"><ele>612.0</ele><time>2026-05-03T12:12:00.751Z</time></trkpt><trkpt lat="44.3322367" lon="10.7382683"><ele>612.0</ele><time>2026-05-03T12:12:01.751Z</time></trkpt><trkpt lat="44.332125" lon="10.738345"><ele>612.0</ele><time>2026-05-03T12:12:02.751Z</time></trkpt><trkpt lat="44.3320167" lon="10.7384367"><ele>614.4</ele><time>2026-05-03T12:12:03.751Z</time></trkpt><trkpt lat="44.3319217" lon="10.738535"><ele>616.8000000000001</ele><time>2026-05-03T12:12:04.751Z</time></trkpt><trkpt lat="44.33185" lon="10.7386333"><ele>619.2</ele><time>2026-05-03T12:12:05.75Z</time></trkpt><trkpt lat="44.3318033" lon="10.7387583"><ele>621.6</ele><time>2026-05-03T12:12:06.751Z</time></trkpt><trkpt lat="44.3317783" lon="10.7389083"><ele>624.0</ele><time>2026-05-03T12:12:07.751Z</time></trkpt><trkpt lat="44.331785" lon="10.739085"><ele>625.75</ele><time>2026-05-03T12:12:08.751Z</time></trkpt><trkpt lat="44.33182" lon="10.7392633"><ele>627.5</ele><time>2026-05-03T12:12:09.751Z</time></trkpt><trkpt lat="44.331885" lon="10.73944"><ele>629.25</ele><time>2026-05-03T12:12:10.751Z</time></trkpt><trkpt lat="44.3319533" lon="10.739615"><ele>631.0</ele><time>2026-05-03T12:12:11.751Z</time></trkpt><trkpt lat="44.33203" lon="10.739795"><ele>634.25</ele><time>2026-05-03T12:12:12.751Z</time></trkpt><trkpt lat="44.3320917" lon="10.7399717"><ele>637.5</ele><time>2026-05-03T12:12:13.751Z</time></trkpt><trkpt lat="44.3321383" lon="10.7401583"><ele>640.75</ele><time>2026-05-03T12:12:14.75Z</time></trkpt><trkpt lat="44.3321617" lon="10.7403467"><ele>644.0</ele><time>2026-05-03T12:12:15.75Z</time></trkpt><trkpt lat="44.332175" lon="10.740535"><ele>642.0</ele><time>2026-05-03T12:12:16.751Z</time></trkpt><trkpt lat="44.33219" lon="10.7407267"><ele>640.0</ele><time>2026-05-03T12:12:17.751Z</time></trkpt><trkpt lat="44.33222" lon="10.7409183"><ele>638.0</ele><time>2026-05-03T12:12:18.751Z</time></trkpt><trkpt lat="44.3322783" lon="10.7411083"><ele>636.0</ele><time>2026-05-03T12:12:19.751Z</time></trkpt><trkpt lat="44.3323433" lon="10.74128"><ele>636.0</ele><time>2026-05-03T12:12:20.751Z</time></trkpt><trkpt lat="44.332405" lon="10.7414367"><ele>636.0</ele><time>2026-05-03T12:12:21.75Z</time></trkpt><trkpt lat="44.3324683" lon="10.7415717"><ele>636.0</ele><time>2026-05-03T12:12:22.751Z</time></trkpt><trkpt lat="44.3325217" lon="10.7416867"><ele>636.0</ele><time>2026-05-03T12:12:23.751Z</time></trkpt><trkpt lat="44.3325517" lon="10.7417967"><ele>636.0</ele><time>2026-05-03T12:12:24.751Z</time></trkpt><trkpt lat="44.3325633" lon="10.7419133"><ele>638.25</ele><time>2026-05-03T12:12:25.75Z</time></trkpt><trkpt lat="44.3325517" lon="10.7420267"><ele>640.5</ele><time>2026-05-03T12:12:26.751Z</time></trkpt><trkpt lat="44.3325067" lon="10.7421367"><ele>642.75</ele><time>2026-05-03T12:12:27.751Z</time></trkpt><trkpt lat="44.33243" lon="10.7422833"><ele>645.0</ele><time>2026-05-03T12:12:28.751Z</time></trkpt><trkpt lat="44.3323317" lon="10.7424467"><ele>645.0</ele><time>2026-05-03T12:12:29.751Z</time></trkpt><trkpt lat="44.33224" lon="10.7425967"><ele>645.0</ele><time>2026-05-03T12:12:30.751Z</time></trkpt><trkpt lat="44.3321583" lon="10.7427383"><ele>645.0</ele><time>2026-05-03T12:12:31.751Z</time></trkpt><trkpt lat="44.3320867" lon="10.742845"><ele>645.0</ele><time>2026-05-03T12:12:32.751Z</time></trkpt><trkpt lat="44.3319967" lon="10.7429267"><ele>650.75</ele><time>2026-05-03T12:12:33.751Z</time></trkpt><trkpt lat="44.3318917" lon="10.7430117"><ele>656.5</ele><time>2026-05-03T12:12:34.751Z</time></trkpt><trkpt lat="44.3317767" lon="10.743085"><ele>662.25</ele><time>2026-05-03T12:12:35.75Z</time></trkpt><trkpt lat="44.3316517" lon="10.743155"><ele>668.0</ele><time>2026-05-03T12:12:36.751Z</time></trkpt><trkpt lat="44.3315233" lon="10.74321"><ele>668.0</ele><time>2026-05-03T12:12:37.75Z</time></trkpt><trkpt lat="44.3314233" lon="10.743255"><ele>668.0</ele><time>2026-05-03T12:12:38.751Z</time></trkpt><trkpt lat="44.331345" lon="10.7432683"><ele>668.0</ele><time>2026-05-03T12:12:39.75Z</time></trkpt><trkpt lat="44.3312667" lon="10.7432483"><ele>668.0</ele><time>2026-05-03T12:12:40.751Z</time></trkpt><trkpt lat="44.3312133" lon="10.743195"><ele>668.0</ele><time>2026-05-03T12:12:41.751Z</time></trkpt><trkpt lat="44.3311967" lon="10.743105"><ele>668.0</ele><time>2026-05-03T12:12:42.75Z</time></trkpt><trkpt lat="44.331205" lon="10.742945"><ele>672.75</ele><time>2026-05-03T12:12:43.751Z</time></trkpt><trkpt lat="44.3312417" lon="10.742755"><ele>677.5</ele><time>2026-05-03T12:12:44.751Z</time></trkpt><trkpt lat="44.3312767" lon="10.7425567"><ele>682.25</ele><time>2026-05-03T12:12:45.751Z</time></trkpt><trkpt lat="44.3312983" lon="10.742365"><ele>687.0</ele><time>2026-05-03T12:12:46.751Z</time></trkpt><trkpt lat="44.3313" lon="10.7421717"><ele>687.0</ele><time>2026-05-03T12:12:47.751Z</time></trkpt><trkpt lat="44.3312767" lon="10.7419767"><ele>687.0</ele><time>2026-05-03T12:12:48.751Z</time></trkpt><trkpt lat="44.33125" lon="10.7417817"><ele>687.0</ele><time>2026-05-03T12:12:49.751Z</time></trkpt><trkpt lat="44.3312167" lon="10.7415817"><ele>687.0</ele><time>2026-05-03T12:12:50.751Z</time></trkpt><trkpt lat="44.3311883" lon="10.7413917"><ele>686.8</ele><time>2026-05-03T12:12:51.751Z</time></trkpt><trkpt lat="44.33116" lon="10.74124"><ele>686.6</ele><time>2026-05-03T12:12:52.751Z</time></trkpt><trkpt lat="44.3311233" lon="10.74111"><ele>686.4</ele><time>2026-05-03T12:12:53.751Z</time></trkpt><trkpt lat="44.33106" lon="10.74101"><ele>686.1999999999999</ele><time>2026-05-03T12:12:54.751Z</time></trkpt><trkpt lat="44.3309817" lon="10.7409483"><ele>686.0</ele><time>2026-05-03T12:12:55.751Z</time></trkpt><trkpt lat="44.3308817" lon="10.74091"><ele>684.75</ele><time>2026-05-03T12:12:56.751Z</time></trkpt><trkpt lat="44.3307633" lon="10.7408867"><ele>683.5</ele><time>2026-05-03T12:12:57.75Z</time></trkpt><trkpt lat="44.33061" lon="10.7408917"><ele>682.25</ele><time>2026-05-03T12:12:58.751Z</time></trkpt><trkpt lat="44.3304517" lon="10.740885"><ele>681.0</ele><time>2026-05-03T12:12:59.751Z</time></trkpt><trkpt lat="44.3303033" lon="10.7408833"><ele>684.25</ele><time>2026-05-03T12:13:00.751Z</time></trkpt><trkpt lat="44.330165" lon="10.7408683"><ele>687.5</ele><time>2026-05-03T12:13:01.751Z</time></trkpt><trkpt lat="44.3300517" lon="10.7408317"><ele>690.75</ele><time>2026-05-03T12:13:02.751Z</time></trkpt><trkpt lat="44.3299583" lon="10.7407617"><ele>694.0</ele><time>2026-05-03T12:13:03.75Z</time></trkpt><trkpt lat="44.3298917" lon="10.7406583"><ele>694.0</ele><time>2026-05-03T12:13:04.75Z</time></trkpt><trkpt lat="44.32984" lon="10.7405117"><ele>694.0</ele><time>2026-05-03T12:13:05.751Z</time></trkpt><trkpt lat="44.3298" lon="10.7403467"><ele>694.0</ele><time>2026-05-03T12:13:06.751Z</time></trkpt><trkpt lat="44.3297533" lon="10.7401683"><ele>694.0</ele><time>2026-05-03T12:13:07.751Z</time></trkpt><trkpt lat="44.3297033" lon="10.7399867"><ele>696.4000000000001</ele><time>2026-05-03T12:13:08.751Z</time></trkpt><trkpt lat="44.3296417" lon="10.7398367"><ele>698.8</ele><time>2026-05-03T12:13:09.751Z</time></trkpt><trkpt lat="44.3295733" lon="10.7397183"><ele>701.2</ele><time>2026-05-03T12:13:10.751Z</time></trkpt><trkpt lat="44.3294917" lon="10.7396333"><ele>703.5999999999999</ele><time>2026-05-03T12:13:11.751Z</time></trkpt><trkpt lat="44.329385" lon="10.7395983"><ele>706.0</ele><time>2026-05-03T12:13:12.751Z</time></trkpt><trkpt lat="44.32926" lon="10.7396017"><ele>706.0</ele><time>2026-05-03T12:13:13.751Z</time></trkpt><trkpt lat="44.3291283" lon="10.73961"><ele>706.0</ele><time>2026-05-03T12:13:14.751Z</time></trkpt><trkpt lat="44.3289983" lon="10.739615"><ele>706.0</ele><time>2026-05-03T12:13:15.751Z</time></trkpt><trkpt lat="44.328865" lon="10.739615"><ele>706.0</ele><time>2026-05-03T12:13:16.75Z</time></trkpt><trkpt lat="44.3287517" lon="10.7395917"><ele>709.1999999999999</ele><time>2026-05-03T12:13:17.751Z</time></trkpt><trkpt lat="44.3286583" lon="10.7395383"><ele>712.4</ele><time>2026-05-03T12:13:18.751Z</time></trkpt><trkpt lat="44.328605" lon="10.7394267"><ele>715.6</ele><time>2026-05-03T12:13:19.751Z</time></trkpt><trkpt lat="44.3285883" lon="10.7392767"><ele>718.8</ele><time>2026-05-03T12:13:20.751Z</time></trkpt><trkpt lat="44.328595" lon="10.7391167"><ele>722.0</ele><time>2026-05-03T12:13:21.751Z</time></trkpt><trkpt lat="44.3285933" lon="10.7389517"><ele>722.0</ele><time>2026-05-03T12:13:22.751Z</time></trkpt><trkpt lat="44.3285917" lon="10.7388"><ele>722.0</ele><time>2026-05-03T12:13:23.75Z</time></trkpt><trkpt lat="44.3285883" lon="10.7386617"><ele>722.0</ele><time>2026-05-03T12:13:24.751Z</time></trkpt><trkpt lat="44.3285933" lon="10.738535"><ele>722.0</ele><time>2026-05-03T12:13:25.751Z</time></trkpt><trkpt lat="44.3286033" lon="10.738425"><ele>722.0</ele><time>2026-05-03T12:13:26.751Z</time></trkpt><trkpt lat="44.3286117" lon="10.738305"><ele>721.8333333333333</ele><time>2026-05-03T12:13:27.751Z</time></trkpt><trkpt lat="44.3286217" lon="10.73819"><ele>721.6666666666666</ele><time>2026-05-03T12:13:28.75Z</time></trkpt><trkpt lat="44.3286383" lon="10.7380633"><ele>721.5</ele><time>2026-05-03T12:13:29.75Z</time></trkpt><trkpt lat="44.3286683" lon="10.7379433"><ele>721.3333333333334</ele><time>2026-05-03T12:13:30.751Z</time></trkpt><trkpt lat="44.3287033" lon="10.73783"><ele>721.1666666666667</ele><time>2026-05-03T12:13:31.75Z</time></trkpt><trkpt lat="44.3287367" lon="10.7377083"><ele>721.0</ele><time>2026-05-03T12:13:32.751Z</time></trkpt><trkpt lat="44.3287567" lon="10.7375867"><ele>721.0</ele><time>2026-05-03T12:13:33.751Z</time></trkpt><trkpt lat="44.3287633" lon="10.7374783"><ele>721.0</ele><time>2026-05-03T12:13:34.751Z</time></trkpt><trkpt lat="44.32874" lon="10.7373817"><ele>721.0</ele><time>2026-05-03T12:13:35.751Z</time></trkpt><trkpt lat="44.3287" lon="10.7373117"><ele>721.0</ele><time>2026-05-03T12:13:36.75Z</time></trkpt><trkpt lat="44.3286317" lon="10.73725"><ele>721.0</ele><time>2026-05-03T12:13:37.751Z</time></trkpt><trkpt lat="44.3285383" lon="10.7371883"><ele>721.0</ele><time>2026-05-03T12:13:38.751Z</time></trkpt><trkpt lat="44.3284167" lon="10.73714"><ele>721.0</ele><time>2026-05-03T12:13:39.751Z</time></trkpt><trkpt lat="44.3282733" lon="10.7370883"><ele>721.0</ele><time>2026-05-03T12:13:40.751Z</time></trkpt><trkpt lat="44.3281367" lon="10.7370183"><ele>721.0</ele><time>2026-05-03T12:13:41.75Z</time></trkpt><trkpt lat="44.3280167" lon="10.7369167"><ele>721.0</ele><time>2026-05-03T12:13:42.75Z</time></trkpt><trkpt lat="44.3279033" lon="10.7368017"><ele>721.0</ele><time>2026-05-03T12:13:43.751Z</time></trkpt><trkpt lat="44.3277883" lon="10.7366817"><ele>721.0</ele><time>2026-05-03T12:13:44.75Z</time></trkpt><trkpt lat="44.3276817" lon="10.7365467"><ele>721.0</ele><time>2026-05-03T12:13:45.751Z</time></trkpt><trkpt lat="44.3275767" lon="10.7364133"><ele>721.0</ele><time>2026-05-03T12:13:46.751Z</time></trkpt><trkpt lat="44.3274783" lon="10.73628"><ele>721.0</ele><time>2026-05-03T12:13:47.751Z</time></trkpt><trkpt lat="44.3274" lon="10.73617"><ele>721.0</ele><time>2026-05-03T12:13:48.751Z</time></trkpt><trkpt lat="44.3273083" lon="10.7360767"><ele>721.0</ele><time>2026-05-03T12:13:49.75Z</time></trkpt><trkpt lat="44.3272167" lon="10.7359917"><ele>721.0</ele><time>2026-05-03T12:13:50.751Z</time></trkpt><trkpt lat="44.3270967" lon="10.7359367"><ele>719.75</ele><time>2026-05-03T12:13:51.75Z</time></trkpt><trkpt lat="44.3269683" lon="10.7358783"><ele>718.5</ele><time>2026-05-03T12:13:52.75Z</time></trkpt><trkpt lat="44.3268383" lon="10.735815"><ele>717.25</ele><time>2026-05-03T12:13:53.75Z</time></trkpt><trkpt lat="44.3267233" lon="10.7357483"><ele>716.0</ele><time>2026-05-03T12:13:54.751Z</time></trkpt><trkpt lat="44.32663" lon="10.73567"><ele>716.0</ele><time>2026-05-03T12:13:55.751Z</time></trkpt><trkpt lat="44.3265467" lon="10.7355983"><ele>716.0</ele><time>2026-05-03T12:13:56.751Z</time></trkpt><trkpt lat="44.3264433" lon="10.73553"><ele>716.0</ele><time>2026-05-03T12:13:57.75Z</time></trkpt><trkpt lat="44.3263233" lon="10.73547"><ele>716.0</ele><time>2026-05-03T12:13:58.751Z</time></trkpt><trkpt lat="44.326195" lon="10.7354067"><ele>719.0</ele><time>2026-05-03T12:13:59.751Z</time></trkpt><trkpt lat="44.32607" lon="10.7353433"><ele>722.0</ele><time>2026-05-03T12:14:00.75Z</time></trkpt><trkpt lat="44.3259483" lon="10.7352833"><ele>725.0</ele><time>2026-05-03T12:14:01.751Z</time></trkpt><trkpt lat="44.3258367" lon="10.735235"><ele>728.0</ele><time>2026-05-03T12:14:02.751Z</time></trkpt><trkpt lat="44.3257283" lon="10.73521"><ele>724.4</ele><time>2026-05-03T12:14:03.751Z</time></trkpt><trkpt lat="44.325625" lon="10.7351967"><ele>720.8</ele><time>2026-05-03T12:14:04.751Z</time></trkpt><trkpt lat="44.3255317" lon="10.7351667"><ele>717.2</ele><time>2026-05-03T12:14:05.751Z</time></trkpt><trkpt lat="44.32545" lon="10.73509"><ele>713.6</ele><time>2026-05-03T12:14:06.751Z</time></trkpt><trkpt lat="44.3253867" lon="10.73497"><ele>710.0</ele><time>2026-05-03T12:14:07.751Z</time></trkpt><trkpt lat="44.3253433" lon="10.7348333"><ele>710.0</ele><time>2026-05-03T12:14:08.751Z</time></trkpt><trkpt lat="44.3253083" lon="10.7347067"><ele>710.0</ele><time>2026-05-03T12:14:09.75Z</time></trkpt><trkpt lat="44.3252483" lon="10.7346"><ele>710.0</ele><time>2026-05-03T12:14:10.751Z</time></trkpt><trkpt lat="44.32519" lon="10.7345183"><ele>710.0</ele><time>2026-05-03T12:14:11.751Z</time></trkpt><trkpt lat="44.32511" lon="10.7344633"><ele>710.0</ele><time>2026-05-03T12:14:12.751Z</time></trkpt><trkpt lat="44.325015" lon="10.7344367"><ele>710.0</ele><time>2026-05-03T12:14:13.75Z</time></trkpt><trkpt lat="44.3248983" lon="10.73444"><ele>710.0</ele><time>2026-05-03T12:14:14.751Z</time></trkpt><trkpt lat="44.3247583" lon="10.734475"><ele>710.0</ele><time>2026-05-03T12:14:15.751Z</time></trkpt><trkpt lat="44.3246017" lon="10.7345133"><ele>710.0</ele><time>2026-05-03T12:14:16.751Z</time></trkpt><trkpt lat="44.32443" lon="10.7345383"><ele>714.0</ele><time>2026-05-03T12:14:17.751Z</time></trkpt><trkpt lat="44.3242683" lon="10.7345333"><ele>718.0</ele><time>2026-05-03T12:14:18.751Z</time></trkpt><trkpt lat="44.3241133" lon="10.7344983"><ele>722.0</ele><time>2026-05-03T12:14:19.751Z</time></trkpt><trkpt lat="44.3239783" lon="10.7344383"><ele>723.75</ele><time>2026-05-03T12:14:20.751Z</time></trkpt><trkpt lat="44.3238617" lon="10.7343483"><ele>725.5</ele><time>2026-05-03T12:14:21.751Z</time></trkpt><trkpt lat="44.3237733" lon="10.7342517"><ele>727.25</ele><time>2026-05-03T12:14:22.75Z</time></trkpt><trkpt lat="44.3237117" lon="10.73413"><ele>729.0</ele><time>2026-05-03T12:14:23.751Z</time></trkpt><trkpt lat="44.323685" lon="10.7339617"><ele>729.0</ele><time>2026-05-03T12:14:24.751Z</time></trkpt><trkpt lat="44.3236817" lon="10.7337717"><ele>729.0</ele><time>2026-05-03T12:14:25.751Z</time></trkpt><trkpt lat="44.3237117" lon="10.7335833"><ele>729.0</ele><time>2026-05-03T12:14:26.751Z</time></trkpt><trkpt lat="44.3237283" lon="10.7334017"><ele>729.0</ele><time>2026-05-03T12:14:27.751Z</time></trkpt><trkpt lat="44.323725" lon="10.7332517"><ele>727.5</ele><time>2026-05-03T12:14:28.751Z</time></trkpt><trkpt lat="44.3237067" lon="10.7331417"><ele>726.0</ele><time>2026-05-03T12:14:29.751Z</time></trkpt><trkpt lat="44.3236633" lon="10.733055"><ele>724.5</ele><time>2026-05-03T12:14:30.751Z</time></trkpt><trkpt lat="44.3235983" lon="10.7330167"><ele>723.0</ele><time>2026-05-03T12:14:31.751Z</time></trkpt><trkpt lat="44.3235233" lon="10.7330383"><ele>721.5</ele><time>2026-05-03T12:14:32.75Z</time></trkpt><trkpt lat="44.323455" lon="10.7331133"><ele>720.0</ele><time>2026-05-03T12:14:33.751Z</time></trkpt><trkpt lat="44.323395" lon="10.7332517"><ele>720.0</ele><time>2026-05-03T12:14:34.751Z</time></trkpt><trkpt lat="44.32335" lon="10.7334367"><ele>720.0</ele><time>2026-05-03T12:14:35.751Z</time></trkpt><trkpt lat="44.32333" lon="10.7336383"><ele>720.0</ele><time>2026-05-03T12:14:36.751Z</time></trkpt><trkpt lat="44.3233217" lon="10.7338217"><ele>720.0</ele><time>2026-05-03T12:14:37.751Z</time></trkpt><trkpt lat="44.323305" lon="10.733965"><ele>721.8</ele><time>2026-05-03T12:14:38.751Z</time></trkpt><trkpt lat="44.3232683" lon="10.734055"><ele>723.6</ele><time>2026-05-03T12:14:39.75Z</time></trkpt><trkpt lat="44.3232067" lon="10.7341"><ele>725.4000000000001</ele><time>2026-05-03T12:14:40.751Z</time></trkpt><trkpt lat="44.3231267" lon="10.73409"><ele>727.2</ele><time>2026-05-03T12:14:41.751Z</time></trkpt><trkpt lat="44.3230333" lon="10.73403"><ele>729.0</ele><time>2026-05-03T12:14:42.751Z</time></trkpt><trkpt lat="44.3229167" lon="10.7339683"><ele>735.5</ele><time>2026-05-03T12:14:43.751Z</time></trkpt><trkpt lat="44.32279" lon="10.7339083"><ele>742.0</ele><time>2026-05-03T12:14:44.75Z</time></trkpt><trkpt lat="44.3226667" lon="10.7338533"><ele>748.5</ele><time>2026-05-03T12:14:45.751Z</time></trkpt><trkpt lat="44.3225467" lon="10.733765"><ele>755.0</ele><time>2026-05-03T12:14:46.751Z</time></trkpt><trkpt lat="44.3224217" lon="10.73367"><ele>755.0</ele><time>2026-05-03T12:14:47.751Z</time></trkpt><trkpt lat="44.3222983" lon="10.733575"><ele>755.0</ele><time>2026-05-03T12:14:48.75Z</time></trkpt><trkpt lat="44.3221717" lon="10.73347"><ele>755.0</ele><time>2026-05-03T12:14:49.75Z</time></trkpt><trkpt lat="44.3220417" lon="10.73336"><ele>755.0</ele><time>2026-05-03T12:14:50.751Z</time></trkpt><trkpt lat="44.321905" lon="10.7332683"><ele>757.5</ele><time>2026-05-03T12:14:51.751Z</time></trkpt><trkpt lat="44.3217633" lon="10.7331933"><ele>760.0</ele><time>2026-05-03T12:14:52.751Z</time></trkpt><trkpt lat="44.3216283" lon="10.73313"><ele>762.5</ele><time>2026-05-03T12:14:53.751Z</time></trkpt><trkpt lat="44.321495" lon="10.73307"><ele>765.0</ele><time>2026-05-03T12:14:54.751Z</time></trkpt><trkpt lat="44.321385" lon="10.7330133"><ele>768.4</ele><time>2026-05-03T12:14:55.751Z</time></trkpt><trkpt lat="44.3212967" lon="10.732945"><ele>771.8</ele><time>2026-05-03T12:14:56.751Z</time></trkpt><trkpt lat="44.32122" lon="10.7329383"><ele>775.2</ele><time>2026-05-03T12:14:57.751Z</time></trkpt><trkpt lat="44.321135" lon="10.732965"><ele>778.6</ele><time>2026-05-03T12:14:58.751Z</time></trkpt><trkpt lat="44.3210333" lon="10.7330217"><ele>782.0</ele><time>2026-05-03T12:14:59.751Z</time></trkpt><trkpt lat="44.3209183" lon="10.7330667"><ele>782.0</ele><time>2026-05-03T12:15:00.75Z</time></trkpt><trkpt lat="44.3207983" lon="10.7330617"><ele>782.0</ele><time>2026-05-03T12:15:01.751Z</time></trkpt><trkpt lat="44.320675" lon="10.733015"><ele>782.0</ele><time>2026-05-03T12:15:02.751Z</time></trkpt><trkpt lat="44.320545" lon="10.7329567"><ele>782.0</ele><time>2026-05-03T12:15:03.751Z</time></trkpt><trkpt lat="44.3204183" lon="10.732885"><ele>780.0</ele><time>2026-05-03T12:15:04.751Z</time></trkpt><trkpt lat="44.3202883" lon="10.7328117"><ele>778.0</ele><time>2026-05-03T12:15:05.75Z</time></trkpt><trkpt lat="44.320165" lon="10.7327617"><ele>776.0</ele><time>2026-05-03T12:15:06.751Z</time></trkpt><trkpt lat="44.3200317" lon="10.7327233"><ele>774.0</ele><time>2026-05-03T12:15:07.75Z</time></trkpt><trkpt lat="44.3198867" lon="10.732715"><ele>777.3333333333333</ele><time>2026-05-03T12:15:08.75Z</time></trkpt><trkpt lat="44.31973" lon="10.7327033"><ele>780.6666666666666</ele><time>2026-05-03T12:15:09.751Z</time></trkpt><trkpt lat="44.3195717" lon="10.732685"><ele>784.0</ele><time>2026-05-03T12:15:10.751Z</time></trkpt><trkpt lat="44.3194067" lon="10.7326633"><ele>784.0</ele><time>2026-05-03T12:15:11.75Z</time></trkpt><trkpt lat="44.31925" lon="10.732635"><ele>784.0</ele><time>2026-05-03T12:15:12.751Z</time></trkpt><trkpt lat="44.3191" lon="10.7325933"><ele>784.0</ele><time>2026-05-03T12:15:13.751Z</time></trkpt><trkpt lat="44.3189583" lon="10.7325283"><ele>784.6</ele><time>2026-05-03T12:15:14.751Z</time></trkpt><trkpt lat="44.3188417" lon="10.7324717"><ele>785.2</ele><time>2026-05-03T12:15:15.75Z</time></trkpt><trkpt lat="44.31874" lon="10.7324217"><ele>785.8000000000001</ele><time>2026-05-03T12:15:16.75Z</time></trkpt><trkpt lat="44.318645" lon="10.7324067"><ele>786.4000000000001</ele><time>2026-05-03T12:15:17.751Z</time></trkpt><trkpt lat="44.3185533" lon="10.732435"><ele>787.0</ele><time>2026-05-03T12:15:18.751Z</time></trkpt><trkpt lat="44.31848" lon="10.7324817"><ele>787.0</ele><time>2026-05-03T12:15:19.751Z</time></trkpt><trkpt lat="44.3184067" lon="10.7325617"><ele>787.0</ele><time>2026-05-03T12:15:20.751Z</time></trkpt><trkpt lat="44.3183317" lon="10.7326767"><ele>787.0</ele><time>2026-05-03T12:15:21.751Z</time></trkpt><trkpt lat="44.3182633" lon="10.7328033"><ele>787.0</ele><time>2026-05-03T12:15:22.75Z</time></trkpt><trkpt lat="44.3181817" lon="10.7329167"><ele>787.0</ele><time>2026-05-03T12:15:23.751Z</time></trkpt><trkpt lat="44.3180867" lon="10.733"><ele>791.0</ele><time>2026-05-03T12:15:24.751Z</time></trkpt><trkpt lat="44.31797" lon="10.7330483"><ele>795.0</ele><time>2026-05-03T12:15:25.751Z</time></trkpt><trkpt lat="44.3178417" lon="10.733095"><ele>799.0</ele><time>2026-05-03T12:15:26.751Z</time></trkpt><trkpt lat="44.3177267" lon="10.7331433"><ele>803.0</ele><time>2026-05-03T12:15:27.751Z</time></trkpt><trkpt lat="44.3176267" lon="10.733195"><ele>803.0000000000001</ele><time>2026-05-03T12:15:28.751Z</time></trkpt><trkpt lat="44.31755" lon="10.7332433"><ele>803.0</ele><time>2026-05-03T12:15:29.751Z</time></trkpt><trkpt lat="44.3174833" lon="10.7332533"><ele>803.0</ele><time>2026-05-03T12:15:30.751Z</time></trkpt><trkpt lat="44.3174217" lon="10.7332283"><ele>803.0</ele><time>2026-05-03T12:15:31.751Z</time></trkpt><trkpt lat="44.3173683" lon="10.7331567"><ele>803.0000000000001</ele><time>2026-05-03T12:15:32.751Z</time></trkpt><trkpt lat="44.3173083" lon="10.7330433"><ele>803.0</ele><time>2026-05-03T12:15:33.751Z</time></trkpt><trkpt lat="44.3172367" lon="10.7328967"><ele>801.5</ele><time>2026-05-03T12:15:34.751Z</time></trkpt><trkpt lat="44.31715" lon="10.7327667"><ele>800.0</ele><time>2026-05-03T12:15:35.751Z</time></trkpt><trkpt lat="44.3170483" lon="10.732675"><ele>798.5</ele><time>2026-05-03T12:15:36.751Z</time></trkpt><trkpt lat="44.3169383" lon="10.7325917"><ele>797.0</ele><time>2026-05-03T12:15:37.751Z</time></trkpt><trkpt lat="44.3168367" lon="10.7325183"><ele>797.0</ele><time>2026-05-03T12:15:38.751Z</time></trkpt><trkpt lat="44.31672" lon="10.7324517"><ele>797.0</ele><time>2026-05-03T12:15:39.751Z</time></trkpt><trkpt lat="44.3165933" lon="10.73241"><ele>797.0</ele><time>2026-05-03T12:15:40.751Z</time></trkpt><trkpt lat="44.3164533" lon="10.732385"><ele>797.0</ele><time>2026-05-03T12:15:41.75Z</time></trkpt><trkpt lat="44.31631" lon="10.7323483"><ele>799.0</ele><time>2026-05-03T12:15:42.751Z</time></trkpt><trkpt lat="44.3161617" lon="10.732305"><ele>801.0</ele><time>2026-05-03T12:15:43.751Z</time></trkpt><trkpt lat="44.31602" lon="10.7322617"><ele>803.0</ele><time>2026-05-03T12:15:44.751Z</time></trkpt><trkpt lat="44.315885" lon="10.7322117"><ele>805.0</ele><time>2026-05-03T12:15:45.751Z</time></trkpt><trkpt lat="44.31576" lon="10.73214"><ele>805.0</ele><time>2026-05-03T12:15:46.75Z</time></trkpt><trkpt lat="44.315645" lon="10.73206"><ele>805.0</ele><time>2026-05-03T12:15:47.75Z</time></trkpt><trkpt lat="44.3155267" lon="10.7319933"><ele>805.0</ele><time>2026-05-03T12:15:48.751Z</time></trkpt><trkpt lat="44.315395" lon="10.7319533"><ele>805.0</ele><time>2026-05-03T12:15:49.751Z</time></trkpt><trkpt lat="44.3152683" lon="10.7319333"><ele>804.0</ele><time>2026-05-03T12:15:50.751Z</time></trkpt><trkpt lat="44.3151567" lon="10.7319267"><ele>803.0</ele><time>2026-05-03T12:15:51.75Z</time></trkpt><trkpt lat="44.31506" lon="10.73194"><ele>802.0</ele><time>2026-05-03T12:15:52.75Z</time></trkpt><trkpt lat="44.3149767" lon="10.7319867"><ele>801.0</ele><time>2026-05-03T12:15:53.75Z</time></trkpt><trkpt lat="44.314885" lon="10.7320867"><ele>800.0</ele><time>2026-05-03T12:15:54.75Z</time></trkpt><trkpt lat="44.31478" lon="10.732205"><ele>796.25</ele><time>2026-05-03T12:15:55.75Z</time></trkpt><trkpt lat="44.3146667" lon="10.7323217"><ele>792.5</ele><time>2026-05-03T12:15:56.749Z</time></trkpt><trkpt lat="44.3145417" lon="10.7324217"><ele>788.75</ele><time>2026-05-03T12:15:57.75Z</time></trkpt><trkpt lat="44.314415" lon="10.732505"><ele>785.0</ele><time>2026-05-03T12:15:58.75Z</time></trkpt><trkpt lat="44.3142667" lon="10.7325583"><ele>785.0</ele><time>2026-05-03T12:15:59.75Z</time></trkpt><trkpt lat="44.3141233" lon="10.73259"><ele>785.0</ele><time>2026-05-03T12:16:00.75Z</time></trkpt><trkpt lat="44.31397" lon="10.7326267"><ele>785.0</ele><time>2026-05-03T12:16:01.749Z</time></trkpt><trkpt lat="44.3138217" lon="10.732665"><ele>784.25</ele><time>2026-05-03T12:16:02.749Z</time></trkpt><trkpt lat="44.3136717" lon="10.73269"><ele>783.5</ele><time>2026-05-03T12:16:03.75Z</time></trkpt><trkpt lat="44.31353" lon="10.7326867"><ele>782.75</ele><time>2026-05-03T12:16:04.75Z</time></trkpt><trkpt lat="44.313395" lon="10.7326433"><ele>782.0</ele><time>2026-05-03T12:16:05.75Z</time></trkpt><trkpt lat="44.3132717" lon="10.7325617"><ele>782.0</ele><time>2026-05-03T12:16:06.75Z</time></trkpt><trkpt lat="44.313155" lon="10.7324483"><ele>782.0</ele><time>2026-05-03T12:16:07.749Z</time></trkpt><trkpt lat="44.31304" lon="10.7323333"><ele>782.0</ele><time>2026-05-03T12:16:08.75Z</time></trkpt><trkpt lat="44.3129267" lon="10.732205"><ele>782.0</ele><time>2026-05-03T12:16:09.749Z</time></trkpt><trkpt lat="44.3128417" lon="10.7320633"><ele>782.75</ele><time>2026-05-03T12:16:10.749Z</time></trkpt><trkpt lat="44.31276" lon="10.73192"><ele>783.5</ele><time>2026-05-03T12:16:11.75Z</time></trkpt><trkpt lat="44.3126833" lon="10.7317833"><ele>784.25</ele><time>2026-05-03T12:16:12.75Z</time></trkpt><trkpt lat="44.3126083" lon="10.7316467"><ele>785.0</ele><time>2026-05-03T12:16:13.749Z</time></trkpt><trkpt lat="44.3125267" lon="10.7315033"><ele>783.5</ele><time>2026-05-03T12:16:14.75Z</time></trkpt><trkpt lat="44.3124467" lon="10.7313683"><ele>782.0</ele><time>2026-05-03T12:16:15.75Z</time></trkpt><trkpt lat="44.3123667" lon="10.7312267"><ele>780.5</ele><time>2026-05-03T12:16:16.75Z</time></trkpt><trkpt lat="44.312285" lon="10.731115"><ele>779.0</ele><time>2026-05-03T12:16:17.749Z</time></trkpt><trkpt lat="44.3121917" lon="10.7310133"><ele>778.25</ele><time>2026-05-03T12:16:18.749Z</time></trkpt><trkpt lat="44.312095" lon="10.7309433"><ele>777.5</ele><time>2026-05-03T12:16:19.749Z</time></trkpt><trkpt lat="44.3119783" lon="10.7309"><ele>776.75</ele><time>2026-05-03T12:16:20.75Z</time></trkpt><trkpt lat="44.31185" lon="10.7308717"><ele>776.0</ele><time>2026-05-03T12:16:21.749Z</time></trkpt><trkpt lat="44.311715" lon="10.730855"><ele>776.0</ele><time>2026-05-03T12:16:22.75Z</time></trkpt><trkpt lat="44.3115783" lon="10.7308367"><ele>776.0</ele><time>2026-05-03T12:16:23.75Z</time></trkpt><trkpt lat="44.31145" lon="10.7307983"><ele>776.0</ele><time>2026-05-03T12:16:24.75Z</time></trkpt><trkpt lat="44.3113467" lon="10.7307233"><ele>776.0</ele><time>2026-05-03T12:16:25.75Z</time></trkpt><trkpt lat="44.3112583" lon="10.7306333"><ele>776.4</ele><time>2026-05-03T12:16:26.749Z</time></trkpt><trkpt lat="44.311165" lon="10.73054"><ele>776.8</ele><time>2026-05-03T12:16:27.75Z</time></trkpt><trkpt lat="44.31108" lon="10.7304933"><ele>777.1999999999999</ele><time>2026-05-03T12:16:28.75Z</time></trkpt><trkpt lat="44.310985" lon="10.7304817"><ele>777.5999999999999</ele><time>2026-05-03T12:16:29.75Z</time></trkpt><trkpt lat="44.3109" lon="10.7305017"><ele>778.0</ele><time>2026-05-03T12:16:30.75Z</time></trkpt><trkpt lat="44.310825" lon="10.73055"><ele>777.9999999999999</ele><time>2026-05-03T12:16:31.749Z</time></trkpt><trkpt lat="44.3107567" lon="10.730585"><ele>778.0</ele><time>2026-05-03T12:16:32.75Z</time></trkpt><trkpt lat="44.3106933" lon="10.7306117"><ele>778.0</ele><time>2026-05-03T12:16:33.75Z</time></trkpt><trkpt lat="44.3106167" lon="10.7305967"><ele>778.0</ele><time>2026-05-03T12:16:34.75Z</time></trkpt><trkpt lat="44.310535" lon="10.7305667"><ele>777.9999999999999</ele><time>2026-05-03T12:16:35.75Z</time></trkpt><trkpt lat="44.3104483" lon="10.730535"><ele>778.0</ele><time>2026-05-03T12:16:36.75Z</time></trkpt><trkpt lat="44.3103567" lon="10.730505"><ele>780.4</ele><time>2026-05-03T12:16:37.75Z</time></trkpt><trkpt lat="44.3102633" lon="10.73047"><ele>782.8</ele><time>2026-05-03T12:16:38.75Z</time></trkpt><trkpt lat="44.3101667" lon="10.73043"><ele>785.2</ele><time>2026-05-03T12:16:39.75Z</time></trkpt><trkpt lat="44.3100567" lon="10.730395"><ele>787.6</ele><time>2026-05-03T12:16:40.75Z</time></trkpt><trkpt lat="44.3099383" lon="10.7303817"><ele>790.0</ele><time>2026-05-03T12:16:41.75Z</time></trkpt><trkpt lat="44.3098167" lon="10.73038"><ele>793.0</ele><time>2026-05-03T12:16:42.749Z</time></trkpt><trkpt lat="44.3096967" lon="10.7303733"><ele>796.0</ele><time>2026-05-03T12:16:43.75Z</time></trkpt><trkpt lat="44.3095967" lon="10.73038"><ele>799.0</ele><time>2026-05-03T12:16:44.75Z</time></trkpt><trkpt lat="44.3095117" lon="10.7303817"><ele>802.0</ele><time>2026-05-03T12:16:45.75Z</time></trkpt><trkpt lat="44.3094217" lon="10.73039"><ele>805.0</ele><time>2026-05-03T12:16:46.75Z</time></trkpt><trkpt lat="44.3093283" lon="10.7303867"><ele>805.0</ele><time>2026-05-03T12:16:47.75Z</time></trkpt><trkpt lat="44.3092317" lon="10.7303783"><ele>805.0</ele><time>2026-05-03T12:16:48.75Z</time></trkpt><trkpt lat="44.3091283" lon="10.730375"><ele>805.0</ele><time>2026-05-03T12:16:49.75Z</time></trkpt><trkpt lat="44.30902" lon="10.730385"><ele>805.0</ele><time>2026-05-03T12:16:50.75Z</time></trkpt><trkpt lat="44.3089117" lon="10.730395"><ele>805.0</ele><time>2026-05-03T12:16:51.749Z</time></trkpt><trkpt lat="44.3088067" lon="10.7304017"><ele>806.8333333333333</ele><time>2026-05-03T12:16:52.75Z</time></trkpt><trkpt lat="44.3087067" lon="10.730405"><ele>808.6666666666666</ele><time>2026-05-03T12:16:53.749Z</time></trkpt><trkpt lat="44.3086183" lon="10.7304033"><ele>810.5</ele><time>2026-05-03T12:16:54.75Z</time></trkpt><trkpt lat="44.3085517" lon="10.7304067"><ele>812.3333333333333</ele><time>2026-05-03T12:16:55.75Z</time></trkpt><trkpt lat="44.3084783" lon="10.7304083"><ele>814.1666666666666</ele><time>2026-05-03T12:16:57.75Z</time></trkpt><trkpt lat="44.30848" lon="10.7305017"><ele>816.0</ele><time>2026-05-03T12:17:01.75Z</time></trkpt><trkpt lat="44.3085317" lon="10.730645"><ele>816.0</ele><time>2026-05-03T12:17:03.75Z</time></trkpt><trkpt lat="44.308575" lon="10.730745"><ele>816.0</ele><time>2026-05-03T12:17:04.75Z</time></trkpt><trkpt lat="44.308625" lon="10.730855"><ele>816.0</ele><time>2026-05-03T12:17:05.75Z</time></trkpt><trkpt lat="44.3086617" lon="10.7309617"><ele>816.0</ele><time>2026-05-03T12:17:06.75Z</time></trkpt><trkpt lat="44.30872" lon="10.7310867"><ele>816.0</ele><time>2026-05-03T12:17:07.75Z</time></trkpt><trkpt lat="44.3088" lon="10.7312"><ele>814.5999999999999</ele><time>2026-05-03T12:17:08.75Z</time></trkpt><trkpt lat="44.3088933" lon="10.7312933"><ele>813.2</ele><time>2026-05-03T12:17:09.75Z</time></trkpt><trkpt lat="44.3089967" lon="10.7313717"><ele>811.8</ele><time>2026-05-03T12:17:10.75Z</time></trkpt><trkpt lat="44.3090983" lon="10.7314333"><ele>810.4000000000001</ele><time>2026-05-03T12:17:11.749Z</time></trkpt><trkpt lat="44.309185" lon="10.731505"><ele>809.0</ele><time>2026-05-03T12:17:12.75Z</time></trkpt><trkpt lat="44.3092283" lon="10.7316067"><ele>809.0</ele><time>2026-05-03T12:17:13.75Z</time></trkpt><trkpt lat="44.30925" lon="10.7317133"><ele>809.0</ele><time>2026-05-03T12:17:14.75Z</time></trkpt><trkpt lat="44.30923" lon="10.7318383"><ele>809.0</ele><time>2026-05-03T12:17:15.75Z</time></trkpt><trkpt lat="44.30917" lon="10.7319633"><ele>809.0</ele><time>2026-05-03T12:17:16.749Z</time></trkpt><trkpt lat="44.309075" lon="10.7321017"><ele>809.0</ele><time>2026-05-03T12:17:17.75Z</time></trkpt><trkpt lat="44.3089883" lon="10.732255"><ele>809.5</ele><time>2026-05-03T12:17:18.75Z</time></trkpt><trkpt lat="44.30891" lon="10.7324133"><ele>810.0</ele><time>2026-05-03T12:17:19.75Z</time></trkpt><trkpt lat="44.3088617" lon="10.73259"><ele>810.5</ele><time>2026-05-03T12:17:20.749Z</time></trkpt><trkpt lat="44.3088267" lon="10.7327783"><ele>811.0</ele><time>2026-05-03T12:17:21.75Z</time></trkpt><trkpt lat="44.3088183" lon="10.7329817"><ele>819.3333333333333</ele><time>2026-05-03T12:17:22.75Z</time></trkpt><trkpt lat="44.308825" lon="10.7331983"><ele>827.6666666666667</ele><time>2026-05-03T12:17:23.749Z</time></trkpt><trkpt lat="44.3088333" lon="10.7334133"><ele>836.0</ele><time>2026-05-03T12:17:24.75Z</time></trkpt><trkpt lat="44.3088333" lon="10.7336233"><ele>836.0</ele><time>2026-05-03T12:17:25.75Z</time></trkpt><trkpt lat="44.3088267" lon="10.7338283"><ele>836.0</ele><time>2026-05-03T12:17:26.75Z</time></trkpt><trkpt lat="44.3088067" lon="10.7340317"><ele>836.0</ele><time>2026-05-03T12:17:27.75Z</time></trkpt><trkpt lat="44.3087733" lon="10.73423"><ele>836.0</ele><time>2026-05-03T12:17:28.75Z</time></trkpt><trkpt lat="44.3087217" lon="10.7344217"><ele>836.75</ele><time>2026-05-03T12:17:29.75Z</time></trkpt><trkpt lat="44.308665" lon="10.73461"><ele>837.5</ele><time>2026-05-03T12:17:30.75Z</time></trkpt><trkpt lat="44.3086133" lon="10.7348017"><ele>838.25</ele><time>2026-05-03T12:17:31.749Z</time></trkpt><trkpt lat="44.308585" lon="10.7349983"><ele>839.0</ele><time>2026-05-03T12:17:32.75Z</time></trkpt><trkpt lat="44.308585" lon="10.735195"><ele>840.0</ele><time>2026-05-03T12:17:33.749Z</time></trkpt><trkpt lat="44.3086183" lon="10.7354083"><ele>841.0</ele><time>2026-05-03T12:17:34.75Z</time></trkpt><trkpt lat="44.30867" lon="10.7356167"><ele>842.0</ele><time>2026-05-03T12:17:35.75Z</time></trkpt><trkpt lat="44.308705" lon="10.73582"><ele>842.0</ele><time>2026-05-03T12:17:36.75Z</time></trkpt><trkpt lat="44.3087383" lon="10.7360017"><ele>842.0</ele><time>2026-05-03T12:17:37.75Z</time></trkpt><trkpt lat="44.3087583" lon="10.7361533"><ele>842.0</ele><time>2026-05-03T12:17:38.75Z</time></trkpt><trkpt lat="44.3087583" lon="10.7362717"><ele>842.0</ele><time>2026-05-03T12:17:39.75Z</time></trkpt><trkpt lat="44.30873" lon="10.73637"><ele>842.0</ele><time>2026-05-03T12:17:40.75Z</time></trkpt><trkpt lat="44.308685" lon="10.7364383"><ele>842.0</ele><time>2026-05-03T12:17:41.75Z</time></trkpt><trkpt lat="44.3085833" lon="10.7364033"><ele>842.0</ele><time>2026-05-03T12:17:43.75Z</time></trkpt><trkpt lat="44.3085517" lon="10.7363017"><ele>842.0</ele><time>2026-05-03T12:17:44.75Z</time></trkpt><trkpt lat="44.3085333" lon="10.7361567"><ele>842.0</ele><time>2026-05-03T12:17:45.749Z</time></trkpt><trkpt lat="44.3085133" lon="10.7359783"><ele>842.0</ele><time>2026-05-03T12:17:46.75Z</time></trkpt><trkpt lat="44.30849" lon="10.735785"><ele>842.0</ele><time>2026-05-03T12:17:47.75Z</time></trkpt><trkpt lat="44.3084617" lon="10.7355733"><ele>842.0</ele><time>2026-05-03T12:17:48.75Z</time></trkpt><trkpt lat="44.3084133" lon="10.7353567"><ele>842.0</ele><time>2026-05-03T12:17:49.75Z</time></trkpt><trkpt lat="44.3083617" lon="10.7351367"><ele>841.0</ele><time>2026-05-03T12:17:50.75Z</time></trkpt><trkpt lat="44.30831" lon="10.7349167"><ele>840.0</ele><time>2026-05-03T12:17:51.749Z</time></trkpt><trkpt lat="44.3082467" lon="10.7347017"><ele>839.0</ele><time>2026-05-03T12:17:52.75Z</time></trkpt><trkpt lat="44.3081783" lon="10.7344883"><ele>838.0</ele><time>2026-05-03T12:17:53.75Z</time></trkpt><trkpt lat="44.3081183" lon="10.73428"><ele>837.0</ele><time>2026-05-03T12:17:54.749Z</time></trkpt><trkpt lat="44.3080817" lon="10.7340683"><ele>836.0</ele><time>2026-05-03T12:17:55.75Z</time></trkpt><trkpt lat="44.3080767" lon="10.7338433"><ele>836.0</ele><time>2026-05-03T12:17:56.75Z</time></trkpt><trkpt lat="44.3080817" lon="10.7336117"><ele>836.0</ele><time>2026-05-03T12:17:57.75Z</time></trkpt><trkpt lat="44.308095" lon="10.7333717"><ele>836.0</ele><time>2026-05-03T12:17:58.75Z</time></trkpt><trkpt lat="44.308115" lon="10.7331283"><ele>836.0</ele><time>2026-05-03T12:17:59.75Z</time></trkpt><trkpt lat="44.3081467" lon="10.7329083"><ele>836.0</ele><time>2026-05-03T12:18:00.749Z</time></trkpt><trkpt lat="44.3081817" lon="10.7327217"><ele>836.0</ele><time>2026-05-03T12:18:01.75Z</time></trkpt><trkpt lat="44.3082067" lon="10.7325667"><ele>836.0</ele><time>2026-05-03T12:18:02.75Z</time></trkpt><trkpt lat="44.3082067" lon="10.7324217"><ele>836.0</ele><time>2026-05-03T12:18:03.75Z</time></trkpt><trkpt lat="44.30817" lon="10.7322933"><ele>836.0</ele><time>2026-05-03T12:18:04.75Z</time></trkpt><trkpt lat="44.308095" lon="10.7321967"><ele>836.0</ele><time>2026-05-03T12:18:05.75Z</time></trkpt><trkpt lat="44.3079783" lon="10.73211"><ele>836.0</ele><time>2026-05-03T12:18:06.75Z</time></trkpt><trkpt lat="44.3078383" lon="10.7320233"><ele>837.75</ele><time>2026-05-03T12:18:07.75Z</time></trkpt><trkpt lat="44.30771" lon="10.73195"><ele>839.5</ele><time>2026-05-03T12:18:08.75Z</time></trkpt><trkpt lat="44.3075933" lon="10.7318783"><ele>841.25</ele><time>2026-05-03T12:18:09.749Z</time></trkpt><trkpt lat="44.307495" lon="10.7318233"><ele>843.0</ele><time>2026-05-03T12:18:10.749Z</time></trkpt><trkpt lat="44.3074083" lon="10.7318083"><ele>843.0</ele><time>2026-05-03T12:18:11.75Z</time></trkpt><trkpt lat="44.3073033" lon="10.7318317"><ele>843.0</ele><time>2026-05-03T12:18:13.75Z</time></trkpt><trkpt lat="44.30726" lon="10.7319517"><ele>843.0</ele><time>2026-05-03T12:18:27.75Z</time></trkpt><trkpt lat="44.3072783" lon="10.7320583"><ele>843.0</ele><time>2026-05-03T12:18:28.749Z</time></trkpt><trkpt lat="44.3073133" lon="10.7321917"><ele>843.0</ele><time>2026-05-03T12:18:29.75Z</time></trkpt><trkpt lat="44.3073633" lon="10.7323267"><ele>843.3333333333334</ele><time>2026-05-03T12:18:30.749Z</time></trkpt><trkpt lat="44.3074067" lon="10.7324433"><ele>843.6666666666667</ele><time>2026-05-03T12:18:31.749Z</time></trkpt><trkpt lat="44.3074417" lon="10.7325433"><ele>844.0</ele><time>2026-05-03T12:18:32.75Z</time></trkpt><trkpt lat="44.3074817" lon="10.7326733"><ele>844.3333333333334</ele><time>2026-05-03T12:18:34.75Z</time></trkpt><trkpt lat="44.3075533" lon="10.7327667"><ele>844.6666666666667</ele><time>2026-05-03T12:25:36.748Z</time></trkpt><trkpt lat="44.3075983" lon="10.7328333"><ele>845.0</ele><time>2026-05-03T12:25:37.749Z</time></trkpt><trkpt lat="44.3076433" lon="10.732925"><ele>845.0</ele><time>2026-05-03T12:25:38.749Z</time></trkpt><trkpt lat="44.307685" lon="10.733035"><ele>845.0</ele><time>2026-05-03T12:25:39.749Z</time></trkpt><trkpt lat="44.30773" lon="10.7331533"><ele>845.0</ele><time>2026-05-03T12:25:40.748Z</time></trkpt><trkpt lat="44.3077667" lon="10.7332833"><ele>845.0</ele><time>2026-05-03T12:25:41.749Z</time></trkpt><trkpt lat="44.3077883" lon="10.7334167"><ele>845.0</ele><time>2026-05-03T12:25:42.748Z</time></trkpt><trkpt lat="44.3077967" lon="10.7335317"><ele>844.8</ele><time>2026-05-03T12:25:43.748Z</time></trkpt><trkpt lat="44.307805" lon="10.7336417"><ele>844.6</ele><time>2026-05-03T12:25:44.747Z</time></trkpt><trkpt lat="44.3078067" lon="10.73374"><ele>844.4000000000001</ele><time>2026-05-03T12:25:45.748Z</time></trkpt><trkpt lat="44.30781" lon="10.7339017"><ele>844.2</ele><time>2026-05-03T12:25:47.747Z</time></trkpt><trkpt lat="44.3078183" lon="10.7340467"><ele>844.0</ele><time>2026-05-03T12:25:49.748Z</time></trkpt><trkpt lat="44.3077617" lon="10.734145"><ele>844.0</ele><time>2026-05-03T12:25:51.748Z</time></trkpt><trkpt lat="44.3076667" lon="10.7341767"><ele>844.0</ele><time>2026-05-03T12:25:53.747Z</time></trkpt><trkpt lat="44.3076133" lon="10.734235"><ele>844.0</ele><time>2026-05-03T12:25:56.747Z</time></trkpt><trkpt lat="44.3075583" lon="10.7343767"><ele>844.0</ele><time>2026-05-03T12:26:03.748Z</time></trkpt><trkpt lat="44.3075033" lon="10.7344867"><ele>844.0</ele><time>2026-05-03T12:26:04.748Z</time></trkpt><trkpt lat="44.3074517" lon="10.7346083"><ele>844.6</ele><time>2026-05-03T12:26:05.748Z</time></trkpt><trkpt lat="44.3074117" lon="10.7347417"><ele>845.2</ele><time>2026-05-03T12:26:06.748Z</time></trkpt><trkpt lat="44.3073717" lon="10.7348667"><ele>845.8000000000001</ele><time>2026-05-03T12:26:07.747Z</time></trkpt><trkpt lat="44.307335" lon="10.7349933"><ele>846.4000000000001</ele><time>2026-05-03T12:26:08.748Z</time></trkpt><trkpt lat="44.307305" lon="10.7351283"><ele>847.0</ele><time>2026-05-03T12:26:09.748Z</time></trkpt><trkpt lat="44.30728" lon="10.7352667"><ele>847.5</ele><time>2026-05-03T12:26:10.748Z</time></trkpt><trkpt lat="44.3072533" lon="10.7354383"><ele>848.0</ele><time>2026-05-03T12:26:11.748Z</time></trkpt><trkpt lat="44.3072217" lon="10.735595"><ele>848.5</ele><time>2026-05-03T12:26:12.748Z</time></trkpt><trkpt lat="44.30719" lon="10.7357433"><ele>849.0</ele><time>2026-05-03T12:26:13.747Z</time></trkpt><trkpt lat="44.3071533" lon="10.7358833"><ele>846.0</ele><time>2026-05-03T12:26:14.748Z</time></trkpt><trkpt lat="44.307125" lon="10.73601"><ele>843.0</ele><time>2026-05-03T12:26:15.748Z</time></trkpt><trkpt lat="44.307105" lon="10.7361367"><ele>840.0</ele><time>2026-05-03T12:26:16.748Z</time></trkpt><trkpt lat="44.3070867" lon="10.736255"><ele>837.0</ele><time>2026-05-03T12:26:17.748Z</time></trkpt><trkpt lat="44.3070683" lon="10.7363467"><ele>834.0</ele><time>2026-05-03T12:26:18.748Z</time></trkpt><trkpt lat="44.3069683" lon="10.7364483"><ele>834.0</ele><time>2026-05-03T12:26:20.747Z</time></trkpt><trkpt lat="44.3068767" lon="10.7364783"><ele>834.0</ele><time>2026-05-03T12:26:21.748Z</time></trkpt><trkpt lat="44.3067783" lon="10.7365383"><ele>834.0</ele><time>2026-05-03T12:26:22.748Z</time></trkpt><trkpt lat="44.3066933" lon="10.7366083"><ele>834.0</ele><time>2026-05-03T12:26:23.748Z</time></trkpt><trkpt lat="44.3066067" lon="10.7366983"><ele>834.0</ele><time>2026-05-03T12:26:24.748Z</time></trkpt><trkpt lat="44.3065183" lon="10.7367767"><ele>834.0</ele><time>2026-05-03T12:26:25.747Z</time></trkpt><trkpt lat="44.3064333" lon="10.7368567"><ele>834.0</ele><time>2026-05-03T12:26:26.748Z</time></trkpt><trkpt lat="44.3063517" lon="10.73694"><ele>834.0</ele><time>2026-05-03T12:26:27.748Z</time></trkpt><trkpt lat="44.306275" lon="10.737025"><ele>834.0</ele><time>2026-05-03T12:26:28.747Z</time></trkpt><trkpt lat="44.30621" lon="10.7371083"><ele>834.0</ele><time>2026-05-03T12:26:29.748Z</time></trkpt><trkpt lat="44.3061567" lon="10.7371883"><ele>833.3333333333334</ele><time>2026-05-03T12:26:30.748Z</time></trkpt><trkpt lat="44.3060867" lon="10.7372567"><ele>832.6666666666667</ele><time>2026-05-03T12:26:31.748Z</time></trkpt><trkpt lat="44.3060067" lon="10.7373133"><ele>832.0</ele><time>2026-05-03T12:26:32.748Z</time></trkpt><trkpt lat="44.305925" lon="10.7373583"><ele>831.3333333333334</ele><time>2026-05-03T12:26:33.748Z</time></trkpt><trkpt lat="44.3058433" lon="10.7374033"><ele>830.6666666666667</ele><time>2026-05-03T12:26:34.748Z</time></trkpt><trkpt lat="44.3057617" lon="10.7374417"><ele>830.0</ele><time>2026-05-03T12:26:35.748Z</time></trkpt><trkpt lat="44.3056967" lon="10.737465"><ele>830.0000000000001</ele><time>2026-05-03T12:26:36.748Z</time></trkpt><trkpt lat="44.3056067" lon="10.73745"><ele>830.0</ele><time>2026-05-03T12:26:38.748Z</time></trkpt><trkpt lat="44.3055433" lon="10.7373"><ele>830.0</ele><time>2026-05-03T12:26:40.748Z</time></trkpt><trkpt lat="44.305545" lon="10.7371917"><ele>830.0</ele><time>2026-05-03T12:26:41.748Z</time></trkpt><trkpt lat="44.3055667" lon="10.7370983"><ele>830.0000000000001</ele><time>2026-05-03T12:26:42.748Z</time></trkpt><trkpt lat="44.3056117" lon="10.7370017"><ele>830.0</ele><time>2026-05-03T12:26:43.748Z</time></trkpt><trkpt lat="44.3056767" lon="10.736895"><ele>829.1666666666667</ele><time>2026-05-03T12:26:44.748Z</time></trkpt><trkpt lat="44.3057483" lon="10.7367917"><ele>828.3333333333334</ele><time>2026-05-03T12:26:45.748Z</time></trkpt><trkpt lat="44.3058167" lon="10.7367"><ele>827.5</ele><time>2026-05-03T12:26:46.748Z</time></trkpt><trkpt lat="44.30588" lon="10.7366267"><ele>826.6666666666667</ele><time>2026-05-03T12:26:47.747Z</time></trkpt><trkpt lat="44.3059367" lon="10.7365667"><ele>825.8333333333334</ele><time>2026-05-03T12:26:48.748Z</time></trkpt><trkpt lat="44.3059917" lon="10.73646"><ele>825.0</ele><time>2026-05-03T12:26:50.748Z</time></trkpt><trkpt lat="44.3059317" lon="10.73636"><ele>825.0</ele><time>2026-05-03T12:26:52.748Z</time></trkpt><trkpt lat="44.3058567" lon="10.736325"><ele>825.0</ele><time>2026-05-03T12:26:53.748Z</time></trkpt><trkpt lat="44.3057517" lon="10.7363033"><ele>825.0</ele><time>2026-05-03T12:26:54.748Z</time></trkpt><trkpt lat="44.30564" lon="10.73634"><ele>825.0</ele><time>2026-05-03T12:26:55.748Z</time></trkpt><trkpt lat="44.3055317" lon="10.7364117"><ele>825.0</ele><time>2026-05-03T12:26:56.748Z</time></trkpt><trkpt lat="44.3054217" lon="10.736515"><ele>823.5</ele><time>2026-05-03T12:26:57.748Z</time></trkpt><trkpt lat="44.3053233" lon="10.736605"><ele>822.0</ele><time>2026-05-03T12:26:58.748Z</time></trkpt><trkpt lat="44.3052267" lon="10.7366917"><ele>820.5</ele><time>2026-05-03T12:26:59.748Z</time></trkpt><trkpt lat="44.3051183" lon="10.7367867"><ele>819.0</ele><time>2026-05-03T12:27:00.747Z</time></trkpt><trkpt lat="44.3050233" lon="10.7368933"><ele>819.0</ele><time>2026-05-03T12:27:01.748Z</time></trkpt><trkpt lat="44.3049383" lon="10.7370017"><ele>819.0</ele><time>2026-05-03T12:27:02.748Z</time></trkpt><trkpt lat="44.3048567" lon="10.7371183"><ele>819.0</ele><time>2026-05-03T12:27:03.748Z</time></trkpt><trkpt lat="44.304785" lon="10.7372567"><ele>819.0</ele><time>2026-05-03T12:27:04.748Z</time></trkpt><trkpt lat="44.3047183" lon="10.737395"><ele>814.25</ele><time>2026-05-03T12:27:05.748Z</time></trkpt><trkpt lat="44.3046583" lon="10.7375533"><ele>809.5</ele><time>2026-05-03T12:27:06.747Z</time></trkpt><trkpt lat="44.3045917" lon="10.737715"><ele>804.75</ele><time>2026-05-03T12:27:07.748Z</time></trkpt><trkpt lat="44.30452" lon="10.7378783"><ele>800.0</ele><time>2026-05-03T12:27:08.747Z</time></trkpt><trkpt lat="44.3044433" lon="10.738005"><ele>800.0000000000001</ele><time>2026-05-03T12:27:09.748Z</time></trkpt><trkpt lat="44.3043783" lon="10.73812"><ele>800.0</ele><time>2026-05-03T12:27:10.748Z</time></trkpt><trkpt lat="44.304345" lon="10.7382217"><ele>800.0</ele><time>2026-05-03T12:27:11.748Z</time></trkpt><trkpt lat="44.3043383" lon="10.7383317"><ele>800.0</ele><time>2026-05-03T12:27:12.748Z</time></trkpt><trkpt lat="44.3043533" lon="10.7384533"><ele>800.0000000000001</ele><time>2026-05-03T12:27:13.748Z</time></trkpt><trkpt lat="44.3043817" lon="10.73858"><ele>800.0</ele><time>2026-05-03T12:27:14.748Z</time></trkpt><trkpt lat="44.3044283" lon="10.7387383"><ele>797.75</ele><time>2026-05-03T12:27:15.748Z</time></trkpt><trkpt lat="44.3044533" lon="10.7389217"><ele>795.5</ele><time>2026-05-03T12:27:16.747Z</time></trkpt><trkpt lat="44.3044733" lon="10.7391367"><ele>793.25</ele><time>2026-05-03T12:27:17.748Z</time></trkpt><trkpt lat="44.3044833" lon="10.7393467"><ele>791.0</ele><time>2026-05-03T12:27:18.748Z</time></trkpt><trkpt lat="44.3045033" lon="10.7395483"><ele>787.6666666666667</ele><time>2026-05-03T12:27:19.748Z</time></trkpt><trkpt lat="44.30452" lon="10.7397633"><ele>784.3333333333333</ele><time>2026-05-03T12:27:20.748Z</time></trkpt><trkpt lat="44.304525" lon="10.7399733"><ele>781.0</ele><time>2026-05-03T12:27:21.748Z</time></trkpt><trkpt lat="44.304525" lon="10.7401833"><ele>780.0</ele><time>2026-05-03T12:27:22.748Z</time></trkpt><trkpt lat="44.3045267" lon="10.7403867"><ele>779.0</ele><time>2026-05-03T12:27:23.747Z</time></trkpt><trkpt lat="44.3045267" lon="10.7405783"><ele>778.0</ele><time>2026-05-03T12:27:24.748Z</time></trkpt><trkpt lat="44.3045283" lon="10.7407567"><ele>777.0</ele><time>2026-05-03T12:27:25.748Z</time></trkpt><trkpt lat="44.3045167" lon="10.7409183"><ele>776.0</ele><time>2026-05-03T12:27:26.748Z</time></trkpt><trkpt lat="44.3044967" lon="10.7410567"><ele>775.0</ele><time>2026-05-03T12:27:27.748Z</time></trkpt><trkpt lat="44.3044567" lon="10.7411817"><ele>774.0</ele><time>2026-05-03T12:27:28.748Z</time></trkpt><trkpt lat="44.3044117" lon="10.7413"><ele>773.0</ele><time>2026-05-03T12:27:29.748Z</time></trkpt><trkpt lat="44.3043617" lon="10.741395"><ele>772.0</ele><time>2026-05-03T12:27:30.748Z</time></trkpt><trkpt lat="44.304315" lon="10.7414917"><ele>772.0000000000001</ele><time>2026-05-03T12:27:31.748Z</time></trkpt><trkpt lat="44.304265" lon="10.7415667"><ele>772.0</ele><time>2026-05-03T12:27:32.748Z</time></trkpt><trkpt lat="44.3042233" lon="10.74164"><ele>772.0</ele><time>2026-05-03T12:27:33.748Z</time></trkpt><trkpt lat="44.3041883" lon="10.7417183"><ele>772.0</ele><time>2026-05-03T12:27:34.748Z</time></trkpt><trkpt lat="44.3041567" lon="10.7418133"><ele>772.0</ele><time>2026-05-03T12:27:35.748Z</time></trkpt><trkpt lat="44.3041417" lon="10.74191"><ele>772.0000000000001</ele><time>2026-05-03T12:27:36.748Z</time></trkpt><trkpt lat="44.3041333" lon="10.74201"><ele>772.0</ele><time>2026-05-03T12:27:37.748Z</time></trkpt><trkpt lat="44.30413" lon="10.74212"><ele>770.6666666666666</ele><time>2026-05-03T12:27:38.748Z</time></trkpt><trkpt lat="44.304115" lon="10.7422267"><ele>769.3333333333333</ele><time>2026-05-03T12:27:39.748Z</time></trkpt><trkpt lat="44.3040883" lon="10.74233"><ele>768.0</ele><time>2026-05-03T12:27:40.748Z</time></trkpt><trkpt lat="44.304005" lon="10.7424783"><ele>766.6666666666666</ele><time>2026-05-03T12:27:42.748Z</time></trkpt><trkpt lat="44.3039433" lon="10.74253"><ele>765.3333333333333</ele><time>2026-05-03T12:27:43.748Z</time></trkpt><trkpt lat="44.303885" lon="10.7425933"><ele>764.0</ele><time>2026-05-03T12:27:44.747Z</time></trkpt><trkpt lat="44.3038467" lon="10.7426667"><ele>761.0</ele><time>2026-05-03T12:27:45.747Z</time></trkpt><trkpt lat="44.3037617" lon="10.7427683"><ele>758.0</ele><time>2026-05-03T12:27:47.748Z</time></trkpt><trkpt lat="44.3036933" lon="10.7428067"><ele>755.0</ele><time>2026-05-03T12:27:48.747Z</time></trkpt><trkpt lat="44.3036217" lon="10.7428567"><ele>752.0</ele><time>2026-05-03T12:27:49.748Z</time></trkpt><trkpt lat="44.3035517" lon="10.7429083"><ele>749.0</ele><time>2026-05-03T12:27:50.747Z</time></trkpt><trkpt lat="44.3034867" lon="10.7429767"><ele>746.0</ele><time>2026-05-03T12:27:51.747Z</time></trkpt><trkpt lat="44.3034217" lon="10.7430567"><ele>746.0</ele><time>2026-05-03T12:27:52.748Z</time></trkpt><trkpt lat="44.30336" lon="10.7431333"><ele>746.0</ele><time>2026-05-03T12:27:53.748Z</time></trkpt><trkpt lat="44.3033017" lon="10.743205"><ele>746.0</ele><time>2026-05-03T12:27:54.748Z</time></trkpt><trkpt lat="44.3032483" lon="10.7432833"><ele>746.0</ele><time>2026-05-03T12:27:55.748Z</time></trkpt><trkpt lat="44.303205" lon="10.7433583"><ele>746.0</ele><time>2026-05-03T12:27:56.747Z</time></trkpt><trkpt lat="44.3031583" lon="10.74343"><ele>746.0</ele><time>2026-05-03T12:27:57.748Z</time></trkpt><trkpt lat="44.30311" lon="10.74349"><ele>746.0</ele><time>2026-05-03T12:27:58.748Z</time></trkpt><trkpt lat="44.3030617" lon="10.7435567"><ele>741.1999999999999</ele><time>2026-05-03T12:27:59.748Z</time></trkpt><trkpt lat="44.302965" lon="10.7436267"><ele>736.4</ele><time>2026-05-03T12:28:01.748Z</time></trkpt><trkpt lat="44.302835" lon="10.7436417"><ele>731.6</ele><time>2026-05-03T12:28:03.748Z</time></trkpt><trkpt lat="44.3027517" lon="10.7436383"><ele>726.8</ele><time>2026-05-03T12:28:04.748Z</time></trkpt><trkpt lat="44.3026667" lon="10.7436317"><ele>722.0</ele><time>2026-05-03T12:28:05.747Z</time></trkpt><trkpt lat="44.302585" lon="10.7436267"><ele>722.0</ele><time>2026-05-03T12:28:06.748Z</time></trkpt><trkpt lat="44.302505" lon="10.7436367"><ele>722.0</ele><time>2026-05-03T12:28:07.747Z</time></trkpt><trkpt lat="44.3024217" lon="10.74366"><ele>722.0</ele><time>2026-05-03T12:28:08.748Z</time></trkpt><trkpt lat="44.3023317" lon="10.7436967"><ele>722.0</ele><time>2026-05-03T12:28:09.748Z</time></trkpt><trkpt lat="44.3022417" lon="10.7437333"><ele>722.0</ele><time>2026-05-03T12:28:10.748Z</time></trkpt><trkpt lat="44.3021467" lon="10.7437733"><ele>719.1428571428572</ele><time>2026-05-03T12:28:11.748Z</time></trkpt><trkpt lat="44.302055" lon="10.74382"><ele>716.2857142857142</ele><time>2026-05-03T12:28:12.748Z</time></trkpt><trkpt lat="44.3019817" lon="10.7438467"><ele>713.4285714285714</ele><time>2026-05-03T12:28:13.748Z</time></trkpt><trkpt lat="44.3019217" lon="10.7438867"><ele>710.5714285714287</ele><time>2026-05-03T12:28:14.748Z</time></trkpt><trkpt lat="44.301865" lon="10.7439317"><ele>707.7142857142858</ele><time>2026-05-03T12:28:15.748Z</time></trkpt><trkpt lat="44.3018017" lon="10.7439583"><ele>704.8571428571429</ele><time>2026-05-03T12:28:16.747Z</time></trkpt><trkpt lat="44.3017283" lon="10.743975"><ele>702.0</ele><time>2026-05-03T12:28:17.748Z</time></trkpt><trkpt lat="44.301655" lon="10.74399"><ele>702.0</ele><time>2026-05-03T12:28:18.748Z</time></trkpt><trkpt lat="44.3015783" lon="10.7440067"><ele>702.0</ele><time>2026-05-03T12:28:19.748Z</time></trkpt><trkpt lat="44.30151" lon="10.7440333"><ele>702.0</ele><time>2026-05-03T12:28:20.748Z</time></trkpt><trkpt lat="44.3014467" lon="10.744055"><ele>702.0</ele><time>2026-05-03T12:28:21.748Z</time></trkpt><trkpt lat="44.30134" lon="10.744075"><ele>702.0</ele><time>2026-05-03T12:28:23.747Z</time></trkpt><trkpt lat="44.301265" lon="10.7440867"><ele>702.0</ele><time>2026-05-03T12:28:25.747Z</time></trkpt><trkpt lat="44.3011967" lon="10.7441717"><ele>700.0</ele><time>2026-05-03T12:28:41.747Z</time></trkpt><trkpt lat="44.3012217" lon="10.74431"><ele>698.0</ele><time>2026-05-03T12:28:43.747Z</time></trkpt><trkpt lat="44.3013" lon="10.744455"><ele>696.0</ele><time>2026-05-03T12:28:45.748Z</time></trkpt><trkpt lat="44.30136" lon="10.7445333"><ele>694.0</ele><time>2026-05-03T12:28:46.747Z</time></trkpt><trkpt lat="44.3014133" lon="10.7446083"><ele>692.0</ele><time>2026-05-03T12:28:47.748Z</time></trkpt><trkpt lat="44.30146" lon="10.7446933"><ele>692.0</ele><time>2026-05-03T12:28:48.748Z</time></trkpt><trkpt lat="44.3015067" lon="10.7447933"><ele>692.0</ele><time>2026-05-03T12:28:49.748Z</time></trkpt><trkpt lat="44.301545" lon="10.7449033"><ele>692.0</ele><time>2026-05-03T12:28:50.747Z</time></trkpt><trkpt lat="44.3015767" lon="10.7450083"><ele>692.0</ele><time>2026-05-03T12:28:51.748Z</time></trkpt><trkpt lat="44.30161" lon="10.7451133"><ele>692.0</ele><time>2026-05-03T12:28:52.748Z</time></trkpt><trkpt lat="44.3016433" lon="10.7452167"><ele>692.0</ele><time>2026-05-03T12:28:53.748Z</time></trkpt><trkpt lat="44.3016833" lon="10.74533"><ele>689.0</ele><time>2026-05-03T12:28:54.747Z</time></trkpt><trkpt lat="44.3017083" lon="10.7454417"><ele>686.0</ele><time>2026-05-03T12:28:55.748Z</time></trkpt><trkpt lat="44.3017417" lon="10.7455533"><ele>683.0</ele><time>2026-05-03T12:28:56.748Z</time></trkpt><trkpt lat="44.3017733" lon="10.7456583"><ele>680.0</ele><time>2026-05-03T12:28:57.748Z</time></trkpt><trkpt lat="44.3017933" lon="10.7457683"><ele>677.0</ele><time>2026-05-03T12:28:58.748Z</time></trkpt><trkpt lat="44.3018117" lon="10.7458767"><ele>674.0</ele><time>2026-05-03T12:28:59.748Z</time></trkpt><trkpt lat="44.30184" lon="10.745965"><ele>671.2</ele><time>2026-05-03T12:29:00.748Z</time></trkpt><trkpt lat="44.301885" lon="10.7460567"><ele>668.4000000000001</ele><time>2026-05-03T12:29:01.748Z</time></trkpt><trkpt lat="44.3019383" lon="10.746145"><ele>665.6</ele><time>2026-05-03T12:29:02.748Z</time></trkpt><trkpt lat="44.302015" lon="10.746225"><ele>662.8</ele><time>2026-05-03T12:29:03.748Z</time></trkpt><trkpt lat="44.3021117" lon="10.7463017"><ele>660.0</ele><time>2026-05-03T12:29:04.748Z</time></trkpt><trkpt lat="44.3022033" lon="10.746375"><ele>661.6</ele><time>2026-05-03T12:29:05.748Z</time></trkpt><trkpt lat="44.3022833" lon="10.7464567"><ele>663.2</ele><time>2026-05-03T12:29:06.748Z</time></trkpt><trkpt lat="44.302355" lon="10.7465267"><ele>664.8</ele><time>2026-05-03T12:29:07.748Z</time></trkpt><trkpt lat="44.3024183" lon="10.7465717"><ele>666.4</ele><time>2026-05-03T12:29:08.748Z</time></trkpt><trkpt lat="44.302485" lon="10.7466817"><ele>668.0</ele><time>2026-05-03T12:29:10.748Z</time></trkpt><trkpt lat="44.3025117" lon="10.7468667"><ele>666.0</ele><time>2026-05-03T12:29:12.747Z</time></trkpt><trkpt lat="44.3025317" lon="10.7469867"><ele>664.0</ele><time>2026-05-03T12:29:13.748Z</time></trkpt><trkpt lat="44.3025667" lon="10.747115"><ele>662.0</ele><time>2026-05-03T12:29:14.748Z</time></trkpt><trkpt lat="44.3026133" lon="10.7472417"><ele>660.0</ele><time>2026-05-03T12:29:15.748Z</time></trkpt><trkpt lat="44.3026683" lon="10.7473567"><ele>658.0</ele><time>2026-05-03T12:29:16.748Z</time></trkpt><trkpt lat="44.30272" lon="10.74748"><ele>658.0</ele><time>2026-05-03T12:29:17.748Z</time></trkpt><trkpt lat="44.3027583" lon="10.7476033"><ele>658.0</ele><time>2026-05-03T12:29:18.747Z</time></trkpt><trkpt lat="44.3027867" lon="10.747745"><ele>658.0</ele><time>2026-05-03T12:29:19.748Z</time></trkpt><trkpt lat="44.302815" lon="10.7478883"><ele>658.0</ele><time>2026-05-03T12:29:20.747Z</time></trkpt><trkpt lat="44.3028617" lon="10.7480217"><ele>658.0</ele><time>2026-05-03T12:29:21.748Z</time></trkpt><trkpt lat="44.302915" lon="10.74817"><ele>659.2</ele><time>2026-05-03T12:29:22.748Z</time></trkpt><trkpt lat="44.3029717" lon="10.7483"><ele>660.4</ele><time>2026-05-03T12:29:23.747Z</time></trkpt><trkpt lat="44.3030367" lon="10.7484167"><ele>661.6</ele><time>2026-05-03T12:29:24.748Z</time></trkpt><trkpt lat="44.303095" lon="10.7485267"><ele>662.8000000000001</ele><time>2026-05-03T12:29:25.748Z</time></trkpt><trkpt lat="44.3031633" lon="10.7486267"><ele>664.0</ele><time>2026-05-03T12:29:26.748Z</time></trkpt><trkpt lat="44.30325" lon="10.7487167"><ele>660.75</ele><time>2026-05-03T12:29:27.748Z</time></trkpt><trkpt lat="44.30334" lon="10.7488017"><ele>657.5</ele><time>2026-05-03T12:29:28.747Z</time></trkpt><trkpt lat="44.3034367" lon="10.7488733"><ele>654.25</ele><time>2026-05-03T12:29:29.748Z</time></trkpt><trkpt lat="44.30354" lon="10.7489467"><ele>651.0</ele><time>2026-05-03T12:29:30.748Z</time></trkpt><trkpt lat="44.3036417" lon="10.7490283"><ele>651.0</ele><time>2026-05-03T12:29:31.748Z</time></trkpt><trkpt lat="44.3037367" lon="10.749105"><ele>651.0</ele><time>2026-05-03T12:29:32.748Z</time></trkpt><trkpt lat="44.30382" lon="10.74917"><ele>651.0</ele><time>2026-05-03T12:29:33.748Z</time></trkpt><trkpt lat="44.3038933" lon="10.749215"><ele>651.0</ele><time>2026-05-03T12:29:34.747Z</time></trkpt><trkpt lat="44.303955" lon="10.749265"><ele>651.0</ele><time>2026-05-03T12:29:35.747Z</time></trkpt><trkpt lat="44.3040117" lon="10.749395"><ele>650.5999999999999</ele><time>2026-05-03T12:29:37.747Z</time></trkpt><trkpt lat="44.3040217" lon="10.749495"><ele>650.2</ele><time>2026-05-03T12:29:38.748Z</time></trkpt><trkpt lat="44.3040267" lon="10.7496117"><ele>649.8</ele><time>2026-05-03T12:29:39.748Z</time></trkpt><trkpt lat="44.3040333" lon="10.7497417"><ele>649.4000000000001</ele><time>2026-05-03T12:29:40.747Z</time></trkpt><trkpt lat="44.304045" lon="10.7498817"><ele>649.0</ele><time>2026-05-03T12:29:41.748Z</time></trkpt><trkpt lat="44.3040567" lon="10.75002"><ele>649.0</ele><time>2026-05-03T12:29:42.748Z</time></trkpt><trkpt lat="44.3040767" lon="10.7501583"><ele>649.0</ele><time>2026-05-03T12:29:43.747Z</time></trkpt><trkpt lat="44.3041" lon="10.7502867"><ele>649.0</ele><time>2026-05-03T12:29:44.748Z</time></trkpt><trkpt lat="44.3041317" lon="10.7504033"><ele>649.0</ele><time>2026-05-03T12:29:45.747Z</time></trkpt><trkpt lat="44.3041733" lon="10.7505133"><ele>649.0</ele><time>2026-05-03T12:29:46.747Z</time></trkpt><trkpt lat="44.3042233" lon="10.7506183"><ele>647.3333333333334</ele><time>2026-05-03T12:29:47.748Z</time></trkpt><trkpt lat="44.3042717" lon="10.7507117"><ele>645.6666666666667</ele><time>2026-05-03T12:29:48.748Z</time></trkpt><trkpt lat="44.3043033" lon="10.7508"><ele>644.0</ele><time>2026-05-03T12:29:49.748Z</time></trkpt><trkpt lat="44.304305" lon="10.7509083"><ele>642.3333333333334</ele><time>2026-05-03T12:29:50.748Z</time></trkpt><trkpt lat="44.3042867" lon="10.7510317"><ele>640.6666666666666</ele><time>2026-05-03T12:29:51.748Z</time></trkpt><trkpt lat="44.3042733" lon="10.7511667"><ele>639.0</ele><time>2026-05-03T12:29:52.748Z</time></trkpt><trkpt lat="44.3042633" lon="10.7513167"><ele>638.8</ele><time>2026-05-03T12:29:53.748Z</time></trkpt><trkpt lat="44.3042417" lon="10.7514683"><ele>638.5999999999999</ele><time>2026-05-03T12:29:54.748Z</time></trkpt><trkpt lat="44.304215" lon="10.7516083"><ele>638.4</ele><time>2026-05-03T12:29:55.748Z</time></trkpt><trkpt lat="44.3041967" lon="10.7517267"><ele>638.1999999999999</ele><time>2026-05-03T12:29:56.747Z</time></trkpt><trkpt lat="44.3041767" lon="10.751845"><ele>638.0</ele><time>2026-05-03T12:29:57.748Z</time></trkpt><trkpt lat="44.304155" lon="10.75197"><ele>638.0</ele><time>2026-05-03T12:29:58.748Z</time></trkpt><trkpt lat="44.304135" lon="10.7520817"><ele>638.0</ele><time>2026-05-03T12:29:59.748Z</time></trkpt><trkpt lat="44.3041117" lon="10.752185"><ele>638.0</ele><time>2026-05-03T12:30:00.748Z</time></trkpt><trkpt lat="44.3040883" lon="10.7522917"><ele>638.0</ele><time>2026-05-03T12:30:02.748Z</time></trkpt><trkpt lat="44.304025" lon="10.752295"><ele>638.0</ele><time>2026-05-03T12:30:09.748Z</time></trkpt><trkpt lat="44.3039767" lon="10.7522217"><ele>638.0</ele><time>2026-05-03T12:30:11.747Z</time></trkpt><trkpt lat="44.3038867" lon="10.7522117"><ele>635.6666666666666</ele><time>2026-05-03T12:30:18.747Z</time></trkpt><trkpt lat="44.3038067" lon="10.7522483"><ele>633.3333333333333</ele><time>2026-05-03T12:30:20.747Z</time></trkpt><trkpt lat="44.3036983" lon="10.7523117"><ele>631.0</ele><time>2026-05-03T12:30:22.746Z</time></trkpt><trkpt lat="44.3036367" lon="10.7523517"><ele>628.6666666666666</ele><time>2026-05-03T12:30:23.747Z</time></trkpt><trkpt lat="44.303575" lon="10.75241"><ele>626.3333333333334</ele><time>2026-05-03T12:30:24.747Z</time></trkpt><trkpt lat="44.3034967" lon="10.752465"><ele>624.0</ele><time>2026-05-03T12:30:25.747Z</time></trkpt><trkpt lat="44.30341" lon="10.7525233"><ele>624.0</ele><time>2026-05-03T12:30:26.747Z</time></trkpt><trkpt lat="44.3033217" lon="10.7525983"><ele>624.0</ele><time>2026-05-03T12:30:27.746Z</time></trkpt><trkpt lat="44.3032283" lon="10.7526833"><ele>624.0</ele><time>2026-05-03T12:30:28.746Z</time></trkpt><trkpt lat="44.303145" lon="10.7527617"><ele>624.0</ele><time>2026-05-03T12:30:29.747Z</time></trkpt><trkpt lat="44.3030583" lon="10.7528317"><ele>624.0</ele><time>2026-05-03T12:30:30.747Z</time></trkpt><trkpt lat="44.3029917" lon="10.7529117"><ele>620.8333333333334</ele><time>2026-05-03T12:30:31.747Z</time></trkpt><trkpt lat="44.3029267" lon="10.7529833"><ele>617.6666666666666</ele><time>2026-05-03T12:30:32.747Z</time></trkpt><trkpt lat="44.3028717" lon="10.7530683"><ele>614.5</ele><time>2026-05-03T12:30:33.747Z</time></trkpt><trkpt lat="44.3028133" lon="10.753165"><ele>611.3333333333333</ele><time>2026-05-03T12:30:34.747Z</time></trkpt><trkpt lat="44.3027617" lon="10.75327"><ele>608.1666666666666</ele><time>2026-05-03T12:30:35.747Z</time></trkpt><trkpt lat="44.3026983" lon="10.7533617"><ele>605.0</ele><time>2026-05-03T12:30:36.747Z</time></trkpt><trkpt lat="44.30263" lon="10.753425"><ele>605.0</ele><time>2026-05-03T12:30:37.747Z</time></trkpt><trkpt lat="44.3025567" lon="10.753475"><ele>605.0</ele><time>2026-05-03T12:30:38.746Z</time></trkpt><trkpt lat="44.3024717" lon="10.7534917"><ele>605.0</ele><time>2026-05-03T12:30:39.747Z</time></trkpt><trkpt lat="44.30239" lon="10.7534833"><ele>605.0</ele><time>2026-05-03T12:30:40.746Z</time></trkpt><trkpt lat="44.3023117" lon="10.7534617"><ele>605.0</ele><time>2026-05-03T12:30:41.747Z</time></trkpt><trkpt lat="44.3022433" lon="10.7534233"><ele>605.0</ele><time>2026-05-03T12:30:42.747Z</time></trkpt><trkpt lat="44.3021667" lon="10.753365"><ele>601.6666666666666</ele><time>2026-05-03T12:30:43.746Z</time></trkpt><trkpt lat="44.3020933" lon="10.7533033"><ele>598.3333333333333</ele><time>2026-05-03T12:30:44.747Z</time></trkpt><trkpt lat="44.3020267" lon="10.7532633"><ele>595.0</ele><time>2026-05-03T12:30:45.747Z</time></trkpt><trkpt lat="44.30196" lon="10.75326"><ele>591.6666666666666</ele><time>2026-05-03T12:30:46.747Z</time></trkpt><trkpt lat="44.30189" lon="10.7532983"><ele>588.3333333333334</ele><time>2026-05-03T12:30:47.747Z</time></trkpt><trkpt lat="44.301815" lon="10.7533633"><ele>585.0</ele><time>2026-05-03T12:30:48.747Z</time></trkpt><trkpt lat="44.3017367" lon="10.7534583"><ele>583.75</ele><time>2026-05-03T12:30:49.746Z</time></trkpt><trkpt lat="44.3016483" lon="10.7535717"><ele>582.5</ele><time>2026-05-03T12:30:50.747Z</time></trkpt><trkpt lat="44.3015517" lon="10.753685"><ele>581.25</ele><time>2026-05-03T12:30:51.747Z</time></trkpt><trkpt lat="44.301455" lon="10.7537933"><ele>580.0</ele><time>2026-05-03T12:30:52.746Z</time></trkpt><trkpt lat="44.3013667" lon="10.7538833"><ele>576.2</ele><time>2026-05-03T12:30:53.747Z</time></trkpt><trkpt lat="44.3012917" lon="10.75397"><ele>572.4</ele><time>2026-05-03T12:30:54.747Z</time></trkpt><trkpt lat="44.3012233" lon="10.7540417"><ele>568.6</ele><time>2026-05-03T12:30:55.747Z</time></trkpt><trkpt lat="44.3011617" lon="10.7540833"><ele>564.8</ele><time>2026-05-03T12:30:56.747Z</time></trkpt><trkpt lat="44.3010683" lon="10.754075"><ele>561.0</ele><time>2026-05-03T12:30:58.747Z</time></trkpt><trkpt lat="44.3010067" lon="10.7539433"><ele>561.0</ele><time>2026-05-03T12:31:00.747Z</time></trkpt><trkpt lat="44.30099" lon="10.7538067"><ele>561.0</ele><time>2026-05-03T12:31:01.747Z</time></trkpt><trkpt lat="44.3009867" lon="10.75364"><ele>561.0</ele><time>2026-05-03T12:31:02.747Z</time></trkpt><trkpt lat="44.300985" lon="10.753465"><ele>561.0</ele><time>2026-05-03T12:31:03.746Z</time></trkpt><trkpt lat="44.3009683" lon="10.7532883"><ele>561.8</ele><time>2026-05-03T12:31:04.747Z</time></trkpt><trkpt lat="44.3009367" lon="10.753135"><ele>562.6</ele><time>2026-05-03T12:31:05.747Z</time></trkpt><trkpt lat="44.300895" lon="10.7529867"><ele>563.4</ele><time>2026-05-03T12:31:06.747Z</time></trkpt><trkpt lat="44.3008417" lon="10.7528717"><ele>564.2</ele><time>2026-05-03T12:31:07.747Z</time></trkpt><trkpt lat="44.30078" lon="10.7527883"><ele>565.0</ele><time>2026-05-03T12:31:08.747Z</time></trkpt><trkpt lat="44.3007333" lon="10.7526983"><ele>564.0</ele><time>2026-05-03T12:31:09.746Z</time></trkpt><trkpt lat="44.3007067" lon="10.7525933"><ele>563.0</ele><time>2026-05-03T12:31:10.747Z</time></trkpt><trkpt lat="44.3006767" lon="10.7524633"><ele>562.0</ele><time>2026-05-03T12:31:11.747Z</time></trkpt><trkpt lat="44.3006467" lon="10.7523167"><ele>561.0</ele><time>2026-05-03T12:31:12.747Z</time></trkpt><trkpt lat="44.3006117" lon="10.7521667"><ele>560.0</ele><time>2026-05-03T12:31:13.747Z</time></trkpt><trkpt lat="44.3005683" lon="10.75206"><ele>560.0</ele><time>2026-05-03T12:31:14.747Z</time></trkpt><trkpt lat="44.300525" lon="10.7519783"><ele>560.0</ele><time>2026-05-03T12:31:15.747Z</time></trkpt><trkpt lat="44.300465" lon="10.7519283"><ele>560.0</ele><time>2026-05-03T12:31:16.747Z</time></trkpt><trkpt lat="44.300395" lon="10.7518867"><ele>560.0</ele><time>2026-05-03T12:31:17.747Z</time></trkpt><trkpt lat="44.3002983" lon="10.7518633"><ele>560.0</ele><time>2026-05-03T12:31:18.746Z</time></trkpt><trkpt lat="44.3002133" lon="10.7518267"><ele>560.0</ele><time>2026-05-03T12:31:19.746Z</time></trkpt><trkpt lat="44.3001467" lon="10.7517783"><ele>561.4</ele><time>2026-05-03T12:31:20.747Z</time></trkpt><trkpt lat="44.3000917" lon="10.7516233"><ele>562.8</ele><time>2026-05-03T12:31:22.747Z</time></trkpt><trkpt lat="44.3000683" lon="10.7515017"><ele>564.2</ele><time>2026-05-03T12:31:23.747Z</time></trkpt><trkpt lat="44.300035" lon="10.7514"><ele>565.6</ele><time>2026-05-03T12:31:24.747Z</time></trkpt><trkpt lat="44.29999" lon="10.751285"><ele>567.0</ele><time>2026-05-03T12:31:26.747Z</time></trkpt><trkpt lat="44.299955" lon="10.7511383"><ele>567.5</ele><time>2026-05-03T12:31:28.747Z</time></trkpt><trkpt lat="44.2999483" lon="10.7510267"><ele>568.0</ele><time>2026-05-03T12:31:29.747Z</time></trkpt><trkpt lat="44.2999367" lon="10.7509083"><ele>568.5</ele><time>2026-05-03T12:31:30.746Z</time></trkpt><trkpt lat="44.299915" lon="10.750785"><ele>569.0</ele><time>2026-05-03T12:31:31.746Z</time></trkpt><trkpt lat="44.2998717" lon="10.7506783"><ele>569.5</ele><time>2026-05-03T12:31:32.747Z</time></trkpt><trkpt lat="44.29981" lon="10.750575"><ele>570.0</ele><time>2026-05-03T12:31:33.747Z</time></trkpt><trkpt lat="44.2997517" lon="10.7504967"><ele>569.1666666666666</ele><time>2026-05-03T12:31:34.747Z</time></trkpt><trkpt lat="44.2996783" lon="10.7504417"><ele>568.3333333333334</ele><time>2026-05-03T12:31:35.747Z</time></trkpt><trkpt lat="44.2996" lon="10.7504"><ele>567.5</ele><time>2026-05-03T12:31:36.747Z</time></trkpt><trkpt lat="44.299515" lon="10.7503667"><ele>566.6666666666667</ele><time>2026-05-03T12:31:37.747Z</time></trkpt><trkpt lat="44.2994383" lon="10.7503267"><ele>565.8333333333334</ele><time>2026-05-03T12:31:38.746Z</time></trkpt><trkpt lat="44.29938" lon="10.7502783"><ele>565.0</ele><time>2026-05-03T12:31:39.747Z</time></trkpt><trkpt lat="44.2992933" lon="10.750245"><ele>565.0</ele><time>2026-05-03T12:31:41.747Z</time></trkpt><trkpt lat="44.2992333" lon="10.75036"><ele>565.0</ele><time>2026-05-03T12:31:44.747Z</time></trkpt><trkpt lat="44.29921" lon="10.750445"><ele>565.0</ele><time>2026-05-03T12:31:45.747Z</time></trkpt><trkpt lat="44.2991833" lon="10.75056"><ele>565.0</ele><time>2026-05-03T12:31:46.747Z</time></trkpt><trkpt lat="44.299155" lon="10.750695"><ele>565.0</ele><time>2026-05-03T12:31:47.747Z</time></trkpt><trkpt lat="44.2991133" lon="10.7508367"><ele>565.0</ele><time>2026-05-03T12:31:48.747Z</time></trkpt><trkpt lat="44.2990583" lon="10.750965"><ele>565.0</ele><time>2026-05-03T12:31:49.747Z</time></trkpt><trkpt lat="44.2990017" lon="10.7510883"><ele>565.0</ele><time>2026-05-03T12:31:50.747Z</time></trkpt><trkpt lat="44.2989283" lon="10.7512033"><ele>565.0</ele><time>2026-05-03T12:31:51.747Z</time></trkpt><trkpt lat="44.2988667" lon="10.751295"><ele>565.0</ele><time>2026-05-03T12:31:52.747Z</time></trkpt><trkpt lat="44.2988233" lon="10.751395"><ele>563.4</ele><time>2026-05-03T12:31:53.747Z</time></trkpt><trkpt lat="44.2988133" lon="10.7514967"><ele>561.8</ele><time>2026-05-03T12:31:54.747Z</time></trkpt><trkpt lat="44.2988183" lon="10.7516067"><ele>560.2</ele><time>2026-05-03T12:31:55.747Z</time></trkpt><trkpt lat="44.2988567" lon="10.751725"><ele>558.6</ele><time>2026-05-03T12:31:56.747Z</time></trkpt><trkpt lat="44.2989267" lon="10.7518417"><ele>557.0</ele><time>2026-05-03T12:31:57.747Z</time></trkpt><trkpt lat="44.2989833" lon="10.7519683"><ele>555.25</ele><time>2026-05-03T12:31:58.747Z</time></trkpt><trkpt lat="44.29901" lon="10.752115"><ele>553.5</ele><time>2026-05-03T12:31:59.746Z</time></trkpt><trkpt lat="44.29901" lon="10.7522717"><ele>551.75</ele><time>2026-05-03T12:32:00.747Z</time></trkpt><trkpt lat="44.2989833" lon="10.7524317"><ele>550.0</ele><time>2026-05-03T12:32:01.747Z</time></trkpt><trkpt lat="44.2989383" lon="10.7525967"><ele>547.8</ele><time>2026-05-03T12:32:02.747Z</time></trkpt><trkpt lat="44.298905" lon="10.752755"><ele>545.6</ele><time>2026-05-03T12:32:03.747Z</time></trkpt><trkpt lat="44.2988717" lon="10.7529033"><ele>543.4</ele><time>2026-05-03T12:32:04.747Z</time></trkpt><trkpt lat="44.2988517" lon="10.7530417"><ele>541.2</ele><time>2026-05-03T12:32:05.747Z</time></trkpt><trkpt lat="44.2988517" lon="10.7531833"><ele>539.0</ele><time>2026-05-03T12:32:06.747Z</time></trkpt><trkpt lat="44.2988667" lon="10.7533283"><ele>538.8</ele><time>2026-05-03T12:32:07.747Z</time></trkpt><trkpt lat="44.298925" lon="10.7534633"><ele>538.5999999999999</ele><time>2026-05-03T12:32:08.747Z</time></trkpt><trkpt lat="44.2990033" lon="10.7535817"><ele>538.4</ele><time>2026-05-03T12:32:09.747Z</time></trkpt><trkpt lat="44.2990917" lon="10.7536867"><ele>538.1999999999999</ele><time>2026-05-03T12:32:10.747Z</time></trkpt><trkpt lat="44.2991667" lon="10.7537833"><ele>538.0</ele><time>2026-05-03T12:32:11.747Z</time></trkpt><trkpt lat="44.2992033" lon="10.75389"><ele>538.0</ele><time>2026-05-03T12:32:12.747Z</time></trkpt><trkpt lat="44.2992233" lon="10.7540067"><ele>538.0</ele><time>2026-05-03T12:32:13.747Z</time></trkpt><trkpt lat="44.2992217" lon="10.7541283"><ele>538.0</ele><time>2026-05-03T12:32:14.747Z</time></trkpt><trkpt lat="44.2992017" lon="10.754255"><ele>538.0</ele><time>2026-05-03T12:32:15.747Z</time></trkpt><trkpt lat="44.2991567" lon="10.7543933"><ele>538.0</ele><time>2026-05-03T12:32:16.747Z</time></trkpt><trkpt lat="44.2990833" lon="10.7545317"><ele>536.25</ele><time>2026-05-03T12:32:17.747Z</time></trkpt><trkpt lat="44.2990017" lon="10.754655"><ele>534.5</ele><time>2026-05-03T12:32:18.747Z</time></trkpt><trkpt lat="44.2989083" lon="10.75476"><ele>532.75</ele><time>2026-05-03T12:32:19.747Z</time></trkpt><trkpt lat="44.2988117" lon="10.7548433"><ele>531.0</ele><time>2026-05-03T12:32:20.747Z</time></trkpt><trkpt lat="44.2986983" lon="10.7549117"><ele>529.25</ele><time>2026-05-03T12:32:21.747Z</time></trkpt><trkpt lat="44.2985817" lon="10.7550067"><ele>527.5</ele><time>2026-05-03T12:32:22.747Z</time></trkpt><trkpt lat="44.2984833" lon="10.7551117"><ele>525.75</ele><time>2026-05-03T12:32:23.747Z</time></trkpt><trkpt lat="44.2983933" lon="10.75524"><ele>524.0</ele><time>2026-05-03T12:32:24.747Z</time></trkpt><trkpt lat="44.298315" lon="10.75538"><ele>522.5</ele><time>2026-05-03T12:32:25.747Z</time></trkpt><trkpt lat="44.2982417" lon="10.755535"><ele>521.0</ele><time>2026-05-03T12:32:26.747Z</time></trkpt><trkpt lat="44.2981683" lon="10.7556733"><ele>519.5</ele><time>2026-05-03T12:32:27.747Z</time></trkpt><trkpt lat="44.298105" lon="10.7558183"><ele>518.0</ele><time>2026-05-03T12:32:28.747Z</time></trkpt><trkpt lat="44.2980383" lon="10.75594"><ele>516.8</ele><time>2026-05-03T12:32:29.747Z</time></trkpt><trkpt lat="44.297975" lon="10.7560217"><ele>515.5999999999999</ele><time>2026-05-03T12:32:30.747Z</time></trkpt><trkpt lat="44.2979" lon="10.756065"><ele>514.4000000000001</ele><time>2026-05-03T12:32:31.747Z</time></trkpt><trkpt lat="44.297825" lon="10.75605"><ele>513.2</ele><time>2026-05-03T12:32:32.747Z</time></trkpt><trkpt lat="44.2977517" lon="10.7559583"><ele>512.0</ele><time>2026-05-03T12:32:33.747Z</time></trkpt><trkpt lat="44.2976817" lon="10.755825"><ele>511.75</ele><time>2026-05-03T12:32:34.747Z</time></trkpt><trkpt lat="44.2976183" lon="10.7556783"><ele>511.5</ele><time>2026-05-03T12:32:35.747Z</time></trkpt><trkpt lat="44.2975533" lon="10.7555083"><ele>511.25</ele><time>2026-05-03T12:32:36.746Z</time></trkpt><trkpt lat="44.297495" lon="10.7553417"><ele>511.0</ele><time>2026-05-03T12:32:37.747Z</time></trkpt><trkpt lat="44.2974333" lon="10.7551883"><ele>510.83333333333337</ele><time>2026-05-03T12:32:38.747Z</time></trkpt><trkpt lat="44.297385" lon="10.7550667"><ele>510.6666666666667</ele><time>2026-05-03T12:32:39.747Z</time></trkpt><trkpt lat="44.2973233" lon="10.7549767"><ele>510.5</ele><time>2026-05-03T12:32:40.746Z</time></trkpt><trkpt lat="44.2972683" lon="10.75492"><ele>510.33333333333337</ele><time>2026-05-03T12:32:41.747Z</time></trkpt><trkpt lat="44.297185" lon="10.7548967"><ele>510.1666666666667</ele><time>2026-05-03T12:32:42.747Z</time></trkpt><trkpt lat="44.2971133" lon="10.75492"><ele>510.0</ele><time>2026-05-03T12:32:43.747Z</time></trkpt><trkpt lat="44.29705" lon="10.7549833"><ele>507.0</ele><time>2026-05-03T12:32:44.747Z</time></trkpt><trkpt lat="44.296985" lon="10.755105"><ele>504.0</ele><time>2026-05-03T12:32:45.747Z</time></trkpt><trkpt lat="44.2969133" lon="10.7552667"><ele>501.0</ele><time>2026-05-03T12:32:46.747Z</time></trkpt><trkpt lat="44.2968317" lon="10.7554433"><ele>498.0</ele><time>2026-05-03T12:32:47.747Z</time></trkpt><trkpt lat="44.2967467" lon="10.7556133"><ele>498.0</ele><time>2026-05-03T12:32:48.747Z</time></trkpt><trkpt lat="44.2966617" lon="10.7557617"><ele>498.0</ele><time>2026-05-03T12:32:49.747Z</time></trkpt><trkpt lat="44.29659" lon="10.7558917"><ele>498.0</ele><time>2026-05-03T12:32:50.746Z</time></trkpt><trkpt lat="44.2965367" lon="10.7560333"><ele>498.0</ele><time>2026-05-03T12:32:51.747Z</time></trkpt><trkpt lat="44.2964933" lon="10.7561917"><ele>498.2</ele><time>2026-05-03T12:32:52.747Z</time></trkpt><trkpt lat="44.29646" lon="10.756345"><ele>498.4</ele><time>2026-05-03T12:32:53.747Z</time></trkpt><trkpt lat="44.2964183" lon="10.7564867"><ele>498.59999999999997</ele><time>2026-05-03T12:32:54.747Z</time></trkpt><trkpt lat="44.296385" lon="10.7565933"><ele>498.79999999999995</ele><time>2026-05-03T12:32:55.747Z</time></trkpt><trkpt lat="44.2963483" lon="10.7566733"><ele>499.0</ele><time>2026-05-03T12:32:56.747Z</time></trkpt><trkpt lat="44.2962833" lon="10.756765"><ele>496.0</ele><time>2026-05-03T12:32:58.747Z</time></trkpt><trkpt lat="44.2961767" lon="10.7567317"><ele>493.0</ele><time>2026-05-03T12:33:01.747Z</time></trkpt><trkpt lat="44.29612" lon="10.7566567"><ele>490.0</ele><time>2026-05-03T12:33:02.747Z</time></trkpt><trkpt lat="44.296045" lon="10.7565633"><ele>487.0</ele><time>2026-05-03T12:33:03.747Z</time></trkpt><trkpt lat="44.2959483" lon="10.7564533"><ele>484.0</ele><time>2026-05-03T12:33:04.747Z</time></trkpt><trkpt lat="44.2958567" lon="10.7563417"><ele>484.0</ele><time>2026-05-03T12:33:05.747Z</time></trkpt><trkpt lat="44.29579" lon="10.7562117"><ele>484.0</ele><time>2026-05-03T12:33:06.747Z</time></trkpt><trkpt lat="44.2957383" lon="10.7560633"><ele>484.0</ele><time>2026-05-03T12:33:07.747Z</time></trkpt><trkpt lat="44.29574" lon="10.7558917"><ele>484.0</ele><time>2026-05-03T12:33:08.747Z</time></trkpt><trkpt lat="44.2957917" lon="10.7557317"><ele>484.25</ele><time>2026-05-03T12:33:09.747Z</time></trkpt><trkpt lat="44.295865" lon="10.7555833"><ele>484.5</ele><time>2026-05-03T12:33:10.746Z</time></trkpt><trkpt lat="44.2959633" lon="10.7554583"><ele>484.75</ele><time>2026-05-03T12:33:11.747Z</time></trkpt><trkpt lat="44.2960717" lon="10.75533"><ele>485.0</ele><time>2026-05-03T12:33:12.747Z</time></trkpt><trkpt lat="44.2961867" lon="10.755195"><ele>482.6</ele><time>2026-05-03T12:33:13.746Z</time></trkpt><trkpt lat="44.29628" lon="10.7550833"><ele>480.2</ele><time>2026-05-03T12:33:14.747Z</time></trkpt><trkpt lat="44.2963533" lon="10.75497"><ele>477.79999999999995</ele><time>2026-05-03T12:33:15.747Z</time></trkpt><trkpt lat="44.2963967" lon="10.754855"><ele>475.4</ele><time>2026-05-03T12:33:16.747Z</time></trkpt><trkpt lat="44.2964067" lon="10.7546917"><ele>473.0</ele><time>2026-05-03T12:33:17.747Z</time></trkpt><trkpt lat="44.2963733" lon="10.7545267"><ele>472.25</ele><time>2026-05-03T12:33:18.746Z</time></trkpt><trkpt lat="44.2963167" lon="10.7543567"><ele>471.5</ele><time>2026-05-03T12:33:19.747Z</time></trkpt><trkpt lat="44.2962667" lon="10.7541567"><ele>470.75</ele><time>2026-05-03T12:33:20.747Z</time></trkpt><trkpt lat="44.296215" lon="10.7539533"><ele>470.0</ele><time>2026-05-03T12:33:21.747Z</time></trkpt><trkpt lat="44.2961667" lon="10.75373"><ele>471.66666666666663</ele><time>2026-05-03T12:33:22.746Z</time></trkpt><trkpt lat="44.2961133" lon="10.75352"><ele>473.33333333333337</ele><time>2026-05-03T12:33:23.747Z</time></trkpt><trkpt lat="44.2960633" lon="10.75331"><ele>475.0</ele><time>2026-05-03T12:33:24.747Z</time></trkpt><trkpt lat="44.2960117" lon="10.75311"><ele>475.0</ele><time>2026-05-03T12:33:25.747Z</time></trkpt><trkpt lat="44.2959533" lon="10.752925"><ele>475.0</ele><time>2026-05-03T12:33:26.746Z</time></trkpt><trkpt lat="44.2958733" lon="10.752765"><ele>475.0</ele><time>2026-05-03T12:33:27.747Z</time></trkpt><trkpt lat="44.2957617" lon="10.75264"><ele>475.0</ele><time>2026-05-03T12:33:28.747Z</time></trkpt><trkpt lat="44.2956317" lon="10.752555"><ele>472.0</ele><time>2026-05-03T12:33:29.747Z</time></trkpt><trkpt lat="44.2954883" lon="10.7524867"><ele>469.0</ele><time>2026-05-03T12:33:30.747Z</time></trkpt><trkpt lat="44.2953567" lon="10.7524083"><ele>466.0</ele><time>2026-05-03T12:33:31.747Z</time></trkpt><trkpt lat="44.2952333" lon="10.7523267"><ele>463.0</ele><time>2026-05-03T12:33:32.747Z</time></trkpt><trkpt lat="44.29513" lon="10.7522017"><ele>463.0</ele><time>2026-05-03T12:33:33.747Z</time></trkpt><trkpt lat="44.2950333" lon="10.7520383"><ele>463.0</ele><time>2026-05-03T12:33:34.747Z</time></trkpt><trkpt lat="44.294955" lon="10.7518433"><ele>463.0</ele><time>2026-05-03T12:33:35.747Z</time></trkpt><trkpt lat="44.2948833" lon="10.7516383"><ele>462.25</ele><time>2026-05-03T12:33:36.747Z</time></trkpt><trkpt lat="44.2948117" lon="10.7514467"><ele>461.5</ele><time>2026-05-03T12:33:37.747Z</time></trkpt><trkpt lat="44.2947433" lon="10.7512583"><ele>460.75</ele><time>2026-05-03T12:33:38.747Z</time></trkpt><trkpt lat="44.2946833" lon="10.751085"><ele>460.0</ele><time>2026-05-03T12:33:39.747Z</time></trkpt><trkpt lat="44.29462" lon="10.7509267"><ele>460.00000000000006</ele><time>2026-05-03T12:33:40.747Z</time></trkpt><trkpt lat="44.2945733" lon="10.7507783"><ele>460.0</ele><time>2026-05-03T12:33:41.747Z</time></trkpt><trkpt lat="44.2945183" lon="10.7506733"><ele>460.0</ele><time>2026-05-03T12:33:42.747Z</time></trkpt><trkpt lat="44.29446" lon="10.7505917"><ele>460.0</ele><time>2026-05-03T12:33:43.747Z</time></trkpt><trkpt lat="44.2943917" lon="10.7505683"><ele>460.00000000000006</ele><time>2026-05-03T12:33:44.747Z</time></trkpt><trkpt lat="44.2943167" lon="10.7505983"><ele>460.0</ele><time>2026-05-03T12:33:45.747Z</time></trkpt><trkpt lat="44.294245" lon="10.750675"><ele>460.0</ele><time>2026-05-03T12:33:46.747Z</time></trkpt><trkpt lat="44.2941967" lon="10.750795"><ele>460.0</ele><time>2026-05-03T12:33:47.747Z</time></trkpt><trkpt lat="44.2941883" lon="10.750955"><ele>460.0</ele><time>2026-05-03T12:33:48.747Z</time></trkpt><trkpt lat="44.2942133" lon="10.7511183"><ele>460.0</ele><time>2026-05-03T12:33:49.747Z</time></trkpt><trkpt lat="44.2942367" lon="10.7512933"><ele>459.5</ele><time>2026-05-03T12:33:50.747Z</time></trkpt><trkpt lat="44.2942217" lon="10.7514467"><ele>459.0</ele><time>2026-05-03T12:33:51.746Z</time></trkpt><trkpt lat="44.2941533" lon="10.7515717"><ele>458.5</ele><time>2026-05-03T12:33:52.747Z</time></trkpt><trkpt lat="44.2940567" lon="10.75167"><ele>458.0</ele><time>2026-05-03T12:33:53.747Z</time></trkpt><trkpt lat="44.2939483" lon="10.7517683"><ele>459.5</ele><time>2026-05-03T12:33:54.747Z</time></trkpt><trkpt lat="44.293835" lon="10.7518683"><ele>461.0</ele><time>2026-05-03T12:33:55.747Z</time></trkpt><trkpt lat="44.2937183" lon="10.7519717"><ele>462.5</ele><time>2026-05-03T12:33:56.747Z</time></trkpt><trkpt lat="44.2936033" lon="10.752075"><ele>464.0</ele><time>2026-05-03T12:33:57.747Z</time></trkpt><trkpt lat="44.2934817" lon="10.7521617"><ele>465.5</ele><time>2026-05-03T12:33:58.747Z</time></trkpt><trkpt lat="44.2933517" lon="10.7522"><ele>467.0</ele><time>2026-05-03T12:33:59.746Z</time></trkpt><trkpt lat="44.2932133" lon="10.7522"><ele>468.5</ele><time>2026-05-03T12:34:00.747Z</time></trkpt><trkpt lat="44.2930867" lon="10.7521633"><ele>470.0</ele><time>2026-05-03T12:34:01.747Z</time></trkpt><trkpt lat="44.29295" lon="10.75208"><ele>473.3333333333333</ele><time>2026-05-03T12:34:02.747Z</time></trkpt><trkpt lat="44.2928067" lon="10.751985"><ele>476.66666666666663</ele><time>2026-05-03T12:34:03.747Z</time></trkpt><trkpt lat="44.29266" lon="10.7518917"><ele>480.0</ele><time>2026-05-03T12:34:04.746Z</time></trkpt><trkpt lat="44.2925217" lon="10.7517917"><ele>480.0</ele><time>2026-05-03T12:34:05.746Z</time></trkpt><trkpt lat="44.2923933" lon="10.7516717"><ele>480.0</ele><time>2026-05-03T12:34:06.747Z</time></trkpt><trkpt lat="44.2922883" lon="10.7515233"><ele>480.0</ele><time>2026-05-03T12:34:07.747Z</time></trkpt><trkpt lat="44.2921983" lon="10.7513367"><ele>484.66666666666663</ele><time>2026-05-03T12:34:08.746Z</time></trkpt><trkpt lat="44.292105" lon="10.7511517"><ele>489.3333333333333</ele><time>2026-05-03T12:34:09.746Z</time></trkpt><trkpt lat="44.2920033" lon="10.7509783"><ele>494.0</ele><time>2026-05-03T12:34:10.747Z</time></trkpt><trkpt lat="44.2919017" lon="10.7508117"><ele>494.0</ele><time>2026-05-03T12:34:11.747Z</time></trkpt><trkpt lat="44.2917967" lon="10.7506417"><ele>494.0</ele><time>2026-05-03T12:34:12.747Z</time></trkpt><trkpt lat="44.2917067" lon="10.7504517"><ele>494.0</ele><time>2026-05-03T12:34:13.747Z</time></trkpt><trkpt lat="44.2916433" lon="10.7502367"><ele>492.66666666666663</ele><time>2026-05-03T12:34:14.747Z</time></trkpt><trkpt lat="44.2915883" lon="10.7500233"><ele>491.33333333333337</ele><time>2026-05-03T12:34:15.747Z</time></trkpt><trkpt lat="44.2915467" lon="10.7498283"><ele>490.0</ele><time>2026-05-03T12:34:16.747Z</time></trkpt><trkpt lat="44.2915017" lon="10.74963"><ele>490.0</ele><time>2026-05-03T12:34:17.747Z</time></trkpt><trkpt lat="44.2914733" lon="10.74942"><ele>490.0</ele><time>2026-05-03T12:34:18.747Z</time></trkpt><trkpt lat="44.2914633" lon="10.749225"><ele>490.0</ele><time>2026-05-03T12:34:19.745Z</time></trkpt><trkpt lat="44.29144" lon="10.7490133"><ele>490.0</ele><time>2026-05-03T12:34:20.746Z</time></trkpt><trkpt lat="44.2914" lon="10.7488333"><ele>495.75</ele><time>2026-05-03T12:34:21.747Z</time></trkpt><trkpt lat="44.2913367" lon="10.7486683"><ele>501.5</ele><time>2026-05-03T12:34:22.747Z</time></trkpt><trkpt lat="44.291255" lon="10.7485133"><ele>507.25</ele><time>2026-05-03T12:34:23.747Z</time></trkpt><trkpt lat="44.2911783" lon="10.748355"><ele>513.0</ele><time>2026-05-03T12:34:24.747Z</time></trkpt><trkpt lat="44.2911383" lon="10.7482"><ele>513.0</ele><time>2026-05-03T12:34:25.747Z</time></trkpt><trkpt lat="44.2911283" lon="10.748025"><ele>513.0</ele><time>2026-05-03T12:34:26.746Z</time></trkpt><trkpt lat="44.2911383" lon="10.7478483"><ele>513.0</ele><time>2026-05-03T12:34:27.747Z</time></trkpt><trkpt lat="44.291145" lon="10.7476683"><ele>513.0</ele><time>2026-05-03T12:34:28.747Z</time></trkpt><trkpt lat="44.291125" lon="10.7474967"><ele>513.0</ele><time>2026-05-03T12:34:29.746Z</time></trkpt><trkpt lat="44.291075" lon="10.7473333"><ele>513.0</ele><time>2026-05-03T12:34:30.747Z</time></trkpt><trkpt lat="44.2909967" lon="10.747185"><ele>513.0</ele><time>2026-05-03T12:34:31.747Z</time></trkpt><trkpt lat="44.2908967" lon="10.74705"><ele>513.0</ele><time>2026-05-03T12:34:32.747Z</time></trkpt><trkpt lat="44.29079" lon="10.7469167"><ele>513.0</ele><time>2026-05-03T12:34:33.747Z</time></trkpt><trkpt lat="44.2906833" lon="10.746765"><ele>513.0</ele><time>2026-05-03T12:34:34.746Z</time></trkpt><trkpt lat="44.2905783" lon="10.7466117"><ele>513.0</ele><time>2026-05-03T12:34:35.747Z</time></trkpt><trkpt lat="44.2904783" lon="10.746485"><ele>513.0</ele><time>2026-05-03T12:34:36.747Z</time></trkpt><trkpt lat="44.290395" lon="10.7463967"><ele>514.1999999999999</ele><time>2026-05-03T12:34:37.746Z</time></trkpt><trkpt lat="44.2902933" lon="10.7463383"><ele>515.4</ele><time>2026-05-03T12:34:38.747Z</time></trkpt><trkpt lat="44.2901867" lon="10.74632"><ele>516.5999999999999</ele><time>2026-05-03T12:34:39.747Z</time></trkpt><trkpt lat="44.290085" lon="10.74638"><ele>517.8</ele><time>2026-05-03T12:34:40.747Z</time></trkpt><trkpt lat="44.289995" lon="10.7464917"><ele>519.0</ele><time>2026-05-03T12:34:41.747Z</time></trkpt><trkpt lat="44.289905" lon="10.746625"><ele>519.0</ele><time>2026-05-03T12:34:42.747Z</time></trkpt><trkpt lat="44.2898167" lon="10.7467717"><ele>519.0</ele><time>2026-05-03T12:34:43.746Z</time></trkpt><trkpt lat="44.2897167" lon="10.7469233"><ele>519.0</ele><time>2026-05-03T12:34:44.747Z</time></trkpt><trkpt lat="44.2896117" lon="10.7470633"><ele>519.0</ele><time>2026-05-03T12:34:45.747Z</time></trkpt><trkpt lat="44.289495" lon="10.74718"><ele>522.25</ele><time>2026-05-03T12:34:46.746Z</time></trkpt><trkpt lat="44.2893617" lon="10.74726"><ele>525.5</ele><time>2026-05-03T12:34:47.746Z</time></trkpt><trkpt lat="44.2892183" lon="10.7472817"><ele>528.75</ele><time>2026-05-03T12:34:48.746Z</time></trkpt><trkpt lat="44.2890683" lon="10.7472717"><ele>532.0</ele><time>2026-05-03T12:34:49.746Z</time></trkpt><trkpt lat="44.2889133" lon="10.7472467"><ele>534.6666666666667</ele><time>2026-05-03T12:34:50.746Z</time></trkpt><trkpt lat="44.28876" lon="10.74723"><ele>537.3333333333334</ele><time>2026-05-03T12:34:51.746Z</time></trkpt><trkpt lat="44.2885983" lon="10.7472067"><ele>540.0</ele><time>2026-05-03T12:34:52.746Z</time></trkpt><trkpt lat="44.2884433" lon="10.7471783"><ele>540.0</ele><time>2026-05-03T12:34:53.746Z</time></trkpt><trkpt lat="44.2883017" lon="10.74713"><ele>540.0</ele><time>2026-05-03T12:34:54.746Z</time></trkpt><trkpt lat="44.2881767" lon="10.7470617"><ele>540.0</ele><time>2026-05-03T12:34:55.746Z</time></trkpt><trkpt lat="44.2880717" lon="10.74696"><ele>540.0</ele><time>2026-05-03T12:34:56.746Z</time></trkpt><trkpt lat="44.2879783" lon="10.746815"><ele>541.0</ele><time>2026-05-03T12:34:57.746Z</time></trkpt><trkpt lat="44.2878917" lon="10.7466667"><ele>542.0</ele><time>2026-05-03T12:34:58.746Z</time></trkpt><trkpt lat="44.2878" lon="10.7465333"><ele>543.0</ele><time>2026-05-03T12:34:59.746Z</time></trkpt><trkpt lat="44.2876983" lon="10.7464317"><ele>544.0</ele><time>2026-05-03T12:35:00.746Z</time></trkpt><trkpt lat="44.2875967" lon="10.74636"><ele>544.0</ele><time>2026-05-03T12:35:01.745Z</time></trkpt><trkpt lat="44.2875067" lon="10.7463417"><ele>544.0</ele><time>2026-05-03T12:35:02.746Z</time></trkpt><trkpt lat="44.2874317" lon="10.746365"><ele>544.0</ele><time>2026-05-03T12:35:03.746Z</time></trkpt><trkpt lat="44.2873683" lon="10.746425"><ele>544.0</ele><time>2026-05-03T12:35:04.746Z</time></trkpt><trkpt lat="44.2873167" lon="10.7465017"><ele>544.0</ele><time>2026-05-03T12:35:05.746Z</time></trkpt><trkpt lat="44.2873033" lon="10.7466017"><ele>544.0</ele><time>2026-05-03T12:35:06.745Z</time></trkpt><trkpt lat="44.2872983" lon="10.7467433"><ele>546.4</ele><time>2026-05-03T12:35:08.746Z</time></trkpt><trkpt lat="44.2872233" lon="10.7467017"><ele>548.8</ele><time>2026-05-03T12:35:11.746Z</time></trkpt><trkpt lat="44.2871983" lon="10.74653"><ele>551.2</ele><time>2026-05-03T12:35:13.746Z</time></trkpt><trkpt lat="44.287165" lon="10.7464333"><ele>553.6</ele><time>2026-05-03T12:35:14.746Z</time></trkpt><trkpt lat="44.287115" lon="10.7463417"><ele>556.0</ele><time>2026-05-03T12:35:15.746Z</time></trkpt><trkpt lat="44.2870483" lon="10.74626"><ele>556.0</ele><time>2026-05-03T12:35:16.746Z</time></trkpt><trkpt lat="44.2869683" lon="10.7461883"><ele>556.0</ele><time>2026-05-03T12:35:17.746Z</time></trkpt><trkpt lat="44.2868733" lon="10.7461367"><ele>556.0</ele><time>2026-05-03T12:35:18.745Z</time></trkpt><trkpt lat="44.286765" lon="10.7461083"><ele>556.0</ele><time>2026-05-03T12:35:19.746Z</time></trkpt><trkpt lat="44.286655" lon="10.7460917"><ele>556.0</ele><time>2026-05-03T12:35:20.746Z</time></trkpt><trkpt lat="44.2865417" lon="10.7460767"><ele>556.0</ele><time>2026-05-03T12:35:21.746Z</time></trkpt><trkpt lat="44.2864383" lon="10.7460533"><ele>556.0</ele><time>2026-05-03T12:35:22.746Z</time></trkpt><trkpt lat="44.2863283" lon="10.746015"><ele>556.0</ele><time>2026-05-03T12:35:23.746Z</time></trkpt><trkpt lat="44.2862233" lon="10.7459667"><ele>556.0</ele><time>2026-05-03T12:35:24.745Z</time></trkpt><trkpt lat="44.2861233" lon="10.7459083"><ele>556.0</ele><time>2026-05-03T12:35:25.746Z</time></trkpt><trkpt lat="44.2860383" lon="10.7458567"><ele>557.0</ele><time>2026-05-03T12:35:26.746Z</time></trkpt><trkpt lat="44.2859567" lon="10.7458367"><ele>558.0</ele><time>2026-05-03T12:35:27.746Z</time></trkpt><trkpt lat="44.2858717" lon="10.745845"><ele>559.0</ele><time>2026-05-03T12:35:28.746Z</time></trkpt><trkpt lat="44.2857783" lon="10.74587"><ele>560.0</ele><time>2026-05-03T12:35:29.746Z</time></trkpt><trkpt lat="44.2856783" lon="10.7459267"><ele>561.0</ele><time>2026-05-03T12:35:30.746Z</time></trkpt><trkpt lat="44.2855933" lon="10.7460083"><ele>563.8</ele><time>2026-05-03T12:35:31.746Z</time></trkpt><trkpt lat="44.2855183" lon="10.746095"><ele>566.6</ele><time>2026-05-03T12:35:32.745Z</time></trkpt><trkpt lat="44.2854517" lon="10.746165"><ele>569.4</ele><time>2026-05-03T12:35:33.745Z</time></trkpt><trkpt lat="44.285355" lon="10.7461967"><ele>572.2</ele><time>2026-05-03T12:35:35.746Z</time></trkpt><trkpt lat="44.2852867" lon="10.7460583"><ele>575.0</ele><time>2026-05-03T12:35:37.746Z</time></trkpt><trkpt lat="44.2852567" lon="10.7459583"><ele>575.0</ele><time>2026-05-03T12:35:38.746Z</time></trkpt><trkpt lat="44.2852183" lon="10.7458517"><ele>575.0</ele><time>2026-05-03T12:35:39.746Z</time></trkpt><trkpt lat="44.285175" lon="10.7457567"><ele>575.0</ele><time>2026-05-03T12:35:40.746Z</time></trkpt><trkpt lat="44.2851233" lon="10.745655"><ele>575.0</ele><time>2026-05-03T12:35:41.746Z</time></trkpt><trkpt lat="44.28506" lon="10.745585"><ele>575.0</ele><time>2026-05-03T12:35:42.746Z</time></trkpt><trkpt lat="44.2849417" lon="10.74561"><ele>575.0</ele><time>2026-05-03T12:35:44.746Z</time></trkpt><trkpt lat="44.2848767" lon="10.7456867"><ele>575.0</ele><time>2026-05-03T12:35:45.746Z</time></trkpt><trkpt lat="44.2848067" lon="10.74576"><ele>575.0</ele><time>2026-05-03T12:35:46.745Z</time></trkpt><trkpt lat="44.2847383" lon="10.7457833"><ele>575.0</ele><time>2026-05-03T12:35:47.746Z</time></trkpt><trkpt lat="44.2846767" lon="10.7457617"><ele>575.0</ele><time>2026-05-03T12:35:48.746Z</time></trkpt><trkpt lat="44.2846167" lon="10.7456967"><ele>575.0</ele><time>2026-05-03T12:35:49.746Z</time></trkpt><trkpt lat="44.2845417" lon="10.7456267"><ele>577.8333333333333</ele><time>2026-05-03T12:35:50.746Z</time></trkpt><trkpt lat="44.2844533" lon="10.7455967"><ele>580.6666666666666</ele><time>2026-05-03T12:35:51.746Z</time></trkpt><trkpt lat="44.2843733" lon="10.7456017"><ele>583.5</ele><time>2026-05-03T12:35:52.746Z</time></trkpt><trkpt lat="44.2843067" lon="10.7456367"><ele>586.3333333333334</ele><time>2026-05-03T12:35:53.746Z</time></trkpt><trkpt lat="44.2842633" lon="10.74571"><ele>589.1666666666667</ele><time>2026-05-03T12:35:54.746Z</time></trkpt><trkpt lat="44.2842217" lon="10.74581"><ele>592.0</ele><time>2026-05-03T12:35:55.746Z</time></trkpt><trkpt lat="44.2841667" lon="10.7459283"><ele>592.0</ele><time>2026-05-03T12:35:56.746Z</time></trkpt><trkpt lat="44.2841" lon="10.7460383"><ele>592.0</ele><time>2026-05-03T12:35:57.746Z</time></trkpt><trkpt lat="44.2840183" lon="10.746145"><ele>592.0</ele><time>2026-05-03T12:35:58.745Z</time></trkpt><trkpt lat="44.2839433" lon="10.7462517"><ele>592.0</ele><time>2026-05-03T12:35:59.746Z</time></trkpt><trkpt lat="44.2838733" lon="10.746345"><ele>592.0</ele><time>2026-05-03T12:36:00.745Z</time></trkpt><trkpt lat="44.2838067" lon="10.7464067"><ele>594.8333333333334</ele><time>2026-05-03T12:36:01.746Z</time></trkpt><trkpt lat="44.28374" lon="10.7464283"><ele>597.6666666666667</ele><time>2026-05-03T12:36:02.746Z</time></trkpt><trkpt lat="44.283665" lon="10.7464117"><ele>600.5</ele><time>2026-05-03T12:36:03.746Z</time></trkpt><trkpt lat="44.2835883" lon="10.7463617"><ele>603.3333333333334</ele><time>2026-05-03T12:36:04.746Z</time></trkpt><trkpt lat="44.2835083" lon="10.746285"><ele>606.1666666666666</ele><time>2026-05-03T12:36:05.746Z</time></trkpt><trkpt lat="44.2834283" lon="10.7462083"><ele>609.0</ele><time>2026-05-03T12:36:06.746Z</time></trkpt><trkpt lat="44.2833417" lon="10.746155"><ele>609.0</ele><time>2026-05-03T12:36:07.745Z</time></trkpt><trkpt lat="44.28325" lon="10.74613"><ele>609.0</ele><time>2026-05-03T12:36:08.745Z</time></trkpt><trkpt lat="44.2831467" lon="10.7461217"><ele>609.0</ele><time>2026-05-03T12:36:09.746Z</time></trkpt><trkpt lat="44.28305" lon="10.746135"><ele>609.0</ele><time>2026-05-03T12:36:10.746Z</time></trkpt><trkpt lat="44.2829517" lon="10.7461767"><ele>609.0</ele><time>2026-05-03T12:36:11.746Z</time></trkpt><trkpt lat="44.282845" lon="10.74623"><ele>611.2</ele><time>2026-05-03T12:36:12.746Z</time></trkpt><trkpt lat="44.28274" lon="10.74627"><ele>613.4</ele><time>2026-05-03T12:36:13.746Z</time></trkpt><trkpt lat="44.282645" lon="10.74627"><ele>615.6</ele><time>2026-05-03T12:36:14.745Z</time></trkpt><trkpt lat="44.2825733" lon="10.7462383"><ele>617.8</ele><time>2026-05-03T12:36:15.745Z</time></trkpt><trkpt lat="44.2825033" lon="10.7461667"><ele>620.0</ele><time>2026-05-03T12:36:16.746Z</time></trkpt><trkpt lat="44.2824417" lon="10.746055"><ele>619.4</ele><time>2026-05-03T12:36:17.746Z</time></trkpt><trkpt lat="44.2823733" lon="10.7459433"><ele>618.8</ele><time>2026-05-03T12:36:18.746Z</time></trkpt><trkpt lat="44.2823017" lon="10.7458517"><ele>618.2</ele><time>2026-05-03T12:36:19.746Z</time></trkpt><trkpt lat="44.2822117" lon="10.74582"><ele>617.6</ele><time>2026-05-03T12:36:20.746Z</time></trkpt><trkpt lat="44.2821067" lon="10.7458183"><ele>617.0</ele><time>2026-05-03T12:36:21.746Z</time></trkpt><trkpt lat="44.2819883" lon="10.74584"><ele>617.0</ele><time>2026-05-03T12:36:22.745Z</time></trkpt><trkpt lat="44.28186" lon="10.74585"><ele>617.0</ele><time>2026-05-03T12:36:23.746Z</time></trkpt><trkpt lat="44.281735" lon="10.74583"><ele>617.0</ele><time>2026-05-03T12:36:24.746Z</time></trkpt><trkpt lat="44.2816217" lon="10.745765"><ele>617.0</ele><time>2026-05-03T12:36:25.746Z</time></trkpt><trkpt lat="44.2815133" lon="10.7456583"><ele>620.5</ele><time>2026-05-03T12:36:26.745Z</time></trkpt><trkpt lat="44.2814067" lon="10.745545"><ele>624.0</ele><time>2026-05-03T12:36:27.745Z</time></trkpt><trkpt lat="44.2812983" lon="10.7454417"><ele>627.5</ele><time>2026-05-03T12:36:28.745Z</time></trkpt><trkpt lat="44.2811867" lon="10.74533"><ele>631.0</ele><time>2026-05-03T12:36:29.746Z</time></trkpt><trkpt lat="44.281095" lon="10.7452467"><ele>628.8</ele><time>2026-05-03T12:36:30.746Z</time></trkpt><trkpt lat="44.28101" lon="10.7451717"><ele>626.6</ele><time>2026-05-03T12:36:31.746Z</time></trkpt><trkpt lat="44.280945" lon="10.7451267"><ele>624.4</ele><time>2026-05-03T12:36:32.746Z</time></trkpt><trkpt lat="44.2808283" lon="10.7450167"><ele>622.2</ele><time>2026-05-03T12:36:34.746Z</time></trkpt><trkpt lat="44.2807583" lon="10.744925"><ele>620.0</ele><time>2026-05-03T12:36:35.746Z</time></trkpt><trkpt lat="44.2806833" lon="10.7448267"><ele>620.0</ele><time>2026-05-03T12:36:36.746Z</time></trkpt><trkpt lat="44.280615" lon="10.7447333"><ele>620.0</ele><time>2026-05-03T12:36:37.746Z</time></trkpt><trkpt lat="44.2805633" lon="10.7446467"><ele>620.0</ele><time>2026-05-03T12:36:38.746Z</time></trkpt><trkpt lat="44.2805267" lon="10.74455"><ele>620.0</ele><time>2026-05-03T12:36:39.746Z</time></trkpt><trkpt lat="44.2805167" lon="10.74444"><ele>620.0</ele><time>2026-05-03T12:36:40.746Z</time></trkpt><trkpt lat="44.280525" lon="10.744305"><ele>620.0</ele><time>2026-05-03T12:36:41.746Z</time></trkpt><trkpt lat="44.2805233" lon="10.744165"><ele>620.8</ele><time>2026-05-03T12:36:42.746Z</time></trkpt><trkpt lat="44.280505" lon="10.7440267"><ele>621.6</ele><time>2026-05-03T12:36:43.746Z</time></trkpt><trkpt lat="44.2804733" lon="10.743915"><ele>622.4</ele><time>2026-05-03T12:36:44.746Z</time></trkpt><trkpt lat="44.2804333" lon="10.7438"><ele>623.2</ele><time>2026-05-03T12:36:45.746Z</time></trkpt><trkpt lat="44.2803783" lon="10.7436667"><ele>624.0</ele><time>2026-05-03T12:36:46.746Z</time></trkpt><trkpt lat="44.2803267" lon="10.7435183"><ele>624.0</ele><time>2026-05-03T12:36:47.746Z</time></trkpt><trkpt lat="44.2802817" lon="10.7433633"><ele>624.0</ele><time>2026-05-03T12:36:48.745Z</time></trkpt><trkpt lat="44.2802467" lon="10.74322"><ele>624.0</ele><time>2026-05-03T12:36:49.746Z</time></trkpt><trkpt lat="44.28021" lon="10.7431233"><ele>624.0</ele><time>2026-05-03T12:36:50.746Z</time></trkpt><trkpt lat="44.28011" lon="10.7430633"><ele>624.0</ele><time>2026-05-03T12:36:52.746Z</time></trkpt><trkpt lat="44.2800517" lon="10.743105"><ele>624.0</ele><time>2026-05-03T12:36:53.746Z</time></trkpt><trkpt lat="44.2799833" lon="10.74318"><ele>624.0</ele><time>2026-05-03T12:36:54.746Z</time></trkpt><trkpt lat="44.2799017" lon="10.7432667"><ele>624.0</ele><time>2026-05-03T12:36:55.746Z</time></trkpt><trkpt lat="44.2798083" lon="10.7433617"><ele>624.0</ele><time>2026-05-03T12:36:56.746Z</time></trkpt><trkpt lat="44.2797117" lon="10.7434583"><ele>624.0</ele><time>2026-05-03T12:36:57.746Z</time></trkpt><trkpt lat="44.2796183" lon="10.7435633"><ele>628.5</ele><time>2026-05-03T12:36:58.746Z</time></trkpt><trkpt lat="44.2795183" lon="10.7436617"><ele>633.0</ele><time>2026-05-03T12:36:59.746Z</time></trkpt><trkpt lat="44.27942" lon="10.7437667"><ele>637.5</ele><time>2026-05-03T12:37:00.746Z</time></trkpt><trkpt lat="44.2793333" lon="10.743865"><ele>642.0</ele><time>2026-05-03T12:37:01.746Z</time></trkpt><trkpt lat="44.2792667" lon="10.74397"><ele>642.0</ele><time>2026-05-03T12:37:02.746Z</time></trkpt><trkpt lat="44.279205" lon="10.744045"><ele>642.0</ele><time>2026-05-03T12:37:03.746Z</time></trkpt><trkpt lat="44.2791383" lon="10.7440967"><ele>642.0</ele><time>2026-05-03T12:37:04.746Z</time></trkpt><trkpt lat="44.279065" lon="10.744095"><ele>642.0</ele><time>2026-05-03T12:37:05.746Z</time></trkpt><trkpt lat="44.27899" lon="10.7440817"><ele>642.0</ele><time>2026-05-03T12:37:06.746Z</time></trkpt><trkpt lat="44.278885" lon="10.744135"><ele>642.0</ele><time>2026-05-03T12:37:08.746Z</time></trkpt><trkpt lat="44.2788" lon="10.7442833"><ele>644.2</ele><time>2026-05-03T12:37:10.746Z</time></trkpt><trkpt lat="44.2787417" lon="10.7443733"><ele>646.4000000000001</ele><time>2026-05-03T12:37:11.746Z</time></trkpt><trkpt lat="44.2786817" lon="10.7444733"><ele>648.5999999999999</ele><time>2026-05-03T12:37:12.746Z</time></trkpt><trkpt lat="44.2786217" lon="10.7445717"><ele>650.8</ele><time>2026-05-03T12:37:13.746Z</time></trkpt><trkpt lat="44.2785533" lon="10.7446567"><ele>653.0</ele><time>2026-05-03T12:37:14.746Z</time></trkpt><trkpt lat="44.27847" lon="10.744725"><ele>654.4</ele><time>2026-05-03T12:37:15.746Z</time></trkpt><trkpt lat="44.27837" lon="10.74478"><ele>655.8</ele><time>2026-05-03T12:37:16.746Z</time></trkpt><trkpt lat="44.278265" lon="10.74482"><ele>657.2</ele><time>2026-05-03T12:37:17.746Z</time></trkpt><trkpt lat="44.2781517" lon="10.7448483"><ele>658.6</ele><time>2026-05-03T12:37:18.746Z</time></trkpt><trkpt lat="44.278055" lon="10.7449083"><ele>660.0</ele><time>2026-05-03T12:37:19.745Z</time></trkpt><trkpt lat="44.2779667" lon="10.7449967"><ele>662.6</ele><time>2026-05-03T12:37:20.745Z</time></trkpt><trkpt lat="44.2778883" lon="10.7450983"><ele>665.2</ele><time>2026-05-03T12:37:21.746Z</time></trkpt><trkpt lat="44.2777983" lon="10.7451883"><ele>667.8</ele><time>2026-05-03T12:37:22.746Z</time></trkpt><trkpt lat="44.2776983" lon="10.7452633"><ele>670.4</ele><time>2026-05-03T12:37:23.746Z</time></trkpt><trkpt lat="44.2776033" lon="10.7453333"><ele>673.0</ele><time>2026-05-03T12:37:24.746Z</time></trkpt><trkpt lat="44.2775167" lon="10.7454217"><ele>674.2</ele><time>2026-05-03T12:37:25.746Z</time></trkpt><trkpt lat="44.277425" lon="10.745495"><ele>675.4</ele><time>2026-05-03T12:37:26.746Z</time></trkpt><trkpt lat="44.2773267" lon="10.745545"><ele>676.6</ele><time>2026-05-03T12:37:27.746Z</time></trkpt><trkpt lat="44.2772283" lon="10.7455883"><ele>677.8000000000001</ele><time>2026-05-03T12:37:28.746Z</time></trkpt><trkpt lat="44.2771233" lon="10.7456433"><ele>679.0</ele><time>2026-05-03T12:37:29.746Z</time></trkpt><trkpt lat="44.27701" lon="10.745695"><ele>681.0</ele><time>2026-05-03T12:37:30.745Z</time></trkpt><trkpt lat="44.2769067" lon="10.7457617"><ele>683.0</ele><time>2026-05-03T12:37:31.746Z</time></trkpt><trkpt lat="44.2768083" lon="10.7458217"><ele>685.0</ele><time>2026-05-03T12:37:32.745Z</time></trkpt><trkpt lat="44.27673" lon="10.74588"><ele>687.0</ele><time>2026-05-03T12:37:33.746Z</time></trkpt><trkpt lat="44.2766717" lon="10.7459383"><ele>689.0</ele><time>2026-05-03T12:37:34.746Z</time></trkpt><trkpt lat="44.2765733" lon="10.7459567"><ele>689.0</ele><time>2026-05-03T12:37:36.745Z</time></trkpt><trkpt lat="44.276505" lon="10.7458333"><ele>689.0</ele><time>2026-05-03T12:37:38.746Z</time></trkpt><trkpt lat="44.2764683" lon="10.745715"><ele>689.0</ele><time>2026-05-03T12:37:39.746Z</time></trkpt><trkpt lat="44.2764283" lon="10.745575"><ele>689.0</ele><time>2026-05-03T12:37:40.746Z</time></trkpt><trkpt lat="44.2764017" lon="10.74541"><ele>689.0</ele><time>2026-05-03T12:37:41.745Z</time></trkpt><trkpt lat="44.2763883" lon="10.7452567"><ele>690.0</ele><time>2026-05-03T12:37:42.746Z</time></trkpt><trkpt lat="44.2763567" lon="10.7450967"><ele>691.0</ele><time>2026-05-03T12:37:43.746Z</time></trkpt><trkpt lat="44.27632" lon="10.744935"><ele>692.0</ele><time>2026-05-03T12:37:44.746Z</time></trkpt><trkpt lat="44.276285" lon="10.74478"><ele>693.0</ele><time>2026-05-03T12:37:45.745Z</time></trkpt><trkpt lat="44.2762417" lon="10.744615"><ele>693.0</ele><time>2026-05-03T12:37:46.746Z</time></trkpt><trkpt lat="44.2762033" lon="10.7444583"><ele>693.0</ele><time>2026-05-03T12:37:47.745Z</time></trkpt><trkpt lat="44.276165" lon="10.7442983"><ele>693.0</ele><time>2026-05-03T12:37:48.746Z</time></trkpt><trkpt lat="44.2761283" lon="10.7441283"><ele>693.0</ele><time>2026-05-03T12:37:49.745Z</time></trkpt><trkpt lat="44.2760967" lon="10.743975"><ele>692.5999999999999</ele><time>2026-05-03T12:37:50.746Z</time></trkpt><trkpt lat="44.2760617" lon="10.7438283"><ele>692.1999999999999</ele><time>2026-05-03T12:37:51.746Z</time></trkpt><trkpt lat="44.27604" lon="10.7436867"><ele>691.8</ele><time>2026-05-03T12:37:52.746Z</time></trkpt><trkpt lat="44.2760233" lon="10.74356"><ele>691.4</ele><time>2026-05-03T12:37:53.746Z</time></trkpt><trkpt lat="44.276" lon="10.74343"><ele>691.0</ele><time>2026-05-03T12:37:54.745Z</time></trkpt><trkpt lat="44.2759733" lon="10.74331"><ele>691.0</ele><time>2026-05-03T12:37:55.745Z</time></trkpt><trkpt lat="44.27594" lon="10.7432183"><ele>691.0</ele><time>2026-05-03T12:37:56.746Z</time></trkpt><trkpt lat="44.2758983" lon="10.74313"><ele>691.0</ele><time>2026-05-03T12:37:57.746Z</time></trkpt><trkpt lat="44.2758467" lon="10.7430217"><ele>691.0</ele><time>2026-05-03T12:37:58.746Z</time></trkpt><trkpt lat="44.2757883" lon="10.7428983"><ele>691.0</ele><time>2026-05-03T12:37:59.746Z</time></trkpt><trkpt lat="44.2757333" lon="10.74277"><ele>691.5999999999999</ele><time>2026-05-03T12:38:00.746Z</time></trkpt><trkpt lat="44.2756867" lon="10.7426383"><ele>692.2</ele><time>2026-05-03T12:38:01.746Z</time></trkpt><trkpt lat="44.275635" lon="10.7425033"><ele>692.8</ele><time>2026-05-03T12:38:02.746Z</time></trkpt><trkpt lat="44.27559" lon="10.7423733"><ele>693.4000000000001</ele><time>2026-05-03T12:38:03.745Z</time></trkpt><trkpt lat="44.2755417" lon="10.74227"><ele>694.0</ele><time>2026-05-03T12:38:04.746Z</time></trkpt><trkpt lat="44.2754833" lon="10.7421867"><ele>694.0</ele><time>2026-05-03T12:38:05.746Z</time></trkpt><trkpt lat="44.2754067" lon="10.7421167"><ele>694.0</ele><time>2026-05-03T12:38:06.746Z</time></trkpt><trkpt lat="44.275325" lon="10.7420617"><ele>694.0</ele><time>2026-05-03T12:38:07.746Z</time></trkpt><trkpt lat="44.27525" lon="10.741975"><ele>694.0</ele><time>2026-05-03T12:38:08.745Z</time></trkpt><trkpt lat="44.2751867" lon="10.7418617"><ele>694.0</ele><time>2026-05-03T12:38:09.745Z</time></trkpt><trkpt lat="44.2751167" lon="10.7417317"><ele>694.25</ele><time>2026-05-03T12:38:10.745Z</time></trkpt><trkpt lat="44.27503" lon="10.74161"><ele>694.5</ele><time>2026-05-03T12:38:11.746Z</time></trkpt><trkpt lat="44.27494" lon="10.7414933"><ele>694.75</ele><time>2026-05-03T12:38:12.745Z</time></trkpt><trkpt lat="44.274845" lon="10.7413917"><ele>695.0</ele><time>2026-05-03T12:38:13.745Z</time></trkpt><trkpt lat="44.2747583" lon="10.74131"><ele>695.0</ele><time>2026-05-03T12:38:14.746Z</time></trkpt><trkpt lat="44.27469" lon="10.741245"><ele>695.0</ele><time>2026-05-03T12:38:15.746Z</time></trkpt><trkpt lat="44.2746167" lon="10.7411933"><ele>695.0</ele><time>2026-05-03T12:38:16.745Z</time></trkpt><trkpt lat="44.2745417" lon="10.7411517"><ele>695.0</ele><time>2026-05-03T12:38:17.746Z</time></trkpt><trkpt lat="44.27446" lon="10.7411133"><ele>695.0</ele><time>2026-05-03T12:38:18.745Z</time></trkpt><trkpt lat="44.2743767" lon="10.7410667"><ele>695.0</ele><time>2026-05-03T12:38:19.746Z</time></trkpt><trkpt lat="44.27429" lon="10.7410067"><ele>693.8</ele><time>2026-05-03T12:38:20.746Z</time></trkpt><trkpt lat="44.274205" lon="10.74095"><ele>692.6</ele><time>2026-05-03T12:38:21.745Z</time></trkpt><trkpt lat="44.27412" lon="10.7408833"><ele>691.4000000000001</ele><time>2026-05-03T12:38:22.745Z</time></trkpt><trkpt lat="44.274045" lon="10.7408033"><ele>690.2</ele><time>2026-05-03T12:38:23.746Z</time></trkpt><trkpt lat="44.2739633" lon="10.7407117"><ele>689.0</ele><time>2026-05-03T12:38:24.746Z</time></trkpt><trkpt lat="44.2738817" lon="10.74063"><ele>689.0</ele><time>2026-05-03T12:38:25.746Z</time></trkpt><trkpt lat="44.27381" lon="10.7405483"><ele>689.0</ele><time>2026-05-03T12:38:26.746Z</time></trkpt><trkpt lat="44.2737417" lon="10.7404667"><ele>689.0</ele><time>2026-05-03T12:38:27.745Z</time></trkpt><trkpt lat="44.2736733" lon="10.7403933"><ele>689.0</ele><time>2026-05-03T12:38:28.746Z</time></trkpt><trkpt lat="44.273595" lon="10.7403333"><ele>689.0</ele><time>2026-05-03T12:38:29.746Z</time></trkpt><trkpt lat="44.2735117" lon="10.7403017"><ele>689.0</ele><time>2026-05-03T12:38:30.745Z</time></trkpt><trkpt lat="44.2734217" lon="10.7403067"><ele>689.0</ele><time>2026-05-03T12:38:31.746Z</time></trkpt><trkpt lat="44.2733233" lon="10.74032"><ele>689.0</ele><time>2026-05-03T12:38:32.746Z</time></trkpt><trkpt lat="44.2732267" lon="10.7403217"><ele>689.0</ele><time>2026-05-03T12:38:33.746Z</time></trkpt><trkpt lat="44.273135" lon="10.7403033"><ele>689.0</ele><time>2026-05-03T12:38:34.745Z</time></trkpt><trkpt lat="44.2730517" lon="10.74027"><ele>689.0</ele><time>2026-05-03T12:38:35.745Z</time></trkpt><trkpt lat="44.2729783" lon="10.7402033"><ele>689.0</ele><time>2026-05-03T12:38:36.745Z</time></trkpt><trkpt lat="44.272915" lon="10.740105"><ele>689.0</ele><time>2026-05-03T12:38:37.745Z</time></trkpt><trkpt lat="44.2728517" lon="10.7400017"><ele>689.0</ele><time>2026-05-03T12:38:38.746Z</time></trkpt><trkpt lat="44.27278" lon="10.7399033"><ele>689.0</ele><time>2026-05-03T12:38:39.746Z</time></trkpt><trkpt lat="44.2727083" lon="10.7398117"><ele>689.0</ele><time>2026-05-03T12:38:40.746Z</time></trkpt><trkpt lat="44.2726517" lon="10.7397183"><ele>689.0</ele><time>2026-05-03T12:38:41.746Z</time></trkpt><trkpt lat="44.2726133" lon="10.7396167"><ele>689.0</ele><time>2026-05-03T12:38:42.746Z</time></trkpt><trkpt lat="44.2726033" lon="10.7395183"><ele>689.0</ele><time>2026-05-03T12:38:43.746Z</time></trkpt><trkpt lat="44.2726133" lon="10.7394083"><ele>689.0</ele><time>2026-05-03T12:38:44.745Z</time></trkpt><trkpt lat="44.2726167" lon="10.739295"><ele>689.0</ele><time>2026-05-03T12:38:45.746Z</time></trkpt><trkpt lat="44.272605" lon="10.7391917"><ele>689.0</ele><time>2026-05-03T12:38:46.745Z</time></trkpt><trkpt lat="44.2725783" lon="10.7391"><ele>687.5</ele><time>2026-05-03T12:38:47.746Z</time></trkpt><trkpt lat="44.2725267" lon="10.7390217"><ele>686.0</ele><time>2026-05-03T12:38:48.745Z</time></trkpt><trkpt lat="44.2724517" lon="10.7389517"><ele>684.5</ele><time>2026-05-03T12:38:49.746Z</time></trkpt><trkpt lat="44.2723683" lon="10.7388983"><ele>683.0</ele><time>2026-05-03T12:38:50.745Z</time></trkpt><trkpt lat="44.27228" lon="10.7388833"><ele>681.5</ele><time>2026-05-03T12:38:51.746Z</time></trkpt><trkpt lat="44.2721883" lon="10.73891"><ele>680.0</ele><time>2026-05-03T12:38:52.746Z</time></trkpt><trkpt lat="44.2720933" lon="10.7389583"><ele>680.0</ele><time>2026-05-03T12:38:53.746Z</time></trkpt><trkpt lat="44.272015" lon="10.7390067"><ele>680.0</ele><time>2026-05-03T12:38:54.746Z</time></trkpt><trkpt lat="44.2719433" lon="10.7390367"><ele>680.0</ele><time>2026-05-03T12:38:55.745Z</time></trkpt><trkpt lat="44.2718717" lon="10.739025"><ele>680.0</ele><time>2026-05-03T12:38:56.746Z</time></trkpt><trkpt lat="44.2718083" lon="10.7389817"><ele>680.0</ele><time>2026-05-03T12:38:57.746Z</time></trkpt><trkpt lat="44.271755" lon="10.7389033"><ele>680.0</ele><time>2026-05-03T12:38:58.746Z</time></trkpt><trkpt lat="44.2716833" lon="10.738805"><ele>680.0</ele><time>2026-05-03T12:38:59.745Z</time></trkpt><trkpt lat="44.2715967" lon="10.7387033"><ele>680.0</ele><time>2026-05-03T12:39:00.746Z</time></trkpt><trkpt lat="44.2715067" lon="10.7386167"><ele>680.0</ele><time>2026-05-03T12:39:01.746Z</time></trkpt><trkpt lat="44.27143" lon="10.7385083"><ele>680.0</ele><time>2026-05-03T12:39:02.746Z</time></trkpt><trkpt lat="44.2713717" lon="10.7383867"><ele>680.0</ele><time>2026-05-03T12:39:03.746Z</time></trkpt><trkpt lat="44.2713167" lon="10.7382517"><ele>680.0</ele><time>2026-05-03T12:39:04.746Z</time></trkpt><trkpt lat="44.2712617" lon="10.7381267"><ele>680.0</ele><time>2026-05-03T12:39:05.746Z</time></trkpt><trkpt lat="44.27121" lon="10.7379983"><ele>680.0</ele><time>2026-05-03T12:39:06.746Z</time></trkpt><trkpt lat="44.2711583" lon="10.7378567"><ele>680.0</ele><time>2026-05-03T12:39:07.745Z</time></trkpt><trkpt lat="44.27112" lon="10.7377033"><ele>680.0</ele><time>2026-05-03T12:39:08.746Z</time></trkpt><trkpt lat="44.271075" lon="10.7375533"><ele>680.0</ele><time>2026-05-03T12:39:09.746Z</time></trkpt><trkpt lat="44.27105" lon="10.7374183"><ele>680.0</ele><time>2026-05-03T12:39:10.746Z</time></trkpt><trkpt lat="44.2710317" lon="10.73729"><ele>680.0</ele><time>2026-05-03T12:39:11.745Z</time></trkpt><trkpt lat="44.2710517" lon="10.7372017"><ele>680.0</ele><time>2026-05-03T12:39:12.745Z</time></trkpt><trkpt lat="44.2710417" lon="10.7370833"><ele>680.0</ele><time>2026-05-03T12:39:13.746Z</time></trkpt><trkpt lat="44.2710283" lon="10.7369617"><ele>680.0</ele><time>2026-05-03T12:39:14.746Z</time></trkpt><trkpt lat="44.271005" lon="10.7368417"><ele>679.6666666666666</ele><time>2026-05-03T12:39:15.746Z</time></trkpt><trkpt lat="44.2709683" lon="10.7367217"><ele>679.3333333333333</ele><time>2026-05-03T12:39:16.745Z</time></trkpt><trkpt lat="44.2709217" lon="10.73663"><ele>679.0</ele><time>2026-05-03T12:39:17.745Z</time></trkpt><trkpt lat="44.2708617" lon="10.736565"><ele>678.6666666666666</ele><time>2026-05-03T12:39:18.745Z</time></trkpt><trkpt lat="44.2708033" lon="10.736515"><ele>678.3333333333334</ele><time>2026-05-03T12:39:19.745Z</time></trkpt><trkpt lat="44.2706833" lon="10.7364633"><ele>678.0</ele><time>2026-05-03T12:39:21.745Z</time></trkpt><trkpt lat="44.2705967" lon="10.7364117"><ele>678.0</ele><time>2026-05-03T12:39:22.745Z</time></trkpt><trkpt lat="44.2705083" lon="10.7363517"><ele>678.0</ele><time>2026-05-03T12:39:23.745Z</time></trkpt><trkpt lat="44.2704217" lon="10.73629"><ele>678.0</ele><time>2026-05-03T12:39:24.745Z</time></trkpt><trkpt lat="44.2703267" lon="10.73623"><ele>678.0</ele><time>2026-05-03T12:39:25.745Z</time></trkpt><trkpt lat="44.2702317" lon="10.7361617"><ele>678.0</ele><time>2026-05-03T12:39:26.745Z</time></trkpt><trkpt lat="44.2701383" lon="10.73611"><ele>678.0</ele><time>2026-05-03T12:39:27.744Z</time></trkpt><trkpt lat="44.27005" lon="10.7360617"><ele>678.0</ele><time>2026-05-03T12:39:28.745Z</time></trkpt><trkpt lat="44.26996" lon="10.73603"><ele>678.0</ele><time>2026-05-03T12:39:29.744Z</time></trkpt><trkpt lat="44.26986" lon="10.73601"><ele>678.0</ele><time>2026-05-03T12:39:30.745Z</time></trkpt><trkpt lat="44.269745" lon="10.7360067"><ele>678.0</ele><time>2026-05-03T12:39:31.745Z</time></trkpt><trkpt lat="44.2696233" lon="10.736025"><ele>674.25</ele><time>2026-05-03T12:39:32.744Z</time></trkpt><trkpt lat="44.2694983" lon="10.7360417"><ele>670.5</ele><time>2026-05-03T12:39:33.745Z</time></trkpt><trkpt lat="44.2693733" lon="10.7360383"><ele>666.75</ele><time>2026-05-03T12:39:34.745Z</time></trkpt><trkpt lat="44.2692533" lon="10.7360433"><ele>663.0</ele><time>2026-05-03T12:39:35.744Z</time></trkpt><trkpt lat="44.2691567" lon="10.7360433"><ele>663.0</ele><time>2026-05-03T12:39:36.745Z</time></trkpt><trkpt lat="44.2690683" lon="10.73605"><ele>663.0</ele><time>2026-05-03T12:39:37.745Z</time></trkpt><trkpt lat="44.2689917" lon="10.73605"><ele>663.0</ele><time>2026-05-03T12:39:38.744Z</time></trkpt><trkpt lat="44.2689217" lon="10.7360183"><ele>663.0</ele><time>2026-05-03T12:39:39.745Z</time></trkpt><trkpt lat="44.2688583" lon="10.7359533"><ele>663.0</ele><time>2026-05-03T12:39:40.745Z</time></trkpt><trkpt lat="44.268795" lon="10.7358633"><ele>663.0</ele><time>2026-05-03T12:39:41.745Z</time></trkpt><trkpt lat="44.26873" lon="10.7357867"><ele>664.0</ele><time>2026-05-03T12:39:42.745Z</time></trkpt><trkpt lat="44.2686283" lon="10.7357017"><ele>665.0</ele><time>2026-05-03T12:39:43.745Z</time></trkpt><trkpt lat="44.2685233" lon="10.735615"><ele>666.0</ele><time>2026-05-03T12:39:44.745Z</time></trkpt><trkpt lat="44.2684167" lon="10.735535"><ele>667.0</ele><time>2026-05-03T12:39:45.745Z</time></trkpt><trkpt lat="44.2683" lon="10.735465"><ele>667.0</ele><time>2026-05-03T12:39:46.745Z</time></trkpt><trkpt lat="44.26819" lon="10.7354"><ele>667.0</ele><time>2026-05-03T12:39:47.745Z</time></trkpt><trkpt lat="44.2680817" lon="10.735355"><ele>667.0</ele><time>2026-05-03T12:39:48.745Z</time></trkpt><trkpt lat="44.2679767" lon="10.7353317"><ele>667.0</ele><time>2026-05-03T12:39:49.745Z</time></trkpt><trkpt lat="44.2678833" lon="10.7353067"><ele>667.0</ele><time>2026-05-03T12:39:50.745Z</time></trkpt><trkpt lat="44.267795" lon="10.735275"><ele>666.4000000000001</ele><time>2026-05-03T12:39:51.745Z</time></trkpt><trkpt lat="44.267715" lon="10.7352133"><ele>665.8000000000001</ele><time>2026-05-03T12:39:52.745Z</time></trkpt><trkpt lat="44.267645" lon="10.735105"><ele>665.2</ele><time>2026-05-03T12:39:53.745Z</time></trkpt><trkpt lat="44.2675833" lon="10.7349667"><ele>664.6</ele><time>2026-05-03T12:39:54.745Z</time></trkpt><trkpt lat="44.2675183" lon="10.7348367"><ele>664.0</ele><time>2026-05-03T12:39:55.745Z</time></trkpt><trkpt lat="44.2674533" lon="10.7347167"><ele>664.0</ele><time>2026-05-03T12:39:56.745Z</time></trkpt><trkpt lat="44.2673767" lon="10.7346067"><ele>664.0</ele><time>2026-05-03T12:39:57.745Z</time></trkpt><trkpt lat="44.267305" lon="10.7344767"><ele>664.0</ele><time>2026-05-03T12:39:58.745Z</time></trkpt><trkpt lat="44.2672483" lon="10.7343267"><ele>664.0</ele><time>2026-05-03T12:39:59.744Z</time></trkpt><trkpt lat="44.2672033" lon="10.7341533"><ele>666.25</ele><time>2026-05-03T12:40:00.745Z</time></trkpt><trkpt lat="44.2671633" lon="10.733985"><ele>668.5</ele><time>2026-05-03T12:40:01.745Z</time></trkpt><trkpt lat="44.2671433" lon="10.733795"><ele>670.75</ele><time>2026-05-03T12:40:02.745Z</time></trkpt><trkpt lat="44.2671433" lon="10.7336083"><ele>673.0</ele><time>2026-05-03T12:40:03.745Z</time></trkpt><trkpt lat="44.267155" lon="10.7334483"><ele>673.0</ele><time>2026-05-03T12:40:04.745Z</time></trkpt><trkpt lat="44.2671783" lon="10.7333033"><ele>673.0</ele><time>2026-05-03T12:40:05.745Z</time></trkpt><trkpt lat="44.2672017" lon="10.733165"><ele>673.0</ele><time>2026-05-03T12:40:06.745Z</time></trkpt><trkpt lat="44.2672333" lon="10.733045"><ele>673.0</ele><time>2026-05-03T12:40:07.745Z</time></trkpt><trkpt lat="44.267265" lon="10.7329483"><ele>673.0</ele><time>2026-05-03T12:40:08.745Z</time></trkpt><trkpt lat="44.2673117" lon="10.732795"><ele>670.8</ele><time>2026-05-03T12:40:10.745Z</time></trkpt><trkpt lat="44.2673083" lon="10.7327017"><ele>668.5999999999999</ele><time>2026-05-03T12:40:11.745Z</time></trkpt><trkpt lat="44.2672867" lon="10.7325883"><ele>666.4000000000001</ele><time>2026-05-03T12:40:12.745Z</time></trkpt><trkpt lat="44.2672667" lon="10.73245"><ele>664.2</ele><time>2026-05-03T12:40:13.745Z</time></trkpt><trkpt lat="44.2672317" lon="10.7323117"><ele>662.0</ele><time>2026-05-03T12:40:14.745Z</time></trkpt><trkpt lat="44.267175" lon="10.7321733"><ele>662.0</ele><time>2026-05-03T12:40:15.745Z</time></trkpt><trkpt lat="44.2671233" lon="10.73204"><ele>662.0</ele><time>2026-05-03T12:40:16.745Z</time></trkpt><trkpt lat="44.2670667" lon="10.7319133"><ele>662.0</ele><time>2026-05-03T12:40:17.745Z</time></trkpt><trkpt lat="44.2669983" lon="10.731815"><ele>662.0</ele><time>2026-05-03T12:40:18.745Z</time></trkpt><trkpt lat="44.26692" lon="10.731725"><ele>662.0</ele><time>2026-05-03T12:40:19.745Z</time></trkpt><trkpt lat="44.2668267" lon="10.7316483"><ele>659.0</ele><time>2026-05-03T12:40:20.745Z</time></trkpt><trkpt lat="44.266725" lon="10.731575"><ele>656.0</ele><time>2026-05-03T12:40:21.745Z</time></trkpt><trkpt lat="44.266615" lon="10.73152"><ele>653.0</ele><time>2026-05-03T12:40:22.745Z</time></trkpt><trkpt lat="44.2665" lon="10.7314733"><ele>650.0</ele><time>2026-05-03T12:40:23.744Z</time></trkpt><trkpt lat="44.2663917" lon="10.7314167"><ele>650.0</ele><time>2026-05-03T12:40:24.745Z</time></trkpt><trkpt lat="44.266285" lon="10.7313767"><ele>650.0</ele><time>2026-05-03T12:40:25.745Z</time></trkpt><trkpt lat="44.2661817" lon="10.7313633"><ele>650.0</ele><time>2026-05-03T12:40:26.745Z</time></trkpt><trkpt lat="44.2660933" lon="10.7313583"><ele>650.0</ele><time>2026-05-03T12:40:27.745Z</time></trkpt><trkpt lat="44.2660067" lon="10.731355"><ele>650.0</ele><time>2026-05-03T12:40:28.745Z</time></trkpt><trkpt lat="44.2659217" lon="10.7313483"><ele>650.0</ele><time>2026-05-03T12:40:29.744Z</time></trkpt><trkpt lat="44.26585" lon="10.731325"><ele>650.0</ele><time>2026-05-03T12:40:30.745Z</time></trkpt><trkpt lat="44.2657883" lon="10.7313"><ele>650.0</ele><time>2026-05-03T12:40:31.745Z</time></trkpt><trkpt lat="44.2656683" lon="10.731255"><ele>650.0</ele><time>2026-05-03T12:40:33.745Z</time></trkpt><trkpt lat="44.2655967" lon="10.7312333"><ele>650.0</ele><time>2026-05-03T12:40:34.745Z</time></trkpt><trkpt lat="44.26551" lon="10.73122"><ele>650.0</ele><time>2026-05-03T12:40:35.745Z</time></trkpt><trkpt lat="44.2654283" lon="10.731205"><ele>650.3333333333333</ele><time>2026-05-03T12:40:36.744Z</time></trkpt><trkpt lat="44.2653467" lon="10.73118"><ele>650.6666666666666</ele><time>2026-05-03T12:40:37.745Z</time></trkpt><trkpt lat="44.2652717" lon="10.731135"><ele>651.0</ele><time>2026-05-03T12:40:38.745Z</time></trkpt><trkpt lat="44.2652017" lon="10.7310717"><ele>651.3333333333334</ele><time>2026-05-03T12:40:39.745Z</time></trkpt><trkpt lat="44.2651267" lon="10.7309933"><ele>651.6666666666667</ele><time>2026-05-03T12:40:40.745Z</time></trkpt><trkpt lat="44.2650617" lon="10.7309317"><ele>652.0</ele><time>2026-05-03T12:40:41.745Z</time></trkpt><trkpt lat="44.26501" lon="10.730875"><ele>651.8333333333334</ele><time>2026-05-03T12:40:42.745Z</time></trkpt><trkpt lat="44.264965" lon="10.7307983"><ele>651.6666666666667</ele><time>2026-05-03T12:40:44.745Z</time></trkpt><trkpt lat="44.26492" lon="10.7306833"><ele>651.5</ele><time>2026-05-03T12:40:46.745Z</time></trkpt><trkpt lat="44.2648933" lon="10.7306033"><ele>651.3333333333334</ele><time>2026-05-03T12:40:47.744Z</time></trkpt><trkpt lat="44.264855" lon="10.7305283"><ele>651.1666666666666</ele><time>2026-05-03T12:40:48.745Z</time></trkpt><trkpt lat="44.2648033" lon="10.7304533"><ele>651.0</ele><time>2026-05-03T12:40:49.745Z</time></trkpt><trkpt lat="44.2647433" lon="10.7303717"><ele>651.0</ele><time>2026-05-03T12:40:50.745Z</time></trkpt><trkpt lat="44.2646833" lon="10.7302983"><ele>651.0</ele><time>2026-05-03T12:40:51.744Z</time></trkpt><trkpt lat="44.26462" lon="10.730215"><ele>651.0</ele><time>2026-05-03T12:40:52.745Z</time></trkpt><trkpt lat="44.2645583" lon="10.730115"><ele>651.0</ele><time>2026-05-03T12:40:53.745Z</time></trkpt><trkpt lat="44.2645" lon="10.7300233"><ele>651.0</ele><time>2026-05-03T12:40:54.745Z</time></trkpt><trkpt lat="44.26444" lon="10.729925"><ele>651.0</ele><time>2026-05-03T12:40:55.745Z</time></trkpt><trkpt lat="44.2643783" lon="10.7298183"><ele>649.5</ele><time>2026-05-03T12:40:56.745Z</time></trkpt><trkpt lat="44.2643267" lon="10.7297133"><ele>648.0</ele><time>2026-05-03T12:40:57.745Z</time></trkpt><trkpt lat="44.264275" lon="10.7296183"><ele>646.5</ele><time>2026-05-03T12:40:58.744Z</time></trkpt><trkpt lat="44.2642267" lon="10.7295367"><ele>645.0</ele><time>2026-05-03T12:40:59.745Z</time></trkpt><trkpt lat="44.2641833" lon="10.7294533"><ele>643.5</ele><time>2026-05-03T12:41:00.744Z</time></trkpt><trkpt lat="44.2641417" lon="10.7293733"><ele>642.0</ele><time>2026-05-03T12:41:01.745Z</time></trkpt><trkpt lat="44.2640933" lon="10.7292917"><ele>641.4</ele><time>2026-05-03T12:41:02.745Z</time></trkpt><trkpt lat="44.2640383" lon="10.729215"><ele>640.8000000000001</ele><time>2026-05-03T12:41:03.745Z</time></trkpt><trkpt lat="44.2639817" lon="10.7291233"><ele>640.2</ele><time>2026-05-03T12:41:04.745Z</time></trkpt><trkpt lat="44.2639117" lon="10.729005"><ele>639.6</ele><time>2026-05-03T12:41:05.744Z</time></trkpt><trkpt lat="44.2638383" lon="10.7288817"><ele>639.0</ele><time>2026-05-03T12:41:06.745Z</time></trkpt><trkpt lat="44.26376" lon="10.7287567"><ele>639.0</ele><time>2026-05-03T12:41:07.745Z</time></trkpt><trkpt lat="44.2636833" lon="10.728655"><ele>639.0</ele><time>2026-05-03T12:41:08.745Z</time></trkpt><trkpt lat="44.2636133" lon="10.72855"><ele>639.0</ele><time>2026-05-03T12:41:09.745Z</time></trkpt><trkpt lat="44.26355" lon="10.7284367"><ele>639.0</ele><time>2026-05-03T12:41:10.745Z</time></trkpt><trkpt lat="44.2634917" lon="10.7283333"><ele>639.0</ele><time>2026-05-03T12:41:11.745Z</time></trkpt><trkpt lat="44.263435" lon="10.7282333"><ele>636.8333333333334</ele><time>2026-05-03T12:41:12.745Z</time></trkpt><trkpt lat="44.2633767" lon="10.7281467"><ele>634.6666666666666</ele><time>2026-05-03T12:41:13.744Z</time></trkpt><trkpt lat="44.2633283" lon="10.7280583"><ele>632.5</ele><time>2026-05-03T12:41:14.745Z</time></trkpt><trkpt lat="44.2632867" lon="10.72795"><ele>630.3333333333333</ele><time>2026-05-03T12:41:15.744Z</time></trkpt><trkpt lat="44.2632567" lon="10.727835"><ele>628.1666666666666</ele><time>2026-05-03T12:41:16.744Z</time></trkpt><trkpt lat="44.2632417" lon="10.727725"><ele>626.0</ele><time>2026-05-03T12:41:17.745Z</time></trkpt><trkpt lat="44.26322" lon="10.7276133"><ele>624.5</ele><time>2026-05-03T12:41:18.744Z</time></trkpt><trkpt lat="44.2631917" lon="10.72752"><ele>623.0</ele><time>2026-05-03T12:41:19.745Z</time></trkpt><trkpt lat="44.2631633" lon="10.7274333"><ele>621.5</ele><time>2026-05-03T12:41:20.745Z</time></trkpt><trkpt lat="44.2631783" lon="10.72728"><ele>620.0</ele><time>2026-05-03T12:41:22.745Z</time></trkpt><trkpt lat="44.26329" lon="10.7272033"><ele>618.5</ele><time>2026-05-03T12:41:24.745Z</time></trkpt><trkpt lat="44.263355" lon="10.7271883"><ele>617.0</ele><time>2026-05-03T12:41:25.744Z</time></trkpt><trkpt lat="44.2634183" lon="10.727155"><ele>617.0</ele><time>2026-05-03T12:41:26.744Z</time></trkpt><trkpt lat="44.2634883" lon="10.7271017"><ele>617.0</ele><time>2026-05-03T12:41:27.745Z</time></trkpt><trkpt lat="44.2635467" lon="10.727035"><ele>617.0</ele><time>2026-05-03T12:41:28.744Z</time></trkpt><trkpt lat="44.2636083" lon="10.7269617"><ele>617.0</ele><time>2026-05-03T12:41:29.745Z</time></trkpt><trkpt lat="44.2636733" lon="10.7268883"><ele>617.0</ele><time>2026-05-03T12:41:30.745Z</time></trkpt><trkpt lat="44.2637333" lon="10.72683"><ele>617.0</ele><time>2026-05-03T12:41:31.745Z</time></trkpt><trkpt lat="44.2637783" lon="10.7267667"><ele>616.6666666666666</ele><time>2026-05-03T12:41:32.745Z</time></trkpt><trkpt lat="44.2638133" lon="10.7266867"><ele>616.3333333333333</ele><time>2026-05-03T12:41:33.745Z</time></trkpt><trkpt lat="44.2638383" lon="10.7265817"><ele>616.0</ele><time>2026-05-03T12:41:34.745Z</time></trkpt><trkpt lat="44.26386" lon="10.72646"><ele>615.6666666666666</ele><time>2026-05-03T12:41:35.744Z</time></trkpt><trkpt lat="44.2638783" lon="10.726345"><ele>615.3333333333334</ele><time>2026-05-03T12:41:36.745Z</time></trkpt><trkpt lat="44.2638933" lon="10.726235"><ele>615.0</ele><time>2026-05-03T12:41:37.745Z</time></trkpt><trkpt lat="44.26389" lon="10.7261267"><ele>614.3333333333334</ele><time>2026-05-03T12:41:38.745Z</time></trkpt><trkpt lat="44.26387" lon="10.726005"><ele>613.6666666666666</ele><time>2026-05-03T12:41:39.745Z</time></trkpt><trkpt lat="44.2638383" lon="10.725875"><ele>613.0</ele><time>2026-05-03T12:41:40.745Z</time></trkpt><trkpt lat="44.2638017" lon="10.7257517"><ele>612.3333333333333</ele><time>2026-05-03T12:41:41.745Z</time></trkpt><trkpt lat="44.2637683" lon="10.7256467"><ele>611.6666666666666</ele><time>2026-05-03T12:41:42.745Z</time></trkpt><trkpt lat="44.2637417" lon="10.7255533"><ele>611.0</ele><time>2026-05-03T12:41:43.745Z</time></trkpt><trkpt lat="44.2637317" lon="10.7254583"><ele>611.0</ele><time>2026-05-03T12:41:44.745Z</time></trkpt><trkpt lat="44.263735" lon="10.725305"><ele>611.0</ele><time>2026-05-03T12:41:46.745Z</time></trkpt><trkpt lat="44.263715" lon="10.7251567"><ele>611.0</ele><time>2026-05-03T12:41:48.745Z</time></trkpt><trkpt lat="44.2636717" lon="10.7249933"><ele>611.0</ele><time>2026-05-03T12:41:50.745Z</time></trkpt><trkpt lat="44.2636517" lon="10.7248983"><ele>611.0</ele><time>2026-05-03T12:41:51.745Z</time></trkpt><trkpt lat="44.2636333" lon="10.7247933"><ele>609.8333333333333</ele><time>2026-05-03T12:41:52.745Z</time></trkpt><trkpt lat="44.2636183" lon="10.7246883"><ele>608.6666666666666</ele><time>2026-05-03T12:41:53.745Z</time></trkpt><trkpt lat="44.2636067" lon="10.7245917"><ele>607.5</ele><time>2026-05-03T12:41:54.745Z</time></trkpt><trkpt lat="44.2635833" lon="10.7244817"><ele>606.3333333333334</ele><time>2026-05-03T12:41:55.744Z</time></trkpt><trkpt lat="44.2635483" lon="10.72439"><ele>605.1666666666667</ele><time>2026-05-03T12:41:56.744Z</time></trkpt><trkpt lat="44.263515" lon="10.7243033"><ele>604.0</ele><time>2026-05-03T12:41:57.745Z</time></trkpt><trkpt lat="44.2634783" lon="10.72421"><ele>601.8333333333334</ele><time>2026-05-03T12:41:58.744Z</time></trkpt><trkpt lat="44.26346" lon="10.72411"><ele>599.6666666666667</ele><time>2026-05-03T12:41:59.744Z</time></trkpt><trkpt lat="44.2634483" lon="10.724"><ele>597.5</ele><time>2026-05-03T12:42:00.745Z</time></trkpt><trkpt lat="44.26343" lon="10.723885"><ele>595.3333333333334</ele><time>2026-05-03T12:42:01.745Z</time></trkpt><trkpt lat="44.2634" lon="10.7237733"><ele>593.1666666666666</ele><time>2026-05-03T12:42:02.745Z</time></trkpt><trkpt lat="44.263355" lon="10.723675"><ele>591.0</ele><time>2026-05-03T12:42:03.745Z</time></trkpt><trkpt lat="44.2633" lon="10.7235883"><ele>588.5</ele><time>2026-05-03T12:42:04.745Z</time></trkpt><trkpt lat="44.2632333" lon="10.7234967"><ele>586.0</ele><time>2026-05-03T12:42:05.744Z</time></trkpt><trkpt lat="44.2631717" lon="10.72341"><ele>583.5</ele><time>2026-05-03T12:42:06.744Z</time></trkpt><trkpt lat="44.2631117" lon="10.7233283"><ele>581.0</ele><time>2026-05-03T12:42:07.744Z</time></trkpt><trkpt lat="44.26305" lon="10.7232433"><ele>578.5</ele><time>2026-05-03T12:42:08.745Z</time></trkpt><trkpt lat="44.2629917" lon="10.7231617"><ele>576.0</ele><time>2026-05-03T12:42:09.745Z</time></trkpt><trkpt lat="44.2629217" lon="10.7230833"><ele>576.0000000000001</ele><time>2026-05-03T12:42:10.745Z</time></trkpt><trkpt lat="44.2628583" lon="10.72304"><ele>576.0</ele><time>2026-05-03T12:42:11.745Z</time></trkpt><trkpt lat="44.2627883" lon="10.7230133"><ele>576.0</ele><time>2026-05-03T12:42:12.745Z</time></trkpt><trkpt lat="44.262715" lon="10.723005"><ele>576.0</ele><time>2026-05-03T12:42:13.745Z</time></trkpt><trkpt lat="44.2626517" lon="10.7230117"><ele>576.0</ele><time>2026-05-03T12:42:14.745Z</time></trkpt><trkpt lat="44.2625567" lon="10.7230183"><ele>576.0000000000001</ele><time>2026-05-03T12:42:16.744Z</time></trkpt><trkpt lat="44.2625333" lon="10.722925"><ele>576.0</ele><time>2026-05-03T12:42:18.745Z</time></trkpt><trkpt lat="44.2626133" lon="10.7228517"><ele>576.0</ele><time>2026-05-03T12:42:20.745Z</time></trkpt><trkpt lat="44.2627383" lon="10.7228217"><ele>576.0</ele><time>2026-05-03T12:42:22.745Z</time></trkpt><trkpt lat="44.26281" lon="10.722795"><ele>576.0</ele><time>2026-05-03T12:42:23.745Z</time></trkpt><trkpt lat="44.2628917" lon="10.72276"><ele>576.0</ele><time>2026-05-03T12:42:24.745Z</time></trkpt><trkpt lat="44.26297" lon="10.72273"><ele>576.0</ele><time>2026-05-03T12:42:25.745Z</time></trkpt><trkpt lat="44.2630433" lon="10.7226817"><ele>576.0</ele><time>2026-05-03T12:42:26.744Z</time></trkpt><trkpt lat="44.2631067" lon="10.722635"><ele>572.0</ele><time>2026-05-03T12:42:27.745Z</time></trkpt><trkpt lat="44.2631717" lon="10.722605"><ele>568.0</ele><time>2026-05-03T12:42:28.745Z</time></trkpt><trkpt lat="44.2632367" lon="10.722585"><ele>564.0</ele><time>2026-05-03T12:42:29.745Z</time></trkpt><trkpt lat="44.2633" lon="10.7225733"><ele>560.0</ele><time>2026-05-03T12:42:30.745Z</time></trkpt><trkpt lat="44.2633617" lon="10.7225183"><ele>556.0</ele><time>2026-05-03T12:42:32.745Z</time></trkpt><trkpt lat="44.263335" lon="10.722435"><ele>552.0</ele><time>2026-05-03T12:42:34.745Z</time></trkpt><trkpt lat="44.263215" lon="10.722395"><ele>552.0</ele><time>2026-05-03T12:42:36.745Z</time></trkpt><trkpt lat="44.26312" lon="10.7224"><ele>552.0</ele><time>2026-05-03T12:42:37.744Z</time></trkpt><trkpt lat="44.2630417" lon="10.722405"><ele>552.0</ele><time>2026-05-03T12:42:38.744Z</time></trkpt><trkpt lat="44.262975" lon="10.7223817"><ele>552.0</ele><time>2026-05-03T12:42:39.744Z</time></trkpt><trkpt lat="44.2628983" lon="10.722255"><ele>552.0</ele><time>2026-05-03T12:42:41.745Z</time></trkpt><trkpt lat="44.26288" lon="10.72216"><ele>552.0</ele><time>2026-05-03T12:42:42.745Z</time></trkpt><trkpt lat="44.2628783" lon="10.7220583"><ele>553.2</ele><time>2026-05-03T12:42:43.745Z</time></trkpt><trkpt lat="44.2628783" lon="10.7219617"><ele>554.4000000000001</ele><time>2026-05-03T12:42:44.745Z</time></trkpt><trkpt lat="44.2629017" lon="10.7218317"><ele>555.5999999999999</ele><time>2026-05-03T12:42:46.745Z</time></trkpt><trkpt lat="44.2629383" lon="10.7216833"><ele>556.8</ele><time>2026-05-03T12:44:53.743Z</time></trkpt><trkpt lat="44.2629717" lon="10.72157"><ele>558.0</ele><time>2026-05-03T12:44:55.743Z</time></trkpt><trkpt lat="44.262955" lon="10.7214283"><ele>558.3333333333334</ele><time>2026-05-03T12:44:57.744Z</time></trkpt><trkpt lat="44.26289" lon="10.7213"><ele>558.6666666666666</ele><time>2026-05-03T12:44:59.744Z</time></trkpt><trkpt lat="44.262825" lon="10.7211633"><ele>559.0</ele><time>2026-05-03T12:45:01.744Z</time></trkpt><trkpt lat="44.2628017" lon="10.7210783"><ele>559.3333333333333</ele><time>2026-05-03T12:45:02.744Z</time></trkpt><trkpt lat="44.2627933" lon="10.7209867"><ele>559.6666666666666</ele><time>2026-05-03T12:45:03.744Z</time></trkpt><trkpt lat="44.2627933" lon="10.72089"><ele>560.0</ele><time>2026-05-03T12:45:04.744Z</time></trkpt><trkpt lat="44.262805" lon="10.7207983"><ele>560.1428571428571</ele><time>2026-05-03T12:45:05.743Z</time></trkpt><trkpt lat="44.262815" lon="10.7207017"><ele>560.2857142857142</ele><time>2026-05-03T12:45:06.744Z</time></trkpt><trkpt lat="44.26282" lon="10.7206017"><ele>560.4285714285714</ele><time>2026-05-03T12:45:07.744Z</time></trkpt><trkpt lat="44.2628267" lon="10.7205067"><ele>560.5714285714286</ele><time>2026-05-03T12:45:08.744Z</time></trkpt><trkpt lat="44.26283" lon="10.7204167"><ele>560.7142857142857</ele><time>2026-05-03T12:45:09.744Z</time></trkpt><trkpt lat="44.2628167" lon="10.7203183"><ele>560.8571428571429</ele><time>2026-05-03T12:45:10.743Z</time></trkpt><trkpt lat="44.2627917" lon="10.72022"><ele>561.0</ele><time>2026-05-03T12:45:11.744Z</time></trkpt><trkpt lat="44.26276" lon="10.7201217"><ele>561.0</ele><time>2026-05-03T12:45:12.744Z</time></trkpt><trkpt lat="44.2627183" lon="10.72003"><ele>561.0</ele><time>2026-05-03T12:45:13.744Z</time></trkpt><trkpt lat="44.2626783" lon="10.7199267"><ele>561.0</ele><time>2026-05-03T12:45:14.744Z</time></trkpt><trkpt lat="44.2626433" lon="10.7198167"><ele>561.0</ele><time>2026-05-03T12:45:15.744Z</time></trkpt><trkpt lat="44.2626133" lon="10.7196983"><ele>561.0</ele><time>2026-05-03T12:45:16.744Z</time></trkpt><trkpt lat="44.26258" lon="10.7195983"><ele>561.0</ele><time>2026-05-03T12:45:17.744Z</time></trkpt><trkpt lat="44.2625333" lon="10.719515"><ele>561.0</ele><time>2026-05-03T12:45:18.743Z</time></trkpt><trkpt lat="44.2624717" lon="10.7194417"><ele>561.0</ele><time>2026-05-03T12:45:19.744Z</time></trkpt><trkpt lat="44.262405" lon="10.7193567"><ele>561.0</ele><time>2026-05-03T12:45:20.744Z</time></trkpt><trkpt lat="44.2623417" lon="10.7192517"><ele>561.0</ele><time>2026-05-03T12:45:21.743Z</time></trkpt><trkpt lat="44.2622767" lon="10.71913"><ele>561.0</ele><time>2026-05-03T12:45:22.744Z</time></trkpt><trkpt lat="44.262215" lon="10.7190017"><ele>561.6</ele><time>2026-05-03T12:45:23.744Z</time></trkpt><trkpt lat="44.2621567" lon="10.7188767"><ele>562.2</ele><time>2026-05-03T12:45:24.744Z</time></trkpt><trkpt lat="44.2621017" lon="10.7187583"><ele>562.8</ele><time>2026-05-03T12:45:25.744Z</time></trkpt><trkpt lat="44.2620533" lon="10.718645"><ele>563.4</ele><time>2026-05-03T12:45:26.744Z</time></trkpt><trkpt lat="44.2620083" lon="10.71851"><ele>564.0</ele><time>2026-05-03T12:45:27.744Z</time></trkpt><trkpt lat="44.2619683" lon="10.7183783"><ele>564.0</ele><time>2026-05-03T12:45:28.744Z</time></trkpt><trkpt lat="44.2619133" lon="10.7182267"><ele>564.0</ele><time>2026-05-03T12:45:29.743Z</time></trkpt><trkpt lat="44.2618683" lon="10.7181017"><ele>564.0</ele><time>2026-05-03T12:45:30.744Z</time></trkpt><trkpt lat="44.2618333" lon="10.71798"><ele>564.0</ele><time>2026-05-03T12:45:31.744Z</time></trkpt><trkpt lat="44.2617933" lon="10.7178567"><ele>564.0</ele><time>2026-05-03T12:45:32.743Z</time></trkpt><trkpt lat="44.2617517" lon="10.7177417"><ele>563.1666666666666</ele><time>2026-05-03T12:45:33.744Z</time></trkpt><trkpt lat="44.2617067" lon="10.7176483"><ele>562.3333333333334</ele><time>2026-05-03T12:45:34.744Z</time></trkpt><trkpt lat="44.26165" lon="10.7175783"><ele>561.5</ele><time>2026-05-03T12:45:35.744Z</time></trkpt><trkpt lat="44.2615783" lon="10.7175117"><ele>560.6666666666667</ele><time>2026-05-03T12:45:36.744Z</time></trkpt><trkpt lat="44.2615133" lon="10.717415"><ele>559.8333333333334</ele><time>2026-05-03T12:45:37.743Z</time></trkpt><trkpt lat="44.261465" lon="10.7172983"><ele>559.0</ele><time>2026-05-03T12:45:38.744Z</time></trkpt><trkpt lat="44.261435" lon="10.71718"><ele>558.3333333333334</ele><time>2026-05-03T12:45:39.744Z</time></trkpt><trkpt lat="44.2614183" lon="10.7170683"><ele>557.6666666666667</ele><time>2026-05-03T12:45:40.744Z</time></trkpt><trkpt lat="44.2614267" lon="10.71696"><ele>557.0</ele><time>2026-05-03T12:45:41.743Z</time></trkpt><trkpt lat="44.2614317" lon="10.7168383"><ele>556.3333333333334</ele><time>2026-05-03T12:45:42.743Z</time></trkpt><trkpt lat="44.2614417" lon="10.7167133"><ele>555.6666666666666</ele><time>2026-05-03T12:45:43.744Z</time></trkpt><trkpt lat="44.2614683" lon="10.716595"><ele>555.0</ele><time>2026-05-03T12:45:44.744Z</time></trkpt><trkpt lat="44.2615017" lon="10.7164783"><ele>555.0</ele><time>2026-05-03T12:45:45.744Z</time></trkpt><trkpt lat="44.26153" lon="10.71637"><ele>555.0</ele><time>2026-05-03T12:45:46.744Z</time></trkpt><trkpt lat="44.2615367" lon="10.7162567"><ele>555.0</ele><time>2026-05-03T12:45:47.744Z</time></trkpt><trkpt lat="44.2615217" lon="10.716135"><ele>555.0</ele><time>2026-05-03T12:45:48.744Z</time></trkpt><trkpt lat="44.2614883" lon="10.7160267"><ele>555.0</ele><time>2026-05-03T12:45:49.743Z</time></trkpt><trkpt lat="44.2614283" lon="10.71592"><ele>555.0</ele><time>2026-05-03T12:45:50.744Z</time></trkpt><trkpt lat="44.2613567" lon="10.71583"><ele>556.8</ele><time>2026-05-03T12:45:51.743Z</time></trkpt><trkpt lat="44.2612833" lon="10.7157633"><ele>558.6</ele><time>2026-05-03T12:45:52.744Z</time></trkpt><trkpt lat="44.2612017" lon="10.7157183"><ele>560.4</ele><time>2026-05-03T12:45:53.744Z</time></trkpt><trkpt lat="44.2611083" lon="10.7157"><ele>562.2</ele><time>2026-05-03T12:45:54.744Z</time></trkpt><trkpt lat="44.2610083" lon="10.7157"><ele>564.0</ele><time>2026-05-03T12:45:55.744Z</time></trkpt><trkpt lat="44.26091" lon="10.7156883"><ele>564.0</ele><time>2026-05-03T12:45:56.744Z</time></trkpt><trkpt lat="44.26081" lon="10.71568"><ele>564.0</ele><time>2026-05-03T12:45:57.744Z</time></trkpt><trkpt lat="44.2607033" lon="10.7156783"><ele>564.0</ele><time>2026-05-03T12:45:58.744Z</time></trkpt><trkpt lat="44.2606083" lon="10.7156833"><ele>564.0</ele><time>2026-05-03T12:45:59.744Z</time></trkpt><trkpt lat="44.2605283" lon="10.71568"><ele>564.0</ele><time>2026-05-03T12:46:00.744Z</time></trkpt><trkpt lat="44.2604617" lon="10.7156617"><ele>565.0</ele><time>2026-05-03T12:46:01.744Z</time></trkpt><trkpt lat="44.2604083" lon="10.7156083"><ele>566.0</ele><time>2026-05-03T12:46:02.743Z</time></trkpt><trkpt lat="44.260345" lon="10.7155367"><ele>567.0</ele><time>2026-05-03T12:46:03.744Z</time></trkpt><trkpt lat="44.2602683" lon="10.71548"><ele>568.0</ele><time>2026-05-03T12:46:04.743Z</time></trkpt><trkpt lat="44.2601883" lon="10.715435"><ele>569.0</ele><time>2026-05-03T12:46:05.744Z</time></trkpt><trkpt lat="44.2600933" lon="10.7154133"><ele>570.0</ele><time>2026-05-03T12:46:06.744Z</time></trkpt><trkpt lat="44.26" lon="10.7153967"><ele>570.0</ele><time>2026-05-03T12:46:07.744Z</time></trkpt><trkpt lat="44.2599" lon="10.7153767"><ele>570.0</ele><time>2026-05-03T12:46:08.744Z</time></trkpt><trkpt lat="44.2598083" lon="10.7153633"><ele>570.0</ele><time>2026-05-03T12:46:09.744Z</time></trkpt><trkpt lat="44.2597267" lon="10.7153517"><ele>570.0</ele><time>2026-05-03T12:46:10.744Z</time></trkpt><trkpt lat="44.2596517" lon="10.7153417"><ele>570.0</ele><time>2026-05-03T12:46:11.744Z</time></trkpt><trkpt lat="44.2595433" lon="10.7153117"><ele>571.0</ele><time>2026-05-03T12:46:13.744Z</time></trkpt><trkpt lat="44.2594617" lon="10.71528"><ele>572.0</ele><time>2026-05-03T12:46:15.744Z</time></trkpt><trkpt lat="44.259415" lon="10.715185"><ele>573.0</ele><time>2026-05-03T12:46:17.744Z</time></trkpt><trkpt lat="44.259365" lon="10.7150133"><ele>574.0</ele><time>2026-05-03T12:46:19.744Z</time></trkpt><trkpt lat="44.2593317" lon="10.7148933"><ele>575.0</ele><time>2026-05-03T12:46:20.744Z</time></trkpt><trkpt lat="44.2593" lon="10.714765"><ele>575.0</ele><time>2026-05-03T12:46:21.744Z</time></trkpt><trkpt lat="44.25926" lon="10.7146267"><ele>575.0</ele><time>2026-05-03T12:46:22.744Z</time></trkpt><trkpt lat="44.2592233" lon="10.71449"><ele>575.0</ele><time>2026-05-03T12:46:23.744Z</time></trkpt><trkpt lat="44.259175" lon="10.714355"><ele>575.0</ele><time>2026-05-03T12:46:24.743Z</time></trkpt><trkpt lat="44.2591133" lon="10.714225"><ele>575.0</ele><time>2026-05-03T12:46:25.744Z</time></trkpt><trkpt lat="44.259035" lon="10.7141"><ele>576.25</ele><time>2026-05-03T12:46:26.744Z</time></trkpt><trkpt lat="44.2589467" lon="10.7139817"><ele>577.5</ele><time>2026-05-03T12:46:27.744Z</time></trkpt><trkpt lat="44.2588683" lon="10.713835"><ele>578.75</ele><time>2026-05-03T12:46:28.743Z</time></trkpt><trkpt lat="44.2587983" lon="10.7136767"><ele>580.0</ele><time>2026-05-03T12:46:29.744Z</time></trkpt><trkpt lat="44.2587383" lon="10.7135183"><ele>580.0</ele><time>2026-05-03T12:46:30.744Z</time></trkpt><trkpt lat="44.2586733" lon="10.7133717"><ele>580.0</ele><time>2026-05-03T12:46:31.743Z</time></trkpt><trkpt lat="44.2585933" lon="10.7132517"><ele>580.0</ele><time>2026-05-03T12:46:32.743Z</time></trkpt><trkpt lat="44.2585017" lon="10.7131567"><ele>580.0</ele><time>2026-05-03T12:46:33.744Z</time></trkpt><trkpt lat="44.25839" lon="10.7130783"><ele>580.0</ele><time>2026-05-03T12:46:34.744Z</time></trkpt><trkpt lat="44.2582717" lon="10.7130267"><ele>580.0</ele><time>2026-05-03T12:46:35.743Z</time></trkpt><trkpt lat="44.2581633" lon="10.7129867"><ele>580.0</ele><time>2026-05-03T12:46:36.744Z</time></trkpt><trkpt lat="44.25807" lon="10.7129317"><ele>580.0</ele><time>2026-05-03T12:46:37.744Z</time></trkpt><trkpt lat="44.258" lon="10.712855"><ele>580.0</ele><time>2026-05-03T12:46:38.744Z</time></trkpt><trkpt lat="44.25796" lon="10.71274"><ele>582.0</ele><time>2026-05-03T12:46:39.744Z</time></trkpt><trkpt lat="44.2579517" lon="10.7126067"><ele>584.0</ele><time>2026-05-03T12:46:40.743Z</time></trkpt><trkpt lat="44.2579483" lon="10.712465"><ele>586.0</ele><time>2026-05-03T12:46:41.744Z</time></trkpt><trkpt lat="44.257935" lon="10.7123133"><ele>588.0</ele><time>2026-05-03T12:46:42.744Z</time></trkpt><trkpt lat="44.2579033" lon="10.7121583"><ele>590.0</ele><time>2026-05-03T12:46:43.744Z</time></trkpt><trkpt lat="44.2578483" lon="10.7120267"><ele>587.4</ele><time>2026-05-03T12:46:44.743Z</time></trkpt><trkpt lat="44.25778" lon="10.7119017"><ele>584.8</ele><time>2026-05-03T12:46:45.744Z</time></trkpt><trkpt lat="44.2577083" lon="10.7117883"><ele>582.2</ele><time>2026-05-03T12:46:46.744Z</time></trkpt><trkpt lat="44.2576533" lon="10.7116783"><ele>579.6</ele><time>2026-05-03T12:46:47.744Z</time></trkpt><trkpt lat="44.257615" lon="10.7115617"><ele>577.0</ele><time>2026-05-03T12:46:48.743Z</time></trkpt><trkpt lat="44.257605" lon="10.711435"><ele>577.0</ele><time>2026-05-03T12:46:49.744Z</time></trkpt><trkpt lat="44.2576167" lon="10.71131"><ele>577.0</ele><time>2026-05-03T12:46:50.744Z</time></trkpt><trkpt lat="44.257645" lon="10.7112033"><ele>577.0</ele><time>2026-05-03T12:46:51.744Z</time></trkpt><trkpt lat="44.257685" lon="10.7111283"><ele>577.0</ele><time>2026-05-03T12:46:52.744Z</time></trkpt><trkpt lat="44.2577383" lon="10.7110617"><ele>577.0</ele><time>2026-05-03T12:46:54.743Z</time></trkpt><trkpt lat="44.2577517" lon="10.7109583"><ele>577.0</ele><time>2026-05-03T12:47:03.743Z</time></trkpt><trkpt lat="44.25772" lon="10.7108467"><ele>574.25</ele><time>2026-05-03T12:47:04.744Z</time></trkpt><trkpt lat="44.2576633" lon="10.7107317"><ele>571.5</ele><time>2026-05-03T12:47:05.744Z</time></trkpt><trkpt lat="44.2575983" lon="10.7106067"><ele>568.75</ele><time>2026-05-03T12:47:06.744Z</time></trkpt><trkpt lat="44.2575317" lon="10.7104683"><ele>566.0</ele><time>2026-05-03T12:47:07.744Z</time></trkpt><trkpt lat="44.2574667" lon="10.7103217"><ele>565.0</ele><time>2026-05-03T12:47:08.744Z</time></trkpt><trkpt lat="44.2573933" lon="10.7101767"><ele>564.0</ele><time>2026-05-03T12:47:09.743Z</time></trkpt><trkpt lat="44.2573217" lon="10.7100233"><ele>563.0</ele><time>2026-05-03T12:47:10.744Z</time></trkpt><trkpt lat="44.2572433" lon="10.709875"><ele>562.0</ele><time>2026-05-03T12:47:11.744Z</time></trkpt><trkpt lat="44.2571533" lon="10.70972"><ele>568.0</ele><time>2026-05-03T12:47:12.744Z</time></trkpt><trkpt lat="44.2570767" lon="10.7095567"><ele>574.0</ele><time>2026-05-03T12:47:13.744Z</time></trkpt><trkpt lat="44.25699" lon="10.7094"><ele>580.0</ele><time>2026-05-03T12:47:14.744Z</time></trkpt><trkpt lat="44.256905" lon="10.7092317"><ele>586.0</ele><time>2026-05-03T12:47:15.744Z</time></trkpt><trkpt lat="44.2568267" lon="10.70907"><ele>592.25</ele><time>2026-05-03T12:47:16.744Z</time></trkpt><trkpt lat="44.2567533" lon="10.7089133"><ele>598.5</ele><time>2026-05-03T12:47:17.744Z</time></trkpt><trkpt lat="44.2566667" lon="10.708745"><ele>604.75</ele><time>2026-05-03T12:47:18.744Z</time></trkpt><trkpt lat="44.25658" lon="10.7085767"><ele>611.0</ele><time>2026-05-03T12:47:19.743Z</time></trkpt><trkpt lat="44.2564967" lon="10.70841"><ele>627.3333333333333</ele><time>2026-05-03T12:47:20.743Z</time></trkpt><trkpt lat="44.2564117" lon="10.7082433"><ele>643.6666666666666</ele><time>2026-05-03T12:47:21.744Z</time></trkpt><trkpt lat="44.2563283" lon="10.7080767"><ele>660.0</ele><time>2026-05-03T12:47:22.744Z</time></trkpt><trkpt lat="44.2530133" lon="10.6933233"><ele>660.0</ele><time>2026-05-03T12:48:27.762Z</time></trkpt><trkpt lat="44.2530283" lon="10.693015"><ele>660.0</ele><time>2026-05-03T12:48:28.762Z</time></trkpt><trkpt lat="44.25303" lon="10.6927533"><ele>660.0</ele><time>2026-05-03T12:48:29.762Z</time></trkpt><trkpt lat="44.25302" lon="10.6925083"><ele>659.3333333333334</ele><time>2026-05-03T12:48:30.762Z</time></trkpt><trkpt lat="44.253005" lon="10.6922667"><ele>658.6666666666667</ele><time>2026-05-03T12:48:31.762Z</time></trkpt><trkpt lat="44.252975" lon="10.6920317"><ele>658.0</ele><time>2026-05-03T12:48:32.762Z</time></trkpt><trkpt lat="44.2529333" lon="10.691805"><ele>655.0</ele><time>2026-05-03T12:48:33.762Z</time></trkpt><trkpt lat="44.2528817" lon="10.6915717"><ele>652.0</ele><time>2026-05-03T12:48:34.762Z</time></trkpt><trkpt lat="44.2528167" lon="10.6913517"><ele>649.0</ele><time>2026-05-03T12:48:35.762Z</time></trkpt><trkpt lat="44.2527367" lon="10.6911333"><ele>644.0</ele><time>2026-05-03T12:48:36.762Z</time></trkpt><trkpt lat="44.252635" lon="10.6909233"><ele>639.0</ele><time>2026-05-03T12:48:37.762Z</time></trkpt><trkpt lat="44.25253" lon="10.69072"><ele>634.0</ele><time>2026-05-03T12:48:38.762Z</time></trkpt><trkpt lat="44.25241" lon="10.69053"><ele>638.3333333333334</ele><time>2026-05-03T12:48:39.762Z</time></trkpt><trkpt lat="44.2522817" lon="10.6903583"><ele>642.6666666666666</ele><time>2026-05-03T12:48:40.762Z</time></trkpt><trkpt lat="44.2521433" lon="10.6901833"><ele>647.0</ele><time>2026-05-03T12:48:41.761Z</time></trkpt><trkpt lat="44.252005" lon="10.6900067"><ele>647.0</ele><time>2026-05-03T12:48:42.762Z</time></trkpt><trkpt lat="44.2518717" lon="10.689835"><ele>647.0</ele><time>2026-05-03T12:48:43.762Z</time></trkpt><trkpt lat="44.2517333" lon="10.6896617"><ele>647.0</ele><time>2026-05-03T12:48:44.762Z</time></trkpt><trkpt lat="44.25158" lon="10.6895"><ele>653.3333333333333</ele><time>2026-05-03T12:48:45.761Z</time></trkpt><trkpt lat="44.2514483" lon="10.689305"><ele>659.6666666666666</ele><time>2026-05-03T12:48:46.761Z</time></trkpt><trkpt lat="44.25133" lon="10.6891"><ele>666.0</ele><time>2026-05-03T12:48:47.762Z</time></trkpt><trkpt lat="44.2512233" lon="10.6888817"><ele>666.0</ele><time>2026-05-03T12:48:48.761Z</time></trkpt><trkpt lat="44.2511183" lon="10.68866"><ele>666.0</ele><time>2026-05-03T12:48:49.761Z</time></trkpt><trkpt lat="44.2510283" lon="10.6884333"><ele>666.0</ele><time>2026-05-03T12:48:50.762Z</time></trkpt><trkpt lat="44.2509533" lon="10.6882083"><ele>662.3333333333334</ele><time>2026-05-03T12:48:51.762Z</time></trkpt><trkpt lat="44.250895" lon="10.6879733"><ele>658.6666666666667</ele><time>2026-05-03T12:48:52.762Z</time></trkpt><trkpt lat="44.2508467" lon="10.6877217"><ele>655.0</ele><time>2026-05-03T12:48:53.762Z</time></trkpt><trkpt lat="44.2508167" lon="10.6874733"><ele>651.0</ele><time>2026-05-03T12:48:54.761Z</time></trkpt><trkpt lat="44.250775" lon="10.6872283"><ele>647.0</ele><time>2026-05-03T12:48:55.761Z</time></trkpt><trkpt lat="44.2507167" lon="10.687015"><ele>643.0</ele><time>2026-05-03T12:48:56.762Z</time></trkpt><trkpt lat="44.2506417" lon="10.6867617"><ele>647.3333333333334</ele><time>2026-05-03T12:48:57.762Z</time></trkpt><trkpt lat="44.2505417" lon="10.6865583"><ele>651.6666666666666</ele><time>2026-05-03T12:48:58.762Z</time></trkpt><trkpt lat="44.2503883" lon="10.6863617"><ele>656.0</ele><time>2026-05-03T12:48:59.762Z</time></trkpt><trkpt lat="44.2502433" lon="10.6862217"><ele>649.0</ele><time>2026-05-03T12:49:00.762Z</time></trkpt><trkpt lat="44.2500883" lon="10.6860733"><ele>642.0</ele><time>2026-05-03T12:49:01.762Z</time></trkpt><trkpt lat="44.24994" lon="10.6859333"><ele>635.0</ele><time>2026-05-03T12:49:02.762Z</time></trkpt><trkpt lat="44.24979" lon="10.6857917"><ele>649.0</ele><time>2026-05-03T12:49:03.762Z</time></trkpt><trkpt lat="44.24965" lon="10.685635"><ele>663.0</ele><time>2026-05-03T12:49:04.762Z</time></trkpt><trkpt lat="44.2495233" lon="10.6854667"><ele>677.0</ele><time>2026-05-03T12:49:05.762Z</time></trkpt><trkpt lat="44.2493933" lon="10.6852817"><ele>666.6666666666666</ele><time>2026-05-03T12:49:06.762Z</time></trkpt><trkpt lat="44.24928" lon="10.6850767"><ele>656.3333333333334</ele><time>2026-05-03T12:49:07.761Z</time></trkpt><trkpt lat="44.2491883" lon="10.684865"><ele>646.0</ele><time>2026-05-03T12:49:08.762Z</time></trkpt><trkpt lat="44.2490933" lon="10.68465"><ele>646.0</ele><time>2026-05-03T12:49:09.762Z</time></trkpt><trkpt lat="44.249" lon="10.6844467"><ele>646.0</ele><time>2026-05-03T12:49:10.761Z</time></trkpt><trkpt lat="44.24889" lon="10.6842667"><ele>646.0</ele><time>2026-05-03T12:49:11.762Z</time></trkpt><trkpt lat="44.248765" lon="10.6840967"><ele>648.3333333333334</ele><time>2026-05-03T12:49:12.762Z</time></trkpt><trkpt lat="44.24862" lon="10.6839383"><ele>650.6666666666666</ele><time>2026-05-03T12:49:13.761Z</time></trkpt><trkpt lat="44.2484617" lon="10.6837867"><ele>653.0</ele><time>2026-05-03T12:49:14.762Z</time></trkpt><trkpt lat="44.2482933" lon="10.68365"><ele>649.6666666666666</ele><time>2026-05-03T12:49:15.761Z</time></trkpt><trkpt lat="44.2481317" lon="10.6835067"><ele>646.3333333333334</ele><time>2026-05-03T12:49:16.762Z</time></trkpt><trkpt lat="44.2479733" lon="10.6833633"><ele>643.0</ele><time>2026-05-03T12:49:17.762Z</time></trkpt><trkpt lat="44.2478233" lon="10.6832317"><ele>643.0</ele><time>2026-05-03T12:49:18.761Z</time></trkpt><trkpt lat="44.2476633" lon="10.683105"><ele>643.0</ele><time>2026-05-03T12:49:19.762Z</time></trkpt><trkpt lat="44.24751" lon="10.6829783"><ele>643.0</ele><time>2026-05-03T12:49:20.762Z</time></trkpt><trkpt lat="44.2473567" lon="10.682855"><ele>642.3333333333334</ele><time>2026-05-03T12:49:21.762Z</time></trkpt><trkpt lat="44.247195" lon="10.682725"><ele>641.6666666666666</ele><time>2026-05-03T12:49:22.762Z</time></trkpt><trkpt lat="44.24704" lon="10.68259"><ele>641.0</ele><time>2026-05-03T12:49:23.762Z</time></trkpt><trkpt lat="44.2468917" lon="10.6824567"><ele>641.0</ele><time>2026-05-03T12:49:24.762Z</time></trkpt><trkpt lat="44.2467383" lon="10.68231"><ele>641.0</ele><time>2026-05-03T12:49:25.762Z</time></trkpt><trkpt lat="44.2465867" lon="10.6821633"><ele>641.0</ele><time>2026-05-03T12:49:26.762Z</time></trkpt><trkpt lat="44.2464367" lon="10.6820133"><ele>644.3333333333333</ele><time>2026-05-03T12:49:27.762Z</time></trkpt><trkpt lat="44.2462783" lon="10.681855"><ele>647.6666666666666</ele><time>2026-05-03T12:49:28.762Z</time></trkpt><trkpt lat="44.2461183" lon="10.6816983"><ele>651.0</ele><time>2026-05-03T12:49:29.762Z</time></trkpt><trkpt lat="44.2459683" lon="10.6815217"><ele>651.0</ele><time>2026-05-03T12:49:30.762Z</time></trkpt><trkpt lat="44.2458417" lon="10.6813467"><ele>651.0</ele><time>2026-05-03T12:49:31.761Z</time></trkpt><trkpt lat="44.2457283" lon="10.6811767"><ele>651.0</ele><time>2026-05-03T12:49:32.762Z</time></trkpt><trkpt lat="44.2456283" lon="10.6810283"><ele>661.5</ele><time>2026-05-03T12:49:33.762Z</time></trkpt><trkpt lat="44.245555" lon="10.68088"><ele>672.0</ele><time>2026-05-03T12:49:34.761Z</time></trkpt><trkpt lat="44.2455233" lon="10.6807267"><ele>682.5</ele><time>2026-05-03T12:49:35.762Z</time></trkpt><trkpt lat="44.245505" lon="10.68056"><ele>693.0</ele><time>2026-05-03T12:49:36.762Z</time></trkpt><trkpt lat="44.2455133" lon="10.6803733"><ele>692.5</ele><time>2026-05-03T12:49:37.762Z</time></trkpt><trkpt lat="44.24552" lon="10.6801783"><ele>692.0</ele><time>2026-05-03T12:49:38.762Z</time></trkpt><trkpt lat="44.2455417" lon="10.6799883"><ele>691.5</ele><time>2026-05-03T12:49:39.762Z</time></trkpt><trkpt lat="44.2455567" lon="10.6797983"><ele>691.0</ele><time>2026-05-03T12:49:40.762Z</time></trkpt><trkpt lat="44.2455833" lon="10.6796167"><ele>691.0</ele><time>2026-05-03T12:49:41.762Z</time></trkpt><trkpt lat="44.2456217" lon="10.679455"><ele>691.0</ele><time>2026-05-03T12:49:42.762Z</time></trkpt><trkpt lat="44.24568" lon="10.6793"><ele>691.0</ele><time>2026-05-03T12:49:43.762Z</time></trkpt><trkpt lat="44.2457683" lon="10.6791533"><ele>691.0</ele><time>2026-05-03T12:49:44.761Z</time></trkpt><trkpt lat="44.2458733" lon="10.6790133"><ele>688.0</ele><time>2026-05-03T12:49:45.762Z</time></trkpt><trkpt lat="44.2459867" lon="10.6788667"><ele>685.0</ele><time>2026-05-03T12:49:46.761Z</time></trkpt><trkpt lat="44.2460967" lon="10.67872"><ele>682.0</ele><time>2026-05-03T12:49:47.762Z</time></trkpt><trkpt lat="44.2462183" lon="10.6785883"><ele>682.0</ele><time>2026-05-03T12:49:48.762Z</time></trkpt><trkpt lat="44.24635" lon="10.67847"><ele>682.0</ele><time>2026-05-03T12:49:49.761Z</time></trkpt><trkpt lat="44.2464817" lon="10.6783733"><ele>682.0</ele><time>2026-05-03T12:49:50.762Z</time></trkpt><trkpt lat="44.2466" lon="10.6782833"><ele>682.0</ele><time>2026-05-03T12:49:51.761Z</time></trkpt><trkpt lat="44.2467217" lon="10.678195"><ele>674.0</ele><time>2026-05-03T12:49:52.761Z</time></trkpt><trkpt lat="44.2468233" lon="10.67811"><ele>666.0</ele><time>2026-05-03T12:49:53.762Z</time></trkpt><trkpt lat="44.2469017" lon="10.6780167"><ele>658.0</ele><time>2026-05-03T12:49:54.762Z</time></trkpt><trkpt lat="44.2469417" lon="10.6779"><ele>650.0</ele><time>2026-05-03T12:49:55.762Z</time></trkpt><trkpt lat="44.24695" lon="10.6777617"><ele>642.0</ele><time>2026-05-03T12:49:56.761Z</time></trkpt><trkpt lat="44.2469117" lon="10.6776167"><ele>642.0</ele><time>2026-05-03T12:49:57.762Z</time></trkpt><trkpt lat="44.24685" lon="10.6774783"><ele>642.0</ele><time>2026-05-03T12:49:58.762Z</time></trkpt><trkpt lat="44.2467767" lon="10.677335"><ele>642.0</ele><time>2026-05-03T12:49:59.762Z</time></trkpt><trkpt lat="44.2466967" lon="10.6771967"><ele>642.0</ele><time>2026-05-03T12:50:00.762Z</time></trkpt><trkpt lat="44.2466083" lon="10.67706"><ele>636.75</ele><time>2026-05-03T12:50:01.761Z</time></trkpt><trkpt lat="44.24652" lon="10.6769133"><ele>631.5</ele><time>2026-05-03T12:50:02.761Z</time></trkpt><trkpt lat="44.2464283" lon="10.6767633"><ele>626.25</ele><time>2026-05-03T12:50:03.762Z</time></trkpt><trkpt lat="44.2463683" lon="10.6765817"><ele>621.0</ele><time>2026-05-03T12:50:04.761Z</time></trkpt><trkpt lat="44.24633" lon="10.6763817"><ele>635.3333333333334</ele><time>2026-05-03T12:50:05.762Z</time></trkpt><trkpt lat="44.246285" lon="10.6761783"><ele>649.6666666666667</ele><time>2026-05-03T12:50:06.762Z</time></trkpt><trkpt lat="44.2462383" lon="10.6759717"><ele>664.0</ele><time>2026-05-03T12:50:07.762Z</time></trkpt><trkpt lat="44.2461783" lon="10.6757617"><ele>664.0</ele><time>2026-05-03T12:50:08.761Z</time></trkpt><trkpt lat="44.2460917" lon="10.6755667"><ele>664.0</ele><time>2026-05-03T12:50:09.762Z</time></trkpt><trkpt lat="44.24599" lon="10.6753917"><ele>664.0</ele><time>2026-05-03T12:50:10.762Z</time></trkpt><trkpt lat="44.2458933" lon="10.675215"><ele>662.0</ele><time>2026-05-03T12:50:11.762Z</time></trkpt><trkpt lat="44.2458133" lon="10.6750483"><ele>660.0</ele><time>2026-05-03T12:50:12.762Z</time></trkpt><trkpt lat="44.2457217" lon="10.6749083"><ele>658.0</ele><time>2026-05-03T12:50:13.761Z</time></trkpt><trkpt lat="44.24563" lon="10.674805"><ele>656.0</ele><time>2026-05-03T12:50:14.761Z</time></trkpt><trkpt lat="44.24554" lon="10.6747117"><ele>656.0</ele><time>2026-05-03T12:50:15.761Z</time></trkpt><trkpt lat="44.24547" lon="10.6746167"><ele>656.0</ele><time>2026-05-03T12:50:16.762Z</time></trkpt><trkpt lat="44.2454267" lon="10.6745067"><ele>656.0</ele><time>2026-05-03T12:50:17.762Z</time></trkpt><trkpt lat="44.24542" lon="10.674365"><ele>656.0</ele><time>2026-05-03T12:50:18.761Z</time></trkpt><trkpt lat="44.24543" lon="10.674205"><ele>656.0</ele><time>2026-05-03T12:50:19.762Z</time></trkpt><trkpt lat="44.2454567" lon="10.67404"><ele>653.5</ele><time>2026-05-03T12:50:20.762Z</time></trkpt><trkpt lat="44.24552" lon="10.6738967"><ele>651.0</ele><time>2026-05-03T12:50:21.762Z</time></trkpt><trkpt lat="44.2456117" lon="10.6737767"><ele>648.5</ele><time>2026-05-03T12:50:22.762Z</time></trkpt><trkpt lat="44.2457" lon="10.673655"><ele>646.0</ele><time>2026-05-03T12:50:23.761Z</time></trkpt><trkpt lat="44.2457833" lon="10.67353"><ele>644.0</ele><time>2026-05-03T12:50:24.762Z</time></trkpt><trkpt lat="44.2458417" lon="10.6733783"><ele>642.0</ele><time>2026-05-03T12:50:25.762Z</time></trkpt><trkpt lat="44.2458817" lon="10.6732033"><ele>640.0</ele><time>2026-05-03T12:50:26.762Z</time></trkpt><trkpt lat="44.2459033" lon="10.6730067"><ele>638.0</ele><time>2026-05-03T12:50:27.762Z</time></trkpt><trkpt lat="44.2459183" lon="10.6728083"><ele>644.3333333333333</ele><time>2026-05-03T12:50:28.761Z</time></trkpt><trkpt lat="44.24593" lon="10.6726033"><ele>650.6666666666666</ele><time>2026-05-03T12:50:29.762Z</time></trkpt><trkpt lat="44.2459583" lon="10.6723967"><ele>657.0</ele><time>2026-05-03T12:50:30.762Z</time></trkpt><trkpt lat="44.246" lon="10.672185"><ele>657.0</ele><time>2026-05-03T12:50:31.762Z</time></trkpt><trkpt lat="44.2460433" lon="10.6719867"><ele>657.0</ele><time>2026-05-03T12:50:32.762Z</time></trkpt><trkpt lat="44.24608" lon="10.67179"><ele>657.0</ele><time>2026-05-03T12:50:33.762Z</time></trkpt><trkpt lat="44.246095" lon="10.6715917"><ele>657.0</ele><time>2026-05-03T12:50:34.761Z</time></trkpt><trkpt lat="44.2460883" lon="10.6713983"><ele>659.25</ele><time>2026-05-03T12:50:35.762Z</time></trkpt><trkpt lat="44.2460717" lon="10.6712083"><ele>661.5</ele><time>2026-05-03T12:50:36.762Z</time></trkpt><trkpt lat="44.246055" lon="10.6710367"><ele>663.75</ele><time>2026-05-03T12:50:37.762Z</time></trkpt><trkpt lat="44.2460567" lon="10.67086"><ele>666.0</ele><time>2026-05-03T12:50:38.762Z</time></trkpt><trkpt lat="44.2461" lon="10.6706983"><ele>667.25</ele><time>2026-05-03T12:50:39.762Z</time></trkpt><trkpt lat="44.2461767" lon="10.6705533"><ele>668.5</ele><time>2026-05-03T12:50:40.761Z</time></trkpt><trkpt lat="44.24629" lon="10.6704167"><ele>669.75</ele><time>2026-05-03T12:50:41.762Z</time></trkpt><trkpt lat="44.2463867" lon="10.6702833"><ele>671.0</ele><time>2026-05-03T12:50:42.762Z</time></trkpt><trkpt lat="44.2464667" lon="10.6701417"><ele>670.5</ele><time>2026-05-03T12:50:43.762Z</time></trkpt><trkpt lat="44.2464967" lon="10.6699683"><ele>670.0</ele><time>2026-05-03T12:50:44.762Z</time></trkpt><trkpt lat="44.24649" lon="10.6697767"><ele>669.5</ele><time>2026-05-03T12:50:45.762Z</time></trkpt><trkpt lat="44.24645" lon="10.6695817"><ele>669.0</ele><time>2026-05-03T12:50:46.761Z</time></trkpt><trkpt lat="44.2463917" lon="10.6693983"><ele>664.75</ele><time>2026-05-03T12:50:47.762Z</time></trkpt><trkpt lat="44.2463233" lon="10.6692283"><ele>660.5</ele><time>2026-05-03T12:50:48.762Z</time></trkpt><trkpt lat="44.2462567" lon="10.669065"><ele>656.25</ele><time>2026-05-03T12:50:49.762Z</time></trkpt><trkpt lat="44.2461883" lon="10.6689383"><ele>652.0</ele><time>2026-05-03T12:50:50.762Z</time></trkpt><trkpt lat="44.246105" lon="10.6688417"><ele>652.0</ele><time>2026-05-03T12:50:51.762Z</time></trkpt><trkpt lat="44.2460017" lon="10.6687983"><ele>652.0</ele><time>2026-05-03T12:50:52.762Z</time></trkpt><trkpt lat="44.2458767" lon="10.6688017"><ele>652.0</ele><time>2026-05-03T12:50:53.761Z</time></trkpt><trkpt lat="44.2457467" lon="10.6688533"><ele>652.0</ele><time>2026-05-03T12:50:54.762Z</time></trkpt><trkpt lat="44.24561" lon="10.668915"><ele>653.0</ele><time>2026-05-03T12:50:55.762Z</time></trkpt><trkpt lat="44.2454733" lon="10.668985"><ele>654.0</ele><time>2026-05-03T12:50:56.761Z</time></trkpt><trkpt lat="44.2453333" lon="10.6690283"><ele>655.0</ele><time>2026-05-03T12:50:57.761Z</time></trkpt><trkpt lat="44.2451767" lon="10.6690533"><ele>656.0</ele><time>2026-05-03T12:50:58.762Z</time></trkpt><trkpt lat="44.2450183" lon="10.6690817"><ele>656.0</ele><time>2026-05-03T12:50:59.762Z</time></trkpt><trkpt lat="44.2448667" lon="10.6691017"><ele>656.0</ele><time>2026-05-03T12:51:00.762Z</time></trkpt><trkpt lat="44.244715" lon="10.669105"><ele>656.0</ele><time>2026-05-03T12:51:01.762Z</time></trkpt><trkpt lat="44.2445617" lon="10.6690683"><ele>662.25</ele><time>2026-05-03T12:51:02.762Z</time></trkpt><trkpt lat="44.2444233" lon="10.6689967"><ele>668.5</ele><time>2026-05-03T12:51:03.762Z</time></trkpt><trkpt lat="44.2442983" lon="10.6689067"><ele>674.75</ele><time>2026-05-03T12:51:04.761Z</time></trkpt><trkpt lat="44.2441833" lon="10.66878"><ele>681.0</ele><time>2026-05-03T12:51:05.761Z</time></trkpt><trkpt lat="44.24409" lon="10.6686117"><ele>673.0</ele><time>2026-05-03T12:51:06.762Z</time></trkpt><trkpt lat="44.2440133" lon="10.66844"><ele>665.0</ele><time>2026-05-03T12:51:07.762Z</time></trkpt><trkpt lat="44.2439533" lon="10.6682367"><ele>657.0</ele><time>2026-05-03T12:51:08.761Z</time></trkpt><trkpt lat="44.2438933" lon="10.6680233"><ele>669.0</ele><time>2026-05-03T12:51:09.762Z</time></trkpt><trkpt lat="44.2438433" lon="10.6678"><ele>681.0</ele><time>2026-05-03T12:51:10.761Z</time></trkpt><trkpt lat="44.2437967" lon="10.6675667"><ele>693.0</ele><time>2026-05-03T12:51:11.761Z</time></trkpt><trkpt lat="44.243745" lon="10.6673567"><ele>693.0</ele><time>2026-05-03T12:51:12.762Z</time></trkpt><trkpt lat="44.2436983" lon="10.6671733"><ele>693.0</ele><time>2026-05-03T12:51:13.762Z</time></trkpt><trkpt lat="44.243655" lon="10.66702"><ele>693.0</ele><time>2026-05-03T12:51:14.761Z</time></trkpt><trkpt lat="44.2436517" lon="10.66687"><ele>693.0</ele><time>2026-05-03T12:51:15.762Z</time></trkpt><trkpt lat="44.2436733" lon="10.6667183"><ele>693.5</ele><time>2026-05-03T12:51:16.762Z</time></trkpt><trkpt lat="44.24369" lon="10.6665717"><ele>694.0</ele><time>2026-05-03T12:51:17.762Z</time></trkpt><trkpt lat="44.2436883" lon="10.666425"><ele>694.5</ele><time>2026-05-03T12:51:18.762Z</time></trkpt><trkpt lat="44.2436717" lon="10.6662633"><ele>695.0</ele><time>2026-05-03T12:51:19.761Z</time></trkpt><trkpt lat="44.2436383" lon="10.6660917"><ele>692.75</ele><time>2026-05-03T12:51:20.762Z</time></trkpt><trkpt lat="44.2435783" lon="10.6659317"><ele>690.5</ele><time>2026-05-03T12:51:21.762Z</time></trkpt><trkpt lat="44.2435233" lon="10.6657533"><ele>688.25</ele><time>2026-05-03T12:51:22.762Z</time></trkpt><trkpt lat="44.2434533" lon="10.665565"><ele>686.0</ele><time>2026-05-03T12:51:23.762Z</time></trkpt><trkpt lat="44.2433883" lon="10.6653733"><ele>682.3333333333333</ele><time>2026-05-03T12:51:24.762Z</time></trkpt><trkpt lat="44.2433317" lon="10.6651683"><ele>678.6666666666666</ele><time>2026-05-03T12:51:25.762Z</time></trkpt><trkpt lat="44.2432933" lon="10.6649583"><ele>675.0</ele><time>2026-05-03T12:51:26.762Z</time></trkpt><trkpt lat="44.2432767" lon="10.66474"><ele>675.0</ele><time>2026-05-03T12:51:27.762Z</time></trkpt><trkpt lat="44.24328" lon="10.6645183"><ele>675.0</ele><time>2026-05-03T12:51:28.762Z</time></trkpt><trkpt lat="44.2432983" lon="10.664295"><ele>675.0</ele><time>2026-05-03T12:51:29.762Z</time></trkpt><trkpt lat="44.243335" lon="10.6640617"><ele>675.0</ele><time>2026-05-03T12:51:30.761Z</time></trkpt><trkpt lat="44.2433767" lon="10.663845"><ele>675.0</ele><time>2026-05-03T12:51:31.762Z</time></trkpt><trkpt lat="44.243415" lon="10.6636267"><ele>675.0</ele><time>2026-05-03T12:51:32.762Z</time></trkpt><trkpt lat="44.24346" lon="10.6634033"><ele>675.0</ele><time>2026-05-03T12:51:33.762Z</time></trkpt><trkpt lat="44.243495" lon="10.663185"><ele>675.0</ele><time>2026-05-03T12:51:34.761Z</time></trkpt><trkpt lat="44.2435233" lon="10.6629633"><ele>675.0</ele><time>2026-05-03T12:51:35.762Z</time></trkpt><trkpt lat="44.24354" lon="10.662735"><ele>677.0</ele><time>2026-05-03T12:51:36.762Z</time></trkpt><trkpt lat="44.2435383" lon="10.6625083"><ele>679.0</ele><time>2026-05-03T12:51:37.762Z</time></trkpt><trkpt lat="44.243525" lon="10.6622783"><ele>681.0</ele><time>2026-05-03T12:51:38.762Z</time></trkpt><trkpt lat="44.2435217" lon="10.6620567"><ele>682.6666666666666</ele><time>2026-05-03T12:51:39.762Z</time></trkpt><trkpt lat="44.243525" lon="10.661835"><ele>684.3333333333333</ele><time>2026-05-03T12:51:40.761Z</time></trkpt><trkpt lat="44.2435267" lon="10.66161"><ele>686.0</ele><time>2026-05-03T12:51:41.761Z</time></trkpt><trkpt lat="44.2435267" lon="10.661385"><ele>686.0</ele><time>2026-05-03T12:51:42.762Z</time></trkpt><trkpt lat="44.24354" lon="10.66117"><ele>686.0</ele><time>2026-05-03T12:51:43.761Z</time></trkpt><trkpt lat="44.2435733" lon="10.660955"><ele>686.0</ele><time>2026-05-03T12:51:44.762Z</time></trkpt><trkpt lat="44.2436333" lon="10.6607417"><ele>690.3333333333333</ele><time>2026-05-03T12:51:45.762Z</time></trkpt><trkpt lat="44.2436983" lon="10.6605433"><ele>694.6666666666666</ele><time>2026-05-03T12:51:46.761Z</time></trkpt><trkpt lat="44.243765" lon="10.660335"><ele>699.0</ele><time>2026-05-03T12:51:47.761Z</time></trkpt><trkpt lat="44.2438317" lon="10.6601367"><ele>703.3333333333334</ele><time>2026-05-03T12:51:48.762Z</time></trkpt><trkpt lat="44.2438817" lon="10.65993"><ele>707.6666666666667</ele><time>2026-05-03T12:51:49.762Z</time></trkpt><trkpt lat="44.2439133" lon="10.6597117"><ele>712.0</ele><time>2026-05-03T12:51:50.762Z</time></trkpt><trkpt lat="44.2439367" lon="10.6594817"><ele>713.0</ele><time>2026-05-03T12:51:51.762Z</time></trkpt><trkpt lat="44.2439517" lon="10.659255"><ele>714.0</ele><time>2026-05-03T12:51:52.762Z</time></trkpt><trkpt lat="44.2439533" lon="10.6590167"><ele>715.0</ele><time>2026-05-03T12:51:53.762Z</time></trkpt><trkpt lat="44.243945" lon="10.6587867"><ele>714.0</ele><time>2026-05-03T12:51:54.761Z</time></trkpt><trkpt lat="44.243925" lon="10.658555"><ele>713.0</ele><time>2026-05-03T12:51:55.762Z</time></trkpt><trkpt lat="44.243895" lon="10.6583283"><ele>712.0</ele><time>2026-05-03T12:51:56.762Z</time></trkpt><trkpt lat="44.2438617" lon="10.6581267"><ele>712.0</ele><time>2026-05-03T12:51:57.762Z</time></trkpt><trkpt lat="44.243835" lon="10.6579267"><ele>712.0</ele><time>2026-05-03T12:51:58.762Z</time></trkpt><trkpt lat="44.2437867" lon="10.6577333"><ele>712.0</ele><time>2026-05-03T12:51:59.762Z</time></trkpt><trkpt lat="44.2437133" lon="10.65756"><ele>712.0</ele><time>2026-05-03T12:52:00.762Z</time></trkpt><trkpt lat="44.2436133" lon="10.6574"><ele>712.0</ele><time>2026-05-03T12:52:01.762Z</time></trkpt><trkpt lat="44.2435117" lon="10.657245"><ele>712.0</ele><time>2026-05-03T12:52:02.762Z</time></trkpt><trkpt lat="44.2433983" lon="10.65712"><ele>712.0</ele><time>2026-05-03T12:52:03.762Z</time></trkpt><trkpt lat="44.2432683" lon="10.6570233"><ele>712.0</ele><time>2026-05-03T12:52:04.762Z</time></trkpt><trkpt lat="44.2431233" lon="10.6569567"><ele>699.6666666666667</ele><time>2026-05-03T12:52:05.762Z</time></trkpt><trkpt lat="44.2429733" lon="10.65691"><ele>687.3333333333334</ele><time>2026-05-03T12:52:06.762Z</time></trkpt><trkpt lat="44.242815" lon="10.6568917"><ele>675.0</ele><time>2026-05-03T12:52:07.762Z</time></trkpt><trkpt lat="44.2426467" lon="10.6568717"><ele>675.0</ele><time>2026-05-03T12:52:08.762Z</time></trkpt><trkpt lat="44.2424867" lon="10.65683"><ele>675.0</ele><time>2026-05-03T12:52:09.762Z</time></trkpt><trkpt lat="44.24232" lon="10.656785"><ele>675.0</ele><time>2026-05-03T12:52:10.762Z</time></trkpt><trkpt lat="44.2421517" lon="10.65673"><ele>681.6666666666666</ele><time>2026-05-03T12:52:11.762Z</time></trkpt><trkpt lat="44.2419883" lon="10.656665"><ele>688.3333333333333</ele><time>2026-05-03T12:52:12.762Z</time></trkpt><trkpt lat="44.24184" lon="10.6565917"><ele>695.0</ele><time>2026-05-03T12:52:13.762Z</time></trkpt><trkpt lat="44.2416867" lon="10.656485"><ele>695.0</ele><time>2026-05-03T12:52:14.762Z</time></trkpt><trkpt lat="44.241525" lon="10.6563633"><ele>695.0</ele><time>2026-05-03T12:52:15.762Z</time></trkpt><trkpt lat="44.2413517" lon="10.6562283"><ele>695.0</ele><time>2026-05-03T12:52:16.762Z</time></trkpt><trkpt lat="44.24118" lon="10.6561067"><ele>692.6666666666666</ele><time>2026-05-03T12:52:17.761Z</time></trkpt><trkpt lat="44.2410083" lon="10.6560083"><ele>690.3333333333334</ele><time>2026-05-03T12:52:18.762Z</time></trkpt><trkpt lat="44.2408333" lon="10.6559167"><ele>688.0</ele><time>2026-05-03T12:52:19.762Z</time></trkpt><trkpt lat="44.2406633" lon="10.655845"><ele>690.6666666666667</ele><time>2026-05-03T12:52:20.762Z</time></trkpt><trkpt lat="44.2404867" lon="10.65578"><ele>693.3333333333334</ele><time>2026-05-03T12:52:21.762Z</time></trkpt><trkpt lat="44.2403" lon="10.6557083"><ele>696.0</ele><time>2026-05-03T12:52:22.762Z</time></trkpt><trkpt lat="44.2401183" lon="10.6556233"><ele>696.0</ele><time>2026-05-03T12:52:23.761Z</time></trkpt><trkpt lat="44.23994" lon="10.655545"><ele>696.0</ele><time>2026-05-03T12:52:24.761Z</time></trkpt><trkpt lat="44.2397567" lon="10.6554917"><ele>696.0</ele><time>2026-05-03T12:52:25.762Z</time></trkpt><trkpt lat="44.239565" lon="10.6554633"><ele>697.3333333333334</ele><time>2026-05-03T12:52:26.762Z</time></trkpt><trkpt lat="44.2393783" lon="10.6554567"><ele>698.6666666666667</ele><time>2026-05-03T12:52:27.762Z</time></trkpt><trkpt lat="44.2391933" lon="10.6554583"><ele>700.0</ele><time>2026-05-03T12:52:28.762Z</time></trkpt><trkpt lat="44.2390083" lon="10.6554817"><ele>700.6666666666667</ele><time>2026-05-03T12:52:29.762Z</time></trkpt><trkpt lat="44.2388267" lon="10.6555117"><ele>701.3333333333334</ele><time>2026-05-03T12:52:30.762Z</time></trkpt><trkpt lat="44.2386533" lon="10.655525"><ele>702.0</ele><time>2026-05-03T12:52:31.761Z</time></trkpt><trkpt lat="44.23847" lon="10.655505"><ele>702.0</ele><time>2026-05-03T12:52:32.762Z</time></trkpt><trkpt lat="44.238305" lon="10.6554367"><ele>702.0</ele><time>2026-05-03T12:52:33.762Z</time></trkpt><trkpt lat="44.2381633" lon="10.6553333"><ele>702.0</ele><time>2026-05-03T12:52:34.762Z</time></trkpt><trkpt lat="44.2380467" lon="10.6552167"><ele>711.0</ele><time>2026-05-03T12:52:35.762Z</time></trkpt><trkpt lat="44.2379567" lon="10.6550583"><ele>720.0</ele><time>2026-05-03T12:52:36.761Z</time></trkpt><trkpt lat="44.23789" lon="10.6548567"><ele>729.0</ele><time>2026-05-03T12:52:37.762Z</time></trkpt><trkpt lat="44.2378517" lon="10.6546417"><ele>725.3333333333334</ele><time>2026-05-03T12:52:38.762Z</time></trkpt><trkpt lat="44.2378483" lon="10.654405"><ele>721.6666666666667</ele><time>2026-05-03T12:52:39.761Z</time></trkpt><trkpt lat="44.237845" lon="10.65417"><ele>718.0</ele><time>2026-05-03T12:52:40.762Z</time></trkpt><trkpt lat="44.237825" lon="10.653955"><ele>718.0</ele><time>2026-05-03T12:52:41.762Z</time></trkpt><trkpt lat="44.2377833" lon="10.6537767"><ele>718.0</ele><time>2026-05-03T12:52:42.762Z</time></trkpt><trkpt lat="44.237705" lon="10.6536233"><ele>718.0</ele><time>2026-05-03T12:52:43.762Z</time></trkpt><trkpt lat="44.2375967" lon="10.65349"><ele>718.0</ele><time>2026-05-03T12:52:44.762Z</time></trkpt><trkpt lat="44.2374533" lon="10.6534133"><ele>708.3333333333334</ele><time>2026-05-03T12:52:45.762Z</time></trkpt><trkpt lat="44.2373033" lon="10.65336"><ele>698.6666666666666</ele><time>2026-05-03T12:52:46.762Z</time></trkpt><trkpt lat="44.2371517" lon="10.6533533"><ele>689.0</ele><time>2026-05-03T12:52:47.762Z</time></trkpt><trkpt lat="44.2369983" lon="10.65338"><ele>689.0</ele><time>2026-05-03T12:52:48.762Z</time></trkpt><trkpt lat="44.2368433" lon="10.65341"><ele>689.0</ele><time>2026-05-03T12:52:49.762Z</time></trkpt><trkpt lat="44.2366883" lon="10.6534517"><ele>689.0</ele><time>2026-05-03T12:52:50.762Z</time></trkpt><trkpt lat="44.236535" lon="10.6534867"><ele>689.3333333333333</ele><time>2026-05-03T12:52:51.762Z</time></trkpt><trkpt lat="44.23639" lon="10.6535633"><ele>689.6666666666666</ele><time>2026-05-03T12:52:52.762Z</time></trkpt><trkpt lat="44.2362383" lon="10.653645"><ele>690.0</ele><time>2026-05-03T12:52:53.762Z</time></trkpt><trkpt lat="44.2360783" lon="10.6537117"><ele>696.0</ele><time>2026-05-03T12:52:54.762Z</time></trkpt><trkpt lat="44.235925" lon="10.653765"><ele>702.0</ele><time>2026-05-03T12:52:55.761Z</time></trkpt><trkpt lat="44.2357667" lon="10.653805"><ele>708.0</ele><time>2026-05-03T12:52:56.762Z</time></trkpt><trkpt lat="44.235615" lon="10.6538317"><ele>708.0</ele><time>2026-05-03T12:52:57.762Z</time></trkpt><trkpt lat="44.2354783" lon="10.653855"><ele>708.0</ele><time>2026-05-03T12:52:58.762Z</time></trkpt><trkpt lat="44.2353517" lon="10.65388"><ele>708.0</ele><time>2026-05-03T12:52:59.761Z</time></trkpt><trkpt lat="44.2352233" lon="10.6539183"><ele>708.0</ele><time>2026-05-03T12:53:00.761Z</time></trkpt><trkpt lat="44.2351167" lon="10.65397"><ele>708.0</ele><time>2026-05-03T12:53:01.762Z</time></trkpt><trkpt lat="44.235015" lon="10.6540333"><ele>708.0</ele><time>2026-05-03T12:53:02.762Z</time></trkpt><trkpt lat="44.2349117" lon="10.6541283"><ele>708.0</ele><time>2026-05-03T12:53:03.762Z</time></trkpt><trkpt lat="44.2348" lon="10.65425"><ele>708.0</ele><time>2026-05-03T12:53:04.762Z</time></trkpt><trkpt lat="44.2346683" lon="10.6543733"><ele>712.0</ele><time>2026-05-03T12:53:05.761Z</time></trkpt><trkpt lat="44.2345183" lon="10.654475"><ele>716.0</ele><time>2026-05-03T12:53:06.761Z</time></trkpt><trkpt lat="44.234375" lon="10.65461"><ele>720.0</ele><time>2026-05-03T12:53:07.761Z</time></trkpt><trkpt lat="44.234235" lon="10.6547433"><ele>720.0</ele><time>2026-05-03T12:53:08.76Z</time></trkpt><trkpt lat="44.2341117" lon="10.6548833"><ele>720.0</ele><time>2026-05-03T12:53:09.76Z</time></trkpt><trkpt lat="44.233995" lon="10.6550033"><ele>720.0</ele><time>2026-05-03T12:53:10.761Z</time></trkpt><trkpt lat="44.2338817" lon="10.6551033"><ele>720.0</ele><time>2026-05-03T12:53:11.76Z</time></trkpt><trkpt lat="44.233755" lon="10.65517"><ele>719.6</ele><time>2026-05-03T12:53:12.76Z</time></trkpt><trkpt lat="44.2336267" lon="10.6552167"><ele>719.2</ele><time>2026-05-03T12:53:13.761Z</time></trkpt><trkpt lat="44.23352" lon="10.6552467"><ele>718.8</ele><time>2026-05-03T12:53:14.76Z</time></trkpt><trkpt lat="44.2334267" lon="10.6552533"><ele>718.4</ele><time>2026-05-03T12:53:15.761Z</time></trkpt><trkpt lat="44.23334" lon="10.6552517"><ele>718.0</ele><time>2026-05-03T12:53:16.761Z</time></trkpt><trkpt lat="44.2332667" lon="10.6552283"><ele>718.0</ele><time>2026-05-03T12:53:17.761Z</time></trkpt><trkpt lat="44.233195" lon="10.655195"><ele>718.0</ele><time>2026-05-03T12:53:18.761Z</time></trkpt><trkpt lat="44.233125" lon="10.65519"><ele>718.0</ele><time>2026-05-03T12:53:19.761Z</time></trkpt><trkpt lat="44.233055" lon="10.65523"><ele>718.0</ele><time>2026-05-03T12:53:20.761Z</time></trkpt><trkpt lat="44.2329683" lon="10.6552867"><ele>718.0</ele><time>2026-05-03T12:53:21.761Z</time></trkpt><trkpt lat="44.2328567" lon="10.655355"><ele>718.0</ele><time>2026-05-03T12:53:22.761Z</time></trkpt><trkpt lat="44.232735" lon="10.6554383"><ele>720.25</ele><time>2026-05-03T12:53:23.761Z</time></trkpt><trkpt lat="44.2326167" lon="10.655545"><ele>722.5</ele><time>2026-05-03T12:53:24.761Z</time></trkpt><trkpt lat="44.2325167" lon="10.6556767"><ele>724.75</ele><time>2026-05-03T12:53:25.761Z</time></trkpt><trkpt lat="44.2324417" lon="10.6558317"><ele>727.0</ele><time>2026-05-03T12:53:26.761Z</time></trkpt><trkpt lat="44.232365" lon="10.655965"><ele>726.2</ele><time>2026-05-03T12:53:27.761Z</time></trkpt><trkpt lat="44.2322817" lon="10.6560733"><ele>725.4000000000001</ele><time>2026-05-03T12:53:28.761Z</time></trkpt><trkpt lat="44.232185" lon="10.656145"><ele>724.5999999999999</ele><time>2026-05-03T12:53:29.761Z</time></trkpt><trkpt lat="44.23208" lon="10.6561733"><ele>723.8</ele><time>2026-05-03T12:53:30.761Z</time></trkpt><trkpt lat="44.2319733" lon="10.65617"><ele>723.0</ele><time>2026-05-03T12:53:31.761Z</time></trkpt><trkpt lat="44.23188" lon="10.6561233"><ele>723.0</ele><time>2026-05-03T12:53:32.761Z</time></trkpt><trkpt lat="44.231795" lon="10.6560517"><ele>723.0</ele><time>2026-05-03T12:53:33.761Z</time></trkpt><trkpt lat="44.2317233" lon="10.6559683"><ele>723.0</ele><time>2026-05-03T12:53:34.761Z</time></trkpt><trkpt lat="44.2316467" lon="10.6559067"><ele>723.0</ele><time>2026-05-03T12:53:35.761Z</time></trkpt><trkpt lat="44.23157" lon="10.6558367"><ele>723.0</ele><time>2026-05-03T12:53:36.761Z</time></trkpt><trkpt lat="44.2314867" lon="10.6557667"><ele>724.2</ele><time>2026-05-03T12:53:37.761Z</time></trkpt><trkpt lat="44.2313967" lon="10.655705"><ele>725.4</ele><time>2026-05-03T12:53:38.761Z</time></trkpt><trkpt lat="44.2312933" lon="10.6556433"><ele>726.6</ele><time>2026-05-03T12:53:39.761Z</time></trkpt><trkpt lat="44.2311867" lon="10.655585"><ele>727.8000000000001</ele><time>2026-05-03T12:53:40.761Z</time></trkpt><trkpt lat="44.2310767" lon="10.65552"><ele>729.0</ele><time>2026-05-03T12:53:41.761Z</time></trkpt><trkpt lat="44.230965" lon="10.65545"><ele>729.0</ele><time>2026-05-03T12:53:42.761Z</time></trkpt><trkpt lat="44.2308467" lon="10.65538"><ele>729.0</ele><time>2026-05-03T12:53:43.761Z</time></trkpt><trkpt lat="44.2307483" lon="10.6552817"><ele>729.0</ele><time>2026-05-03T12:53:44.761Z</time></trkpt><trkpt lat="44.2306683" lon="10.6551533"><ele>729.0</ele><time>2026-05-03T12:53:45.761Z</time></trkpt><trkpt lat="44.2306033" lon="10.6549867"><ele>730.75</ele><time>2026-05-03T12:53:46.761Z</time></trkpt><trkpt lat="44.23055" lon="10.6548083"><ele>732.5</ele><time>2026-05-03T12:53:47.761Z</time></trkpt><trkpt lat="44.2304967" lon="10.6546433"><ele>734.25</ele><time>2026-05-03T12:53:48.761Z</time></trkpt><trkpt lat="44.2304417" lon="10.6544867"><ele>736.0</ele><time>2026-05-03T12:53:49.761Z</time></trkpt><trkpt lat="44.2303967" lon="10.6543433"><ele>736.0</ele><time>2026-05-03T12:53:50.761Z</time></trkpt><trkpt lat="44.2303633" lon="10.654215"><ele>736.0</ele><time>2026-05-03T12:53:51.761Z</time></trkpt><trkpt lat="44.23034" lon="10.6540883"><ele>736.0</ele><time>2026-05-03T12:53:52.761Z</time></trkpt><trkpt lat="44.230345" lon="10.6539583"><ele>736.0</ele><time>2026-05-03T12:53:53.761Z</time></trkpt><trkpt lat="44.230385" lon="10.653835"><ele>736.0</ele><time>2026-05-03T12:53:54.76Z</time></trkpt><trkpt lat="44.2304517" lon="10.6537167"><ele>736.25</ele><time>2026-05-03T12:53:55.761Z</time></trkpt><trkpt lat="44.2305433" lon="10.6535933"><ele>736.5</ele><time>2026-05-03T12:53:56.761Z</time></trkpt><trkpt lat="44.2306367" lon="10.6534817"><ele>736.75</ele><time>2026-05-03T12:53:57.761Z</time></trkpt><trkpt lat="44.2307367" lon="10.6533883"><ele>737.0</ele><time>2026-05-03T12:53:58.761Z</time></trkpt><trkpt lat="44.23083" lon="10.6533183"><ele>734.6</ele><time>2026-05-03T12:53:59.761Z</time></trkpt><trkpt lat="44.2309117" lon="10.6532583"><ele>732.2</ele><time>2026-05-03T12:54:00.761Z</time></trkpt><trkpt lat="44.2309733" lon="10.653155"><ele>729.8</ele><time>2026-05-03T12:54:01.761Z</time></trkpt><trkpt lat="44.231" lon="10.6530217"><ele>727.4</ele><time>2026-05-03T12:54:02.761Z</time></trkpt><trkpt lat="44.230995" lon="10.6528717"><ele>725.0</ele><time>2026-05-03T12:54:03.761Z</time></trkpt><trkpt lat="44.2309717" lon="10.652725"><ele>725.0</ele><time>2026-05-03T12:54:04.761Z</time></trkpt><trkpt lat="44.2309483" lon="10.6525817"><ele>725.0</ele><time>2026-05-03T12:54:05.761Z</time></trkpt><trkpt lat="44.2309267" lon="10.6524367"><ele>725.0</ele><time>2026-05-03T12:54:06.761Z</time></trkpt><trkpt lat="44.230905" lon="10.6522933"><ele>725.0</ele><time>2026-05-03T12:54:07.761Z</time></trkpt><trkpt lat="44.2308733" lon="10.65215"><ele>725.0</ele><time>2026-05-03T12:54:08.76Z</time></trkpt><trkpt lat="44.2308567" lon="10.6520083"><ele>724.2</ele><time>2026-05-03T12:54:09.761Z</time></trkpt><trkpt lat="44.23084" lon="10.6518683"><ele>723.4</ele><time>2026-05-03T12:54:10.761Z</time></trkpt><trkpt lat="44.23082" lon="10.651735"><ele>722.5999999999999</ele><time>2026-05-03T12:54:11.76Z</time></trkpt><trkpt lat="44.2307933" lon="10.651595"><ele>721.8</ele><time>2026-05-03T12:54:12.76Z</time></trkpt><trkpt lat="44.230765" lon="10.6514533"><ele>721.0</ele><time>2026-05-03T12:54:13.761Z</time></trkpt><trkpt lat="44.2307467" lon="10.6513083"><ele>721.0</ele><time>2026-05-03T12:54:14.761Z</time></trkpt><trkpt lat="44.2307333" lon="10.6511683"><ele>721.0</ele><time>2026-05-03T12:54:15.76Z</time></trkpt><trkpt lat="44.230725" lon="10.6510317"><ele>721.0</ele><time>2026-05-03T12:54:16.761Z</time></trkpt><trkpt lat="44.2307217" lon="10.6508917"><ele>721.0</ele><time>2026-05-03T12:54:17.761Z</time></trkpt><trkpt lat="44.23073" lon="10.6507533"><ele>721.0</ele><time>2026-05-03T12:54:18.761Z</time></trkpt><trkpt lat="44.2307467" lon="10.6506217"><ele>721.1666666666667</ele><time>2026-05-03T12:54:19.761Z</time></trkpt><trkpt lat="44.2307683" lon="10.6505"><ele>721.3333333333334</ele><time>2026-05-03T12:54:20.761Z</time></trkpt><trkpt lat="44.23079" lon="10.6503867"><ele>721.5</ele><time>2026-05-03T12:54:21.76Z</time></trkpt><trkpt lat="44.2308167" lon="10.6502883"><ele>721.6666666666666</ele><time>2026-05-03T12:54:22.761Z</time></trkpt><trkpt lat="44.2308667" lon="10.6501683"><ele>721.8333333333333</ele><time>2026-05-03T12:54:24.761Z</time></trkpt><trkpt lat="44.230885" lon="10.6500817"><ele>722.0</ele><time>2026-05-03T13:13:25.757Z</time></trkpt><trkpt lat="44.230875" lon="10.6499383"><ele>722.0</ele><time>2026-05-03T13:13:27.757Z</time></trkpt><trkpt lat="44.2308567" lon="10.6498117"><ele>722.0</ele><time>2026-05-03T13:13:28.757Z</time></trkpt><trkpt lat="44.2308283" lon="10.649675"><ele>722.0</ele><time>2026-05-03T13:13:29.757Z</time></trkpt><trkpt lat="44.2307933" lon="10.649545"><ele>722.0</ele><time>2026-05-03T13:13:30.757Z</time></trkpt><trkpt lat="44.2307467" lon="10.6494117"><ele>722.0</ele><time>2026-05-03T13:13:31.756Z</time></trkpt><trkpt lat="44.2306817" lon="10.6492833"><ele>723.6</ele><time>2026-05-03T13:13:32.757Z</time></trkpt><trkpt lat="44.2306017" lon="10.649165"><ele>725.2</ele><time>2026-05-03T13:13:33.757Z</time></trkpt><trkpt lat="44.2305133" lon="10.6490733"><ele>726.8</ele><time>2026-05-03T13:13:34.757Z</time></trkpt><trkpt lat="44.230415" lon="10.649015"><ele>728.4</ele><time>2026-05-03T13:13:35.757Z</time></trkpt><trkpt lat="44.2303017" lon="10.648985"><ele>730.0</ele><time>2026-05-03T13:13:36.757Z</time></trkpt><trkpt lat="44.2301883" lon="10.6489783"><ele>730.0</ele><time>2026-05-03T13:13:37.756Z</time></trkpt><trkpt lat="44.2300717" lon="10.6489583"><ele>730.0</ele><time>2026-05-03T13:13:38.757Z</time></trkpt><trkpt lat="44.2299433" lon="10.6489433"><ele>730.0</ele><time>2026-05-03T13:13:39.756Z</time></trkpt><trkpt lat="44.2298167" lon="10.6488967"><ele>730.0</ele><time>2026-05-03T13:13:40.756Z</time></trkpt><trkpt lat="44.2296967" lon="10.6488483"><ele>733.0</ele><time>2026-05-03T13:13:41.757Z</time></trkpt><trkpt lat="44.2295717" lon="10.64881"><ele>736.0</ele><time>2026-05-03T13:13:42.757Z</time></trkpt><trkpt lat="44.2294533" lon="10.6488017"><ele>739.0</ele><time>2026-05-03T13:13:43.757Z</time></trkpt><trkpt lat="44.2293367" lon="10.6488033"><ele>742.0</ele><time>2026-05-03T13:13:44.757Z</time></trkpt><trkpt lat="44.2292233" lon="10.6487933"><ele>742.0</ele><time>2026-05-03T13:13:45.757Z</time></trkpt><trkpt lat="44.2291033" lon="10.6487617"><ele>742.0</ele><time>2026-05-03T13:13:46.757Z</time></trkpt><trkpt lat="44.22899" lon="10.6486867"><ele>742.0</ele><time>2026-05-03T13:13:47.756Z</time></trkpt><trkpt lat="44.2288967" lon="10.648575"><ele>742.0</ele><time>2026-05-03T13:13:48.756Z</time></trkpt><trkpt lat="44.2288183" lon="10.648455"><ele>745.25</ele><time>2026-05-03T13:13:49.756Z</time></trkpt><trkpt lat="44.2287617" lon="10.64831"><ele>748.5</ele><time>2026-05-03T13:13:50.756Z</time></trkpt><trkpt lat="44.22872" lon="10.648155"><ele>751.75</ele><time>2026-05-03T13:13:51.757Z</time></trkpt><trkpt lat="44.2286983" lon="10.6480017"><ele>755.0</ele><time>2026-05-03T13:13:52.757Z</time></trkpt><trkpt lat="44.22868" lon="10.6478433"><ele>752.2</ele><time>2026-05-03T13:13:53.757Z</time></trkpt><trkpt lat="44.22866" lon="10.6476967"><ele>749.4</ele><time>2026-05-03T13:13:54.757Z</time></trkpt><trkpt lat="44.2286167" lon="10.647555"><ele>746.5999999999999</ele><time>2026-05-03T13:13:55.757Z</time></trkpt><trkpt lat="44.228555" lon="10.6474317"><ele>743.8</ele><time>2026-05-03T13:13:56.757Z</time></trkpt><trkpt lat="44.2284917" lon="10.64733"><ele>741.0</ele><time>2026-05-03T13:13:57.757Z</time></trkpt><trkpt lat="44.2284317" lon="10.64722"><ele>741.0</ele><time>2026-05-03T13:13:58.757Z</time></trkpt><trkpt lat="44.2283717" lon="10.6471117"><ele>741.0</ele><time>2026-05-03T13:13:59.757Z</time></trkpt><trkpt lat="44.228315" lon="10.6469817"><ele>741.0</ele><time>2026-05-03T13:14:00.757Z</time></trkpt><trkpt lat="44.2282683" lon="10.646855"><ele>741.0</ele><time>2026-05-03T13:14:01.757Z</time></trkpt><trkpt lat="44.2282083" lon="10.6467483"><ele>741.0</ele><time>2026-05-03T13:14:02.757Z</time></trkpt><trkpt lat="44.228135" lon="10.6466533"><ele>744.5999999999999</ele><time>2026-05-03T13:14:03.757Z</time></trkpt><trkpt lat="44.22805" lon="10.6465867"><ele>748.2</ele><time>2026-05-03T13:14:04.757Z</time></trkpt><trkpt lat="44.2279567" lon="10.6465367"><ele>751.8</ele><time>2026-05-03T13:14:05.756Z</time></trkpt><trkpt lat="44.2278683" lon="10.6464983"><ele>755.4000000000001</ele><time>2026-05-03T13:14:06.757Z</time></trkpt><trkpt lat="44.2277817" lon="10.6464467"><ele>759.0</ele><time>2026-05-03T13:14:07.757Z</time></trkpt><trkpt lat="44.2277333" lon="10.6463633"><ele>759.0</ele><time>2026-05-03T13:14:08.757Z</time></trkpt><trkpt lat="44.2276967" lon="10.6462567"><ele>759.0</ele><time>2026-05-03T13:14:09.757Z</time></trkpt><trkpt lat="44.22769" lon="10.6461383"><ele>759.0</ele><time>2026-05-03T13:14:10.756Z</time></trkpt><trkpt lat="44.2276967" lon="10.6460217"><ele>759.0</ele><time>2026-05-03T13:14:11.757Z</time></trkpt><trkpt lat="44.2277383" lon="10.645895"><ele>759.0</ele><time>2026-05-03T13:14:12.756Z</time></trkpt><trkpt lat="44.227795" lon="10.64579"><ele>759.0</ele><time>2026-05-03T13:14:13.757Z</time></trkpt><trkpt lat="44.2278583" lon="10.645715"><ele>758.5</ele><time>2026-05-03T13:14:14.757Z</time></trkpt><trkpt lat="44.2279283" lon="10.6456333"><ele>758.0</ele><time>2026-05-03T13:14:15.756Z</time></trkpt><trkpt lat="44.2279617" lon="10.64554"><ele>757.5</ele><time>2026-05-03T13:14:16.757Z</time></trkpt><trkpt lat="44.2279667" lon="10.6454383"><ele>757.0</ele><time>2026-05-03T13:14:17.757Z</time></trkpt><trkpt lat="44.2279533" lon="10.6453117"><ele>756.5</ele><time>2026-05-03T13:14:18.757Z</time></trkpt><trkpt lat="44.22792" lon="10.645165"><ele>756.0</ele><time>2026-05-03T13:14:19.757Z</time></trkpt><trkpt lat="44.2278767" lon="10.6450083"><ele>755.0</ele><time>2026-05-03T13:14:20.756Z</time></trkpt><trkpt lat="44.2278283" lon="10.6448533"><ele>754.0</ele><time>2026-05-03T13:14:21.757Z</time></trkpt><trkpt lat="44.2277783" lon="10.6446867"><ele>753.0</ele><time>2026-05-03T13:14:22.757Z</time></trkpt><trkpt lat="44.227715" lon="10.6445333"><ele>752.0</ele><time>2026-05-03T13:14:23.756Z</time></trkpt><trkpt lat="44.227645" lon="10.6443983"><ele>750.0</ele><time>2026-05-03T13:14:24.757Z</time></trkpt><trkpt lat="44.227575" lon="10.6442567"><ele>748.0</ele><time>2026-05-03T13:14:25.757Z</time></trkpt><trkpt lat="44.2275033" lon="10.6441183"><ele>746.0</ele><time>2026-05-03T13:14:26.757Z</time></trkpt><trkpt lat="44.2274267" lon="10.64399"><ele>744.0</ele><time>2026-05-03T13:14:27.757Z</time></trkpt><trkpt lat="44.2273717" lon="10.643875"><ele>744.0</ele><time>2026-05-03T13:14:28.756Z</time></trkpt><trkpt lat="44.2273367" lon="10.643765"><ele>744.0</ele><time>2026-05-03T13:14:29.757Z</time></trkpt><trkpt lat="44.2273233" lon="10.6436383"><ele>744.0</ele><time>2026-05-03T13:14:30.757Z</time></trkpt><trkpt lat="44.2273383" lon="10.6435017"><ele>744.0</ele><time>2026-05-03T13:14:31.757Z</time></trkpt><trkpt lat="44.2273667" lon="10.6433683"><ele>744.0</ele><time>2026-05-03T13:14:32.757Z</time></trkpt><trkpt lat="44.2273917" lon="10.6432367"><ele>742.75</ele><time>2026-05-03T13:14:33.757Z</time></trkpt><trkpt lat="44.2274133" lon="10.6430967"><ele>741.5</ele><time>2026-05-03T13:14:34.756Z</time></trkpt><trkpt lat="44.227415" lon="10.6429317"><ele>740.25</ele><time>2026-05-03T13:14:35.757Z</time></trkpt><trkpt lat="44.2274117" lon="10.64277"><ele>739.0</ele><time>2026-05-03T13:14:36.756Z</time></trkpt><trkpt lat="44.2274167" lon="10.6426067"><ele>737.6</ele><time>2026-05-03T13:14:37.756Z</time></trkpt><trkpt lat="44.22741" lon="10.6424533"><ele>736.2</ele><time>2026-05-03T13:14:38.757Z</time></trkpt><trkpt lat="44.2273883" lon="10.6423083"><ele>734.8000000000001</ele><time>2026-05-03T13:14:39.757Z</time></trkpt><trkpt lat="44.2273467" lon="10.64218"><ele>733.4000000000001</ele><time>2026-05-03T13:14:40.757Z</time></trkpt><trkpt lat="44.227285" lon="10.6420683"><ele>732.0</ele><time>2026-05-03T13:14:41.757Z</time></trkpt><trkpt lat="44.2272083" lon="10.641995"><ele>736.4000000000001</ele><time>2026-05-03T13:14:42.757Z</time></trkpt><trkpt lat="44.2271117" lon="10.64195"><ele>740.8000000000001</ele><time>2026-05-03T13:14:43.757Z</time></trkpt><trkpt lat="44.22701" lon="10.641915"><ele>745.2</ele><time>2026-05-03T13:14:44.757Z</time></trkpt><trkpt lat="44.2268983" lon="10.6418867"><ele>749.6</ele><time>2026-05-03T13:14:45.757Z</time></trkpt><trkpt lat="44.2268" lon="10.6418483"><ele>754.0</ele><time>2026-05-03T13:14:46.757Z</time></trkpt><trkpt lat="44.226705" lon="10.6417683"><ele>754.0</ele><time>2026-05-03T13:14:47.756Z</time></trkpt><trkpt lat="44.22664" lon="10.6416767"><ele>754.0</ele><time>2026-05-03T13:14:48.756Z</time></trkpt><trkpt lat="44.226605" lon="10.6415433"><ele>754.0</ele><time>2026-05-03T13:14:49.757Z</time></trkpt><trkpt lat="44.22658" lon="10.6413983"><ele>754.0</ele><time>2026-05-03T13:14:50.757Z</time></trkpt><trkpt lat="44.22655" lon="10.6412483"><ele>754.0</ele><time>2026-05-03T13:14:51.757Z</time></trkpt><trkpt lat="44.2265083" lon="10.6410967"><ele>761.5</ele><time>2026-05-03T13:14:52.757Z</time></trkpt><trkpt lat="44.2264667" lon="10.6409467"><ele>769.0</ele><time>2026-05-03T13:14:53.757Z</time></trkpt><trkpt lat="44.2264233" lon="10.6407967"><ele>776.5</ele><time>2026-05-03T13:14:54.757Z</time></trkpt><trkpt lat="44.2263783" lon="10.6406483"><ele>784.0</ele><time>2026-05-03T13:14:55.757Z</time></trkpt><trkpt lat="44.2263333" lon="10.640485"><ele>784.0</ele><time>2026-05-03T13:14:56.757Z</time></trkpt><trkpt lat="44.2262767" lon="10.640335"><ele>784.0</ele><time>2026-05-03T13:14:57.757Z</time></trkpt><trkpt lat="44.2262217" lon="10.6402083"><ele>784.0</ele><time>2026-05-03T13:14:58.757Z</time></trkpt><trkpt lat="44.2261567" lon="10.6401"><ele>784.0</ele><time>2026-05-03T13:14:59.757Z</time></trkpt><trkpt lat="44.2260933" lon="10.6400133"><ele>784.0</ele><time>2026-05-03T13:15:00.757Z</time></trkpt><trkpt lat="44.2260383" lon="10.639935"><ele>780.2</ele><time>2026-05-03T13:15:01.757Z</time></trkpt><trkpt lat="44.225995" lon="10.6398367"><ele>776.4000000000001</ele><time>2026-05-03T13:15:02.757Z</time></trkpt><trkpt lat="44.2259783" lon="10.6397183"><ele>772.6</ele><time>2026-05-03T13:15:03.757Z</time></trkpt><trkpt lat="44.2259717" lon="10.6395867"><ele>768.8</ele><time>2026-05-03T13:15:04.757Z</time></trkpt><trkpt lat="44.225955" lon="10.639445"><ele>765.0</ele><time>2026-05-03T13:15:05.757Z</time></trkpt><trkpt lat="44.2259183" lon="10.6392967"><ele>760.75</ele><time>2026-05-03T13:15:06.757Z</time></trkpt><trkpt lat="44.2258667" lon="10.6391633"><ele>756.5</ele><time>2026-05-03T13:15:07.757Z</time></trkpt><trkpt lat="44.2257883" lon="10.6390517"><ele>752.25</ele><time>2026-05-03T13:15:08.757Z</time></trkpt><trkpt lat="44.225705" lon="10.6389317"><ele>748.0</ele><time>2026-05-03T13:15:09.757Z</time></trkpt><trkpt lat="44.2256167" lon="10.6388217"><ele>749.75</ele><time>2026-05-03T13:15:10.756Z</time></trkpt><trkpt lat="44.2255317" lon="10.638705"><ele>751.5</ele><time>2026-05-03T13:15:11.757Z</time></trkpt><trkpt lat="44.2254467" lon="10.638585"><ele>753.25</ele><time>2026-05-03T13:15:12.756Z</time></trkpt><trkpt lat="44.2253683" lon="10.6384767"><ele>755.0</ele><time>2026-05-03T13:15:13.757Z</time></trkpt><trkpt lat="44.2252817" lon="10.63838"><ele>755.0</ele><time>2026-05-03T13:15:14.757Z</time></trkpt><trkpt lat="44.225195" lon="10.6382967"><ele>755.0</ele><time>2026-05-03T13:15:15.757Z</time></trkpt><trkpt lat="44.2251017" lon="10.6382233"><ele>755.0</ele><time>2026-05-03T13:15:16.757Z</time></trkpt><trkpt lat="44.22501" lon="10.6381367"><ele>755.0</ele><time>2026-05-03T13:15:17.757Z</time></trkpt><trkpt lat="44.2249133" lon="10.6380333"><ele>755.0</ele><time>2026-05-03T13:15:18.756Z</time></trkpt><trkpt lat="44.2248317" lon="10.6379217"><ele>752.25</ele><time>2026-05-03T13:15:19.757Z</time></trkpt><trkpt lat="44.2247517" lon="10.6378"><ele>749.5</ele><time>2026-05-03T13:15:20.756Z</time></trkpt><trkpt lat="44.22467" lon="10.63769"><ele>746.75</ele><time>2026-05-03T13:15:21.756Z</time></trkpt><trkpt lat="44.224575" lon="10.6375983"><ele>744.0</ele><time>2026-05-03T13:15:22.757Z</time></trkpt><trkpt lat="44.2244633" lon="10.6375233"><ele>744.0</ele><time>2026-05-03T13:15:23.757Z</time></trkpt><trkpt lat="44.2243417" lon="10.637475"><ele>744.0</ele><time>2026-05-03T13:15:24.757Z</time></trkpt><trkpt lat="44.2242117" lon="10.6374433"><ele>744.0</ele><time>2026-05-03T13:15:25.757Z</time></trkpt><trkpt lat="44.2240783" lon="10.63742"><ele>744.0</ele><time>2026-05-03T13:15:26.757Z</time></trkpt><trkpt lat="44.2239483" lon="10.637415"><ele>746.75</ele><time>2026-05-03T13:15:27.756Z</time></trkpt><trkpt lat="44.223815" lon="10.637425"><ele>749.5</ele><time>2026-05-03T13:15:28.757Z</time></trkpt><trkpt lat="44.2236817" lon="10.637415"><ele>752.25</ele><time>2026-05-03T13:15:29.757Z</time></trkpt><trkpt lat="44.2235517" lon="10.637405"><ele>755.0</ele><time>2026-05-03T13:15:30.757Z</time></trkpt><trkpt lat="44.22342" lon="10.6373933"><ele>755.0</ele><time>2026-05-03T13:15:31.757Z</time></trkpt><trkpt lat="44.22329" lon="10.637375"><ele>755.0</ele><time>2026-05-03T13:15:32.756Z</time></trkpt><trkpt lat="44.2231567" lon="10.6373467"><ele>755.0</ele><time>2026-05-03T13:15:33.757Z</time></trkpt><trkpt lat="44.2230233" lon="10.637325"><ele>755.0</ele><time>2026-05-03T13:15:34.757Z</time></trkpt><trkpt lat="44.2228967" lon="10.6372933"><ele>760.0</ele><time>2026-05-03T13:15:35.757Z</time></trkpt><trkpt lat="44.2227733" lon="10.63725"><ele>765.0</ele><time>2026-05-03T13:15:36.757Z</time></trkpt><trkpt lat="44.2226683" lon="10.637215"><ele>770.0</ele><time>2026-05-03T13:15:37.757Z</time></trkpt><trkpt lat="44.2225583" lon="10.6371667"><ele>775.0</ele><time>2026-05-03T13:15:38.757Z</time></trkpt><trkpt lat="44.2224583" lon="10.6370933"><ele>775.0</ele><time>2026-05-03T13:15:39.757Z</time></trkpt><trkpt lat="44.22236" lon="10.6370017"><ele>775.0</ele><time>2026-05-03T13:15:40.756Z</time></trkpt><trkpt lat="44.2222633" lon="10.6368917"><ele>775.0</ele><time>2026-05-03T13:15:41.756Z</time></trkpt><trkpt lat="44.2221633" lon="10.6367833"><ele>775.0</ele><time>2026-05-03T13:15:42.757Z</time></trkpt><trkpt lat="44.2220733" lon="10.636695"><ele>771.75</ele><time>2026-05-03T13:15:43.757Z</time></trkpt><trkpt lat="44.221955" lon="10.6366133"><ele>768.5</ele><time>2026-05-03T13:15:44.757Z</time></trkpt><trkpt lat="44.2218317" lon="10.6365517"><ele>765.25</ele><time>2026-05-03T13:15:45.757Z</time></trkpt><trkpt lat="44.221715" lon="10.6365033"><ele>762.0</ele><time>2026-05-03T13:15:46.756Z</time></trkpt><trkpt lat="44.221595" lon="10.6364483"><ele>762.0</ele><time>2026-05-03T13:15:47.757Z</time></trkpt><trkpt lat="44.22149" lon="10.6363917"><ele>762.0</ele><time>2026-05-03T13:15:48.757Z</time></trkpt><trkpt lat="44.2213783" lon="10.6363183"><ele>762.0</ele><time>2026-05-03T13:15:49.757Z</time></trkpt><trkpt lat="44.2212733" lon="10.6362217"><ele>762.0</ele><time>2026-05-03T13:15:50.757Z</time></trkpt><trkpt lat="44.2211733" lon="10.6361217"><ele>762.0</ele><time>2026-05-03T13:15:51.757Z</time></trkpt><trkpt lat="44.2210683" lon="10.63603"><ele>762.0</ele><time>2026-05-03T13:15:52.756Z</time></trkpt><trkpt lat="44.2209667" lon="10.63594"><ele>762.0</ele><time>2026-05-03T13:15:53.757Z</time></trkpt><trkpt lat="44.2208733" lon="10.6358433"><ele>762.0</ele><time>2026-05-03T13:15:54.757Z</time></trkpt><trkpt lat="44.22079" lon="10.63576"><ele>762.0</ele><time>2026-05-03T13:15:55.757Z</time></trkpt><trkpt lat="44.2207233" lon="10.6356817"><ele>762.0</ele><time>2026-05-03T13:15:56.757Z</time></trkpt><trkpt lat="44.2206717" lon="10.6355817"><ele>762.0</ele><time>2026-05-03T13:15:57.757Z</time></trkpt><trkpt lat="44.22063" lon="10.6354467"><ele>762.0</ele><time>2026-05-03T13:15:58.756Z</time></trkpt><trkpt lat="44.2206" lon="10.6353083"><ele>762.0</ele><time>2026-05-03T13:15:59.757Z</time></trkpt><trkpt lat="44.22057" lon="10.63517"><ele>761.8</ele><time>2026-05-03T13:16:00.757Z</time></trkpt><trkpt lat="44.2205267" lon="10.635025"><ele>761.6</ele><time>2026-05-03T13:16:01.757Z</time></trkpt><trkpt lat="44.2204667" lon="10.6348917"><ele>761.4</ele><time>2026-05-03T13:16:02.757Z</time></trkpt><trkpt lat="44.2204017" lon="10.6347767"><ele>761.1999999999999</ele><time>2026-05-03T13:16:03.757Z</time></trkpt><trkpt lat="44.2203167" lon="10.63468"><ele>761.0</ele><time>2026-05-03T13:16:04.757Z</time></trkpt><trkpt lat="44.220225" lon="10.63461"><ele>761.0</ele><time>2026-05-03T13:16:05.757Z</time></trkpt><trkpt lat="44.2201183" lon="10.6345667"><ele>761.0</ele><time>2026-05-03T13:16:06.757Z</time></trkpt><trkpt lat="44.2200067" lon="10.6345517"><ele>761.0</ele><time>2026-05-03T13:16:07.757Z</time></trkpt><trkpt lat="44.21989" lon="10.634565"><ele>761.0</ele><time>2026-05-03T13:16:08.757Z</time></trkpt><trkpt lat="44.2197717" lon="10.6345767"><ele>763.75</ele><time>2026-05-03T13:16:09.757Z</time></trkpt><trkpt lat="44.2196667" lon="10.634595"><ele>766.5</ele><time>2026-05-03T13:16:10.756Z</time></trkpt><trkpt lat="44.2195583" lon="10.6345617"><ele>769.25</ele><time>2026-05-03T13:16:11.757Z</time></trkpt><trkpt lat="44.2194467" lon="10.6345"><ele>772.0</ele><time>2026-05-03T13:16:12.756Z</time></trkpt><trkpt lat="44.2193383" lon="10.6344367"><ele>766.0</ele><time>2026-05-03T13:16:13.757Z</time></trkpt><trkpt lat="44.2192217" lon="10.634375"><ele>760.0</ele><time>2026-05-03T13:16:14.757Z</time></trkpt><trkpt lat="44.2190967" lon="10.6343317"><ele>754.0</ele><time>2026-05-03T13:16:15.757Z</time></trkpt><trkpt lat="44.2189717" lon="10.6343133"><ele>748.0</ele><time>2026-05-03T13:16:16.757Z</time></trkpt><trkpt lat="44.2188433" lon="10.63431"><ele>748.0</ele><time>2026-05-03T13:16:17.757Z</time></trkpt><trkpt lat="44.2187217" lon="10.6343167"><ele>748.0</ele><time>2026-05-03T13:16:18.757Z</time></trkpt><trkpt lat="44.2186083" lon="10.63431"><ele>748.0</ele><time>2026-05-03T13:16:19.757Z</time></trkpt><trkpt lat="44.218495" lon="10.6342883"><ele>748.0</ele><time>2026-05-03T13:16:20.757Z</time></trkpt><trkpt lat="44.218385" lon="10.6342517"><ele>748.0</ele><time>2026-05-03T13:16:21.757Z</time></trkpt><trkpt lat="44.21828" lon="10.6341983"><ele>748.0</ele><time>2026-05-03T13:16:22.757Z</time></trkpt><trkpt lat="44.2181767" lon="10.6341317"><ele>748.0</ele><time>2026-05-03T13:16:23.757Z</time></trkpt><trkpt lat="44.2180833" lon="10.63404"><ele>748.0</ele><time>2026-05-03T13:16:24.757Z</time></trkpt><trkpt lat="44.2179983" lon="10.6339217"><ele>750.0</ele><time>2026-05-03T13:16:25.757Z</time></trkpt><trkpt lat="44.2179183" lon="10.6337867"><ele>752.0</ele><time>2026-05-03T13:16:26.757Z</time></trkpt><trkpt lat="44.2178433" lon="10.6336433"><ele>754.0</ele><time>2026-05-03T13:16:27.757Z</time></trkpt><trkpt lat="44.217755" lon="10.6335117"><ele>756.0</ele><time>2026-05-03T13:16:28.757Z</time></trkpt><trkpt lat="44.217675" lon="10.6333883"><ele>756.0</ele><time>2026-05-03T13:16:29.757Z</time></trkpt><trkpt lat="44.2175983" lon="10.63327"><ele>756.0</ele><time>2026-05-03T13:16:30.757Z</time></trkpt><trkpt lat="44.2175333" lon="10.6331683"><ele>756.0</ele><time>2026-05-03T13:16:31.757Z</time></trkpt><trkpt lat="44.21746" lon="10.633095"><ele>756.0</ele><time>2026-05-03T13:16:32.757Z</time></trkpt><trkpt lat="44.2173767" lon="10.6330417"><ele>756.0</ele><time>2026-05-03T13:16:33.757Z</time></trkpt><trkpt lat="44.2172967" lon="10.6329983"><ele>760.5999999999999</ele><time>2026-05-03T13:16:34.757Z</time></trkpt><trkpt lat="44.2172167" lon="10.6329333"><ele>765.2</ele><time>2026-05-03T13:16:35.757Z</time></trkpt><trkpt lat="44.2171583" lon="10.6328267"><ele>769.8</ele><time>2026-05-03T13:16:36.757Z</time></trkpt><trkpt lat="44.217125" lon="10.6326917"><ele>774.4000000000001</ele><time>2026-05-03T13:16:37.756Z</time></trkpt><trkpt lat="44.2171017" lon="10.6325533"><ele>779.0</ele><time>2026-05-03T13:16:38.756Z</time></trkpt><trkpt lat="44.217075" lon="10.63241"><ele>779.0</ele><time>2026-05-03T13:16:39.757Z</time></trkpt><trkpt lat="44.217035" lon="10.63227"><ele>779.0</ele><time>2026-05-03T13:16:40.757Z</time></trkpt><trkpt lat="44.2169783" lon="10.6321317"><ele>779.0</ele><time>2026-05-03T13:16:41.757Z</time></trkpt><trkpt lat="44.2169217" lon="10.6319983"><ele>779.0</ele><time>2026-05-03T13:16:42.757Z</time></trkpt><trkpt lat="44.2168517" lon="10.631875"><ele>779.0</ele><time>2026-05-03T13:16:43.756Z</time></trkpt><trkpt lat="44.21676" lon="10.6317733"><ele>776.75</ele><time>2026-05-03T13:16:44.756Z</time></trkpt><trkpt lat="44.2166633" lon="10.6316767"><ele>774.5</ele><time>2026-05-03T13:16:45.756Z</time></trkpt><trkpt lat="44.21656" lon="10.63159"><ele>772.25</ele><time>2026-05-03T13:16:46.756Z</time></trkpt><trkpt lat="44.2164517" lon="10.63151"><ele>770.0</ele><time>2026-05-03T13:16:47.756Z</time></trkpt><trkpt lat="44.2163467" lon="10.6314233"><ele>770.0</ele><time>2026-05-03T13:16:48.756Z</time></trkpt><trkpt lat="44.21624" lon="10.631325"><ele>770.0</ele><time>2026-05-03T13:16:49.756Z</time></trkpt><trkpt lat="44.2161417" lon="10.6312283"><ele>770.0</ele><time>2026-05-03T13:16:50.756Z</time></trkpt><trkpt lat="44.2160467" lon="10.6311267"><ele>770.0</ele><time>2026-05-03T13:16:51.756Z</time></trkpt><trkpt lat="44.2159583" lon="10.6310283"><ele>763.8</ele><time>2026-05-03T13:16:52.756Z</time></trkpt><trkpt lat="44.2158683" lon="10.630935"><ele>757.6</ele><time>2026-05-03T13:16:53.756Z</time></trkpt><trkpt lat="44.2157733" lon="10.63088"><ele>751.4000000000001</ele><time>2026-05-03T13:16:54.756Z</time></trkpt><trkpt lat="44.2156733" lon="10.630845"><ele>745.2</ele><time>2026-05-03T13:16:55.756Z</time></trkpt><trkpt lat="44.21557" lon="10.6308233"><ele>739.0</ele><time>2026-05-03T13:16:56.755Z</time></trkpt><trkpt lat="44.2154717" lon="10.630805"><ele>738.4000000000001</ele><time>2026-05-03T13:16:57.756Z</time></trkpt><trkpt lat="44.21539" lon="10.63079"><ele>737.8</ele><time>2026-05-03T13:16:58.756Z</time></trkpt><trkpt lat="44.2152783" lon="10.6307233"><ele>737.2</ele><time>2026-05-03T13:17:00.756Z</time></trkpt><trkpt lat="44.2152367" lon="10.630555"><ele>736.5999999999999</ele><time>2026-05-03T13:17:02.755Z</time></trkpt><trkpt lat="44.215245" lon="10.63042"><ele>736.0</ele><time>2026-05-03T13:17:03.756Z</time></trkpt><trkpt lat="44.2152633" lon="10.6302717"><ele>734.5999999999999</ele><time>2026-05-03T13:17:04.756Z</time></trkpt><trkpt lat="44.21528" lon="10.6301267"><ele>733.2</ele><time>2026-05-03T13:17:05.756Z</time></trkpt><trkpt lat="44.2152917" lon="10.629995"><ele>731.8</ele><time>2026-05-03T13:17:06.755Z</time></trkpt><trkpt lat="44.215295" lon="10.62987"><ele>730.4000000000001</ele><time>2026-05-03T13:17:07.756Z</time></trkpt><trkpt lat="44.21527" lon="10.62975"><ele>729.0</ele><time>2026-05-03T13:17:08.756Z</time></trkpt><trkpt lat="44.2152217" lon="10.629625"><ele>729.0</ele><time>2026-05-03T13:17:09.756Z</time></trkpt><trkpt lat="44.2151633" lon="10.629505"><ele>729.0</ele><time>2026-05-03T13:17:10.755Z</time></trkpt><trkpt lat="44.2150883" lon="10.6293933"><ele>729.0</ele><time>2026-05-03T13:17:11.756Z</time></trkpt><trkpt lat="44.2149917" lon="10.6293133"><ele>729.0</ele><time>2026-05-03T13:17:12.756Z</time></trkpt><trkpt lat="44.2148833" lon="10.6292583"><ele>729.0</ele><time>2026-05-03T13:17:13.756Z</time></trkpt><trkpt lat="44.2147617" lon="10.6292433"><ele>733.75</ele><time>2026-05-03T13:17:14.755Z</time></trkpt><trkpt lat="44.2146333" lon="10.6292483"><ele>738.5</ele><time>2026-05-03T13:17:15.756Z</time></trkpt><trkpt lat="44.214505" lon="10.6292767"><ele>743.25</ele><time>2026-05-03T13:17:16.756Z</time></trkpt><trkpt lat="44.2143817" lon="10.629315"><ele>748.0</ele><time>2026-05-03T13:17:17.756Z</time></trkpt><trkpt lat="44.2142583" lon="10.62935"><ele>748.0</ele><time>2026-05-03T13:17:18.755Z</time></trkpt><trkpt lat="44.2141333" lon="10.6293817"><ele>748.0</ele><time>2026-05-03T13:17:19.756Z</time></trkpt><trkpt lat="44.2140017" lon="10.6294183"><ele>748.0</ele><time>2026-05-03T13:17:20.755Z</time></trkpt><trkpt lat="44.2138733" lon="10.6294617"><ele>748.0</ele><time>2026-05-03T13:17:21.755Z</time></trkpt><trkpt lat="44.2137533" lon="10.6295067"><ele>744.5999999999999</ele><time>2026-05-03T13:17:22.756Z</time></trkpt><trkpt lat="44.2136333" lon="10.629555"><ele>741.1999999999999</ele><time>2026-05-03T13:17:23.756Z</time></trkpt><trkpt lat="44.2135233" lon="10.6296"><ele>737.8</ele><time>2026-05-03T13:17:24.756Z</time></trkpt><trkpt lat="44.21342" lon="10.6296333"><ele>734.4</ele><time>2026-05-03T13:17:25.756Z</time></trkpt><trkpt lat="44.213325" lon="10.629645"><ele>731.0</ele><time>2026-05-03T13:17:26.756Z</time></trkpt><trkpt lat="44.21323" lon="10.62963"><ele>733.1999999999999</ele><time>2026-05-03T13:17:27.756Z</time></trkpt><trkpt lat="44.213135" lon="10.62956"><ele>735.4</ele><time>2026-05-03T13:17:28.756Z</time></trkpt><trkpt lat="44.2130517" lon="10.629485"><ele>737.6</ele><time>2026-05-03T13:17:29.755Z</time></trkpt><trkpt lat="44.2129883" lon="10.6293767"><ele>739.8</ele><time>2026-05-03T13:17:30.756Z</time></trkpt><trkpt lat="44.21293" lon="10.6292133"><ele>742.0</ele><time>2026-05-03T13:17:31.756Z</time></trkpt><trkpt lat="44.2128667" lon="10.62904"><ele>742.0</ele><time>2026-05-03T13:17:32.755Z</time></trkpt><trkpt lat="44.2128067" lon="10.6288583"><ele>742.0</ele><time>2026-05-03T13:17:33.756Z</time></trkpt><trkpt lat="44.2127417" lon="10.62868"><ele>742.0</ele><time>2026-05-03T13:17:34.756Z</time></trkpt><trkpt lat="44.2126733" lon="10.6284883"><ele>742.0</ele><time>2026-05-03T13:17:35.756Z</time></trkpt><trkpt lat="44.2126083" lon="10.62831"><ele>744.0</ele><time>2026-05-03T13:17:36.756Z</time></trkpt><trkpt lat="44.21254" lon="10.6281317"><ele>746.0</ele><time>2026-05-03T13:17:37.756Z</time></trkpt><trkpt lat="44.2124783" lon="10.6279617"><ele>748.0</ele><time>2026-05-03T13:17:38.755Z</time></trkpt><trkpt lat="44.21242" lon="10.6277917"><ele>750.0</ele><time>2026-05-03T13:17:39.756Z</time></trkpt><trkpt lat="44.2123617" lon="10.6276317"><ele>750.25</ele><time>2026-05-03T13:17:40.756Z</time></trkpt><trkpt lat="44.2123017" lon="10.6274683"><ele>750.5</ele><time>2026-05-03T13:17:41.756Z</time></trkpt><trkpt lat="44.212245" lon="10.6273083"><ele>750.75</ele><time>2026-05-03T13:17:42.756Z</time></trkpt><trkpt lat="44.2121883" lon="10.6271367"><ele>751.0</ele><time>2026-05-03T13:17:43.756Z</time></trkpt><trkpt lat="44.2121483" lon="10.6269617"><ele>748.25</ele><time>2026-05-03T13:17:44.756Z</time></trkpt><trkpt lat="44.2121267" lon="10.6267817"><ele>745.5</ele><time>2026-05-03T13:17:45.756Z</time></trkpt><trkpt lat="44.2121333" lon="10.626605"><ele>742.75</ele><time>2026-05-03T13:17:46.756Z</time></trkpt><trkpt lat="44.212155" lon="10.6264233"><ele>740.0</ele><time>2026-05-03T13:17:47.756Z</time></trkpt><trkpt lat="44.212195" lon="10.6262483"><ele>738.25</ele><time>2026-05-03T13:17:48.756Z</time></trkpt><trkpt lat="44.2122367" lon="10.6260683"><ele>736.5</ele><time>2026-05-03T13:17:49.756Z</time></trkpt><trkpt lat="44.2122683" lon="10.6258833"><ele>734.75</ele><time>2026-05-03T13:17:50.755Z</time></trkpt><trkpt lat="44.2122867" lon="10.6257017"><ele>733.0</ele><time>2026-05-03T13:17:51.755Z</time></trkpt><trkpt lat="44.21229" lon="10.6255233"><ele>733.0</ele><time>2026-05-03T13:17:52.756Z</time></trkpt><trkpt lat="44.2122983" lon="10.6253517"><ele>733.0</ele><time>2026-05-03T13:17:53.756Z</time></trkpt><trkpt lat="44.21229" lon="10.6251767"><ele>733.0</ele><time>2026-05-03T13:17:54.756Z</time></trkpt><trkpt lat="44.212275" lon="10.6250133"><ele>733.0</ele><time>2026-05-03T13:17:55.756Z</time></trkpt><trkpt lat="44.2122533" lon="10.624865"><ele>732.8333333333334</ele><time>2026-05-03T13:17:56.755Z</time></trkpt><trkpt lat="44.2122417" lon="10.6247333"><ele>732.6666666666667</ele><time>2026-05-03T13:17:57.756Z</time></trkpt><trkpt lat="44.2122183" lon="10.6246117"><ele>732.5</ele><time>2026-05-03T13:17:58.755Z</time></trkpt><trkpt lat="44.2121817" lon="10.624505"><ele>732.3333333333334</ele><time>2026-05-03T13:17:59.756Z</time></trkpt><trkpt lat="44.2121467" lon="10.6243983"><ele>732.1666666666666</ele><time>2026-05-03T13:18:00.756Z</time></trkpt><trkpt lat="44.212115" lon="10.62428"><ele>732.0</ele><time>2026-05-03T13:18:01.756Z</time></trkpt><trkpt lat="44.2120883" lon="10.6241417"><ele>734.0</ele><time>2026-05-03T13:18:02.755Z</time></trkpt><trkpt lat="44.2120583" lon="10.623995"><ele>736.0</ele><time>2026-05-03T13:18:03.756Z</time></trkpt><trkpt lat="44.211995" lon="10.623845"><ele>738.0</ele><time>2026-05-03T13:18:04.756Z</time></trkpt><trkpt lat="44.2119033" lon="10.6236983"><ele>740.0</ele><time>2026-05-03T13:18:05.756Z</time></trkpt><trkpt lat="44.2117833" lon="10.62357"><ele>738.3333333333333</ele><time>2026-05-03T13:18:06.756Z</time></trkpt><trkpt lat="44.211645" lon="10.62345"><ele>736.6666666666666</ele><time>2026-05-03T13:18:07.756Z</time></trkpt><trkpt lat="44.2115017" lon="10.6233217"><ele>735.0</ele><time>2026-05-03T13:18:08.756Z</time></trkpt><trkpt lat="44.2113717" lon="10.6232117"><ele>735.0</ele><time>2026-05-03T13:18:09.756Z</time></trkpt><trkpt lat="44.2112383" lon="10.623085"><ele>735.0</ele><time>2026-05-03T13:18:10.756Z</time></trkpt><trkpt lat="44.2111183" lon="10.6229433"><ele>735.0</ele><time>2026-05-03T13:18:11.756Z</time></trkpt><trkpt lat="44.21102" lon="10.622775"><ele>739.6666666666666</ele><time>2026-05-03T13:18:12.756Z</time></trkpt><trkpt lat="44.210935" lon="10.6225767"><ele>744.3333333333333</ele><time>2026-05-03T13:18:13.755Z</time></trkpt><trkpt lat="44.2108517" lon="10.6223783"><ele>749.0</ele><time>2026-05-03T13:18:14.756Z</time></trkpt><trkpt lat="44.2107567" lon="10.6221867"><ele>748.0</ele><time>2026-05-03T13:18:15.756Z</time></trkpt><trkpt lat="44.210655" lon="10.622"><ele>747.0</ele><time>2026-05-03T13:18:16.756Z</time></trkpt><trkpt lat="44.2105467" lon="10.621825"><ele>746.0</ele><time>2026-05-03T13:18:17.755Z</time></trkpt><trkpt lat="44.21042" lon="10.6216583"><ele>746.0</ele><time>2026-05-03T13:18:18.756Z</time></trkpt><trkpt lat="44.2102767" lon="10.6215083"><ele>746.0</ele><time>2026-05-03T13:18:19.756Z</time></trkpt><trkpt lat="44.2101417" lon="10.621365"><ele>746.0</ele><time>2026-05-03T13:18:20.756Z</time></trkpt><trkpt lat="44.2100067" lon="10.6212317"><ele>746.0</ele><time>2026-05-03T13:18:21.756Z</time></trkpt><trkpt lat="44.2098833" lon="10.621095"><ele>746.0</ele><time>2026-05-03T13:18:22.755Z</time></trkpt><trkpt lat="44.2097583" lon="10.6209583"><ele>746.0</ele><time>2026-05-03T13:18:23.756Z</time></trkpt><trkpt lat="44.2096383" lon="10.6208267"><ele>746.0</ele><time>2026-05-03T13:18:24.755Z</time></trkpt><trkpt lat="44.2095183" lon="10.6206983"><ele>746.0</ele><time>2026-05-03T13:18:25.756Z</time></trkpt><trkpt lat="44.209395" lon="10.6205633"><ele>746.0</ele><time>2026-05-03T13:18:26.756Z</time></trkpt><trkpt lat="44.20927" lon="10.6204183"><ele>749.0</ele><time>2026-05-03T13:18:27.756Z</time></trkpt><trkpt lat="44.209155" lon="10.6202833"><ele>752.0</ele><time>2026-05-03T13:18:28.756Z</time></trkpt><trkpt lat="44.209025" lon="10.62016"><ele>755.0</ele><time>2026-05-03T13:18:29.756Z</time></trkpt><trkpt lat="44.2089067" lon="10.6200183"><ele>755.0</ele><time>2026-05-03T13:18:30.756Z</time></trkpt><trkpt lat="44.2087817" lon="10.61989"><ele>755.0</ele><time>2026-05-03T13:18:31.756Z</time></trkpt><trkpt lat="44.208655" lon="10.6197567"><ele>755.0</ele><time>2026-05-03T13:18:32.756Z</time></trkpt><trkpt lat="44.2085383" lon="10.61963"><ele>755.0</ele><time>2026-05-03T13:18:33.756Z</time></trkpt><trkpt lat="44.2084167" lon="10.619515"><ele>755.0</ele><time>2026-05-03T13:18:34.755Z</time></trkpt><trkpt lat="44.2083133" lon="10.6194017"><ele>755.0</ele><time>2026-05-03T13:18:35.756Z</time></trkpt><trkpt lat="44.20821" lon="10.6192933"><ele>755.0</ele><time>2026-05-03T13:18:36.756Z</time></trkpt><trkpt lat="44.2081217" lon="10.619185"><ele>755.4</ele><time>2026-05-03T13:18:37.755Z</time></trkpt><trkpt lat="44.20804" lon="10.6190817"><ele>755.8</ele><time>2026-05-03T13:18:38.756Z</time></trkpt><trkpt lat="44.2079583" lon="10.6189717"><ele>756.2</ele><time>2026-05-03T13:18:39.756Z</time></trkpt><trkpt lat="44.2078983" lon="10.61884"><ele>756.6</ele><time>2026-05-03T13:18:40.756Z</time></trkpt><trkpt lat="44.207845" lon="10.6187083"><ele>757.0</ele><time>2026-05-03T13:18:41.756Z</time></trkpt><trkpt lat="44.207785" lon="10.6185833"><ele>760.0</ele><time>2026-05-03T13:18:42.756Z</time></trkpt><trkpt lat="44.2077083" lon="10.6184783"><ele>763.0</ele><time>2026-05-03T13:18:43.756Z</time></trkpt><trkpt lat="44.2076317" lon="10.6184"><ele>766.0</ele><time>2026-05-03T13:18:44.756Z</time></trkpt><trkpt lat="44.207535" lon="10.6183717"><ele>769.0</ele><time>2026-05-03T13:18:45.756Z</time></trkpt><trkpt lat="44.2074483" lon="10.618335"><ele>772.0</ele><time>2026-05-03T13:18:46.756Z</time></trkpt><trkpt lat="44.2073733" lon="10.6183083"><ele>771.3333333333333</ele><time>2026-05-03T13:18:47.756Z</time></trkpt><trkpt lat="44.2073" lon="10.6182783"><ele>770.6666666666666</ele><time>2026-05-03T13:18:48.756Z</time></trkpt><trkpt lat="44.2072383" lon="10.6182283"><ele>770.0</ele><time>2026-05-03T13:18:49.756Z</time></trkpt><trkpt lat="44.2071783" lon="10.61818"><ele>769.3333333333333</ele><time>2026-05-03T13:18:50.756Z</time></trkpt><trkpt lat="44.20711" lon="10.6181483"><ele>768.6666666666666</ele><time>2026-05-03T13:18:51.755Z</time></trkpt><trkpt lat="44.2070467" lon="10.6180983"><ele>768.0</ele><time>2026-05-03T13:18:52.756Z</time></trkpt><trkpt lat="44.2069567" lon="10.6180167"><ele>768.0</ele><time>2026-05-03T13:18:54.755Z</time></trkpt><trkpt lat="44.2068867" lon="10.617935"><ele>768.0</ele><time>2026-05-03T13:18:56.756Z</time></trkpt><trkpt lat="44.20683" lon="10.61788"><ele>768.0</ele><time>2026-05-03T13:18:58.756Z</time></trkpt><trkpt lat="44.2067517" lon="10.61783"><ele>768.0</ele><time>2026-05-03T13:19:00.756Z</time></trkpt><trkpt lat="44.2066417" lon="10.6177333"><ele>768.0</ele><time>2026-05-03T13:19:02.756Z</time></trkpt><trkpt lat="44.2065767" lon="10.6176717"><ele>769.5999999999999</ele><time>2026-05-03T13:19:03.756Z</time></trkpt><trkpt lat="44.2065" lon="10.6175967"><ele>771.1999999999999</ele><time>2026-05-03T13:19:04.756Z</time></trkpt><trkpt lat="44.2064217" lon="10.6175133"><ele>772.8</ele><time>2026-05-03T13:19:05.756Z</time></trkpt><trkpt lat="44.2063383" lon="10.6174233"><ele>774.4</ele><time>2026-05-03T13:19:06.756Z</time></trkpt><trkpt lat="44.2062567" lon="10.6173383"><ele>776.0</ele><time>2026-05-03T13:19:07.755Z</time></trkpt><trkpt lat="44.2061783" lon="10.6172517"><ele>776.0000000000001</ele><time>2026-05-03T13:19:08.756Z</time></trkpt><trkpt lat="44.2061117" lon="10.6171617"><ele>776.0</ele><time>2026-05-03T13:19:09.756Z</time></trkpt><trkpt lat="44.206055" lon="10.6170767"><ele>776.0</ele><time>2026-05-03T13:19:10.756Z</time></trkpt><trkpt lat="44.206015" lon="10.6170067"><ele>776.0</ele><time>2026-05-03T13:19:11.756Z</time></trkpt><trkpt lat="44.20597" lon="10.6169417"><ele>776.0000000000001</ele><time>2026-05-03T13:19:13.756Z</time></trkpt><trkpt lat="44.20589" lon="10.6168933"><ele>776.0</ele><time>2026-05-03T13:19:16.756Z</time></trkpt><trkpt lat="44.2058233" lon="10.6168817"><ele>776.8333333333334</ele><time>2026-05-03T13:19:17.756Z</time></trkpt><trkpt lat="44.2057467" lon="10.6168667"><ele>777.6666666666667</ele><time>2026-05-03T13:19:18.756Z</time></trkpt><trkpt lat="44.2056617" lon="10.6168483"><ele>778.5</ele><time>2026-05-03T13:19:19.756Z</time></trkpt><trkpt lat="44.2055733" lon="10.61682"><ele>779.3333333333333</ele><time>2026-05-03T13:19:20.756Z</time></trkpt><trkpt lat="44.2054833" lon="10.61679"><ele>780.1666666666666</ele><time>2026-05-03T13:19:21.755Z</time></trkpt><trkpt lat="44.2053917" lon="10.61676"><ele>781.0</ele><time>2026-05-03T13:19:22.756Z</time></trkpt><trkpt lat="44.2053" lon="10.6167367"><ele>781.0</ele><time>2026-05-03T13:19:23.756Z</time></trkpt><trkpt lat="44.2052117" lon="10.6167"><ele>781.0</ele><time>2026-05-03T13:19:24.756Z</time></trkpt><trkpt lat="44.2051117" lon="10.6166567"><ele>781.0</ele><time>2026-05-03T13:19:25.756Z</time></trkpt><trkpt lat="44.205015" lon="10.6166183"><ele>781.0</ele><time>2026-05-03T13:19:26.756Z</time></trkpt><trkpt lat="44.2049133" lon="10.6165767"><ele>781.0</ele><time>2026-05-03T13:19:27.756Z</time></trkpt><trkpt lat="44.2048033" lon="10.616545"><ele>781.4</ele><time>2026-05-03T13:19:28.756Z</time></trkpt><trkpt lat="44.20469" lon="10.616515"><ele>781.8</ele><time>2026-05-03T13:19:29.756Z</time></trkpt><trkpt lat="44.2045817" lon="10.61649"><ele>782.1999999999999</ele><time>2026-05-03T13:19:30.755Z</time></trkpt><trkpt lat="44.2044767" lon="10.6164883"><ele>782.5999999999999</ele><time>2026-05-03T13:19:31.756Z</time></trkpt><trkpt lat="44.20438" lon="10.6165133"><ele>783.0</ele><time>2026-05-03T13:19:32.756Z</time></trkpt><trkpt lat="44.204275" lon="10.6165667"><ele>783.0</ele><time>2026-05-03T13:19:33.756Z</time></trkpt><trkpt lat="44.20417" lon="10.616625"><ele>783.0</ele><time>2026-05-03T13:19:34.756Z</time></trkpt><trkpt lat="44.204075" lon="10.6166967"><ele>783.0</ele><time>2026-05-03T13:19:35.756Z</time></trkpt><trkpt lat="44.203975" lon="10.616765"><ele>783.0</ele><time>2026-05-03T13:19:36.756Z</time></trkpt><trkpt lat="44.20388" lon="10.61682"><ele>783.0</ele><time>2026-05-03T13:19:37.756Z</time></trkpt><trkpt lat="44.2037833" lon="10.61688"><ele>782.5999999999999</ele><time>2026-05-03T13:19:38.756Z</time></trkpt><trkpt lat="44.2036817" lon="10.61696"><ele>782.1999999999999</ele><time>2026-05-03T13:19:39.755Z</time></trkpt><trkpt lat="44.2035783" lon="10.6170183"><ele>781.8</ele><time>2026-05-03T13:19:40.756Z</time></trkpt><trkpt lat="44.2034767" lon="10.6170733"><ele>781.4</ele><time>2026-05-03T13:19:41.756Z</time></trkpt><trkpt lat="44.2033767" lon="10.6171167"><ele>781.0</ele><time>2026-05-03T13:19:42.756Z</time></trkpt><trkpt lat="44.2032983" lon="10.6171333"><ele>779.5999999999999</ele><time>2026-05-03T13:19:43.756Z</time></trkpt><trkpt lat="44.203215" lon="10.6171267"><ele>778.2</ele><time>2026-05-03T13:19:44.756Z</time></trkpt><trkpt lat="44.2031433" lon="10.6170767"><ele>776.8</ele><time>2026-05-03T13:19:45.756Z</time></trkpt><trkpt lat="44.203085" lon="10.6169667"><ele>775.4000000000001</ele><time>2026-05-03T13:19:46.756Z</time></trkpt><trkpt lat="44.203035" lon="10.6168167"><ele>774.0</ele><time>2026-05-03T13:19:47.756Z</time></trkpt><trkpt lat="44.2030067" lon="10.6166083"><ele>772.75</ele><time>2026-05-03T13:19:48.756Z</time></trkpt><trkpt lat="44.2030017" lon="10.6164133"><ele>771.5</ele><time>2026-05-03T13:19:49.756Z</time></trkpt><trkpt lat="44.202965" lon="10.616205"><ele>770.25</ele><time>2026-05-03T13:19:50.756Z</time></trkpt><trkpt lat="44.202905" lon="10.6160183"><ele>769.0</ele><time>2026-05-03T13:19:51.756Z</time></trkpt><trkpt lat="44.2028383" lon="10.6158633"><ele>769.0</ele><time>2026-05-03T13:19:52.755Z</time></trkpt><trkpt lat="44.2027667" lon="10.61571"><ele>769.0</ele><time>2026-05-03T13:19:53.756Z</time></trkpt><trkpt lat="44.2027083" lon="10.6155567"><ele>769.0</ele><time>2026-05-03T13:19:54.756Z</time></trkpt><trkpt lat="44.202655" lon="10.6153883"><ele>769.0</ele><time>2026-05-03T13:19:55.756Z</time></trkpt><trkpt lat="44.20259" lon="10.6152333"><ele>767.75</ele><time>2026-05-03T13:19:56.756Z</time></trkpt><trkpt lat="44.2025167" lon="10.6150983"><ele>766.5</ele><time>2026-05-03T13:19:57.756Z</time></trkpt><trkpt lat="44.202435" lon="10.6149933"><ele>765.25</ele><time>2026-05-03T13:19:58.756Z</time></trkpt><trkpt lat="44.2023283" lon="10.61493"><ele>764.0</ele><time>2026-05-03T13:19:59.756Z</time></trkpt><trkpt lat="44.202205" lon="10.614925"><ele>764.0</ele><time>2026-05-03T13:20:00.756Z</time></trkpt><trkpt lat="44.20208" lon="10.61494"><ele>764.0</ele><time>2026-05-03T13:20:01.756Z</time></trkpt><trkpt lat="44.201955" lon="10.61498"><ele>764.0</ele><time>2026-05-03T13:20:02.756Z</time></trkpt><trkpt lat="44.2018383" lon="10.6150283"><ele>764.0</ele><time>2026-05-03T13:20:03.756Z</time></trkpt><trkpt lat="44.2017117" lon="10.6150617"><ele>764.0</ele><time>2026-05-03T13:20:04.756Z</time></trkpt><trkpt lat="44.2015883" lon="10.6150983"><ele>764.0</ele><time>2026-05-03T13:20:05.756Z</time></trkpt><trkpt lat="44.2014717" lon="10.6151283"><ele>764.0</ele><time>2026-05-03T13:20:06.755Z</time></trkpt><trkpt lat="44.2013583" lon="10.6151433"><ele>764.0</ele><time>2026-05-03T13:20:07.756Z</time></trkpt><trkpt lat="44.20126" lon="10.615185"><ele>766.6</ele><time>2026-05-03T13:20:08.756Z</time></trkpt><trkpt lat="44.2011717" lon="10.6152383"><ele>769.2</ele><time>2026-05-03T13:20:09.756Z</time></trkpt><trkpt lat="44.2011033" lon="10.6153483"><ele>771.8000000000001</ele><time>2026-05-03T13:20:10.756Z</time></trkpt><trkpt lat="44.2010467" lon="10.6154617"><ele>774.4000000000001</ele><time>2026-05-03T13:20:11.756Z</time></trkpt><trkpt lat="44.2009917" lon="10.6156033"><ele>777.0</ele><time>2026-05-03T13:20:12.756Z</time></trkpt><trkpt lat="44.2009517" lon="10.6157417"><ele>777.0</ele><time>2026-05-03T13:20:13.755Z</time></trkpt><trkpt lat="44.20093" lon="10.6158917"><ele>777.0</ele><time>2026-05-03T13:20:14.756Z</time></trkpt><trkpt lat="44.2009017" lon="10.616015"><ele>777.0</ele><time>2026-05-03T13:20:15.756Z</time></trkpt><trkpt lat="44.200875" lon="10.616125"><ele>777.0</ele><time>2026-05-03T13:20:16.756Z</time></trkpt><trkpt lat="44.20086" lon="10.6162283"><ele>777.0</ele><time>2026-05-03T13:20:17.756Z</time></trkpt><trkpt lat="44.2008167" lon="10.6163633"><ele>777.0</ele><time>2026-05-03T13:20:19.756Z</time></trkpt><trkpt lat="44.200875" lon="10.616435"><ele>777.0</ele><time>2026-05-03T13:20:22.756Z</time></trkpt><trkpt lat="44.20091" lon="10.6163583"><ele>777.0</ele><time>2026-05-03T13:20:24.756Z</time></trkpt><trkpt lat="44.20094" lon="10.6162633"><ele>777.0</ele><time>2026-05-03T13:26:34.753Z</time></trkpt><trkpt lat="44.2009617" lon="10.6161483"><ele>777.0</ele><time>2026-05-03T13:26:37.753Z</time></trkpt><trkpt lat="44.20093" lon="10.61605"><ele>777.0</ele><time>2026-05-03T13:26:52.753Z</time></trkpt><trkpt lat="44.20097" lon="10.6158683"><ele>777.0</ele><time>2026-05-03T13:26:54.754Z</time></trkpt><trkpt lat="44.2010017" lon="10.6157483"><ele>777.0</ele><time>2026-05-03T13:26:55.754Z</time></trkpt><trkpt lat="44.2010267" lon="10.6156417"><ele>777.0</ele><time>2026-05-03T13:26:56.754Z</time></trkpt><trkpt lat="44.201055" lon="10.6155417"><ele>777.0</ele><time>2026-05-03T13:26:57.753Z</time></trkpt><trkpt lat="44.2011083" lon="10.6154067"><ele>777.0</ele><time>2026-05-03T13:26:59.754Z</time></trkpt><trkpt lat="44.20115" lon="10.61531"><ele>777.0</ele><time>2026-05-03T13:27:01.754Z</time></trkpt><trkpt lat="44.20111" lon="10.615185"><ele>778.0</ele><time>2026-05-03T13:27:03.754Z</time></trkpt><trkpt lat="44.20102" lon="10.6150417"><ele>779.0</ele><time>2026-05-03T13:27:05.754Z</time></trkpt><trkpt lat="44.2009717" lon="10.6149383"><ele>780.0</ele><time>2026-05-03T13:27:06.753Z</time></trkpt><trkpt lat="44.2009333" lon="10.61482"><ele>781.0</ele><time>2026-05-03T13:27:07.754Z</time></trkpt><trkpt lat="44.2008983" lon="10.6146833"><ele>782.0</ele><time>2026-05-03T13:27:08.754Z</time></trkpt><trkpt lat="44.2008583" lon="10.6145433"><ele>781.6</ele><time>2026-05-03T13:27:09.754Z</time></trkpt><trkpt lat="44.2008217" lon="10.6144067"><ele>781.2</ele><time>2026-05-03T13:27:10.754Z</time></trkpt><trkpt lat="44.2007883" lon="10.6142667"><ele>780.8</ele><time>2026-05-03T13:27:11.754Z</time></trkpt><trkpt lat="44.2007533" lon="10.614125"><ele>780.4</ele><time>2026-05-03T13:27:12.753Z</time></trkpt><trkpt lat="44.2007183" lon="10.6139767"><ele>780.0</ele><time>2026-05-03T13:27:13.753Z</time></trkpt><trkpt lat="44.2007033" lon="10.61381"><ele>779.5</ele><time>2026-05-03T13:27:14.754Z</time></trkpt><trkpt lat="44.2007067" lon="10.6136417"><ele>779.0</ele><time>2026-05-03T13:27:15.754Z</time></trkpt><trkpt lat="44.2007333" lon="10.613475"><ele>778.5</ele><time>2026-05-03T13:27:16.754Z</time></trkpt><trkpt lat="44.20076" lon="10.6133233"><ele>778.0</ele><time>2026-05-03T13:27:17.753Z</time></trkpt><trkpt lat="44.20077" lon="10.61318"><ele>778.0</ele><time>2026-05-03T13:27:18.754Z</time></trkpt><trkpt lat="44.200765" lon="10.6130533"><ele>778.0</ele><time>2026-05-03T13:27:19.753Z</time></trkpt><trkpt lat="44.2007233" lon="10.612935"><ele>778.0</ele><time>2026-05-03T13:27:20.754Z</time></trkpt><trkpt lat="44.2006517" lon="10.612825"><ele>778.0</ele><time>2026-05-03T13:27:21.754Z</time></trkpt><trkpt lat="44.2005683" lon="10.6127267"><ele>778.0</ele><time>2026-05-03T13:27:22.754Z</time></trkpt><trkpt lat="44.200495" lon="10.612625"><ele>781.0</ele><time>2026-05-03T13:27:23.754Z</time></trkpt><trkpt lat="44.20044" lon="10.6124967"><ele>784.0</ele><time>2026-05-03T13:27:24.754Z</time></trkpt><trkpt lat="44.200395" lon="10.6123533"><ele>787.0</ele><time>2026-05-03T13:27:25.754Z</time></trkpt><trkpt lat="44.200365" lon="10.61221"><ele>790.0</ele><time>2026-05-03T13:27:26.754Z</time></trkpt><trkpt lat="44.2003583" lon="10.6120667"><ele>793.0</ele><time>2026-05-03T13:27:27.753Z</time></trkpt><trkpt lat="44.2003633" lon="10.6119267"><ele>793.0</ele><time>2026-05-03T13:27:28.754Z</time></trkpt><trkpt lat="44.20037" lon="10.6117817"><ele>793.0</ele><time>2026-05-03T13:27:29.754Z</time></trkpt><trkpt lat="44.2003667" lon="10.6116383"><ele>793.0</ele><time>2026-05-03T13:27:30.754Z</time></trkpt><trkpt lat="44.2003333" lon="10.6115033"><ele>793.0</ele><time>2026-05-03T13:27:31.753Z</time></trkpt><trkpt lat="44.20027" lon="10.6113817"><ele>793.0</ele><time>2026-05-03T13:27:32.754Z</time></trkpt><trkpt lat="44.2002133" lon="10.6112567"><ele>792.25</ele><time>2026-05-03T13:27:33.754Z</time></trkpt><trkpt lat="44.2001533" lon="10.6111183"><ele>791.5</ele><time>2026-05-03T13:27:34.754Z</time></trkpt><trkpt lat="44.200085" lon="10.6109817"><ele>790.75</ele><time>2026-05-03T13:27:35.754Z</time></trkpt><trkpt lat="44.2000167" lon="10.6108417"><ele>790.0</ele><time>2026-05-03T13:27:36.754Z</time></trkpt><trkpt lat="44.1999417" lon="10.61071"><ele>790.0</ele><time>2026-05-03T13:27:37.754Z</time></trkpt><trkpt lat="44.1998633" lon="10.6105833"><ele>790.0</ele><time>2026-05-03T13:27:38.753Z</time></trkpt><trkpt lat="44.1997833" lon="10.610465"><ele>790.0</ele><time>2026-05-03T13:27:39.753Z</time></trkpt><trkpt lat="44.1997017" lon="10.610375"><ele>790.0</ele><time>2026-05-03T13:27:40.754Z</time></trkpt><trkpt lat="44.1996067" lon="10.6103"><ele>791.75</ele><time>2026-05-03T13:27:41.754Z</time></trkpt><trkpt lat="44.1995033" lon="10.6102517"><ele>793.5</ele><time>2026-05-03T13:27:42.754Z</time></trkpt><trkpt lat="44.1993867" lon="10.6102133"><ele>795.25</ele><time>2026-05-03T13:27:43.754Z</time></trkpt><trkpt lat="44.1992717" lon="10.6101883"><ele>797.0</ele><time>2026-05-03T13:27:44.753Z</time></trkpt><trkpt lat="44.1991533" lon="10.6101717"><ele>797.0</ele><time>2026-05-03T13:27:45.754Z</time></trkpt><trkpt lat="44.1990333" lon="10.6101617"><ele>797.0</ele><time>2026-05-03T13:27:46.754Z</time></trkpt><trkpt lat="44.1989167" lon="10.6101583"><ele>797.0</ele><time>2026-05-03T13:27:47.754Z</time></trkpt><trkpt lat="44.1987917" lon="10.6101517"><ele>797.0</ele><time>2026-05-03T13:27:48.754Z</time></trkpt><trkpt lat="44.19868" lon="10.610145"><ele>799.2</ele><time>2026-05-03T13:27:49.754Z</time></trkpt><trkpt lat="44.1985767" lon="10.610115"><ele>801.4000000000001</ele><time>2026-05-03T13:27:50.754Z</time></trkpt><trkpt lat="44.1984733" lon="10.6100567"><ele>803.5999999999999</ele><time>2026-05-03T13:27:51.754Z</time></trkpt><trkpt lat="44.1983767" lon="10.6099867"><ele>805.8</ele><time>2026-05-03T13:27:52.753Z</time></trkpt><trkpt lat="44.1982767" lon="10.6099133"><ele>808.0</ele><time>2026-05-03T13:27:53.754Z</time></trkpt><trkpt lat="44.1981833" lon="10.609825"><ele>809.5</ele><time>2026-05-03T13:27:54.753Z</time></trkpt><trkpt lat="44.1980817" lon="10.60974"><ele>811.0</ele><time>2026-05-03T13:27:55.754Z</time></trkpt><trkpt lat="44.1979817" lon="10.6096567"><ele>812.5</ele><time>2026-05-03T13:27:56.754Z</time></trkpt><trkpt lat="44.19788" lon="10.6095633"><ele>814.0</ele><time>2026-05-03T13:27:57.753Z</time></trkpt><trkpt lat="44.1977783" lon="10.6094733"><ele>814.0</ele><time>2026-05-03T13:27:58.754Z</time></trkpt><trkpt lat="44.19767" lon="10.609385"><ele>814.0</ele><time>2026-05-03T13:27:59.753Z</time></trkpt><trkpt lat="44.19756" lon="10.60928"><ele>814.0</ele><time>2026-05-03T13:28:00.754Z</time></trkpt><trkpt lat="44.1974417" lon="10.6091817"><ele>814.0</ele><time>2026-05-03T13:28:01.753Z</time></trkpt><trkpt lat="44.1973267" lon="10.6090567"><ele>817.3333333333333</ele><time>2026-05-03T13:28:02.754Z</time></trkpt><trkpt lat="44.1972083" lon="10.6089183"><ele>820.6666666666667</ele><time>2026-05-03T13:28:03.753Z</time></trkpt><trkpt lat="44.19709" lon="10.60877"><ele>824.0</ele><time>2026-05-03T13:28:04.754Z</time></trkpt><trkpt lat="44.19698" lon="10.60863"><ele>824.0</ele><time>2026-05-03T13:28:05.753Z</time></trkpt><trkpt lat="44.19688" lon="10.6085017"><ele>824.0</ele><time>2026-05-03T13:28:06.754Z</time></trkpt><trkpt lat="44.1967917" lon="10.60838"><ele>824.0</ele><time>2026-05-03T13:28:07.754Z</time></trkpt><trkpt lat="44.1967" lon="10.6082667"><ele>824.0</ele><time>2026-05-03T13:28:08.753Z</time></trkpt><trkpt lat="44.1966117" lon="10.60815"><ele>824.0</ele><time>2026-05-03T13:28:09.754Z</time></trkpt><trkpt lat="44.1965333" lon="10.6080167"><ele>824.0</ele><time>2026-05-03T13:28:10.754Z</time></trkpt><trkpt lat="44.1964583" lon="10.60788"><ele>824.0</ele><time>2026-05-03T13:28:11.754Z</time></trkpt><trkpt lat="44.1963883" lon="10.6077283"><ele>824.0</ele><time>2026-05-03T13:28:12.754Z</time></trkpt><trkpt lat="44.1963233" lon="10.607575"><ele>830.75</ele><time>2026-05-03T13:28:13.754Z</time></trkpt><trkpt lat="44.19625" lon="10.6074233"><ele>837.5</ele><time>2026-05-03T13:28:14.753Z</time></trkpt><trkpt lat="44.1961717" lon="10.6072717"><ele>844.25</ele><time>2026-05-03T13:28:15.754Z</time></trkpt><trkpt lat="44.196095" lon="10.607135"><ele>851.0</ele><time>2026-05-03T13:28:16.754Z</time></trkpt><trkpt lat="44.1960133" lon="10.6070067"><ele>850.0</ele><time>2026-05-03T13:28:17.754Z</time></trkpt><trkpt lat="44.195935" lon="10.606885"><ele>849.0</ele><time>2026-05-03T13:28:18.754Z</time></trkpt><trkpt lat="44.1958667" lon="10.6067683"><ele>848.0</ele><time>2026-05-03T13:28:19.754Z</time></trkpt><trkpt lat="44.195785" lon="10.6066617"><ele>847.0</ele><time>2026-05-03T13:28:20.754Z</time></trkpt><trkpt lat="44.1957" lon="10.606585"><ele>846.0</ele><time>2026-05-03T13:28:21.753Z</time></trkpt><trkpt lat="44.1955967" lon="10.606535"><ele>846.0</ele><time>2026-05-03T13:28:22.754Z</time></trkpt><trkpt lat="44.195485" lon="10.6065117"><ele>846.0</ele><time>2026-05-03T13:28:23.753Z</time></trkpt><trkpt lat="44.1953717" lon="10.6065083"><ele>846.0</ele><time>2026-05-03T13:28:24.753Z</time></trkpt><trkpt lat="44.19526" lon="10.6065183"><ele>846.0</ele><time>2026-05-03T13:28:25.753Z</time></trkpt><trkpt lat="44.19515" lon="10.6065183"><ele>846.0</ele><time>2026-05-03T13:28:26.753Z</time></trkpt><trkpt lat="44.1950467" lon="10.606515"><ele>846.0</ele><time>2026-05-03T13:28:27.753Z</time></trkpt><trkpt lat="44.194945" lon="10.60652"><ele>846.0</ele><time>2026-05-03T13:28:28.753Z</time></trkpt><trkpt lat="44.194855" lon="10.6065167"><ele>846.0</ele><time>2026-05-03T13:28:29.754Z</time></trkpt><trkpt lat="44.1947667" lon="10.6065017"><ele>846.0</ele><time>2026-05-03T13:28:30.753Z</time></trkpt><trkpt lat="44.194685" lon="10.606465"><ele>846.0</ele><time>2026-05-03T13:28:31.754Z</time></trkpt><trkpt lat="44.1946183" lon="10.6063983"><ele>846.0</ele><time>2026-05-03T13:28:32.753Z</time></trkpt><trkpt lat="44.1945667" lon="10.6063133"><ele>850.4</ele><time>2026-05-03T13:28:33.754Z</time></trkpt><trkpt lat="44.1945233" lon="10.6062033"><ele>854.8</ele><time>2026-05-03T13:28:34.754Z</time></trkpt><trkpt lat="44.1945017" lon="10.606075"><ele>859.1999999999999</ele><time>2026-05-03T13:28:35.754Z</time></trkpt><trkpt lat="44.19452" lon="10.6059467"><ele>863.5999999999999</ele><time>2026-05-03T13:28:36.754Z</time></trkpt><trkpt lat="44.1945667" lon="10.6058167"><ele>868.0</ele><time>2026-05-03T13:28:37.754Z</time></trkpt><trkpt lat="44.1946167" lon="10.6056883"><ele>868.0</ele><time>2026-05-03T13:28:38.754Z</time></trkpt><trkpt lat="44.1946517" lon="10.605545"><ele>868.0</ele><time>2026-05-03T13:28:39.754Z</time></trkpt><trkpt lat="44.1946683" lon="10.6053867"><ele>868.0</ele><time>2026-05-03T13:28:40.754Z</time></trkpt><trkpt lat="44.19466" lon="10.6052333"><ele>868.0</ele><time>2026-05-03T13:28:41.753Z</time></trkpt><trkpt lat="44.1946417" lon="10.605095"><ele>868.0</ele><time>2026-05-03T13:28:42.754Z</time></trkpt><trkpt lat="44.1946233" lon="10.6049717"><ele>869.5999999999999</ele><time>2026-05-03T13:28:43.754Z</time></trkpt><trkpt lat="44.1946183" lon="10.60486"><ele>871.1999999999999</ele><time>2026-05-03T13:28:44.754Z</time></trkpt><trkpt lat="44.1946217" lon="10.6047667"><ele>872.8</ele><time>2026-05-03T13:28:45.753Z</time></trkpt><trkpt lat="44.1946317" lon="10.60459"><ele>874.4</ele><time>2026-05-03T13:28:47.753Z</time></trkpt><trkpt lat="44.19464" lon="10.604475"><ele>876.0</ele><time>2026-05-03T13:28:48.754Z</time></trkpt><trkpt lat="44.1946567" lon="10.6043283"><ele>876.5999999999999</ele><time>2026-05-03T13:28:49.754Z</time></trkpt><trkpt lat="44.194665" lon="10.6041783"><ele>877.1999999999999</ele><time>2026-05-03T13:28:50.754Z</time></trkpt><trkpt lat="44.1946467" lon="10.6040317"><ele>877.8000000000001</ele><time>2026-05-03T13:28:51.754Z</time></trkpt><trkpt lat="44.1945983" lon="10.6039"><ele>878.4000000000001</ele><time>2026-05-03T13:28:52.754Z</time></trkpt><trkpt lat="44.1945267" lon="10.603795"><ele>879.0</ele><time>2026-05-03T13:28:53.754Z</time></trkpt><trkpt lat="44.1944383" lon="10.6037017"><ele>878.6666666666666</ele><time>2026-05-03T13:28:54.754Z</time></trkpt><trkpt lat="44.1943667" lon="10.60361"><ele>878.3333333333333</ele><time>2026-05-03T13:28:55.754Z</time></trkpt><trkpt lat="44.1943317" lon="10.603505"><ele>878.0</ele><time>2026-05-03T13:28:56.753Z</time></trkpt><trkpt lat="44.1943267" lon="10.6033983"><ele>877.6666666666666</ele><time>2026-05-03T13:28:57.754Z</time></trkpt><trkpt lat="44.19435" lon="10.6032883"><ele>877.3333333333333</ele><time>2026-05-03T13:28:58.754Z</time></trkpt><trkpt lat="44.1944217" lon="10.6031833"><ele>877.0</ele><time>2026-05-03T13:28:59.754Z</time></trkpt><trkpt lat="44.1945083" lon="10.60307"><ele>876.9999999999999</ele><time>2026-05-03T13:29:00.754Z</time></trkpt><trkpt lat="44.194565" lon="10.6029633"><ele>877.0</ele><time>2026-05-03T13:29:01.754Z</time></trkpt><trkpt lat="44.1945917" lon="10.6028533"><ele>877.0</ele><time>2026-05-03T13:29:02.754Z</time></trkpt><trkpt lat="44.1945933" lon="10.6027383"><ele>877.0</ele><time>2026-05-03T13:29:03.753Z</time></trkpt><trkpt lat="44.194565" lon="10.6026217"><ele>876.9999999999999</ele><time>2026-05-03T13:29:04.754Z</time></trkpt><trkpt lat="44.1945383" lon="10.6025017"><ele>877.0</ele><time>2026-05-03T13:29:05.754Z</time></trkpt><trkpt lat="44.1945333" lon="10.6023733"><ele>879.4000000000001</ele><time>2026-05-03T13:29:06.754Z</time></trkpt><trkpt lat="44.19455" lon="10.602245"><ele>881.8000000000001</ele><time>2026-05-03T13:29:07.754Z</time></trkpt><trkpt lat="44.19459" lon="10.6021217"><ele>884.2</ele><time>2026-05-03T13:29:08.754Z</time></trkpt><trkpt lat="44.19464" lon="10.6019967"><ele>886.6</ele><time>2026-05-03T13:29:09.754Z</time></trkpt><trkpt lat="44.19469" lon="10.6018733"><ele>889.0</ele><time>2026-05-03T13:29:10.754Z</time></trkpt><trkpt lat="44.19473" lon="10.6017533"><ele>888.6</ele><time>2026-05-03T13:29:11.754Z</time></trkpt><trkpt lat="44.1947617" lon="10.6016267"><ele>888.2</ele><time>2026-05-03T13:29:12.754Z</time></trkpt><trkpt lat="44.1947717" lon="10.60149"><ele>887.8000000000001</ele><time>2026-05-03T13:29:13.754Z</time></trkpt><trkpt lat="44.19478" lon="10.6013583"><ele>887.4000000000001</ele><time>2026-05-03T13:29:14.753Z</time></trkpt><trkpt lat="44.194805" lon="10.6012383"><ele>887.0</ele><time>2026-05-03T13:29:15.754Z</time></trkpt><trkpt lat="44.194865" lon="10.6011417"><ele>887.0</ele><time>2026-05-03T13:29:16.754Z</time></trkpt><trkpt lat="44.19494" lon="10.6010833"><ele>887.0</ele><time>2026-05-03T13:29:17.754Z</time></trkpt><trkpt lat="44.1950167" lon="10.601055"><ele>887.0</ele><time>2026-05-03T13:29:18.753Z</time></trkpt><trkpt lat="44.19511" lon="10.601035"><ele>887.0</ele><time>2026-05-03T13:29:19.753Z</time></trkpt><trkpt lat="44.1952117" lon="10.6010067"><ele>887.0</ele><time>2026-05-03T13:29:20.754Z</time></trkpt><trkpt lat="44.195315" lon="10.6009683"><ele>887.0</ele><time>2026-05-03T13:29:21.754Z</time></trkpt><trkpt lat="44.1954083" lon="10.6009017"><ele>887.0</ele><time>2026-05-03T13:29:22.753Z</time></trkpt><trkpt lat="44.1954867" lon="10.600805"><ele>887.0</ele><time>2026-05-03T13:29:23.754Z</time></trkpt><trkpt lat="44.1955483" lon="10.600685"><ele>887.0</ele><time>2026-05-03T13:29:24.754Z</time></trkpt><trkpt lat="44.1955833" lon="10.6005467"><ele>887.0</ele><time>2026-05-03T13:29:25.754Z</time></trkpt><trkpt lat="44.19558" lon="10.6003933"><ele>889.2</ele><time>2026-05-03T13:29:26.753Z</time></trkpt><trkpt lat="44.1955433" lon="10.6002517"><ele>891.4000000000001</ele><time>2026-05-03T13:29:27.754Z</time></trkpt><trkpt lat="44.1955017" lon="10.6001117"><ele>893.5999999999999</ele><time>2026-05-03T13:29:28.754Z</time></trkpt><trkpt lat="44.1954583" lon="10.599975"><ele>895.8</ele><time>2026-05-03T13:29:29.753Z</time></trkpt><trkpt lat="44.19541" lon="10.5998383"><ele>898.0</ele><time>2026-05-03T13:29:30.753Z</time></trkpt><trkpt lat="44.1953617" lon="10.599705"><ele>898.0</ele><time>2026-05-03T13:29:31.754Z</time></trkpt><trkpt lat="44.1952917" lon="10.59957"><ele>898.0</ele><time>2026-05-03T13:29:32.754Z</time></trkpt><trkpt lat="44.1952183" lon="10.5994367"><ele>898.0</ele><time>2026-05-03T13:29:33.754Z</time></trkpt><trkpt lat="44.195135" lon="10.59931"><ele>898.0</ele><time>2026-05-03T13:29:34.754Z</time></trkpt><trkpt lat="44.1950483" lon="10.5991933"><ele>896.0</ele><time>2026-05-03T13:29:35.754Z</time></trkpt><trkpt lat="44.19496" lon="10.59908"><ele>894.0</ele><time>2026-05-03T13:29:36.754Z</time></trkpt><trkpt lat="44.19487" lon="10.598975"><ele>892.0</ele><time>2026-05-03T13:29:37.754Z</time></trkpt><trkpt lat="44.1947867" lon="10.5988633"><ele>890.0</ele><time>2026-05-03T13:29:38.754Z</time></trkpt><trkpt lat="44.194695" lon="10.5987483"><ele>897.0</ele><time>2026-05-03T13:29:39.754Z</time></trkpt><trkpt lat="44.1946" lon="10.5986283"><ele>904.0</ele><time>2026-05-03T13:29:40.753Z</time></trkpt><trkpt lat="44.1945033" lon="10.5984983"><ele>911.0</ele><time>2026-05-03T13:29:41.754Z</time></trkpt><trkpt lat="44.1944167" lon="10.598355"><ele>918.0</ele><time>2026-05-03T13:29:42.754Z</time></trkpt><trkpt lat="44.1943333" lon="10.5982017"><ele>918.0</ele><time>2026-05-03T13:29:43.753Z</time></trkpt><trkpt lat="44.1942683" lon="10.5980483"><ele>918.0</ele><time>2026-05-03T13:29:44.754Z</time></trkpt><trkpt lat="44.194225" lon="10.5978917"><ele>918.0</ele><time>2026-05-03T13:29:45.754Z</time></trkpt><trkpt lat="44.1941967" lon="10.59773"><ele>918.0</ele><time>2026-05-03T13:29:46.754Z</time></trkpt><trkpt lat="44.1941867" lon="10.59757"><ele>916.5</ele><time>2026-05-03T13:29:47.754Z</time></trkpt><trkpt lat="44.1941967" lon="10.5974"><ele>915.0</ele><time>2026-05-03T13:29:48.754Z</time></trkpt><trkpt lat="44.1942183" lon="10.5972367"><ele>913.5</ele><time>2026-05-03T13:29:49.754Z</time></trkpt><trkpt lat="44.19425" lon="10.5970667"><ele>912.0</ele><time>2026-05-03T13:29:50.754Z</time></trkpt><trkpt lat="44.1943017" lon="10.5969083"><ele>912.0</ele><time>2026-05-03T13:29:51.754Z</time></trkpt><trkpt lat="44.19435" lon="10.59674"><ele>912.0</ele><time>2026-05-03T13:29:52.754Z</time></trkpt><trkpt lat="44.1943683" lon="10.5965683"><ele>912.0</ele><time>2026-05-03T13:29:53.754Z</time></trkpt><trkpt lat="44.1943717" lon="10.5963933"><ele>912.0</ele><time>2026-05-03T13:29:54.753Z</time></trkpt><trkpt lat="44.194365" lon="10.5962117"><ele>912.5</ele><time>2026-05-03T13:29:55.754Z</time></trkpt><trkpt lat="44.1943583" lon="10.5960283"><ele>913.0</ele><time>2026-05-03T13:29:56.753Z</time></trkpt><trkpt lat="44.1943567" lon="10.5958567"><ele>913.5</ele><time>2026-05-03T13:29:57.753Z</time></trkpt><trkpt lat="44.1943617" lon="10.5956867"><ele>914.0</ele><time>2026-05-03T13:29:58.754Z</time></trkpt><trkpt lat="44.1943567" lon="10.5955183"><ele>914.5</ele><time>2026-05-03T13:29:59.754Z</time></trkpt><trkpt lat="44.1943583" lon="10.595335"><ele>915.0</ele><time>2026-05-03T13:30:00.754Z</time></trkpt><trkpt lat="44.1943633" lon="10.5951583"><ele>915.5</ele><time>2026-05-03T13:30:01.754Z</time></trkpt><trkpt lat="44.1943617" lon="10.5949767"><ele>916.0</ele><time>2026-05-03T13:30:02.754Z</time></trkpt><trkpt lat="44.194355" lon="10.5947967"><ele>916.0</ele><time>2026-05-03T13:30:03.753Z</time></trkpt><trkpt lat="44.1943317" lon="10.5946217"><ele>916.0</ele><time>2026-05-03T13:30:04.754Z</time></trkpt><trkpt lat="44.1942867" lon="10.59446"><ele>916.0</ele><time>2026-05-03T13:30:05.754Z</time></trkpt><trkpt lat="44.1942117" lon="10.59432"><ele>916.0</ele><time>2026-05-03T13:30:06.754Z</time></trkpt><trkpt lat="44.1941183" lon="10.5941867"><ele>913.75</ele><time>2026-05-03T13:30:07.754Z</time></trkpt><trkpt lat="44.1940217" lon="10.5940617"><ele>911.5</ele><time>2026-05-03T13:30:08.754Z</time></trkpt><trkpt lat="44.193925" lon="10.593945"><ele>909.25</ele><time>2026-05-03T13:30:09.754Z</time></trkpt><trkpt lat="44.1938283" lon="10.5938317"><ele>907.0</ele><time>2026-05-03T13:30:10.754Z</time></trkpt><trkpt lat="44.1937367" lon="10.59372"><ele>914.0</ele><time>2026-05-03T13:30:11.754Z</time></trkpt><trkpt lat="44.193655" lon="10.5935917"><ele>921.0</ele><time>2026-05-03T13:30:12.754Z</time></trkpt><trkpt lat="44.1935983" lon="10.5934417"><ele>928.0</ele><time>2026-05-03T13:30:13.753Z</time></trkpt><trkpt lat="44.1935817" lon="10.5932817"><ele>935.0</ele><time>2026-05-03T13:30:14.754Z</time></trkpt><trkpt lat="44.1935883" lon="10.5931167"><ele>935.0</ele><time>2026-05-03T13:30:15.754Z</time></trkpt><trkpt lat="44.1936" lon="10.5929433"><ele>935.0</ele><time>2026-05-03T13:30:16.754Z</time></trkpt><trkpt lat="44.193605" lon="10.592775"><ele>935.0</ele><time>2026-05-03T13:30:17.753Z</time></trkpt><trkpt lat="44.1935967" lon="10.5926"><ele>935.0</ele><time>2026-05-03T13:30:18.754Z</time></trkpt><trkpt lat="44.193575" lon="10.592425"><ele>934.25</ele><time>2026-05-03T13:30:19.753Z</time></trkpt><trkpt lat="44.1935483" lon="10.5922617"><ele>933.5</ele><time>2026-05-03T13:30:20.754Z</time></trkpt><trkpt lat="44.1935233" lon="10.5921017"><ele>932.75</ele><time>2026-05-03T13:30:21.754Z</time></trkpt><trkpt lat="44.1935083" lon="10.5919367"><ele>932.0</ele><time>2026-05-03T13:30:22.754Z</time></trkpt><trkpt lat="44.1935133" lon="10.5917867"><ele>931.2</ele><time>2026-05-03T13:30:23.754Z</time></trkpt><trkpt lat="44.1935233" lon="10.5916283"><ele>930.4000000000001</ele><time>2026-05-03T13:30:24.753Z</time></trkpt><trkpt lat="44.193515" lon="10.59148"><ele>929.5999999999999</ele><time>2026-05-03T13:30:25.753Z</time></trkpt><trkpt lat="44.1934933" lon="10.5913333"><ele>928.8</ele><time>2026-05-03T13:30:26.754Z</time></trkpt><trkpt lat="44.1934467" lon="10.5911917"><ele>928.0</ele><time>2026-05-03T13:30:27.754Z</time></trkpt><trkpt lat="44.1933783" lon="10.591065"><ele>931.5</ele><time>2026-05-03T13:30:28.753Z</time></trkpt><trkpt lat="44.1932867" lon="10.5909617"><ele>935.0</ele><time>2026-05-03T13:30:29.754Z</time></trkpt><trkpt lat="44.1931733" lon="10.5908817"><ele>938.5</ele><time>2026-05-03T13:30:30.754Z</time></trkpt><trkpt lat="44.19305" lon="10.5908233"><ele>942.0</ele><time>2026-05-03T13:30:31.752Z</time></trkpt><trkpt lat="44.192915" lon="10.5907667"><ele>942.0</ele><time>2026-05-03T13:30:32.753Z</time></trkpt><trkpt lat="44.1927867" lon="10.590705"><ele>942.0</ele><time>2026-05-03T13:30:33.753Z</time></trkpt><trkpt lat="44.192665" lon="10.5906467"><ele>942.0</ele><time>2026-05-03T13:30:34.753Z</time></trkpt><trkpt lat="44.1925583" lon="10.5905767"><ele>942.0</ele><time>2026-05-03T13:30:35.753Z</time></trkpt><trkpt lat="44.1924583" lon="10.5905033"><ele>942.0</ele><time>2026-05-03T13:30:36.753Z</time></trkpt><trkpt lat="44.192355" lon="10.5904383"><ele>942.0</ele><time>2026-05-03T13:30:37.753Z</time></trkpt><trkpt lat="44.1922467" lon="10.59038"><ele>942.0</ele><time>2026-05-03T13:30:38.753Z</time></trkpt><trkpt lat="44.1921367" lon="10.5903283"><ele>942.0</ele><time>2026-05-03T13:30:39.753Z</time></trkpt><trkpt lat="44.19206" lon="10.5902767"><ele>942.0</ele><time>2026-05-03T13:30:40.753Z</time></trkpt><trkpt lat="44.1919817" lon="10.590205"><ele>944.2</ele><time>2026-05-03T13:30:41.753Z</time></trkpt><trkpt lat="44.19197" lon="10.5900567"><ele>946.4000000000001</ele><time>2026-05-03T13:30:42.753Z</time></trkpt><trkpt lat="44.191965" lon="10.5898917"><ele>948.5999999999999</ele><time>2026-05-03T13:30:43.753Z</time></trkpt><trkpt lat="44.19197" lon="10.5897267"><ele>950.8</ele><time>2026-05-03T13:30:44.753Z</time></trkpt><trkpt lat="44.1919633" lon="10.5895867"><ele>953.0</ele><time>2026-05-03T13:30:45.752Z</time></trkpt><trkpt lat="44.1919483" lon="10.58947"><ele>953.0</ele><time>2026-05-03T13:30:46.753Z</time></trkpt><trkpt lat="44.1919183" lon="10.5893483"><ele>953.0</ele><time>2026-05-03T13:30:47.753Z</time></trkpt><trkpt lat="44.1918933" lon="10.5892283"><ele>953.0</ele><time>2026-05-03T13:30:48.752Z</time></trkpt><trkpt lat="44.191875" lon="10.5890883"><ele>953.0</ele><time>2026-05-03T13:30:49.753Z</time></trkpt><trkpt lat="44.191865" lon="10.58895"><ele>953.0</ele><time>2026-05-03T13:30:50.753Z</time></trkpt><trkpt lat="44.1918667" lon="10.5887983"><ele>950.0</ele><time>2026-05-03T13:30:51.753Z</time></trkpt><trkpt lat="44.191845" lon="10.5886533"><ele>947.0</ele><time>2026-05-03T13:30:52.753Z</time></trkpt><trkpt lat="44.1917983" lon="10.5885217"><ele>944.0</ele><time>2026-05-03T13:30:53.753Z</time></trkpt><trkpt lat="44.19173" lon="10.5884017"><ele>941.0</ele><time>2026-05-03T13:30:54.753Z</time></trkpt><trkpt lat="44.1916417" lon="10.5883083"><ele>938.0</ele><time>2026-05-03T13:30:55.753Z</time></trkpt><trkpt lat="44.1915517" lon="10.58822"><ele>945.4</ele><time>2026-05-03T13:30:56.753Z</time></trkpt><trkpt lat="44.191455" lon="10.58813"><ele>952.8</ele><time>2026-05-03T13:30:57.753Z</time></trkpt><trkpt lat="44.191365" lon="10.58805"><ele>960.2</ele><time>2026-05-03T13:30:58.753Z</time></trkpt><trkpt lat="44.1912767" lon="10.58797"><ele>967.6</ele><time>2026-05-03T13:30:59.752Z</time></trkpt><trkpt lat="44.1912017" lon="10.5878883"><ele>975.0</ele><time>2026-05-03T13:31:00.753Z</time></trkpt><trkpt lat="44.191135" lon="10.587795"><ele>975.0</ele><time>2026-05-03T13:31:01.753Z</time></trkpt><trkpt lat="44.1911033" lon="10.587685"><ele>975.0</ele><time>2026-05-03T13:31:02.753Z</time></trkpt><trkpt lat="44.1910883" lon="10.5875483"><ele>975.0</ele><time>2026-05-03T13:31:03.753Z</time></trkpt><trkpt lat="44.1911033" lon="10.587415"><ele>975.0</ele><time>2026-05-03T13:31:04.753Z</time></trkpt><trkpt lat="44.19115" lon="10.5872867"><ele>975.0</ele><time>2026-05-03T13:31:05.752Z</time></trkpt><trkpt lat="44.1912167" lon="10.5871783"><ele>975.0</ele><time>2026-05-03T13:31:06.753Z</time></trkpt><trkpt lat="44.1913283" lon="10.5870933"><ele>975.0</ele><time>2026-05-03T13:31:07.753Z</time></trkpt><trkpt lat="44.1914583" lon="10.5870433"><ele>975.0</ele><time>2026-05-03T13:31:08.753Z</time></trkpt><trkpt lat="44.19157" lon="10.5869717"><ele>975.0</ele><time>2026-05-03T13:31:09.753Z</time></trkpt><trkpt lat="44.19166" lon="10.5868783"><ele>970.0</ele><time>2026-05-03T13:31:10.753Z</time></trkpt><trkpt lat="44.1917267" lon="10.58676"><ele>965.0</ele><time>2026-05-03T13:31:11.753Z</time></trkpt><trkpt lat="44.191775" lon="10.5866167"><ele>960.0</ele><time>2026-05-03T13:31:12.752Z</time></trkpt><trkpt lat="44.1917917" lon="10.5864533"><ele>955.0</ele><time>2026-05-03T13:31:13.753Z</time></trkpt><trkpt lat="44.1917967" lon="10.58628"><ele>956.5</ele><time>2026-05-03T13:31:14.753Z</time></trkpt><trkpt lat="44.1917883" lon="10.5861117"><ele>958.0</ele><time>2026-05-03T13:31:15.753Z</time></trkpt><trkpt lat="44.1917717" lon="10.585945"><ele>959.5</ele><time>2026-05-03T13:31:16.753Z</time></trkpt><trkpt lat="44.1917517" lon="10.58577"><ele>961.0</ele><time>2026-05-03T13:31:17.752Z</time></trkpt><trkpt lat="44.1917267" lon="10.5855967"><ele>961.0</ele><time>2026-05-03T13:31:18.753Z</time></trkpt><trkpt lat="44.1916983" lon="10.5854367"><ele>961.0</ele><time>2026-05-03T13:31:19.752Z</time></trkpt><trkpt lat="44.191665" lon="10.5852717"><ele>961.0</ele><time>2026-05-03T13:31:20.753Z</time></trkpt><trkpt lat="44.191615" lon="10.58511"><ele>961.0</ele><time>2026-05-03T13:31:21.753Z</time></trkpt><trkpt lat="44.191555" lon="10.5849633"><ele>963.25</ele><time>2026-05-03T13:31:22.753Z</time></trkpt><trkpt lat="44.19148" lon="10.5848267"><ele>965.5</ele><time>2026-05-03T13:31:23.753Z</time></trkpt><trkpt lat="44.1914117" lon="10.5847033"><ele>967.75</ele><time>2026-05-03T13:31:24.752Z</time></trkpt><trkpt lat="44.19134" lon="10.584565"><ele>970.0</ele><time>2026-05-03T13:31:25.753Z</time></trkpt><trkpt lat="44.1912717" lon="10.5844367"><ele>970.0</ele><time>2026-05-03T13:31:26.753Z</time></trkpt><trkpt lat="44.1912033" lon="10.5843133"><ele>970.0</ele><time>2026-05-03T13:31:27.752Z</time></trkpt><trkpt lat="44.1911117" lon="10.5841917"><ele>970.0</ele><time>2026-05-03T13:31:28.753Z</time></trkpt><trkpt lat="44.191025" lon="10.5841117"><ele>970.0</ele><time>2026-05-03T13:31:29.753Z</time></trkpt><trkpt lat="44.19091" lon="10.584035"><ele>970.0</ele><time>2026-05-03T13:31:30.753Z</time></trkpt><trkpt lat="44.1907967" lon="10.5839733"><ele>970.0</ele><time>2026-05-03T13:31:31.753Z</time></trkpt><trkpt lat="44.19068" lon="10.58393"><ele>970.0</ele><time>2026-05-03T13:31:32.753Z</time></trkpt><trkpt lat="44.1905667" lon="10.5839117"><ele>970.0</ele><time>2026-05-03T13:31:33.753Z</time></trkpt><trkpt lat="44.1904567" lon="10.5838883"><ele>970.6</ele><time>2026-05-03T13:31:34.753Z</time></trkpt><trkpt lat="44.1903517" lon="10.5838617"><ele>971.2</ele><time>2026-05-03T13:31:35.752Z</time></trkpt><trkpt lat="44.1902567" lon="10.5838183"><ele>971.8</ele><time>2026-05-03T13:31:36.753Z</time></trkpt><trkpt lat="44.190175" lon="10.5837683"><ele>972.4</ele><time>2026-05-03T13:31:37.753Z</time></trkpt><trkpt lat="44.1901" lon="10.5837117"><ele>973.0</ele><time>2026-05-03T13:31:38.753Z</time></trkpt><trkpt lat="44.1900417" lon="10.583615"><ele>973.0</ele><time>2026-05-03T13:31:39.752Z</time></trkpt><trkpt lat="44.1900033" lon="10.5835"><ele>973.0</ele><time>2026-05-03T13:31:40.753Z</time></trkpt><trkpt lat="44.18998" lon="10.58339"><ele>973.0</ele><time>2026-05-03T13:31:41.753Z</time></trkpt><trkpt lat="44.18995" lon="10.5832467"><ele>973.0</ele><time>2026-05-03T13:31:43.753Z</time></trkpt><trkpt lat="44.1898833" lon="10.5831317"><ele>973.0</ele><time>2026-05-03T13:31:45.753Z</time></trkpt><trkpt lat="44.189765" lon="10.5830567"><ele>972.25</ele><time>2026-05-03T13:31:47.752Z</time></trkpt><trkpt lat="44.18967" lon="10.5830383"><ele>971.5</ele><time>2026-05-03T13:31:48.753Z</time></trkpt><trkpt lat="44.1895433" lon="10.5830017"><ele>970.75</ele><time>2026-05-03T13:31:49.753Z</time></trkpt><trkpt lat="44.1893667" lon="10.5829367"><ele>970.0</ele><time>2026-05-03T13:31:50.753Z</time></trkpt><trkpt lat="44.1891917" lon="10.582825"><ele>970.0</ele><time>2026-05-03T13:31:51.752Z</time></trkpt><trkpt lat="44.1890233" lon="10.5826933"><ele>970.0</ele><time>2026-05-03T13:31:52.753Z</time></trkpt><trkpt lat="44.18887" lon="10.5825667"><ele>970.0</ele><time>2026-05-03T13:31:53.753Z</time></trkpt><trkpt lat="44.18873" lon="10.5824333"><ele>979.6666666666666</ele><time>2026-05-03T13:31:54.753Z</time></trkpt><trkpt lat="44.1885917" lon="10.5823167"><ele>989.3333333333333</ele><time>2026-05-03T13:31:55.753Z</time></trkpt><trkpt lat="44.18845" lon="10.5821967"><ele>999.0</ele><time>2026-05-03T13:31:56.752Z</time></trkpt><trkpt lat="44.1883267" lon="10.582065"><ele>1000.3333333333333</ele><time>2026-05-03T13:31:57.753Z</time></trkpt><trkpt lat="44.18821" lon="10.5819167"><ele>1001.6666666666666</ele><time>2026-05-03T13:31:58.753Z</time></trkpt><trkpt lat="44.1881" lon="10.581765"><ele>1003.0</ele><time>2026-05-03T13:31:59.753Z</time></trkpt><trkpt lat="44.1879983" lon="10.5816117"><ele>1003.0</ele><time>2026-05-03T13:32:00.753Z</time></trkpt><trkpt lat="44.187895" lon="10.5814883"><ele>1003.0</ele><time>2026-05-03T13:32:01.753Z</time></trkpt><trkpt lat="44.1877817" lon="10.5814017"><ele>1003.0</ele><time>2026-05-03T13:32:02.753Z</time></trkpt><trkpt lat="44.187655" lon="10.58136"><ele>1003.0</ele><time>2026-05-03T13:32:03.753Z</time></trkpt><trkpt lat="44.1875167" lon="10.5813367"><ele>1003.0</ele><time>2026-05-03T13:32:04.752Z</time></trkpt><trkpt lat="44.187385" lon="10.58131"><ele>1003.0</ele><time>2026-05-03T13:32:05.753Z</time></trkpt><trkpt lat="44.1872767" lon="10.5812783"><ele>1003.0</ele><time>2026-05-03T13:32:06.753Z</time></trkpt><trkpt lat="44.1872" lon="10.5812083"><ele>1003.0</ele><time>2026-05-03T13:32:07.753Z</time></trkpt><trkpt lat="44.187145" lon="10.5811083"><ele>1003.0</ele><time>2026-05-03T13:32:08.753Z</time></trkpt><trkpt lat="44.1871217" lon="10.580965"><ele>1004.5</ele><time>2026-05-03T13:32:09.753Z</time></trkpt><trkpt lat="44.18713" lon="10.5808"><ele>1006.0</ele><time>2026-05-03T13:32:10.752Z</time></trkpt><trkpt lat="44.1871567" lon="10.5806117"><ele>1007.5</ele><time>2026-05-03T13:32:11.753Z</time></trkpt><trkpt lat="44.1871767" lon="10.5804233"><ele>1009.0</ele><time>2026-05-03T13:32:12.753Z</time></trkpt><trkpt lat="44.1871883" lon="10.5802317"><ele>1009.0</ele><time>2026-05-03T13:32:13.753Z</time></trkpt><trkpt lat="44.187185" lon="10.580045"><ele>1009.0</ele><time>2026-05-03T13:32:14.752Z</time></trkpt><trkpt lat="44.1871583" lon="10.5798533"><ele>1009.0</ele><time>2026-05-03T13:32:15.752Z</time></trkpt><trkpt lat="44.187135" lon="10.5796467"><ele>1009.0</ele><time>2026-05-03T13:32:16.753Z</time></trkpt><trkpt lat="44.1871167" lon="10.5794283"><ele>1007.6666666666666</ele><time>2026-05-03T13:32:17.753Z</time></trkpt><trkpt lat="44.18711" lon="10.57919"><ele>1006.3333333333333</ele><time>2026-05-03T13:32:18.753Z</time></trkpt><trkpt lat="44.1871" lon="10.57893"><ele>1005.0</ele><time>2026-05-03T13:32:19.753Z</time></trkpt><trkpt lat="44.1870817" lon="10.5786667"><ele>1004.3333333333333</ele><time>2026-05-03T13:32:20.753Z</time></trkpt><trkpt lat="44.1870517" lon="10.5784017"><ele>1003.6666666666666</ele><time>2026-05-03T13:32:21.753Z</time></trkpt><trkpt lat="44.1870383" lon="10.5781667"><ele>1003.0</ele><time>2026-05-03T13:32:22.753Z</time></trkpt><trkpt lat="44.1870467" lon="10.577955"><ele>1008.6666666666666</ele><time>2026-05-03T13:32:23.753Z</time></trkpt><trkpt lat="44.1870967" lon="10.5777733"><ele>1014.3333333333333</ele><time>2026-05-03T13:32:24.753Z</time></trkpt><trkpt lat="44.1871817" lon="10.577595"><ele>1020.0</ele><time>2026-05-03T13:32:25.753Z</time></trkpt><trkpt lat="44.1873017" lon="10.5774267"><ele>1013.0</ele><time>2026-05-03T13:32:26.753Z</time></trkpt><trkpt lat="44.1874383" lon="10.577285"><ele>1006.0</ele><time>2026-05-03T13:32:27.752Z</time></trkpt><trkpt lat="44.187585" lon="10.577185"><ele>999.0</ele><time>2026-05-03T13:32:28.752Z</time></trkpt><trkpt lat="44.1877383" lon="10.5771067"><ele>999.0</ele><time>2026-05-03T13:32:29.753Z</time></trkpt><trkpt lat="44.1879233" lon="10.5770667"><ele>999.0</ele><time>2026-05-03T13:32:30.753Z</time></trkpt><trkpt lat="44.1881267" lon="10.5770033"><ele>999.0</ele><time>2026-05-03T13:32:31.753Z</time></trkpt><trkpt lat="44.18827" lon="10.5769617"><ele>998.75</ele><time>2026-05-03T13:32:32.753Z</time></trkpt><trkpt lat="44.1883967" lon="10.57688"><ele>998.5</ele><time>2026-05-03T13:32:33.753Z</time></trkpt><trkpt lat="44.1884933" lon="10.5767633"><ele>998.25</ele><time>2026-05-03T13:32:34.752Z</time></trkpt><trkpt lat="44.18856" lon="10.5766233"><ele>998.0</ele><time>2026-05-03T13:32:35.753Z</time></trkpt><trkpt lat="44.1885783" lon="10.57646"><ele>998.0</ele><time>2026-05-03T13:32:36.753Z</time></trkpt><trkpt lat="44.1885333" lon="10.576265"><ele>998.0</ele><time>2026-05-03T13:32:37.753Z</time></trkpt><trkpt lat="44.1884383" lon="10.5760433"><ele>998.0</ele><time>2026-05-03T13:32:38.753Z</time></trkpt><trkpt lat="44.18834" lon="10.575835"><ele>997.3333333333334</ele><time>2026-05-03T13:32:39.753Z</time></trkpt><trkpt lat="44.1882517" lon="10.575625"><ele>996.6666666666667</ele><time>2026-05-03T13:32:40.753Z</time></trkpt><trkpt lat="44.1882017" lon="10.5754"><ele>996.0</ele><time>2026-05-03T13:32:41.753Z</time></trkpt><trkpt lat="44.18819" lon="10.57516"><ele>995.0</ele><time>2026-05-03T13:32:42.753Z</time></trkpt><trkpt lat="44.1882" lon="10.5749183"><ele>994.0</ele><time>2026-05-03T13:32:43.753Z</time></trkpt><trkpt lat="44.1882133" lon="10.57467"><ele>993.0</ele><time>2026-05-03T13:32:44.752Z</time></trkpt><trkpt lat="44.188205" lon="10.574425"><ele>993.0</ele><time>2026-05-03T13:32:45.753Z</time></trkpt><trkpt lat="44.188185" lon="10.5741917"><ele>993.0</ele><time>2026-05-03T13:32:46.753Z</time></trkpt><trkpt lat="44.1881533" lon="10.57397"><ele>993.0</ele><time>2026-05-03T13:32:47.753Z</time></trkpt><trkpt lat="44.1881283" lon="10.5737633"><ele>997.75</ele><time>2026-05-03T13:32:48.752Z</time></trkpt><trkpt lat="44.1881067" lon="10.5735683"><ele>1002.5</ele><time>2026-05-03T13:32:49.753Z</time></trkpt><trkpt lat="44.1880833" lon="10.5733817"><ele>1007.25</ele><time>2026-05-03T13:32:50.753Z</time></trkpt><trkpt lat="44.1880867" lon="10.5732117"><ele>1012.0</ele><time>2026-05-03T13:32:51.753Z</time></trkpt><trkpt lat="44.1881417" lon="10.5730617"><ele>1007.5</ele><time>2026-05-03T13:32:52.753Z</time></trkpt><trkpt lat="44.188205" lon="10.5729217"><ele>1003.0</ele><time>2026-05-03T13:32:53.753Z</time></trkpt><trkpt lat="44.1882733" lon="10.5727733"><ele>998.5</ele><time>2026-05-03T13:32:54.753Z</time></trkpt><trkpt lat="44.1883033" lon="10.572625"><ele>994.0</ele><time>2026-05-03T13:32:55.753Z</time></trkpt><trkpt lat="44.1883017" lon="10.57247"><ele>994.0</ele><time>2026-05-03T13:32:56.753Z</time></trkpt><trkpt lat="44.1882783" lon="10.572325"><ele>994.0</ele><time>2026-05-03T13:32:57.753Z</time></trkpt><trkpt lat="44.1882467" lon="10.5721667"><ele>994.0</ele><time>2026-05-03T13:32:58.753Z</time></trkpt><trkpt lat="44.1882367" lon="10.5720083"><ele>994.0</ele><time>2026-05-03T13:32:59.753Z</time></trkpt><trkpt lat="44.188265" lon="10.571855"><ele>995.0</ele><time>2026-05-03T13:33:00.753Z</time></trkpt><trkpt lat="44.1883217" lon="10.57172"><ele>996.0</ele><time>2026-05-03T13:33:01.753Z</time></trkpt><trkpt lat="44.1883983" lon="10.5715983"><ele>997.0</ele><time>2026-05-03T13:33:02.752Z</time></trkpt><trkpt lat="44.1884817" lon="10.5714817"><ele>998.0</ele><time>2026-05-03T13:33:03.753Z</time></trkpt><trkpt lat="44.1885717" lon="10.5713367"><ele>1004.6666666666667</ele><time>2026-05-03T13:33:04.753Z</time></trkpt><trkpt lat="44.1886533" lon="10.5711383"><ele>1011.3333333333333</ele><time>2026-05-03T13:33:05.753Z</time></trkpt><trkpt lat="44.1887367" lon="10.5709183"><ele>1018.0</ele><time>2026-05-03T13:33:06.753Z</time></trkpt><trkpt lat="44.18881" lon="10.5706967"><ele>1018.0</ele><time>2026-05-03T13:33:07.752Z</time></trkpt><trkpt lat="44.1888817" lon="10.57049"><ele>1018.0</ele><time>2026-05-03T13:33:08.753Z</time></trkpt><trkpt lat="44.1889567" lon="10.5703283"><ele>1018.0</ele><time>2026-05-03T13:33:09.753Z</time></trkpt><trkpt lat="44.189015" lon="10.57017"><ele>1018.0</ele><time>2026-05-03T13:33:10.753Z</time></trkpt><trkpt lat="44.189035" lon="10.5699967"><ele>1019.0</ele><time>2026-05-03T13:33:11.752Z</time></trkpt><trkpt lat="44.1890367" lon="10.56981"><ele>1020.0</ele><time>2026-05-03T13:33:12.753Z</time></trkpt><trkpt lat="44.1890033" lon="10.5695933"><ele>1021.0</ele><time>2026-05-03T13:33:13.752Z</time></trkpt><trkpt lat="44.1889367" lon="10.5693467"><ele>1021.0</ele><time>2026-05-03T13:33:14.753Z</time></trkpt><trkpt lat="44.1888667" lon="10.5691117"><ele>1021.0</ele><time>2026-05-03T13:33:15.752Z</time></trkpt><trkpt lat="44.1887867" lon="10.568855"><ele>1021.0</ele><time>2026-05-03T13:33:16.752Z</time></trkpt><trkpt lat="44.1887117" lon="10.56861"><ele>1016.0</ele><time>2026-05-03T13:33:17.752Z</time></trkpt><trkpt lat="44.188645" lon="10.5683633"><ele>1011.0</ele><time>2026-05-03T13:33:18.752Z</time></trkpt><trkpt lat="44.1885833" lon="10.5681217"><ele>1006.0</ele><time>2026-05-03T13:33:19.753Z</time></trkpt><trkpt lat="44.1885167" lon="10.5679017"><ele>1010.0</ele><time>2026-05-03T13:33:20.753Z</time></trkpt><trkpt lat="44.18842" lon="10.5677133"><ele>1014.0</ele><time>2026-05-03T13:33:21.753Z</time></trkpt><trkpt lat="44.188305" lon="10.5675367"><ele>1018.0</ele><time>2026-05-03T13:33:22.753Z</time></trkpt><trkpt lat="44.1881733" lon="10.5673683"><ele>1018.0</ele><time>2026-05-03T13:33:23.753Z</time></trkpt><trkpt lat="44.1880417" lon="10.56722"><ele>1018.0</ele><time>2026-05-03T13:33:24.753Z</time></trkpt><trkpt lat="44.1879017" lon="10.5670817"><ele>1018.0</ele><time>2026-05-03T13:33:25.753Z</time></trkpt><trkpt lat="44.1877617" lon="10.566955"><ele>1012.25</ele><time>2026-05-03T13:33:26.753Z</time></trkpt><trkpt lat="44.1876367" lon="10.5668233"><ele>1006.5</ele><time>2026-05-03T13:33:27.753Z</time></trkpt><trkpt lat="44.1875417" lon="10.566685"><ele>1000.75</ele><time>2026-05-03T13:33:28.753Z</time></trkpt><trkpt lat="44.1874767" lon="10.5665133"><ele>995.0</ele><time>2026-05-03T13:33:29.753Z</time></trkpt><trkpt lat="44.187435" lon="10.5663367"><ele>994.75</ele><time>2026-05-03T13:33:30.753Z</time></trkpt><trkpt lat="44.1873967" lon="10.5661633"><ele>994.5</ele><time>2026-05-03T13:33:31.753Z</time></trkpt><trkpt lat="44.1873317" lon="10.5660267"><ele>994.25</ele><time>2026-05-03T13:33:32.752Z</time></trkpt><trkpt lat="44.1872383" lon="10.5659117"><ele>994.0</ele><time>2026-05-03T13:33:33.753Z</time></trkpt><trkpt lat="44.18711" lon="10.5658483"><ele>994.0</ele><time>2026-05-03T13:33:34.753Z</time></trkpt><trkpt lat="44.18697" lon="10.5658067"><ele>994.0</ele><time>2026-05-03T13:33:35.753Z</time></trkpt><trkpt lat="44.1868333" lon="10.565755"><ele>994.0</ele><time>2026-05-03T13:33:36.753Z</time></trkpt><trkpt lat="44.1867133" lon="10.5657067"><ele>994.0</ele><time>2026-05-03T13:33:37.753Z</time></trkpt><trkpt lat="44.1866167" lon="10.5656667"><ele>994.0</ele><time>2026-05-03T13:33:38.752Z</time></trkpt><trkpt lat="44.1865367" lon="10.5656217"><ele>994.0000000000001</ele><time>2026-05-03T13:33:39.753Z</time></trkpt><trkpt lat="44.1864767" lon="10.5655583"><ele>994.0000000000001</ele><time>2026-05-03T13:33:40.753Z</time></trkpt><trkpt lat="44.1864467" lon="10.5654583"><ele>994.0</ele><time>2026-05-03T13:33:41.753Z</time></trkpt><trkpt lat="44.186445" lon="10.565315"><ele>994.0</ele><time>2026-05-03T13:33:42.753Z</time></trkpt><trkpt lat="44.186465" lon="10.56513"><ele>993.5</ele><time>2026-05-03T13:33:43.753Z</time></trkpt><trkpt lat="44.1864983" lon="10.5649467"><ele>993.0</ele><time>2026-05-03T13:33:44.752Z</time></trkpt><trkpt lat="44.1865483" lon="10.564795"><ele>992.5</ele><time>2026-05-03T13:33:45.753Z</time></trkpt><trkpt lat="44.186625" lon="10.56469"><ele>992.0</ele><time>2026-05-03T13:33:46.753Z</time></trkpt><trkpt lat="44.1867383" lon="10.564625"><ele>992.6666666666667</ele><time>2026-05-03T13:33:47.752Z</time></trkpt><trkpt lat="44.18688" lon="10.5645717"><ele>993.3333333333333</ele><time>2026-05-03T13:33:48.753Z</time></trkpt><trkpt lat="44.18703" lon="10.5645283"><ele>994.0</ele><time>2026-05-03T13:33:49.753Z</time></trkpt><trkpt lat="44.187195" lon="10.5644833"><ele>994.3333333333333</ele><time>2026-05-03T13:33:50.753Z</time></trkpt><trkpt lat="44.1873517" lon="10.5644317"><ele>994.6666666666667</ele><time>2026-05-03T13:33:51.753Z</time></trkpt><trkpt lat="44.18751" lon="10.5643933"><ele>995.0</ele><time>2026-05-03T13:33:52.753Z</time></trkpt><trkpt lat="44.187665" lon="10.5643767"><ele>995.0</ele><time>2026-05-03T13:33:53.753Z</time></trkpt><trkpt lat="44.1878133" lon="10.5643967"><ele>995.0</ele><time>2026-05-03T13:33:54.753Z</time></trkpt><trkpt lat="44.1879483" lon="10.564405"><ele>995.0</ele><time>2026-05-03T13:33:55.753Z</time></trkpt><trkpt lat="44.1880517" lon="10.5644083"><ele>995.0</ele><time>2026-05-03T13:33:56.753Z</time></trkpt><trkpt lat="44.188135" lon="10.564355"><ele>995.0</ele><time>2026-05-03T13:33:57.753Z</time></trkpt><trkpt lat="44.18819" lon="10.56424"><ele>995.0</ele><time>2026-05-03T13:33:58.753Z</time></trkpt><trkpt lat="44.18822" lon="10.564065"><ele>995.0</ele><time>2026-05-03T13:33:59.752Z</time></trkpt><trkpt lat="44.1882283" lon="10.5638633"><ele>995.0</ele><time>2026-05-03T13:34:00.752Z</time></trkpt><trkpt lat="44.1882317" lon="10.5636367"><ele>995.0</ele><time>2026-05-03T13:34:01.753Z</time></trkpt><trkpt lat="44.1882483" lon="10.5633917"><ele>995.0</ele><time>2026-05-03T13:34:02.752Z</time></trkpt><trkpt lat="44.18826" lon="10.563145"><ele>995.0</ele><time>2026-05-03T13:34:03.753Z</time></trkpt><trkpt lat="44.1882733" lon="10.5629017"><ele>996.0</ele><time>2026-05-03T13:34:04.753Z</time></trkpt><trkpt lat="44.188295" lon="10.562675"><ele>997.0</ele><time>2026-05-03T13:34:05.753Z</time></trkpt><trkpt lat="44.1883083" lon="10.5624333"><ele>998.0</ele><time>2026-05-03T13:34:06.752Z</time></trkpt><trkpt lat="44.1883133" lon="10.5622117"><ele>1000.75</ele><time>2026-05-03T13:34:07.752Z</time></trkpt><trkpt lat="44.1883" lon="10.5620133"><ele>1003.5</ele><time>2026-05-03T13:34:08.753Z</time></trkpt><trkpt lat="44.1882917" lon="10.5618367"><ele>1006.25</ele><time>2026-05-03T13:34:09.752Z</time></trkpt><trkpt lat="44.1883133" lon="10.5616833"><ele>1009.0</ele><time>2026-05-03T13:34:10.752Z</time></trkpt><trkpt lat="44.1883733" lon="10.5615483"><ele>1009.0</ele><time>2026-05-03T13:34:11.752Z</time></trkpt><trkpt lat="44.1884567" lon="10.5614683"><ele>1009.0000000000001</ele><time>2026-05-03T13:34:12.753Z</time></trkpt><trkpt lat="44.1885567" lon="10.5614583"><ele>1009.0000000000001</ele><time>2026-05-03T13:34:13.752Z</time></trkpt><trkpt lat="44.188665" lon="10.56148"><ele>1009.0</ele><time>2026-05-03T13:34:14.753Z</time></trkpt><trkpt lat="44.18879" lon="10.5615167"><ele>1009.0</ele><time>2026-05-03T13:34:15.753Z</time></trkpt><trkpt lat="44.188935" lon="10.5615233"><ele>1009.0</ele><time>2026-05-03T13:34:16.753Z</time></trkpt><trkpt lat="44.18911" lon="10.56149"><ele>1009.0</ele><time>2026-05-03T13:34:17.753Z</time></trkpt><trkpt lat="44.1892567" lon="10.5614467"><ele>1009.0</ele><time>2026-05-03T13:34:18.753Z</time></trkpt><trkpt lat="44.189375" lon="10.5613333"><ele>1012.3333333333333</ele><time>2026-05-03T13:34:19.753Z</time></trkpt><trkpt lat="44.1894867" lon="10.5611783"><ele>1015.6666666666667</ele><time>2026-05-03T13:34:20.753Z</time></trkpt><trkpt lat="44.1895867" lon="10.561005"><ele>1019.0</ele><time>2026-05-03T13:34:21.753Z</time></trkpt><trkpt lat="44.1896917" lon="10.56082"><ele>1019.0</ele><time>2026-05-03T13:34:22.753Z</time></trkpt><trkpt lat="44.1897867" lon="10.56065"><ele>1019.0</ele><time>2026-05-03T13:34:23.753Z</time></trkpt><trkpt lat="44.189855" lon="10.5604967"><ele>1019.0</ele><time>2026-05-03T13:34:24.752Z</time></trkpt><trkpt lat="44.18989" lon="10.56035"><ele>1019.0</ele><time>2026-05-03T13:34:25.753Z</time></trkpt><trkpt lat="44.1898833" lon="10.5602017"><ele>1019.5</ele><time>2026-05-03T13:34:26.753Z</time></trkpt><trkpt lat="44.18985" lon="10.5600417"><ele>1020.0</ele><time>2026-05-03T13:34:27.753Z</time></trkpt><trkpt lat="44.189835" lon="10.5598517"><ele>1020.5</ele><time>2026-05-03T13:34:28.753Z</time></trkpt><trkpt lat="44.1898483" lon="10.5596567"><ele>1021.0</ele><time>2026-05-03T13:34:29.753Z</time></trkpt><trkpt lat="44.1898667" lon="10.5594717"><ele>1022.5</ele><time>2026-05-03T13:34:30.753Z</time></trkpt><trkpt lat="44.1898633" lon="10.559305"><ele>1024.0</ele><time>2026-05-03T13:34:31.752Z</time></trkpt><trkpt lat="44.189815" lon="10.5591533"><ele>1025.5</ele><time>2026-05-03T13:34:32.753Z</time></trkpt><trkpt lat="44.1897617" lon="10.5590083"><ele>1027.0</ele><time>2026-05-03T13:34:33.753Z</time></trkpt><trkpt lat="44.189735" lon="10.5588483"><ele>1029.25</ele><time>2026-05-03T13:34:34.753Z</time></trkpt><trkpt lat="44.18977" lon="10.5587"><ele>1031.5</ele><time>2026-05-03T13:34:35.753Z</time></trkpt><trkpt lat="44.1898367" lon="10.558535"><ele>1033.75</ele><time>2026-05-03T13:34:36.753Z</time></trkpt><trkpt lat="44.1899217" lon="10.55836"><ele>1036.0</ele><time>2026-05-03T13:34:37.753Z</time></trkpt><trkpt lat="44.1900033" lon="10.558175"><ele>1036.0</ele><time>2026-05-03T13:34:38.753Z</time></trkpt><trkpt lat="44.1900583" lon="10.5580033"><ele>1036.0</ele><time>2026-05-03T13:34:39.753Z</time></trkpt><trkpt lat="44.190075" lon="10.5578083"><ele>1036.0</ele><time>2026-05-03T13:34:40.753Z</time></trkpt><trkpt lat="44.1900733" lon="10.5576067"><ele>1036.0</ele><time>2026-05-03T13:34:41.753Z</time></trkpt><trkpt lat="44.1900583" lon="10.5573833"><ele>1038.5</ele><time>2026-05-03T13:34:42.753Z</time></trkpt><trkpt lat="44.1900533" lon="10.5571667"><ele>1041.0</ele><time>2026-05-03T13:34:43.753Z</time></trkpt><trkpt lat="44.1900517" lon="10.55696"><ele>1043.5</ele><time>2026-05-03T13:34:44.753Z</time></trkpt><trkpt lat="44.1900483" lon="10.5567833"><ele>1046.0</ele><time>2026-05-03T13:34:45.753Z</time></trkpt><trkpt lat="44.1900283" lon="10.5566333"><ele>1048.2</ele><time>2026-05-03T13:34:46.753Z</time></trkpt><trkpt lat="44.1900283" lon="10.5564967"><ele>1050.3999999999999</ele><time>2026-05-03T13:34:47.753Z</time></trkpt><trkpt lat="44.1900817" lon="10.5563817"><ele>1052.6</ele><time>2026-05-03T13:34:48.753Z</time></trkpt><trkpt lat="44.1901533" lon="10.5563167"><ele>1054.8</ele><time>2026-05-03T13:34:49.753Z</time></trkpt><trkpt lat="44.1902583" lon="10.5562983"><ele>1057.0</ele><time>2026-05-03T13:34:50.753Z</time></trkpt><trkpt lat="44.19039" lon="10.556325"><ele>1057.0</ele><time>2026-05-03T13:34:51.753Z</time></trkpt><trkpt lat="44.1905167" lon="10.5563317"><ele>1057.0</ele><time>2026-05-03T13:34:52.753Z</time></trkpt><trkpt lat="44.1906433" lon="10.5563167"><ele>1057.0</ele><time>2026-05-03T13:34:53.753Z</time></trkpt><trkpt lat="44.190755" lon="10.5562783"><ele>1057.0</ele><time>2026-05-03T13:34:54.752Z</time></trkpt><trkpt lat="44.1908483" lon="10.556215"><ele>1056.0</ele><time>2026-05-03T13:34:55.752Z</time></trkpt><trkpt lat="44.1909083" lon="10.5561233"><ele>1055.0</ele><time>2026-05-03T13:34:56.753Z</time></trkpt><trkpt lat="44.1909283" lon="10.5560167"><ele>1054.0</ele><time>2026-05-03T13:34:57.752Z</time></trkpt><trkpt lat="44.19092" lon="10.5559067"><ele>1053.0</ele><time>2026-05-03T13:34:58.753Z</time></trkpt><trkpt lat="44.1908917" lon="10.55577"><ele>1052.0</ele><time>2026-05-03T13:34:59.753Z</time></trkpt><trkpt lat="44.1908267" lon="10.55563"><ele>1052.0</ele><time>2026-05-03T13:35:00.753Z</time></trkpt><trkpt lat="44.19074" lon="10.5554933"><ele>1052.0</ele><time>2026-05-03T13:35:01.753Z</time></trkpt><trkpt lat="44.1906583" lon="10.5553783"><ele>1052.0</ele><time>2026-05-03T13:35:02.752Z</time></trkpt><trkpt lat="44.1905817" lon="10.5552767"><ele>1052.0</ele><time>2026-05-03T13:35:03.753Z</time></trkpt><trkpt lat="44.1905267" lon="10.5551783"><ele>1052.0</ele><time>2026-05-03T13:35:04.753Z</time></trkpt><trkpt lat="44.1904733" lon="10.5550967"><ele>1052.8333333333335</ele><time>2026-05-03T13:35:05.753Z</time></trkpt><trkpt lat="44.1904333" lon="10.5550183"><ele>1053.6666666666667</ele><time>2026-05-03T13:35:06.753Z</time></trkpt><trkpt lat="44.190395" lon="10.55493"><ele>1054.5</ele><time>2026-05-03T13:35:07.752Z</time></trkpt><trkpt lat="44.1903533" lon="10.5548367"><ele>1055.3333333333333</ele><time>2026-05-03T13:35:08.752Z</time></trkpt><trkpt lat="44.1903167" lon="10.5547367"><ele>1056.1666666666665</ele><time>2026-05-03T13:35:09.752Z</time></trkpt><trkpt lat="44.1902817" lon="10.554645"><ele>1057.0</ele><time>2026-05-03T13:35:10.752Z</time></trkpt><trkpt lat="44.1902583" lon="10.554545"><ele>1057.3333333333333</ele><time>2026-05-03T13:35:11.751Z</time></trkpt><trkpt lat="44.190235" lon="10.55444"><ele>1057.6666666666665</ele><time>2026-05-03T13:35:12.752Z</time></trkpt><trkpt lat="44.1902133" lon="10.554325"><ele>1058.0</ele><time>2026-05-03T13:35:13.752Z</time></trkpt><trkpt lat="44.1902083" lon="10.5542167"><ele>1058.3333333333333</ele><time>2026-05-03T13:35:14.751Z</time></trkpt><trkpt lat="44.1902167" lon="10.5540967"><ele>1058.6666666666667</ele><time>2026-05-03T13:35:15.752Z</time></trkpt><trkpt lat="44.1902517" lon="10.5539783"><ele>1059.0</ele><time>2026-05-03T13:35:16.752Z</time></trkpt><trkpt lat="44.1903067" lon="10.5538883"><ele>1059.0</ele><time>2026-05-03T13:35:17.752Z</time></trkpt><trkpt lat="44.1903583" lon="10.553815"><ele>1059.0</ele><time>2026-05-03T13:35:18.752Z</time></trkpt><trkpt lat="44.1904167" lon="10.553735"><ele>1059.0</ele><time>2026-05-03T13:35:19.752Z</time></trkpt><trkpt lat="44.19048" lon="10.55366"><ele>1059.0</ele><time>2026-05-03T13:35:20.751Z</time></trkpt><trkpt lat="44.1905433" lon="10.5535867"><ele>1059.0</ele><time>2026-05-03T13:35:21.752Z</time></trkpt><trkpt lat="44.19061" lon="10.553505"><ele>1059.0</ele><time>2026-05-03T13:35:22.752Z</time></trkpt><trkpt lat="44.1906783" lon="10.5534317"><ele>1059.0</ele><time>2026-05-03T13:35:23.751Z</time></trkpt><trkpt lat="44.19075" lon="10.5533717"><ele>1059.0</ele><time>2026-05-03T13:35:24.752Z</time></trkpt><trkpt lat="44.19082" lon="10.5533217"><ele>1059.0</ele><time>2026-05-03T13:35:25.752Z</time></trkpt><trkpt lat="44.1908917" lon="10.5532783"><ele>1059.0</ele><time>2026-05-03T13:35:26.752Z</time></trkpt><trkpt lat="44.1909617" lon="10.5532317"><ele>1059.0</ele><time>2026-05-03T13:35:27.752Z</time></trkpt><trkpt lat="44.191035" lon="10.55319"><ele>1059.0</ele><time>2026-05-03T13:35:28.751Z</time></trkpt><trkpt lat="44.19111" lon="10.5531583"><ele>1059.0</ele><time>2026-05-03T13:35:29.752Z</time></trkpt><trkpt lat="44.1911917" lon="10.5531283"><ele>1059.0</ele><time>2026-05-03T13:35:30.752Z</time></trkpt><trkpt lat="44.1912717" lon="10.5531067"><ele>1059.0</ele><time>2026-05-03T13:35:31.752Z</time></trkpt><trkpt lat="44.191355" lon="10.5530817"><ele>1059.0</ele><time>2026-05-03T13:35:32.752Z</time></trkpt><trkpt lat="44.191445" lon="10.5530583"><ele>1059.0</ele><time>2026-05-03T13:35:33.752Z</time></trkpt><trkpt lat="44.1915383" lon="10.5530317"><ele>1059.0</ele><time>2026-05-03T13:35:34.752Z</time></trkpt><trkpt lat="44.1916167" lon="10.5529983"><ele>1058.8333333333333</ele><time>2026-05-03T13:35:35.751Z</time></trkpt><trkpt lat="44.191695" lon="10.552945"><ele>1058.6666666666667</ele><time>2026-05-03T13:35:36.751Z</time></trkpt><trkpt lat="44.1917683" lon="10.5528933"><ele>1058.5</ele><time>2026-05-03T13:35:37.752Z</time></trkpt><trkpt lat="44.19184" lon="10.552825"><ele>1058.3333333333335</ele><time>2026-05-03T13:35:38.752Z</time></trkpt><trkpt lat="44.1918983" lon="10.552735"><ele>1058.1666666666667</ele><time>2026-05-03T13:35:39.751Z</time></trkpt><trkpt lat="44.191945" lon="10.5526333"><ele>1058.0</ele><time>2026-05-03T13:35:40.751Z</time></trkpt><trkpt lat="44.19199" lon="10.5525267"><ele>1060.1666666666667</ele><time>2026-05-03T13:35:41.752Z</time></trkpt><trkpt lat="44.1920333" lon="10.552415"><ele>1062.3333333333335</ele><time>2026-05-03T13:35:42.752Z</time></trkpt><trkpt lat="44.192075" lon="10.5522983"><ele>1064.5</ele><time>2026-05-03T13:35:43.752Z</time></trkpt><trkpt lat="44.1921017" lon="10.55219"><ele>1066.6666666666667</ele><time>2026-05-03T13:35:44.751Z</time></trkpt><trkpt lat="44.1921167" lon="10.5520783"><ele>1068.8333333333333</ele><time>2026-05-03T13:35:45.751Z</time></trkpt><trkpt lat="44.1921183" lon="10.5519533"><ele>1071.0</ele><time>2026-05-03T13:35:46.752Z</time></trkpt><trkpt lat="44.1921083" lon="10.5518383"><ele>1072.0</ele><time>2026-05-03T13:35:47.752Z</time></trkpt><trkpt lat="44.192075" lon="10.551735"><ele>1073.0</ele><time>2026-05-03T13:35:48.752Z</time></trkpt><trkpt lat="44.1920383" lon="10.5516267"><ele>1074.0</ele><time>2026-05-03T13:35:49.752Z</time></trkpt><trkpt lat="44.1919983" lon="10.551525"><ele>1075.0</ele><time>2026-05-03T13:35:50.752Z</time></trkpt><trkpt lat="44.1919233" lon="10.5514567"><ele>1076.0</ele><time>2026-05-03T13:35:51.752Z</time></trkpt><trkpt lat="44.1918617" lon="10.5513833"><ele>1077.0</ele><time>2026-05-03T13:35:52.752Z</time></trkpt><trkpt lat="44.1917817" lon="10.55135"><ele>1077.0</ele><time>2026-05-03T13:35:53.752Z</time></trkpt><trkpt lat="44.1916917" lon="10.5513567"><ele>1077.0</ele><time>2026-05-03T13:35:54.752Z</time></trkpt><trkpt lat="44.1915983" lon="10.5513583"><ele>1077.0</ele><time>2026-05-03T13:35:55.752Z</time></trkpt><trkpt lat="44.1915017" lon="10.55139"><ele>1077.0</ele><time>2026-05-03T13:35:56.752Z</time></trkpt><trkpt lat="44.1914067" lon="10.55142"><ele>1077.0</ele><time>2026-05-03T13:35:57.752Z</time></trkpt><trkpt lat="44.19132" lon="10.5514567"><ele>1077.8333333333333</ele><time>2026-05-03T13:35:58.752Z</time></trkpt><trkpt lat="44.1912467" lon="10.5514867"><ele>1078.6666666666667</ele><time>2026-05-03T13:35:59.752Z</time></trkpt><trkpt lat="44.1911833" lon="10.55149"><ele>1079.5</ele><time>2026-05-03T13:36:00.752Z</time></trkpt><trkpt lat="44.1911117" lon="10.5514167"><ele>1080.3333333333335</ele><time>2026-05-03T13:36:02.752Z</time></trkpt><trkpt lat="44.1911333" lon="10.5512967"><ele>1081.1666666666667</ele><time>2026-05-03T13:36:04.752Z</time></trkpt><trkpt lat="44.1911983" lon="10.5511933"><ele>1082.0</ele><time>2026-05-03T13:36:06.752Z</time></trkpt><trkpt lat="44.1912717" lon="10.5510767"><ele>1082.6666666666667</ele><time>2026-05-03T13:36:08.751Z</time></trkpt><trkpt lat="44.1913633" lon="10.5509517"><ele>1083.3333333333335</ele><time>2026-05-03T13:36:10.751Z</time></trkpt><trkpt lat="44.19141" lon="10.55088"><ele>1084.0</ele><time>2026-05-03T13:36:11.752Z</time></trkpt><trkpt lat="44.19146" lon="10.5508067"><ele>1084.6666666666667</ele><time>2026-05-03T13:36:12.751Z</time></trkpt><trkpt lat="44.1915067" lon="10.55072"><ele>1085.3333333333333</ele><time>2026-05-03T13:36:13.752Z</time></trkpt><trkpt lat="44.19155" lon="10.5506233"><ele>1086.0</ele><time>2026-05-03T13:36:14.752Z</time></trkpt><trkpt lat="44.191575" lon="10.5505117"><ele>1086.0</ele><time>2026-05-03T13:36:15.752Z</time></trkpt><trkpt lat="44.1915883" lon="10.5503883"><ele>1086.0</ele><time>2026-05-03T13:36:16.752Z</time></trkpt><trkpt lat="44.19159" lon="10.5502617"><ele>1086.0</ele><time>2026-05-03T13:36:17.752Z</time></trkpt><trkpt lat="44.1915883" lon="10.5501283"><ele>1086.0</ele><time>2026-05-03T13:36:18.751Z</time></trkpt><trkpt lat="44.191585" lon="10.549995"><ele>1086.0</ele><time>2026-05-03T13:36:19.752Z</time></trkpt><trkpt lat="44.1915833" lon="10.5498667"><ele>1087.0</ele><time>2026-05-03T13:36:20.751Z</time></trkpt><trkpt lat="44.1915917" lon="10.5497367"><ele>1088.0</ele><time>2026-05-03T13:36:21.752Z</time></trkpt><trkpt lat="44.191615" lon="10.5496"><ele>1089.0</ele><time>2026-05-03T13:36:22.752Z</time></trkpt><trkpt lat="44.1916683" lon="10.5494733"><ele>1090.0</ele><time>2026-05-03T13:36:23.751Z</time></trkpt><trkpt lat="44.191735" lon="10.5493533"><ele>1091.0</ele><time>2026-05-03T13:36:24.751Z</time></trkpt><trkpt lat="44.1918017" lon="10.5492167"><ele>1092.75</ele><time>2026-05-03T13:36:25.752Z</time></trkpt><trkpt lat="44.191865" lon="10.5490833"><ele>1094.5</ele><time>2026-05-03T13:36:26.752Z</time></trkpt><trkpt lat="44.19192" lon="10.5489383"><ele>1096.25</ele><time>2026-05-03T13:36:27.752Z</time></trkpt><trkpt lat="44.1919867" lon="10.5487917"><ele>1098.0</ele><time>2026-05-03T13:36:28.752Z</time></trkpt><trkpt lat="44.192055" lon="10.5486617"><ele>1098.4</ele><time>2026-05-03T13:36:29.752Z</time></trkpt><trkpt lat="44.192135" lon="10.5485567"><ele>1098.8</ele><time>2026-05-03T13:36:30.752Z</time></trkpt><trkpt lat="44.1922233" lon="10.5484817"><ele>1099.2</ele><time>2026-05-03T13:36:31.752Z</time></trkpt><trkpt lat="44.19233" lon="10.5484567"><ele>1099.6</ele><time>2026-05-03T13:36:32.752Z</time></trkpt><trkpt lat="44.1924467" lon="10.54848"><ele>1100.0</ele><time>2026-05-03T13:36:33.752Z</time></trkpt><trkpt lat="44.1925617" lon="10.5485117"><ele>1100.0</ele><time>2026-05-03T13:36:34.752Z</time></trkpt><trkpt lat="44.1926783" lon="10.548535"><ele>1100.0</ele><time>2026-05-03T13:36:35.752Z</time></trkpt><trkpt lat="44.1927883" lon="10.548555"><ele>1100.0</ele><time>2026-05-03T13:36:36.751Z</time></trkpt><trkpt lat="44.192885" lon="10.5485483"><ele>1100.0</ele><time>2026-05-03T13:36:37.752Z</time></trkpt><trkpt lat="44.1929733" lon="10.5485383"><ele>1100.0</ele><time>2026-05-03T13:36:38.752Z</time></trkpt><trkpt lat="44.1930467" lon="10.5485"><ele>1100.0</ele><time>2026-05-03T13:36:39.752Z</time></trkpt><trkpt lat="44.193095" lon="10.54843"><ele>1100.0</ele><time>2026-05-03T13:36:40.752Z</time></trkpt><trkpt lat="44.1930933" lon="10.5483117"><ele>1100.0</ele><time>2026-05-03T13:36:41.751Z</time></trkpt><trkpt lat="44.193085" lon="10.5481717"><ele>1100.0</ele><time>2026-05-03T13:36:42.752Z</time></trkpt><trkpt lat="44.1931017" lon="10.5480283"><ele>1100.0</ele><time>2026-05-03T13:36:43.752Z</time></trkpt><trkpt lat="44.1931517" lon="10.5478917"><ele>1101.25</ele><time>2026-05-03T13:36:44.752Z</time></trkpt><trkpt lat="44.1932167" lon="10.547755"><ele>1102.5</ele><time>2026-05-03T13:36:45.752Z</time></trkpt><trkpt lat="44.1932883" lon="10.54762"><ele>1103.75</ele><time>2026-05-03T13:36:46.751Z</time></trkpt><trkpt lat="44.1933667" lon="10.5474717"><ele>1105.0</ele><time>2026-05-03T13:36:47.752Z</time></trkpt><trkpt lat="44.1934483" lon="10.5473233"><ele>1105.0</ele><time>2026-05-03T13:36:48.752Z</time></trkpt><trkpt lat="44.193525" lon="10.5471783"><ele>1105.0</ele><time>2026-05-03T13:36:49.752Z</time></trkpt><trkpt lat="44.19359" lon="10.547035"><ele>1105.0</ele><time>2026-05-03T13:36:50.751Z</time></trkpt><trkpt lat="44.1936267" lon="10.5468867"><ele>1105.0</ele><time>2026-05-03T13:36:51.752Z</time></trkpt><trkpt lat="44.1936483" lon="10.5467133"><ele>1107.25</ele><time>2026-05-03T13:36:52.752Z</time></trkpt><trkpt lat="44.193665" lon="10.5465283"><ele>1109.5</ele><time>2026-05-03T13:36:53.752Z</time></trkpt><trkpt lat="44.1937033" lon="10.5463533"><ele>1111.75</ele><time>2026-05-03T13:36:54.752Z</time></trkpt><trkpt lat="44.1937717" lon="10.5461933"><ele>1114.0</ele><time>2026-05-03T13:36:55.752Z</time></trkpt><trkpt lat="44.19386" lon="10.546075"><ele>1114.5</ele><time>2026-05-03T13:36:56.752Z</time></trkpt><trkpt lat="44.1939767" lon="10.5459783"><ele>1115.0</ele><time>2026-05-03T13:36:57.752Z</time></trkpt><trkpt lat="44.194105" lon="10.5458883"><ele>1115.5</ele><time>2026-05-03T13:36:58.752Z</time></trkpt><trkpt lat="44.1942267" lon="10.545785"><ele>1116.0</ele><time>2026-05-03T13:36:59.751Z</time></trkpt><trkpt lat="44.19435" lon="10.54569"><ele>1116.0</ele><time>2026-05-03T13:37:00.752Z</time></trkpt><trkpt lat="44.1944617" lon="10.545595"><ele>1116.0</ele><time>2026-05-03T13:37:01.752Z</time></trkpt><trkpt lat="44.1945617" lon="10.5455067"><ele>1116.0</ele><time>2026-05-03T13:37:02.752Z</time></trkpt><trkpt lat="44.1946567" lon="10.5454217"><ele>1116.0</ele><time>2026-05-03T13:37:03.752Z</time></trkpt><trkpt lat="44.194715" lon="10.5452983"><ele>1117.25</ele><time>2026-05-03T13:37:04.751Z</time></trkpt><trkpt lat="44.1947333" lon="10.5451517"><ele>1118.5</ele><time>2026-05-03T13:37:05.751Z</time></trkpt><trkpt lat="44.1947183" lon="10.5449867"><ele>1119.75</ele><time>2026-05-03T13:37:06.752Z</time></trkpt><trkpt lat="44.194665" lon="10.54482"><ele>1121.0</ele><time>2026-05-03T13:37:07.752Z</time></trkpt><trkpt lat="44.1946167" lon="10.54465"><ele>1122.3999999999999</ele><time>2026-05-03T13:37:08.752Z</time></trkpt><trkpt lat="44.1945717" lon="10.54448"><ele>1123.8</ele><time>2026-05-03T13:37:09.752Z</time></trkpt><trkpt lat="44.1945433" lon="10.544335"><ele>1125.1999999999998</ele><time>2026-05-03T13:37:10.752Z</time></trkpt><trkpt lat="44.1945583" lon="10.5441967"><ele>1126.6</ele><time>2026-05-03T13:37:11.752Z</time></trkpt><trkpt lat="44.19461" lon="10.544085"><ele>1128.0</ele><time>2026-05-03T13:37:12.752Z</time></trkpt><trkpt lat="44.194695" lon="10.5440217"><ele>1128.0</ele><time>2026-05-03T13:37:13.752Z</time></trkpt><trkpt lat="44.19481" lon="10.5440017"><ele>1128.0</ele><time>2026-05-03T13:37:14.752Z</time></trkpt><trkpt lat="44.1949517" lon="10.5439933"><ele>1128.0</ele><time>2026-05-03T13:37:15.752Z</time></trkpt><trkpt lat="44.19509" lon="10.5439617"><ele>1128.0</ele><time>2026-05-03T13:37:16.752Z</time></trkpt><trkpt lat="44.1952233" lon="10.5439017"><ele>1128.0</ele><time>2026-05-03T13:37:17.752Z</time></trkpt><trkpt lat="44.1953383" lon="10.5438083"><ele>1128.0</ele><time>2026-05-03T13:37:18.751Z</time></trkpt><trkpt lat="44.1954283" lon="10.54369"><ele>1128.0</ele><time>2026-05-03T13:37:19.751Z</time></trkpt><trkpt lat="44.1955033" lon="10.5435333"><ele>1128.0</ele><time>2026-05-03T13:37:20.751Z</time></trkpt><trkpt lat="44.19558" lon="10.54336"><ele>1129.25</ele><time>2026-05-03T13:37:21.752Z</time></trkpt><trkpt lat="44.195655" lon="10.54318"><ele>1130.5</ele><time>2026-05-03T13:37:22.752Z</time></trkpt><trkpt lat="44.1957267" lon="10.5430083"><ele>1131.75</ele><time>2026-05-03T13:37:23.752Z</time></trkpt><trkpt lat="44.1957767" lon="10.5428233"><ele>1133.0</ele><time>2026-05-03T13:37:24.752Z</time></trkpt><trkpt lat="44.1958133" lon="10.542625"><ele>1133.75</ele><time>2026-05-03T13:37:25.752Z</time></trkpt><trkpt lat="44.1958317" lon="10.5424217"><ele>1134.5</ele><time>2026-05-03T13:37:26.752Z</time></trkpt><trkpt lat="44.19584" lon="10.5422183"><ele>1135.25</ele><time>2026-05-03T13:37:27.752Z</time></trkpt><trkpt lat="44.19585" lon="10.54202"><ele>1136.0</ele><time>2026-05-03T13:37:28.751Z</time></trkpt><trkpt lat="44.1958433" lon="10.5418033"><ele>1137.75</ele><time>2026-05-03T13:37:29.751Z</time></trkpt><trkpt lat="44.195825" lon="10.5415967"><ele>1139.5</ele><time>2026-05-03T13:37:30.752Z</time></trkpt><trkpt lat="44.19581" lon="10.5413833"><ele>1141.25</ele><time>2026-05-03T13:37:31.752Z</time></trkpt><trkpt lat="44.1957833" lon="10.5411883"><ele>1143.0</ele><time>2026-05-03T13:37:32.752Z</time></trkpt><trkpt lat="44.1957383" lon="10.5410067"><ele>1145.75</ele><time>2026-05-03T13:37:33.752Z</time></trkpt><trkpt lat="44.1956683" lon="10.5408383"><ele>1148.5</ele><time>2026-05-03T13:37:34.752Z</time></trkpt><trkpt lat="44.1955933" lon="10.5406517"><ele>1151.25</ele><time>2026-05-03T13:37:35.752Z</time></trkpt><trkpt lat="44.195525" lon="10.5404633"><ele>1154.0</ele><time>2026-05-03T13:37:36.752Z</time></trkpt><trkpt lat="44.19547" lon="10.54028"><ele>1154.8</ele><time>2026-05-03T13:37:37.751Z</time></trkpt><trkpt lat="44.1954233" lon="10.54011"><ele>1155.6000000000001</ele><time>2026-05-03T13:37:38.752Z</time></trkpt><trkpt lat="44.195395" lon="10.53997"><ele>1156.4</ele><time>2026-05-03T13:37:39.751Z</time></trkpt><trkpt lat="44.1953917" lon="10.5398533"><ele>1157.2</ele><time>2026-05-03T13:37:40.752Z</time></trkpt><trkpt lat="44.195415" lon="10.539745"><ele>1158.0</ele><time>2026-05-03T13:37:41.752Z</time></trkpt><trkpt lat="44.1954683" lon="10.53969"><ele>1158.0</ele><time>2026-05-03T13:37:42.752Z</time></trkpt><trkpt lat="44.1955433" lon="10.5396867"><ele>1158.0</ele><time>2026-05-03T13:37:43.752Z</time></trkpt><trkpt lat="44.1956283" lon="10.5397083"><ele>1158.0</ele><time>2026-05-03T13:37:44.752Z</time></trkpt><trkpt lat="44.195725" lon="10.5397183"><ele>1158.0</ele><time>2026-05-03T13:37:45.752Z</time></trkpt><trkpt lat="44.195825" lon="10.5396867"><ele>1158.0</ele><time>2026-05-03T13:37:46.752Z</time></trkpt><trkpt lat="44.1959283" lon="10.539595"><ele>1159.75</ele><time>2026-05-03T13:37:47.752Z</time></trkpt><trkpt lat="44.19603" lon="10.5394833"><ele>1161.5</ele><time>2026-05-03T13:37:48.752Z</time></trkpt><trkpt lat="44.19614" lon="10.53936"><ele>1163.25</ele><time>2026-05-03T13:37:49.752Z</time></trkpt><trkpt lat="44.1962633" lon="10.5392717"><ele>1165.0</ele><time>2026-05-03T13:37:50.752Z</time></trkpt><trkpt lat="44.1963817" lon="10.539205"><ele>1165.0</ele><time>2026-05-03T13:37:51.751Z</time></trkpt><trkpt lat="44.1964967" lon="10.5391367"><ele>1165.0</ele><time>2026-05-03T13:37:52.751Z</time></trkpt><trkpt lat="44.1965917" lon="10.5390417"><ele>1165.0</ele><time>2026-05-03T13:37:53.752Z</time></trkpt><trkpt lat="44.19665" lon="10.5389117"><ele>1165.0</ele><time>2026-05-03T13:37:54.752Z</time></trkpt><trkpt lat="44.19669" lon="10.538745"><ele>1166.0</ele><time>2026-05-03T13:37:55.752Z</time></trkpt><trkpt lat="44.1967017" lon="10.5385667"><ele>1167.0</ele><time>2026-05-03T13:37:56.752Z</time></trkpt><trkpt lat="44.1967033" lon="10.5383683"><ele>1168.0</ele><time>2026-05-03T13:37:57.752Z</time></trkpt><trkpt lat="44.1966983" lon="10.53816"><ele>1169.0</ele><time>2026-05-03T13:37:58.751Z</time></trkpt><trkpt lat="44.196685" lon="10.53795"><ele>1170.5</ele><time>2026-05-03T13:37:59.752Z</time></trkpt><trkpt lat="44.1966567" lon="10.5377417"><ele>1172.0</ele><time>2026-05-03T13:38:00.752Z</time></trkpt><trkpt lat="44.1966167" lon="10.53754"><ele>1173.5</ele><time>2026-05-03T13:38:01.752Z</time></trkpt><trkpt lat="44.1965867" lon="10.5373733"><ele>1175.0</ele><time>2026-05-03T13:38:02.752Z</time></trkpt><trkpt lat="44.19657" lon="10.5372167"><ele>1177.25</ele><time>2026-05-03T13:38:03.751Z</time></trkpt><trkpt lat="44.1965833" lon="10.5370383"><ele>1179.5</ele><time>2026-05-03T13:38:04.751Z</time></trkpt><trkpt lat="44.196635" lon="10.5368683"><ele>1181.75</ele><time>2026-05-03T13:38:05.752Z</time></trkpt><trkpt lat="44.1967017" lon="10.5366933"><ele>1184.0</ele><time>2026-05-03T13:38:06.752Z</time></trkpt><trkpt lat="44.19677" lon="10.5365183"><ele>1184.0</ele><time>2026-05-03T13:38:07.752Z</time></trkpt><trkpt lat="44.1968467" lon="10.5363433"><ele>1184.0</ele><time>2026-05-03T13:38:08.752Z</time></trkpt><trkpt lat="44.196905" lon="10.5361683"><ele>1184.0</ele><time>2026-05-03T13:38:09.752Z</time></trkpt><trkpt lat="44.1969417" lon="10.53598"><ele>1184.0</ele><time>2026-05-03T13:38:10.752Z</time></trkpt><trkpt lat="44.1969617" lon="10.53579"><ele>1186.25</ele><time>2026-05-03T13:38:11.752Z</time></trkpt><trkpt lat="44.1969717" lon="10.5355917"><ele>1188.5</ele><time>2026-05-03T13:38:12.752Z</time></trkpt><trkpt lat="44.1969633" lon="10.5353883"><ele>1190.75</ele><time>2026-05-03T13:38:13.752Z</time></trkpt><trkpt lat="44.1969533" lon="10.53518"><ele>1193.0</ele><time>2026-05-03T13:38:14.752Z</time></trkpt><trkpt lat="44.19693" lon="10.5349667"><ele>1194.6666666666667</ele><time>2026-05-03T13:38:15.752Z</time></trkpt><trkpt lat="44.1969083" lon="10.5347567"><ele>1196.3333333333333</ele><time>2026-05-03T13:38:16.752Z</time></trkpt><trkpt lat="44.1968817" lon="10.5345383"><ele>1198.0</ele><time>2026-05-03T13:38:17.752Z</time></trkpt><trkpt lat="44.1968833" lon="10.5343233"><ele>1198.25</ele><time>2026-05-03T13:38:18.752Z</time></trkpt><trkpt lat="44.196905" lon="10.5341183"><ele>1198.5</ele><time>2026-05-03T13:38:19.752Z</time></trkpt><trkpt lat="44.196925" lon="10.5339167"><ele>1198.75</ele><time>2026-05-03T13:38:20.752Z</time></trkpt><trkpt lat="44.1969217" lon="10.5337217"><ele>1199.0</ele><time>2026-05-03T13:38:21.752Z</time></trkpt><trkpt lat="44.1968717" lon="10.53357"><ele>1200.5</ele><time>2026-05-03T13:38:22.752Z</time></trkpt><trkpt lat="44.19681" lon="10.5334233"><ele>1202.0</ele><time>2026-05-03T13:38:23.752Z</time></trkpt><trkpt lat="44.1967233" lon="10.5332733"><ele>1203.5</ele><time>2026-05-03T13:38:24.752Z</time></trkpt><trkpt lat="44.196615" lon="10.53314"><ele>1205.0</ele><time>2026-05-03T13:38:25.752Z</time></trkpt><trkpt lat="44.1965083" lon="10.5329967"><ele>1208.75</ele><time>2026-05-03T13:38:26.752Z</time></trkpt><trkpt lat="44.19643" lon="10.53285"><ele>1212.5</ele><time>2026-05-03T13:38:27.752Z</time></trkpt><trkpt lat="44.1963867" lon="10.5326817"><ele>1216.25</ele><time>2026-05-03T13:38:28.752Z</time></trkpt><trkpt lat="44.1963783" lon="10.5324917"><ele>1220.0</ele><time>2026-05-03T13:38:29.752Z</time></trkpt><trkpt lat="44.196395" lon="10.5322933"><ele>1220.0</ele><time>2026-05-03T13:38:30.752Z</time></trkpt><trkpt lat="44.19639" lon="10.532125"><ele>1220.0</ele><time>2026-05-03T13:38:31.752Z</time></trkpt><trkpt lat="44.1963583" lon="10.5319833"><ele>1220.0</ele><time>2026-05-03T13:38:32.751Z</time></trkpt><trkpt lat="44.1963117" lon="10.5318633"><ele>1220.0</ele><time>2026-05-03T13:38:33.752Z</time></trkpt><trkpt lat="44.196275" lon="10.5317567"><ele>1220.0</ele><time>2026-05-03T13:38:34.751Z</time></trkpt><trkpt lat="44.196265" lon="10.5316517"><ele>1220.0</ele><time>2026-05-03T13:38:35.752Z</time></trkpt><trkpt lat="44.19629" lon="10.531555"><ele>1220.0</ele><time>2026-05-03T13:38:36.752Z</time></trkpt><trkpt lat="44.1963517" lon="10.5314917"><ele>1220.0</ele><time>2026-05-03T13:38:37.752Z</time></trkpt><trkpt lat="44.1964333" lon="10.5314783"><ele>1220.0</ele><time>2026-05-03T13:38:38.752Z</time></trkpt><trkpt lat="44.196525" lon="10.5315083"><ele>1220.0</ele><time>2026-05-03T13:38:39.752Z</time></trkpt><trkpt lat="44.1966283" lon="10.531575"><ele>1220.0</ele><time>2026-05-03T13:38:40.752Z</time></trkpt><trkpt lat="44.19674" lon="10.531685"><ele>1219.8</ele><time>2026-05-03T13:38:41.752Z</time></trkpt><trkpt lat="44.1968567" lon="10.53175"><ele>1219.6</ele><time>2026-05-03T13:38:42.751Z</time></trkpt><trkpt lat="44.1969683" lon="10.531775"><ele>1219.4</ele><time>2026-05-03T13:38:43.752Z</time></trkpt><trkpt lat="44.1970733" lon="10.5317583"><ele>1219.2</ele><time>2026-05-03T13:38:44.752Z</time></trkpt><trkpt lat="44.1971517" lon="10.53171"><ele>1219.0</ele><time>2026-05-03T13:38:45.752Z</time></trkpt><trkpt lat="44.19719" lon="10.5316133"><ele>1219.0</ele><time>2026-05-03T13:38:46.752Z</time></trkpt><trkpt lat="44.1972083" lon="10.531515"><ele>1219.0</ele><time>2026-05-03T13:38:47.752Z</time></trkpt><trkpt lat="44.19719" lon="10.5313817"><ele>1219.0</ele><time>2026-05-03T13:38:48.752Z</time></trkpt><trkpt lat="44.1971683" lon="10.5312383"><ele>1219.0</ele><time>2026-05-03T13:38:49.752Z</time></trkpt><trkpt lat="44.197175" lon="10.531095"><ele>1219.0</ele><time>2026-05-03T13:38:50.752Z</time></trkpt><trkpt lat="44.1972117" lon="10.5309517"><ele>1219.75</ele><time>2026-05-03T13:38:51.752Z</time></trkpt><trkpt lat="44.1972717" lon="10.5308033"><ele>1220.5</ele><time>2026-05-03T13:38:52.752Z</time></trkpt><trkpt lat="44.197345" lon="10.5306683"><ele>1221.25</ele><time>2026-05-03T13:38:53.752Z</time></trkpt><trkpt lat="44.1974367" lon="10.5305533"><ele>1222.0</ele><time>2026-05-03T13:38:54.752Z</time></trkpt><trkpt lat="44.1975517" lon="10.5304383"><ele>1224.75</ele><time>2026-05-03T13:38:55.752Z</time></trkpt><trkpt lat="44.19767" lon="10.53034"><ele>1227.5</ele><time>2026-05-03T13:38:56.752Z</time></trkpt><trkpt lat="44.1977883" lon="10.5302567"><ele>1230.25</ele><time>2026-05-03T13:38:57.752Z</time></trkpt><trkpt lat="44.1978917" lon="10.5301767"><ele>1233.0</ele><time>2026-05-03T13:38:58.752Z</time></trkpt><trkpt lat="44.198" lon="10.530125"><ele>1233.0</ele><time>2026-05-03T13:38:59.751Z</time></trkpt><trkpt lat="44.1981067" lon="10.5301083"><ele>1233.0</ele><time>2026-05-03T13:39:00.752Z</time></trkpt><trkpt lat="44.1982" lon="10.5301033"><ele>1233.0</ele><time>2026-05-03T13:39:01.752Z</time></trkpt><trkpt lat="44.198275" lon="10.5300517"><ele>1233.0</ele><time>2026-05-03T13:39:02.752Z</time></trkpt><trkpt lat="44.1983367" lon="10.5299617"><ele>1233.0</ele><time>2026-05-03T13:39:03.752Z</time></trkpt><trkpt lat="44.1983683" lon="10.5298433"><ele>1233.1666666666667</ele><time>2026-05-03T13:39:04.751Z</time></trkpt><trkpt lat="44.1983833" lon="10.5297133"><ele>1233.3333333333333</ele><time>2026-05-03T13:39:05.752Z</time></trkpt><trkpt lat="44.19839" lon="10.5295917"><ele>1233.5</ele><time>2026-05-03T13:39:06.752Z</time></trkpt><trkpt lat="44.198405" lon="10.5294767"><ele>1233.6666666666665</ele><time>2026-05-03T13:39:07.752Z</time></trkpt><trkpt lat="44.1984567" lon="10.5293917"><ele>1233.8333333333333</ele><time>2026-05-03T13:39:08.751Z</time></trkpt><trkpt lat="44.1985233" lon="10.5293383"><ele>1234.0</ele><time>2026-05-03T13:39:09.752Z</time></trkpt><trkpt lat="44.1985967" lon="10.529305"><ele>1234.0</ele><time>2026-05-03T13:39:10.752Z</time></trkpt><trkpt lat="44.1986717" lon="10.5292867"><ele>1234.0</ele><time>2026-05-03T13:39:11.752Z</time></trkpt><trkpt lat="44.19874" lon="10.5293"><ele>1234.0</ele><time>2026-05-03T13:39:12.752Z</time></trkpt><trkpt lat="44.198795" lon="10.5293433"><ele>1234.0</ele><time>2026-05-03T13:39:13.751Z</time></trkpt><trkpt lat="44.1988417" lon="10.5294133"><ele>1234.0</ele><time>2026-05-03T13:39:14.752Z</time></trkpt><trkpt lat="44.1988867" lon="10.5295167"><ele>1234.0</ele><time>2026-05-03T13:39:15.751Z</time></trkpt><trkpt lat="44.1989283" lon="10.5296183"><ele>1234.0</ele><time>2026-05-03T13:39:16.752Z</time></trkpt><trkpt lat="44.1989717" lon="10.529725"><ele>1235.1666666666665</ele><time>2026-05-03T13:39:17.752Z</time></trkpt><trkpt lat="44.1990167" lon="10.529825"><ele>1236.3333333333333</ele><time>2026-05-03T13:39:18.751Z</time></trkpt><trkpt lat="44.19906" lon="10.5299183"><ele>1237.5</ele><time>2026-05-03T13:39:19.752Z</time></trkpt><trkpt lat="44.199115" lon="10.5300117"><ele>1238.6666666666667</ele><time>2026-05-03T13:39:20.752Z</time></trkpt><trkpt lat="44.199175" lon="10.5300983"><ele>1239.8333333333335</ele><time>2026-05-03T13:39:21.752Z</time></trkpt><trkpt lat="44.19925" lon="10.5301817"><ele>1241.0</ele><time>2026-05-03T13:39:22.752Z</time></trkpt><trkpt lat="44.1993417" lon="10.53025"><ele>1241.0</ele><time>2026-05-03T13:39:23.752Z</time></trkpt><trkpt lat="44.19945" lon="10.530295"><ele>1241.0</ele><time>2026-05-03T13:39:24.752Z</time></trkpt><trkpt lat="44.1995567" lon="10.53033"><ele>1241.0</ele><time>2026-05-03T13:39:25.752Z</time></trkpt><trkpt lat="44.1996667" lon="10.53039"><ele>1241.0</ele><time>2026-05-03T13:39:26.752Z</time></trkpt><trkpt lat="44.19977" lon="10.53048"><ele>1239.25</ele><time>2026-05-03T13:39:27.752Z</time></trkpt><trkpt lat="44.199865" lon="10.5305733"><ele>1237.5</ele><time>2026-05-03T13:39:28.752Z</time></trkpt><trkpt lat="44.19997" lon="10.5306583"><ele>1235.75</ele><time>2026-05-03T13:39:29.751Z</time></trkpt><trkpt lat="44.200085" lon="10.5307117"><ele>1234.0</ele><time>2026-05-03T13:39:30.752Z</time></trkpt><trkpt lat="44.2002083" lon="10.5307483"><ele>1234.0</ele><time>2026-05-03T13:39:31.751Z</time></trkpt><trkpt lat="44.2003383" lon="10.5307817"><ele>1234.0</ele><time>2026-05-03T13:39:32.752Z</time></trkpt><trkpt lat="44.2004617" lon="10.5308367"><ele>1234.0</ele><time>2026-05-03T13:39:33.752Z</time></trkpt><trkpt lat="44.2005883" lon="10.530895"><ele>1234.0</ele><time>2026-05-03T13:39:34.751Z</time></trkpt><trkpt lat="44.20072" lon="10.5309433"><ele>1233.5</ele><time>2026-05-03T13:39:35.752Z</time></trkpt><trkpt lat="44.2008517" lon="10.531"><ele>1233.0</ele><time>2026-05-03T13:39:36.752Z</time></trkpt><trkpt lat="44.2009767" lon="10.53105"><ele>1232.5</ele><time>2026-05-03T13:39:37.752Z</time></trkpt><trkpt lat="44.2010917" lon="10.5311"><ele>1232.0</ele><time>2026-05-03T13:39:38.752Z</time></trkpt><trkpt lat="44.2012117" lon="10.5311633"><ele>1232.0</ele><time>2026-05-03T13:39:39.751Z</time></trkpt><trkpt lat="44.201315" lon="10.5312233"><ele>1232.0</ele><time>2026-05-03T13:39:40.752Z</time></trkpt><trkpt lat="44.2014133" lon="10.5313117"><ele>1232.0</ele><time>2026-05-03T13:39:41.752Z</time></trkpt><trkpt lat="44.201505" lon="10.5314283"><ele>1232.0</ele><time>2026-05-03T13:39:42.751Z</time></trkpt><trkpt lat="44.2015883" lon="10.5315617"><ele>1230.5</ele><time>2026-05-03T13:39:43.752Z</time></trkpt><trkpt lat="44.2016683" lon="10.5317133"><ele>1229.0</ele><time>2026-05-03T13:39:44.752Z</time></trkpt><trkpt lat="44.2017483" lon="10.5318633"><ele>1227.5</ele><time>2026-05-03T13:39:45.752Z</time></trkpt><trkpt lat="44.2018267" lon="10.53202"><ele>1226.0</ele><time>2026-05-03T13:39:46.752Z</time></trkpt><trkpt lat="44.2019067" lon="10.5321833"><ele>1224.25</ele><time>2026-05-03T13:39:47.752Z</time></trkpt><trkpt lat="44.2019917" lon="10.5323467"><ele>1222.5</ele><time>2026-05-03T13:39:48.752Z</time></trkpt><trkpt lat="44.2020783" lon="10.532505"><ele>1220.75</ele><time>2026-05-03T13:39:49.752Z</time></trkpt><trkpt lat="44.2021617" lon="10.5326567"><ele>1219.0</ele><time>2026-05-03T13:39:50.752Z</time></trkpt><trkpt lat="44.2022467" lon="10.5328117"><ele>1220.0</ele><time>2026-05-03T13:39:51.752Z</time></trkpt><trkpt lat="44.2023283" lon="10.53296"><ele>1221.0</ele><time>2026-05-03T13:39:52.752Z</time></trkpt><trkpt lat="44.2024017" lon="10.5331033"><ele>1222.0</ele><time>2026-05-03T13:39:53.751Z</time></trkpt><trkpt lat="44.2024767" lon="10.5332433"><ele>1223.0</ele><time>2026-05-03T13:39:54.752Z</time></trkpt><trkpt lat="44.202555" lon="10.5333833"><ele>1223.0</ele><time>2026-05-03T13:39:55.752Z</time></trkpt><trkpt lat="44.202635" lon="10.5335317"><ele>1223.0</ele><time>2026-05-03T13:39:56.751Z</time></trkpt><trkpt lat="44.2027083" lon="10.5336717"><ele>1223.0</ele><time>2026-05-03T13:39:57.751Z</time></trkpt><trkpt lat="44.20278" lon="10.533825"><ele>1223.0</ele><time>2026-05-03T13:39:58.75Z</time></trkpt><trkpt lat="44.2028617" lon="10.5339733"><ele>1223.0</ele><time>2026-05-03T13:39:59.751Z</time></trkpt><trkpt lat="44.2029333" lon="10.5341367"><ele>1223.0</ele><time>2026-05-03T13:40:00.751Z</time></trkpt><trkpt lat="44.2030083" lon="10.5343067"><ele>1223.0</ele><time>2026-05-03T13:40:01.75Z</time></trkpt><trkpt lat="44.20308" lon="10.5344733"><ele>1223.0</ele><time>2026-05-03T13:40:02.75Z</time></trkpt><trkpt lat="44.203155" lon="10.5346317"><ele>1222.5</ele><time>2026-05-03T13:40:03.751Z</time></trkpt><trkpt lat="44.203235" lon="10.534785"><ele>1222.0</ele><time>2026-05-03T13:40:04.75Z</time></trkpt><trkpt lat="44.2033117" lon="10.5349267"><ele>1221.5</ele><time>2026-05-03T13:40:05.751Z</time></trkpt><trkpt lat="44.2033783" lon="10.5350667"><ele>1221.0</ele><time>2026-05-03T13:40:06.75Z</time></trkpt><trkpt lat="44.2034483" lon="10.53521"><ele>1221.0</ele><time>2026-05-03T13:40:07.751Z</time></trkpt><trkpt lat="44.20352" lon="10.5353633"><ele>1221.0</ele><time>2026-05-03T13:40:08.75Z</time></trkpt><trkpt lat="44.20359" lon="10.5355"><ele>1221.0</ele><time>2026-05-03T13:40:09.751Z</time></trkpt><trkpt lat="44.2036567" lon="10.5356117"><ele>1221.0</ele><time>2026-05-03T13:40:10.75Z</time></trkpt><trkpt lat="44.2037233" lon="10.5357083"><ele>1221.4285714285713</ele><time>2026-05-03T13:40:11.751Z</time></trkpt><trkpt lat="44.2037833" lon="10.5357917"><ele>1221.857142857143</ele><time>2026-05-03T13:40:12.75Z</time></trkpt><trkpt lat="44.2038367" lon="10.5358533"><ele>1222.2857142857142</ele><time>2026-05-03T13:40:13.751Z</time></trkpt><trkpt lat="44.20389" lon="10.5359167"><ele>1222.7142857142858</ele><time>2026-05-03T13:40:14.751Z</time></trkpt><trkpt lat="44.20394" lon="10.5359783"><ele>1223.142857142857</ele><time>2026-05-03T13:40:15.751Z</time></trkpt><trkpt lat="44.2039783" lon="10.5360567"><ele>1223.5714285714284</ele><time>2026-05-03T13:40:16.751Z</time></trkpt><trkpt lat="44.2039967" lon="10.536145"><ele>1224.0</ele><time>2026-05-03T13:40:17.75Z</time></trkpt><trkpt lat="44.204005" lon="10.5362483"><ele>1225.0</ele><time>2026-05-03T13:40:18.751Z</time></trkpt><trkpt lat="44.2040117" lon="10.5363667"><ele>1226.0</ele><time>2026-05-03T13:40:19.751Z</time></trkpt><trkpt lat="44.204015" lon="10.5364967"><ele>1227.0</ele><time>2026-05-03T13:40:20.751Z</time></trkpt><trkpt lat="44.2040283" lon="10.536605"><ele>1228.0</ele><time>2026-05-03T13:40:21.751Z</time></trkpt><trkpt lat="44.204065" lon="10.53669"><ele>1229.0</ele><time>2026-05-03T13:40:22.751Z</time></trkpt><trkpt lat="44.204115" lon="10.5368033"><ele>1230.0</ele><time>2026-05-03T13:40:23.751Z</time></trkpt><trkpt lat="44.2041617" lon="10.5369267"><ele>1230.1666666666667</ele><time>2026-05-03T13:40:24.75Z</time></trkpt><trkpt lat="44.2042117" lon="10.5370633"><ele>1230.3333333333333</ele><time>2026-05-03T13:40:25.751Z</time></trkpt><trkpt lat="44.2042583" lon="10.5371833"><ele>1230.5</ele><time>2026-05-03T13:40:26.751Z</time></trkpt><trkpt lat="44.2043017" lon="10.5372867"><ele>1230.6666666666665</ele><time>2026-05-03T13:40:27.75Z</time></trkpt><trkpt lat="44.20433" lon="10.5373867"><ele>1230.8333333333333</ele><time>2026-05-03T13:40:28.751Z</time></trkpt><trkpt lat="44.2043483" lon="10.53748"><ele>1231.0</ele><time>2026-05-03T13:40:29.751Z</time></trkpt><trkpt lat="44.2043617" lon="10.5375883"><ele>1231.0</ele><time>2026-05-03T13:40:30.751Z</time></trkpt><trkpt lat="44.2043917" lon="10.53768"><ele>1231.0</ele><time>2026-05-03T13:40:31.751Z</time></trkpt><trkpt lat="44.204415" lon="10.5377667"><ele>1231.0</ele><time>2026-05-03T13:40:32.751Z</time></trkpt><trkpt lat="44.2044433" lon="10.5379033"><ele>1231.0</ele><time>2026-05-03T13:40:34.751Z</time></trkpt><trkpt lat="44.2044867" lon="10.5380067"><ele>1231.0</ele><time>2026-05-03T13:40:36.751Z</time></trkpt><trkpt lat="44.2045117" lon="10.538155"><ele>1231.0</ele><time>2026-05-03T13:40:38.751Z</time></trkpt><trkpt lat="44.2044967" lon="10.5382583"><ele>1231.0</ele><time>2026-05-03T13:40:39.751Z</time></trkpt><trkpt lat="44.20447" lon="10.53837"><ele>1231.0</ele><time>2026-05-03T13:40:40.751Z</time></trkpt><trkpt lat="44.2044533" lon="10.53847"><ele>1231.0</ele><time>2026-05-03T13:40:41.75Z</time></trkpt><trkpt lat="44.2044517" lon="10.5385683"><ele>1231.0</ele><time>2026-05-03T13:40:42.75Z</time></trkpt><trkpt lat="44.2044933" lon="10.5386967"><ele>1231.0</ele><time>2026-05-03T13:40:44.751Z</time></trkpt><trkpt lat="44.2045467" lon="10.5387433"><ele>1231.0</ele><time>2026-05-03T13:40:45.751Z</time></trkpt><trkpt lat="44.2046617" lon="10.5387883"><ele>1230.6</ele><time>2026-05-03T13:40:47.751Z</time></trkpt><trkpt lat="44.2047817" lon="10.53884"><ele>1230.1999999999998</ele><time>2026-05-03T13:40:49.751Z</time></trkpt><trkpt lat="44.2048983" lon="10.5388917"><ele>1229.8000000000002</ele><time>2026-05-03T13:40:51.751Z</time></trkpt><trkpt lat="44.2049667" lon="10.5388983"><ele>1229.4</ele><time>2026-05-03T13:40:52.75Z</time></trkpt><trkpt lat="44.2050817" lon="10.538845"><ele>1229.0</ele><time>2026-05-03T13:40:54.75Z</time></trkpt><trkpt lat="44.205165" lon="10.5387183"><ele>1233.1666666666667</ele><time>2026-05-03T13:40:56.751Z</time></trkpt><trkpt lat="44.2052217" lon="10.5385867"><ele>1237.3333333333335</ele><time>2026-05-03T13:40:58.751Z</time></trkpt><trkpt lat="44.2052733" lon="10.5385333"><ele>1241.5</ele><time>2026-05-03T13:41:00.75Z</time></trkpt><trkpt lat="44.2053433" lon="10.5385833"><ele>1245.6666666666667</ele><time>2026-05-03T13:41:02.751Z</time></trkpt><trkpt lat="44.2053883" lon="10.5386483"><ele>1249.8333333333333</ele><time>2026-05-03T13:41:03.751Z</time></trkpt><trkpt lat="44.205435" lon="10.5387167"><ele>1254.0</ele><time>2026-05-03T13:41:04.75Z</time></trkpt><trkpt lat="44.205495" lon="10.5388083"><ele>1254.0</ele><time>2026-05-03T13:41:05.75Z</time></trkpt><trkpt lat="44.20556" lon="10.538905"><ele>1254.0</ele><time>2026-05-03T13:41:06.751Z</time></trkpt><trkpt lat="44.2056283" lon="10.53898"><ele>1254.0</ele><time>2026-05-03T13:41:07.751Z</time></trkpt><trkpt lat="44.205715" lon="10.5390383"><ele>1254.0</ele><time>2026-05-03T13:41:08.751Z</time></trkpt><trkpt lat="44.2057917" lon="10.5390967"><ele>1254.0</ele><time>2026-05-03T13:41:09.751Z</time></trkpt><trkpt lat="44.2058683" lon="10.5391633"><ele>1256.1666666666667</ele><time>2026-05-03T13:41:10.751Z</time></trkpt><trkpt lat="44.20593" lon="10.5392183"><ele>1258.3333333333333</ele><time>2026-05-03T13:41:11.751Z</time></trkpt><trkpt lat="44.205995" lon="10.5392783"><ele>1260.5</ele><time>2026-05-03T13:41:12.751Z</time></trkpt><trkpt lat="44.2060567" lon="10.5393283"><ele>1262.6666666666665</ele><time>2026-05-03T13:41:13.75Z</time></trkpt><trkpt lat="44.2061267" lon="10.5393833"><ele>1264.8333333333333</ele><time>2026-05-03T13:41:14.751Z</time></trkpt><trkpt lat="44.206195" lon="10.53943"><ele>1267.0</ele><time>2026-05-03T13:41:15.751Z</time></trkpt><trkpt lat="44.2063067" lon="10.5394733"><ele>1267.0</ele><time>2026-05-03T13:41:17.75Z</time></trkpt><trkpt lat="44.20638" lon="10.539475"><ele>1267.0</ele><time>2026-05-03T13:41:18.751Z</time></trkpt><trkpt lat="44.20645" lon="10.53948"><ele>1267.0</ele><time>2026-05-03T13:41:19.75Z</time></trkpt><trkpt lat="44.2065133" lon="10.5394983"><ele>1267.0</ele><time>2026-05-03T13:41:20.751Z</time></trkpt><trkpt lat="44.2066217" lon="10.5395717"><ele>1267.0</ele><time>2026-05-03T13:41:22.751Z</time></trkpt><trkpt lat="44.2066817" lon="10.5396183"><ele>1267.0</ele><time>2026-05-03T13:41:23.751Z</time></trkpt><trkpt lat="44.2067383" lon="10.5396717"><ele>1268.2857142857142</ele><time>2026-05-03T13:41:24.751Z</time></trkpt><trkpt lat="44.2067883" lon="10.53973"><ele>1269.5714285714284</ele><time>2026-05-03T13:41:25.751Z</time></trkpt><trkpt lat="44.20682" lon="10.5398067"><ele>1270.857142857143</ele><time>2026-05-03T13:41:26.751Z</time></trkpt><trkpt lat="44.2068333" lon="10.5398983"><ele>1272.142857142857</ele><time>2026-05-03T13:41:27.751Z</time></trkpt><trkpt lat="44.2068383" lon="10.540005"><ele>1273.4285714285713</ele><time>2026-05-03T13:41:28.751Z</time></trkpt><trkpt lat="44.2068367" lon="10.5401233"><ele>1274.7142857142858</ele><time>2026-05-03T13:41:29.751Z</time></trkpt><trkpt lat="44.2068117" lon="10.5402433"><ele>1276.0</ele><time>2026-05-03T13:41:30.751Z</time></trkpt><trkpt lat="44.20677" lon="10.540365"><ele>1277.4</ele><time>2026-05-03T13:41:31.75Z</time></trkpt><trkpt lat="44.20672" lon="10.5404667"><ele>1278.8</ele><time>2026-05-03T13:41:32.751Z</time></trkpt><trkpt lat="44.20666" lon="10.5405633"><ele>1280.2</ele><time>2026-05-03T13:41:33.751Z</time></trkpt><trkpt lat="44.20661" lon="10.5406683"><ele>1281.6000000000001</ele><time>2026-05-03T13:41:34.75Z</time></trkpt><trkpt lat="44.206555" lon="10.5407783"><ele>1283.0</ele><time>2026-05-03T13:41:35.751Z</time></trkpt><trkpt lat="44.2064983" lon="10.5408767"><ele>1280.3333333333335</ele><time>2026-05-03T13:41:36.751Z</time></trkpt><trkpt lat="44.2064467" lon="10.54097"><ele>1277.6666666666667</ele><time>2026-05-03T13:41:37.751Z</time></trkpt><trkpt lat="44.2064117" lon="10.5410533"><ele>1275.0</ele><time>2026-05-03T13:41:38.751Z</time></trkpt><trkpt lat="44.2063833" lon="10.54114"><ele>1272.3333333333333</ele><time>2026-05-03T13:41:39.75Z</time></trkpt><trkpt lat="44.206365" lon="10.5412383"><ele>1269.6666666666665</ele><time>2026-05-03T13:41:40.751Z</time></trkpt><trkpt lat="44.2063617" lon="10.5413317"><ele>1267.0</ele><time>2026-05-03T13:41:41.751Z</time></trkpt><trkpt lat="44.20642" lon="10.54149"><ele>1267.0</ele><time>2026-05-03T13:41:43.751Z</time></trkpt><trkpt lat="44.20646" lon="10.5415583"><ele>1267.0</ele><time>2026-05-03T13:41:44.751Z</time></trkpt><trkpt lat="44.2064917" lon="10.5416433"><ele>1267.0</ele><time>2026-05-03T13:41:45.751Z</time></trkpt><trkpt lat="44.2065417" lon="10.541815"><ele>1267.0</ele><time>2026-05-03T13:41:47.75Z</time></trkpt><trkpt lat="44.206565" lon="10.54192"><ele>1267.0</ele><time>2026-05-03T13:41:48.751Z</time></trkpt><trkpt lat="44.2065883" lon="10.5420233"><ele>1267.0</ele><time>2026-05-03T13:41:49.75Z</time></trkpt><trkpt lat="44.20662" lon="10.542135"><ele>1269.3333333333333</ele><time>2026-05-03T13:41:50.751Z</time></trkpt><trkpt lat="44.206645" lon="10.5422233"><ele>1271.6666666666665</ele><time>2026-05-03T13:41:51.75Z</time></trkpt><trkpt lat="44.2066783" lon="10.5423133"><ele>1274.0</ele><time>2026-05-03T13:41:53.751Z</time></trkpt><trkpt lat="44.206725" lon="10.5423767"><ele>1276.3333333333333</ele><time>2026-05-03T13:43:36.751Z</time></trkpt><trkpt lat="44.206745" lon="10.5425183"><ele>1278.6666666666667</ele><time>2026-05-03T13:43:39.751Z</time></trkpt><trkpt lat="44.2067333" lon="10.54266"><ele>1281.0</ele><time>2026-05-03T13:43:41.751Z</time></trkpt><trkpt lat="44.2066967" lon="10.54282"><ele>1281.3333333333333</ele><time>2026-05-03T13:43:43.751Z</time></trkpt><trkpt lat="44.206685" lon="10.5429233"><ele>1281.6666666666667</ele><time>2026-05-03T13:43:44.751Z</time></trkpt><trkpt lat="44.20667" lon="10.5430317"><ele>1282.0</ele><time>2026-05-03T13:43:45.751Z</time></trkpt><trkpt lat="44.206625" lon="10.5432017"><ele>1282.3333333333335</ele><time>2026-05-03T13:43:47.75Z</time></trkpt><trkpt lat="44.206575" lon="10.5432867"><ele>1282.6666666666667</ele><time>2026-05-03T13:43:48.751Z</time></trkpt><trkpt lat="44.20653" lon="10.5433617"><ele>1283.0</ele><time>2026-05-03T13:43:49.751Z</time></trkpt><trkpt lat="44.2064767" lon="10.5434383"><ele>1282.0</ele><time>2026-05-03T13:43:50.751Z</time></trkpt><trkpt lat="44.2064017" lon="10.5435083"><ele>1281.0</ele><time>2026-05-03T13:43:51.751Z</time></trkpt><trkpt lat="44.2063217" lon="10.5435767"><ele>1280.0</ele><time>2026-05-03T13:43:52.751Z</time></trkpt><trkpt lat="44.2062383" lon="10.5436467"><ele>1279.0</ele><time>2026-05-03T13:43:53.751Z</time></trkpt><trkpt lat="44.2061533" lon="10.5437183"><ele>1278.0</ele><time>2026-05-03T13:43:54.751Z</time></trkpt><trkpt lat="44.20607" lon="10.54379"><ele>1278.0</ele><time>2026-05-03T13:43:55.751Z</time></trkpt><trkpt lat="44.2059933" lon="10.543855"><ele>1278.0</ele><time>2026-05-03T13:43:56.751Z</time></trkpt><trkpt lat="44.2059183" lon="10.5439217"><ele>1278.0</ele><time>2026-05-03T13:43:57.751Z</time></trkpt><trkpt lat="44.2058583" lon="10.5439833"><ele>1278.0</ele><time>2026-05-03T13:43:58.75Z</time></trkpt><trkpt lat="44.2057983" lon="10.5440333"><ele>1278.0</ele><time>2026-05-03T13:43:59.751Z</time></trkpt><trkpt lat="44.2057083" lon="10.5441267"><ele>1278.0</ele><time>2026-05-03T13:44:01.75Z</time></trkpt><trkpt lat="44.2056633" lon="10.5442483"><ele>1278.0</ele><time>2026-05-03T13:44:03.751Z</time></trkpt><trkpt lat="44.2056667" lon="10.5444433"><ele>1278.0</ele><time>2026-05-03T13:44:05.751Z</time></trkpt><trkpt lat="44.2056783" lon="10.5445633"><ele>1278.0</ele><time>2026-05-03T13:44:06.751Z</time></trkpt><trkpt lat="44.2057" lon="10.5446733"><ele>1278.0</ele><time>2026-05-03T13:44:07.75Z</time></trkpt><trkpt lat="44.2057183" lon="10.5447733"><ele>1278.0</ele><time>2026-05-03T13:44:08.751Z</time></trkpt><trkpt lat="44.2057233" lon="10.5448767"><ele>1277.1666666666667</ele><time>2026-05-03T13:44:09.751Z</time></trkpt><trkpt lat="44.20572" lon="10.5449717"><ele>1276.3333333333333</ele><time>2026-05-03T13:44:10.75Z</time></trkpt><trkpt lat="44.2057133" lon="10.5450667"><ele>1275.5</ele><time>2026-05-03T13:44:11.751Z</time></trkpt><trkpt lat="44.2056983" lon="10.545165"><ele>1274.6666666666665</ele><time>2026-05-03T13:44:12.75Z</time></trkpt><trkpt lat="44.2056767" lon="10.5452617"><ele>1273.8333333333333</ele><time>2026-05-03T13:44:13.751Z</time></trkpt><trkpt lat="44.2056617" lon="10.5453567"><ele>1273.0</ele><time>2026-05-03T13:44:14.751Z</time></trkpt><trkpt lat="44.20565" lon="10.545505"><ele>1269.8333333333333</ele><time>2026-05-03T13:44:16.751Z</time></trkpt><trkpt lat="44.205605" lon="10.545625"><ele>1266.6666666666665</ele><time>2026-05-03T13:44:18.751Z</time></trkpt><trkpt lat="44.2055167" lon="10.5457333"><ele>1263.5</ele><time>2026-05-03T13:44:20.751Z</time></trkpt><trkpt lat="44.2054633" lon="10.5458083"><ele>1260.3333333333333</ele><time>2026-05-03T13:44:21.75Z</time></trkpt><trkpt lat="44.205415" lon="10.545875"><ele>1257.1666666666667</ele><time>2026-05-03T13:44:22.75Z</time></trkpt><trkpt lat="44.2053533" lon="10.5459683"><ele>1254.0</ele><time>2026-05-03T13:44:23.75Z</time></trkpt><trkpt lat="44.2052967" lon="10.5460567"><ele>1254.0</ele><time>2026-05-03T13:44:24.751Z</time></trkpt><trkpt lat="44.205255" lon="10.5461333"><ele>1254.0</ele><time>2026-05-03T13:44:25.75Z</time></trkpt><trkpt lat="44.2052117" lon="10.54623"><ele>1254.0</ele><time>2026-05-03T13:44:26.75Z</time></trkpt><trkpt lat="44.2051767" lon="10.5463367"><ele>1254.0</ele><time>2026-05-03T13:44:27.75Z</time></trkpt><trkpt lat="44.2051583" lon="10.546445"><ele>1254.0</ele><time>2026-05-03T13:44:28.751Z</time></trkpt><trkpt lat="44.2051517" lon="10.54657"><ele>1254.0</ele><time>2026-05-03T13:44:29.75Z</time></trkpt><trkpt lat="44.2051533" lon="10.5466817"><ele>1254.5714285714287</ele><time>2026-05-03T13:44:30.751Z</time></trkpt><trkpt lat="44.2051717" lon="10.54678"><ele>1255.142857142857</ele><time>2026-05-03T13:44:31.751Z</time></trkpt><trkpt lat="44.2051983" lon="10.546885"><ele>1255.7142857142858</ele><time>2026-05-03T13:44:32.751Z</time></trkpt><trkpt lat="44.205225" lon="10.5469733"><ele>1256.2857142857142</ele><time>2026-05-03T13:44:33.751Z</time></trkpt><trkpt lat="44.2052467" lon="10.5470667"><ele>1256.857142857143</ele><time>2026-05-03T13:44:34.751Z</time></trkpt><trkpt lat="44.2052667" lon="10.5471583"><ele>1257.4285714285713</ele><time>2026-05-03T13:44:35.751Z</time></trkpt><trkpt lat="44.2052967" lon="10.547255"><ele>1258.0</ele><time>2026-05-03T13:44:36.751Z</time></trkpt><trkpt lat="44.205335" lon="10.5473367"><ele>1258.0</ele><time>2026-05-03T13:44:37.75Z</time></trkpt><trkpt lat="44.2053817" lon="10.5474133"><ele>1258.0</ele><time>2026-05-03T13:44:38.751Z</time></trkpt><trkpt lat="44.205435" lon="10.5474933"><ele>1258.0</ele><time>2026-05-03T13:44:39.75Z</time></trkpt><trkpt lat="44.205495" lon="10.5475833"><ele>1258.0</ele><time>2026-05-03T13:44:40.75Z</time></trkpt><trkpt lat="44.2055533" lon="10.547675"><ele>1258.0</ele><time>2026-05-03T13:44:41.751Z</time></trkpt><trkpt lat="44.205605" lon="10.5477667"><ele>1258.0</ele><time>2026-05-03T13:44:42.751Z</time></trkpt><trkpt lat="44.20565" lon="10.5478633"><ele>1260.5714285714284</ele><time>2026-05-03T13:44:43.751Z</time></trkpt><trkpt lat="44.2056933" lon="10.5479533"><ele>1263.1428571428573</ele><time>2026-05-03T13:44:44.75Z</time></trkpt><trkpt lat="44.20574" lon="10.5480417"><ele>1265.7142857142858</ele><time>2026-05-03T13:44:45.751Z</time></trkpt><trkpt lat="44.205785" lon="10.5481183"><ele>1268.2857142857142</ele><time>2026-05-03T13:44:46.751Z</time></trkpt><trkpt lat="44.20583" lon="10.5481933"><ele>1270.8571428571427</ele><time>2026-05-03T13:44:47.751Z</time></trkpt><trkpt lat="44.20588" lon="10.548265"><ele>1273.4285714285716</ele><time>2026-05-03T13:44:48.751Z</time></trkpt><trkpt lat="44.2059317" lon="10.5483267"><ele>1276.0</ele><time>2026-05-03T13:44:49.751Z</time></trkpt><trkpt lat="44.2060267" lon="10.5484217"><ele>1276.0</ele><time>2026-05-03T13:44:51.751Z</time></trkpt><trkpt lat="44.2060817" lon="10.548465"><ele>1276.0</ele><time>2026-05-03T13:44:52.75Z</time></trkpt><trkpt lat="44.2061567" lon="10.54852"><ele>1276.0</ele><time>2026-05-03T13:44:53.751Z</time></trkpt><trkpt lat="44.2062333" lon="10.5485883"><ele>1276.0</ele><time>2026-05-03T13:44:54.751Z</time></trkpt><trkpt lat="44.2063133" lon="10.5486667"><ele>1276.0</ele><time>2026-05-03T13:44:55.751Z</time></trkpt><trkpt lat="44.20639" lon="10.5487383"><ele>1276.0</ele><time>2026-05-03T13:44:56.75Z</time></trkpt><trkpt lat="44.2064667" lon="10.5488083"><ele>1278.6666666666665</ele><time>2026-05-03T13:44:57.751Z</time></trkpt><trkpt lat="44.2065517" lon="10.5488933"><ele>1281.3333333333333</ele><time>2026-05-03T13:44:58.75Z</time></trkpt><trkpt lat="44.2066217" lon="10.5489633"><ele>1284.0</ele><time>2026-05-03T13:44:59.75Z</time></trkpt><trkpt lat="44.2066883" lon="10.5490333"><ele>1286.6666666666667</ele><time>2026-05-03T13:45:00.751Z</time></trkpt><trkpt lat="44.2067333" lon="10.549095"><ele>1289.3333333333335</ele><time>2026-05-03T13:45:01.751Z</time></trkpt><trkpt lat="44.2067717" lon="10.5491767"><ele>1292.0</ele><time>2026-05-03T13:45:02.75Z</time></trkpt><trkpt lat="44.206785" lon="10.549265"><ele>1292.0</ele><time>2026-05-03T13:45:03.751Z</time></trkpt><trkpt lat="44.2067883" lon="10.54937"><ele>1292.0</ele><time>2026-05-03T13:45:04.751Z</time></trkpt><trkpt lat="44.206805" lon="10.5494783"><ele>1292.0</ele><time>2026-05-03T13:45:05.75Z</time></trkpt><trkpt lat="44.2068267" lon="10.549575"><ele>1292.0</ele><time>2026-05-03T13:45:06.751Z</time></trkpt><trkpt lat="44.2068617" lon="10.5496717"><ele>1292.0</ele><time>2026-05-03T13:45:07.751Z</time></trkpt><trkpt lat="44.2069017" lon="10.5497883"><ele>1292.0</ele><time>2026-05-03T13:45:08.751Z</time></trkpt><trkpt lat="44.2069433" lon="10.5499117"><ele>1291.1999999999998</ele><time>2026-05-03T13:45:09.751Z</time></trkpt><trkpt lat="44.20698" lon="10.5500383"><ele>1290.4</ele><time>2026-05-03T13:45:10.75Z</time></trkpt><trkpt lat="44.2069933" lon="10.5501667"><ele>1289.6</ele><time>2026-05-03T13:45:11.751Z</time></trkpt><trkpt lat="44.2069883" lon="10.5502783"><ele>1288.8000000000002</ele><time>2026-05-03T13:45:12.751Z</time></trkpt><trkpt lat="44.2069733" lon="10.5504533"><ele>1288.0</ele><time>2026-05-03T13:45:14.75Z</time></trkpt><trkpt lat="44.2069933" lon="10.55054"><ele>1288.0</ele><time>2026-05-03T13:45:15.749Z</time></trkpt><trkpt lat="44.2070617" lon="10.5506567"><ele>1288.0</ele><time>2026-05-03T13:45:17.75Z</time></trkpt><trkpt lat="44.2071333" lon="10.5507183"><ele>1288.0</ele><time>2026-05-03T13:45:19.75Z</time></trkpt><trkpt lat="44.2072267" lon="10.55072"><ele>1288.0</ele><time>2026-05-03T13:45:21.75Z</time></trkpt><trkpt lat="44.2073383" lon="10.550695"><ele>1288.0</ele><time>2026-05-03T13:45:23.749Z</time></trkpt><trkpt lat="44.2074633" lon="10.5506867"><ele>1291.0</ele><time>2026-05-03T13:45:25.75Z</time></trkpt><trkpt lat="44.2075367" lon="10.5506933"><ele>1294.0</ele><time>2026-05-03T13:45:26.75Z</time></trkpt><trkpt lat="44.20761" lon="10.5507067"><ele>1297.0</ele><time>2026-05-03T13:45:27.75Z</time></trkpt><trkpt lat="44.2076883" lon="10.5507383"><ele>1300.0</ele><time>2026-05-03T13:45:28.749Z</time></trkpt><trkpt lat="44.2077667" lon="10.5507817"><ele>1303.0</ele><time>2026-05-03T13:45:29.749Z</time></trkpt><trkpt lat="44.2078383" lon="10.55084"><ele>1306.0</ele><time>2026-05-03T13:45:30.75Z</time></trkpt><trkpt lat="44.2078967" lon="10.5509017"><ele>1306.0</ele><time>2026-05-03T13:45:31.749Z</time></trkpt><trkpt lat="44.20793" lon="10.5509867"><ele>1306.0</ele><time>2026-05-03T13:45:32.75Z</time></trkpt><trkpt lat="44.2079483" lon="10.5510883"><ele>1306.0</ele><time>2026-05-03T13:45:33.75Z</time></trkpt><trkpt lat="44.207955" lon="10.5512067"><ele>1306.0</ele><time>2026-05-03T13:45:34.75Z</time></trkpt><trkpt lat="44.2079533" lon="10.5513267"><ele>1306.0</ele><time>2026-05-03T13:45:35.75Z</time></trkpt><trkpt lat="44.2079567" lon="10.5514433"><ele>1306.0</ele><time>2026-05-03T13:45:36.75Z</time></trkpt><trkpt lat="44.207955" lon="10.5515617"><ele>1308.0</ele><time>2026-05-03T13:45:37.75Z</time></trkpt><trkpt lat="44.2079417" lon="10.5516817"><ele>1310.0</ele><time>2026-05-03T13:45:38.75Z</time></trkpt><trkpt lat="44.2078783" lon="10.5519267"><ele>1312.0</ele><time>2026-05-03T13:45:40.749Z</time></trkpt><trkpt lat="44.207815" lon="10.5520167"><ele>1314.0</ele><time>2026-05-03T13:45:41.749Z</time></trkpt><trkpt lat="44.2076783" lon="10.5522217"><ele>1315.8333333333333</ele><time>2026-05-03T13:45:43.75Z</time></trkpt><trkpt lat="44.20761" lon="10.55231"><ele>1317.6666666666667</ele><time>2026-05-03T13:45:44.75Z</time></trkpt><trkpt lat="44.2075433" lon="10.5523917"><ele>1319.5</ele><time>2026-05-03T13:45:45.75Z</time></trkpt><trkpt lat="44.20749" lon="10.552465"><ele>1321.3333333333335</ele><time>2026-05-03T13:45:46.75Z</time></trkpt><trkpt lat="44.2074433" lon="10.5525467"><ele>1323.1666666666667</ele><time>2026-05-03T13:45:47.75Z</time></trkpt><trkpt lat="44.2074033" lon="10.552625"><ele>1325.0</ele><time>2026-05-03T13:45:48.749Z</time></trkpt><trkpt lat="44.207375" lon="10.55274"><ele>1325.0</ele><time>2026-05-03T13:45:49.75Z</time></trkpt><trkpt lat="44.207365" lon="10.552845"><ele>1325.0</ele><time>2026-05-03T13:45:50.75Z</time></trkpt><trkpt lat="44.2073483" lon="10.5529533"><ele>1325.0</ele><time>2026-05-03T13:45:51.75Z</time></trkpt><trkpt lat="44.207305" lon="10.5530783"><ele>1325.0</ele><time>2026-05-03T13:45:52.749Z</time></trkpt><trkpt lat="44.207255" lon="10.553185"><ele>1325.0</ele><time>2026-05-03T13:45:53.75Z</time></trkpt><trkpt lat="44.20721" lon="10.55328"><ele>1325.0</ele><time>2026-05-03T13:45:54.75Z</time></trkpt><trkpt lat="44.2071683" lon="10.5533867"><ele>1321.8333333333335</ele><time>2026-05-03T13:45:55.75Z</time></trkpt><trkpt lat="44.20713" lon="10.55349"><ele>1318.6666666666667</ele><time>2026-05-03T13:45:56.75Z</time></trkpt><trkpt lat="44.2070933" lon="10.5536017"><ele>1315.5</ele><time>2026-05-03T13:45:57.75Z</time></trkpt><trkpt lat="44.2070683" lon="10.5537167"><ele>1312.3333333333333</ele><time>2026-05-03T13:45:58.75Z</time></trkpt><trkpt lat="44.2070467" lon="10.5538233"><ele>1309.1666666666665</ele><time>2026-05-03T13:45:59.749Z</time></trkpt><trkpt lat="44.20703" lon="10.5539183"><ele>1306.0</ele><time>2026-05-03T13:46:00.75Z</time></trkpt><trkpt lat="44.2069983" lon="10.5541"><ele>1306.0</ele><time>2026-05-03T13:46:03.75Z</time></trkpt><trkpt lat="44.2069833" lon="10.5542317"><ele>1306.0</ele><time>2026-05-03T13:46:05.75Z</time></trkpt><trkpt lat="44.2069633" lon="10.5543367"><ele>1306.0</ele><time>2026-05-03T13:46:07.75Z</time></trkpt><trkpt lat="44.206945" lon="10.5544383"><ele>1306.0</ele><time>2026-05-03T13:46:19.75Z</time></trkpt><trkpt lat="44.2068867" lon="10.5544783"><ele>1306.0</ele><time>2026-05-03T13:46:21.75Z</time></trkpt><trkpt lat="44.2068333" lon="10.5545283"><ele>1306.0</ele><time>2026-05-03T13:46:22.749Z</time></trkpt><trkpt lat="44.2067517" lon="10.5546117"><ele>1308.0</ele><time>2026-05-03T13:46:23.75Z</time></trkpt><trkpt lat="44.2066817" lon="10.5547133"><ele>1310.0</ele><time>2026-05-03T13:46:24.75Z</time></trkpt><trkpt lat="44.2066267" lon="10.55481"><ele>1312.0</ele><time>2026-05-03T13:46:25.75Z</time></trkpt><trkpt lat="44.2065833" lon="10.55491"><ele>1314.0</ele><time>2026-05-03T13:46:26.75Z</time></trkpt><trkpt lat="44.2065383" lon="10.5550217"><ele>1316.0</ele><time>2026-05-03T13:46:27.75Z</time></trkpt><trkpt lat="44.2064967" lon="10.5551517"><ele>1312.8</ele><time>2026-05-03T13:46:28.75Z</time></trkpt><trkpt lat="44.20645" lon="10.5552667"><ele>1309.6</ele><time>2026-05-03T13:46:29.75Z</time></trkpt><trkpt lat="44.2064033" lon="10.5553833"><ele>1306.4</ele><time>2026-05-03T13:46:30.749Z</time></trkpt><trkpt lat="44.20635" lon="10.5554967"><ele>1303.2</ele><time>2026-05-03T13:46:31.749Z</time></trkpt><trkpt lat="44.2063033" lon="10.555605"><ele>1300.0</ele><time>2026-05-03T13:46:32.749Z</time></trkpt><trkpt lat="44.2062633" lon="10.5557017"><ele>1300.0</ele><time>2026-05-03T13:46:33.75Z</time></trkpt><trkpt lat="44.2062183" lon="10.5558117"><ele>1300.0</ele><time>2026-05-03T13:46:34.75Z</time></trkpt><trkpt lat="44.20618" lon="10.5559217"><ele>1300.0</ele><time>2026-05-03T13:46:35.749Z</time></trkpt><trkpt lat="44.20615" lon="10.5560283"><ele>1300.0</ele><time>2026-05-03T13:46:36.75Z</time></trkpt><trkpt lat="44.20611" lon="10.556115"><ele>1300.0</ele><time>2026-05-03T13:46:37.75Z</time></trkpt><trkpt lat="44.2060767" lon="10.5562467"><ele>1300.0</ele><time>2026-05-03T13:46:39.75Z</time></trkpt><trkpt lat="44.2061383" lon="10.556355"><ele>1301.0</ele><time>2026-05-03T13:46:41.75Z</time></trkpt><trkpt lat="44.2062467" lon="10.556415"><ele>1302.0</ele><time>2026-05-03T13:46:43.75Z</time></trkpt><trkpt lat="44.20633" lon="10.5564233"><ele>1303.0</ele><time>2026-05-03T13:46:44.75Z</time></trkpt><trkpt lat="44.206445" lon="10.5564283"><ele>1304.0</ele><time>2026-05-03T13:46:45.75Z</time></trkpt><trkpt lat="44.2065583" lon="10.5564167"><ele>1305.0</ele><time>2026-05-03T13:46:46.75Z</time></trkpt><trkpt lat="44.2066633" lon="10.556415"><ele>1305.25</ele><time>2026-05-03T13:46:47.75Z</time></trkpt><trkpt lat="44.2067683" lon="10.5564117"><ele>1305.5</ele><time>2026-05-03T13:46:48.75Z</time></trkpt><trkpt lat="44.2068833" lon="10.5564067"><ele>1305.75</ele><time>2026-05-03T13:46:49.75Z</time></trkpt><trkpt lat="44.2070033" lon="10.5563833"><ele>1306.0</ele><time>2026-05-03T13:46:50.75Z</time></trkpt><trkpt lat="44.2071217" lon="10.5563867"><ele>1306.0</ele><time>2026-05-03T13:46:51.75Z</time></trkpt><trkpt lat="44.2072333" lon="10.556375"><ele>1306.0</ele><time>2026-05-03T13:46:52.75Z</time></trkpt><trkpt lat="44.2073383" lon="10.5563533"><ele>1306.0</ele><time>2026-05-03T13:46:53.75Z</time></trkpt><trkpt lat="44.2074433" lon="10.5563383"><ele>1306.0</ele><time>2026-05-03T13:46:54.75Z</time></trkpt><trkpt lat="44.20756" lon="10.5563133"><ele>1306.0</ele><time>2026-05-03T13:46:55.75Z</time></trkpt><trkpt lat="44.2076917" lon="10.5562883"><ele>1307.25</ele><time>2026-05-03T13:46:56.749Z</time></trkpt><trkpt lat="44.2078083" lon="10.556275"><ele>1308.5</ele><time>2026-05-03T13:46:57.75Z</time></trkpt><trkpt lat="44.2079283" lon="10.556255"><ele>1309.75</ele><time>2026-05-03T13:46:58.75Z</time></trkpt><trkpt lat="44.2080317" lon="10.55623"><ele>1311.0</ele><time>2026-05-03T13:46:59.75Z</time></trkpt><trkpt lat="44.20814" lon="10.55622"><ele>1311.0</ele><time>2026-05-03T13:47:00.749Z</time></trkpt><trkpt lat="44.2082433" lon="10.5562067"><ele>1311.0</ele><time>2026-05-03T13:47:01.749Z</time></trkpt><trkpt lat="44.2083467" lon="10.5561867"><ele>1311.0</ele><time>2026-05-03T13:47:02.749Z</time></trkpt><trkpt lat="44.2084467" lon="10.5561667"><ele>1311.0</ele><time>2026-05-03T13:47:03.75Z</time></trkpt><trkpt lat="44.20854" lon="10.556135"><ele>1311.0</ele><time>2026-05-03T13:47:04.75Z</time></trkpt><trkpt lat="44.208625" lon="10.55611"><ele>1310.8</ele><time>2026-05-03T13:47:05.75Z</time></trkpt><trkpt lat="44.2087233" lon="10.5561067"><ele>1310.6</ele><time>2026-05-03T13:47:06.75Z</time></trkpt><trkpt lat="44.2088067" lon="10.556115"><ele>1310.4</ele><time>2026-05-03T13:47:07.749Z</time></trkpt><trkpt lat="44.20889" lon="10.5561467"><ele>1310.2</ele><time>2026-05-03T13:47:08.75Z</time></trkpt><trkpt lat="44.2089733" lon="10.5562"><ele>1310.0</ele><time>2026-05-03T13:47:09.749Z</time></trkpt><trkpt lat="44.2090617" lon="10.55628"><ele>1310.0</ele><time>2026-05-03T13:47:10.75Z</time></trkpt><trkpt lat="44.20916" lon="10.55636"><ele>1310.0</ele><time>2026-05-03T13:47:11.75Z</time></trkpt><trkpt lat="44.2092617" lon="10.55644"><ele>1310.0</ele><time>2026-05-03T13:47:12.75Z</time></trkpt><trkpt lat="44.2093717" lon="10.55649"><ele>1310.0</ele><time>2026-05-03T13:47:13.75Z</time></trkpt><trkpt lat="44.209475" lon="10.55653"><ele>1310.0</ele><time>2026-05-03T13:47:14.75Z</time></trkpt><trkpt lat="44.2095817" lon="10.5565683"><ele>1310.0</ele><time>2026-05-03T13:47:15.749Z</time></trkpt><trkpt lat="44.2096867" lon="10.55661"><ele>1310.0</ele><time>2026-05-03T13:47:16.75Z</time></trkpt><trkpt lat="44.2097867" lon="10.5566467"><ele>1310.0</ele><time>2026-05-03T13:47:17.75Z</time></trkpt><trkpt lat="44.209865" lon="10.5566917"><ele>1310.0</ele><time>2026-05-03T13:47:18.749Z</time></trkpt><trkpt lat="44.20994" lon="10.556725"><ele>1310.8333333333335</ele><time>2026-05-03T13:47:19.749Z</time></trkpt><trkpt lat="44.2100083" lon="10.5567467"><ele>1311.6666666666667</ele><time>2026-05-03T13:47:20.75Z</time></trkpt><trkpt lat="44.2100817" lon="10.5567567"><ele>1312.5</ele><time>2026-05-03T13:47:21.75Z</time></trkpt><trkpt lat="44.2101567" lon="10.556735"><ele>1313.3333333333333</ele><time>2026-05-03T13:47:22.749Z</time></trkpt><trkpt lat="44.2102367" lon="10.5566767"><ele>1314.1666666666665</ele><time>2026-05-03T13:47:23.75Z</time></trkpt><trkpt lat="44.2103333" lon="10.5565933"><ele>1315.0</ele><time>2026-05-03T13:47:24.75Z</time></trkpt><trkpt lat="44.210445" lon="10.55652"><ele>1315.0</ele><time>2026-05-03T13:47:25.75Z</time></trkpt><trkpt lat="44.2105567" lon="10.55645"><ele>1315.0</ele><time>2026-05-03T13:47:26.75Z</time></trkpt><trkpt lat="44.2106733" lon="10.5564083"><ele>1315.0</ele><time>2026-05-03T13:47:27.75Z</time></trkpt><trkpt lat="44.2107883" lon="10.5563483"><ele>1315.0</ele><time>2026-05-03T13:47:28.75Z</time></trkpt><trkpt lat="44.2109033" lon="10.5563033"><ele>1315.6</ele><time>2026-05-03T13:47:29.75Z</time></trkpt><trkpt lat="44.2110083" lon="10.5562517"><ele>1316.2</ele><time>2026-05-03T13:47:30.75Z</time></trkpt><trkpt lat="44.2111067" lon="10.556215"><ele>1316.8000000000002</ele><time>2026-05-03T13:47:31.75Z</time></trkpt><trkpt lat="44.2112033" lon="10.5562167"><ele>1317.4</ele><time>2026-05-03T13:47:32.75Z</time></trkpt><trkpt lat="44.2113017" lon="10.5562333"><ele>1318.0</ele><time>2026-05-03T13:47:33.749Z</time></trkpt><trkpt lat="44.21141" lon="10.5562617"><ele>1320.0</ele><time>2026-05-03T13:47:34.75Z</time></trkpt><trkpt lat="44.211505" lon="10.5562917"><ele>1322.0</ele><time>2026-05-03T13:47:35.75Z</time></trkpt><trkpt lat="44.2115917" lon="10.5563383"><ele>1324.0</ele><time>2026-05-03T13:47:36.75Z</time></trkpt><trkpt lat="44.21167" lon="10.556405"><ele>1326.0</ele><time>2026-05-03T13:47:37.75Z</time></trkpt><trkpt lat="44.2117383" lon="10.5564917"><ele>1328.0</ele><time>2026-05-03T13:47:38.75Z</time></trkpt><trkpt lat="44.2118067" lon="10.55659"><ele>1328.0</ele><time>2026-05-03T13:47:39.75Z</time></trkpt><trkpt lat="44.2118717" lon="10.5567217"><ele>1328.0</ele><time>2026-05-03T13:47:40.75Z</time></trkpt><trkpt lat="44.2119367" lon="10.55686"><ele>1328.0</ele><time>2026-05-03T13:47:41.75Z</time></trkpt><trkpt lat="44.2120033" lon="10.5569833"><ele>1328.0</ele><time>2026-05-03T13:47:42.75Z</time></trkpt><trkpt lat="44.2120633" lon="10.557115"><ele>1327.8333333333335</ele><time>2026-05-03T13:47:43.75Z</time></trkpt><trkpt lat="44.21211" lon="10.5572117"><ele>1327.6666666666667</ele><time>2026-05-03T13:47:44.75Z</time></trkpt><trkpt lat="44.2121483" lon="10.55732"><ele>1327.5</ele><time>2026-05-03T13:47:45.75Z</time></trkpt><trkpt lat="44.2121883" lon="10.5574233"><ele>1327.3333333333333</ele><time>2026-05-03T13:47:46.75Z</time></trkpt><trkpt lat="44.2122233" lon="10.5575067"><ele>1327.1666666666665</ele><time>2026-05-03T13:47:47.749Z</time></trkpt><trkpt lat="44.21226" lon="10.5576033"><ele>1327.0</ele><time>2026-05-03T13:47:48.75Z</time></trkpt><trkpt lat="44.212295" lon="10.5577083"><ele>1327.8</ele><time>2026-05-03T13:47:49.749Z</time></trkpt><trkpt lat="44.2123317" lon="10.5578183"><ele>1328.6</ele><time>2026-05-03T13:47:50.749Z</time></trkpt><trkpt lat="44.21236" lon="10.5579367"><ele>1329.3999999999999</ele><time>2026-05-03T13:47:51.75Z</time></trkpt><trkpt lat="44.2123983" lon="10.5580583"><ele>1330.1999999999998</ele><time>2026-05-03T13:47:52.75Z</time></trkpt><trkpt lat="44.21243" lon="10.5581867"><ele>1331.0</ele><time>2026-05-03T13:47:53.75Z</time></trkpt><trkpt lat="44.212455" lon="10.5583117"><ele>1331.0</ele><time>2026-05-03T13:47:54.75Z</time></trkpt><trkpt lat="44.21247" lon="10.5584317"><ele>1331.0</ele><time>2026-05-03T13:47:55.75Z</time></trkpt><trkpt lat="44.2124967" lon="10.5585383"><ele>1331.0</ele><time>2026-05-03T13:47:56.75Z</time></trkpt><trkpt lat="44.2125283" lon="10.5586567"><ele>1331.0</ele><time>2026-05-03T13:47:57.75Z</time></trkpt><trkpt lat="44.212575" lon="10.5587783"><ele>1331.0</ele><time>2026-05-03T13:47:58.75Z</time></trkpt><trkpt lat="44.2126217" lon="10.5588883"><ele>1331.0</ele><time>2026-05-03T13:47:59.749Z</time></trkpt><trkpt lat="44.212655" lon="10.5589967"><ele>1329.3333333333335</ele><time>2026-05-03T13:48:00.75Z</time></trkpt><trkpt lat="44.21267" lon="10.5591133"><ele>1327.6666666666667</ele><time>2026-05-03T13:48:01.75Z</time></trkpt><trkpt lat="44.2126717" lon="10.5592283"><ele>1326.0</ele><time>2026-05-03T13:48:02.75Z</time></trkpt><trkpt lat="44.212665" lon="10.5593317"><ele>1324.3333333333333</ele><time>2026-05-03T13:48:03.75Z</time></trkpt><trkpt lat="44.2126717" lon="10.5594233"><ele>1322.6666666666665</ele><time>2026-05-03T13:48:04.75Z</time></trkpt><trkpt lat="44.2127067" lon="10.559535"><ele>1321.0</ele><time>2026-05-03T13:48:06.75Z</time></trkpt><trkpt lat="44.2128083" lon="10.55958"><ele>1321.0</ele><time>2026-05-03T13:48:08.749Z</time></trkpt><trkpt lat="44.2128717" lon="10.5595833"><ele>1321.0</ele><time>2026-05-03T13:48:09.75Z</time></trkpt><trkpt lat="44.212935" lon="10.55956"><ele>1321.0</ele><time>2026-05-03T13:48:10.75Z</time></trkpt><trkpt lat="44.2130033" lon="10.5595117"><ele>1321.0</ele><time>2026-05-03T13:48:11.75Z</time></trkpt><trkpt lat="44.2131133" lon="10.5594383"><ele>1321.0</ele><time>2026-05-03T13:48:13.75Z</time></trkpt><trkpt lat="44.2132183" lon="10.5594483"><ele>1321.0</ele><time>2026-05-03T13:48:15.749Z</time></trkpt><trkpt lat="44.213275" lon="10.5594967"><ele>1320.5</ele><time>2026-05-03T13:48:16.75Z</time></trkpt><trkpt lat="44.2133267" lon="10.55955"><ele>1320.0</ele><time>2026-05-03T13:48:17.749Z</time></trkpt><trkpt lat="44.213395" lon="10.5596217"><ele>1319.5</ele><time>2026-05-03T13:48:18.75Z</time></trkpt><trkpt lat="44.213455" lon="10.5597067"><ele>1319.0</ele><time>2026-05-03T13:48:19.75Z</time></trkpt><trkpt lat="44.2135167" lon="10.5597967"><ele>1318.5</ele><time>2026-05-03T13:48:20.75Z</time></trkpt><trkpt lat="44.213575" lon="10.55989"><ele>1318.0</ele><time>2026-05-03T13:48:21.75Z</time></trkpt><trkpt lat="44.2136317" lon="10.5599617"><ele>1318.0</ele><time>2026-05-03T13:48:22.749Z</time></trkpt><trkpt lat="44.21369" lon="10.560015"><ele>1318.0</ele><time>2026-05-03T13:48:23.75Z</time></trkpt><trkpt lat="44.213755" lon="10.56005"><ele>1318.0</ele><time>2026-05-03T13:48:24.75Z</time></trkpt><trkpt lat="44.213825" lon="10.5600217"><ele>1318.0</ele><time>2026-05-03T13:48:25.75Z</time></trkpt><trkpt lat="44.213925" lon="10.56003"><ele>1318.0</ele><time>2026-05-03T13:48:26.749Z</time></trkpt><trkpt lat="44.2140233" lon="10.56005"><ele>1318.0</ele><time>2026-05-03T13:48:27.75Z</time></trkpt><trkpt lat="44.2141083" lon="10.5600933"><ele>1320.4</ele><time>2026-05-03T13:48:28.75Z</time></trkpt><trkpt lat="44.2141967" lon="10.56015"><ele>1322.8000000000002</ele><time>2026-05-03T13:48:29.75Z</time></trkpt><trkpt lat="44.2142917" lon="10.5602"><ele>1325.2</ele><time>2026-05-03T13:48:30.749Z</time></trkpt><trkpt lat="44.2143917" lon="10.5602467"><ele>1327.6</ele><time>2026-05-03T13:48:31.75Z</time></trkpt><trkpt lat="44.2144967" lon="10.56028"><ele>1330.0</ele><time>2026-05-03T13:48:32.75Z</time></trkpt><trkpt lat="44.2146017" lon="10.5603217"><ele>1330.0</ele><time>2026-05-03T13:48:33.75Z</time></trkpt><trkpt lat="44.2147" lon="10.5603467"><ele>1330.0</ele><time>2026-05-03T13:48:34.75Z</time></trkpt><trkpt lat="44.2147867" lon="10.56039"><ele>1330.0</ele><time>2026-05-03T13:48:35.75Z</time></trkpt><trkpt lat="44.2148883" lon="10.5604817"><ele>1330.0</ele><time>2026-05-03T13:48:37.75Z</time></trkpt><trkpt lat="44.214965" lon="10.5605683"><ele>1330.0</ele><time>2026-05-03T13:48:39.749Z</time></trkpt><trkpt lat="44.2150317" lon="10.5606283"><ele>1331.0</ele><time>2026-05-03T13:48:41.75Z</time></trkpt><trkpt lat="44.2151033" lon="10.5606883"><ele>1332.0</ele><time>2026-05-03T13:48:43.75Z</time></trkpt><trkpt lat="44.2152033" lon="10.5607333"><ele>1333.0</ele><time>2026-05-03T13:48:45.75Z</time></trkpt><trkpt lat="44.2153167" lon="10.5607917"><ele>1334.0</ele><time>2026-05-03T13:48:47.749Z</time></trkpt><trkpt lat="44.21541" lon="10.560895"><ele>1335.0</ele><time>2026-05-03T13:48:49.75Z</time></trkpt><trkpt lat="44.21545" lon="10.560975"><ele>1335.0</ele><time>2026-05-03T13:48:50.75Z</time></trkpt><trkpt lat="44.2154783" lon="10.5610733"><ele>1335.0</ele><time>2026-05-03T13:48:51.75Z</time></trkpt><trkpt lat="44.2154933" lon="10.5611867"><ele>1335.0</ele><time>2026-05-03T13:48:52.75Z</time></trkpt><trkpt lat="44.2154983" lon="10.5613033"><ele>1335.0</ele><time>2026-05-03T13:48:53.75Z</time></trkpt><trkpt lat="44.215505" lon="10.56142"><ele>1335.0</ele><time>2026-05-03T13:48:54.75Z</time></trkpt><trkpt lat="44.215515" lon="10.561545"><ele>1335.0</ele><time>2026-05-03T13:48:55.75Z</time></trkpt><trkpt lat="44.2155367" lon="10.5616617"><ele>1334.6</ele><time>2026-05-03T13:48:56.749Z</time></trkpt><trkpt lat="44.2155667" lon="10.56179"><ele>1334.2</ele><time>2026-05-03T13:48:57.75Z</time></trkpt><trkpt lat="44.2155933" lon="10.5619317"><ele>1333.8000000000002</ele><time>2026-05-03T13:48:58.75Z</time></trkpt><trkpt lat="44.21562" lon="10.5620717"><ele>1333.4</ele><time>2026-05-03T13:48:59.75Z</time></trkpt><trkpt lat="44.2156583" lon="10.5622033"><ele>1333.0</ele><time>2026-05-03T13:49:00.75Z</time></trkpt><trkpt lat="44.2157133" lon="10.56233"><ele>1335.2</ele><time>2026-05-03T13:49:01.75Z</time></trkpt><trkpt lat="44.2157583" lon="10.56247"><ele>1337.4</ele><time>2026-05-03T13:49:02.75Z</time></trkpt><trkpt lat="44.2158117" lon="10.56261"><ele>1339.6000000000001</ele><time>2026-05-03T13:49:03.75Z</time></trkpt><trkpt lat="44.2158483" lon="10.5627217"><ele>1341.8000000000002</ele><time>2026-05-03T13:49:04.75Z</time></trkpt><trkpt lat="44.215885" lon="10.5628267"><ele>1344.0</ele><time>2026-05-03T13:49:05.75Z</time></trkpt><trkpt lat="44.2159433" lon="10.5629283"><ele>1344.0</ele><time>2026-05-03T13:49:06.75Z</time></trkpt><trkpt lat="44.21603" lon="10.5630333"><ele>1344.0</ele><time>2026-05-03T13:49:07.75Z</time></trkpt><trkpt lat="44.2161183" lon="10.563145"><ele>1344.0</ele><time>2026-05-03T13:49:08.75Z</time></trkpt><trkpt lat="44.2161967" lon="10.5632483"><ele>1344.0</ele><time>2026-05-03T13:49:09.75Z</time></trkpt><trkpt lat="44.216265" lon="10.5633683"><ele>1344.0</ele><time>2026-05-03T13:49:10.75Z</time></trkpt><trkpt lat="44.2163133" lon="10.5634817"><ele>1344.0</ele><time>2026-05-03T13:49:11.75Z</time></trkpt><trkpt lat="44.2163433" lon="10.5635867"><ele>1344.0</ele><time>2026-05-03T13:49:12.75Z</time></trkpt><trkpt lat="44.2163567" lon="10.5637033"><ele>1344.0</ele><time>2026-05-03T13:49:13.75Z</time></trkpt><trkpt lat="44.21637" lon="10.5638217"><ele>1344.0</ele><time>2026-05-03T13:49:14.75Z</time></trkpt><trkpt lat="44.2163883" lon="10.563925"><ele>1344.0</ele><time>2026-05-03T13:49:15.75Z</time></trkpt><trkpt lat="44.216425" lon="10.5640067"><ele>1343.6666666666667</ele><time>2026-05-03T13:49:16.749Z</time></trkpt><trkpt lat="44.21648" lon="10.564075"><ele>1343.3333333333333</ele><time>2026-05-03T13:49:17.75Z</time></trkpt><trkpt lat="44.2165367" lon="10.5641533"><ele>1343.0</ele><time>2026-05-03T13:49:18.749Z</time></trkpt><trkpt lat="44.216595" lon="10.5642483"><ele>1342.6666666666665</ele><time>2026-05-03T13:49:19.75Z</time></trkpt><trkpt lat="44.216625" lon="10.56435"><ele>1342.3333333333333</ele><time>2026-05-03T13:49:20.75Z</time></trkpt><trkpt lat="44.2166467" lon="10.564465"><ele>1342.0</ele><time>2026-05-03T13:49:21.75Z</time></trkpt><trkpt lat="44.2166617" lon="10.5645617"><ele>1342.0</ele><time>2026-05-03T13:49:22.75Z</time></trkpt><trkpt lat="44.2166533" lon="10.5647117"><ele>1342.0</ele><time>2026-05-03T13:49:24.75Z</time></trkpt><trkpt lat="44.216665" lon="10.56483"><ele>1342.0</ele><time>2026-05-03T13:49:27.749Z</time></trkpt><trkpt lat="44.216725" lon="10.5649217"><ele>1342.0</ele><time>2026-05-03T13:49:30.75Z</time></trkpt><trkpt lat="44.21682" lon="10.5649733"><ele>1342.0</ele><time>2026-05-03T13:49:32.749Z</time></trkpt><trkpt lat="44.2168967" lon="10.5650017"><ele>1342.0</ele><time>2026-05-03T13:49:33.75Z</time></trkpt><trkpt lat="44.217" lon="10.5650233"><ele>1342.0</ele><time>2026-05-03T13:49:34.75Z</time></trkpt><trkpt lat="44.2171233" lon="10.565065"><ele>1342.0</ele><time>2026-05-03T13:49:35.75Z</time></trkpt><trkpt lat="44.2172483" lon="10.5650883"><ele>1342.0</ele><time>2026-05-03T13:49:36.749Z</time></trkpt><trkpt lat="44.21736" lon="10.5651183"><ele>1341.6666666666665</ele><time>2026-05-03T13:49:37.75Z</time></trkpt><trkpt lat="44.2174617" lon="10.5651467"><ele>1341.3333333333333</ele><time>2026-05-03T13:49:38.75Z</time></trkpt><trkpt lat="44.21755" lon="10.565165"><ele>1341.0</ele><time>2026-05-03T13:49:39.75Z</time></trkpt><trkpt lat="44.2176417" lon="10.5651867"><ele>1340.6666666666667</ele><time>2026-05-03T13:49:40.75Z</time></trkpt><trkpt lat="44.2177233" lon="10.5652133"><ele>1340.3333333333335</ele><time>2026-05-03T13:49:41.75Z</time></trkpt><trkpt lat="44.2177983" lon="10.5652483"><ele>1340.0</ele><time>2026-05-03T13:49:42.75Z</time></trkpt><trkpt lat="44.2178767" lon="10.565295"><ele>1340.0</ele><time>2026-05-03T13:49:43.75Z</time></trkpt><trkpt lat="44.2179533" lon="10.5653433"><ele>1340.0</ele><time>2026-05-03T13:49:44.75Z</time></trkpt><trkpt lat="44.21803" lon="10.5654167"><ele>1340.0</ele><time>2026-05-03T13:49:45.75Z</time></trkpt><trkpt lat="44.218105" lon="10.565485"><ele>1340.0</ele><time>2026-05-03T13:49:46.75Z</time></trkpt><trkpt lat="44.2181817" lon="10.565555"><ele>1340.0</ele><time>2026-05-03T13:49:47.75Z</time></trkpt><trkpt lat="44.218245" lon="10.5655983"><ele>1340.0</ele><time>2026-05-03T13:49:48.75Z</time></trkpt><trkpt lat="44.218305" lon="10.565635"><ele>1338.3333333333335</ele><time>2026-05-03T13:49:49.75Z</time></trkpt><trkpt lat="44.2184167" lon="10.565665"><ele>1336.6666666666667</ele><time>2026-05-03T13:49:51.75Z</time></trkpt><trkpt lat="44.2184867" lon="10.565665"><ele>1335.0</ele><time>2026-05-03T13:49:52.75Z</time></trkpt><trkpt lat="44.2185583" lon="10.5656567"><ele>1333.3333333333333</ele><time>2026-05-03T13:49:53.75Z</time></trkpt><trkpt lat="44.218645" lon="10.5656283"><ele>1331.6666666666665</ele><time>2026-05-03T13:49:54.75Z</time></trkpt><trkpt lat="44.2187383" lon="10.565595"><ele>1330.0</ele><time>2026-05-03T13:49:55.75Z</time></trkpt><trkpt lat="44.218845" lon="10.5655533"><ele>1330.0</ele><time>2026-05-03T13:49:56.749Z</time></trkpt><trkpt lat="44.218955" lon="10.5655117"><ele>1330.0</ele><time>2026-05-03T13:49:57.749Z</time></trkpt><trkpt lat="44.21904" lon="10.565485"><ele>1330.0</ele><time>2026-05-03T13:49:58.749Z</time></trkpt><trkpt lat="44.21911" lon="10.56546"><ele>1330.0</ele><time>2026-05-03T13:49:59.75Z</time></trkpt><trkpt lat="44.2191817" lon="10.5654417"><ele>1330.0</ele><time>2026-05-03T13:50:00.75Z</time></trkpt><trkpt lat="44.2192533" lon="10.5654517"><ele>1330.0</ele><time>2026-05-03T13:50:01.75Z</time></trkpt><trkpt lat="44.219315" lon="10.56549"><ele>1329.0</ele><time>2026-05-03T13:50:02.749Z</time></trkpt><trkpt lat="44.2193717" lon="10.5655567"><ele>1328.0</ele><time>2026-05-03T13:50:03.75Z</time></trkpt><trkpt lat="44.2194317" lon="10.5656267"><ele>1327.0</ele><time>2026-05-03T13:50:04.749Z</time></trkpt><trkpt lat="44.2195183" lon="10.5657183"><ele>1326.0</ele><time>2026-05-03T13:50:05.75Z</time></trkpt><trkpt lat="44.2196133" lon="10.5658133"><ele>1325.0</ele><time>2026-05-03T13:50:06.749Z</time></trkpt><trkpt lat="44.219695" lon="10.5658967"><ele>1325.0</ele><time>2026-05-03T13:50:07.75Z</time></trkpt><trkpt lat="44.2197883" lon="10.5659717"><ele>1325.0</ele><time>2026-05-03T13:50:08.75Z</time></trkpt><trkpt lat="44.2198733" lon="10.5660483"><ele>1325.0</ele><time>2026-05-03T13:50:09.75Z</time></trkpt><trkpt lat="44.2199583" lon="10.5661367"><ele>1325.0</ele><time>2026-05-03T13:50:10.75Z</time></trkpt><trkpt lat="44.220035" lon="10.5662283"><ele>1325.0</ele><time>2026-05-03T13:50:11.75Z</time></trkpt><trkpt lat="44.2201167" lon="10.5663267"><ele>1323.6</ele><time>2026-05-03T13:50:12.75Z</time></trkpt><trkpt lat="44.2201933" lon="10.566425"><ele>1322.2</ele><time>2026-05-03T13:50:13.75Z</time></trkpt><trkpt lat="44.2202683" lon="10.5665283"><ele>1320.8000000000002</ele><time>2026-05-03T13:50:14.75Z</time></trkpt><trkpt lat="44.2203433" lon="10.5666333"><ele>1319.4</ele><time>2026-05-03T13:50:15.749Z</time></trkpt><trkpt lat="44.2204033" lon="10.566745"><ele>1318.0</ele><time>2026-05-03T13:50:16.749Z</time></trkpt><trkpt lat="44.2204683" lon="10.56686"><ele>1318.0</ele><time>2026-05-03T13:50:17.748Z</time></trkpt><trkpt lat="44.220545" lon="10.5669633"><ele>1318.0</ele><time>2026-05-03T13:50:18.749Z</time></trkpt><trkpt lat="44.2206233" lon="10.56706"><ele>1318.0</ele><time>2026-05-03T13:50:19.749Z</time></trkpt><trkpt lat="44.2207117" lon="10.5671617"><ele>1318.0</ele><time>2026-05-03T13:50:20.749Z</time></trkpt><trkpt lat="44.2207967" lon="10.5672467"><ele>1318.0</ele><time>2026-05-03T13:50:21.749Z</time></trkpt><trkpt lat="44.2208933" lon="10.5673483"><ele>1317.5</ele><time>2026-05-03T13:50:22.748Z</time></trkpt><trkpt lat="44.2209833" lon="10.5674567"><ele>1317.0</ele><time>2026-05-03T13:50:23.749Z</time></trkpt><trkpt lat="44.22107" lon="10.5675767"><ele>1316.5</ele><time>2026-05-03T13:50:24.749Z</time></trkpt><trkpt lat="44.2211617" lon="10.56769"><ele>1316.0</ele><time>2026-05-03T13:50:25.748Z</time></trkpt><trkpt lat="44.2212417" lon="10.56779"><ele>1315.8333333333335</ele><time>2026-05-03T13:50:26.749Z</time></trkpt><trkpt lat="44.2213083" lon="10.56788"><ele>1315.6666666666667</ele><time>2026-05-03T13:50:27.749Z</time></trkpt><trkpt lat="44.2213717" lon="10.5679617"><ele>1315.5</ele><time>2026-05-03T13:50:28.749Z</time></trkpt><trkpt lat="44.2214383" lon="10.5680317"><ele>1315.3333333333333</ele><time>2026-05-03T13:50:29.749Z</time></trkpt><trkpt lat="44.2215083" lon="10.5680967"><ele>1315.1666666666665</ele><time>2026-05-03T13:50:30.749Z</time></trkpt><trkpt lat="44.2215667" lon="10.5681583"><ele>1315.0</ele><time>2026-05-03T13:50:31.748Z</time></trkpt><trkpt lat="44.2216167" lon="10.56822"><ele>1315.0</ele><time>2026-05-03T13:50:32.749Z</time></trkpt><trkpt lat="44.2216633" lon="10.5683383"><ele>1315.0</ele><time>2026-05-03T13:50:34.749Z</time></trkpt><trkpt lat="44.2216617" lon="10.56846"><ele>1315.0</ele><time>2026-05-03T13:50:36.749Z</time></trkpt><trkpt lat="44.221615" lon="10.5685917"><ele>1315.0</ele><time>2026-05-03T13:50:38.749Z</time></trkpt><trkpt lat="44.221535" lon="10.5687183"><ele>1315.0</ele><time>2026-05-03T13:50:40.749Z</time></trkpt><trkpt lat="44.221465" lon="10.5688483"><ele>1312.3333333333333</ele><time>2026-05-03T13:50:42.748Z</time></trkpt><trkpt lat="44.221415" lon="10.5689283"><ele>1309.6666666666665</ele><time>2026-05-03T13:50:43.749Z</time></trkpt><trkpt lat="44.2213683" lon="10.5690033"><ele>1307.0</ele><time>2026-05-03T13:50:44.749Z</time></trkpt><trkpt lat="44.22132" lon="10.5690717"><ele>1304.3333333333333</ele><time>2026-05-03T13:50:45.748Z</time></trkpt><trkpt lat="44.2212733" lon="10.5691333"><ele>1301.6666666666667</ele><time>2026-05-03T13:50:46.749Z</time></trkpt><trkpt lat="44.2211967" lon="10.5692383"><ele>1299.0</ele><time>2026-05-03T13:50:48.749Z</time></trkpt><trkpt lat="44.2211317" lon="10.5693683"><ele>1299.0</ele><time>2026-05-03T13:50:50.749Z</time></trkpt><trkpt lat="44.22111" lon="10.5694533"><ele>1299.0</ele><time>2026-05-03T13:50:51.749Z</time></trkpt><trkpt lat="44.2211183" lon="10.5696183"><ele>1299.0</ele><time>2026-05-03T13:50:53.748Z</time></trkpt><trkpt lat="44.2211483" lon="10.569705"><ele>1299.0</ele><time>2026-05-03T13:50:54.749Z</time></trkpt><trkpt lat="44.2211817" lon="10.5697933"><ele>1299.0</ele><time>2026-05-03T13:50:55.749Z</time></trkpt><trkpt lat="44.2212133" lon="10.5698717"><ele>1299.0</ele><time>2026-05-03T13:50:56.749Z</time></trkpt><trkpt lat="44.2212683" lon="10.5700467"><ele>1297.4</ele><time>2026-05-03T13:50:58.749Z</time></trkpt><trkpt lat="44.221345" lon="10.570195"><ele>1295.8000000000002</ele><time>2026-05-03T13:51:00.748Z</time></trkpt><trkpt lat="44.2213883" lon="10.5702717"><ele>1294.1999999999998</ele><time>2026-05-03T13:51:01.749Z</time></trkpt><trkpt lat="44.221435" lon="10.5704317"><ele>1292.6</ele><time>2026-05-03T13:51:03.748Z</time></trkpt><trkpt lat="44.221445" lon="10.57053"><ele>1291.0</ele><time>2026-05-03T13:51:04.749Z</time></trkpt><trkpt lat="44.221445" lon="10.570645"><ele>1290.1999999999998</ele><time>2026-05-03T13:51:05.749Z</time></trkpt><trkpt lat="44.2214317" lon="10.5707567"><ele>1289.3999999999999</ele><time>2026-05-03T13:51:06.749Z</time></trkpt><trkpt lat="44.22143" lon="10.5708967"><ele>1288.6</ele><time>2026-05-03T13:51:07.749Z</time></trkpt><trkpt lat="44.221425" lon="10.571035"><ele>1287.8</ele><time>2026-05-03T13:51:08.749Z</time></trkpt><trkpt lat="44.2214117" lon="10.5711633"><ele>1287.0</ele><time>2026-05-03T13:51:09.749Z</time></trkpt><trkpt lat="44.2213933" lon="10.57127"><ele>1286.6</ele><time>2026-05-03T13:51:10.748Z</time></trkpt><trkpt lat="44.2213933" lon="10.5713617"><ele>1286.1999999999998</ele><time>2026-05-03T13:51:11.749Z</time></trkpt><trkpt lat="44.2214" lon="10.57145"><ele>1285.8</ele><time>2026-05-03T13:51:12.749Z</time></trkpt><trkpt lat="44.221465" lon="10.5715583"><ele>1285.4</ele><time>2026-05-03T13:51:14.749Z</time></trkpt><trkpt lat="44.2215917" lon="10.5715933"><ele>1285.0</ele><time>2026-05-03T13:51:16.749Z</time></trkpt><trkpt lat="44.221715" lon="10.571575"><ele>1285.0</ele><time>2026-05-03T13:51:18.748Z</time></trkpt><trkpt lat="44.2217833" lon="10.5715483"><ele>1285.0</ele><time>2026-05-03T13:51:19.749Z</time></trkpt><trkpt lat="44.2218517" lon="10.5715"><ele>1285.0</ele><time>2026-05-03T13:51:20.749Z</time></trkpt><trkpt lat="44.221935" lon="10.5714467"><ele>1285.0</ele><time>2026-05-03T13:51:21.749Z</time></trkpt><trkpt lat="44.22202" lon="10.5714083"><ele>1285.0</ele><time>2026-05-03T13:51:22.748Z</time></trkpt><trkpt lat="44.2220967" lon="10.5713783"><ele>1285.0</ele><time>2026-05-03T13:51:23.749Z</time></trkpt><trkpt lat="44.2222" lon="10.5713967"><ele>1285.0</ele><time>2026-05-03T13:51:25.748Z</time></trkpt><trkpt lat="44.22221" lon="10.5715033"><ele>1285.0</ele><time>2026-05-03T13:51:27.749Z</time></trkpt><trkpt lat="44.2221633" lon="10.57166"><ele>1285.0</ele><time>2026-05-03T13:51:29.749Z</time></trkpt><trkpt lat="44.2221017" lon="10.5717617"><ele>1285.0</ele><time>2026-05-03T13:51:30.748Z</time></trkpt><trkpt lat="44.22204" lon="10.571875"><ele>1285.0</ele><time>2026-05-03T13:51:31.749Z</time></trkpt><trkpt lat="44.222" lon="10.5719617"><ele>1284.3333333333333</ele><time>2026-05-03T13:51:32.749Z</time></trkpt><trkpt lat="44.221965" lon="10.5721283"><ele>1283.6666666666665</ele><time>2026-05-03T13:51:34.749Z</time></trkpt><trkpt lat="44.2219733" lon="10.5722317"><ele>1283.0</ele><time>2026-05-03T13:51:35.749Z</time></trkpt><trkpt lat="44.2219983" lon="10.572325"><ele>1282.3333333333333</ele><time>2026-05-03T13:51:36.749Z</time></trkpt><trkpt lat="44.2220467" lon="10.57243"><ele>1281.6666666666667</ele><time>2026-05-03T13:51:37.749Z</time></trkpt><trkpt lat="44.222095" lon="10.5725317"><ele>1281.0</ele><time>2026-05-03T13:51:38.749Z</time></trkpt><trkpt lat="44.2221467" lon="10.5726483"><ele>1281.0</ele><time>2026-05-03T13:51:39.749Z</time></trkpt><trkpt lat="44.2221867" lon="10.57272"><ele>1281.0</ele><time>2026-05-03T13:51:40.749Z</time></trkpt><trkpt lat="44.2222567" lon="10.572795"><ele>1281.0</ele><time>2026-05-03T13:51:41.749Z</time></trkpt><trkpt lat="44.2223183" lon="10.57287"><ele>1281.0</ele><time>2026-05-03T13:51:42.749Z</time></trkpt><trkpt lat="44.2223717" lon="10.572955"><ele>1281.0</ele><time>2026-05-03T13:51:43.748Z</time></trkpt><trkpt lat="44.22241" lon="10.57305"><ele>1281.0</ele><time>2026-05-03T13:51:44.748Z</time></trkpt><trkpt lat="44.2224317" lon="10.5731433"><ele>1282.1666666666667</ele><time>2026-05-03T13:51:45.749Z</time></trkpt><trkpt lat="44.2224383" lon="10.5732383"><ele>1283.3333333333333</ele><time>2026-05-03T13:51:46.749Z</time></trkpt><trkpt lat="44.2224583" lon="10.5733383"><ele>1284.5</ele><time>2026-05-03T13:51:47.749Z</time></trkpt><trkpt lat="44.22247" lon="10.573455"><ele>1285.6666666666665</ele><time>2026-05-03T13:51:48.749Z</time></trkpt><trkpt lat="44.22249" lon="10.5735883"><ele>1286.8333333333333</ele><time>2026-05-03T13:51:49.748Z</time></trkpt><trkpt lat="44.222515" lon="10.5737167"><ele>1288.0</ele><time>2026-05-03T13:51:50.748Z</time></trkpt><trkpt lat="44.2225517" lon="10.573815"><ele>1288.0</ele><time>2026-05-03T13:51:51.749Z</time></trkpt><trkpt lat="44.222585" lon="10.5739133"><ele>1288.0</ele><time>2026-05-03T13:51:52.749Z</time></trkpt><trkpt lat="44.2226133" lon="10.574025"><ele>1288.0</ele><time>2026-05-03T13:51:53.749Z</time></trkpt><trkpt lat="44.22263" lon="10.57414"><ele>1288.0</ele><time>2026-05-03T13:51:54.749Z</time></trkpt><trkpt lat="44.22264" lon="10.5742517"><ele>1288.0</ele><time>2026-05-03T13:51:55.749Z</time></trkpt><trkpt lat="44.2226467" lon="10.5743517"><ele>1288.0</ele><time>2026-05-03T13:51:56.749Z</time></trkpt><trkpt lat="44.22266" lon="10.574475"><ele>1287.5</ele><time>2026-05-03T13:51:57.749Z</time></trkpt><trkpt lat="44.2226717" lon="10.5745917"><ele>1287.0</ele><time>2026-05-03T13:51:58.749Z</time></trkpt><trkpt lat="44.22268" lon="10.574715"><ele>1286.5</ele><time>2026-05-03T13:51:59.749Z</time></trkpt><trkpt lat="44.2226967" lon="10.574835"><ele>1286.0</ele><time>2026-05-03T13:52:00.749Z</time></trkpt><trkpt lat="44.2227183" lon="10.574935"><ele>1285.5</ele><time>2026-05-03T13:52:01.749Z</time></trkpt><trkpt lat="44.222735" lon="10.5750367"><ele>1285.0</ele><time>2026-05-03T13:52:02.749Z</time></trkpt><trkpt lat="44.222755" lon="10.5751367"><ele>1285.0</ele><time>2026-05-03T13:52:03.749Z</time></trkpt><trkpt lat="44.222775" lon="10.575265"><ele>1285.0</ele><time>2026-05-03T13:52:04.749Z</time></trkpt><trkpt lat="44.2228067" lon="10.575395"><ele>1285.0</ele><time>2026-05-03T13:52:05.749Z</time></trkpt><trkpt lat="44.2228383" lon="10.5755283"><ele>1285.0</ele><time>2026-05-03T13:52:06.749Z</time></trkpt><trkpt lat="44.2228517" lon="10.5756533"><ele>1285.0</ele><time>2026-05-03T13:52:07.749Z</time></trkpt><trkpt lat="44.222865" lon="10.5757733"><ele>1283.8333333333333</ele><time>2026-05-03T13:52:08.748Z</time></trkpt><trkpt lat="44.2228583" lon="10.5758783"><ele>1282.6666666666665</ele><time>2026-05-03T13:52:09.748Z</time></trkpt><trkpt lat="44.2228517" lon="10.5759717"><ele>1281.5</ele><time>2026-05-03T13:52:10.749Z</time></trkpt><trkpt lat="44.22284" lon="10.576065"><ele>1280.3333333333333</ele><time>2026-05-03T13:52:11.749Z</time></trkpt><trkpt lat="44.2227983" lon="10.576165"><ele>1279.1666666666667</ele><time>2026-05-03T13:52:12.749Z</time></trkpt><trkpt lat="44.2227283" lon="10.5762683"><ele>1278.0</ele><time>2026-05-03T13:52:13.749Z</time></trkpt><trkpt lat="44.2226533" lon="10.576365"><ele>1278.0</ele><time>2026-05-03T13:52:14.749Z</time></trkpt><trkpt lat="44.2225767" lon="10.5764717"><ele>1278.0</ele><time>2026-05-03T13:52:15.748Z</time></trkpt><trkpt lat="44.2225067" lon="10.576575"><ele>1278.0</ele><time>2026-05-03T13:52:16.749Z</time></trkpt><trkpt lat="44.222445" lon="10.57668"><ele>1278.0</ele><time>2026-05-03T13:52:17.749Z</time></trkpt><trkpt lat="44.2223967" lon="10.5768067"><ele>1278.0</ele><time>2026-05-03T13:52:18.749Z</time></trkpt><trkpt lat="44.2223583" lon="10.5769333"><ele>1279.2</ele><time>2026-05-03T13:52:19.749Z</time></trkpt><trkpt lat="44.222325" lon="10.5770583"><ele>1280.4</ele><time>2026-05-03T13:52:20.749Z</time></trkpt><trkpt lat="44.2223033" lon="10.5772"><ele>1281.6000000000001</ele><time>2026-05-03T13:52:21.749Z</time></trkpt><trkpt lat="44.22228" lon="10.5773267"><ele>1282.8</ele><time>2026-05-03T13:52:22.749Z</time></trkpt><trkpt lat="44.2222633" lon="10.5774617"><ele>1284.0</ele><time>2026-05-03T13:52:23.749Z</time></trkpt><trkpt lat="44.2222583" lon="10.5775983"><ele>1283.6666666666667</ele><time>2026-05-03T13:52:24.749Z</time></trkpt><trkpt lat="44.2222717" lon="10.5777167"><ele>1283.3333333333333</ele><time>2026-05-03T13:52:25.749Z</time></trkpt><trkpt lat="44.22228" lon="10.577845"><ele>1283.0</ele><time>2026-05-03T13:52:26.749Z</time></trkpt><trkpt lat="44.2222983" lon="10.577945"><ele>1282.6666666666665</ele><time>2026-05-03T13:52:27.749Z</time></trkpt><trkpt lat="44.2223217" lon="10.5780767"><ele>1282.3333333333333</ele><time>2026-05-03T13:52:28.748Z</time></trkpt><trkpt lat="44.22235" lon="10.578195"><ele>1282.0</ele><time>2026-05-03T13:52:29.749Z</time></trkpt><trkpt lat="44.22238" lon="10.5783133"><ele>1282.0</ele><time>2026-05-03T13:52:30.749Z</time></trkpt><trkpt lat="44.222425" lon="10.5784233"><ele>1282.0</ele><time>2026-05-03T13:52:31.749Z</time></trkpt><trkpt lat="44.2224833" lon="10.5785217"><ele>1282.0</ele><time>2026-05-03T13:52:32.748Z</time></trkpt><trkpt lat="44.222555" lon="10.578605"><ele>1282.0</ele><time>2026-05-03T13:52:33.749Z</time></trkpt><trkpt lat="44.2226283" lon="10.5786817"><ele>1282.0</ele><time>2026-05-03T13:52:34.749Z</time></trkpt><trkpt lat="44.22271" lon="10.5787533"><ele>1282.3999999999999</ele><time>2026-05-03T13:52:35.749Z</time></trkpt><trkpt lat="44.2228017" lon="10.5788083"><ele>1282.8</ele><time>2026-05-03T13:52:36.749Z</time></trkpt><trkpt lat="44.2228917" lon="10.5788717"><ele>1283.2</ele><time>2026-05-03T13:52:37.749Z</time></trkpt><trkpt lat="44.2229783" lon="10.5789317"><ele>1283.6</ele><time>2026-05-03T13:52:38.748Z</time></trkpt><trkpt lat="44.2230517" lon="10.5789833"><ele>1284.0</ele><time>2026-05-03T13:52:39.749Z</time></trkpt><trkpt lat="44.2231567" lon="10.5790483"><ele>1284.0</ele><time>2026-05-03T13:52:40.748Z</time></trkpt><trkpt lat="44.22326" lon="10.5791133"><ele>1284.0</ele><time>2026-05-03T13:52:41.749Z</time></trkpt><trkpt lat="44.2233467" lon="10.5791717"><ele>1284.0</ele><time>2026-05-03T13:52:42.749Z</time></trkpt><trkpt lat="44.223415" lon="10.57925"><ele>1284.0</ele><time>2026-05-03T13:52:43.749Z</time></trkpt><trkpt lat="44.2234683" lon="10.5793017"><ele>1284.0</ele><time>2026-05-03T13:52:44.749Z</time></trkpt><trkpt lat="44.2235267" lon="10.5793517"><ele>1284.0</ele><time>2026-05-03T13:52:45.748Z</time></trkpt><trkpt lat="44.2235933" lon="10.5793817"><ele>1284.0</ele><time>2026-05-03T13:52:46.749Z</time></trkpt><trkpt lat="44.2236683" lon="10.5794017"><ele>1284.0</ele><time>2026-05-03T13:52:47.749Z</time></trkpt><trkpt lat="44.2237467" lon="10.5794133"><ele>1284.0</ele><time>2026-05-03T13:52:48.749Z</time></trkpt><trkpt lat="44.2238467" lon="10.5794817"><ele>1284.0</ele><time>2026-05-03T13:52:50.749Z</time></trkpt><trkpt lat="44.2239117" lon="10.579605"><ele>1284.0</ele><time>2026-05-03T13:52:52.749Z</time></trkpt><trkpt lat="44.2239217" lon="10.579695"><ele>1284.0</ele><time>2026-05-03T13:52:53.749Z</time></trkpt><trkpt lat="44.2239183" lon="10.5797867"><ele>1281.3333333333333</ele><time>2026-05-03T13:52:54.749Z</time></trkpt><trkpt lat="44.2239083" lon="10.5798867"><ele>1278.6666666666667</ele><time>2026-05-03T13:52:55.749Z</time></trkpt><trkpt lat="44.2238917" lon="10.580065"><ele>1276.0</ele><time>2026-05-03T13:52:57.749Z</time></trkpt><trkpt lat="44.2238967" lon="10.5801633"><ele>1273.3333333333335</ele><time>2026-05-03T13:52:58.748Z</time></trkpt><trkpt lat="44.22391" lon="10.5802617"><ele>1270.6666666666667</ele><time>2026-05-03T13:52:59.749Z</time></trkpt><trkpt lat="44.22394" lon="10.5803833"><ele>1268.0</ele><time>2026-05-03T13:53:00.749Z</time></trkpt><trkpt lat="44.2239683" lon="10.5804967"><ele>1270.4</ele><time>2026-05-03T13:53:01.749Z</time></trkpt><trkpt lat="44.2239967" lon="10.5806133"><ele>1272.8</ele><time>2026-05-03T13:53:02.749Z</time></trkpt><trkpt lat="44.2240133" lon="10.5807167"><ele>1275.2</ele><time>2026-05-03T13:53:03.749Z</time></trkpt><trkpt lat="44.2240317" lon="10.58084"><ele>1277.6</ele><time>2026-05-03T13:53:04.749Z</time></trkpt><trkpt lat="44.2240417" lon="10.5809933"><ele>1280.0</ele><time>2026-05-03T13:53:05.749Z</time></trkpt><trkpt lat="44.2240567" lon="10.5811283"><ele>1280.3333333333335</ele><time>2026-05-03T13:53:06.749Z</time></trkpt><trkpt lat="44.22406" lon="10.5812933"><ele>1280.6666666666667</ele><time>2026-05-03T13:53:07.748Z</time></trkpt><trkpt lat="44.224055" lon="10.5814267"><ele>1281.0</ele><time>2026-05-03T13:53:08.748Z</time></trkpt><trkpt lat="44.22404" lon="10.581535"><ele>1281.3333333333333</ele><time>2026-05-03T13:53:09.749Z</time></trkpt><trkpt lat="44.224" lon="10.581625"><ele>1281.6666666666665</ele><time>2026-05-03T13:53:10.749Z</time></trkpt><trkpt lat="44.223955" lon="10.581705"><ele>1282.0</ele><time>2026-05-03T13:53:11.749Z</time></trkpt><trkpt lat="44.2239267" lon="10.5817933"><ele>1281.8</ele><time>2026-05-03T13:53:12.749Z</time></trkpt><trkpt lat="44.2239083" lon="10.5819567"><ele>1281.6</ele><time>2026-05-03T13:53:14.749Z</time></trkpt><trkpt lat="44.2239367" lon="10.58205"><ele>1281.3999999999999</ele><time>2026-05-03T13:53:15.749Z</time></trkpt><trkpt lat="44.2239817" lon="10.5821567"><ele>1281.1999999999998</ele><time>2026-05-03T13:53:16.749Z</time></trkpt><trkpt lat="44.2240517" lon="10.5822767"><ele>1281.0</ele><time>2026-05-03T13:53:17.749Z</time></trkpt><trkpt lat="44.2241217" lon="10.5823733"><ele>1281.0</ele><time>2026-05-03T13:53:18.749Z</time></trkpt><trkpt lat="44.224195" lon="10.5824683"><ele>1281.0</ele><time>2026-05-03T13:53:19.749Z</time></trkpt><trkpt lat="44.224255" lon="10.5825817"><ele>1281.0</ele><time>2026-05-03T13:53:20.748Z</time></trkpt><trkpt lat="44.2243083" lon="10.5826833"><ele>1281.0</ele><time>2026-05-03T13:53:21.749Z</time></trkpt><trkpt lat="44.22436" lon="10.582805"><ele>1281.0</ele><time>2026-05-03T13:53:22.749Z</time></trkpt><trkpt lat="44.2244117" lon="10.5829267"><ele>1278.8</ele><time>2026-05-03T13:53:23.749Z</time></trkpt><trkpt lat="44.2244467" lon="10.5830233"><ele>1276.6</ele><time>2026-05-03T13:53:24.749Z</time></trkpt><trkpt lat="44.2244533" lon="10.5831133"><ele>1274.4</ele><time>2026-05-03T13:53:26.749Z</time></trkpt><trkpt lat="44.2244617" lon="10.5832183"><ele>1272.2</ele><time>2026-05-03T13:53:28.749Z</time></trkpt><trkpt lat="44.2244533" lon="10.5833817"><ele>1270.0</ele><time>2026-05-03T13:53:30.748Z</time></trkpt><trkpt lat="44.2244633" lon="10.583565"><ele>1269.9999999999998</ele><time>2026-05-03T13:53:32.749Z</time></trkpt><trkpt lat="44.2244733" lon="10.583665"><ele>1270.0</ele><time>2026-05-03T13:53:33.748Z</time></trkpt><trkpt lat="44.224475" lon="10.5837733"><ele>1270.0</ele><time>2026-05-03T13:53:34.748Z</time></trkpt><trkpt lat="44.22447" lon="10.5838717"><ele>1270.0</ele><time>2026-05-03T13:53:35.748Z</time></trkpt><trkpt lat="44.2244717" lon="10.5839633"><ele>1270.0</ele><time>2026-05-03T13:53:36.749Z</time></trkpt><trkpt lat="44.2244867" lon="10.5840583"><ele>1269.9999999999998</ele><time>2026-05-03T13:53:37.749Z</time></trkpt><trkpt lat="44.2245167" lon="10.5841533"><ele>1270.0</ele><time>2026-05-03T13:53:38.749Z</time></trkpt><trkpt lat="44.22456" lon="10.5842567"><ele>1270.0</ele><time>2026-05-03T13:53:39.748Z</time></trkpt><trkpt lat="44.22462" lon="10.5843683"><ele>1270.0</ele><time>2026-05-03T13:53:40.749Z</time></trkpt><trkpt lat="44.2246883" lon="10.584505"><ele>1270.0</ele><time>2026-05-03T13:53:41.749Z</time></trkpt><trkpt lat="44.22476" lon="10.5846267"><ele>1270.0</ele><time>2026-05-03T13:53:42.749Z</time></trkpt><trkpt lat="44.2248183" lon="10.5847267"><ele>1270.0</ele><time>2026-05-03T13:53:43.749Z</time></trkpt><trkpt lat="44.2248817" lon="10.5847983"><ele>1270.0</ele><time>2026-05-03T13:53:44.748Z</time></trkpt><trkpt lat="44.224945" lon="10.58485"><ele>1270.0</ele><time>2026-05-03T13:53:45.749Z</time></trkpt><trkpt lat="44.2250117" lon="10.5848983"><ele>1270.0</ele><time>2026-05-03T13:53:46.749Z</time></trkpt><trkpt lat="44.2250967" lon="10.5849867"><ele>1270.0</ele><time>2026-05-03T13:53:48.749Z</time></trkpt><trkpt lat="44.225115" lon="10.58513"><ele>1270.0</ele><time>2026-05-03T13:53:50.749Z</time></trkpt><trkpt lat="44.2250667" lon="10.58531"><ele>1269.5</ele><time>2026-05-03T13:53:52.748Z</time></trkpt><trkpt lat="44.2250083" lon="10.5854067"><ele>1269.0</ele><time>2026-05-03T13:53:53.749Z</time></trkpt><trkpt lat="44.2249533" lon="10.5855083"><ele>1268.5</ele><time>2026-05-03T13:53:54.749Z</time></trkpt><trkpt lat="44.2249117" lon="10.58561"><ele>1268.0</ele><time>2026-05-03T13:53:55.749Z</time></trkpt><trkpt lat="44.224875" lon="10.5857283"><ele>1267.5</ele><time>2026-05-03T13:53:56.749Z</time></trkpt><trkpt lat="44.22485" lon="10.5858367"><ele>1267.0</ele><time>2026-05-03T13:53:57.748Z</time></trkpt><trkpt lat="44.2248317" lon="10.585935"><ele>1267.0</ele><time>2026-05-03T13:53:58.748Z</time></trkpt><trkpt lat="44.2248233" lon="10.58609"><ele>1267.0</ele><time>2026-05-03T13:54:00.749Z</time></trkpt><trkpt lat="44.2248783" lon="10.58622"><ele>1267.0</ele><time>2026-05-03T13:54:02.749Z</time></trkpt><trkpt lat="44.2249633" lon="10.5863383"><ele>1267.0</ele><time>2026-05-03T13:54:04.749Z</time></trkpt><trkpt lat="44.225015" lon="10.5864117"><ele>1267.0</ele><time>2026-05-03T13:54:05.748Z</time></trkpt><trkpt lat="44.2250583" lon="10.5864883"><ele>1266.5</ele><time>2026-05-03T13:54:06.749Z</time></trkpt><trkpt lat="44.2250817" lon="10.5865767"><ele>1266.0</ele><time>2026-05-03T13:54:07.749Z</time></trkpt><trkpt lat="44.2250983" lon="10.5866733"><ele>1265.5</ele><time>2026-05-03T13:54:08.748Z</time></trkpt><trkpt lat="44.2250967" lon="10.5867683"><ele>1265.0</ele><time>2026-05-03T13:54:09.749Z</time></trkpt><trkpt lat="44.2250467" lon="10.58693"><ele>1264.5</ele><time>2026-05-03T13:54:11.749Z</time></trkpt><trkpt lat="44.225005" lon="10.5870183"><ele>1264.0</ele><time>2026-05-03T13:54:12.749Z</time></trkpt><trkpt lat="44.2249467" lon="10.5871167"><ele>1264.0</ele><time>2026-05-03T13:54:13.749Z</time></trkpt><trkpt lat="44.2248817" lon="10.5872217"><ele>1264.0</ele><time>2026-05-03T13:54:14.749Z</time></trkpt><trkpt lat="44.2248267" lon="10.58732"><ele>1264.0</ele><time>2026-05-03T13:54:15.749Z</time></trkpt><trkpt lat="44.2247783" lon="10.5874167"><ele>1264.0</ele><time>2026-05-03T13:54:16.749Z</time></trkpt><trkpt lat="44.224745" lon="10.58751"><ele>1264.0</ele><time>2026-05-03T13:54:17.748Z</time></trkpt><trkpt lat="44.2247217" lon="10.587615"><ele>1264.0</ele><time>2026-05-03T13:54:18.749Z</time></trkpt><trkpt lat="44.2247067" lon="10.58772"><ele>1256.6000000000001</ele><time>2026-05-03T13:54:19.749Z</time></trkpt><trkpt lat="44.22471" lon="10.587835"><ele>1249.2</ele><time>2026-05-03T13:54:20.748Z</time></trkpt><trkpt lat="44.2247167" lon="10.587965"><ele>1241.8000000000002</ele><time>2026-05-03T13:54:21.749Z</time></trkpt><trkpt lat="44.224725" lon="10.5881267"><ele>1234.4</ele><time>2026-05-03T13:54:22.749Z</time></trkpt><trkpt lat="44.2247267" lon="10.5882867"><ele>1227.0</ele><time>2026-05-03T13:54:23.748Z</time></trkpt><trkpt lat="44.2247283" lon="10.5884417"><ele>1227.0</ele><time>2026-05-03T13:54:24.749Z</time></trkpt><trkpt lat="44.2247367" lon="10.5885933"><ele>1227.0</ele><time>2026-05-03T13:54:25.749Z</time></trkpt><trkpt lat="44.2247433" lon="10.5887417"><ele>1227.0</ele><time>2026-05-03T13:54:26.749Z</time></trkpt><trkpt lat="44.2247417" lon="10.5888817"><ele>1227.0</ele><time>2026-05-03T13:54:27.749Z</time></trkpt><trkpt lat="44.22475" lon="10.58901"><ele>1227.0</ele><time>2026-05-03T13:54:28.749Z</time></trkpt><trkpt lat="44.2247567" lon="10.58913"><ele>1227.2</ele><time>2026-05-03T13:54:29.749Z</time></trkpt><trkpt lat="44.2247583" lon="10.5892567"><ele>1227.4</ele><time>2026-05-03T13:54:30.749Z</time></trkpt><trkpt lat="44.2247733" lon="10.589385"><ele>1227.6</ele><time>2026-05-03T13:54:31.749Z</time></trkpt><trkpt lat="44.2247917" lon="10.5895167"><ele>1227.8</ele><time>2026-05-03T13:54:32.749Z</time></trkpt><trkpt lat="44.22481" lon="10.58965"><ele>1228.0</ele><time>2026-05-03T13:54:33.748Z</time></trkpt><trkpt lat="44.2248317" lon="10.5897683"><ele>1234.2</ele><time>2026-05-03T13:54:34.749Z</time></trkpt><trkpt lat="44.2248533" lon="10.5898733"><ele>1240.4</ele><time>2026-05-03T13:54:35.748Z</time></trkpt><trkpt lat="44.2248917" lon="10.5899917"><ele>1246.6000000000001</ele><time>2026-05-03T13:54:36.749Z</time></trkpt><trkpt lat="44.2249417" lon="10.5901133"><ele>1252.8</ele><time>2026-05-03T13:54:37.749Z</time></trkpt><trkpt lat="44.2250033" lon="10.5902167"><ele>1259.0</ele><time>2026-05-03T13:54:38.749Z</time></trkpt><trkpt lat="44.2250667" lon="10.590315"><ele>1256.75</ele><time>2026-05-03T13:54:39.749Z</time></trkpt><trkpt lat="44.2251433" lon="10.5904167"><ele>1254.5</ele><time>2026-05-03T13:54:40.748Z</time></trkpt><trkpt lat="44.225225" lon="10.5905317"><ele>1252.25</ele><time>2026-05-03T13:54:41.749Z</time></trkpt><trkpt lat="44.22531" lon="10.59065"><ele>1250.0</ele><time>2026-05-03T13:54:42.748Z</time></trkpt><trkpt lat="44.2253933" lon="10.5907817"><ele>1250.0</ele><time>2026-05-03T13:54:43.748Z</time></trkpt><trkpt lat="44.225485" lon="10.5909117"><ele>1250.0</ele><time>2026-05-03T13:54:44.749Z</time></trkpt><trkpt lat="44.2255767" lon="10.5910267"><ele>1250.0</ele><time>2026-05-03T13:54:45.749Z</time></trkpt><trkpt lat="44.2256717" lon="10.5911333"><ele>1250.0</ele><time>2026-05-03T13:54:46.749Z</time></trkpt><trkpt lat="44.2257667" lon="10.59123"><ele>1251.0</ele><time>2026-05-03T13:54:47.748Z</time></trkpt><trkpt lat="44.225865" lon="10.5913233"><ele>1252.0</ele><time>2026-05-03T13:54:48.749Z</time></trkpt><trkpt lat="44.22596" lon="10.5914117"><ele>1253.0</ele><time>2026-05-03T13:54:49.749Z</time></trkpt><trkpt lat="44.2260467" lon="10.59149"><ele>1254.0</ele><time>2026-05-03T13:54:50.749Z</time></trkpt><trkpt lat="44.2261233" lon="10.5915683"><ele>1255.0</ele><time>2026-05-03T13:54:51.748Z</time></trkpt><trkpt lat="44.2261917" lon="10.5916567"><ele>1255.0</ele><time>2026-05-03T13:54:52.748Z</time></trkpt><trkpt lat="44.226255" lon="10.59175"><ele>1255.0</ele><time>2026-05-03T13:54:53.749Z</time></trkpt><trkpt lat="44.2263167" lon="10.5918417"><ele>1255.0</ele><time>2026-05-03T13:54:54.749Z</time></trkpt><trkpt lat="44.2263883" lon="10.591935"><ele>1255.0</ele><time>2026-05-03T13:54:55.748Z</time></trkpt><trkpt lat="44.2264583" lon="10.5920317"><ele>1255.0</ele><time>2026-05-03T13:54:56.749Z</time></trkpt><trkpt lat="44.2265217" lon="10.5921317"><ele>1254.0</ele><time>2026-05-03T13:54:57.749Z</time></trkpt><trkpt lat="44.2265883" lon="10.592235"><ele>1253.0</ele><time>2026-05-03T13:54:58.749Z</time></trkpt><trkpt lat="44.2266583" lon="10.592315"><ele>1252.0</ele><time>2026-05-03T13:54:59.749Z</time></trkpt><trkpt lat="44.2267217" lon="10.5923833"><ele>1251.0</ele><time>2026-05-03T13:55:00.749Z</time></trkpt><trkpt lat="44.2267767" lon="10.5924283"><ele>1250.0</ele><time>2026-05-03T13:55:01.749Z</time></trkpt><trkpt lat="44.2268933" lon="10.5924833"><ele>1250.0</ele><time>2026-05-03T13:55:03.749Z</time></trkpt><trkpt lat="44.226995" lon="10.5925733"><ele>1250.0</ele><time>2026-05-03T13:55:05.748Z</time></trkpt><trkpt lat="44.22703" lon="10.592655"><ele>1250.0</ele><time>2026-05-03T13:55:06.749Z</time></trkpt><trkpt lat="44.2270433" lon="10.5927617"><ele>1250.0</ele><time>2026-05-03T13:55:07.748Z</time></trkpt><trkpt lat="44.2270483" lon="10.5928783"><ele>1250.0</ele><time>2026-05-03T13:55:08.749Z</time></trkpt><trkpt lat="44.2270667" lon="10.5929767"><ele>1250.0</ele><time>2026-05-03T13:55:09.749Z</time></trkpt><trkpt lat="44.2271033" lon="10.5930617"><ele>1249.1666666666667</ele><time>2026-05-03T13:55:10.748Z</time></trkpt><trkpt lat="44.2271517" lon="10.59312"><ele>1248.3333333333335</ele><time>2026-05-03T13:55:11.749Z</time></trkpt><trkpt lat="44.2272083" lon="10.5931633"><ele>1247.5</ele><time>2026-05-03T13:55:12.749Z</time></trkpt><trkpt lat="44.2272767" lon="10.593185"><ele>1246.6666666666667</ele><time>2026-05-03T13:55:13.749Z</time></trkpt><trkpt lat="44.2273483" lon="10.5931883"><ele>1245.8333333333333</ele><time>2026-05-03T13:55:14.749Z</time></trkpt><trkpt lat="44.2274367" lon="10.593175"><ele>1245.0</ele><time>2026-05-03T13:55:15.749Z</time></trkpt><trkpt lat="44.2275333" lon="10.5931483"><ele>1245.0</ele><time>2026-05-03T13:55:16.749Z</time></trkpt><trkpt lat="44.2276283" lon="10.593115"><ele>1245.0</ele><time>2026-05-03T13:55:17.748Z</time></trkpt><trkpt lat="44.2277183" lon="10.59307"><ele>1245.0</ele><time>2026-05-03T13:55:18.749Z</time></trkpt><trkpt lat="44.2278067" lon="10.59301"><ele>1245.0</ele><time>2026-05-03T13:55:19.749Z</time></trkpt><trkpt lat="44.22789" lon="10.5929383"><ele>1245.0</ele><time>2026-05-03T13:55:20.749Z</time></trkpt><trkpt lat="44.22796" lon="10.5928467"><ele>1247.0</ele><time>2026-05-03T13:55:21.748Z</time></trkpt><trkpt lat="44.2280267" lon="10.59276"><ele>1249.0</ele><time>2026-05-03T13:55:22.749Z</time></trkpt><trkpt lat="44.2281117" lon="10.5926717"><ele>1251.0</ele><time>2026-05-03T13:55:23.749Z</time></trkpt><trkpt lat="44.2282183" lon="10.59259"><ele>1253.0</ele><time>2026-05-03T13:55:24.748Z</time></trkpt><trkpt lat="44.22831" lon="10.5925133"><ele>1255.0</ele><time>2026-05-03T13:55:25.749Z</time></trkpt><trkpt lat="44.228385" lon="10.5924517"><ele>1255.1666666666665</ele><time>2026-05-03T13:55:26.749Z</time></trkpt><trkpt lat="44.22846" lon="10.592395"><ele>1255.3333333333333</ele><time>2026-05-03T13:55:27.748Z</time></trkpt><trkpt lat="44.2285167" lon="10.59234"><ele>1255.5</ele><time>2026-05-03T13:55:28.749Z</time></trkpt><trkpt lat="44.2285683" lon="10.5922867"><ele>1255.6666666666667</ele><time>2026-05-03T13:55:29.749Z</time></trkpt><trkpt lat="44.228645" lon="10.5922117"><ele>1255.8333333333335</ele><time>2026-05-03T13:55:31.748Z</time></trkpt><trkpt lat="44.2287333" lon="10.5921933"><ele>1256.0</ele><time>2026-05-03T13:55:34.748Z</time></trkpt><trkpt lat="44.2287933" lon="10.592225"><ele>1256.0</ele><time>2026-05-03T13:56:55.748Z</time></trkpt><trkpt lat="44.2288" lon="10.592375"><ele>1256.0</ele><time>2026-05-03T13:56:58.748Z</time></trkpt><trkpt lat="44.2288017" lon="10.59253"><ele>1256.0</ele><time>2026-05-03T13:57:00.748Z</time></trkpt><trkpt lat="44.2288117" lon="10.5926183"><ele>1256.0</ele><time>2026-05-03T13:57:01.747Z</time></trkpt><trkpt lat="44.2288167" lon="10.5927083"><ele>1256.0</ele><time>2026-05-03T13:57:02.748Z</time></trkpt><trkpt lat="44.228825" lon="10.5927967"><ele>1256.0</ele><time>2026-05-03T13:57:03.748Z</time></trkpt><trkpt lat="44.228835" lon="10.5928883"><ele>1257.3333333333335</ele><time>2026-05-03T13:57:04.748Z</time></trkpt><trkpt lat="44.228875" lon="10.5930633"><ele>1258.6666666666667</ele><time>2026-05-03T13:57:06.748Z</time></trkpt><trkpt lat="44.2289017" lon="10.59316"><ele>1260.0</ele><time>2026-05-03T13:57:07.748Z</time></trkpt><trkpt lat="44.2289267" lon="10.593255"><ele>1261.3333333333333</ele><time>2026-05-03T13:57:08.748Z</time></trkpt><trkpt lat="44.22896" lon="10.5933567"><ele>1262.6666666666665</ele><time>2026-05-03T13:57:09.748Z</time></trkpt><trkpt lat="44.2289983" lon="10.5934583"><ele>1264.0</ele><time>2026-05-03T13:57:10.748Z</time></trkpt><trkpt lat="44.2290383" lon="10.593535"><ele>1264.0</ele><time>2026-05-03T13:57:11.748Z</time></trkpt><trkpt lat="44.2290833" lon="10.593625"><ele>1264.0</ele><time>2026-05-03T13:57:12.748Z</time></trkpt><trkpt lat="44.2291417" lon="10.5937383"><ele>1264.0</ele><time>2026-05-03T13:57:13.748Z</time></trkpt><trkpt lat="44.2292067" lon="10.593855"><ele>1264.0</ele><time>2026-05-03T13:57:14.747Z</time></trkpt><trkpt lat="44.2292633" lon="10.5939633"><ele>1264.0</ele><time>2026-05-03T13:57:15.748Z</time></trkpt><trkpt lat="44.2293067" lon="10.59407"><ele>1263.3333333333333</ele><time>2026-05-03T13:57:16.748Z</time></trkpt><trkpt lat="44.2293583" lon="10.594175"><ele>1262.6666666666665</ele><time>2026-05-03T13:57:17.747Z</time></trkpt><trkpt lat="44.2294017" lon="10.5942733"><ele>1262.0</ele><time>2026-05-03T13:57:18.748Z</time></trkpt><trkpt lat="44.2294517" lon="10.59437"><ele>1261.3333333333333</ele><time>2026-05-03T13:57:19.747Z</time></trkpt><trkpt lat="44.2295033" lon="10.5944567"><ele>1260.6666666666667</ele><time>2026-05-03T13:57:20.747Z</time></trkpt><trkpt lat="44.2295517" lon="10.59453"><ele>1260.0</ele><time>2026-05-03T13:57:21.748Z</time></trkpt><trkpt lat="44.2296017" lon="10.5946033"><ele>1259.3333333333333</ele><time>2026-05-03T13:57:22.747Z</time></trkpt><trkpt lat="44.22966" lon="10.5946883"><ele>1258.6666666666667</ele><time>2026-05-03T13:57:23.748Z</time></trkpt><trkpt lat="44.22973" lon="10.5947567"><ele>1258.0</ele><time>2026-05-03T13:57:24.748Z</time></trkpt><trkpt lat="44.2297967" lon="10.5948167"><ele>1257.3333333333335</ele><time>2026-05-03T13:57:25.748Z</time></trkpt><trkpt lat="44.2298617" lon="10.594905"><ele>1256.6666666666667</ele><time>2026-05-03T13:57:26.748Z</time></trkpt><trkpt lat="44.2299333" lon="10.5949833"><ele>1256.0</ele><time>2026-05-03T13:57:27.748Z</time></trkpt><trkpt lat="44.2300117" lon="10.5950583"><ele>1256.8333333333335</ele><time>2026-05-03T13:57:28.748Z</time></trkpt><trkpt lat="44.2300933" lon="10.5951433"><ele>1257.6666666666667</ele><time>2026-05-03T13:57:29.748Z</time></trkpt><trkpt lat="44.2301717" lon="10.59521"><ele>1258.5</ele><time>2026-05-03T13:57:30.748Z</time></trkpt><trkpt lat="44.2302517" lon="10.59527"><ele>1259.3333333333333</ele><time>2026-05-03T13:57:31.748Z</time></trkpt><trkpt lat="44.2303333" lon="10.595315"><ele>1260.1666666666665</ele><time>2026-05-03T13:57:32.747Z</time></trkpt><trkpt lat="44.2304033" lon="10.5953517"><ele>1261.0</ele><time>2026-05-03T13:57:33.748Z</time></trkpt><trkpt lat="44.2304667" lon="10.595385"><ele>1261.0</ele><time>2026-05-03T13:57:34.748Z</time></trkpt><trkpt lat="44.2305317" lon="10.595415"><ele>1261.0</ele><time>2026-05-03T13:57:35.748Z</time></trkpt><trkpt lat="44.2306033" lon="10.5954233"><ele>1261.0</ele><time>2026-05-03T13:57:36.748Z</time></trkpt><trkpt lat="44.23068" lon="10.5954283"><ele>1261.0</ele><time>2026-05-03T13:57:37.748Z</time></trkpt><trkpt lat="44.2307717" lon="10.5954383"><ele>1261.0</ele><time>2026-05-03T13:57:38.748Z</time></trkpt><trkpt lat="44.230875" lon="10.59544"><ele>1261.0</ele><time>2026-05-03T13:57:39.748Z</time></trkpt><trkpt lat="44.2309733" lon="10.5954383"><ele>1263.0</ele><time>2026-05-03T13:57:40.748Z</time></trkpt><trkpt lat="44.2310733" lon="10.5954567"><ele>1265.0</ele><time>2026-05-03T13:57:41.747Z</time></trkpt><trkpt lat="44.23117" lon="10.59546"><ele>1267.0</ele><time>2026-05-03T13:57:42.748Z</time></trkpt><trkpt lat="44.2312467" lon="10.5954717"><ele>1269.0</ele><time>2026-05-03T13:57:43.748Z</time></trkpt><trkpt lat="44.231325" lon="10.5954833"><ele>1271.0</ele><time>2026-05-03T13:57:44.748Z</time></trkpt><trkpt lat="44.2314167" lon="10.5954933"><ele>1273.0</ele><time>2026-05-03T13:57:45.748Z</time></trkpt><trkpt lat="44.2315167" lon="10.5955083"><ele>1273.5</ele><time>2026-05-03T13:57:46.748Z</time></trkpt><trkpt lat="44.2316083" lon="10.595535"><ele>1274.0</ele><time>2026-05-03T13:57:47.748Z</time></trkpt><trkpt lat="44.2317" lon="10.59558"><ele>1274.5</ele><time>2026-05-03T13:57:48.748Z</time></trkpt><trkpt lat="44.2317767" lon="10.5956233"><ele>1275.0</ele><time>2026-05-03T13:57:49.748Z</time></trkpt><trkpt lat="44.2318467" lon="10.5956767"><ele>1275.5</ele><time>2026-05-03T13:57:50.748Z</time></trkpt><trkpt lat="44.231915" lon="10.5957367"><ele>1276.0</ele><time>2026-05-03T13:57:51.747Z</time></trkpt><trkpt lat="44.231965" lon="10.5957967"><ele>1276.0</ele><time>2026-05-03T13:57:52.748Z</time></trkpt><trkpt lat="44.2320133" lon="10.595895"><ele>1276.0</ele><time>2026-05-03T13:57:53.747Z</time></trkpt><trkpt lat="44.2320617" lon="10.595995"><ele>1276.0</ele><time>2026-05-03T13:57:54.748Z</time></trkpt><trkpt lat="44.2321083" lon="10.5960783"><ele>1276.0</ele><time>2026-05-03T13:57:55.748Z</time></trkpt><trkpt lat="44.2321617" lon="10.59616"><ele>1276.0</ele><time>2026-05-03T13:57:56.748Z</time></trkpt><trkpt lat="44.232225" lon="10.5962433"><ele>1276.0</ele><time>2026-05-03T13:57:57.748Z</time></trkpt><trkpt lat="44.2322883" lon="10.5963083"><ele>1275.2</ele><time>2026-05-03T13:57:58.748Z</time></trkpt><trkpt lat="44.23236" lon="10.59638"><ele>1274.3999999999999</ele><time>2026-05-03T13:57:59.748Z</time></trkpt><trkpt lat="44.2324567" lon="10.59644"><ele>1273.6</ele><time>2026-05-03T13:58:00.747Z</time></trkpt><trkpt lat="44.232555" lon="10.59649"><ele>1272.8</ele><time>2026-05-03T13:58:01.748Z</time></trkpt><trkpt lat="44.232635" lon="10.596545"><ele>1272.0</ele><time>2026-05-03T13:58:02.748Z</time></trkpt><trkpt lat="44.2327067" lon="10.5966217"><ele>1272.0</ele><time>2026-05-03T13:58:03.748Z</time></trkpt><trkpt lat="44.2327617" lon="10.5967017"><ele>1272.0</ele><time>2026-05-03T13:58:04.748Z</time></trkpt><trkpt lat="44.2328217" lon="10.5968217"><ele>1272.0</ele><time>2026-05-03T13:58:05.747Z</time></trkpt><trkpt lat="44.23288" lon="10.5969267"><ele>1272.0</ele><time>2026-05-03T13:58:06.748Z</time></trkpt><trkpt lat="44.232935" lon="10.5970233"><ele>1272.0</ele><time>2026-05-03T13:58:07.748Z</time></trkpt><trkpt lat="44.232975" lon="10.5971133"><ele>1272.0</ele><time>2026-05-03T13:58:08.748Z</time></trkpt><trkpt lat="44.2330133" lon="10.5972017"><ele>1271.1666666666667</ele><time>2026-05-03T13:58:09.748Z</time></trkpt><trkpt lat="44.2330633" lon="10.5972617"><ele>1270.3333333333333</ele><time>2026-05-03T13:58:10.748Z</time></trkpt><trkpt lat="44.233125" lon="10.597305"><ele>1269.5</ele><time>2026-05-03T13:58:11.748Z</time></trkpt><trkpt lat="44.233245" lon="10.5973317"><ele>1268.6666666666665</ele><time>2026-05-03T13:58:13.747Z</time></trkpt><trkpt lat="44.2333117" lon="10.5973317"><ele>1267.8333333333333</ele><time>2026-05-03T13:58:14.748Z</time></trkpt><trkpt lat="44.233395" lon="10.5973317"><ele>1267.0</ele><time>2026-05-03T13:58:15.748Z</time></trkpt><trkpt lat="44.233475" lon="10.59732"><ele>1267.0</ele><time>2026-05-03T13:58:16.748Z</time></trkpt><trkpt lat="44.2335383" lon="10.59732"><ele>1267.0</ele><time>2026-05-03T13:58:17.747Z</time></trkpt><trkpt lat="44.2336017" lon="10.5973217"><ele>1267.0</ele><time>2026-05-03T13:58:18.748Z</time></trkpt><trkpt lat="44.233695" lon="10.59735"><ele>1267.0</ele><time>2026-05-03T13:58:20.748Z</time></trkpt><trkpt lat="44.2337533" lon="10.5974533"><ele>1267.0</ele><time>2026-05-03T13:58:22.748Z</time></trkpt><trkpt lat="44.2337517" lon="10.597635"><ele>1267.0</ele><time>2026-05-03T13:58:24.748Z</time></trkpt><trkpt lat="44.2337583" lon="10.59775"><ele>1263.6</ele><time>2026-05-03T13:58:25.748Z</time></trkpt><trkpt lat="44.2337733" lon="10.5978633"><ele>1260.2</ele><time>2026-05-03T13:58:26.748Z</time></trkpt><trkpt lat="44.2337983" lon="10.5979883"><ele>1256.8</ele><time>2026-05-03T13:58:27.748Z</time></trkpt><trkpt lat="44.23383" lon="10.5981183"><ele>1253.4</ele><time>2026-05-03T13:58:28.748Z</time></trkpt><trkpt lat="44.2338683" lon="10.5982433"><ele>1250.0</ele><time>2026-05-03T13:58:29.748Z</time></trkpt><trkpt lat="44.2339167" lon="10.59837"><ele>1250.0</ele><time>2026-05-03T13:58:30.747Z</time></trkpt><trkpt lat="44.2339617" lon="10.59848"><ele>1250.0</ele><time>2026-05-03T13:58:31.748Z</time></trkpt><trkpt lat="44.2340233" lon="10.5985667"><ele>1250.0</ele><time>2026-05-03T13:58:32.748Z</time></trkpt><trkpt lat="44.234095" lon="10.5986367"><ele>1250.0</ele><time>2026-05-03T13:58:33.748Z</time></trkpt><trkpt lat="44.2341683" lon="10.59869"><ele>1250.0</ele><time>2026-05-03T13:58:34.748Z</time></trkpt><trkpt lat="44.2342417" lon="10.5987333"><ele>1250.0</ele><time>2026-05-03T13:58:35.748Z</time></trkpt><trkpt lat="44.2343483" lon="10.5987833"><ele>1250.8</ele><time>2026-05-03T13:58:37.748Z</time></trkpt><trkpt lat="44.2344517" lon="10.5988117"><ele>1251.6</ele><time>2026-05-03T13:58:39.747Z</time></trkpt><trkpt lat="44.2345233" lon="10.5988533"><ele>1252.4</ele><time>2026-05-03T13:58:41.748Z</time></trkpt><trkpt lat="44.2345883" lon="10.5989117"><ele>1253.2</ele><time>2026-05-03T13:58:43.748Z</time></trkpt><trkpt lat="44.2346667" lon="10.5989583"><ele>1254.0</ele><time>2026-05-03T13:58:45.748Z</time></trkpt><trkpt lat="44.23476" lon="10.5990283"><ele>1255.6000000000001</ele><time>2026-05-03T13:58:47.748Z</time></trkpt><trkpt lat="44.2348533" lon="10.599115"><ele>1257.2</ele><time>2026-05-03T13:58:49.748Z</time></trkpt><trkpt lat="44.2349317" lon="10.599215"><ele>1258.8000000000002</ele><time>2026-05-03T13:58:51.748Z</time></trkpt><trkpt lat="44.2349633" lon="10.5993183"><ele>1260.4</ele><time>2026-05-03T13:58:53.747Z</time></trkpt><trkpt lat="44.2349483" lon="10.59945"><ele>1262.0</ele><time>2026-05-03T13:58:55.748Z</time></trkpt><trkpt lat="44.2348917" lon="10.5995983"><ele>1262.0</ele><time>2026-05-03T13:58:57.748Z</time></trkpt><trkpt lat="44.2348533" lon="10.59969"><ele>1262.0</ele><time>2026-05-03T13:58:58.747Z</time></trkpt><trkpt lat="44.2348283" lon="10.5997833"><ele>1262.0</ele><time>2026-05-03T13:58:59.748Z</time></trkpt><trkpt lat="44.2348217" lon="10.5998717"><ele>1262.0</ele><time>2026-05-03T13:59:00.748Z</time></trkpt><trkpt lat="44.234825" lon="10.599965"><ele>1262.0</ele><time>2026-05-03T13:59:01.748Z</time></trkpt><trkpt lat="44.2348983" lon="10.6001"><ele>1262.0</ele><time>2026-05-03T13:59:03.748Z</time></trkpt><trkpt lat="44.23495" lon="10.6001617"><ele>1262.0</ele><time>2026-05-03T13:59:04.748Z</time></trkpt><trkpt lat="44.2350067" lon="10.6002333"><ele>1262.0</ele><time>2026-05-03T13:59:05.748Z</time></trkpt><trkpt lat="44.2350667" lon="10.6003283"><ele>1262.0</ele><time>2026-05-03T13:59:06.748Z</time></trkpt><trkpt lat="44.2351333" lon="10.6004133"><ele>1262.0</ele><time>2026-05-03T13:59:07.748Z</time></trkpt><trkpt lat="44.2352117" lon="10.60048"><ele>1262.0</ele><time>2026-05-03T13:59:08.748Z</time></trkpt><trkpt lat="44.23529" lon="10.6005117"><ele>1262.0</ele><time>2026-05-03T13:59:09.748Z</time></trkpt><trkpt lat="44.23537" lon="10.6005533"><ele>1260.8333333333335</ele><time>2026-05-03T13:59:10.748Z</time></trkpt><trkpt lat="44.2354333" lon="10.6006167"><ele>1259.6666666666667</ele><time>2026-05-03T13:59:11.748Z</time></trkpt><trkpt lat="44.2354883" lon="10.6006983"><ele>1258.5</ele><time>2026-05-03T13:59:12.748Z</time></trkpt><trkpt lat="44.2355283" lon="10.6007967"><ele>1257.3333333333333</ele><time>2026-05-03T13:59:13.748Z</time></trkpt><trkpt lat="44.2355633" lon="10.600905"><ele>1256.1666666666665</ele><time>2026-05-03T13:59:14.748Z</time></trkpt><trkpt lat="44.235595" lon="10.6010133"><ele>1255.0</ele><time>2026-05-03T13:59:15.748Z</time></trkpt><trkpt lat="44.2356483" lon="10.6011233"><ele>1259.0</ele><time>2026-05-03T13:59:16.748Z</time></trkpt><trkpt lat="44.2356983" lon="10.6012117"><ele>1263.0</ele><time>2026-05-03T13:59:17.747Z</time></trkpt><trkpt lat="44.2357433" lon="10.6012867"><ele>1267.0</ele><time>2026-05-03T13:59:18.748Z</time></trkpt><trkpt lat="44.2357667" lon="10.6014283"><ele>1271.0</ele><time>2026-05-03T13:59:20.747Z</time></trkpt><trkpt lat="44.2357467" lon="10.6015117"><ele>1275.0</ele><time>2026-05-03T13:59:21.748Z</time></trkpt><trkpt lat="44.2357117" lon="10.601605"><ele>1279.0</ele><time>2026-05-03T13:59:22.748Z</time></trkpt><trkpt lat="44.23565" lon="10.6017033"><ele>1276.0</ele><time>2026-05-03T13:59:23.748Z</time></trkpt><trkpt lat="44.2355933" lon="10.6018033"><ele>1273.0</ele><time>2026-05-03T13:59:24.748Z</time></trkpt><trkpt lat="44.2355383" lon="10.6018983"><ele>1270.0</ele><time>2026-05-03T13:59:25.748Z</time></trkpt><trkpt lat="44.235485" lon="10.601985"><ele>1267.0</ele><time>2026-05-03T13:59:26.748Z</time></trkpt><trkpt lat="44.2354317" lon="10.602115"><ele>1264.0</ele><time>2026-05-03T13:59:27.747Z</time></trkpt><trkpt lat="44.2353883" lon="10.6022517"><ele>1264.0</ele><time>2026-05-03T13:59:28.748Z</time></trkpt><trkpt lat="44.2353467" lon="10.60238"><ele>1264.0</ele><time>2026-05-03T13:59:29.748Z</time></trkpt><trkpt lat="44.235315" lon="10.6025417"><ele>1264.0</ele><time>2026-05-03T13:59:30.747Z</time></trkpt><trkpt lat="44.2352983" lon="10.6026933"><ele>1264.0</ele><time>2026-05-03T13:59:31.748Z</time></trkpt><trkpt lat="44.2352867" lon="10.60285"><ele>1264.0</ele><time>2026-05-03T13:59:32.748Z</time></trkpt><trkpt lat="44.23529" lon="10.6030083"><ele>1264.4</ele><time>2026-05-03T13:59:33.748Z</time></trkpt><trkpt lat="44.2353033" lon="10.6031533"><ele>1264.8000000000002</ele><time>2026-05-03T13:59:34.748Z</time></trkpt><trkpt lat="44.23532" lon="10.603295"><ele>1265.1999999999998</ele><time>2026-05-03T13:59:35.748Z</time></trkpt><trkpt lat="44.2353367" lon="10.6034233"><ele>1265.6</ele><time>2026-05-03T13:59:36.748Z</time></trkpt><trkpt lat="44.23536" lon="10.6035383"><ele>1266.0</ele><time>2026-05-03T13:59:37.748Z</time></trkpt><trkpt lat="44.2353917" lon="10.6036317"><ele>1266.6666666666667</ele><time>2026-05-03T13:59:38.748Z</time></trkpt><trkpt lat="44.2354233" lon="10.6037233"><ele>1267.3333333333333</ele><time>2026-05-03T13:59:39.748Z</time></trkpt><trkpt lat="44.2354383" lon="10.6038167"><ele>1268.0</ele><time>2026-05-03T13:59:40.747Z</time></trkpt><trkpt lat="44.2354383" lon="10.603915"><ele>1268.6666666666665</ele><time>2026-05-03T13:59:41.748Z</time></trkpt><trkpt lat="44.2354167" lon="10.604025"><ele>1269.3333333333333</ele><time>2026-05-03T13:59:42.748Z</time></trkpt><trkpt lat="44.23537" lon="10.6041217"><ele>1270.0</ele><time>2026-05-03T13:59:43.748Z</time></trkpt><trkpt lat="44.235315" lon="10.604205"><ele>1270.0</ele><time>2026-05-03T13:59:44.748Z</time></trkpt><trkpt lat="44.2352417" lon="10.60429"><ele>1270.0</ele><time>2026-05-03T13:59:45.748Z</time></trkpt><trkpt lat="44.23518" lon="10.6043833"><ele>1270.0</ele><time>2026-05-03T13:59:46.748Z</time></trkpt><trkpt lat="44.23513" lon="10.604485"><ele>1270.0</ele><time>2026-05-03T13:59:47.748Z</time></trkpt><trkpt lat="44.2351017" lon="10.6045833"><ele>1270.0</ele><time>2026-05-03T13:59:48.748Z</time></trkpt><trkpt lat="44.235085" lon="10.6046833"><ele>1270.0</ele><time>2026-05-03T13:59:49.747Z</time></trkpt><trkpt lat="44.235065" lon="10.6048617"><ele>1270.3333333333333</ele><time>2026-05-03T13:59:51.747Z</time></trkpt><trkpt lat="44.2350367" lon="10.60501"><ele>1270.6666666666665</ele><time>2026-05-03T13:59:53.748Z</time></trkpt><trkpt lat="44.2350683" lon="10.605095"><ele>1271.0</ele><time>2026-05-03T14:00:15.748Z</time></trkpt><trkpt lat="44.2351333" lon="10.6052167"><ele>1271.3333333333333</ele><time>2026-05-03T14:00:17.748Z</time></trkpt><trkpt lat="44.2351717" lon="10.6053017"><ele>1271.6666666666667</ele><time>2026-05-03T14:00:18.748Z</time></trkpt><trkpt lat="44.2352117" lon="10.60539"><ele>1272.0</ele><time>2026-05-03T14:00:19.747Z</time></trkpt><trkpt lat="44.2352533" lon="10.60548"><ele>1272.0</ele><time>2026-05-03T14:00:20.748Z</time></trkpt><trkpt lat="44.235305" lon="10.60557"><ele>1272.0</ele><time>2026-05-03T14:00:21.748Z</time></trkpt><trkpt lat="44.2353717" lon="10.6056583"><ele>1272.0</ele><time>2026-05-03T14:00:22.748Z</time></trkpt><trkpt lat="44.2354517" lon="10.6057467"><ele>1272.0</ele><time>2026-05-03T14:00:23.748Z</time></trkpt><trkpt lat="44.235525" lon="10.6058367"><ele>1272.0</ele><time>2026-05-03T14:00:24.748Z</time></trkpt><trkpt lat="44.2355967" lon="10.6059233"><ele>1274.0</ele><time>2026-05-03T14:00:25.748Z</time></trkpt><trkpt lat="44.2356617" lon="10.6060217"><ele>1276.0</ele><time>2026-05-03T14:00:26.748Z</time></trkpt><trkpt lat="44.235715" lon="10.6061283"><ele>1278.0</ele><time>2026-05-03T14:00:27.747Z</time></trkpt><trkpt lat="44.2357533" lon="10.6062583"><ele>1280.0</ele><time>2026-05-03T14:00:28.748Z</time></trkpt><trkpt lat="44.2357717" lon="10.6064033"><ele>1282.0</ele><time>2026-05-03T14:00:29.747Z</time></trkpt><trkpt lat="44.2357833" lon="10.6065617"><ele>1282.0</ele><time>2026-05-03T14:00:30.748Z</time></trkpt><trkpt lat="44.235805" lon="10.6067233"><ele>1282.0</ele><time>2026-05-03T14:00:31.748Z</time></trkpt><trkpt lat="44.2358533" lon="10.6068783"><ele>1282.0</ele><time>2026-05-03T14:00:32.748Z</time></trkpt><trkpt lat="44.23591" lon="10.607015"><ele>1282.0</ele><time>2026-05-03T14:00:33.748Z</time></trkpt><trkpt lat="44.2359583" lon="10.6071383"><ele>1282.6</ele><time>2026-05-03T14:00:34.748Z</time></trkpt><trkpt lat="44.2360033" lon="10.6072517"><ele>1283.1999999999998</ele><time>2026-05-03T14:00:35.748Z</time></trkpt><trkpt lat="44.2360267" lon="10.6073767"><ele>1283.8</ele><time>2026-05-03T14:00:36.748Z</time></trkpt><trkpt lat="44.2360317" lon="10.607495"><ele>1284.4</ele><time>2026-05-03T14:00:37.748Z</time></trkpt><trkpt lat="44.2360317" lon="10.6076183"><ele>1285.0</ele><time>2026-05-03T14:00:38.748Z</time></trkpt><trkpt lat="44.2360217" lon="10.6077483"><ele>1287.4</ele><time>2026-05-03T14:00:39.748Z</time></trkpt><trkpt lat="44.236" lon="10.6078817"><ele>1289.8</ele><time>2026-05-03T14:00:40.748Z</time></trkpt><trkpt lat="44.2359633" lon="10.6080067"><ele>1292.1999999999998</ele><time>2026-05-03T14:00:41.747Z</time></trkpt><trkpt lat="44.2359117" lon="10.60811"><ele>1294.6</ele><time>2026-05-03T14:00:42.748Z</time></trkpt><trkpt lat="44.235845" lon="10.60821"><ele>1297.0</ele><time>2026-05-03T14:00:43.748Z</time></trkpt><trkpt lat="44.2357567" lon="10.6082867"><ele>1297.0</ele><time>2026-05-03T14:00:44.748Z</time></trkpt><trkpt lat="44.2356633" lon="10.608375"><ele>1297.0</ele><time>2026-05-03T14:00:45.748Z</time></trkpt><trkpt lat="44.2355667" lon="10.60846"><ele>1297.0</ele><time>2026-05-03T14:00:46.748Z</time></trkpt><trkpt lat="44.2354817" lon="10.6085333"><ele>1297.0</ele><time>2026-05-03T14:00:47.747Z</time></trkpt><trkpt lat="44.2354117" lon="10.60862"><ele>1297.0</ele><time>2026-05-03T14:00:48.748Z</time></trkpt><trkpt lat="44.2353517" lon="10.60872"><ele>1294.6</ele><time>2026-05-03T14:00:49.748Z</time></trkpt><trkpt lat="44.2353183" lon="10.6088267"><ele>1292.1999999999998</ele><time>2026-05-03T14:00:50.747Z</time></trkpt><trkpt lat="44.2352967" lon="10.6089383"><ele>1289.8</ele><time>2026-05-03T14:00:51.748Z</time></trkpt><trkpt lat="44.2352917" lon="10.6090717"><ele>1287.4</ele><time>2026-05-03T14:00:52.748Z</time></trkpt><trkpt lat="44.2353067" lon="10.6092117"><ele>1285.0</ele><time>2026-05-03T14:00:53.748Z</time></trkpt><trkpt lat="44.2353233" lon="10.60934"><ele>1285.0</ele><time>2026-05-03T14:00:54.748Z</time></trkpt><trkpt lat="44.2353567" lon="10.6094883"><ele>1285.0</ele><time>2026-05-03T14:00:55.748Z</time></trkpt><trkpt lat="44.2354083" lon="10.6096183"><ele>1285.0</ele><time>2026-05-03T14:00:56.748Z</time></trkpt><trkpt lat="44.2354783" lon="10.6097383"><ele>1285.0</ele><time>2026-05-03T14:00:57.748Z</time></trkpt><trkpt lat="44.2355617" lon="10.6098717"><ele>1290.0</ele><time>2026-05-03T14:00:58.747Z</time></trkpt><trkpt lat="44.2356433" lon="10.6099983"><ele>1295.0</ele><time>2026-05-03T14:00:59.747Z</time></trkpt><trkpt lat="44.2357267" lon="10.6101367"><ele>1300.0</ele><time>2026-05-03T14:01:00.747Z</time></trkpt><trkpt lat="44.2358" lon="10.6102883"><ele>1305.0</ele><time>2026-05-03T14:01:01.747Z</time></trkpt><trkpt lat="44.23584" lon="10.6104533"><ele>1305.0</ele><time>2026-05-03T14:01:02.747Z</time></trkpt><trkpt lat="44.2358717" lon="10.6106217"><ele>1305.0</ele><time>2026-05-03T14:01:03.747Z</time></trkpt><trkpt lat="44.2359167" lon="10.6107967"><ele>1305.0</ele><time>2026-05-03T14:01:04.747Z</time></trkpt><trkpt lat="44.23597" lon="10.61096"><ele>1305.0</ele><time>2026-05-03T14:01:05.747Z</time></trkpt><trkpt lat="44.2360133" lon="10.6111267"><ele>1302.75</ele><time>2026-05-03T14:01:06.747Z</time></trkpt><trkpt lat="44.2360283" lon="10.6112933"><ele>1300.5</ele><time>2026-05-03T14:01:07.747Z</time></trkpt><trkpt lat="44.2360267" lon="10.6114683"><ele>1298.25</ele><time>2026-05-03T14:01:08.747Z</time></trkpt><trkpt lat="44.23603" lon="10.61164"><ele>1296.0</ele><time>2026-05-03T14:01:09.747Z</time></trkpt><trkpt lat="44.2360333" lon="10.611795"><ele>1296.0</ele><time>2026-05-03T14:01:10.747Z</time></trkpt><trkpt lat="44.2360483" lon="10.6119267"><ele>1296.0</ele><time>2026-05-03T14:01:11.747Z</time></trkpt><trkpt lat="44.2360783" lon="10.612045"><ele>1296.0</ele><time>2026-05-03T14:01:12.747Z</time></trkpt><trkpt lat="44.2361317" lon="10.6121583"><ele>1296.0</ele><time>2026-05-03T14:01:13.747Z</time></trkpt><trkpt lat="44.2361983" lon="10.61226"><ele>1296.0</ele><time>2026-05-03T14:01:14.747Z</time></trkpt><trkpt lat="44.2362733" lon="10.612355"><ele>1294.6</ele><time>2026-05-03T14:01:15.747Z</time></trkpt><trkpt lat="44.2363533" lon="10.6124233"><ele>1293.1999999999998</ele><time>2026-05-03T14:01:16.747Z</time></trkpt><trkpt lat="44.2364417" lon="10.6124667"><ele>1291.8000000000002</ele><time>2026-05-03T14:01:17.747Z</time></trkpt><trkpt lat="44.2365317" lon="10.612485"><ele>1290.4</ele><time>2026-05-03T14:01:18.746Z</time></trkpt><trkpt lat="44.2366233" lon="10.6124967"><ele>1289.0</ele><time>2026-05-03T14:01:19.747Z</time></trkpt><trkpt lat="44.2367217" lon="10.6125133"><ele>1289.0</ele><time>2026-05-03T14:01:20.747Z</time></trkpt><trkpt lat="44.23682" lon="10.6125517"><ele>1289.0</ele><time>2026-05-03T14:01:21.746Z</time></trkpt><trkpt lat="44.2369083" lon="10.6126217"><ele>1289.0</ele><time>2026-05-03T14:01:22.746Z</time></trkpt><trkpt lat="44.2369917" lon="10.61274"><ele>1289.0</ele><time>2026-05-03T14:01:23.747Z</time></trkpt><trkpt lat="44.2370817" lon="10.6128567"><ele>1289.0</ele><time>2026-05-03T14:01:24.747Z</time></trkpt><trkpt lat="44.2371767" lon="10.6129617"><ele>1289.0</ele><time>2026-05-03T14:01:25.747Z</time></trkpt><trkpt lat="44.2372767" lon="10.613035"><ele>1289.0</ele><time>2026-05-03T14:01:26.747Z</time></trkpt><trkpt lat="44.237395" lon="10.6130983"><ele>1289.0</ele><time>2026-05-03T14:01:27.747Z</time></trkpt><trkpt lat="44.2375267" lon="10.6131533"><ele>1289.0</ele><time>2026-05-03T14:01:28.747Z</time></trkpt><trkpt lat="44.2376567" lon="10.6131783"><ele>1292.25</ele><time>2026-05-03T14:01:29.746Z</time></trkpt><trkpt lat="44.237785" lon="10.613215"><ele>1295.5</ele><time>2026-05-03T14:01:30.747Z</time></trkpt><trkpt lat="44.237905" lon="10.61324"><ele>1298.75</ele><time>2026-05-03T14:01:31.746Z</time></trkpt><trkpt lat="44.23801" lon="10.6132667"><ele>1302.0</ele><time>2026-05-03T14:01:32.747Z</time></trkpt><trkpt lat="44.2381133" lon="10.613305"><ele>1303.5</ele><time>2026-05-03T14:01:33.747Z</time></trkpt><trkpt lat="44.238215" lon="10.6133533"><ele>1305.0</ele><time>2026-05-03T14:01:34.746Z</time></trkpt><trkpt lat="44.23833" lon="10.6134133"><ele>1306.5</ele><time>2026-05-03T14:01:35.746Z</time></trkpt><trkpt lat="44.23844" lon="10.61349"><ele>1308.0</ele><time>2026-05-03T14:01:36.747Z</time></trkpt><trkpt lat="44.2385567" lon="10.6135767"><ele>1305.8000000000002</ele><time>2026-05-03T14:01:37.747Z</time></trkpt><trkpt lat="44.2386617" lon="10.61366"><ele>1303.6</ele><time>2026-05-03T14:01:38.747Z</time></trkpt><trkpt lat="44.23876" lon="10.61373"><ele>1301.4</ele><time>2026-05-03T14:01:39.746Z</time></trkpt><trkpt lat="44.23886" lon="10.6138"><ele>1299.1999999999998</ele><time>2026-05-03T14:01:40.747Z</time></trkpt><trkpt lat="44.2389517" lon="10.6138733"><ele>1297.0</ele><time>2026-05-03T14:01:41.747Z</time></trkpt><trkpt lat="44.2390467" lon="10.6139333"><ele>1296.3999999999999</ele><time>2026-05-03T14:01:42.747Z</time></trkpt><trkpt lat="44.23914" lon="10.6139983"><ele>1295.8</ele><time>2026-05-03T14:01:43.746Z</time></trkpt><trkpt lat="44.2392167" lon="10.6140467"><ele>1295.2</ele><time>2026-05-03T14:01:44.747Z</time></trkpt><trkpt lat="44.2393067" lon="10.6140733"><ele>1294.6</ele><time>2026-05-03T14:01:45.747Z</time></trkpt><trkpt lat="44.2393933" lon="10.6140867"><ele>1294.0</ele><time>2026-05-03T14:01:46.747Z</time></trkpt><trkpt lat="44.2394867" lon="10.6141067"><ele>1294.0</ele><time>2026-05-03T14:01:47.747Z</time></trkpt><trkpt lat="44.23959" lon="10.6141283"><ele>1294.0</ele><time>2026-05-03T14:01:48.746Z</time></trkpt><trkpt lat="44.2396933" lon="10.61414"><ele>1294.0</ele><time>2026-05-03T14:01:49.747Z</time></trkpt><trkpt lat="44.2397917" lon="10.61414"><ele>1294.0</ele><time>2026-05-03T14:01:50.747Z</time></trkpt><trkpt lat="44.23988" lon="10.6141233"><ele>1294.0</ele><time>2026-05-03T14:01:51.747Z</time></trkpt><trkpt lat="44.2399667" lon="10.6141033"><ele>1293.2</ele><time>2026-05-03T14:01:52.746Z</time></trkpt><trkpt lat="44.2400583" lon="10.6140733"><ele>1292.4</ele><time>2026-05-03T14:01:53.746Z</time></trkpt><trkpt lat="44.2401517" lon="10.6140383"><ele>1291.6</ele><time>2026-05-03T14:01:54.747Z</time></trkpt><trkpt lat="44.2402433" lon="10.6140067"><ele>1290.8</ele><time>2026-05-03T14:01:55.746Z</time></trkpt><trkpt lat="44.2403217" lon="10.6139617"><ele>1290.0</ele><time>2026-05-03T14:01:56.746Z</time></trkpt><trkpt lat="44.2404033" lon="10.6139167"><ele>1290.0</ele><time>2026-05-03T14:01:57.747Z</time></trkpt><trkpt lat="44.2404833" lon="10.6139167"><ele>1290.0</ele><time>2026-05-03T14:01:58.747Z</time></trkpt><trkpt lat="44.2405883" lon="10.6139383"><ele>1290.0</ele><time>2026-05-03T14:01:59.747Z</time></trkpt><trkpt lat="44.2406967" lon="10.6139517"><ele>1290.0</ele><time>2026-05-03T14:02:00.747Z</time></trkpt><trkpt lat="44.240805" lon="10.6139967"><ele>1290.0</ele><time>2026-05-03T14:02:01.746Z</time></trkpt><trkpt lat="44.2409167" lon="10.6140583"><ele>1288.5</ele><time>2026-05-03T14:02:02.746Z</time></trkpt><trkpt lat="44.24103" lon="10.6141433"><ele>1287.0</ele><time>2026-05-03T14:02:03.747Z</time></trkpt><trkpt lat="44.24113" lon="10.614235"><ele>1285.5</ele><time>2026-05-03T14:02:04.747Z</time></trkpt><trkpt lat="44.2412283" lon="10.61432"><ele>1284.0</ele><time>2026-05-03T14:02:05.747Z</time></trkpt><trkpt lat="44.2413333" lon="10.6144233"><ele>1283.25</ele><time>2026-05-03T14:02:06.746Z</time></trkpt><trkpt lat="44.2414317" lon="10.6145167"><ele>1282.5</ele><time>2026-05-03T14:02:07.746Z</time></trkpt><trkpt lat="44.2415233" lon="10.614595"><ele>1281.75</ele><time>2026-05-03T14:02:08.747Z</time></trkpt><trkpt lat="44.2416117" lon="10.6146867"><ele>1281.0</ele><time>2026-05-03T14:02:09.747Z</time></trkpt><trkpt lat="44.2417033" lon="10.614785"><ele>1281.0</ele><time>2026-05-03T14:02:10.747Z</time></trkpt><trkpt lat="44.2417817" lon="10.6148917"><ele>1281.0</ele><time>2026-05-03T14:02:11.747Z</time></trkpt><trkpt lat="44.2418533" lon="10.6150133"><ele>1281.0</ele><time>2026-05-03T14:02:12.747Z</time></trkpt><trkpt lat="44.24192" lon="10.6151383"><ele>1281.0</ele><time>2026-05-03T14:02:13.747Z</time></trkpt><trkpt lat="44.24199" lon="10.61526"><ele>1281.0</ele><time>2026-05-03T14:02:14.747Z</time></trkpt><trkpt lat="44.2420517" lon="10.6153567"><ele>1282.0</ele><time>2026-05-03T14:02:15.747Z</time></trkpt><trkpt lat="44.2421267" lon="10.6154567"><ele>1283.0</ele><time>2026-05-03T14:02:16.746Z</time></trkpt><trkpt lat="44.2422233" lon="10.6155483"><ele>1284.0</ele><time>2026-05-03T14:02:17.746Z</time></trkpt><trkpt lat="44.24234" lon="10.6156417"><ele>1285.0</ele><time>2026-05-03T14:02:18.747Z</time></trkpt><trkpt lat="44.242455" lon="10.6157133"><ele>1285.75</ele><time>2026-05-03T14:02:19.747Z</time></trkpt><trkpt lat="44.2425783" lon="10.6157783"><ele>1286.5</ele><time>2026-05-03T14:02:20.747Z</time></trkpt><trkpt lat="44.2427067" lon="10.6158483"><ele>1287.25</ele><time>2026-05-03T14:02:21.747Z</time></trkpt><trkpt lat="44.24281" lon="10.6159133"><ele>1288.0</ele><time>2026-05-03T14:02:22.746Z</time></trkpt><trkpt lat="44.2428917" lon="10.615995"><ele>1288.0</ele><time>2026-05-03T14:02:23.747Z</time></trkpt><trkpt lat="44.242955" lon="10.6161133"><ele>1288.0</ele><time>2026-05-03T14:02:24.746Z</time></trkpt><trkpt lat="44.2430133" lon="10.6162317"><ele>1288.0</ele><time>2026-05-03T14:02:25.747Z</time></trkpt><trkpt lat="44.2430683" lon="10.6163783"><ele>1288.0</ele><time>2026-05-03T14:02:26.747Z</time></trkpt><trkpt lat="44.24313" lon="10.6165233"><ele>1288.0</ele><time>2026-05-03T14:02:27.747Z</time></trkpt><trkpt lat="44.24319" lon="10.6166483"><ele>1288.4</ele><time>2026-05-03T14:02:28.746Z</time></trkpt><trkpt lat="44.2432367" lon="10.6167433"><ele>1288.8000000000002</ele><time>2026-05-03T14:02:29.747Z</time></trkpt><trkpt lat="44.2432983" lon="10.6168117"><ele>1289.2</ele><time>2026-05-03T14:02:30.746Z</time></trkpt><trkpt lat="44.2433767" lon="10.6168517"><ele>1289.6</ele><time>2026-05-03T14:02:31.747Z</time></trkpt><trkpt lat="44.2434733" lon="10.6168683"><ele>1290.0</ele><time>2026-05-03T14:02:32.746Z</time></trkpt><trkpt lat="44.2435867" lon="10.616885"><ele>1290.0</ele><time>2026-05-03T14:02:33.747Z</time></trkpt><trkpt lat="44.2437167" lon="10.6168717"><ele>1290.0</ele><time>2026-05-03T14:02:34.747Z</time></trkpt><trkpt lat="44.243835" lon="10.61686"><ele>1290.0</ele><time>2026-05-03T14:02:35.747Z</time></trkpt><trkpt lat="44.2439317" lon="10.6168483"><ele>1290.0</ele><time>2026-05-03T14:02:36.747Z</time></trkpt><trkpt lat="44.2440133" lon="10.6168433"><ele>1290.0</ele><time>2026-05-03T14:02:37.746Z</time></trkpt><trkpt lat="44.24409" lon="10.616865"><ele>1290.2</ele><time>2026-05-03T14:02:38.746Z</time></trkpt><trkpt lat="44.24416" lon="10.616935"><ele>1290.4</ele><time>2026-05-03T14:02:39.746Z</time></trkpt><trkpt lat="44.2442383" lon="10.61703"><ele>1290.6</ele><time>2026-05-03T14:02:40.747Z</time></trkpt><trkpt lat="44.2443167" lon="10.6171367"><ele>1290.8</ele><time>2026-05-03T14:02:41.747Z</time></trkpt><trkpt lat="44.244395" lon="10.617235"><ele>1291.0</ele><time>2026-05-03T14:02:42.747Z</time></trkpt><trkpt lat="44.2444667" lon="10.61736"><ele>1291.0</ele><time>2026-05-03T14:02:43.747Z</time></trkpt><trkpt lat="44.2445267" lon="10.6174917"><ele>1291.0</ele><time>2026-05-03T14:02:44.746Z</time></trkpt><trkpt lat="44.2445867" lon="10.6176333"><ele>1291.0</ele><time>2026-05-03T14:02:45.747Z</time></trkpt><trkpt lat="44.24462" lon="10.617755"><ele>1291.0</ele><time>2026-05-03T14:02:46.747Z</time></trkpt><trkpt lat="44.24465" lon="10.617885"><ele>1291.0</ele><time>2026-05-03T14:02:47.747Z</time></trkpt><trkpt lat="44.2446633" lon="10.6180233"><ele>1290.4</ele><time>2026-05-03T14:02:48.747Z</time></trkpt><trkpt lat="44.2446883" lon="10.6181667"><ele>1289.8</ele><time>2026-05-03T14:02:49.747Z</time></trkpt><trkpt lat="44.2447217" lon="10.6182817"><ele>1289.2</ele><time>2026-05-03T14:02:50.746Z</time></trkpt><trkpt lat="44.2447683" lon="10.6183883"><ele>1288.6000000000001</ele><time>2026-05-03T14:02:51.747Z</time></trkpt><trkpt lat="44.2448283" lon="10.6184867"><ele>1288.0</ele><time>2026-05-03T14:02:52.747Z</time></trkpt><trkpt lat="44.244905" lon="10.6185817"><ele>1290.5</ele><time>2026-05-03T14:02:53.747Z</time></trkpt><trkpt lat="44.24499" lon="10.6186667"><ele>1293.0</ele><time>2026-05-03T14:02:54.747Z</time></trkpt><trkpt lat="44.245085" lon="10.61877"><ele>1295.5</ele><time>2026-05-03T14:02:55.747Z</time></trkpt><trkpt lat="44.2451883" lon="10.6188733"><ele>1298.0</ele><time>2026-05-03T14:02:56.747Z</time></trkpt><trkpt lat="44.2452917" lon="10.6189783"><ele>1298.0</ele><time>2026-05-03T14:02:57.747Z</time></trkpt><trkpt lat="44.24538" lon="10.6190567"><ele>1298.0</ele><time>2026-05-03T14:02:58.747Z</time></trkpt><trkpt lat="44.2454733" lon="10.6191133"><ele>1298.0</ele><time>2026-05-03T14:02:59.747Z</time></trkpt><trkpt lat="44.2455683" lon="10.6191433"><ele>1298.0</ele><time>2026-05-03T14:03:00.746Z</time></trkpt><trkpt lat="44.245665" lon="10.6191533"><ele>1298.0</ele><time>2026-05-03T14:03:01.747Z</time></trkpt><trkpt lat="44.2457717" lon="10.619155"><ele>1299.6000000000001</ele><time>2026-05-03T14:03:02.747Z</time></trkpt><trkpt lat="44.2458867" lon="10.6191333"><ele>1301.2</ele><time>2026-05-03T14:03:03.747Z</time></trkpt><trkpt lat="44.2459933" lon="10.6191217"><ele>1302.8</ele><time>2026-05-03T14:03:04.747Z</time></trkpt><trkpt lat="44.2460983" lon="10.6190767"><ele>1304.4</ele><time>2026-05-03T14:03:05.747Z</time></trkpt><trkpt lat="44.2461883" lon="10.619"><ele>1306.0</ele><time>2026-05-03T14:03:06.747Z</time></trkpt><trkpt lat="44.2462917" lon="10.618915"><ele>1306.0</ele><time>2026-05-03T14:03:07.746Z</time></trkpt><trkpt lat="44.24639" lon="10.6188083"><ele>1306.0</ele><time>2026-05-03T14:03:08.747Z</time></trkpt><trkpt lat="44.2464967" lon="10.6186883"><ele>1306.0</ele><time>2026-05-03T14:03:09.746Z</time></trkpt><trkpt lat="44.2466" lon="10.6185733"><ele>1306.0</ele><time>2026-05-03T14:03:10.747Z</time></trkpt><trkpt lat="44.246715" lon="10.6184617"><ele>1305.5</ele><time>2026-05-03T14:03:11.747Z</time></trkpt><trkpt lat="44.2468233" lon="10.618355"><ele>1305.0</ele><time>2026-05-03T14:03:12.747Z</time></trkpt><trkpt lat="44.246935" lon="10.6182683"><ele>1304.5</ele><time>2026-05-03T14:03:13.747Z</time></trkpt><trkpt lat="44.24704" lon="10.6182067"><ele>1304.0</ele><time>2026-05-03T14:03:14.747Z</time></trkpt><trkpt lat="44.2471367" lon="10.618145"><ele>1304.0</ele><time>2026-05-03T14:03:15.746Z</time></trkpt><trkpt lat="44.2472283" lon="10.618085"><ele>1304.0</ele><time>2026-05-03T14:03:16.747Z</time></trkpt><trkpt lat="44.2473167" lon="10.6179917"><ele>1304.0</ele><time>2026-05-03T14:03:17.747Z</time></trkpt><trkpt lat="44.2473967" lon="10.6178633"><ele>1304.0</ele><time>2026-05-03T14:03:18.747Z</time></trkpt><trkpt lat="44.2474717" lon="10.6177183"><ele>1304.0</ele><time>2026-05-03T14:03:19.747Z</time></trkpt><trkpt lat="44.2475567" lon="10.61758"><ele>1304.0</ele><time>2026-05-03T14:03:20.747Z</time></trkpt><trkpt lat="44.2476383" lon="10.6174533"><ele>1304.0</ele><time>2026-05-03T14:03:21.746Z</time></trkpt><trkpt lat="44.2477183" lon="10.617355"><ele>1304.0</ele><time>2026-05-03T14:03:22.747Z</time></trkpt><trkpt lat="44.2478083" lon="10.6172717"><ele>1304.0</ele><time>2026-05-03T14:03:23.746Z</time></trkpt><trkpt lat="44.2478983" lon="10.6172017"><ele>1304.0</ele><time>2026-05-03T14:03:24.746Z</time></trkpt><trkpt lat="44.248" lon="10.6171767"><ele>1304.0</ele><time>2026-05-03T14:03:25.747Z</time></trkpt><trkpt lat="44.2481267" lon="10.617175"><ele>1304.0</ele><time>2026-05-03T14:03:26.747Z</time></trkpt><trkpt lat="44.2482683" lon="10.6171583"><ele>1297.25</ele><time>2026-05-03T14:03:27.746Z</time></trkpt><trkpt lat="44.2484" lon="10.6171683"><ele>1290.5</ele><time>2026-05-03T14:03:28.747Z</time></trkpt><trkpt lat="44.2485267" lon="10.6171967"><ele>1283.75</ele><time>2026-05-03T14:03:29.747Z</time></trkpt><trkpt lat="44.2486533" lon="10.6172017"><ele>1277.0</ele><time>2026-05-03T14:03:30.747Z</time></trkpt><trkpt lat="44.2487833" lon="10.6172033"><ele>1277.0</ele><time>2026-05-03T14:03:31.747Z</time></trkpt><trkpt lat="44.2488967" lon="10.6172083"><ele>1277.0</ele><time>2026-05-03T14:03:32.747Z</time></trkpt><trkpt lat="44.249015" lon="10.6172067"><ele>1277.0</ele><time>2026-05-03T14:03:33.747Z</time></trkpt><trkpt lat="44.249135" lon="10.617195"><ele>1277.0</ele><time>2026-05-03T14:03:34.747Z</time></trkpt><trkpt lat="44.2492517" lon="10.617165"><ele>1276.0</ele><time>2026-05-03T14:03:35.747Z</time></trkpt><trkpt lat="44.24937" lon="10.6171117"><ele>1275.0</ele><time>2026-05-03T14:03:36.747Z</time></trkpt><trkpt lat="44.2494983" lon="10.6170467"><ele>1274.0</ele><time>2026-05-03T14:03:37.747Z</time></trkpt><trkpt lat="44.2496267" lon="10.6169817"><ele>1273.0</ele><time>2026-05-03T14:03:38.746Z</time></trkpt><trkpt lat="44.2497617" lon="10.6169033"><ele>1272.6666666666665</ele><time>2026-05-03T14:03:39.747Z</time></trkpt><trkpt lat="44.2499" lon="10.616825"><ele>1272.3333333333333</ele><time>2026-05-03T14:03:40.747Z</time></trkpt><trkpt lat="44.2500433" lon="10.6167417"><ele>1272.0</ele><time>2026-05-03T14:03:41.747Z</time></trkpt><trkpt lat="44.25018" lon="10.61667"><ele>1272.0</ele><time>2026-05-03T14:03:42.747Z</time></trkpt><trkpt lat="44.2503033" lon="10.6166033"><ele>1272.0</ele><time>2026-05-03T14:03:43.747Z</time></trkpt><trkpt lat="44.2504267" lon="10.61654"><ele>1272.0</ele><time>2026-05-03T14:03:44.747Z</time></trkpt><trkpt lat="44.25053" lon="10.61649"><ele>1272.0</ele><time>2026-05-03T14:03:45.747Z</time></trkpt><trkpt lat="44.2506317" lon="10.616455"><ele>1270.4</ele><time>2026-05-03T14:03:46.747Z</time></trkpt><trkpt lat="44.2507233" lon="10.6164517"><ele>1268.8000000000002</ele><time>2026-05-03T14:03:47.747Z</time></trkpt><trkpt lat="44.250805" lon="10.6164733"><ele>1267.2</ele><time>2026-05-03T14:03:48.746Z</time></trkpt><trkpt lat="44.25088" lon="10.61656"><ele>1265.6000000000001</ele><time>2026-05-03T14:03:49.747Z</time></trkpt><trkpt lat="44.2509617" lon="10.616665"><ele>1264.0</ele><time>2026-05-03T14:03:50.747Z</time></trkpt><trkpt lat="44.2510567" lon="10.61675"><ele>1264.0</ele><time>2026-05-03T14:03:51.747Z</time></trkpt><trkpt lat="44.251175" lon="10.6168"><ele>1264.0</ele><time>2026-05-03T14:03:52.746Z</time></trkpt><trkpt lat="44.2512917" lon="10.6168267"><ele>1264.0</ele><time>2026-05-03T14:03:53.747Z</time></trkpt><trkpt lat="44.2513917" lon="10.616825"><ele>1264.0</ele><time>2026-05-03T14:03:54.747Z</time></trkpt><trkpt lat="44.2514683" lon="10.61683"><ele>1264.0</ele><time>2026-05-03T14:03:55.747Z</time></trkpt><trkpt lat="44.251595" lon="10.616775"><ele>1263.8</ele><time>2026-05-03T14:03:57.747Z</time></trkpt><trkpt lat="44.2516783" lon="10.6167367"><ele>1263.6000000000001</ele><time>2026-05-03T14:03:58.747Z</time></trkpt><trkpt lat="44.2517617" lon="10.6167167"><ele>1263.4</ele><time>2026-05-03T14:03:59.747Z</time></trkpt><trkpt lat="44.25185" lon="10.616735"><ele>1263.2</ele><time>2026-05-03T14:04:00.747Z</time></trkpt><trkpt lat="44.25194" lon="10.6167867"><ele>1263.0</ele><time>2026-05-03T14:04:01.747Z</time></trkpt><trkpt lat="44.25203" lon="10.6168383"><ele>1263.0</ele><time>2026-05-03T14:04:02.747Z</time></trkpt><trkpt lat="44.252135" lon="10.6168617"><ele>1263.0</ele><time>2026-05-03T14:04:03.747Z</time></trkpt><trkpt lat="44.2522517" lon="10.6168567"><ele>1263.0</ele><time>2026-05-03T14:04:04.747Z</time></trkpt><trkpt lat="44.2523733" lon="10.616805"><ele>1263.0</ele><time>2026-05-03T14:04:05.747Z</time></trkpt><trkpt lat="44.2524917" lon="10.6167333"><ele>1262.75</ele><time>2026-05-03T14:04:06.747Z</time></trkpt><trkpt lat="44.2526167" lon="10.616675"><ele>1262.5</ele><time>2026-05-03T14:04:07.747Z</time></trkpt><trkpt lat="44.2527383" lon="10.61662"><ele>1262.25</ele><time>2026-05-03T14:04:08.747Z</time></trkpt><trkpt lat="44.2528617" lon="10.6165633"><ele>1262.0</ele><time>2026-05-03T14:04:09.747Z</time></trkpt><trkpt lat="44.2529817" lon="10.6165217"><ele>1262.0</ele><time>2026-05-03T14:04:10.747Z</time></trkpt><trkpt lat="44.2530983" lon="10.616505"><ele>1262.0</ele><time>2026-05-03T14:04:11.747Z</time></trkpt><trkpt lat="44.2532167" lon="10.616505"><ele>1262.0</ele><time>2026-05-03T14:04:12.747Z</time></trkpt><trkpt lat="44.2533267" lon="10.6165083"><ele>1262.0</ele><time>2026-05-03T14:04:13.746Z</time></trkpt><trkpt lat="44.2534417" lon="10.616535"><ele>1263.0</ele><time>2026-05-03T14:04:14.746Z</time></trkpt><trkpt lat="44.253555" lon="10.6165883"><ele>1264.0</ele><time>2026-05-03T14:04:15.747Z</time></trkpt><trkpt lat="44.253665" lon="10.6166433"><ele>1265.0</ele><time>2026-05-03T14:04:16.746Z</time></trkpt><trkpt lat="44.2537717" lon="10.61669"><ele>1266.0</ele><time>2026-05-03T14:04:17.747Z</time></trkpt><trkpt lat="44.2538883" lon="10.616735"><ele>1267.2</ele><time>2026-05-03T14:04:18.747Z</time></trkpt><trkpt lat="44.2539883" lon="10.6167767"><ele>1268.3999999999999</ele><time>2026-05-03T14:04:19.746Z</time></trkpt><trkpt lat="44.25407" lon="10.616805"><ele>1269.6</ele><time>2026-05-03T14:04:20.746Z</time></trkpt><trkpt lat="44.25415" lon="10.6168117"><ele>1270.8</ele><time>2026-05-03T14:04:21.747Z</time></trkpt><trkpt lat="44.2542417" lon="10.616785"><ele>1272.0</ele><time>2026-05-03T14:04:22.747Z</time></trkpt><trkpt lat="44.2543383" lon="10.6167367"><ele>1272.0</ele><time>2026-05-03T14:04:23.747Z</time></trkpt><trkpt lat="44.2544433" lon="10.6166883"><ele>1272.0</ele><time>2026-05-03T14:04:24.747Z</time></trkpt><trkpt lat="44.2545617" lon="10.61664"><ele>1272.0</ele><time>2026-05-03T14:04:25.747Z</time></trkpt><trkpt lat="44.254695" lon="10.6165867"><ele>1272.0</ele><time>2026-05-03T14:04:26.747Z</time></trkpt><trkpt lat="44.2548283" lon="10.6165217"><ele>1270.5</ele><time>2026-05-03T14:04:27.747Z</time></trkpt><trkpt lat="44.254945" lon="10.616455"><ele>1269.0</ele><time>2026-05-03T14:04:28.747Z</time></trkpt><trkpt lat="44.2550483" lon="10.6163983"><ele>1267.5</ele><time>2026-05-03T14:04:29.746Z</time></trkpt><trkpt lat="44.2551683" lon="10.616345"><ele>1266.0</ele><time>2026-05-03T14:04:30.747Z</time></trkpt><trkpt lat="44.25528" lon="10.6163017"><ele>1266.0</ele><time>2026-05-03T14:04:31.747Z</time></trkpt><trkpt lat="44.2554" lon="10.6162833"><ele>1266.0</ele><time>2026-05-03T14:04:32.747Z</time></trkpt><trkpt lat="44.2555283" lon="10.6162817"><ele>1266.0</ele><time>2026-05-03T14:04:33.747Z</time></trkpt><trkpt lat="44.2556583" lon="10.6162917"><ele>1266.0</ele><time>2026-05-03T14:04:34.747Z</time></trkpt><trkpt lat="44.2557983" lon="10.6163267"><ele>1264.75</ele><time>2026-05-03T14:04:35.747Z</time></trkpt><trkpt lat="44.2559367" lon="10.616365"><ele>1263.5</ele><time>2026-05-03T14:04:36.746Z</time></trkpt><trkpt lat="44.25607" lon="10.61639"><ele>1262.25</ele><time>2026-05-03T14:04:37.746Z</time></trkpt><trkpt lat="44.2562" lon="10.61639"><ele>1261.0</ele><time>2026-05-03T14:04:38.747Z</time></trkpt><trkpt lat="44.256315" lon="10.6163917"><ele>1261.0</ele><time>2026-05-03T14:04:39.746Z</time></trkpt><trkpt lat="44.2564133" lon="10.6164017"><ele>1261.0</ele><time>2026-05-03T14:04:40.747Z</time></trkpt><trkpt lat="44.2565" lon="10.61644"><ele>1261.0</ele><time>2026-05-03T14:04:41.746Z</time></trkpt><trkpt lat="44.2565867" lon="10.6164967"><ele>1261.0</ele><time>2026-05-03T14:04:42.747Z</time></trkpt><trkpt lat="44.2566533" lon="10.61656"><ele>1261.0</ele><time>2026-05-03T14:04:43.747Z</time></trkpt><trkpt lat="44.2566933" lon="10.6166383"><ele>1261.0</ele><time>2026-05-03T14:04:44.746Z</time></trkpt><trkpt lat="44.2567217" lon="10.6167333"><ele>1260.2</ele><time>2026-05-03T14:04:45.747Z</time></trkpt><trkpt lat="44.25673" lon="10.61687"><ele>1259.3999999999999</ele><time>2026-05-03T14:04:46.747Z</time></trkpt><trkpt lat="44.2567333" lon="10.61703"><ele>1258.6</ele><time>2026-05-03T14:04:47.747Z</time></trkpt><trkpt lat="44.2567517" lon="10.61718"><ele>1257.8</ele><time>2026-05-03T14:04:48.747Z</time></trkpt><trkpt lat="44.2567817" lon="10.6173283"><ele>1257.0</ele><time>2026-05-03T14:04:49.747Z</time></trkpt><trkpt lat="44.2568367" lon="10.6174417"><ele>1257.0</ele><time>2026-05-03T14:04:50.747Z</time></trkpt><trkpt lat="44.256915" lon="10.6175217"><ele>1257.0</ele><time>2026-05-03T14:04:51.746Z</time></trkpt><trkpt lat="44.2570083" lon="10.617585"><ele>1257.0</ele><time>2026-05-03T14:04:52.747Z</time></trkpt><trkpt lat="44.2571133" lon="10.6176167"><ele>1257.0</ele><time>2026-05-03T14:04:53.747Z</time></trkpt><trkpt lat="44.2572333" lon="10.617645"><ele>1257.0</ele><time>2026-05-03T14:04:54.747Z</time></trkpt><trkpt lat="44.2573483" lon="10.617685"><ele>1256.25</ele><time>2026-05-03T14:04:55.746Z</time></trkpt><trkpt lat="44.25746" lon="10.6177433"><ele>1255.5</ele><time>2026-05-03T14:04:56.746Z</time></trkpt><trkpt lat="44.25757" lon="10.61782"><ele>1254.75</ele><time>2026-05-03T14:04:57.746Z</time></trkpt><trkpt lat="44.2576833" lon="10.6178817"><ele>1254.0</ele><time>2026-05-03T14:04:58.747Z</time></trkpt><trkpt lat="44.2578033" lon="10.6179183"><ele>1253.5</ele><time>2026-05-03T14:04:59.747Z</time></trkpt><trkpt lat="44.25793" lon="10.6179667"><ele>1253.0</ele><time>2026-05-03T14:05:00.747Z</time></trkpt><trkpt lat="44.2580533" lon="10.6180133"><ele>1252.5</ele><time>2026-05-03T14:05:01.746Z</time></trkpt><trkpt lat="44.2581733" lon="10.6180417"><ele>1252.0</ele><time>2026-05-03T14:05:02.747Z</time></trkpt><trkpt lat="44.2582983" lon="10.618065"><ele>1253.25</ele><time>2026-05-03T14:05:03.747Z</time></trkpt><trkpt lat="44.25841" lon="10.6180983"><ele>1254.5</ele><time>2026-05-03T14:05:04.747Z</time></trkpt><trkpt lat="44.2585233" lon="10.6181467"><ele>1255.75</ele><time>2026-05-03T14:05:05.747Z</time></trkpt><trkpt lat="44.2586433" lon="10.6182133"><ele>1257.0</ele><time>2026-05-03T14:05:06.747Z</time></trkpt><trkpt lat="44.25875" lon="10.6183033"><ele>1257.0</ele><time>2026-05-03T14:05:07.747Z</time></trkpt><trkpt lat="44.2588433" lon="10.618405"><ele>1257.0</ele><time>2026-05-03T14:05:08.747Z</time></trkpt><trkpt lat="44.2589217" lon="10.6185417"><ele>1257.0</ele><time>2026-05-03T14:05:09.746Z</time></trkpt><trkpt lat="44.2589817" lon="10.6186883"><ele>1257.0</ele><time>2026-05-03T14:05:10.747Z</time></trkpt><trkpt lat="44.25904" lon="10.6188467"><ele>1259.0</ele><time>2026-05-03T14:05:11.747Z</time></trkpt><trkpt lat="44.2591117" lon="10.6190033"><ele>1261.0</ele><time>2026-05-03T14:05:12.747Z</time></trkpt><trkpt lat="44.2591933" lon="10.619155"><ele>1263.0</ele><time>2026-05-03T14:05:13.747Z</time></trkpt><trkpt lat="44.2592867" lon="10.6192783"><ele>1265.0</ele><time>2026-05-03T14:05:14.747Z</time></trkpt><trkpt lat="44.2593867" lon="10.6193833"><ele>1265.0</ele><time>2026-05-03T14:05:15.747Z</time></trkpt><trkpt lat="44.2594883" lon="10.61947"><ele>1265.0</ele><time>2026-05-03T14:05:16.747Z</time></trkpt><trkpt lat="44.25959" lon="10.61953"><ele>1265.0</ele><time>2026-05-03T14:05:17.746Z</time></trkpt><trkpt lat="44.2596883" lon="10.619595"><ele>1265.0</ele><time>2026-05-03T14:05:18.746Z</time></trkpt><trkpt lat="44.2597717" lon="10.6196617"><ele>1265.0</ele><time>2026-05-03T14:05:19.746Z</time></trkpt><trkpt lat="44.2598517" lon="10.619735"><ele>1264.8333333333335</ele><time>2026-05-03T14:05:20.747Z</time></trkpt><trkpt lat="44.2599283" lon="10.619795"><ele>1264.6666666666667</ele><time>2026-05-03T14:05:21.746Z</time></trkpt><trkpt lat="44.260005" lon="10.619845"><ele>1264.5</ele><time>2026-05-03T14:05:22.747Z</time></trkpt><trkpt lat="44.2600717" lon="10.6198917"><ele>1264.3333333333333</ele><time>2026-05-03T14:05:23.747Z</time></trkpt><trkpt lat="44.26014" lon="10.61994"><ele>1264.1666666666665</ele><time>2026-05-03T14:05:24.746Z</time></trkpt><trkpt lat="44.2601983" lon="10.619975"><ele>1264.0</ele><time>2026-05-03T14:05:25.747Z</time></trkpt><trkpt lat="44.2602633" lon="10.62002"><ele>1264.0</ele><time>2026-05-03T14:05:26.747Z</time></trkpt><trkpt lat="44.2603233" lon="10.6200567"><ele>1264.0</ele><time>2026-05-03T14:05:27.747Z</time></trkpt><trkpt lat="44.260425" lon="10.620075"><ele>1264.0</ele><time>2026-05-03T14:05:29.747Z</time></trkpt><trkpt lat="44.2604967" lon="10.62007"><ele>1264.0</ele><time>2026-05-03T14:05:31.747Z</time></trkpt><trkpt lat="44.26061" lon="10.6200917"><ele>1264.0</ele><time>2026-05-03T14:05:55.746Z</time></trkpt><trkpt lat="44.2606867" lon="10.620105"><ele>1264.0</ele><time>2026-05-03T14:05:56.747Z</time></trkpt><trkpt lat="44.260775" lon="10.62013"><ele>1263.8</ele><time>2026-05-03T14:05:57.747Z</time></trkpt><trkpt lat="44.2608667" lon="10.6201733"><ele>1263.6000000000001</ele><time>2026-05-03T14:05:58.747Z</time></trkpt><trkpt lat="44.26095" lon="10.620235"><ele>1263.4</ele><time>2026-05-03T14:05:59.747Z</time></trkpt><trkpt lat="44.261025" lon="10.6203167"><ele>1263.2</ele><time>2026-05-03T14:06:00.747Z</time></trkpt><trkpt lat="44.2610933" lon="10.6204167"><ele>1263.0</ele><time>2026-05-03T14:06:01.746Z</time></trkpt><trkpt lat="44.261155" lon="10.6205267"><ele>1262.8</ele><time>2026-05-03T14:06:02.747Z</time></trkpt><trkpt lat="44.2611967" lon="10.62064"><ele>1262.6</ele><time>2026-05-03T14:06:03.747Z</time></trkpt><trkpt lat="44.2612367" lon="10.6207417"><ele>1262.4</ele><time>2026-05-03T14:06:04.747Z</time></trkpt><trkpt lat="44.261295" lon="10.620845"><ele>1262.2</ele><time>2026-05-03T14:06:05.747Z</time></trkpt><trkpt lat="44.26136" lon="10.620945"><ele>1262.0</ele><time>2026-05-03T14:06:06.747Z</time></trkpt><trkpt lat="44.2614017" lon="10.6210617"><ele>1261.2</ele><time>2026-05-03T14:06:07.747Z</time></trkpt><trkpt lat="44.2614333" lon="10.6211867"><ele>1260.4</ele><time>2026-05-03T14:06:08.747Z</time></trkpt><trkpt lat="44.2614783" lon="10.6213383"><ele>1259.6</ele><time>2026-05-03T14:06:09.747Z</time></trkpt><trkpt lat="44.261515" lon="10.62149"><ele>1258.8</ele><time>2026-05-03T14:06:10.747Z</time></trkpt><trkpt lat="44.2615467" lon="10.62163"><ele>1258.0</ele><time>2026-05-03T14:06:11.746Z</time></trkpt><trkpt lat="44.26158" lon="10.6217583"><ele>1261.0</ele><time>2026-05-03T14:06:12.747Z</time></trkpt><trkpt lat="44.2616067" lon="10.6218667"><ele>1264.0</ele><time>2026-05-03T14:06:13.747Z</time></trkpt><trkpt lat="44.2616483" lon="10.62196"><ele>1267.0</ele><time>2026-05-03T14:06:14.747Z</time></trkpt><trkpt lat="44.2617083" lon="10.6220517"><ele>1270.0</ele><time>2026-05-03T14:06:15.747Z</time></trkpt><trkpt lat="44.2617717" lon="10.6221483"><ele>1273.0</ele><time>2026-05-03T14:06:16.747Z</time></trkpt><trkpt lat="44.26183" lon="10.6222283"><ele>1276.0</ele><time>2026-05-03T14:06:17.747Z</time></trkpt><trkpt lat="44.261885" lon="10.6222983"><ele>1276.0</ele><time>2026-05-03T14:06:18.747Z</time></trkpt><trkpt lat="44.2619633" lon="10.6223783"><ele>1276.0</ele><time>2026-05-03T14:06:20.747Z</time></trkpt><trkpt lat="44.262075" lon="10.6223867"><ele>1276.0</ele><time>2026-05-03T14:06:22.747Z</time></trkpt><trkpt lat="44.262145" lon="10.6223833"><ele>1276.0</ele><time>2026-05-03T14:06:23.747Z</time></trkpt><trkpt lat="44.2622217" lon="10.6223667"><ele>1276.0</ele><time>2026-05-03T14:06:24.747Z</time></trkpt><trkpt lat="44.2622967" lon="10.6223433"><ele>1276.0</ele><time>2026-05-03T14:06:25.747Z</time></trkpt><trkpt lat="44.2623683" lon="10.6223117"><ele>1278.5</ele><time>2026-05-03T14:06:26.747Z</time></trkpt><trkpt lat="44.2624433" lon="10.62229"><ele>1281.0</ele><time>2026-05-03T14:06:27.746Z</time></trkpt><trkpt lat="44.2625133" lon="10.6222767"><ele>1283.5</ele><time>2026-05-03T14:06:28.745Z</time></trkpt><trkpt lat="44.2626033" lon="10.6222467"><ele>1286.0</ele><time>2026-05-03T14:06:29.746Z</time></trkpt><trkpt lat="44.2626867" lon="10.6222233"><ele>1288.5</ele><time>2026-05-03T14:06:30.746Z</time></trkpt><trkpt lat="44.26276" lon="10.6222233"><ele>1291.0</ele><time>2026-05-03T14:06:31.746Z</time></trkpt><trkpt lat="44.2628683" lon="10.62233"><ele>1291.0</ele><time>2026-05-03T14:06:33.746Z</time></trkpt><trkpt lat="44.2629083" lon="10.6224333"><ele>1291.0</ele><time>2026-05-03T14:06:34.746Z</time></trkpt><trkpt lat="44.2629433" lon="10.6225483"><ele>1291.0</ele><time>2026-05-03T14:06:35.746Z</time></trkpt><trkpt lat="44.2629683" lon="10.622665"><ele>1291.0</ele><time>2026-05-03T14:06:36.746Z</time></trkpt><trkpt lat="44.2629867" lon="10.6227883"><ele>1291.0</ele><time>2026-05-03T14:06:37.746Z</time></trkpt><trkpt lat="44.263" lon="10.6229067"><ele>1291.0</ele><time>2026-05-03T14:06:38.746Z</time></trkpt><trkpt lat="44.2630133" lon="10.6230417"><ele>1292.6666666666665</ele><time>2026-05-03T14:06:39.745Z</time></trkpt><trkpt lat="44.26303" lon="10.623145"><ele>1294.3333333333333</ele><time>2026-05-03T14:06:40.746Z</time></trkpt><trkpt lat="44.2630517" lon="10.6232517"><ele>1296.0</ele><time>2026-05-03T14:06:41.746Z</time></trkpt><trkpt lat="44.263075" lon="10.62336"><ele>1297.6666666666667</ele><time>2026-05-03T14:06:42.746Z</time></trkpt><trkpt lat="44.2630867" lon="10.6234567"><ele>1299.3333333333335</ele><time>2026-05-03T14:06:43.746Z</time></trkpt><trkpt lat="44.2630567" lon="10.6236217"><ele>1301.0</ele><time>2026-05-03T14:06:45.746Z</time></trkpt><trkpt lat="44.263025" lon="10.623705"><ele>1302.8333333333335</ele><time>2026-05-03T14:06:46.746Z</time></trkpt><trkpt lat="44.2629867" lon="10.6237983"><ele>1304.6666666666667</ele><time>2026-05-03T14:06:47.746Z</time></trkpt><trkpt lat="44.2629483" lon="10.6239067"><ele>1306.5</ele><time>2026-05-03T14:06:48.746Z</time></trkpt><trkpt lat="44.26291" lon="10.6240167"><ele>1308.3333333333333</ele><time>2026-05-03T14:06:49.746Z</time></trkpt><trkpt lat="44.26289" lon="10.6241317"><ele>1310.1666666666665</ele><time>2026-05-03T14:06:50.745Z</time></trkpt><trkpt lat="44.2628767" lon="10.6242417"><ele>1312.0</ele><time>2026-05-03T14:06:51.746Z</time></trkpt><trkpt lat="44.2628783" lon="10.624345"><ele>1312.0</ele><time>2026-05-03T14:06:52.745Z</time></trkpt><trkpt lat="44.26288" lon="10.62447"><ele>1312.0</ele><time>2026-05-03T14:06:53.745Z</time></trkpt><trkpt lat="44.2628817" lon="10.6246083"><ele>1312.0</ele><time>2026-05-03T14:06:54.746Z</time></trkpt><trkpt lat="44.2628817" lon="10.6247433"><ele>1312.0</ele><time>2026-05-03T14:06:55.746Z</time></trkpt><trkpt lat="44.26289" lon="10.6248667"><ele>1312.0</ele><time>2026-05-03T14:06:56.745Z</time></trkpt><trkpt lat="44.26293" lon="10.6250033"><ele>1312.1999999999998</ele><time>2026-05-03T14:06:57.746Z</time></trkpt><trkpt lat="44.2629867" lon="10.62513"><ele>1312.4</ele><time>2026-05-03T14:06:58.745Z</time></trkpt><trkpt lat="44.2630533" lon="10.6252717"><ele>1312.6</ele><time>2026-05-03T14:06:59.746Z</time></trkpt><trkpt lat="44.2631117" lon="10.6254"><ele>1312.8000000000002</ele><time>2026-05-03T14:07:00.745Z</time></trkpt><trkpt lat="44.2631567" lon="10.6255267"><ele>1313.0</ele><time>2026-05-03T14:07:01.746Z</time></trkpt><trkpt lat="44.2631833" lon="10.62565"><ele>1314.1666666666667</ele><time>2026-05-03T14:07:02.746Z</time></trkpt><trkpt lat="44.2631967" lon="10.625775"><ele>1315.3333333333335</ele><time>2026-05-03T14:07:03.746Z</time></trkpt><trkpt lat="44.2632067" lon="10.625875"><ele>1316.5</ele><time>2026-05-03T14:07:04.746Z</time></trkpt><trkpt lat="44.2631883" lon="10.6259733"><ele>1317.6666666666667</ele><time>2026-05-03T14:07:05.746Z</time></trkpt><trkpt lat="44.2631317" lon="10.6260567"><ele>1318.8333333333333</ele><time>2026-05-03T14:07:06.745Z</time></trkpt><trkpt lat="44.263055" lon="10.62615"><ele>1320.0</ele><time>2026-05-03T14:07:07.746Z</time></trkpt><trkpt lat="44.2629833" lon="10.626255"><ele>1320.0</ele><time>2026-05-03T14:07:08.746Z</time></trkpt><trkpt lat="44.2629517" lon="10.62635"><ele>1320.0</ele><time>2026-05-03T14:07:09.746Z</time></trkpt><trkpt lat="44.2629583" lon="10.626455"><ele>1320.0</ele><time>2026-05-03T14:07:10.746Z</time></trkpt><trkpt lat="44.2630017" lon="10.62655"><ele>1320.0</ele><time>2026-05-03T14:07:11.746Z</time></trkpt><trkpt lat="44.2630583" lon="10.6266133"><ele>1320.0</ele><time>2026-05-03T14:07:12.746Z</time></trkpt><trkpt lat="44.2631817" lon="10.6266533"><ele>1320.0</ele><time>2026-05-03T14:07:14.746Z</time></trkpt><trkpt lat="44.2632533" lon="10.6266683"><ele>1323.0</ele><time>2026-05-03T14:07:15.746Z</time></trkpt><trkpt lat="44.2633183" lon="10.6267267"><ele>1326.0</ele><time>2026-05-03T14:07:16.746Z</time></trkpt><trkpt lat="44.2633567" lon="10.6268183"><ele>1329.0</ele><time>2026-05-03T14:07:17.746Z</time></trkpt><trkpt lat="44.2633717" lon="10.6269217"><ele>1332.0</ele><time>2026-05-03T14:07:18.746Z</time></trkpt><trkpt lat="44.263365" lon="10.6270567"><ele>1335.0</ele><time>2026-05-03T14:07:19.746Z</time></trkpt><trkpt lat="44.2633267" lon="10.627205"><ele>1338.0</ele><time>2026-05-03T14:07:20.746Z</time></trkpt><trkpt lat="44.2632867" lon="10.6273617"><ele>1337.2</ele><time>2026-05-03T14:07:21.746Z</time></trkpt><trkpt lat="44.2632333" lon="10.6275033"><ele>1336.4</ele><time>2026-05-03T14:07:22.746Z</time></trkpt><trkpt lat="44.263205" lon="10.6276467"><ele>1335.6000000000001</ele><time>2026-05-03T14:07:23.745Z</time></trkpt><trkpt lat="44.263175" lon="10.6277867"><ele>1334.8000000000002</ele><time>2026-05-03T14:07:24.746Z</time></trkpt><trkpt lat="44.2631433" lon="10.6279167"><ele>1334.0</ele><time>2026-05-03T14:07:25.746Z</time></trkpt><trkpt lat="44.2631067" lon="10.6280333"><ele>1334.0</ele><time>2026-05-03T14:07:26.746Z</time></trkpt><trkpt lat="44.2630733" lon="10.628125"><ele>1334.0</ele><time>2026-05-03T14:07:27.746Z</time></trkpt><trkpt lat="44.2630167" lon="10.6282667"><ele>1334.0</ele><time>2026-05-03T14:07:29.746Z</time></trkpt><trkpt lat="44.2629933" lon="10.6283567"><ele>1334.0</ele><time>2026-05-03T14:07:30.745Z</time></trkpt><trkpt lat="44.2629867" lon="10.628445"><ele>1334.0</ele><time>2026-05-03T14:07:31.745Z</time></trkpt><trkpt lat="44.262975" lon="10.6285717"><ele>1334.0</ele><time>2026-05-03T14:07:33.746Z</time></trkpt><trkpt lat="44.2629317" lon="10.6286817"><ele>1335.2857142857144</ele><time>2026-05-03T14:07:35.746Z</time></trkpt><trkpt lat="44.2628917" lon="10.62876"><ele>1336.5714285714287</ele><time>2026-05-03T14:07:36.746Z</time></trkpt><trkpt lat="44.2628483" lon="10.6288467"><ele>1337.857142857143</ele><time>2026-05-03T14:07:37.746Z</time></trkpt><trkpt lat="44.262795" lon="10.6289267"><ele>1339.1428571428573</ele><time>2026-05-03T14:07:38.746Z</time></trkpt><trkpt lat="44.2627417" lon="10.629005"><ele>1340.4285714285716</ele><time>2026-05-03T14:07:39.746Z</time></trkpt><trkpt lat="44.262695" lon="10.629075"><ele>1341.7142857142858</ele><time>2026-05-03T14:07:40.746Z</time></trkpt><trkpt lat="44.262655" lon="10.629145"><ele>1343.0</ele><time>2026-05-03T14:07:41.746Z</time></trkpt><trkpt lat="44.262605" lon="10.6292467"><ele>1343.0</ele><time>2026-05-03T14:07:43.746Z</time></trkpt><trkpt lat="44.262555" lon="10.6293683"><ele>1343.0</ele><time>2026-05-03T14:07:45.746Z</time></trkpt><trkpt lat="44.26247" lon="10.62946"><ele>1343.0</ele><time>2026-05-03T14:07:47.746Z</time></trkpt><trkpt lat="44.2624117" lon="10.6294933"><ele>1343.0</ele><time>2026-05-03T14:07:48.746Z</time></trkpt><trkpt lat="44.2623417" lon="10.6295517"><ele>1343.0</ele><time>2026-05-03T14:07:49.746Z</time></trkpt><trkpt lat="44.2622583" lon="10.6295967"><ele>1343.0</ele><time>2026-05-03T14:07:50.746Z</time></trkpt><trkpt lat="44.26217" lon="10.6296317"><ele>1342.4</ele><time>2026-05-03T14:07:51.746Z</time></trkpt><trkpt lat="44.2620867" lon="10.6296717"><ele>1341.8000000000002</ele><time>2026-05-03T14:07:52.746Z</time></trkpt><trkpt lat="44.26202" lon="10.629695"><ele>1341.2</ele><time>2026-05-03T14:07:53.746Z</time></trkpt><trkpt lat="44.2619333" lon="10.6297067"><ele>1340.6</ele><time>2026-05-03T14:07:55.745Z</time></trkpt><trkpt lat="44.2618767" lon="10.6298817"><ele>1340.0</ele><time>2026-05-03T14:08:15.745Z</time></trkpt><trkpt lat="44.261895" lon="10.6300367"><ele>1340.0</ele><time>2026-05-03T14:08:17.745Z</time></trkpt><trkpt lat="44.2619017" lon="10.6301367"><ele>1340.0</ele><time>2026-05-03T14:08:18.746Z</time></trkpt><trkpt lat="44.26192" lon="10.6302483"><ele>1340.0</ele><time>2026-05-03T14:08:19.745Z</time></trkpt><trkpt lat="44.2619517" lon="10.6303483"><ele>1340.0</ele><time>2026-05-03T14:08:20.746Z</time></trkpt><trkpt lat="44.2620033" lon="10.630435"><ele>1340.0</ele><time>2026-05-03T14:08:21.746Z</time></trkpt><trkpt lat="44.2620733" lon="10.6305183"><ele>1340.0</ele><time>2026-05-03T14:08:22.745Z</time></trkpt><trkpt lat="44.2621567" lon="10.6305983"><ele>1338.2</ele><time>2026-05-03T14:08:23.746Z</time></trkpt><trkpt lat="44.2622583" lon="10.630665"><ele>1336.4</ele><time>2026-05-03T14:08:24.746Z</time></trkpt><trkpt lat="44.26235" lon="10.6307117"><ele>1334.6</ele><time>2026-05-03T14:08:25.746Z</time></trkpt><trkpt lat="44.26244" lon="10.630775"><ele>1332.8</ele><time>2026-05-03T14:08:26.746Z</time></trkpt><trkpt lat="44.2625267" lon="10.6308417"><ele>1331.0</ele><time>2026-05-03T14:08:27.746Z</time></trkpt><trkpt lat="44.2626117" lon="10.6309267"><ele>1331.0</ele><time>2026-05-03T14:08:28.746Z</time></trkpt><trkpt lat="44.2626933" lon="10.6310133"><ele>1331.0</ele><time>2026-05-03T14:08:29.746Z</time></trkpt><trkpt lat="44.2627667" lon="10.6311033"><ele>1331.0</ele><time>2026-05-03T14:08:30.746Z</time></trkpt><trkpt lat="44.26284" lon="10.6311983"><ele>1331.0</ele><time>2026-05-03T14:08:31.746Z</time></trkpt><trkpt lat="44.2629117" lon="10.63129"><ele>1331.0</ele><time>2026-05-03T14:08:32.745Z</time></trkpt><trkpt lat="44.2629867" lon="10.6313817"><ele>1329.1666666666667</ele><time>2026-05-03T14:08:33.746Z</time></trkpt><trkpt lat="44.26306" lon="10.6314617"><ele>1327.3333333333335</ele><time>2026-05-03T14:08:34.746Z</time></trkpt><trkpt lat="44.2631217" lon="10.6315383"><ele>1325.5</ele><time>2026-05-03T14:08:35.745Z</time></trkpt><trkpt lat="44.2631733" lon="10.6316133"><ele>1323.6666666666667</ele><time>2026-05-03T14:08:36.746Z</time></trkpt><trkpt lat="44.2632217" lon="10.631695"><ele>1321.8333333333333</ele><time>2026-05-03T14:08:37.746Z</time></trkpt><trkpt lat="44.2632683" lon="10.631775"><ele>1320.0</ele><time>2026-05-03T14:08:38.746Z</time></trkpt><trkpt lat="44.2633183" lon="10.6318667"><ele>1318.4</ele><time>2026-05-03T14:08:39.746Z</time></trkpt><trkpt lat="44.2633717" lon="10.6319783"><ele>1316.8</ele><time>2026-05-03T14:08:40.746Z</time></trkpt><trkpt lat="44.2634233" lon="10.6321017"><ele>1315.1999999999998</ele><time>2026-05-03T14:08:41.746Z</time></trkpt><trkpt lat="44.2634683" lon="10.6322317"><ele>1313.6</ele><time>2026-05-03T14:08:42.746Z</time></trkpt><trkpt lat="44.263515" lon="10.6323517"><ele>1312.0</ele><time>2026-05-03T14:08:43.746Z</time></trkpt><trkpt lat="44.2635517" lon="10.6324617"><ele>1312.0</ele><time>2026-05-03T14:08:44.746Z</time></trkpt><trkpt lat="44.2635667" lon="10.632575"><ele>1312.0</ele><time>2026-05-03T14:08:45.746Z</time></trkpt><trkpt lat="44.26357" lon="10.6327083"><ele>1312.0</ele><time>2026-05-03T14:08:46.746Z</time></trkpt><trkpt lat="44.2635733" lon="10.632865"><ele>1312.0</ele><time>2026-05-03T14:08:47.746Z</time></trkpt><trkpt lat="44.2635867" lon="10.6329983"><ele>1312.0</ele><time>2026-05-03T14:08:48.746Z</time></trkpt><trkpt lat="44.26361" lon="10.6331083"><ele>1313.0</ele><time>2026-05-03T14:08:49.746Z</time></trkpt><trkpt lat="44.26363" lon="10.633195"><ele>1314.0</ele><time>2026-05-03T14:08:50.745Z</time></trkpt><trkpt lat="44.2637183" lon="10.633325"><ele>1315.0</ele><time>2026-05-03T14:08:52.746Z</time></trkpt><trkpt lat="44.2637767" lon="10.6334"><ele>1316.0</ele><time>2026-05-03T14:08:53.746Z</time></trkpt><trkpt lat="44.2638633" lon="10.63348"><ele>1317.0</ele><time>2026-05-03T14:08:54.746Z</time></trkpt><trkpt lat="44.2639533" lon="10.6335667"><ele>1314.25</ele><time>2026-05-03T14:08:55.746Z</time></trkpt><trkpt lat="44.264055" lon="10.633655"><ele>1311.5</ele><time>2026-05-03T14:08:56.746Z</time></trkpt><trkpt lat="44.2641467" lon="10.633745"><ele>1308.75</ele><time>2026-05-03T14:08:57.746Z</time></trkpt><trkpt lat="44.2642417" lon="10.633835"><ele>1306.0</ele><time>2026-05-03T14:08:58.746Z</time></trkpt><trkpt lat="44.26434" lon="10.63394"><ele>1306.0</ele><time>2026-05-03T14:08:59.746Z</time></trkpt><trkpt lat="44.2644267" lon="10.6340367"><ele>1306.0</ele><time>2026-05-03T14:09:00.746Z</time></trkpt><trkpt lat="44.2645083" lon="10.6341517"><ele>1306.0</ele><time>2026-05-03T14:09:01.745Z</time></trkpt><trkpt lat="44.2645733" lon="10.63428"><ele>1306.0</ele><time>2026-05-03T14:09:02.746Z</time></trkpt><trkpt lat="44.2646283" lon="10.6344333"><ele>1304.4</ele><time>2026-05-03T14:09:03.746Z</time></trkpt><trkpt lat="44.2646867" lon="10.6345633"><ele>1302.8</ele><time>2026-05-03T14:09:04.745Z</time></trkpt><trkpt lat="44.2647533" lon="10.6346783"><ele>1301.2</ele><time>2026-05-03T14:09:05.746Z</time></trkpt><trkpt lat="44.26482" lon="10.6347617"><ele>1299.6000000000001</ele><time>2026-05-03T14:09:06.746Z</time></trkpt><trkpt lat="44.2648917" lon="10.634835"><ele>1298.0</ele><time>2026-05-03T14:09:07.746Z</time></trkpt><trkpt lat="44.26497" lon="10.6348917"><ele>1298.8333333333335</ele><time>2026-05-03T14:09:08.745Z</time></trkpt><trkpt lat="44.265045" lon="10.634935"><ele>1299.6666666666667</ele><time>2026-05-03T14:09:09.746Z</time></trkpt><trkpt lat="44.2651183" lon="10.6349883"><ele>1300.5</ele><time>2026-05-03T14:09:10.746Z</time></trkpt><trkpt lat="44.2651817" lon="10.63506"><ele>1301.3333333333333</ele><time>2026-05-03T14:09:11.746Z</time></trkpt><trkpt lat="44.2652367" lon="10.6351517"><ele>1302.1666666666665</ele><time>2026-05-03T14:09:12.745Z</time></trkpt><trkpt lat="44.265275" lon="10.6352633"><ele>1303.0</ele><time>2026-05-03T14:09:13.746Z</time></trkpt><trkpt lat="44.2653017" lon="10.6353767"><ele>1303.0</ele><time>2026-05-03T14:09:14.746Z</time></trkpt><trkpt lat="44.2653133" lon="10.6355033"><ele>1303.0</ele><time>2026-05-03T14:09:15.746Z</time></trkpt><trkpt lat="44.2653017" lon="10.6356083"><ele>1303.0</ele><time>2026-05-03T14:09:16.746Z</time></trkpt><trkpt lat="44.2652983" lon="10.6357067"><ele>1303.0</ele><time>2026-05-03T14:09:17.746Z</time></trkpt><trkpt lat="44.26531" lon="10.6358067"><ele>1303.0</ele><time>2026-05-03T14:09:18.745Z</time></trkpt><trkpt lat="44.265325" lon="10.635925"><ele>1303.0</ele><time>2026-05-03T14:09:19.746Z</time></trkpt><trkpt lat="44.2653467" lon="10.6360733"><ele>1300.75</ele><time>2026-05-03T14:09:20.746Z</time></trkpt><trkpt lat="44.2653683" lon="10.6362383"><ele>1298.5</ele><time>2026-05-03T14:09:21.745Z</time></trkpt><trkpt lat="44.2653933" lon="10.6364183"><ele>1296.25</ele><time>2026-05-03T14:09:22.746Z</time></trkpt><trkpt lat="44.2654183" lon="10.636585"><ele>1294.0</ele><time>2026-05-03T14:09:23.745Z</time></trkpt><trkpt lat="44.265445" lon="10.6367433"><ele>1294.0</ele><time>2026-05-03T14:09:24.745Z</time></trkpt><trkpt lat="44.2654633" lon="10.6368733"><ele>1294.0</ele><time>2026-05-03T14:09:25.746Z</time></trkpt><trkpt lat="44.26548" lon="10.6369867"><ele>1294.0</ele><time>2026-05-03T14:09:26.745Z</time></trkpt><trkpt lat="44.2654883" lon="10.63708"><ele>1294.0</ele><time>2026-05-03T14:09:27.746Z</time></trkpt><trkpt lat="44.2655317" lon="10.6372233"><ele>1294.0</ele><time>2026-05-03T14:09:29.746Z</time></trkpt><trkpt lat="44.2656217" lon="10.63735"><ele>1297.0</ele><time>2026-05-03T14:09:31.746Z</time></trkpt><trkpt lat="44.2656783" lon="10.6374033"><ele>1300.0</ele><time>2026-05-03T14:09:32.746Z</time></trkpt><trkpt lat="44.2657467" lon="10.637455"><ele>1303.0</ele><time>2026-05-03T14:09:33.746Z</time></trkpt><trkpt lat="44.2658267" lon="10.6375017"><ele>1306.0</ele><time>2026-05-03T14:09:34.746Z</time></trkpt><trkpt lat="44.2659233" lon="10.6375483"><ele>1309.0</ele><time>2026-05-03T14:09:35.746Z</time></trkpt><trkpt lat="44.2660233" lon="10.6375867"><ele>1312.0</ele><time>2026-05-03T14:09:36.746Z</time></trkpt><trkpt lat="44.2661083" lon="10.6376233"><ele>1312.0</ele><time>2026-05-03T14:09:37.746Z</time></trkpt><trkpt lat="44.26618" lon="10.6376517"><ele>1312.0</ele><time>2026-05-03T14:09:38.746Z</time></trkpt><trkpt lat="44.2662417" lon="10.6377017"><ele>1312.0</ele><time>2026-05-03T14:09:39.746Z</time></trkpt><trkpt lat="44.2663017" lon="10.6377833"><ele>1312.0</ele><time>2026-05-03T14:09:40.746Z</time></trkpt><trkpt lat="44.266365" lon="10.6378883"><ele>1312.0</ele><time>2026-05-03T14:09:41.746Z</time></trkpt><trkpt lat="44.266405" lon="10.637995"><ele>1312.0</ele><time>2026-05-03T14:09:42.746Z</time></trkpt><trkpt lat="44.2664267" lon="10.6381017"><ele>1311.3333333333333</ele><time>2026-05-03T14:09:43.746Z</time></trkpt><trkpt lat="44.2664383" lon="10.6382"><ele>1310.6666666666665</ele><time>2026-05-03T14:09:44.746Z</time></trkpt><trkpt lat="44.266435" lon="10.6383117"><ele>1310.0</ele><time>2026-05-03T14:09:45.746Z</time></trkpt><trkpt lat="44.2664267" lon="10.638425"><ele>1309.3333333333333</ele><time>2026-05-03T14:09:46.746Z</time></trkpt><trkpt lat="44.2664183" lon="10.63853"><ele>1308.6666666666667</ele><time>2026-05-03T14:09:47.745Z</time></trkpt><trkpt lat="44.2664183" lon="10.6386317"><ele>1308.0</ele><time>2026-05-03T14:09:48.746Z</time></trkpt><trkpt lat="44.266425" lon="10.6387317"><ele>1311.6666666666667</ele><time>2026-05-03T14:09:49.746Z</time></trkpt><trkpt lat="44.2664567" lon="10.6388367"><ele>1315.3333333333333</ele><time>2026-05-03T14:09:50.745Z</time></trkpt><trkpt lat="44.2665" lon="10.63892"><ele>1319.0</ele><time>2026-05-03T14:09:51.746Z</time></trkpt><trkpt lat="44.2665517" lon="10.638995"><ele>1322.6666666666665</ele><time>2026-05-03T14:09:52.746Z</time></trkpt><trkpt lat="44.2666083" lon="10.6390767"><ele>1326.3333333333333</ele><time>2026-05-03T14:09:53.746Z</time></trkpt><trkpt lat="44.2666567" lon="10.6391533"><ele>1330.0</ele><time>2026-05-03T14:09:54.746Z</time></trkpt><trkpt lat="44.2666767" lon="10.63929"><ele>1330.0</ele><time>2026-05-03T14:09:56.745Z</time></trkpt><trkpt lat="44.2666517" lon="10.639465"><ele>1330.0</ele><time>2026-05-03T14:09:58.745Z</time></trkpt><trkpt lat="44.2666317" lon="10.6396283"><ele>1330.0</ele><time>2026-05-03T14:09:59.745Z</time></trkpt><trkpt lat="44.2665967" lon="10.6397917"><ele>1330.0</ele><time>2026-05-03T14:10:00.746Z</time></trkpt><trkpt lat="44.2665567" lon="10.6399367"><ele>1329.6</ele><time>2026-05-03T14:10:01.746Z</time></trkpt><trkpt lat="44.2665067" lon="10.6400667"><ele>1329.2</ele><time>2026-05-03T14:10:02.745Z</time></trkpt><trkpt lat="44.2664633" lon="10.6401867"><ele>1328.8000000000002</ele><time>2026-05-03T14:10:03.746Z</time></trkpt><trkpt lat="44.266425" lon="10.640295"><ele>1328.4</ele><time>2026-05-03T14:10:04.745Z</time></trkpt><trkpt lat="44.2663767" lon="10.64041"><ele>1328.0</ele><time>2026-05-03T14:10:05.746Z</time></trkpt><trkpt lat="44.266325" lon="10.640505"><ele>1326.4</ele><time>2026-05-03T14:10:06.746Z</time></trkpt><trkpt lat="44.2662617" lon="10.6406267"><ele>1324.8000000000002</ele><time>2026-05-03T14:10:07.745Z</time></trkpt><trkpt lat="44.2662117" lon="10.6407517"><ele>1323.2</ele><time>2026-05-03T14:10:08.746Z</time></trkpt><trkpt lat="44.2661783" lon="10.6408717"><ele>1321.6</ele><time>2026-05-03T14:10:09.746Z</time></trkpt><trkpt lat="44.2661617" lon="10.6409917"><ele>1320.0</ele><time>2026-05-03T14:10:10.746Z</time></trkpt><trkpt lat="44.2661833" lon="10.6411117"><ele>1320.8333333333333</ele><time>2026-05-03T14:10:11.746Z</time></trkpt><trkpt lat="44.266205" lon="10.64124"><ele>1321.6666666666667</ele><time>2026-05-03T14:10:12.746Z</time></trkpt><trkpt lat="44.266245" lon="10.6413533"><ele>1322.5</ele><time>2026-05-03T14:10:13.746Z</time></trkpt><trkpt lat="44.2662917" lon="10.64145"><ele>1323.3333333333335</ele><time>2026-05-03T14:10:14.746Z</time></trkpt><trkpt lat="44.2663383" lon="10.64154"><ele>1324.1666666666667</ele><time>2026-05-03T14:10:15.746Z</time></trkpt><trkpt lat="44.26637" lon="10.6416333"><ele>1325.0</ele><time>2026-05-03T14:10:16.746Z</time></trkpt><trkpt lat="44.2664" lon="10.6417383"><ele>1325.0</ele><time>2026-05-03T14:10:17.746Z</time></trkpt><trkpt lat="44.266425" lon="10.6418433"><ele>1325.0</ele><time>2026-05-03T14:10:18.746Z</time></trkpt><trkpt lat="44.2664533" lon="10.641945"><ele>1325.0</ele><time>2026-05-03T14:10:19.746Z</time></trkpt><trkpt lat="44.2664833" lon="10.6420333"><ele>1325.0</ele><time>2026-05-03T14:10:20.746Z</time></trkpt><trkpt lat="44.2665283" lon="10.6421383"><ele>1325.0</ele><time>2026-05-03T14:10:21.746Z</time></trkpt><trkpt lat="44.26658" lon="10.64224"><ele>1325.0</ele><time>2026-05-03T14:10:22.746Z</time></trkpt><trkpt lat="44.2666433" lon="10.6423717"><ele>1327.0</ele><time>2026-05-03T14:10:23.746Z</time></trkpt><trkpt lat="44.2667067" lon="10.6425083"><ele>1329.0</ele><time>2026-05-03T14:10:24.746Z</time></trkpt><trkpt lat="44.2667567" lon="10.6426367"><ele>1331.0</ele><time>2026-05-03T14:10:25.746Z</time></trkpt><trkpt lat="44.2667883" lon="10.6427717"><ele>1333.0</ele><time>2026-05-03T14:10:26.745Z</time></trkpt><trkpt lat="44.2668067" lon="10.6429167"><ele>1335.0</ele><time>2026-05-03T14:10:27.746Z</time></trkpt><trkpt lat="44.266805" lon="10.6430617"><ele>1335.0</ele><time>2026-05-03T14:10:28.746Z</time></trkpt><trkpt lat="44.2667967" lon="10.6431933"><ele>1335.0</ele><time>2026-05-03T14:10:29.746Z</time></trkpt><trkpt lat="44.2667817" lon="10.6433083"><ele>1335.0</ele><time>2026-05-03T14:10:30.746Z</time></trkpt><trkpt lat="44.266755" lon="10.6434133"><ele>1335.0</ele><time>2026-05-03T14:10:31.746Z</time></trkpt><trkpt lat="44.2667367" lon="10.6435533"><ele>1335.0</ele><time>2026-05-03T14:10:32.746Z</time></trkpt><trkpt lat="44.2667117" lon="10.6436817"><ele>1335.6</ele><time>2026-05-03T14:10:33.745Z</time></trkpt><trkpt lat="44.2666933" lon="10.643805"><ele>1336.2</ele><time>2026-05-03T14:10:34.746Z</time></trkpt><trkpt lat="44.2666783" lon="10.643925"><ele>1336.8000000000002</ele><time>2026-05-03T14:10:35.746Z</time></trkpt><trkpt lat="44.2666633" lon="10.64403"><ele>1337.4</ele><time>2026-05-03T14:10:36.745Z</time></trkpt><trkpt lat="44.26665" lon="10.6441817"><ele>1338.0</ele><time>2026-05-03T14:10:38.746Z</time></trkpt><trkpt lat="44.2666967" lon="10.6443083"><ele>1338.0</ele><time>2026-05-03T14:10:40.746Z</time></trkpt><trkpt lat="44.266755" lon="10.6443867"><ele>1338.0</ele><time>2026-05-03T14:10:41.746Z</time></trkpt><trkpt lat="44.26683" lon="10.6444717"><ele>1338.0</ele><time>2026-05-03T14:10:42.746Z</time></trkpt><trkpt lat="44.266905" lon="10.6445633"><ele>1338.0</ele><time>2026-05-03T14:10:43.746Z</time></trkpt><trkpt lat="44.2669817" lon="10.644665"><ele>1338.0</ele><time>2026-05-03T14:10:44.746Z</time></trkpt><trkpt lat="44.26705" lon="10.644775"><ele>1338.6666666666667</ele><time>2026-05-03T14:10:45.746Z</time></trkpt><trkpt lat="44.267115" lon="10.6448867"><ele>1339.3333333333333</ele><time>2026-05-03T14:10:46.746Z</time></trkpt><trkpt lat="44.2671733" lon="10.645"><ele>1340.0</ele><time>2026-05-03T14:10:47.746Z</time></trkpt><trkpt lat="44.26723" lon="10.6451033"><ele>1340.6666666666665</ele><time>2026-05-03T14:10:48.746Z</time></trkpt><trkpt lat="44.267285" lon="10.6451817"><ele>1341.3333333333333</ele><time>2026-05-03T14:10:49.746Z</time></trkpt><trkpt lat="44.2673417" lon="10.6452333"><ele>1342.0</ele><time>2026-05-03T14:10:50.746Z</time></trkpt><trkpt lat="44.2674667" lon="10.64523"><ele>1342.0</ele><time>2026-05-03T14:10:52.746Z</time></trkpt><trkpt lat="44.267545" lon="10.645235"><ele>1342.0</ele><time>2026-05-03T14:10:53.746Z</time></trkpt><trkpt lat="44.2676233" lon="10.645265"><ele>1342.0</ele><time>2026-05-03T14:10:54.746Z</time></trkpt><trkpt lat="44.2676867" lon="10.64532"><ele>1342.0</ele><time>2026-05-03T14:10:55.746Z</time></trkpt><trkpt lat="44.267755" lon="10.6453883"><ele>1342.0</ele><time>2026-05-03T14:10:56.746Z</time></trkpt><trkpt lat="44.267825" lon="10.6454633"><ele>1342.0</ele><time>2026-05-03T14:10:57.746Z</time></trkpt><trkpt lat="44.2679" lon="10.6455217"><ele>1342.8</ele><time>2026-05-03T14:10:58.745Z</time></trkpt><trkpt lat="44.2679817" lon="10.6455833"><ele>1343.6</ele><time>2026-05-03T14:10:59.745Z</time></trkpt><trkpt lat="44.26807" lon="10.6456417"><ele>1344.3999999999999</ele><time>2026-05-03T14:11:00.745Z</time></trkpt><trkpt lat="44.2681533" lon="10.6456933"><ele>1345.1999999999998</ele><time>2026-05-03T14:11:01.746Z</time></trkpt><trkpt lat="44.2682217" lon="10.6457667"><ele>1346.0</ele><time>2026-05-03T14:11:02.746Z</time></trkpt><trkpt lat="44.26828" lon="10.64586"><ele>1346.0</ele><time>2026-05-03T14:11:03.746Z</time></trkpt><trkpt lat="44.2683317" lon="10.6459783"><ele>1346.0</ele><time>2026-05-03T14:11:04.746Z</time></trkpt><trkpt lat="44.268385" lon="10.6461133"><ele>1346.0</ele><time>2026-05-03T14:11:05.746Z</time></trkpt><trkpt lat="44.268435" lon="10.6462533"><ele>1346.0</ele><time>2026-05-03T14:11:06.746Z</time></trkpt><trkpt lat="44.26847" lon="10.6463883"><ele>1346.0</ele><time>2026-05-03T14:11:07.746Z</time></trkpt><trkpt lat="44.2685117" lon="10.6464967"><ele>1343.4</ele><time>2026-05-03T14:11:08.746Z</time></trkpt><trkpt lat="44.268555" lon="10.64661"><ele>1340.8</ele><time>2026-05-03T14:11:09.746Z</time></trkpt><trkpt lat="44.268595" lon="10.6466917"><ele>1338.2</ele><time>2026-05-03T14:11:10.745Z</time></trkpt><trkpt lat="44.2686283" lon="10.646785"><ele>1335.6000000000001</ele><time>2026-05-03T14:11:11.746Z</time></trkpt><trkpt lat="44.2686283" lon="10.646985"><ele>1333.0</ele><time>2026-05-03T14:11:13.745Z</time></trkpt><trkpt lat="44.2686133" lon="10.647135"><ele>1331.8333333333333</ele><time>2026-05-03T14:11:14.746Z</time></trkpt><trkpt lat="44.2686017" lon="10.64726"><ele>1330.6666666666665</ele><time>2026-05-03T14:11:15.746Z</time></trkpt><trkpt lat="44.26859" lon="10.6473683"><ele>1329.5</ele><time>2026-05-03T14:11:16.746Z</time></trkpt><trkpt lat="44.268595" lon="10.6474767"><ele>1328.3333333333333</ele><time>2026-05-03T14:11:17.746Z</time></trkpt><trkpt lat="44.2686167" lon="10.6476083"><ele>1327.1666666666667</ele><time>2026-05-03T14:11:18.746Z</time></trkpt><trkpt lat="44.2686317" lon="10.64774"><ele>1326.0</ele><time>2026-05-03T14:11:19.746Z</time></trkpt><trkpt lat="44.268635" lon="10.647865"><ele>1325.5</ele><time>2026-05-03T14:11:20.745Z</time></trkpt><trkpt lat="44.268615" lon="10.6479833"><ele>1325.0</ele><time>2026-05-03T14:11:21.746Z</time></trkpt><trkpt lat="44.2685867" lon="10.6481033"><ele>1324.5</ele><time>2026-05-03T14:11:22.745Z</time></trkpt><trkpt lat="44.2685683" lon="10.648205"><ele>1324.0</ele><time>2026-05-03T14:11:23.745Z</time></trkpt><trkpt lat="44.2685517" lon="10.6483067"><ele>1323.5</ele><time>2026-05-03T14:11:24.746Z</time></trkpt><trkpt lat="44.2685433" lon="10.648405"><ele>1323.0</ele><time>2026-05-03T14:11:25.746Z</time></trkpt><trkpt lat="44.2685733" lon="10.6485433"><ele>1321.2</ele><time>2026-05-03T14:11:27.746Z</time></trkpt><trkpt lat="44.2686583" lon="10.6486417"><ele>1319.4</ele><time>2026-05-03T14:11:29.746Z</time></trkpt><trkpt lat="44.26874" lon="10.64877"><ele>1317.6000000000001</ele><time>2026-05-03T14:11:31.746Z</time></trkpt><trkpt lat="44.2687967" lon="10.6488417"><ele>1315.8000000000002</ele><time>2026-05-03T14:11:32.746Z</time></trkpt><trkpt lat="44.26886" lon="10.6489133"><ele>1314.0</ele><time>2026-05-03T14:11:33.746Z</time></trkpt><trkpt lat="44.26892" lon="10.6489883"><ele>1316.1666666666667</ele><time>2026-05-03T14:11:34.745Z</time></trkpt><trkpt lat="44.2689733" lon="10.649085"><ele>1318.3333333333333</ele><time>2026-05-03T14:11:35.746Z</time></trkpt><trkpt lat="44.26902" lon="10.6491933"><ele>1320.5</ele><time>2026-05-03T14:11:36.746Z</time></trkpt><trkpt lat="44.2690517" lon="10.6493117"><ele>1322.6666666666665</ele><time>2026-05-03T14:11:37.745Z</time></trkpt><trkpt lat="44.2690683" lon="10.6494333"><ele>1324.8333333333333</ele><time>2026-05-03T14:11:38.746Z</time></trkpt><trkpt lat="44.2690733" lon="10.6495617"><ele>1327.0</ele><time>2026-05-03T14:11:39.746Z</time></trkpt><trkpt lat="44.2690667" lon="10.64971"><ele>1327.0</ele><time>2026-05-03T14:11:40.746Z</time></trkpt><trkpt lat="44.2690667" lon="10.64987"><ele>1327.0</ele><time>2026-05-03T14:11:41.746Z</time></trkpt><trkpt lat="44.2690683" lon="10.6500083"><ele>1327.0</ele><time>2026-05-03T14:11:42.745Z</time></trkpt><trkpt lat="44.2690767" lon="10.65012"><ele>1327.0</ele><time>2026-05-03T14:11:43.746Z</time></trkpt><trkpt lat="44.2690983" lon="10.6502217"><ele>1327.0</ele><time>2026-05-03T14:11:44.746Z</time></trkpt><trkpt lat="44.269135" lon="10.650305"><ele>1327.0</ele><time>2026-05-03T14:11:45.745Z</time></trkpt><trkpt lat="44.2691883" lon="10.65037"><ele>1326.5</ele><time>2026-05-03T14:11:46.746Z</time></trkpt><trkpt lat="44.2692533" lon="10.650435"><ele>1326.0</ele><time>2026-05-03T14:11:47.746Z</time></trkpt><trkpt lat="44.2693083" lon="10.6505167"><ele>1325.5</ele><time>2026-05-03T14:11:48.746Z</time></trkpt><trkpt lat="44.2693317" lon="10.6506083"><ele>1325.0</ele><time>2026-05-03T14:11:49.746Z</time></trkpt><trkpt lat="44.2693333" lon="10.6506983"><ele>1324.5</ele><time>2026-05-03T14:11:50.746Z</time></trkpt><trkpt lat="44.269315" lon="10.650805"><ele>1324.0</ele><time>2026-05-03T14:11:51.746Z</time></trkpt><trkpt lat="44.2692967" lon="10.650935"><ele>1324.0</ele><time>2026-05-03T14:11:52.744Z</time></trkpt><trkpt lat="44.2692917" lon="10.6510633"><ele>1324.0</ele><time>2026-05-03T14:11:53.745Z</time></trkpt><trkpt lat="44.2692983" lon="10.6511883"><ele>1324.0</ele><time>2026-05-03T14:11:54.745Z</time></trkpt><trkpt lat="44.26932" lon="10.6513183"><ele>1324.0</ele><time>2026-05-03T14:11:55.745Z</time></trkpt><trkpt lat="44.26936" lon="10.65146"><ele>1324.0</ele><time>2026-05-03T14:11:56.744Z</time></trkpt><trkpt lat="44.2694033" lon="10.6516067"><ele>1322.75</ele><time>2026-05-03T14:11:57.745Z</time></trkpt><trkpt lat="44.2694567" lon="10.6517367"><ele>1321.5</ele><time>2026-05-03T14:11:58.745Z</time></trkpt><trkpt lat="44.2695283" lon="10.65188"><ele>1320.25</ele><time>2026-05-03T14:11:59.745Z</time></trkpt><trkpt lat="44.26958" lon="10.6520233"><ele>1319.0</ele><time>2026-05-03T14:12:00.745Z</time></trkpt><trkpt lat="44.26961" lon="10.6521683"><ele>1316.4</ele><time>2026-05-03T14:12:01.744Z</time></trkpt><trkpt lat="44.2696467" lon="10.6523033"><ele>1313.8000000000002</ele><time>2026-05-03T14:12:02.745Z</time></trkpt><trkpt lat="44.269655" lon="10.65243"><ele>1311.1999999999998</ele><time>2026-05-03T14:12:03.745Z</time></trkpt><trkpt lat="44.2696283" lon="10.65255"><ele>1308.6</ele><time>2026-05-03T14:12:04.745Z</time></trkpt><trkpt lat="44.2695783" lon="10.6526567"><ele>1306.0</ele><time>2026-05-03T14:12:05.745Z</time></trkpt><trkpt lat="44.2695017" lon="10.6527633"><ele>1305.8</ele><time>2026-05-03T14:12:06.745Z</time></trkpt><trkpt lat="44.2694317" lon="10.6528717"><ele>1305.6</ele><time>2026-05-03T14:12:07.744Z</time></trkpt><trkpt lat="44.2693783" lon="10.6529883"><ele>1305.4</ele><time>2026-05-03T14:12:08.745Z</time></trkpt><trkpt lat="44.2693417" lon="10.653125"><ele>1305.2</ele><time>2026-05-03T14:12:09.745Z</time></trkpt><trkpt lat="44.2693317" lon="10.6532583"><ele>1305.0</ele><time>2026-05-03T14:12:10.745Z</time></trkpt><trkpt lat="44.26932" lon="10.65339"><ele>1305.0</ele><time>2026-05-03T14:12:11.745Z</time></trkpt><trkpt lat="44.2693367" lon="10.6535333"><ele>1305.0</ele><time>2026-05-03T14:12:12.744Z</time></trkpt><trkpt lat="44.2693633" lon="10.6536967"><ele>1305.0</ele><time>2026-05-03T14:12:13.745Z</time></trkpt><trkpt lat="44.26939" lon="10.6538483"><ele>1305.0</ele><time>2026-05-03T14:12:14.744Z</time></trkpt><trkpt lat="44.2693867" lon="10.6540083"><ele>1305.6</ele><time>2026-05-03T14:12:15.744Z</time></trkpt><trkpt lat="44.26937" lon="10.6541667"><ele>1306.2</ele><time>2026-05-03T14:12:16.745Z</time></trkpt><trkpt lat="44.2693517" lon="10.6543033"><ele>1306.8000000000002</ele><time>2026-05-03T14:12:17.745Z</time></trkpt><trkpt lat="44.2693333" lon="10.6544483"><ele>1307.4</ele><time>2026-05-03T14:12:18.744Z</time></trkpt><trkpt lat="44.269325" lon="10.6545783"><ele>1308.0</ele><time>2026-05-03T14:12:19.745Z</time></trkpt><trkpt lat="44.269305" lon="10.654725"><ele>1308.6000000000001</ele><time>2026-05-03T14:12:20.744Z</time></trkpt><trkpt lat="44.26928" lon="10.654885"><ele>1309.2</ele><time>2026-05-03T14:12:21.744Z</time></trkpt><trkpt lat="44.269265" lon="10.65503"><ele>1309.8</ele><time>2026-05-03T14:12:22.745Z</time></trkpt><trkpt lat="44.2692533" lon="10.6551867"><ele>1310.4</ele><time>2026-05-03T14:12:23.745Z</time></trkpt><trkpt lat="44.2692467" lon="10.6553333"><ele>1311.0</ele><time>2026-05-03T14:12:24.745Z</time></trkpt><trkpt lat="44.269215" lon="10.655485"><ele>1313.0</ele><time>2026-05-03T14:12:25.745Z</time></trkpt><trkpt lat="44.26917" lon="10.655625"><ele>1315.0</ele><time>2026-05-03T14:12:26.745Z</time></trkpt><trkpt lat="44.26911" lon="10.6557717"><ele>1317.0</ele><time>2026-05-03T14:12:27.745Z</time></trkpt><trkpt lat="44.2690267" lon="10.65591"><ele>1319.0</ele><time>2026-05-03T14:12:28.744Z</time></trkpt><trkpt lat="44.2689317" lon="10.656"><ele>1317.3333333333335</ele><time>2026-05-03T14:12:29.745Z</time></trkpt><trkpt lat="44.2688417" lon="10.6560583"><ele>1315.6666666666667</ele><time>2026-05-03T14:12:30.744Z</time></trkpt><trkpt lat="44.2687633" lon="10.656095"><ele>1314.0</ele><time>2026-05-03T14:12:31.744Z</time></trkpt><trkpt lat="44.26869" lon="10.6561183"><ele>1312.3333333333333</ele><time>2026-05-03T14:12:32.745Z</time></trkpt><trkpt lat="44.268605" lon="10.6561617"><ele>1310.6666666666665</ele><time>2026-05-03T14:12:34.745Z</time></trkpt><trkpt lat="44.2685567" lon="10.65625"><ele>1309.0</ele><time>2026-05-03T14:13:03.745Z</time></trkpt><trkpt lat="44.2685267" lon="10.6563383"><ele>1309.0</ele><time>2026-05-03T14:13:04.744Z</time></trkpt><trkpt lat="44.2684967" lon="10.65644"><ele>1309.0</ele><time>2026-05-03T14:13:05.745Z</time></trkpt><trkpt lat="44.2684817" lon="10.6565617"><ele>1309.0</ele><time>2026-05-03T14:13:06.744Z</time></trkpt><trkpt lat="44.268465" lon="10.6567017"><ele>1309.0</ele><time>2026-05-03T14:13:07.745Z</time></trkpt><trkpt lat="44.2684717" lon="10.6568317"><ele>1309.0</ele><time>2026-05-03T14:13:08.744Z</time></trkpt><trkpt lat="44.2684767" lon="10.656955"><ele>1309.5</ele><time>2026-05-03T14:13:09.745Z</time></trkpt><trkpt lat="44.2684833" lon="10.6570667"><ele>1310.0</ele><time>2026-05-03T14:13:10.745Z</time></trkpt><trkpt lat="44.2684867" lon="10.6572217"><ele>1310.5</ele><time>2026-05-03T14:13:12.745Z</time></trkpt><trkpt lat="44.2684733" lon="10.6573517"><ele>1311.0</ele><time>2026-05-03T14:13:14.745Z</time></trkpt><trkpt lat="44.2684433" lon="10.657435"><ele>1311.5</ele><time>2026-05-03T14:13:15.744Z</time></trkpt><trkpt lat="44.2684133" lon="10.657525"><ele>1312.0</ele><time>2026-05-03T14:13:16.745Z</time></trkpt><trkpt lat="44.2683733" lon="10.6576217"><ele>1312.0</ele><time>2026-05-03T14:13:17.745Z</time></trkpt><trkpt lat="44.2683317" lon="10.6577067"><ele>1312.0</ele><time>2026-05-03T14:13:18.745Z</time></trkpt><trkpt lat="44.2682883" lon="10.6578683"><ele>1312.0</ele><time>2026-05-03T14:13:20.745Z</time></trkpt><trkpt lat="44.2682783" lon="10.6580417"><ele>1312.0</ele><time>2026-05-03T14:13:22.745Z</time></trkpt><trkpt lat="44.26829" lon="10.65815"><ele>1312.0</ele><time>2026-05-03T14:13:23.744Z</time></trkpt><trkpt lat="44.2683033" lon="10.65829"><ele>1312.8</ele><time>2026-05-03T14:13:24.745Z</time></trkpt><trkpt lat="44.2683117" lon="10.6584417"><ele>1313.6</ele><time>2026-05-03T14:13:25.745Z</time></trkpt><trkpt lat="44.2683117" lon="10.6585667"><ele>1314.3999999999999</ele><time>2026-05-03T14:13:26.745Z</time></trkpt><trkpt lat="44.2683033" lon="10.658695"><ele>1315.1999999999998</ele><time>2026-05-03T14:13:27.745Z</time></trkpt><trkpt lat="44.2682983" lon="10.658815"><ele>1316.0</ele><time>2026-05-03T14:13:28.744Z</time></trkpt><trkpt lat="44.2682983" lon="10.65894"><ele>1314.4</ele><time>2026-05-03T14:13:29.745Z</time></trkpt><trkpt lat="44.2682983" lon="10.65906"><ele>1312.8</ele><time>2026-05-03T14:13:30.745Z</time></trkpt><trkpt lat="44.2682833" lon="10.6591617"><ele>1311.2</ele><time>2026-05-03T14:13:31.745Z</time></trkpt><trkpt lat="44.2682567" lon="10.6593033"><ele>1309.6000000000001</ele><time>2026-05-03T14:13:33.744Z</time></trkpt><trkpt lat="44.2683217" lon="10.6594433"><ele>1308.0</ele><time>2026-05-03T14:13:35.745Z</time></trkpt><trkpt lat="44.2683817" lon="10.659515"><ele>1306.0</ele><time>2026-05-03T14:13:36.745Z</time></trkpt><trkpt lat="44.2684483" lon="10.65957"><ele>1304.0</ele><time>2026-05-03T14:13:37.745Z</time></trkpt><trkpt lat="44.2685567" lon="10.65964"><ele>1302.0</ele><time>2026-05-03T14:13:39.745Z</time></trkpt><trkpt lat="44.268635" lon="10.6597117"><ele>1300.0</ele><time>2026-05-03T14:13:41.745Z</time></trkpt><trkpt lat="44.2686417" lon="10.6598933"><ele>1298.0</ele><time>2026-05-03T14:13:43.744Z</time></trkpt><trkpt lat="44.2686167" lon="10.65999"><ele>1298.0</ele><time>2026-05-03T14:13:44.745Z</time></trkpt><trkpt lat="44.2685767" lon="10.6600683"><ele>1298.0</ele><time>2026-05-03T14:13:45.745Z</time></trkpt><trkpt lat="44.26854" lon="10.660145"><ele>1298.0</ele><time>2026-05-03T14:13:46.745Z</time></trkpt><trkpt lat="44.268505" lon="10.6602867"><ele>1298.0</ele><time>2026-05-03T14:13:48.745Z</time></trkpt><trkpt lat="44.2685367" lon="10.66047"><ele>1298.0</ele><time>2026-05-03T14:13:50.745Z</time></trkpt><trkpt lat="44.2685567" lon="10.66058"><ele>1297.2</ele><time>2026-05-03T14:13:51.745Z</time></trkpt><trkpt lat="44.2685717" lon="10.660695"><ele>1296.4</ele><time>2026-05-03T14:13:52.745Z</time></trkpt><trkpt lat="44.2685783" lon="10.66079"><ele>1295.6000000000001</ele><time>2026-05-03T14:13:53.745Z</time></trkpt><trkpt lat="44.2685833" lon="10.6608933"><ele>1294.8000000000002</ele><time>2026-05-03T14:13:55.744Z</time></trkpt><trkpt lat="44.2685867" lon="10.6610233"><ele>1294.0</ele><time>2026-05-03T14:13:59.744Z</time></trkpt><trkpt lat="44.268595" lon="10.6612083"><ele>1293.5</ele><time>2026-05-03T14:14:01.745Z</time></trkpt><trkpt lat="44.26861" lon="10.6613233"><ele>1293.0</ele><time>2026-05-03T14:14:02.745Z</time></trkpt><trkpt lat="44.26863" lon="10.6614267"><ele>1292.5</ele><time>2026-05-03T14:14:03.744Z</time></trkpt><trkpt lat="44.2686417" lon="10.6615167"><ele>1292.0</ele><time>2026-05-03T14:14:04.745Z</time></trkpt><trkpt lat="44.2686483" lon="10.6616117"><ele>1291.5</ele><time>2026-05-03T14:14:05.745Z</time></trkpt><trkpt lat="44.2686617" lon="10.6617817"><ele>1291.0</ele><time>2026-05-03T14:14:07.744Z</time></trkpt><trkpt lat="44.2686733" lon="10.6618733"><ele>1288.0</ele><time>2026-05-03T14:14:08.745Z</time></trkpt><trkpt lat="44.2687017" lon="10.6619767"><ele>1285.0</ele><time>2026-05-03T14:14:09.745Z</time></trkpt><trkpt lat="44.2687317" lon="10.6620733"><ele>1282.0</ele><time>2026-05-03T14:14:10.745Z</time></trkpt><trkpt lat="44.2687617" lon="10.6621667"><ele>1279.0</ele><time>2026-05-03T14:14:11.745Z</time></trkpt><trkpt lat="44.2687933" lon="10.6622567"><ele>1276.0</ele><time>2026-05-03T14:14:12.745Z</time></trkpt><trkpt lat="44.2688167" lon="10.6624183"><ele>1273.0</ele><time>2026-05-03T14:14:14.745Z</time></trkpt><trkpt lat="44.2687817" lon="10.6625833"><ele>1273.0</ele><time>2026-05-03T14:14:16.745Z</time></trkpt><trkpt lat="44.268745" lon="10.6626783"><ele>1273.0</ele><time>2026-05-03T14:14:18.745Z</time></trkpt><trkpt lat="44.2687667" lon="10.6627983"><ele>1273.0</ele><time>2026-05-03T14:14:21.745Z</time></trkpt><trkpt lat="44.268815" lon="10.6629167"><ele>1273.0</ele><time>2026-05-03T14:14:23.745Z</time></trkpt><trkpt lat="44.2688267" lon="10.6630783"><ele>1273.0</ele><time>2026-05-03T14:14:25.745Z</time></trkpt><trkpt lat="44.2688417" lon="10.663215"><ele>1269.2</ele><time>2026-05-03T14:14:27.745Z</time></trkpt><trkpt lat="44.268895" lon="10.6632933"><ele>1265.4</ele><time>2026-05-03T14:14:29.745Z</time></trkpt><trkpt lat="44.268965" lon="10.6632967"><ele>1261.6000000000001</ele><time>2026-05-03T14:14:31.745Z</time></trkpt><trkpt lat="44.2690417" lon="10.66323"><ele>1257.8</ele><time>2026-05-03T14:14:33.745Z</time></trkpt><trkpt lat="44.2691233" lon="10.66314"><ele>1254.0</ele><time>2026-05-03T14:14:35.745Z</time></trkpt><trkpt lat="44.26922" lon="10.6630317"><ele>1254.0</ele><time>2026-05-03T14:14:37.745Z</time></trkpt><trkpt lat="44.2693033" lon="10.6629233"><ele>1254.0</ele><time>2026-05-03T14:14:39.745Z</time></trkpt><trkpt lat="44.2693833" lon="10.6627867"><ele>1254.0</ele><time>2026-05-03T14:14:41.745Z</time></trkpt><trkpt lat="44.2694283" lon="10.6627167"><ele>1254.0</ele><time>2026-05-03T14:14:42.745Z</time></trkpt><trkpt lat="44.2694733" lon="10.66265"><ele>1254.0</ele><time>2026-05-03T14:14:43.745Z</time></trkpt><trkpt lat="44.2695533" lon="10.6625183"><ele>1253.2</ele><time>2026-05-03T14:14:45.744Z</time></trkpt><trkpt lat="44.26963" lon="10.662435"><ele>1252.4</ele><time>2026-05-03T14:14:47.744Z</time></trkpt><trkpt lat="44.2697017" lon="10.66246"><ele>1251.6</ele><time>2026-05-03T14:14:49.744Z</time></trkpt><trkpt lat="44.269805" lon="10.6625867"><ele>1250.8</ele><time>2026-05-03T14:14:51.745Z</time></trkpt><trkpt lat="44.269865" lon="10.6626717"><ele>1250.0</ele><time>2026-05-03T14:14:52.745Z</time></trkpt><trkpt lat="44.2699167" lon="10.6627367"><ele>1247.5</ele><time>2026-05-03T14:14:53.744Z</time></trkpt><trkpt lat="44.2699533" lon="10.6628117"><ele>1245.0</ele><time>2026-05-03T14:14:54.745Z</time></trkpt><trkpt lat="44.2699917" lon="10.6629133"><ele>1242.5</ele><time>2026-05-03T14:14:55.745Z</time></trkpt><trkpt lat="44.270025" lon="10.663015"><ele>1240.0</ele><time>2026-05-03T14:14:56.745Z</time></trkpt><trkpt lat="44.2700567" lon="10.6631233"><ele>1237.5</ele><time>2026-05-03T14:14:57.745Z</time></trkpt><trkpt lat="44.2700867" lon="10.6632233"><ele>1235.0</ele><time>2026-05-03T14:14:58.745Z</time></trkpt><trkpt lat="44.2701183" lon="10.6633183"><ele>1235.0</ele><time>2026-05-03T14:14:59.744Z</time></trkpt><trkpt lat="44.2701883" lon="10.663475"><ele>1235.0</ele><time>2026-05-03T14:15:01.745Z</time></trkpt><trkpt lat="44.270225" lon="10.663565"><ele>1235.0</ele><time>2026-05-03T14:15:02.745Z</time></trkpt><trkpt lat="44.27026" lon="10.6636633"><ele>1235.0</ele><time>2026-05-03T14:15:03.745Z</time></trkpt><trkpt lat="44.2702983" lon="10.6637617"><ele>1235.0</ele><time>2026-05-03T14:15:04.745Z</time></trkpt><trkpt lat="44.2703233" lon="10.6638817"><ele>1232.2</ele><time>2026-05-03T14:15:05.745Z</time></trkpt><trkpt lat="44.2703483" lon="10.66399"><ele>1229.4</ele><time>2026-05-03T14:15:06.744Z</time></trkpt><trkpt lat="44.27038" lon="10.664075"><ele>1226.6</ele><time>2026-05-03T14:15:07.745Z</time></trkpt><trkpt lat="44.27043" lon="10.6642167"><ele>1223.8</ele><time>2026-05-03T14:15:09.744Z</time></trkpt><trkpt lat="44.2704183" lon="10.6644"><ele>1221.0</ele><time>2026-05-03T14:15:11.745Z</time></trkpt><trkpt lat="44.2704217" lon="10.6645467"><ele>1220.1666666666667</ele><time>2026-05-03T14:15:13.745Z</time></trkpt><trkpt lat="44.2705183" lon="10.66453"><ele>1219.3333333333333</ele><time>2026-05-03T14:15:16.744Z</time></trkpt><trkpt lat="44.2705567" lon="10.66446"><ele>1218.5</ele><time>2026-05-03T14:15:17.745Z</time></trkpt><trkpt lat="44.2706233" lon="10.6643617"><ele>1217.6666666666665</ele><time>2026-05-03T14:15:19.745Z</time></trkpt><trkpt lat="44.27069" lon="10.66436"><ele>1216.8333333333333</ele><time>2026-05-03T14:15:21.745Z</time></trkpt><trkpt lat="44.2707683" lon="10.66447"><ele>1216.0</ele><time>2026-05-03T14:15:23.744Z</time></trkpt><trkpt lat="44.2708117" lon="10.6645617"><ele>1216.0</ele><time>2026-05-03T14:15:24.745Z</time></trkpt><trkpt lat="44.2708517" lon="10.6646667"><ele>1216.0</ele><time>2026-05-03T14:15:25.745Z</time></trkpt><trkpt lat="44.27088" lon="10.6647733"><ele>1216.0</ele><time>2026-05-03T14:15:26.744Z</time></trkpt><trkpt lat="44.2708967" lon="10.6648583"><ele>1216.0</ele><time>2026-05-03T14:15:27.745Z</time></trkpt><trkpt lat="44.2709233" lon="10.66497"><ele>1216.0</ele><time>2026-05-03T14:15:29.745Z</time></trkpt><trkpt lat="44.2709517" lon="10.66508"><ele>1216.0</ele><time>2026-05-03T14:15:31.745Z</time></trkpt><trkpt lat="44.2709917" lon="10.6651783"><ele>1213.2</ele><time>2026-05-03T14:15:33.745Z</time></trkpt><trkpt lat="44.2710183" lon="10.6652867"><ele>1210.3999999999999</ele><time>2026-05-03T14:15:35.745Z</time></trkpt><trkpt lat="44.2710433" lon="10.6654"><ele>1207.6</ele><time>2026-05-03T14:15:37.745Z</time></trkpt><trkpt lat="44.27106" lon="10.6655333"><ele>1204.8</ele><time>2026-05-03T14:15:39.745Z</time></trkpt><trkpt lat="44.271075" lon="10.665685"><ele>1202.0</ele><time>2026-05-03T14:15:41.745Z</time></trkpt><trkpt lat="44.2710917" lon="10.665855"><ele>1202.0</ele><time>2026-05-03T14:15:43.745Z</time></trkpt><trkpt lat="44.27111" lon="10.6659433"><ele>1202.0</ele><time>2026-05-03T14:15:44.744Z</time></trkpt><trkpt lat="44.2711383" lon="10.666095"><ele>1202.0</ele><time>2026-05-03T14:15:46.744Z</time></trkpt><trkpt lat="44.2711667" lon="10.6662067"><ele>1202.0</ele><time>2026-05-03T14:15:48.744Z</time></trkpt><trkpt lat="44.2712017" lon="10.66629"><ele>1202.0</ele><time>2026-05-03T14:15:50.745Z</time></trkpt><trkpt lat="44.2712417" lon="10.6663833"><ele>1202.0</ele><time>2026-05-03T14:15:52.745Z</time></trkpt><trkpt lat="44.271285" lon="10.66649"><ele>1199.5</ele><time>2026-05-03T14:15:54.745Z</time></trkpt><trkpt lat="44.2713317" lon="10.666625"><ele>1197.0</ele><time>2026-05-03T14:15:56.744Z</time></trkpt><trkpt lat="44.2713267" lon="10.6667733"><ele>1194.5</ele><time>2026-05-03T14:15:58.745Z</time></trkpt><trkpt lat="44.2712883" lon="10.66685"><ele>1192.0</ele><time>2026-05-03T14:15:59.744Z</time></trkpt><trkpt lat="44.2712483" lon="10.6669333"><ele>1189.5</ele><time>2026-05-03T14:16:00.744Z</time></trkpt><trkpt lat="44.2712217" lon="10.66703"><ele>1187.0</ele><time>2026-05-03T14:16:01.745Z</time></trkpt><trkpt lat="44.271205" lon="10.6671267"><ele>1186.4</ele><time>2026-05-03T14:16:02.745Z</time></trkpt><trkpt lat="44.271245" lon="10.66729"><ele>1185.8000000000002</ele><time>2026-05-03T14:16:04.745Z</time></trkpt><trkpt lat="44.2713067" lon="10.667365"><ele>1185.2</ele><time>2026-05-03T14:16:05.745Z</time></trkpt><trkpt lat="44.2713767" lon="10.6674333"><ele>1184.6000000000001</ele><time>2026-05-03T14:16:06.745Z</time></trkpt><trkpt lat="44.2714483" lon="10.6675067"><ele>1184.0</ele><time>2026-05-03T14:16:07.744Z</time></trkpt><trkpt lat="44.271515" lon="10.6675967"><ele>1184.0</ele><time>2026-05-03T14:16:08.744Z</time></trkpt><trkpt lat="44.271585" lon="10.6677067"><ele>1184.0</ele><time>2026-05-03T14:16:09.744Z</time></trkpt><trkpt lat="44.2716617" lon="10.66782"><ele>1184.0</ele><time>2026-05-03T14:16:10.744Z</time></trkpt><trkpt lat="44.2717383" lon="10.6679283"><ele>1184.0</ele><time>2026-05-03T14:16:11.744Z</time></trkpt><trkpt lat="44.271805" lon="10.668045"><ele>1184.0</ele><time>2026-05-03T14:16:12.744Z</time></trkpt><trkpt lat="44.2718733" lon="10.6681617"><ele>1182.2</ele><time>2026-05-03T14:16:13.744Z</time></trkpt><trkpt lat="44.2719333" lon="10.6683"><ele>1180.4</ele><time>2026-05-03T14:16:14.745Z</time></trkpt><trkpt lat="44.2719767" lon="10.6684433"><ele>1178.6</ele><time>2026-05-03T14:16:15.744Z</time></trkpt><trkpt lat="44.272025" lon="10.6685717"><ele>1176.8</ele><time>2026-05-03T14:16:16.744Z</time></trkpt><trkpt lat="44.2720667" lon="10.66869"><ele>1175.0</ele><time>2026-05-03T14:16:17.745Z</time></trkpt><trkpt lat="44.2721017" lon="10.6687917"><ele>1173.8</ele><time>2026-05-03T14:16:18.745Z</time></trkpt><trkpt lat="44.272135" lon="10.668885"><ele>1172.6</ele><time>2026-05-03T14:16:19.745Z</time></trkpt><trkpt lat="44.27218" lon="10.6690083"><ele>1171.4</ele><time>2026-05-03T14:16:21.745Z</time></trkpt><trkpt lat="44.27216" lon="10.6691117"><ele>1170.2</ele><time>2026-05-03T14:16:30.745Z</time></trkpt><trkpt lat="44.27223" lon="10.6692533"><ele>1169.0</ele><time>2026-05-03T14:16:32.744Z</time></trkpt><trkpt lat="44.27231" lon="10.669355"><ele>1171.0</ele><time>2026-05-03T14:16:33.745Z</time></trkpt><trkpt lat="44.272395" lon="10.6694667"><ele>1173.0</ele><time>2026-05-03T14:16:34.745Z</time></trkpt><trkpt lat="44.2724833" lon="10.6695683"><ele>1175.0</ele><time>2026-05-03T14:16:35.745Z</time></trkpt><trkpt lat="44.27256" lon="10.6696617"><ele>1177.0</ele><time>2026-05-03T14:16:36.745Z</time></trkpt><trkpt lat="44.2726417" lon="10.6697833"><ele>1177.0</ele><time>2026-05-03T14:16:37.744Z</time></trkpt><trkpt lat="44.2727117" lon="10.6699167"><ele>1177.0</ele><time>2026-05-03T14:16:38.745Z</time></trkpt><trkpt lat="44.2727433" lon="10.67008"><ele>1177.0</ele><time>2026-05-03T14:16:39.744Z</time></trkpt><trkpt lat="44.2727417" lon="10.67026"><ele>1177.0</ele><time>2026-05-03T14:16:40.744Z</time></trkpt><trkpt lat="44.27273" lon="10.6704417"><ele>1177.5</ele><time>2026-05-03T14:16:41.745Z</time></trkpt><trkpt lat="44.2727233" lon="10.6706183"><ele>1178.0</ele><time>2026-05-03T14:16:42.745Z</time></trkpt><trkpt lat="44.2727133" lon="10.670795"><ele>1178.5</ele><time>2026-05-03T14:16:43.744Z</time></trkpt><trkpt lat="44.2727117" lon="10.6709867"><ele>1179.0</ele><time>2026-05-03T14:16:44.745Z</time></trkpt><trkpt lat="44.27271" lon="10.6711783"><ele>1179.5</ele><time>2026-05-03T14:16:45.745Z</time></trkpt><trkpt lat="44.2727067" lon="10.6713617"><ele>1180.0</ele><time>2026-05-03T14:16:46.745Z</time></trkpt><trkpt lat="44.272725" lon="10.6715283"><ele>1180.5</ele><time>2026-05-03T14:16:47.745Z</time></trkpt><trkpt lat="44.27277" lon="10.6716733"><ele>1181.0</ele><time>2026-05-03T14:16:48.744Z</time></trkpt><trkpt lat="44.272835" lon="10.67177"><ele>1181.0</ele><time>2026-05-03T14:16:49.745Z</time></trkpt><trkpt lat="44.27291" lon="10.671825"><ele>1181.0</ele><time>2026-05-03T14:16:50.745Z</time></trkpt><trkpt lat="44.2729867" lon="10.6718333"><ele>1181.0</ele><time>2026-05-03T14:16:51.744Z</time></trkpt><trkpt lat="44.2730483" lon="10.671805"><ele>1181.0</ele><time>2026-05-03T14:16:52.744Z</time></trkpt><trkpt lat="44.2731033" lon="10.6717417"><ele>1181.0</ele><time>2026-05-03T14:16:53.745Z</time></trkpt><trkpt lat="44.27314" lon="10.6716217"><ele>1181.0</ele><time>2026-05-03T14:16:54.745Z</time></trkpt><trkpt lat="44.2731417" lon="10.671455"><ele>1189.25</ele><time>2026-05-03T14:16:55.745Z</time></trkpt><trkpt lat="44.2731267" lon="10.6712567"><ele>1197.5</ele><time>2026-05-03T14:16:56.745Z</time></trkpt><trkpt lat="44.2731217" lon="10.6710483"><ele>1205.75</ele><time>2026-05-03T14:16:57.745Z</time></trkpt><trkpt lat="44.2731583" lon="10.6708633"><ele>1214.0</ele><time>2026-05-03T14:16:58.745Z</time></trkpt><trkpt lat="44.2732067" lon="10.6706933"><ele>1214.0</ele><time>2026-05-03T14:16:59.745Z</time></trkpt><trkpt lat="44.27325" lon="10.670515"><ele>1214.0</ele><time>2026-05-03T14:17:00.744Z</time></trkpt><trkpt lat="44.2732717" lon="10.670335"><ele>1214.0</ele><time>2026-05-03T14:17:01.745Z</time></trkpt><trkpt lat="44.2732767" lon="10.6701333"><ele>1214.0</ele><time>2026-05-03T14:17:02.745Z</time></trkpt><trkpt lat="44.2732733" lon="10.669925"><ele>1213.3333333333335</ele><time>2026-05-03T14:17:03.744Z</time></trkpt><trkpt lat="44.2732617" lon="10.6697133"><ele>1212.6666666666667</ele><time>2026-05-03T14:17:04.745Z</time></trkpt><trkpt lat="44.27326" lon="10.6694983"><ele>1212.0</ele><time>2026-05-03T14:17:05.744Z</time></trkpt><trkpt lat="44.2732533" lon="10.66927"><ele>1214.3333333333333</ele><time>2026-05-03T14:17:06.745Z</time></trkpt><trkpt lat="44.2732283" lon="10.6690667"><ele>1216.6666666666665</ele><time>2026-05-03T14:17:07.745Z</time></trkpt><trkpt lat="44.2731783" lon="10.6688567"><ele>1219.0</ele><time>2026-05-03T14:17:08.745Z</time></trkpt><trkpt lat="44.273105" lon="10.6686733"><ele>1215.4</ele><time>2026-05-03T14:17:09.744Z</time></trkpt><trkpt lat="44.2730167" lon="10.668515"><ele>1211.8000000000002</ele><time>2026-05-03T14:17:10.745Z</time></trkpt><trkpt lat="44.272955" lon="10.6683883"><ele>1208.1999999999998</ele><time>2026-05-03T14:17:11.745Z</time></trkpt><trkpt lat="44.27291" lon="10.6682717"><ele>1204.6</ele><time>2026-05-03T14:17:12.744Z</time></trkpt><trkpt lat="44.2729033" lon="10.6681683"><ele>1201.0</ele><time>2026-05-03T14:17:13.745Z</time></trkpt><trkpt lat="44.272925" lon="10.6680683"><ele>1201.0</ele><time>2026-05-03T14:17:14.744Z</time></trkpt><trkpt lat="44.27299" lon="10.66802"><ele>1201.0</ele><time>2026-05-03T14:17:15.743Z</time></trkpt><trkpt lat="44.27306" lon="10.6679983"><ele>1201.0</ele><time>2026-05-03T14:17:16.743Z</time></trkpt><trkpt lat="44.2731367" lon="10.6680267"><ele>1201.0</ele><time>2026-05-03T14:17:17.744Z</time></trkpt><trkpt lat="44.2732267" lon="10.6681067"><ele>1201.0</ele><time>2026-05-03T14:17:18.744Z</time></trkpt><trkpt lat="44.27333" lon="10.6682183"><ele>1207.0</ele><time>2026-05-03T14:17:19.744Z</time></trkpt><trkpt lat="44.27343" lon="10.66838"><ele>1213.0</ele><time>2026-05-03T14:17:20.744Z</time></trkpt><trkpt lat="44.273495" lon="10.668605"><ele>1219.0</ele><time>2026-05-03T14:17:21.744Z</time></trkpt><trkpt lat="44.2735433" lon="10.66883"><ele>1219.0</ele><time>2026-05-03T14:17:22.743Z</time></trkpt><trkpt lat="44.2736" lon="10.6690167"><ele>1219.0</ele><time>2026-05-03T14:17:23.744Z</time></trkpt><trkpt lat="44.27368" lon="10.6691533"><ele>1219.0</ele><time>2026-05-03T14:17:24.744Z</time></trkpt><trkpt lat="44.2737833" lon="10.6692767"><ele>1219.0</ele><time>2026-05-03T14:17:25.744Z</time></trkpt><trkpt lat="44.2738867" lon="10.6694083"><ele>1224.75</ele><time>2026-05-03T14:17:26.744Z</time></trkpt><trkpt lat="44.2739783" lon="10.6695367"><ele>1230.5</ele><time>2026-05-03T14:17:27.744Z</time></trkpt><trkpt lat="44.27407" lon="10.6697033"><ele>1236.25</ele><time>2026-05-03T14:17:28.744Z</time></trkpt><trkpt lat="44.2741517" lon="10.6698933"><ele>1242.0</ele><time>2026-05-03T14:17:29.743Z</time></trkpt><trkpt lat="44.2742233" lon="10.6700967"><ele>1241.6666666666667</ele><time>2026-05-03T14:17:30.743Z</time></trkpt><trkpt lat="44.274295" lon="10.6702967"><ele>1241.3333333333335</ele><time>2026-05-03T14:17:31.744Z</time></trkpt><trkpt lat="44.2743817" lon="10.6704817"><ele>1241.0</ele><time>2026-05-03T14:17:32.743Z</time></trkpt><trkpt lat="44.2744767" lon="10.6706517"><ele>1241.0</ele><time>2026-05-03T14:17:33.744Z</time></trkpt><trkpt lat="44.2745817" lon="10.670805"><ele>1241.0</ele><time>2026-05-03T14:17:34.744Z</time></trkpt><trkpt lat="44.2746883" lon="10.6709567"><ele>1241.0</ele><time>2026-05-03T14:17:35.744Z</time></trkpt><trkpt lat="44.2748167" lon="10.6710933"><ele>1243.0</ele><time>2026-05-03T14:17:36.743Z</time></trkpt><trkpt lat="44.274955" lon="10.67121"><ele>1245.0</ele><time>2026-05-03T14:17:37.744Z</time></trkpt><trkpt lat="44.2750917" lon="10.6713083"><ele>1247.0</ele><time>2026-05-03T14:17:38.744Z</time></trkpt><trkpt lat="44.2752267" lon="10.6713983"><ele>1247.0</ele><time>2026-05-03T14:17:39.743Z</time></trkpt><trkpt lat="44.275365" lon="10.671475"><ele>1247.0</ele><time>2026-05-03T14:17:40.744Z</time></trkpt><trkpt lat="44.2755017" lon="10.671575"><ele>1247.0</ele><time>2026-05-03T14:17:41.744Z</time></trkpt><trkpt lat="44.27563" lon="10.6716967"><ele>1249.6666666666667</ele><time>2026-05-03T14:17:42.744Z</time></trkpt><trkpt lat="44.2757533" lon="10.6718283"><ele>1252.3333333333333</ele><time>2026-05-03T14:17:43.744Z</time></trkpt><trkpt lat="44.27588" lon="10.6719667"><ele>1255.0</ele><time>2026-05-03T14:17:44.744Z</time></trkpt><trkpt lat="44.2759917" lon="10.6721067"><ele>1255.0</ele><time>2026-05-03T14:17:45.744Z</time></trkpt><trkpt lat="44.2760883" lon="10.6722533"><ele>1255.0</ele><time>2026-05-03T14:17:46.744Z</time></trkpt><trkpt lat="44.2761617" lon="10.6724267"><ele>1255.0</ele><time>2026-05-03T14:17:47.744Z</time></trkpt><trkpt lat="44.2761933" lon="10.6726317"><ele>1255.0</ele><time>2026-05-03T14:17:48.744Z</time></trkpt><trkpt lat="44.2762133" lon="10.6728533"><ele>1254.25</ele><time>2026-05-03T14:17:49.744Z</time></trkpt><trkpt lat="44.2762317" lon="10.6730733"><ele>1253.5</ele><time>2026-05-03T14:17:50.744Z</time></trkpt><trkpt lat="44.276255" lon="10.6732683"><ele>1252.75</ele><time>2026-05-03T14:17:51.744Z</time></trkpt><trkpt lat="44.276295" lon="10.6734383"><ele>1252.0</ele><time>2026-05-03T14:17:52.744Z</time></trkpt><trkpt lat="44.2763433" lon="10.6735833"><ele>1253.4</ele><time>2026-05-03T14:17:53.744Z</time></trkpt><trkpt lat="44.2764117" lon="10.6737067"><ele>1254.8000000000002</ele><time>2026-05-03T14:17:54.744Z</time></trkpt><trkpt lat="44.27649" lon="10.6737867"><ele>1256.2</ele><time>2026-05-03T14:17:55.744Z</time></trkpt><trkpt lat="44.276585" lon="10.6738183"><ele>1257.6000000000001</ele><time>2026-05-03T14:17:56.744Z</time></trkpt><trkpt lat="44.276705" lon="10.6738017"><ele>1259.0</ele><time>2026-05-03T14:17:57.744Z</time></trkpt><trkpt lat="44.2768417" lon="10.6737617"><ele>1261.0</ele><time>2026-05-03T14:17:58.744Z</time></trkpt><trkpt lat="44.27699" lon="10.6737067"><ele>1263.0</ele><time>2026-05-03T14:17:59.744Z</time></trkpt><trkpt lat="44.2771383" lon="10.6736733"><ele>1265.0</ele><time>2026-05-03T14:18:00.744Z</time></trkpt><trkpt lat="44.277305" lon="10.6736583"><ele>1265.0</ele><time>2026-05-03T14:18:01.744Z</time></trkpt><trkpt lat="44.2774683" lon="10.673655"><ele>1265.0</ele><time>2026-05-03T14:18:02.743Z</time></trkpt><trkpt lat="44.277615" lon="10.6736567"><ele>1265.0</ele><time>2026-05-03T14:18:03.744Z</time></trkpt><trkpt lat="44.2777533" lon="10.6736633"><ele>1265.0</ele><time>2026-05-03T14:18:04.743Z</time></trkpt><trkpt lat="44.2778733" lon="10.6736467"><ele>1266.0</ele><time>2026-05-03T14:18:05.744Z</time></trkpt><trkpt lat="44.277995" lon="10.6735917"><ele>1267.0</ele><time>2026-05-03T14:18:06.743Z</time></trkpt><trkpt lat="44.2781167" lon="10.673485"><ele>1268.0</ele><time>2026-05-03T14:18:07.743Z</time></trkpt><trkpt lat="44.2782067" lon="10.6733533"><ele>1269.0</ele><time>2026-05-03T14:18:08.744Z</time></trkpt><trkpt lat="44.2782617" lon="10.67318"><ele>1269.0</ele><time>2026-05-03T14:18:09.744Z</time></trkpt><trkpt lat="44.2782917" lon="10.6730017"><ele>1269.0</ele><time>2026-05-03T14:18:10.744Z</time></trkpt><trkpt lat="44.2782983" lon="10.6727733"><ele>1269.0</ele><time>2026-05-03T14:18:11.743Z</time></trkpt><trkpt lat="44.2782967" lon="10.6725417"><ele>1270.0</ele><time>2026-05-03T14:18:12.744Z</time></trkpt><trkpt lat="44.2783033" lon="10.672315"><ele>1271.0</ele><time>2026-05-03T14:18:13.743Z</time></trkpt><trkpt lat="44.278345" lon="10.6721067"><ele>1272.0</ele><time>2026-05-03T14:18:14.743Z</time></trkpt><trkpt lat="44.2784017" lon="10.6718967"><ele>1273.25</ele><time>2026-05-03T14:18:15.744Z</time></trkpt><trkpt lat="44.2784583" lon="10.6717033"><ele>1274.5</ele><time>2026-05-03T14:18:16.743Z</time></trkpt><trkpt lat="44.27849" lon="10.6715233"><ele>1275.75</ele><time>2026-05-03T14:18:17.743Z</time></trkpt><trkpt lat="44.2785033" lon="10.6713433"><ele>1277.0</ele><time>2026-05-03T14:18:18.744Z</time></trkpt><trkpt lat="44.2785167" lon="10.6711683"><ele>1278.0</ele><time>2026-05-03T14:18:19.743Z</time></trkpt><trkpt lat="44.278555" lon="10.6710167"><ele>1279.0</ele><time>2026-05-03T14:18:20.744Z</time></trkpt><trkpt lat="44.27862" lon="10.67089"><ele>1280.0</ele><time>2026-05-03T14:18:21.744Z</time></trkpt><trkpt lat="44.278715" lon="10.6707617"><ele>1281.0</ele><time>2026-05-03T14:18:22.744Z</time></trkpt><trkpt lat="44.278795" lon="10.670615"><ele>1281.0</ele><time>2026-05-03T14:18:23.744Z</time></trkpt><trkpt lat="44.2788717" lon="10.6704617"><ele>1281.0</ele><time>2026-05-03T14:18:24.744Z</time></trkpt><trkpt lat="44.2789467" lon="10.670305"><ele>1281.0</ele><time>2026-05-03T14:18:25.743Z</time></trkpt><trkpt lat="44.2790183" lon="10.670135"><ele>1281.0</ele><time>2026-05-03T14:18:26.744Z</time></trkpt><trkpt lat="44.2790783" lon="10.6699633"><ele>1281.0</ele><time>2026-05-03T14:18:27.744Z</time></trkpt><trkpt lat="44.2791267" lon="10.6697783"><ele>1281.0</ele><time>2026-05-03T14:18:28.743Z</time></trkpt><trkpt lat="44.2791717" lon="10.669585"><ele>1281.0</ele><time>2026-05-03T14:18:29.744Z</time></trkpt><trkpt lat="44.2791967" lon="10.669385"><ele>1281.0</ele><time>2026-05-03T14:18:30.743Z</time></trkpt><trkpt lat="44.2792267" lon="10.66919"><ele>1282.5</ele><time>2026-05-03T14:18:31.744Z</time></trkpt><trkpt lat="44.2792533" lon="10.66899"><ele>1284.0</ele><time>2026-05-03T14:18:32.743Z</time></trkpt><trkpt lat="44.2792817" lon="10.6687967"><ele>1285.5</ele><time>2026-05-03T14:18:33.743Z</time></trkpt><trkpt lat="44.279325" lon="10.6686117"><ele>1287.0</ele><time>2026-05-03T14:18:34.743Z</time></trkpt><trkpt lat="44.2793983" lon="10.66844"><ele>1289.5</ele><time>2026-05-03T14:18:35.744Z</time></trkpt><trkpt lat="44.2794767" lon="10.6682633"><ele>1292.0</ele><time>2026-05-03T14:18:36.744Z</time></trkpt><trkpt lat="44.279555" lon="10.6680867"><ele>1294.5</ele><time>2026-05-03T14:18:37.744Z</time></trkpt><trkpt lat="44.279625" lon="10.667905"><ele>1297.0</ele><time>2026-05-03T14:18:38.744Z</time></trkpt><trkpt lat="44.2796783" lon="10.66771"><ele>1298.1999999999998</ele><time>2026-05-03T14:18:39.744Z</time></trkpt><trkpt lat="44.2797367" lon="10.66757"><ele>1299.4</ele><time>2026-05-03T14:18:40.743Z</time></trkpt><trkpt lat="44.279785" lon="10.6674633"><ele>1300.6</ele><time>2026-05-03T14:18:41.744Z</time></trkpt><trkpt lat="44.279845" lon="10.6673967"><ele>1301.8000000000002</ele><time>2026-05-03T14:18:42.744Z</time></trkpt><trkpt lat="44.279925" lon="10.667365"><ele>1303.0</ele><time>2026-05-03T14:18:43.744Z</time></trkpt><trkpt lat="44.28003" lon="10.6673967"><ele>1303.0</ele><time>2026-05-03T14:18:44.744Z</time></trkpt><trkpt lat="44.2801417" lon="10.6674583"><ele>1303.0</ele><time>2026-05-03T14:18:45.743Z</time></trkpt><trkpt lat="44.2802633" lon="10.667555"><ele>1303.0</ele><time>2026-05-03T14:18:46.744Z</time></trkpt><trkpt lat="44.2803933" lon="10.6676667"><ele>1303.0</ele><time>2026-05-03T14:18:47.744Z</time></trkpt><trkpt lat="44.2805167" lon="10.667785"><ele>1300.5</ele><time>2026-05-03T14:18:48.744Z</time></trkpt><trkpt lat="44.2806517" lon="10.6678817"><ele>1298.0</ele><time>2026-05-03T14:18:49.744Z</time></trkpt><trkpt lat="44.2807783" lon="10.6679617"><ele>1295.5</ele><time>2026-05-03T14:18:50.744Z</time></trkpt><trkpt lat="44.280915" lon="10.66801"><ele>1293.0</ele><time>2026-05-03T14:18:51.744Z</time></trkpt><trkpt lat="44.28105" lon="10.6680367"><ele>1293.0</ele><time>2026-05-03T14:18:52.743Z</time></trkpt><trkpt lat="44.281195" lon="10.6680567"><ele>1293.0</ele><time>2026-05-03T14:18:53.744Z</time></trkpt><trkpt lat="44.28134" lon="10.6680417"><ele>1293.0</ele><time>2026-05-03T14:18:54.744Z</time></trkpt><trkpt lat="44.2814833" lon="10.6679917"><ele>1293.0</ele><time>2026-05-03T14:18:55.744Z</time></trkpt><trkpt lat="44.2816217" lon="10.6679467"><ele>1293.0</ele><time>2026-05-03T14:18:56.744Z</time></trkpt><trkpt lat="44.2817483" lon="10.6679433"><ele>1293.0</ele><time>2026-05-03T14:18:57.744Z</time></trkpt><trkpt lat="44.2818667" lon="10.6679383"><ele>1293.0</ele><time>2026-05-03T14:18:58.744Z</time></trkpt><trkpt lat="44.2819683" lon="10.6678933"><ele>1293.0</ele><time>2026-05-03T14:18:59.744Z</time></trkpt><trkpt lat="44.2820817" lon="10.6678067"><ele>1293.6666666666667</ele><time>2026-05-03T14:19:00.744Z</time></trkpt><trkpt lat="44.2821983" lon="10.6676833"><ele>1294.3333333333335</ele><time>2026-05-03T14:19:01.744Z</time></trkpt><trkpt lat="44.2823067" lon="10.6675233"><ele>1295.0</ele><time>2026-05-03T14:19:02.744Z</time></trkpt><trkpt lat="44.2823933" lon="10.66734"><ele>1295.0</ele><time>2026-05-03T14:19:03.744Z</time></trkpt><trkpt lat="44.28247" lon="10.66717"><ele>1295.0</ele><time>2026-05-03T14:19:04.743Z</time></trkpt><trkpt lat="44.282535" lon="10.6670117"><ele>1295.0</ele><time>2026-05-03T14:19:05.744Z</time></trkpt><trkpt lat="44.2826067" lon="10.6668817"><ele>1295.0</ele><time>2026-05-03T14:19:06.744Z</time></trkpt><trkpt lat="44.2826733" lon="10.6667567"><ele>1297.8</ele><time>2026-05-03T14:19:07.743Z</time></trkpt><trkpt lat="44.2827267" lon="10.6666133"><ele>1300.6</ele><time>2026-05-03T14:19:08.744Z</time></trkpt><trkpt lat="44.2827633" lon="10.6664617"><ele>1303.4</ele><time>2026-05-03T14:19:09.744Z</time></trkpt><trkpt lat="44.2828033" lon="10.6663117"><ele>1306.2</ele><time>2026-05-03T14:19:10.744Z</time></trkpt><trkpt lat="44.28284" lon="10.6661767"><ele>1309.0</ele><time>2026-05-03T14:19:11.744Z</time></trkpt><trkpt lat="44.2828867" lon="10.6660367"><ele>1310.8000000000002</ele><time>2026-05-03T14:19:12.744Z</time></trkpt><trkpt lat="44.2829317" lon="10.6659217"><ele>1312.6000000000001</ele><time>2026-05-03T14:19:13.744Z</time></trkpt><trkpt lat="44.2829717" lon="10.6658083"><ele>1314.4</ele><time>2026-05-03T14:19:14.744Z</time></trkpt><trkpt lat="44.2829867" lon="10.66567"><ele>1316.2</ele><time>2026-05-03T14:19:15.744Z</time></trkpt><trkpt lat="44.2829917" lon="10.66552"><ele>1318.0</ele><time>2026-05-03T14:19:16.744Z</time></trkpt><trkpt lat="44.28299" lon="10.6653617"><ele>1318.6000000000001</ele><time>2026-05-03T14:19:17.744Z</time></trkpt><trkpt lat="44.28298" lon="10.6651933"><ele>1319.2</ele><time>2026-05-03T14:19:18.744Z</time></trkpt><trkpt lat="44.2829717" lon="10.6650467"><ele>1319.8</ele><time>2026-05-03T14:19:19.744Z</time></trkpt><trkpt lat="44.2829733" lon="10.6649083"><ele>1320.4</ele><time>2026-05-03T14:19:20.744Z</time></trkpt><trkpt lat="44.28297" lon="10.6647817"><ele>1321.0</ele><time>2026-05-03T14:19:21.743Z</time></trkpt><trkpt lat="44.2829717" lon="10.6646733"><ele>1321.0</ele><time>2026-05-03T14:19:22.744Z</time></trkpt><trkpt lat="44.2829683" lon="10.664575"><ele>1321.0</ele><time>2026-05-03T14:19:23.743Z</time></trkpt><trkpt lat="44.2829683" lon="10.6644833"><ele>1321.0</ele><time>2026-05-03T14:19:24.744Z</time></trkpt><trkpt lat="44.282985" lon="10.664395"><ele>1321.0</ele><time>2026-05-03T14:19:25.744Z</time></trkpt><trkpt lat="44.2830583" lon="10.664285"><ele>1321.0</ele><time>2026-05-03T14:19:27.744Z</time></trkpt><trkpt lat="44.283175" lon="10.6643617"><ele>1321.0</ele><time>2026-05-03T14:19:29.744Z</time></trkpt><trkpt lat="44.283245" lon="10.664485"><ele>1317.0</ele><time>2026-05-03T14:19:30.744Z</time></trkpt><trkpt lat="44.283315" lon="10.66462"><ele>1313.0</ele><time>2026-05-03T14:19:31.744Z</time></trkpt><trkpt lat="44.283375" lon="10.6647667"><ele>1309.0</ele><time>2026-05-03T14:19:32.744Z</time></trkpt><trkpt lat="44.28344" lon="10.6649183"><ele>1305.0</ele><time>2026-05-03T14:19:33.743Z</time></trkpt><trkpt lat="44.2835083" lon="10.6650667"><ele>1305.0</ele><time>2026-05-03T14:19:34.743Z</time></trkpt><trkpt lat="44.2835833" lon="10.665215"><ele>1305.0</ele><time>2026-05-03T14:19:35.744Z</time></trkpt><trkpt lat="44.2836733" lon="10.665365"><ele>1305.0</ele><time>2026-05-03T14:19:36.743Z</time></trkpt><trkpt lat="44.2837683" lon="10.665505"><ele>1305.0</ele><time>2026-05-03T14:19:37.744Z</time></trkpt><trkpt lat="44.28385" lon="10.665665"><ele>1303.0</ele><time>2026-05-03T14:19:38.744Z</time></trkpt><trkpt lat="44.2839167" lon="10.66583"><ele>1301.0</ele><time>2026-05-03T14:19:39.744Z</time></trkpt><trkpt lat="44.283985" lon="10.6659917"><ele>1299.0</ele><time>2026-05-03T14:19:40.743Z</time></trkpt><trkpt lat="44.28405" lon="10.6661433"><ele>1297.0</ele><time>2026-05-03T14:19:41.744Z</time></trkpt><trkpt lat="44.28413" lon="10.666285"><ele>1297.0</ele><time>2026-05-03T14:19:42.744Z</time></trkpt><trkpt lat="44.2842067" lon="10.666405"><ele>1297.0</ele><time>2026-05-03T14:19:43.744Z</time></trkpt><trkpt lat="44.2842817" lon="10.6664917"><ele>1297.0</ele><time>2026-05-03T14:19:44.744Z</time></trkpt><trkpt lat="44.2843583" lon="10.6665383"><ele>1297.0</ele><time>2026-05-03T14:19:45.744Z</time></trkpt><trkpt lat="44.2844517" lon="10.66658"><ele>1297.0</ele><time>2026-05-03T14:19:46.744Z</time></trkpt><trkpt lat="44.2845483" lon="10.666605"><ele>1297.0</ele><time>2026-05-03T14:19:47.744Z</time></trkpt><trkpt lat="44.2846617" lon="10.6666067"><ele>1297.0</ele><time>2026-05-03T14:19:48.744Z</time></trkpt><trkpt lat="44.2847783" lon="10.6665817"><ele>1297.0</ele><time>2026-05-03T14:19:49.744Z</time></trkpt><trkpt lat="44.284895" lon="10.6665767"><ele>1297.0</ele><time>2026-05-03T14:19:50.744Z</time></trkpt><trkpt lat="44.285015" lon="10.6665783"><ele>1299.1999999999998</ele><time>2026-05-03T14:19:51.743Z</time></trkpt><trkpt lat="44.2851317" lon="10.6665783"><ele>1301.4</ele><time>2026-05-03T14:19:52.743Z</time></trkpt><trkpt lat="44.2852467" lon="10.6665717"><ele>1303.6</ele><time>2026-05-03T14:19:53.743Z</time></trkpt><trkpt lat="44.2853517" lon="10.6665717"><ele>1305.8000000000002</ele><time>2026-05-03T14:19:54.744Z</time></trkpt><trkpt lat="44.2854633" lon="10.6665817"><ele>1308.0</ele><time>2026-05-03T14:19:55.744Z</time></trkpt><trkpt lat="44.2855667" lon="10.6665883"><ele>1309.0</ele><time>2026-05-03T14:19:56.744Z</time></trkpt><trkpt lat="44.2856783" lon="10.6665917"><ele>1310.0</ele><time>2026-05-03T14:19:57.744Z</time></trkpt><trkpt lat="44.285775" lon="10.6665933"><ele>1311.0</ele><time>2026-05-03T14:19:58.743Z</time></trkpt><trkpt lat="44.28587" lon="10.6665933"><ele>1312.0</ele><time>2026-05-03T14:19:59.744Z</time></trkpt><trkpt lat="44.2859717" lon="10.6666017"><ele>1313.0</ele><time>2026-05-03T14:20:00.744Z</time></trkpt><trkpt lat="44.2860683" lon="10.6666117"><ele>1313.0</ele><time>2026-05-03T14:20:01.743Z</time></trkpt><trkpt lat="44.286155" lon="10.6666233"><ele>1313.0</ele><time>2026-05-03T14:20:02.744Z</time></trkpt><trkpt lat="44.286245" lon="10.666625"><ele>1313.0</ele><time>2026-05-03T14:20:03.744Z</time></trkpt><trkpt lat="44.2863317" lon="10.6666367"><ele>1313.0</ele><time>2026-05-03T14:20:04.744Z</time></trkpt><trkpt lat="44.2863983" lon="10.6666333"><ele>1313.0</ele><time>2026-05-03T14:20:05.743Z</time></trkpt><trkpt lat="44.2864633" lon="10.6666317"><ele>1313.0</ele><time>2026-05-03T14:20:06.743Z</time></trkpt><trkpt lat="44.2865367" lon="10.66661"><ele>1311.5</ele><time>2026-05-03T14:20:07.743Z</time></trkpt><trkpt lat="44.2866" lon="10.6665767"><ele>1310.0</ele><time>2026-05-03T14:20:08.744Z</time></trkpt><trkpt lat="44.2866517" lon="10.6665117"><ele>1308.5</ele><time>2026-05-03T14:20:09.744Z</time></trkpt><trkpt lat="44.286695" lon="10.666445"><ele>1307.0</ele><time>2026-05-03T14:20:10.744Z</time></trkpt><trkpt lat="44.28676" lon="10.66629"><ele>1305.5</ele><time>2026-05-03T14:20:12.744Z</time></trkpt><trkpt lat="44.2868083" lon="10.66615"><ele>1304.0</ele><time>2026-05-03T14:20:14.744Z</time></trkpt><trkpt lat="44.28684" lon="10.66599"><ele>1303.0</ele><time>2026-05-03T14:20:16.744Z</time></trkpt><trkpt lat="44.2868683" lon="10.6658433"><ele>1303.0</ele><time>2026-05-03T14:20:18.744Z</time></trkpt><trkpt lat="44.2869167" lon="10.665785"><ele>1303.0</ele><time>2026-05-03T14:20:20.743Z</time></trkpt><trkpt lat="44.2869817" lon="10.6657983"><ele>1303.0</ele><time>2026-05-03T14:20:22.744Z</time></trkpt><trkpt lat="44.2870467" lon="10.66577"><ele>1303.0</ele><time>2026-05-03T14:20:25.744Z</time></trkpt></trkseg></trk></gpx>